<?xml version='1.0' encoding='UTF-8'?><gpx version="1.1" creator="JPX - https://github.com/jenetics/jpx" xmlns="http://www.topografix.com/GPX/1/1"><trk><trkseg><trkpt lat="-20.054169375656304" lon="119.82735502858118"><ele>25.000000000000004</ele><time>2026-04-24T00:06:05Z</time></trkpt><trkpt lat="-20.054205906676206" lon="119.82729820978398"><ele>25.0</ele><time>2026-04-24T00:06:07Z</time></trkpt><trkpt lat="-20.05424393738567" lon="119.82723725546542"><ele>25.0</ele><time>2026-04-24T00:06:08.999Z</time></trkpt><trkpt lat="-20.05428736535913" lon="119.82716654216966"><ele>25.0</ele><time>2026-04-24T00:06:14.999Z</time></trkpt><trkpt lat="-20.0543625993335" lon="119.82702994447989"><ele>25.000000000000004</ele><time>2026-04-24T00:06:17.999Z</time></trkpt><trkpt lat="-20.05440109872913" lon="119.82695813070804"><ele>25.0</ele><time>2026-04-24T00:06:18.999Z</time></trkpt><trkpt lat="-20.054341256699526" lon="119.82700000215405"><ele>25.0</ele><time>2026-04-24T00:06:39.999Z</time></trkpt><trkpt lat="-20.05412532265773" lon="119.82714638413132"><ele>25.0</ele><time>2026-04-24T00:07:00Z</time></trkpt><trkpt lat="-20.054142791373426" lon="119.82724082536427"><ele>25.0</ele><time>2026-04-24T00:07:06Z</time></trkpt><trkpt lat="-20.054114948524383" lon="119.82730097133569"><ele>25.0</ele><time>2026-04-24T00:07:09Z</time></trkpt><trkpt lat="-20.05417942340056" lon="119.8273344034275"><ele>25.000000000000004</ele><time>2026-04-24T00:07:21Z</time></trkpt><trkpt lat="-20.05411003107302" lon="119.82734309679927"><ele>25.0</ele><time>2026-04-24T00:08:00Z</time></trkpt><trkpt lat="-20.054186515127835" lon="119.82730652978894"><ele>25.0</ele><time>2026-04-24T00:09:00Z</time></trkpt><trkpt lat="-20.054155700570163" lon="119.8273684892402"><ele>25.0</ele><time>2026-04-24T00:09:27Z</time></trkpt><trkpt lat="-20.054131120902973" lon="119.82744424893308"><ele>25.0</ele><time>2026-04-24T00:09:34Z</time></trkpt><trkpt lat="-20.05408994086336" lon="119.8274999693332"><ele>25.000000000000004</ele><time>2026-04-24T00:10:52Z</time></trkpt><trkpt lat="-20.054057017182195" lon="119.8275618712402"><ele>25.0</ele><time>2026-04-24T00:10:57Z</time></trkpt><trkpt lat="-20.054092192875526" lon="119.827629303503"><ele>25.000000000000004</ele><time>2026-04-24T00:11:05.001Z</time></trkpt><trkpt lat="-20.054162606221585" lon="119.82764897691634"><ele>25.0</ele><time>2026-04-24T00:11:22.001Z</time></trkpt><trkpt lat="-20.054222081218406" lon="119.82771331002132"><ele>25.0</ele><time>2026-04-24T00:16:21.001Z</time></trkpt><trkpt lat="-20.05428950722979" lon="119.8277597879051"><ele>25.0</ele><time>2026-04-24T00:16:22.001Z</time></trkpt><trkpt lat="-20.054359378696354" lon="119.8278098713416"><ele>25.000000000000004</ele><time>2026-04-24T00:16:23.001Z</time></trkpt><trkpt lat="-20.054314729108626" lon="119.82785867693529"><ele>25.0</ele><time>2026-04-24T00:16:24.001Z</time></trkpt><trkpt lat="-20.054164424670898" lon="119.8276264230064"><ele>25.000000000000004</ele><time>2026-04-24T00:16:25.001Z</time></trkpt><trkpt lat="-20.05409840418085" lon="119.82762108235187"><ele>25.0</ele><time>2026-04-24T00:19:45.001Z</time></trkpt><trkpt lat="-20.054085496278965" lon="119.82754882115543"><ele>25.0</ele><time>2026-04-24T00:19:52.001Z</time></trkpt><trkpt lat="-20.054122550547817" lon="119.82748389882246"><ele>25.0</ele><time>2026-04-24T00:19:57.001Z</time></trkpt><trkpt lat="-20.054130358778785" lon="119.82740426967823"><ele>25.000000000000004</ele><time>2026-04-24T00:30:29Z</time></trkpt><trkpt lat="-20.054121866758685" lon="119.82729235622475"><ele>25.0</ele><time>2026-04-24T00:30:31Z</time></trkpt><trkpt lat="-20.054106610098913" lon="119.82714622267657"><ele>24.833333333333336</ele><time>2026-04-24T00:30:33Z</time></trkpt><trkpt lat="-20.05408716328815" lon="119.82706408504019"><ele>24.666666666666668</ele><time>2026-04-24T00:30:34Z</time></trkpt><trkpt lat="-20.05398821532922" lon="119.8270246470752"><ele>24.5</ele><time>2026-04-24T00:30:35Z</time></trkpt><trkpt lat="-20.05395440659282" lon="119.82695717833532"><ele>24.333333333333336</ele><time>2026-04-24T00:30:36Z</time></trkpt><trkpt lat="-20.053915305794018" lon="119.82688068315849"><ele>24.166666666666668</ele><time>2026-04-24T00:30:37Z</time></trkpt><trkpt lat="-20.053868800649536" lon="119.82680345467224"><ele>24.0</ele><time>2026-04-24T00:30:38Z</time></trkpt><trkpt lat="-20.05381564535443" lon="119.82672347349127"><ele>23.999999999999996</ele><time>2026-04-24T00:30:39Z</time></trkpt><trkpt lat="-20.053767877444393" lon="119.82664383349811"><ele>24.0</ele><time>2026-04-24T00:30:40Z</time></trkpt><trkpt lat="-20.053731489511033" lon="119.82657404189389"><ele>24.0</ele><time>2026-04-24T00:30:41Z</time></trkpt><trkpt lat="-20.053702339513144" lon="119.8265074737203"><ele>24.0</ele><time>2026-04-24T00:30:42Z</time></trkpt><trkpt lat="-20.053676356141516" lon="119.82644571893655"><ele>24.0</ele><time>2026-04-24T00:30:43Z</time></trkpt><trkpt lat="-20.053648369737544" lon="119.82637920354165"><ele>23.999999999999996</ele><time>2026-04-24T00:30:44Z</time></trkpt><trkpt lat="-20.0536175259377" lon="119.82630589714788"><ele>24.0</ele><time>2026-04-24T00:30:45Z</time></trkpt><trkpt lat="-20.053728901000788" lon="119.82615122969935"><ele>24.0</ele><time>2026-04-24T00:30:46Z</time></trkpt><trkpt lat="-20.05376589970375" lon="119.82603663038925"><ele>24.0</ele><time>2026-04-24T00:30:47Z</time></trkpt><trkpt lat="-20.053826325331382" lon="119.8259120242138"><ele>24.0</ele><time>2026-04-24T00:30:48Z</time></trkpt><trkpt lat="-20.05389371868107" lon="119.82577386250212"><ele>24.0</ele><time>2026-04-24T00:30:49Z</time></trkpt><trkpt lat="-20.053962413539633" lon="119.82562120765036"><ele>24.0</ele><time>2026-04-24T00:30:50Z</time></trkpt><trkpt lat="-20.054035829535014" lon="119.8254521371414"><ele>24.0</ele><time>2026-04-24T00:30:51Z</time></trkpt><trkpt lat="-20.054113562420035" lon="119.82527860302712"><ele>24.0</ele><time>2026-04-24T00:30:52Z</time></trkpt><trkpt lat="-20.054193623157825" lon="119.8250989241736"><ele>24.0</ele><time>2026-04-24T00:30:53Z</time></trkpt><trkpt lat="-20.054278246629345" lon="119.82490343084167"><ele>24.0</ele><time>2026-04-24T00:30:54Z</time></trkpt><trkpt lat="-20.05436357607968" lon="119.82470696279141"><ele>24.0</ele><time>2026-04-24T00:30:55Z</time></trkpt><trkpt lat="-20.05445317017523" lon="119.82450842605549"><ele>23.666666666666668</ele><time>2026-04-24T00:30:56Z</time></trkpt><trkpt lat="-20.05454371125376" lon="119.82431063509947"><ele>23.333333333333336</ele><time>2026-04-24T00:30:57Z</time></trkpt><trkpt lat="-20.05463261825472" lon="119.82411608803467"><ele>23.0</ele><time>2026-04-24T00:30:58Z</time></trkpt><trkpt lat="-20.054720158862626" lon="119.82392660645118"><ele>23.0</ele><time>2026-04-24T00:30:59Z</time></trkpt><trkpt lat="-20.05480618601717" lon="119.82374272072556"><ele>23.0</ele><time>2026-04-24T00:31:00Z</time></trkpt><trkpt lat="-20.054893849251382" lon="119.82356300110453"><ele>23.0</ele><time>2026-04-24T00:31:01Z</time></trkpt><trkpt lat="-20.054979440766655" lon="119.82339054468207"><ele>23.0</ele><time>2026-04-24T00:31:02Z</time></trkpt><trkpt lat="-20.05506707606111" lon="119.82322238236732"><ele>23.0</ele><time>2026-04-24T00:31:03Z</time></trkpt><trkpt lat="-20.05514905162734" lon="119.82305770430303"><ele>23.0</ele><time>2026-04-24T00:31:04Z</time></trkpt><trkpt lat="-20.055225346356405" lon="119.82290246873157"><ele>23.0</ele><time>2026-04-24T00:31:05Z</time></trkpt><trkpt lat="-20.055297981253553" lon="119.8227524573638"><ele>23.0</ele><time>2026-04-24T00:31:06Z</time></trkpt><trkpt lat="-20.05536955774109" lon="119.82261148432596"><ele>23.0</ele><time>2026-04-24T00:31:07Z</time></trkpt><trkpt lat="-20.05543591640898" lon="119.82248215766187"><ele>23.0</ele><time>2026-04-24T00:31:08Z</time></trkpt><trkpt lat="-20.055495774786316" lon="119.82237469910373"><ele>22.833333333333336</ele><time>2026-04-24T00:31:09Z</time></trkpt><trkpt lat="-20.05553718486172" lon="119.82230831980998"><ele>22.666666666666668</ele><time>2026-04-24T00:31:10Z</time></trkpt><trkpt lat="-20.055601300700772" lon="119.82226389343221"><ele>22.5</ele><time>2026-04-24T00:31:12Z</time></trkpt><trkpt lat="-20.055689124391893" lon="119.82230683435812"><ele>22.333333333333332</ele><time>2026-04-24T00:31:14Z</time></trkpt><trkpt lat="-20.055759859450635" lon="119.82232841322117"><ele>22.166666666666664</ele><time>2026-04-24T00:31:15Z</time></trkpt><trkpt lat="-20.055833774413227" lon="119.82238164673475"><ele>22.0</ele><time>2026-04-24T00:31:16Z</time></trkpt><trkpt lat="-20.055930789269738" lon="119.82244112188914"><ele>22.0</ele><time>2026-04-24T00:31:16.999Z</time></trkpt><trkpt lat="-20.05604030287452" lon="119.82250190997873"><ele>22.0</ele><time>2026-04-24T00:31:17.999Z</time></trkpt><trkpt lat="-20.056152090363465" lon="119.82256249824026"><ele>22.0</ele><time>2026-04-24T00:31:18.999Z</time></trkpt><trkpt lat="-20.056269702977772" lon="119.82263060324554"><ele>22.0</ele><time>2026-04-24T00:31:19.999Z</time></trkpt><trkpt lat="-20.056399422640503" lon="119.82270486308644"><ele>22.0</ele><time>2026-04-24T00:31:20.999Z</time></trkpt><trkpt lat="-20.056534965172187" lon="119.82277864498587"><ele>22.0</ele><time>2026-04-24T00:31:21.999Z</time></trkpt><trkpt lat="-20.05667705349884" lon="119.82285438750303"><ele>22.0</ele><time>2026-04-24T00:31:22.999Z</time></trkpt><trkpt lat="-20.056821526890346" lon="119.8229340300237"><ele>21.666666666666664</ele><time>2026-04-24T00:31:23.999Z</time></trkpt><trkpt lat="-20.05697134048753" lon="119.82301394893952"><ele>21.333333333333332</ele><time>2026-04-24T00:31:24.999Z</time></trkpt><trkpt lat="-20.05713046962306" lon="119.8231023008995"><ele>21.0</ele><time>2026-04-24T00:31:25.999Z</time></trkpt><trkpt lat="-20.05729157812942" lon="119.82318593543353"><ele>21.0</ele><time>2026-04-24T00:31:26.999Z</time></trkpt><trkpt lat="-20.057455744736334" lon="119.82327123651012"><ele>21.0</ele><time>2026-04-24T00:31:27.999Z</time></trkpt><trkpt lat="-20.05762043687559" lon="119.82335235800983"><ele>21.0</ele><time>2026-04-24T00:31:28.999Z</time></trkpt><trkpt lat="-20.057789291580722" lon="119.8234314725553"><ele>20.666666666666668</ele><time>2026-04-24T00:31:29.999Z</time></trkpt><trkpt lat="-20.057956615193486" lon="119.82353013595292"><ele>20.333333333333336</ele><time>2026-04-24T00:31:30.999Z</time></trkpt><trkpt lat="-20.058134483306997" lon="119.82361577566907"><ele>20.0</ele><time>2026-04-24T00:31:32Z</time></trkpt><trkpt lat="-20.058322228136483" lon="119.82370554124391"><ele>19.5</ele><time>2026-04-24T00:31:33Z</time></trkpt><trkpt lat="-20.058535317761432" lon="119.82378492525653"><ele>19.0</ele><time>2026-04-24T00:31:34Z</time></trkpt><trkpt lat="-20.058739831956817" lon="119.82389310860168"><ele>19.0</ele><time>2026-04-24T00:31:35Z</time></trkpt><trkpt lat="-20.058962148977663" lon="119.82396456749129"><ele>19.0</ele><time>2026-04-24T00:31:36Z</time></trkpt><trkpt lat="-20.059190817468107" lon="119.8240570130905"><ele>19.0</ele><time>2026-04-24T00:31:37Z</time></trkpt><trkpt lat="-20.059428262289707" lon="119.82415011774611"><ele>19.0</ele><time>2026-04-24T00:31:38Z</time></trkpt><trkpt lat="-20.059668415301967" lon="119.82423680769475"><ele>18.5</ele><time>2026-04-24T00:31:39Z</time></trkpt><trkpt lat="-20.059899250585246" lon="119.8243198416662"><ele>18.0</ele><time>2026-04-24T00:31:40Z</time></trkpt><trkpt lat="-20.060130733386913" lon="119.82440288724163"><ele>18.0</ele><time>2026-04-24T00:31:41Z</time></trkpt><trkpt lat="-20.060364296326888" lon="119.82448680437294"><ele>18.0</ele><time>2026-04-24T00:31:42Z</time></trkpt><trkpt lat="-20.06059291354764" lon="119.8245692080522"><ele>18.5</ele><time>2026-04-24T00:31:43Z</time></trkpt><trkpt lat="-20.06082741897836" lon="119.82465176788811"><ele>19.0</ele><time>2026-04-24T00:31:44Z</time></trkpt><trkpt lat="-20.061060775102273" lon="119.82473127078707"><ele>19.0</ele><time>2026-04-24T00:31:45Z</time></trkpt><trkpt lat="-20.061296299388303" lon="119.82480878864831"><ele>19.0</ele><time>2026-04-24T00:31:46Z</time></trkpt><trkpt lat="-20.06153197551191" lon="119.82489017867307"><ele>18.0</ele><time>2026-04-24T00:31:47Z</time></trkpt><trkpt lat="-20.061773673322296" lon="119.82497552514269"><ele>17.0</ele><time>2026-04-24T00:31:48Z</time></trkpt><trkpt lat="-20.0620092011247" lon="119.82505425252536"><ele>17.0</ele><time>2026-04-24T00:31:49Z</time></trkpt><trkpt lat="-20.062251535584306" lon="119.82513046505412"><ele>17.0</ele><time>2026-04-24T00:31:50Z</time></trkpt><trkpt lat="-20.062500315496944" lon="119.82520711383529"><ele>17.5</ele><time>2026-04-24T00:31:51Z</time></trkpt><trkpt lat="-20.062751616947978" lon="119.82528096244558"><ele>18.0</ele><time>2026-04-24T00:31:52Z</time></trkpt><trkpt lat="-20.06299736216297" lon="119.82534857301133"><ele>18.0</ele><time>2026-04-24T00:31:53Z</time></trkpt><trkpt lat="-20.063250152256213" lon="119.82541595652016"><ele>18.0</ele><time>2026-04-24T00:31:54Z</time></trkpt><trkpt lat="-20.063503991750608" lon="119.82548344709244"><ele>18.0</ele><time>2026-04-24T00:31:55Z</time></trkpt><trkpt lat="-20.063754830538308" lon="119.82555209868907"><ele>18.0</ele><time>2026-04-24T00:31:56Z</time></trkpt><trkpt lat="-20.06400609104766" lon="119.82562101439528"><ele>18.0</ele><time>2026-04-24T00:31:57Z</time></trkpt><trkpt lat="-20.064258773729698" lon="119.82568936552786"><ele>18.0</ele><time>2026-04-24T00:31:58Z</time></trkpt><trkpt lat="-20.064507527871868" lon="119.82575600338932"><ele>18.0</ele><time>2026-04-24T00:31:59Z</time></trkpt><trkpt lat="-20.064758422487845" lon="119.82582397631823"><ele>18.0</ele><time>2026-04-24T00:32:00Z</time></trkpt><trkpt lat="-20.065006158499802" lon="119.82589082878069"><ele>17.5</ele><time>2026-04-24T00:32:01Z</time></trkpt><trkpt lat="-20.065251330593917" lon="119.82595918839714"><ele>17.0</ele><time>2026-04-24T00:32:02Z</time></trkpt><trkpt lat="-20.065497497219162" lon="119.82602651563705"><ele>17.0</ele><time>2026-04-24T00:32:03Z</time></trkpt><trkpt lat="-20.06574438669817" lon="119.82609268875005"><ele>17.0</ele><time>2026-04-24T00:32:04Z</time></trkpt><trkpt lat="-20.0659924293399" lon="119.82615810001819"><ele>17.0</ele><time>2026-04-24T00:32:05Z</time></trkpt><trkpt lat="-20.066238496705875" lon="119.82622246680273"><ele>17.0</ele><time>2026-04-24T00:32:06Z</time></trkpt><trkpt lat="-20.066488264168076" lon="119.82628838171588"><ele>17.0</ele><time>2026-04-24T00:32:07Z</time></trkpt><trkpt lat="-20.06674192997332" lon="119.82635518456554"><ele>17.0</ele><time>2026-04-24T00:32:08Z</time></trkpt><trkpt lat="-20.066999712543478" lon="119.82642434965388"><ele>17.0</ele><time>2026-04-24T00:32:09Z</time></trkpt><trkpt lat="-20.067255460021" lon="119.82649448657645"><ele>17.0</ele><time>2026-04-24T00:32:10Z</time></trkpt><trkpt lat="-20.06751302744687" lon="119.82656385005929"><ele>18.0</ele><time>2026-04-24T00:32:11Z</time></trkpt><trkpt lat="-20.067774609716988" lon="119.82663213229306"><ele>19.0</ele><time>2026-04-24T00:32:12Z</time></trkpt><trkpt lat="-20.06803979844865" lon="119.82669876120231"><ele>19.0</ele><time>2026-04-24T00:32:13Z</time></trkpt><trkpt lat="-20.06830131929959" lon="119.82676460242529"><ele>19.0</ele><time>2026-04-24T00:32:14Z</time></trkpt><trkpt lat="-20.068563217352825" lon="119.82683227815036"><ele>19.0</ele><time>2026-04-24T00:32:15Z</time></trkpt><trkpt lat="-20.068822499493205" lon="119.82690245336191"><ele>19.0</ele><time>2026-04-24T00:32:16Z</time></trkpt><trkpt lat="-20.06908154401941" lon="119.82697130097213"><ele>19.5</ele><time>2026-04-24T00:32:17Z</time></trkpt><trkpt lat="-20.069339183366782" lon="119.8270383484153"><ele>20.0</ele><time>2026-04-24T00:32:18Z</time></trkpt><trkpt lat="-20.069596361078915" lon="119.82710510992501"><ele>20.0</ele><time>2026-04-24T00:32:19Z</time></trkpt><trkpt lat="-20.06984974272657" lon="119.82716966401647"><ele>20.0</ele><time>2026-04-24T00:32:20Z</time></trkpt><trkpt lat="-20.070108506902653" lon="119.82723670781495"><ele>19.5</ele><time>2026-04-24T00:32:21Z</time></trkpt><trkpt lat="-20.07036405492557" lon="119.8273026260334"><ele>19.0</ele><time>2026-04-24T00:32:22Z</time></trkpt><trkpt lat="-20.070619180915457" lon="119.82736923095418"><ele>19.0</ele><time>2026-04-24T00:32:23Z</time></trkpt><trkpt lat="-20.07087615709587" lon="119.8274336163009"><ele>19.0</ele><time>2026-04-24T00:32:24Z</time></trkpt><trkpt lat="-20.071132567174367" lon="119.8274952627273"><ele>19.0</ele><time>2026-04-24T00:32:25Z</time></trkpt><trkpt lat="-20.071388619544354" lon="119.82755769697313"><ele>19.0</ele><time>2026-04-24T00:32:26Z</time></trkpt><trkpt lat="-20.071644393330008" lon="119.82762112403395"><ele>19.0</ele><time>2026-04-24T00:32:27Z</time></trkpt><trkpt lat="-20.071900971608095" lon="119.82768530272504"><ele>19.0</ele><time>2026-04-24T00:32:28Z</time></trkpt><trkpt lat="-20.072157398111635" lon="119.82774738319735"><ele>19.0</ele><time>2026-04-24T00:32:29Z</time></trkpt><trkpt lat="-20.072419610483497" lon="119.82781054797901"><ele>19.0</ele><time>2026-04-24T00:32:30Z</time></trkpt><trkpt lat="-20.07268199630707" lon="119.82787570984505"><ele>19.5</ele><time>2026-04-24T00:32:31Z</time></trkpt><trkpt lat="-20.072948546383966" lon="119.82794104628702"><ele>20.0</ele><time>2026-04-24T00:32:32Z</time></trkpt><trkpt lat="-20.073218464519176" lon="119.82800925674391"><ele>20.5</ele><time>2026-04-24T00:32:33Z</time></trkpt><trkpt lat="-20.073484425923144" lon="119.8280723461476"><ele>21.0</ele><time>2026-04-24T00:32:34Z</time></trkpt><trkpt lat="-20.073751581508475" lon="119.82813586806562"><ele>21.0</ele><time>2026-04-24T00:32:35Z</time></trkpt><trkpt lat="-20.074016730762807" lon="119.82819853445604"><ele>21.0</ele><time>2026-04-24T00:32:36Z</time></trkpt><trkpt lat="-20.074284764574504" lon="119.82826264686457"><ele>21.0</ele><time>2026-04-24T00:32:37Z</time></trkpt><trkpt lat="-20.0745516748588" lon="119.82832596192733"><ele>21.0</ele><time>2026-04-24T00:32:38Z</time></trkpt><trkpt lat="-20.074814633003374" lon="119.82838777499106"><ele>21.5</ele><time>2026-04-24T00:32:39Z</time></trkpt><trkpt lat="-20.075082922200153" lon="119.82845056532658"><ele>22.0</ele><time>2026-04-24T00:32:40Z</time></trkpt><trkpt lat="-20.07534772963252" lon="119.82851215897941"><ele>22.0</ele><time>2026-04-24T00:32:41Z</time></trkpt><trkpt lat="-20.075611674828234" lon="119.82857390900813"><ele>22.0</ele><time>2026-04-24T00:32:42Z</time></trkpt><trkpt lat="-20.07587357462426" lon="119.82863507811892"><ele>22.5</ele><time>2026-04-24T00:32:43Z</time></trkpt><trkpt lat="-20.07613462221457" lon="119.82869617209394"><ele>23.0</ele><time>2026-04-24T00:32:44Z</time></trkpt><trkpt lat="-20.076396904134764" lon="119.82875604704005"><ele>23.5</ele><time>2026-04-24T00:32:45Z</time></trkpt><trkpt lat="-20.07665635557198" lon="119.82881549648123"><ele>24.0</ele><time>2026-04-24T00:32:46Z</time></trkpt><trkpt lat="-20.076913624483904" lon="119.82887611127136"><ele>24.0</ele><time>2026-04-24T00:32:47Z</time></trkpt><trkpt lat="-20.077171731031832" lon="119.82893753402772"><ele>24.0</ele><time>2026-04-24T00:32:48Z</time></trkpt><trkpt lat="-20.077432139620214" lon="119.82899956403182"><ele>22.5</ele><time>2026-04-24T00:32:49Z</time></trkpt><trkpt lat="-20.077695745552965" lon="119.82906230588362"><ele>21.0</ele><time>2026-04-24T00:32:50Z</time></trkpt><trkpt lat="-20.077958574824837" lon="119.8291216849584"><ele>21.0</ele><time>2026-04-24T00:32:51Z</time></trkpt><trkpt lat="-20.078221140535877" lon="119.82917956067892"><ele>21.0</ele><time>2026-04-24T00:32:52Z</time></trkpt><trkpt lat="-20.07848410181394" lon="119.82923898658963"><ele>22.5</ele><time>2026-04-24T00:32:53Z</time></trkpt><trkpt lat="-20.07874637628423" lon="119.82930167349073"><ele>24.0</ele><time>2026-04-24T00:32:54Z</time></trkpt><trkpt lat="-20.079008962235847" lon="119.8293675637666"><ele>24.0</ele><time>2026-04-24T00:32:55Z</time></trkpt><trkpt lat="-20.079271578917268" lon="119.82943336387955"><ele>24.0</ele><time>2026-04-24T00:32:56Z</time></trkpt><trkpt lat="-20.079532704113394" lon="119.82949841858122"><ele>24.0</ele><time>2026-04-24T00:32:57Z</time></trkpt><trkpt lat="-20.07979085249774" lon="119.82956364955706"><ele>24.0</ele><time>2026-04-24T00:32:58Z</time></trkpt><trkpt lat="-20.080047576144487" lon="119.82963334328724"><ele>23.5</ele><time>2026-04-24T00:32:59Z</time></trkpt><trkpt lat="-20.080305803310374" lon="119.82970490839324"><ele>23.0</ele><time>2026-04-24T00:33:00Z</time></trkpt><trkpt lat="-20.0805629824654" lon="119.82977550637938"><ele>23.5</ele><time>2026-04-24T00:33:01Z</time></trkpt><trkpt lat="-20.080820153503147" lon="119.82984517664187"><ele>24.0</ele><time>2026-04-24T00:33:02Z</time></trkpt><trkpt lat="-20.08108237126113" lon="119.82991581591067"><ele>24.0</ele><time>2026-04-24T00:33:03Z</time></trkpt><trkpt lat="-20.081344610262434" lon="119.82998506765362"><ele>24.0</ele><time>2026-04-24T00:33:04Z</time></trkpt><trkpt lat="-20.08160809489259" lon="119.83005481676429"><ele>24.5</ele><time>2026-04-24T00:33:05Z</time></trkpt><trkpt lat="-20.081873780703106" lon="119.83012419251364"><ele>25.0</ele><time>2026-04-24T00:33:06Z</time></trkpt><trkpt lat="-20.08214265391267" lon="119.8301941320146"><ele>25.0</ele><time>2026-04-24T00:33:07Z</time></trkpt><trkpt lat="-20.08241037418733" lon="119.83026589425356"><ele>25.0</ele><time>2026-04-24T00:33:08Z</time></trkpt><trkpt lat="-20.082679865054672" lon="119.83033731852862"><ele>25.0</ele><time>2026-04-24T00:33:09Z</time></trkpt><trkpt lat="-20.082950811751505" lon="119.83040892744057"><ele>25.0</ele><time>2026-04-24T00:33:10Z</time></trkpt><trkpt lat="-20.083219911417615" lon="119.83047837182326"><ele>25.5</ele><time>2026-04-24T00:33:11Z</time></trkpt><trkpt lat="-20.083487880364597" lon="119.83054741524185"><ele>26.0</ele><time>2026-04-24T00:33:12Z</time></trkpt><trkpt lat="-20.083758443513435" lon="119.83061633767379"><ele>26.0</ele><time>2026-04-24T00:33:13Z</time></trkpt><trkpt lat="-20.08402825350459" lon="119.83068307442076"><ele>26.0</ele><time>2026-04-24T00:33:14Z</time></trkpt><trkpt lat="-20.08429751000996" lon="119.83075088514805"><ele>25.5</ele><time>2026-04-24T00:33:15Z</time></trkpt><trkpt lat="-20.08456842063711" lon="119.83082104995854"><ele>25.0</ele><time>2026-04-24T00:33:16Z</time></trkpt><trkpt lat="-20.084836052890257" lon="119.83089086143607"><ele>25.0</ele><time>2026-04-24T00:33:17Z</time></trkpt><trkpt lat="-20.085103740173746" lon="119.83096051640517"><ele>25.0</ele><time>2026-04-24T00:33:18Z</time></trkpt><trkpt lat="-20.085371460091476" lon="119.83103239241018"><ele>25.0</ele><time>2026-04-24T00:33:19Z</time></trkpt><trkpt lat="-20.08564007990781" lon="119.8311032223358"><ele>25.0</ele><time>2026-04-24T00:33:20Z</time></trkpt><trkpt lat="-20.0859058547052" lon="119.83117375664656"><ele>26.0</ele><time>2026-04-24T00:33:21Z</time></trkpt><trkpt lat="-20.086170141896385" lon="119.83124542950952"><ele>27.0</ele><time>2026-04-24T00:33:22Z</time></trkpt><trkpt lat="-20.086432921683173" lon="119.83131851463726"><ele>26.0</ele><time>2026-04-24T00:33:22.999Z</time></trkpt><trkpt lat="-20.086692980817812" lon="119.83139331174361"><ele>25.0</ele><time>2026-04-24T00:33:23.999Z</time></trkpt><trkpt lat="-20.08695271582838" lon="119.8314710434525"><ele>25.0</ele><time>2026-04-24T00:33:24.999Z</time></trkpt><trkpt lat="-20.087214028871557" lon="119.83155312559859"><ele>25.0</ele><time>2026-04-24T00:33:25.999Z</time></trkpt><trkpt lat="-20.08747596266119" lon="119.83163656031464"><ele>26.0</ele><time>2026-04-24T00:33:26.999Z</time></trkpt><trkpt lat="-20.08774062218121" lon="119.83171924135927"><ele>27.0</ele><time>2026-04-24T00:33:27.999Z</time></trkpt><trkpt lat="-20.088006055605952" lon="119.83179834513801"><ele>26.5</ele><time>2026-04-24T00:33:28.999Z</time></trkpt><trkpt lat="-20.088270507893217" lon="119.83187435000158"><ele>26.0</ele><time>2026-04-24T00:33:29.999Z</time></trkpt><trkpt lat="-20.088539139762467" lon="119.83194725276034"><ele>26.0</ele><time>2026-04-24T00:33:30.999Z</time></trkpt><trkpt lat="-20.088804728785057" lon="119.83201654291967"><ele>26.0</ele><time>2026-04-24T00:33:31.999Z</time></trkpt><trkpt lat="-20.089069959368835" lon="119.83208523239483"><ele>26.0</ele><time>2026-04-24T00:33:32.999Z</time></trkpt><trkpt lat="-20.089338336052787" lon="119.83215812260357"><ele>26.0</ele><time>2026-04-24T00:33:33.999Z</time></trkpt><trkpt lat="-20.089601567901187" lon="119.83223258723172"><ele>26.0</ele><time>2026-04-24T00:33:34.999Z</time></trkpt><trkpt lat="-20.089868344132018" lon="119.83231088111476"><ele>26.0</ele><time>2026-04-24T00:33:35.999Z</time></trkpt><trkpt lat="-20.090136198015628" lon="119.83238466671699"><ele>26.5</ele><time>2026-04-24T00:33:36.999Z</time></trkpt><trkpt lat="-20.090406275884" lon="119.83245560262462"><ele>27.0</ele><time>2026-04-24T00:33:37.999Z</time></trkpt><trkpt lat="-20.090679544847564" lon="119.83252418099998"><ele>27.5</ele><time>2026-04-24T00:33:38.999Z</time></trkpt><trkpt lat="-20.09095077594049" lon="119.83259347537471"><ele>28.0</ele><time>2026-04-24T00:33:39.999Z</time></trkpt><trkpt lat="-20.09122109222384" lon="119.83266716907403"><ele>28.0</ele><time>2026-04-24T00:33:40.999Z</time></trkpt><trkpt lat="-20.09148632852402" lon="119.83274325445478"><ele>28.0</ele><time>2026-04-24T00:33:41.999Z</time></trkpt><trkpt lat="-20.091750066494757" lon="119.83282197626598"><ele>28.0</ele><time>2026-04-24T00:33:42.999Z</time></trkpt><trkpt lat="-20.092010062248736" lon="119.83290065736266"><ele>28.0</ele><time>2026-04-24T00:33:43.999Z</time></trkpt><trkpt lat="-20.09227186029181" lon="119.83297897112132"><ele>28.5</ele><time>2026-04-24T00:33:44.999Z</time></trkpt><trkpt lat="-20.09253552424404" lon="119.83305509382318"><ele>29.0</ele><time>2026-04-24T00:33:45.999Z</time></trkpt><trkpt lat="-20.09279855803603" lon="119.83313018051092"><ele>29.0</ele><time>2026-04-24T00:33:46.999Z</time></trkpt><trkpt lat="-20.093065763641896" lon="119.8332024359435"><ele>29.0</ele><time>2026-04-24T00:33:47.999Z</time></trkpt><trkpt lat="-20.093335931120272" lon="119.83326932011413"><ele>29.0</ele><time>2026-04-24T00:33:48.999Z</time></trkpt><trkpt lat="-20.09360846759482" lon="119.83333414972253"><ele>29.0</ele><time>2026-04-24T00:33:49.999Z</time></trkpt><trkpt lat="-20.09388067192836" lon="119.83339868663651"><ele>29.0</ele><time>2026-04-24T00:33:50.999Z</time></trkpt><trkpt lat="-20.094151480522225" lon="119.83346199118007"><ele>29.0</ele><time>2026-04-24T00:33:51.999Z</time></trkpt><trkpt lat="-20.094421466372854" lon="119.8335255296325"><ele>29.0</ele><time>2026-04-24T00:33:53Z</time></trkpt><trkpt lat="-20.094690976960116" lon="119.83358849003612"><ele>29.0</ele><time>2026-04-24T00:33:54Z</time></trkpt><trkpt lat="-20.094961684950203" lon="119.83365255165707"><ele>29.0</ele><time>2026-04-24T00:33:55Z</time></trkpt><trkpt lat="-20.095232087485222" lon="119.83371869232744"><ele>29.0</ele><time>2026-04-24T00:33:56Z</time></trkpt><trkpt lat="-20.095504174993263" lon="119.8337855386516"><ele>29.0</ele><time>2026-04-24T00:33:57Z</time></trkpt><trkpt lat="-20.095775855973436" lon="119.83385102869431"><ele>29.0</ele><time>2026-04-24T00:33:58Z</time></trkpt><trkpt lat="-20.09604580476637" lon="119.83391568949219"><ele>29.0</ele><time>2026-04-24T00:33:59Z</time></trkpt><trkpt lat="-20.096315326368174" lon="119.83398001361681"><ele>29.0</ele><time>2026-04-24T00:34:00Z</time></trkpt><trkpt lat="-20.096584219733288" lon="119.8340433322564"><ele>29.5</ele><time>2026-04-24T00:34:01Z</time></trkpt><trkpt lat="-20.096853217138825" lon="119.8341080482348"><ele>30.0</ele><time>2026-04-24T00:34:02Z</time></trkpt><trkpt lat="-20.097120643157535" lon="119.83417416180478"><ele>30.0</ele><time>2026-04-24T00:34:03Z</time></trkpt><trkpt lat="-20.09739134914973" lon="119.83423859026725"><ele>30.0</ele><time>2026-04-24T00:34:04Z</time></trkpt><trkpt lat="-20.097658458913493" lon="119.83430060715926"><ele>30.5</ele><time>2026-04-24T00:34:05Z</time></trkpt><trkpt lat="-20.0979289698445" lon="119.8343654031614"><ele>31.0</ele><time>2026-04-24T00:34:06Z</time></trkpt><trkpt lat="-20.098198053096034" lon="119.83442970978676"><ele>31.0</ele><time>2026-04-24T00:34:07Z</time></trkpt><trkpt lat="-20.098468504757516" lon="119.83449209854066"><ele>31.0</ele><time>2026-04-24T00:34:08Z</time></trkpt><trkpt lat="-20.098741736868597" lon="119.83454887538171"><ele>31.0</ele><time>2026-04-24T00:34:09Z</time></trkpt><trkpt lat="-20.09901683341514" lon="119.83460519040256"><ele>31.0</ele><time>2026-04-24T00:34:10Z</time></trkpt><trkpt lat="-20.099289972275333" lon="119.83465939031447"><ele>31.0</ele><time>2026-04-24T00:34:11Z</time></trkpt><trkpt lat="-20.099566806038087" lon="119.83471849772542"><ele>31.0</ele><time>2026-04-24T00:34:12Z</time></trkpt><trkpt lat="-20.09984153417158" lon="119.83477879444906"><ele>30.5</ele><time>2026-04-24T00:34:13Z</time></trkpt><trkpt lat="-20.100111691311906" lon="119.83484206418073"><ele>30.0</ele><time>2026-04-24T00:34:14Z</time></trkpt><trkpt lat="-20.1003809789609" lon="119.83490721785715"><ele>30.0</ele><time>2026-04-24T00:34:15Z</time></trkpt><trkpt lat="-20.100651546649804" lon="119.83497435302404"><ele>30.0</ele><time>2026-04-24T00:34:16Z</time></trkpt><trkpt lat="-20.100920485965634" lon="119.83503953402096"><ele>30.5</ele><time>2026-04-24T00:34:17Z</time></trkpt><trkpt lat="-20.101191517926978" lon="119.83510400924321"><ele>31.0</ele><time>2026-04-24T00:34:18Z</time></trkpt><trkpt lat="-20.101459816939386" lon="119.83516679514281"><ele>31.5</ele><time>2026-04-24T00:34:19Z</time></trkpt><trkpt lat="-20.10172468913159" lon="119.8352268800186"><ele>32.0</ele><time>2026-04-24T00:34:20Z</time></trkpt><trkpt lat="-20.101988241734432" lon="119.83528735477354"><ele>32.0</ele><time>2026-04-24T00:34:21Z</time></trkpt><trkpt lat="-20.1022483200957" lon="119.83534647563042"><ele>32.0</ele><time>2026-04-24T00:34:22Z</time></trkpt><trkpt lat="-20.102505877010106" lon="119.83540815004746"><ele>32.5</ele><time>2026-04-24T00:34:23Z</time></trkpt><trkpt lat="-20.102764938390685" lon="119.835471576205"><ele>33.0</ele><time>2026-04-24T00:34:24Z</time></trkpt><trkpt lat="-20.10302111539124" lon="119.8355361483853"><ele>32.5</ele><time>2026-04-24T00:34:25Z</time></trkpt><trkpt lat="-20.10327469179951" lon="119.83559589916332"><ele>32.0</ele><time>2026-04-24T00:34:26Z</time></trkpt><trkpt lat="-20.103529334344973" lon="119.83565613983883"><ele>32.0</ele><time>2026-04-24T00:34:27Z</time></trkpt><trkpt lat="-20.10378620927861" lon="119.83571764904568"><ele>32.0</ele><time>2026-04-24T00:34:28Z</time></trkpt><trkpt lat="-20.104041426657318" lon="119.83577543701756"><ele>32.0</ele><time>2026-04-24T00:34:29Z</time></trkpt><trkpt lat="-20.104302010191965" lon="119.83583613519515"><ele>32.0</ele><time>2026-04-24T00:34:30Z</time></trkpt><trkpt lat="-20.1045644841555" lon="119.8358966702631"><ele>32.0</ele><time>2026-04-24T00:34:31Z</time></trkpt><trkpt lat="-20.10482853168406" lon="119.83596293623552"><ele>32.0</ele><time>2026-04-24T00:34:32Z</time></trkpt><trkpt lat="-20.105086325394254" lon="119.83602273498262"><ele>32.0</ele><time>2026-04-24T00:34:33Z</time></trkpt><trkpt lat="-20.105346473367092" lon="119.83608608861788"><ele>32.0</ele><time>2026-04-24T00:34:34Z</time></trkpt><trkpt lat="-20.105605124193723" lon="119.83614872767339"><ele>32.0</ele><time>2026-04-24T00:34:35Z</time></trkpt><trkpt lat="-20.105866817731084" lon="119.83621100866715"><ele>32.0</ele><time>2026-04-24T00:34:36Z</time></trkpt><trkpt lat="-20.10613260159853" lon="119.83627474631538"><ele>32.0</ele><time>2026-04-24T00:34:37Z</time></trkpt><trkpt lat="-20.106394383389517" lon="119.8363425556679"><ele>32.0</ele><time>2026-04-24T00:34:38Z</time></trkpt><trkpt lat="-20.106653549403546" lon="119.83641512832953"><ele>32.0</ele><time>2026-04-24T00:34:39Z</time></trkpt><trkpt lat="-20.10691227301672" lon="119.83648871167865"><ele>32.0</ele><time>2026-04-24T00:34:40Z</time></trkpt><trkpt lat="-20.107172747824443" lon="119.83656157250752"><ele>32.0</ele><time>2026-04-24T00:34:41Z</time></trkpt><trkpt lat="-20.10743587980991" lon="119.83663598156251"><ele>32.0</ele><time>2026-04-24T00:34:42Z</time></trkpt><trkpt lat="-20.10770247997202" lon="119.83671593268058"><ele>32.0</ele><time>2026-04-24T00:34:43Z</time></trkpt><trkpt lat="-20.1079715416251" lon="119.83679744718218"><ele>32.0</ele><time>2026-04-24T00:34:44Z</time></trkpt><trkpt lat="-20.108242329984805" lon="119.83687675304972"><ele>33.5</ele><time>2026-04-24T00:34:45Z</time></trkpt><trkpt lat="-20.108510193990178" lon="119.83695351389582"><ele>35.0</ele><time>2026-04-24T00:34:46Z</time></trkpt><trkpt lat="-20.10877498057843" lon="119.83702796386697"><ele>35.0</ele><time>2026-04-24T00:34:47Z</time></trkpt><trkpt lat="-20.109035487787057" lon="119.83710483338909"><ele>35.0</ele><time>2026-04-24T00:34:48Z</time></trkpt><trkpt lat="-20.109292328111657" lon="119.83717790432725"><ele>34.0</ele><time>2026-04-24T00:34:49Z</time></trkpt><trkpt lat="-20.109549182397373" lon="119.83725065261557"><ele>33.0</ele><time>2026-04-24T00:34:50Z</time></trkpt><trkpt lat="-20.109804034225238" lon="119.83732121866971"><ele>33.0</ele><time>2026-04-24T00:34:51Z</time></trkpt><trkpt lat="-20.110061528164398" lon="119.83739261107961"><ele>33.0</ele><time>2026-04-24T00:34:52Z</time></trkpt><trkpt lat="-20.11056995804383" lon="119.83753470446233"><ele>33.0</ele><time>2026-04-24T00:34:54Z</time></trkpt><trkpt lat="-20.110820338201062" lon="119.83760522690604"><ele>33.0</ele><time>2026-04-24T00:34:55Z</time></trkpt><trkpt lat="-20.111071098399698" lon="119.8376761282724"><ele>33.0</ele><time>2026-04-24T00:34:56Z</time></trkpt><trkpt lat="-20.111322444578693" lon="119.83774349542345"><ele>33.0</ele><time>2026-04-24T00:34:57Z</time></trkpt><trkpt lat="-20.111571018919776" lon="119.83780950301384"><ele>33.0</ele><time>2026-04-24T00:34:58Z</time></trkpt><trkpt lat="-20.111827920768555" lon="119.83787683026182"><ele>33.0</ele><time>2026-04-24T00:34:59Z</time></trkpt><trkpt lat="-20.112086402657553" lon="119.83793944023618"><ele>33.0</ele><time>2026-04-24T00:35:00Z</time></trkpt><trkpt lat="-20.11234594290661" lon="119.83799614868032"><ele>33.0</ele><time>2026-04-24T00:35:01Z</time></trkpt><trkpt lat="-20.112604738963164" lon="119.8380495782194"><ele>34.0</ele><time>2026-04-24T00:35:02Z</time></trkpt><trkpt lat="-20.112862602889134" lon="119.8381019193147"><ele>35.0</ele><time>2026-04-24T00:35:03Z</time></trkpt><trkpt lat="-20.113117142081627" lon="119.83815741940282"><ele>35.0</ele><time>2026-04-24T00:35:04Z</time></trkpt><trkpt lat="-20.11337117209793" lon="119.83821651039742"><ele>35.0</ele><time>2026-04-24T00:35:05Z</time></trkpt><trkpt lat="-20.113623521890208" lon="119.83827992679673"><ele>35.0</ele><time>2026-04-24T00:35:06Z</time></trkpt><trkpt lat="-20.113878412359583" lon="119.83835004858642"><ele>35.0</ele><time>2026-04-24T00:35:07Z</time></trkpt><trkpt lat="-20.114119697049855" lon="119.83840648374996"><ele>35.0</ele><time>2026-04-24T00:35:08Z</time></trkpt><trkpt lat="-20.114369270764698" lon="119.83847234135307"><ele>35.0</ele><time>2026-04-24T00:35:09Z</time></trkpt><trkpt lat="-20.114617946628417" lon="119.83854002875833"><ele>35.0</ele><time>2026-04-24T00:35:10Z</time></trkpt><trkpt lat="-20.114868625646825" lon="119.83861095179954"><ele>35.0</ele><time>2026-04-24T00:35:11Z</time></trkpt><trkpt lat="-20.11511929389545" lon="119.83868198495718"><ele>35.0</ele><time>2026-04-24T00:35:12Z</time></trkpt><trkpt lat="-20.11537108058844" lon="119.83874928127182"><ele>35.0</ele><time>2026-04-24T00:35:13Z</time></trkpt><trkpt lat="-20.11561925890822" lon="119.83881044643701"><ele>35.0</ele><time>2026-04-24T00:35:14Z</time></trkpt><trkpt lat="-20.11587205528293" lon="119.83887295484568"><ele>35.0</ele><time>2026-04-24T00:35:15Z</time></trkpt><trkpt lat="-20.11613470381152" lon="119.8389385980988"><ele>35.0</ele><time>2026-04-24T00:35:16Z</time></trkpt><trkpt lat="-20.116396381874885" lon="119.83899953562319"><ele>35.0</ele><time>2026-04-24T00:35:17Z</time></trkpt><trkpt lat="-20.116655924438156" lon="119.83906414404912"><ele>35.5</ele><time>2026-04-24T00:35:18Z</time></trkpt><trkpt lat="-20.11691251382965" lon="119.83912705353305"><ele>36.0</ele><time>2026-04-24T00:35:19Z</time></trkpt><trkpt lat="-20.117174273040998" lon="119.8391926849674"><ele>36.5</ele><time>2026-04-24T00:35:20Z</time></trkpt><trkpt lat="-20.11742892436985" lon="119.83925496613458"><ele>37.0</ele><time>2026-04-24T00:35:21Z</time></trkpt><trkpt lat="-20.11768957110819" lon="119.83931488775687"><ele>37.5</ele><time>2026-04-24T00:35:22Z</time></trkpt><trkpt lat="-20.11795031426121" lon="119.83937058516243"><ele>38.0</ele><time>2026-04-24T00:35:23Z</time></trkpt><trkpt lat="-20.11821257187745" lon="119.83942991773927"><ele>38.0</ele><time>2026-04-24T00:35:24Z</time></trkpt><trkpt lat="-20.1184700282548" lon="119.8394884140877"><ele>38.0</ele><time>2026-04-24T00:35:25Z</time></trkpt><trkpt lat="-20.118727184933" lon="119.83955064623113"><ele>38.0</ele><time>2026-04-24T00:35:26Z</time></trkpt><trkpt lat="-20.1189853252409" lon="119.83961786782133"><ele>38.0</ele><time>2026-04-24T00:35:27Z</time></trkpt><trkpt lat="-20.119242271828732" lon="119.83968107894056"><ele>38.0</ele><time>2026-04-24T00:35:28Z</time></trkpt><trkpt lat="-20.119501014379743" lon="119.8397446389849"><ele>38.0</ele><time>2026-04-24T00:35:28.999Z</time></trkpt><trkpt lat="-20.119760253773215" lon="119.83980558223197"><ele>37.5</ele><time>2026-04-24T00:35:29.999Z</time></trkpt><trkpt lat="-20.12001994693945" lon="119.83986292196958"><ele>37.0</ele><time>2026-04-24T00:35:30.999Z</time></trkpt><trkpt lat="-20.12027720378853" lon="119.8399210888825"><ele>37.0</ele><time>2026-04-24T00:35:31.999Z</time></trkpt><trkpt lat="-20.120535390972762" lon="119.83998194238957"><ele>37.0</ele><time>2026-04-24T00:35:32.999Z</time></trkpt><trkpt lat="-20.120797210837345" lon="119.84004482819844"><ele>37.5</ele><time>2026-04-24T00:35:33.999Z</time></trkpt><trkpt lat="-20.121058853260248" lon="119.8401055384368"><ele>38.0</ele><time>2026-04-24T00:35:34.999Z</time></trkpt><trkpt lat="-20.121318948517487" lon="119.84016247221848"><ele>38.5</ele><time>2026-04-24T00:35:35.999Z</time></trkpt><trkpt lat="-20.121580142469753" lon="119.8402170199647"><ele>39.0</ele><time>2026-04-24T00:35:37Z</time></trkpt><trkpt lat="-20.121843538759443" lon="119.84027001650009"><ele>39.0</ele><time>2026-04-24T00:35:38Z</time></trkpt><trkpt lat="-20.122102746096093" lon="119.84032430873539"><ele>39.0</ele><time>2026-04-24T00:35:39Z</time></trkpt><trkpt lat="-20.12236121041159" lon="119.84038169291888"><ele>39.5</ele><time>2026-04-24T00:35:40Z</time></trkpt><trkpt lat="-20.122618799642215" lon="119.840436386218"><ele>40.0</ele><time>2026-04-24T00:35:41Z</time></trkpt><trkpt lat="-20.122880030605952" lon="119.84049102634086"><ele>40.0</ele><time>2026-04-24T00:35:42Z</time></trkpt><trkpt lat="-20.12314050372568" lon="119.84054455511301"><ele>40.0</ele><time>2026-04-24T00:35:43Z</time></trkpt><trkpt lat="-20.123400722542968" lon="119.8405993298304"><ele>39.5</ele><time>2026-04-24T00:35:44Z</time></trkpt><trkpt lat="-20.123658107806186" lon="119.84065672996181"><ele>39.0</ele><time>2026-04-24T00:35:45Z</time></trkpt><trkpt lat="-20.123917957249798" lon="119.8407161754251"><ele>39.5</ele><time>2026-04-24T00:35:46Z</time></trkpt><trkpt lat="-20.124178139208546" lon="119.84077791032826"><ele>40.0</ele><time>2026-04-24T00:35:47Z</time></trkpt><trkpt lat="-20.12443275188539" lon="119.84084193557293"><ele>40.0</ele><time>2026-04-24T00:35:48Z</time></trkpt><trkpt lat="-20.124686940685883" lon="119.84090667440988"><ele>40.0</ele><time>2026-04-24T00:35:49Z</time></trkpt><trkpt lat="-20.12494442637825" lon="119.84096969416875"><ele>40.5</ele><time>2026-04-24T00:35:50Z</time></trkpt><trkpt lat="-20.125199467873916" lon="119.84103226862207"><ele>41.0</ele><time>2026-04-24T00:35:51Z</time></trkpt><trkpt lat="-20.125455283353904" lon="119.84109520529927"><ele>41.0</ele><time>2026-04-24T00:35:52Z</time></trkpt><trkpt lat="-20.125709266625908" lon="119.84115992440309"><ele>41.0</ele><time>2026-04-24T00:35:53Z</time></trkpt><trkpt lat="-20.12596216627434" lon="119.84122441509749"><ele>41.0</ele><time>2026-04-24T00:35:54Z</time></trkpt><trkpt lat="-20.126218144560998" lon="119.8412876329267"><ele>41.0</ele><time>2026-04-24T00:35:55Z</time></trkpt><trkpt lat="-20.126478051354898" lon="119.84134855951449"><ele>41.5</ele><time>2026-04-24T00:35:56Z</time></trkpt><trkpt lat="-20.126735937096843" lon="119.84140815701338"><ele>42.0</ele><time>2026-04-24T00:35:57Z</time></trkpt><trkpt lat="-20.126998117703142" lon="119.84146293244766"><ele>42.0</ele><time>2026-04-24T00:35:58Z</time></trkpt><trkpt lat="-20.12726152983787" lon="119.84151415591444"><ele>42.0</ele><time>2026-04-24T00:35:59Z</time></trkpt><trkpt lat="-20.127523456990176" lon="119.84156433747869"><ele>42.5</ele><time>2026-04-24T00:36:00Z</time></trkpt><trkpt lat="-20.12778663253432" lon="119.84161691630364"><ele>43.0</ele><time>2026-04-24T00:36:01Z</time></trkpt><trkpt lat="-20.1280448523393" lon="119.84166572942762"><ele>43.0</ele><time>2026-04-24T00:36:02Z</time></trkpt><trkpt lat="-20.128304701621026" lon="119.8417132066513"><ele>43.0</ele><time>2026-04-24T00:36:03Z</time></trkpt><trkpt lat="-20.128567698147098" lon="119.84175863083873"><ele>42.5</ele><time>2026-04-24T00:36:04Z</time></trkpt><trkpt lat="-20.128832949927244" lon="119.84180443530096"><ele>42.0</ele><time>2026-04-24T00:36:05Z</time></trkpt><trkpt lat="-20.129096888418676" lon="119.84184950076413"><ele>43.0</ele><time>2026-04-24T00:36:06Z</time></trkpt><trkpt lat="-20.12936229945572" lon="119.84189550939648"><ele>44.0</ele><time>2026-04-24T00:36:07Z</time></trkpt><trkpt lat="-20.129630585297352" lon="119.8419427605449"><ele>44.0</ele><time>2026-04-24T00:36:08Z</time></trkpt><trkpt lat="-20.12990291630384" lon="119.84199149045268"><ele>44.0</ele><time>2026-04-24T00:36:09Z</time></trkpt><trkpt lat="-20.13017430530038" lon="119.84204317782755"><ele>44.0</ele><time>2026-04-24T00:36:10Z</time></trkpt><trkpt lat="-20.13044732885004" lon="119.84209698960854"><ele>44.0</ele><time>2026-04-24T00:36:11Z</time></trkpt><trkpt lat="-20.130722150427417" lon="119.8421545066191"><ele>44.5</ele><time>2026-04-24T00:36:12Z</time></trkpt><trkpt lat="-20.130992718951436" lon="119.84221450785634"><ele>45.0</ele><time>2026-04-24T00:36:13Z</time></trkpt><trkpt lat="-20.131261506551976" lon="119.8422733944497"><ele>45.0</ele><time>2026-04-24T00:36:14Z</time></trkpt><trkpt lat="-20.13152790423128" lon="119.8423322614326"><ele>45.0</ele><time>2026-04-24T00:36:15Z</time></trkpt><trkpt lat="-20.131793453453138" lon="119.84239168151822"><ele>45.0</ele><time>2026-04-24T00:36:16Z</time></trkpt><trkpt lat="-20.132057094940933" lon="119.8424497444586"><ele>45.0</ele><time>2026-04-24T00:36:17Z</time></trkpt><trkpt lat="-20.132321921821788" lon="119.84250841141767"><ele>45.0</ele><time>2026-04-24T00:36:18Z</time></trkpt><trkpt lat="-20.132583467881584" lon="119.84256846365786"><ele>45.0</ele><time>2026-04-24T00:36:19Z</time></trkpt><trkpt lat="-20.132846544327677" lon="119.84263153444184"><ele>45.0</ele><time>2026-04-24T00:36:20Z</time></trkpt><trkpt lat="-20.13310775016539" lon="119.84269406714454"><ele>45.0</ele><time>2026-04-24T00:36:21Z</time></trkpt><trkpt lat="-20.1333676739009" lon="119.84275558330846"><ele>45.0</ele><time>2026-04-24T00:36:22Z</time></trkpt><trkpt lat="-20.13362024704665" lon="119.8428135300813"><ele>45.0</ele><time>2026-04-24T00:36:23Z</time></trkpt><trkpt lat="-20.13387294391816" lon="119.84287198120329"><ele>46.0</ele><time>2026-04-24T00:36:24Z</time></trkpt><trkpt lat="-20.134125212139747" lon="119.84293027989864"><ele>47.0</ele><time>2026-04-24T00:36:25Z</time></trkpt><trkpt lat="-20.13437542221874" lon="119.84298618119838"><ele>47.0</ele><time>2026-04-24T00:36:26Z</time></trkpt><trkpt lat="-20.134631220980957" lon="119.84304461483858"><ele>47.0</ele><time>2026-04-24T00:36:27Z</time></trkpt><trkpt lat="-20.134881165561723" lon="119.84310620508813"><ele>47.5</ele><time>2026-04-24T00:36:28Z</time></trkpt><trkpt lat="-20.135133298185494" lon="119.8431707610341"><ele>48.0</ele><time>2026-04-24T00:36:29Z</time></trkpt><trkpt lat="-20.135382604616183" lon="119.84323867634758"><ele>48.0</ele><time>2026-04-24T00:36:30Z</time></trkpt><trkpt lat="-20.135632017522067" lon="119.84331348738077"><ele>48.0</ele><time>2026-04-24T00:36:31Z</time></trkpt><trkpt lat="-20.135885684021908" lon="119.84339908152681"><ele>48.0</ele><time>2026-04-24T00:36:32Z</time></trkpt><trkpt lat="-20.136142930439092" lon="119.84348810778005"><ele>48.0</ele><time>2026-04-24T00:36:33Z</time></trkpt><trkpt lat="-20.136404742233907" lon="119.84357371630665"><ele>48.0</ele><time>2026-04-24T00:36:34Z</time></trkpt><trkpt lat="-20.13666605758705" lon="119.8436532652571"><ele>48.0</ele><time>2026-04-24T00:36:35Z</time></trkpt><trkpt lat="-20.136929333534717" lon="119.84372530019935"><ele>48.0</ele><time>2026-04-24T00:36:36Z</time></trkpt><trkpt lat="-20.137197637958266" lon="119.84379023576734"><ele>48.0</ele><time>2026-04-24T00:36:37Z</time></trkpt><trkpt lat="-20.137464818197866" lon="119.84384995270857"><ele>48.0</ele><time>2026-04-24T00:36:38Z</time></trkpt><trkpt lat="-20.137734212178483" lon="119.84391045136805"><ele>48.0</ele><time>2026-04-24T00:36:39Z</time></trkpt><trkpt lat="-20.138001200034648" lon="119.84396858124414"><ele>48.0</ele><time>2026-04-24T00:36:40Z</time></trkpt><trkpt lat="-20.138269156731923" lon="119.84402996092939"><ele>48.0</ele><time>2026-04-24T00:36:41Z</time></trkpt><trkpt lat="-20.13853274145739" lon="119.84409253898863"><ele>48.0</ele><time>2026-04-24T00:36:42Z</time></trkpt><trkpt lat="-20.138797265862834" lon="119.84416179204538"><ele>48.0</ele><time>2026-04-24T00:36:43Z</time></trkpt><trkpt lat="-20.139059275202335" lon="119.84423118515743"><ele>48.5</ele><time>2026-04-24T00:36:44Z</time></trkpt><trkpt lat="-20.139320888309967" lon="119.84429890743868"><ele>49.0</ele><time>2026-04-24T00:36:45Z</time></trkpt><trkpt lat="-20.13958096343769" lon="119.84436296644319"><ele>49.0</ele><time>2026-04-24T00:36:46Z</time></trkpt><trkpt lat="-20.1398407841139" lon="119.84442591896577"><ele>49.0</ele><time>2026-04-24T00:36:47Z</time></trkpt><trkpt lat="-20.1401003041945" lon="119.84448992686835"><ele>49.0</ele><time>2026-04-24T00:36:48Z</time></trkpt><trkpt lat="-20.14036089706051" lon="119.84455638360133"><ele>49.0</ele><time>2026-04-24T00:36:49Z</time></trkpt><trkpt lat="-20.140623813662216" lon="119.84462323188484"><ele>49.5</ele><time>2026-04-24T00:36:50Z</time></trkpt><trkpt lat="-20.140889082308025" lon="119.84468726185113"><ele>50.0</ele><time>2026-04-24T00:36:51Z</time></trkpt><trkpt lat="-20.141153986755157" lon="119.8447499079823"><ele>50.0</ele><time>2026-04-24T00:36:52Z</time></trkpt><trkpt lat="-20.141419876797936" lon="119.84481242483271"><ele>50.0</ele><time>2026-04-24T00:36:53Z</time></trkpt><trkpt lat="-20.141685715073507" lon="119.84487627974133"><ele>50.0</ele><time>2026-04-24T00:36:54Z</time></trkpt><trkpt lat="-20.141950377041148" lon="119.84494254442143"><ele>50.0</ele><time>2026-04-24T00:36:55Z</time></trkpt><trkpt lat="-20.14221798931769" lon="119.84501068840027"><ele>50.0</ele><time>2026-04-24T00:36:56Z</time></trkpt><trkpt lat="-20.142478653666323" lon="119.84507561697819"><ele>50.0</ele><time>2026-04-24T00:36:57Z</time></trkpt><trkpt lat="-20.14274671102975" lon="119.84514430996906"><ele>50.0</ele><time>2026-04-24T00:36:58Z</time></trkpt><trkpt lat="-20.143013722427728" lon="119.84521208446769"><ele>50.0</ele><time>2026-04-24T00:36:59Z</time></trkpt><trkpt lat="-20.143280014062203" lon="119.84528237191346"><ele>50.0</ele><time>2026-04-24T00:37:00Z</time></trkpt><trkpt lat="-20.143545966093996" lon="119.84535601921696"><ele>50.0</ele><time>2026-04-24T00:37:01Z</time></trkpt><trkpt lat="-20.14380920431069" lon="119.84542595740284"><ele>50.5</ele><time>2026-04-24T00:37:02Z</time></trkpt><trkpt lat="-20.144073581654848" lon="119.84549670800592"><ele>51.0</ele><time>2026-04-24T00:37:03Z</time></trkpt><trkpt lat="-20.144339220839477" lon="119.8455693586641"><ele>51.0</ele><time>2026-04-24T00:37:04Z</time></trkpt><trkpt lat="-20.144602837237954" lon="119.84564250341799"><ele>51.0</ele><time>2026-04-24T00:37:05Z</time></trkpt><trkpt lat="-20.144866330639022" lon="119.84571985540542"><ele>50.5</ele><time>2026-04-24T00:37:06Z</time></trkpt><trkpt lat="-20.14512992229345" lon="119.845800672962"><ele>50.0</ele><time>2026-04-24T00:37:07Z</time></trkpt><trkpt lat="-20.14538686500553" lon="119.84588368433248"><ele>50.5</ele><time>2026-04-24T00:37:08Z</time></trkpt><trkpt lat="-20.145640014516886" lon="119.84596964784298"><ele>51.0</ele><time>2026-04-24T00:37:09Z</time></trkpt><trkpt lat="-20.14589084494471" lon="119.8460610792352"><ele>51.5</ele><time>2026-04-24T00:37:10Z</time></trkpt><trkpt lat="-20.146140123921263" lon="119.84615573088102"><ele>52.0</ele><time>2026-04-24T00:37:11Z</time></trkpt><trkpt lat="-20.14638234442683" lon="119.84625477287437"><ele>52.0</ele><time>2026-04-24T00:37:12Z</time></trkpt><trkpt lat="-20.146621339129798" lon="119.84635427208822"><ele>52.0</ele><time>2026-04-24T00:37:13Z</time></trkpt><trkpt lat="-20.146866425119438" lon="119.84645553025277"><ele>52.0</ele><time>2026-04-24T00:37:14Z</time></trkpt><trkpt lat="-20.147107277216808" lon="119.84655022538846"><ele>52.0</ele><time>2026-04-24T00:37:15Z</time></trkpt><trkpt lat="-20.147350266510642" lon="119.84664634149559"><ele>51.5</ele><time>2026-04-24T00:37:16Z</time></trkpt><trkpt lat="-20.1475921022682" lon="119.8467381062027"><ele>51.0</ele><time>2026-04-24T00:37:17Z</time></trkpt><trkpt lat="-20.147833585387424" lon="119.84685188130291"><ele>51.0</ele><time>2026-04-24T00:37:18Z</time></trkpt><trkpt lat="-20.14808502521601" lon="119.84693248152855"><ele>51.0</ele><time>2026-04-24T00:37:19Z</time></trkpt><trkpt lat="-20.14833385844677" lon="119.84703634214456"><ele>51.0</ele><time>2026-04-24T00:37:20Z</time></trkpt><trkpt lat="-20.148581291191196" lon="119.84712889656709"><ele>51.0</ele><time>2026-04-24T00:37:21Z</time></trkpt><trkpt lat="-20.148827086154007" lon="119.84722789053919"><ele>52.0</ele><time>2026-04-24T00:37:22Z</time></trkpt><trkpt lat="-20.149079041195268" lon="119.84732547615917"><ele>53.0</ele><time>2026-04-24T00:37:23Z</time></trkpt><trkpt lat="-20.149326066758753" lon="119.84741934763177"><ele>53.0</ele><time>2026-04-24T00:37:24Z</time></trkpt><trkpt lat="-20.149578687258543" lon="119.84751561350872"><ele>53.0</ele><time>2026-04-24T00:37:25Z</time></trkpt><trkpt lat="-20.149832138444893" lon="119.84761384197964"><ele>52.5</ele><time>2026-04-24T00:37:26Z</time></trkpt><trkpt lat="-20.1500882909879" lon="119.84771697484793"><ele>52.0</ele><time>2026-04-24T00:37:27Z</time></trkpt><trkpt lat="-20.150347692339285" lon="119.84781941516495"><ele>52.0</ele><time>2026-04-24T00:37:28Z</time></trkpt><trkpt lat="-20.150610005937978" lon="119.84792592110918"><ele>52.0</ele><time>2026-04-24T00:37:29Z</time></trkpt><trkpt lat="-20.150870994019716" lon="119.84802717439038"><ele>51.0</ele><time>2026-04-24T00:37:30Z</time></trkpt><trkpt lat="-20.151132634489855" lon="119.8481265888872"><ele>50.0</ele><time>2026-04-24T00:37:31Z</time></trkpt><trkpt lat="-20.151394212476802" lon="119.84822550509837"><ele>50.5</ele><time>2026-04-24T00:37:32Z</time></trkpt><trkpt lat="-20.151655385075525" lon="119.84832402554775"><ele>51.0</ele><time>2026-04-24T00:37:33Z</time></trkpt><trkpt lat="-20.15191725084108" lon="119.84842915814738"><ele>51.5</ele><time>2026-04-24T00:37:34Z</time></trkpt><trkpt lat="-20.15217747277917" lon="119.84853261585523"><ele>52.0</ele><time>2026-04-24T00:37:35Z</time></trkpt><trkpt lat="-20.152438002339693" lon="119.84863708003878"><ele>52.0</ele><time>2026-04-24T00:37:36Z</time></trkpt><trkpt lat="-20.152698224385812" lon="119.8487422036403"><ele>52.0</ele><time>2026-04-24T00:37:37Z</time></trkpt><trkpt lat="-20.15295674629806" lon="119.84884472652207"><ele>52.5</ele><time>2026-04-24T00:37:38Z</time></trkpt><trkpt lat="-20.15321524157082" lon="119.84894719093258"><ele>53.0</ele><time>2026-04-24T00:37:39Z</time></trkpt><trkpt lat="-20.153475133526058" lon="119.84904729304549"><ele>53.0</ele><time>2026-04-24T00:37:40Z</time></trkpt><trkpt lat="-20.153739141457898" lon="119.84914739513233"><ele>53.0</ele><time>2026-04-24T00:37:41Z</time></trkpt><trkpt lat="-20.15400545576006" lon="119.84924718161669"><ele>53.0</ele><time>2026-04-24T00:37:42Z</time></trkpt><trkpt lat="-20.154275176598905" lon="119.84934664214336"><ele>53.0</ele><time>2026-04-24T00:37:43Z</time></trkpt><trkpt lat="-20.15454686461501" lon="119.84944159697368"><ele>53.0</ele><time>2026-04-24T00:37:44Z</time></trkpt><trkpt lat="-20.15482135308018" lon="119.84952620627162"><ele>53.0</ele><time>2026-04-24T00:37:45Z</time></trkpt><trkpt lat="-20.155095916847728" lon="119.8495965756424"><ele>53.0</ele><time>2026-04-24T00:37:46Z</time></trkpt><trkpt lat="-20.155377517950267" lon="119.8496638165872"><ele>53.0</ele><time>2026-04-24T00:37:47Z</time></trkpt><trkpt lat="-20.155659065263492" lon="119.8497245593912"><ele>52.5</ele><time>2026-04-24T00:37:48Z</time></trkpt><trkpt lat="-20.155943491230293" lon="119.84978504613646"><ele>52.0</ele><time>2026-04-24T00:37:49Z</time></trkpt><trkpt lat="-20.156224312497923" lon="119.84984056916615"><ele>52.0</ele><time>2026-04-24T00:37:50Z</time></trkpt><trkpt lat="-20.156508316357975" lon="119.84989791947663"><ele>52.0</ele><time>2026-04-24T00:37:51Z</time></trkpt><trkpt lat="-20.156791820663127" lon="119.84995603901284"><ele>52.0</ele><time>2026-04-24T00:37:52Z</time></trkpt><trkpt lat="-20.15707145098832" lon="119.85001255556469"><ele>52.0</ele><time>2026-04-24T00:37:53Z</time></trkpt><trkpt lat="-20.15734868264374" lon="119.85006969905757"><ele>52.0</ele><time>2026-04-24T00:37:54Z</time></trkpt><trkpt lat="-20.157626482270103" lon="119.85012456762072"><ele>52.0</ele><time>2026-04-24T00:37:55Z</time></trkpt><trkpt lat="-20.15790365154843" lon="119.85017745428904"><ele>52.0</ele><time>2026-04-24T00:37:56Z</time></trkpt><trkpt lat="-20.15818581646374" lon="119.85022900112385"><ele>52.0</ele><time>2026-04-24T00:37:57Z</time></trkpt><trkpt lat="-20.15847019352329" lon="119.85027918374477"><ele>51.5</ele><time>2026-04-24T00:37:58Z</time></trkpt><trkpt lat="-20.15875309777137" lon="119.8503309042472"><ele>51.0</ele><time>2026-04-24T00:37:59Z</time></trkpt><trkpt lat="-20.159033598482207" lon="119.85038429882452"><ele>52.0</ele><time>2026-04-24T00:38:00Z</time></trkpt><trkpt lat="-20.159314826691485" lon="119.85043918857075"><ele>53.0</ele><time>2026-04-24T00:38:01Z</time></trkpt><trkpt lat="-20.15959288928449" lon="119.85049319839378"><ele>53.0</ele><time>2026-04-24T00:38:02Z</time></trkpt><trkpt lat="-20.159868893647978" lon="119.85054645085418"><ele>53.0</ele><time>2026-04-24T00:38:03Z</time></trkpt><trkpt lat="-20.160144067476413" lon="119.85059871981748"><ele>53.0</ele><time>2026-04-24T00:38:04Z</time></trkpt><trkpt lat="-20.160416921313562" lon="119.85064754718947"><ele>53.0</ele><time>2026-04-24T00:38:05Z</time></trkpt><trkpt lat="-20.160687689407" lon="119.85069603439455"><ele>53.0</ele><time>2026-04-24T00:38:06Z</time></trkpt><trkpt lat="-20.160961686833115" lon="119.85074861537143"><ele>53.0</ele><time>2026-04-24T00:38:07Z</time></trkpt><trkpt lat="-20.161234909899935" lon="119.85080220154731"><ele>53.0</ele><time>2026-04-24T00:38:08Z</time></trkpt><trkpt lat="-20.161507713425344" lon="119.85085620960537"><ele>53.0</ele><time>2026-04-24T00:38:09Z</time></trkpt><trkpt lat="-20.161780080578275" lon="119.850909565568"><ele>53.5</ele><time>2026-04-24T00:38:10Z</time></trkpt><trkpt lat="-20.16205047491228" lon="119.85096082743749"><ele>54.0</ele><time>2026-04-24T00:38:11Z</time></trkpt><trkpt lat="-20.162315806617183" lon="119.85101047552743"><ele>53.5</ele><time>2026-04-24T00:38:12Z</time></trkpt><trkpt lat="-20.162584894603295" lon="119.85106157366529"><ele>53.0</ele><time>2026-04-24T00:38:13Z</time></trkpt><trkpt lat="-20.162854617768946" lon="119.8511119728178"><ele>53.0</ele><time>2026-04-24T00:38:14Z</time></trkpt><trkpt lat="-20.16312512459034" lon="119.85115973664969"><ele>53.0</ele><time>2026-04-24T00:38:15Z</time></trkpt><trkpt lat="-20.163398058600748" lon="119.85120589227284"><ele>53.5</ele><time>2026-04-24T00:38:16Z</time></trkpt><trkpt lat="-20.163670436656158" lon="119.85124953788566"><ele>54.0</ele><time>2026-04-24T00:38:17Z</time></trkpt><trkpt lat="-20.163944356949827" lon="119.85129469306558"><ele>54.5</ele><time>2026-04-24T00:38:18Z</time></trkpt><trkpt lat="-20.164218024532055" lon="119.85133626472191"><ele>55.0</ele><time>2026-04-24T00:38:19Z</time></trkpt><trkpt lat="-20.164493254391488" lon="119.85137937947476"><ele>55.0</ele><time>2026-04-24T00:38:20Z</time></trkpt><trkpt lat="-20.164768344081324" lon="119.8514231488749"><ele>55.0</ele><time>2026-04-24T00:38:21Z</time></trkpt><trkpt lat="-20.165047843440895" lon="119.85146762208979"><ele>55.0</ele><time>2026-04-24T00:38:22Z</time></trkpt><trkpt lat="-20.165323244271903" lon="119.85151390580218"><ele>55.0</ele><time>2026-04-24T00:38:23Z</time></trkpt><trkpt lat="-20.16559396169257" lon="119.85156592988923"><ele>55.0</ele><time>2026-04-24T00:38:24Z</time></trkpt><trkpt lat="-20.165860734213883" lon="119.85162130962175"><ele>55.0</ele><time>2026-04-24T00:38:25Z</time></trkpt><trkpt lat="-20.16612235455051" lon="119.85168221994819"><ele>55.0</ele><time>2026-04-24T00:38:26Z</time></trkpt><trkpt lat="-20.16638272048526" lon="119.85174940666285"><ele>55.0</ele><time>2026-04-24T00:38:27Z</time></trkpt><trkpt lat="-20.166642167767357" lon="119.85181673935642"><ele>55.5</ele><time>2026-04-24T00:38:28Z</time></trkpt><trkpt lat="-20.166902085934048" lon="119.85188586007544"><ele>56.0</ele><time>2026-04-24T00:38:29Z</time></trkpt><trkpt lat="-20.16716413611803" lon="119.85195606738412"><ele>56.5</ele><time>2026-04-24T00:38:30Z</time></trkpt><trkpt lat="-20.16742915680481" lon="119.85202524831969"><ele>57.0</ele><time>2026-04-24T00:38:31Z</time></trkpt><trkpt lat="-20.16769512550121" lon="119.85209581261473"><ele>57.0</ele><time>2026-04-24T00:38:32Z</time></trkpt><trkpt lat="-20.167962938277487" lon="119.85216564351512"><ele>57.0</ele><time>2026-04-24T00:38:33Z</time></trkpt><trkpt lat="-20.16823064419354" lon="119.85223713371464"><ele>56.5</ele><time>2026-04-24T00:38:34Z</time></trkpt><trkpt lat="-20.168497024290893" lon="119.85230964064773"><ele>56.0</ele><time>2026-04-24T00:38:35Z</time></trkpt><trkpt lat="-20.168767279396008" lon="119.85238488776012"><ele>56.0</ele><time>2026-04-24T00:38:36Z</time></trkpt><trkpt lat="-20.169034794523323" lon="119.85246133336122"><ele>56.0</ele><time>2026-04-24T00:38:37Z</time></trkpt><trkpt lat="-20.169304525953223" lon="119.85253817878271"><ele>56.0</ele><time>2026-04-24T00:38:38Z</time></trkpt><trkpt lat="-20.169568323322487" lon="119.85261308534464"><ele>56.0</ele><time>2026-04-24T00:38:39Z</time></trkpt><trkpt lat="-20.169828615848967" lon="119.85268620552782"><ele>56.5</ele><time>2026-04-24T00:38:40Z</time></trkpt><trkpt lat="-20.170084719125185" lon="119.8527562199702"><ele>57.0</ele><time>2026-04-24T00:38:41Z</time></trkpt><trkpt lat="-20.170339539885095" lon="119.8528236418619"><ele>57.0</ele><time>2026-04-24T00:38:42Z</time></trkpt><trkpt lat="-20.170592467351838" lon="119.85288936326445"><ele>57.0</ele><time>2026-04-24T00:38:43Z</time></trkpt><trkpt lat="-20.170842628633817" lon="119.85295229484248"><ele>57.5</ele><time>2026-04-24T00:38:44Z</time></trkpt><trkpt lat="-20.1710952423036" lon="119.85301543991991"><ele>58.0</ele><time>2026-04-24T00:38:45Z</time></trkpt><trkpt lat="-20.171349276325426" lon="119.85307744452301"><ele>58.5</ele><time>2026-04-24T00:38:46Z</time></trkpt><trkpt lat="-20.17160898604136" lon="119.85313667950562"><ele>59.0</ele><time>2026-04-24T00:38:47Z</time></trkpt><trkpt lat="-20.171870116569004" lon="119.85319007919325"><ele>59.0</ele><time>2026-04-24T00:38:48Z</time></trkpt><trkpt lat="-20.17213310060263" lon="119.85323871772601"><ele>59.0</ele><time>2026-04-24T00:38:49Z</time></trkpt><trkpt lat="-20.172399226987885" lon="119.8532887900993"><ele>58.5</ele><time>2026-04-24T00:38:50Z</time></trkpt><trkpt lat="-20.172662022479777" lon="119.85334056997405"><ele>58.0</ele><time>2026-04-24T00:38:51Z</time></trkpt><trkpt lat="-20.172927886068006" lon="119.85339438566433"><ele>58.5</ele><time>2026-04-24T00:38:52Z</time></trkpt><trkpt lat="-20.17319377314327" lon="119.85344581674579"><ele>59.0</ele><time>2026-04-24T00:38:53Z</time></trkpt><trkpt lat="-20.173460291240556" lon="119.85349968146402"><ele>59.0</ele><time>2026-04-24T00:38:54Z</time></trkpt><trkpt lat="-20.17372536697346" lon="119.85355589877604"><ele>59.0</ele><time>2026-04-24T00:38:55Z</time></trkpt><trkpt lat="-20.173987185493182" lon="119.85361104188686"><ele>60.0</ele><time>2026-04-24T00:38:56Z</time></trkpt><trkpt lat="-20.17424979026601" lon="119.85366716265054"><ele>61.0</ele><time>2026-04-24T00:38:57Z</time></trkpt><trkpt lat="-20.174510450604057" lon="119.85372238078784"><ele>61.0</ele><time>2026-04-24T00:38:58Z</time></trkpt><trkpt lat="-20.174773820308637" lon="119.8537787506029"><ele>61.0</ele><time>2026-04-24T00:38:59Z</time></trkpt><trkpt lat="-20.175036022751172" lon="119.85383646293172"><ele>60.5</ele><time>2026-04-24T00:39:00Z</time></trkpt><trkpt lat="-20.175300481382337" lon="119.8538954459928"><ele>60.0</ele><time>2026-04-24T00:39:01Z</time></trkpt><trkpt lat="-20.175565378120975" lon="119.85395555746221"><ele>60.5</ele><time>2026-04-24T00:39:02Z</time></trkpt><trkpt lat="-20.175830518789017" lon="119.85401591875203"><ele>61.0</ele><time>2026-04-24T00:39:03Z</time></trkpt><trkpt lat="-20.17609404417151" lon="119.85407736373936"><ele>61.0</ele><time>2026-04-24T00:39:04Z</time></trkpt><trkpt lat="-20.17635256451521" lon="119.85414286579443"><ele>61.0</ele><time>2026-04-24T00:39:05Z</time></trkpt><trkpt lat="-20.176611926136808" lon="119.85421071315983"><ele>61.0</ele><time>2026-04-24T00:39:06Z</time></trkpt><trkpt lat="-20.176873910412187" lon="119.85427883446131"><ele>61.0</ele><time>2026-04-24T00:39:07Z</time></trkpt><trkpt lat="-20.177134072210144" lon="119.85434448895724"><ele>61.5</ele><time>2026-04-24T00:39:08Z</time></trkpt><trkpt lat="-20.17739804014618" lon="119.85441102827028"><ele>62.0</ele><time>2026-04-24T00:39:09Z</time></trkpt><trkpt lat="-20.177663457319387" lon="119.8544784628568"><ele>62.0</ele><time>2026-04-24T00:39:10Z</time></trkpt><trkpt lat="-20.177929017227314" lon="119.85454315731657"><ele>62.0</ele><time>2026-04-24T00:39:11Z</time></trkpt><trkpt lat="-20.178197564095683" lon="119.85460747664703"><ele>62.5</ele><time>2026-04-24T00:39:12Z</time></trkpt><trkpt lat="-20.178470640708145" lon="119.85466973456207"><ele>63.0</ele><time>2026-04-24T00:39:13Z</time></trkpt><trkpt lat="-20.17874310660689" lon="119.85473355894756"><ele>63.0</ele><time>2026-04-24T00:39:14Z</time></trkpt><trkpt lat="-20.179016876601246" lon="119.85479727464661"><ele>63.0</ele><time>2026-04-24T00:39:15Z</time></trkpt><trkpt lat="-20.179287770536185" lon="119.85486171223552"><ele>63.5</ele><time>2026-04-24T00:39:16Z</time></trkpt><trkpt lat="-20.179560145266414" lon="119.8549298596765"><ele>64.0</ele><time>2026-04-24T00:39:17Z</time></trkpt><trkpt lat="-20.179831322235035" lon="119.85499799762732"><ele>64.0</ele><time>2026-04-24T00:39:18Z</time></trkpt><trkpt lat="-20.18010263973864" lon="119.85506314435293"><ele>64.0</ele><time>2026-04-24T00:39:19Z</time></trkpt><trkpt lat="-20.18037119267472" lon="119.85512706891276"><ele>63.5</ele><time>2026-04-24T00:39:20Z</time></trkpt><trkpt lat="-20.180639940563132" lon="119.85519115640588"><ele>63.0</ele><time>2026-04-24T00:39:21Z</time></trkpt><trkpt lat="-20.180906317468605" lon="119.85525472501828"><ele>64.0</ele><time>2026-04-24T00:39:22Z</time></trkpt><trkpt lat="-20.181171398964718" lon="119.85531967800077"><ele>65.0</ele><time>2026-04-24T00:39:23Z</time></trkpt><trkpt lat="-20.18143746688941" lon="119.85538608199208"><ele>65.0</ele><time>2026-04-24T00:39:24Z</time></trkpt><trkpt lat="-20.181704940677932" lon="119.8554520505335"><ele>65.0</ele><time>2026-04-24T00:39:25.001Z</time></trkpt><trkpt lat="-20.181972705335408" lon="119.85551748762138"><ele>65.0</ele><time>2026-04-24T00:39:26.001Z</time></trkpt><trkpt lat="-20.182238066783327" lon="119.85558213241714"><ele>65.0</ele><time>2026-04-24T00:39:27.001Z</time></trkpt><trkpt lat="-20.18250398617378" lon="119.85564711272801"><ele>65.5</ele><time>2026-04-24T00:39:28.001Z</time></trkpt><trkpt lat="-20.182769258631865" lon="119.85571226555211"><ele>66.0</ele><time>2026-04-24T00:39:29.001Z</time></trkpt><trkpt lat="-20.183036480433984" lon="119.85577560001221"><ele>66.0</ele><time>2026-04-24T00:39:30.001Z</time></trkpt><trkpt lat="-20.183302282679485" lon="119.85583641927764"><ele>66.0</ele><time>2026-04-24T00:39:31.001Z</time></trkpt><trkpt lat="-20.18356862926007" lon="119.85589697875729"><ele>66.5</ele><time>2026-04-24T00:39:32.001Z</time></trkpt><trkpt lat="-20.183833481761514" lon="119.85595852935465"><ele>67.0</ele><time>2026-04-24T00:39:33.001Z</time></trkpt><trkpt lat="-20.18409790987457" lon="119.85602221118947"><ele>67.5</ele><time>2026-04-24T00:39:34.001Z</time></trkpt><trkpt lat="-20.18436039218605" lon="119.85608437440318"><ele>68.0</ele><time>2026-04-24T00:39:35.001Z</time></trkpt><trkpt lat="-20.18462580103118" lon="119.85614419745224"><ele>68.0</ele><time>2026-04-24T00:39:36.001Z</time></trkpt><trkpt lat="-20.184892407324554" lon="119.85620520405317"><ele>68.0</ele><time>2026-04-24T00:39:37.001Z</time></trkpt><trkpt lat="-20.185159762340266" lon="119.8562650933169"><ele>68.0</ele><time>2026-04-24T00:39:38.001Z</time></trkpt><trkpt lat="-20.185432082032907" lon="119.85632456394816"><ele>68.0</ele><time>2026-04-24T00:39:39.001Z</time></trkpt><trkpt lat="-20.18570444737236" lon="119.85638255352647"><ele>67.0</ele><time>2026-04-24T00:39:40.001Z</time></trkpt><trkpt lat="-20.185979185403063" lon="119.85644166985527"><ele>66.0</ele><time>2026-04-24T00:39:41Z</time></trkpt><trkpt lat="-20.18625611091871" lon="119.8565027340743"><ele>67.0</ele><time>2026-04-24T00:39:42Z</time></trkpt><trkpt lat="-20.186530426479486" lon="119.85656393211188"><ele>68.0</ele><time>2026-04-24T00:39:43Z</time></trkpt><trkpt lat="-20.186807492549683" lon="119.85662602896373"><ele>68.0</ele><time>2026-04-24T00:39:44Z</time></trkpt><trkpt lat="-20.187084478575485" lon="119.85669146951133"><ele>68.0</ele><time>2026-04-24T00:39:45Z</time></trkpt><trkpt lat="-20.18735989166957" lon="119.85675445031784"><ele>69.0</ele><time>2026-04-24T00:39:46Z</time></trkpt><trkpt lat="-20.187630511334323" lon="119.85681462119214"><ele>70.0</ele><time>2026-04-24T00:39:47Z</time></trkpt><trkpt lat="-20.18789945205813" lon="119.85687300130373"><ele>70.0</ele><time>2026-04-24T00:39:48Z</time></trkpt><trkpt lat="-20.188166632688986" lon="119.85693215306071"><ele>70.0</ele><time>2026-04-24T00:39:49Z</time></trkpt><trkpt lat="-20.188434105502694" lon="119.85699596292288"><ele>71.5</ele><time>2026-04-24T00:39:50Z</time></trkpt><trkpt lat="-20.188700266072292" lon="119.8570650886919"><ele>73.0</ele><time>2026-04-24T00:39:51Z</time></trkpt><trkpt lat="-20.18895793859917" lon="119.85713631314749"><ele>73.5</ele><time>2026-04-24T00:39:52Z</time></trkpt><trkpt lat="-20.18920539724387" lon="119.85721178613954"><ele>74.0</ele><time>2026-04-24T00:39:53Z</time></trkpt><trkpt lat="-20.18945909986669" lon="119.85728872216745"><ele>74.0</ele><time>2026-04-24T00:39:54Z</time></trkpt><trkpt lat="-20.189707831718835" lon="119.85736436414957"><ele>74.0</ele><time>2026-04-24T00:39:55Z</time></trkpt><trkpt lat="-20.189964007846463" lon="119.85743893161617"><ele>73.5</ele><time>2026-04-24T00:39:56Z</time></trkpt><trkpt lat="-20.190218985854486" lon="119.85751397142673"><ele>73.0</ele><time>2026-04-24T00:39:57Z</time></trkpt><trkpt lat="-20.19047246580532" lon="119.85758333785688"><ele>74.5</ele><time>2026-04-24T00:39:58Z</time></trkpt><trkpt lat="-20.190725888007332" lon="119.85765062830993"><ele>76.0</ele><time>2026-04-24T00:39:59Z</time></trkpt><trkpt lat="-20.190981499206238" lon="119.85771697766613"><ele>76.0</ele><time>2026-04-24T00:40:00Z</time></trkpt><trkpt lat="-20.191241802178958" lon="119.8577828211176"><ele>76.0</ele><time>2026-04-24T00:40:01Z</time></trkpt><trkpt lat="-20.191501854830296" lon="119.85784933273617"><ele>76.5</ele><time>2026-04-24T00:40:02Z</time></trkpt><trkpt lat="-20.191767697792933" lon="119.85791707566965"><ele>77.0</ele><time>2026-04-24T00:40:03Z</time></trkpt><trkpt lat="-20.192030735145806" lon="119.8579862019697"><ele>77.0</ele><time>2026-04-24T00:40:04Z</time></trkpt><trkpt lat="-20.19229111801214" lon="119.85805634135804"><ele>77.0</ele><time>2026-04-24T00:40:05Z</time></trkpt><trkpt lat="-20.192550447740885" lon="119.85812791957751"><ele>77.0</ele><time>2026-04-24T00:40:06Z</time></trkpt><trkpt lat="-20.192814771354993" lon="119.85820142257616"><ele>77.0</ele><time>2026-04-24T00:40:07Z</time></trkpt><trkpt lat="-20.193073110058194" lon="119.85827373797704"><ele>77.5</ele><time>2026-04-24T00:40:08Z</time></trkpt><trkpt lat="-20.193331637850743" lon="119.85834705348599"><ele>78.0</ele><time>2026-04-24T00:40:09Z</time></trkpt><trkpt lat="-20.19359021806391" lon="119.8584179889974"><ele>78.5</ele><time>2026-04-24T00:40:10Z</time></trkpt><trkpt lat="-20.193844336770916" lon="119.85848754746704"><ele>79.0</ele><time>2026-04-24T00:40:11Z</time></trkpt><trkpt lat="-20.194089679512643" lon="119.85856134253251"><ele>80.0</ele><time>2026-04-24T00:40:12Z</time></trkpt><trkpt lat="-20.19433225451359" lon="119.858643385947"><ele>81.0</ele><time>2026-04-24T00:40:13Z</time></trkpt><trkpt lat="-20.194569651927697" lon="119.85872988864972"><ele>81.0</ele><time>2026-04-24T00:40:14Z</time></trkpt><trkpt lat="-20.194797950293122" lon="119.85881563175869"><ele>81.0</ele><time>2026-04-24T00:40:15Z</time></trkpt><trkpt lat="-20.195003892275036" lon="119.85889550723522"><ele>81.33333333333333</ele><time>2026-04-24T00:40:16Z</time></trkpt><trkpt lat="-20.195209952462665" lon="119.85896821342254"><ele>81.66666666666666</ele><time>2026-04-24T00:40:17Z</time></trkpt><trkpt lat="-20.195417529872312" lon="119.85902571773097"><ele>82.0</ele><time>2026-04-24T00:40:18Z</time></trkpt><trkpt lat="-20.195642074974845" lon="119.85907332143134"><ele>82.0</ele><time>2026-04-24T00:40:19Z</time></trkpt><trkpt lat="-20.1958629616979" lon="119.85911374853197"><ele>82.0</ele><time>2026-04-24T00:40:20Z</time></trkpt><trkpt lat="-20.196096316677835" lon="119.85916139782896"><ele>82.0</ele><time>2026-04-24T00:40:21Z</time></trkpt><trkpt lat="-20.196331658681515" lon="119.85921686435807"><ele>82.0</ele><time>2026-04-24T00:40:22Z</time></trkpt><trkpt lat="-20.196574802336162" lon="119.8592850885649"><ele>82.0</ele><time>2026-04-24T00:40:23Z</time></trkpt><trkpt lat="-20.19682225966216" lon="119.85936092894357"><ele>82.0</ele><time>2026-04-24T00:40:24Z</time></trkpt><trkpt lat="-20.197070589063376" lon="119.85943941395736"><ele>82.0</ele><time>2026-04-24T00:40:25Z</time></trkpt><trkpt lat="-20.197325545205203" lon="119.85952437623214"><ele>82.0</ele><time>2026-04-24T00:40:26Z</time></trkpt><trkpt lat="-20.197574014697867" lon="119.85961068330926"><ele>81.5</ele><time>2026-04-24T00:40:27Z</time></trkpt><trkpt lat="-20.19782640555104" lon="119.85970376759794"><ele>81.0</ele><time>2026-04-24T00:40:28Z</time></trkpt><trkpt lat="-20.19808310572345" lon="119.85980041195086"><ele>80.5</ele><time>2026-04-24T00:40:29Z</time></trkpt><trkpt lat="-20.1983358427996" lon="119.85989518813298"><ele>80.0</ele><time>2026-04-24T00:40:30Z</time></trkpt><trkpt lat="-20.19858790376443" lon="119.85998372131202"><ele>80.0</ele><time>2026-04-24T00:40:31Z</time></trkpt><trkpt lat="-20.19884252772641" lon="119.86006865188558"><ele>80.0</ele><time>2026-04-24T00:40:32Z</time></trkpt><trkpt lat="-20.199097201401926" lon="119.86015217697593"><ele>78.0</ele><time>2026-04-24T00:40:33Z</time></trkpt><trkpt lat="-20.199349741693513" lon="119.86023524001092"><ele>76.0</ele><time>2026-04-24T00:40:34Z</time></trkpt><trkpt lat="-20.199601323002135" lon="119.86032378906349"><ele>75.5</ele><time>2026-04-24T00:40:35Z</time></trkpt><trkpt lat="-20.1998554048092" lon="119.86040941124146"><ele>75.0</ele><time>2026-04-24T00:40:36Z</time></trkpt><trkpt lat="-20.200108504871075" lon="119.86049546064594"><ele>75.0</ele><time>2026-04-24T00:40:37Z</time></trkpt><trkpt lat="-20.200356234524367" lon="119.86057928463005"><ele>75.0</ele><time>2026-04-24T00:40:38Z</time></trkpt><trkpt lat="-20.200603663027156" lon="119.86066952684801"><ele>74.5</ele><time>2026-04-24T00:40:39Z</time></trkpt><trkpt lat="-20.200848166852307" lon="119.86075750090491"><ele>74.0</ele><time>2026-04-24T00:40:40Z</time></trkpt><trkpt lat="-20.20109655329891" lon="119.86084789593784"><ele>74.0</ele><time>2026-04-24T00:40:41Z</time></trkpt><trkpt lat="-20.201346083754213" lon="119.86093872951682"><ele>74.0</ele><time>2026-04-24T00:40:42Z</time></trkpt><trkpt lat="-20.201595109408462" lon="119.86102766204937"><ele>75.0</ele><time>2026-04-24T00:40:43Z</time></trkpt><trkpt lat="-20.20184480510524" lon="119.86111752726354"><ele>76.0</ele><time>2026-04-24T00:40:44Z</time></trkpt><trkpt lat="-20.202098018282328" lon="119.86120979672116"><ele>75.0</ele><time>2026-04-24T00:40:45Z</time></trkpt><trkpt lat="-20.202350637650614" lon="119.86130339729253"><ele>74.0</ele><time>2026-04-24T00:40:46Z</time></trkpt><trkpt lat="-20.20260619304567" lon="119.8613963844511"><ele>74.0</ele><time>2026-04-24T00:40:47Z</time></trkpt><trkpt lat="-20.202862332349948" lon="119.86149185896018"><ele>74.0</ele><time>2026-04-24T00:40:48Z</time></trkpt><trkpt lat="-20.20311656522306" lon="119.86158460914396"><ele>73.5</ele><time>2026-04-24T00:40:49Z</time></trkpt><trkpt lat="-20.203376400686636" lon="119.86167719371248"><ele>73.0</ele><time>2026-04-24T00:40:50Z</time></trkpt><trkpt lat="-20.203634565143275" lon="119.8617659002481"><ele>73.5</ele><time>2026-04-24T00:40:51Z</time></trkpt><trkpt lat="-20.203896366721803" lon="119.86185515746881"><ele>74.0</ele><time>2026-04-24T00:40:52Z</time></trkpt><trkpt lat="-20.204156650289548" lon="119.86194257919966"><ele>74.0</ele><time>2026-04-24T00:40:53Z</time></trkpt><trkpt lat="-20.20441336917647" lon="119.86203236565862"><ele>74.0</ele><time>2026-04-24T00:40:54Z</time></trkpt><trkpt lat="-20.204671251234515" lon="119.86212251286464"><ele>74.5</ele><time>2026-04-24T00:40:55Z</time></trkpt><trkpt lat="-20.204927807861992" lon="119.86220999942334"><ele>75.0</ele><time>2026-04-24T00:40:56Z</time></trkpt><trkpt lat="-20.20518573473051" lon="119.86229478202806"><ele>75.0</ele><time>2026-04-24T00:40:57Z</time></trkpt><trkpt lat="-20.205447068673124" lon="119.8623779417782"><ele>75.0</ele><time>2026-04-24T00:40:58Z</time></trkpt><trkpt lat="-20.205704616533026" lon="119.8624602882236"><ele>75.0</ele><time>2026-04-24T00:40:59Z</time></trkpt><trkpt lat="-20.205962729114752" lon="119.86254418322176"><ele>75.0</ele><time>2026-04-24T00:41:00Z</time></trkpt><trkpt lat="-20.206218390039375" lon="119.86263171306283"><ele>74.5</ele><time>2026-04-24T00:41:01Z</time></trkpt><trkpt lat="-20.20647998667129" lon="119.8627245722563"><ele>74.0</ele><time>2026-04-24T00:41:02Z</time></trkpt><trkpt lat="-20.206739860511483" lon="119.86281658570695"><ele>75.0</ele><time>2026-04-24T00:41:03Z</time></trkpt><trkpt lat="-20.206998074563003" lon="119.86290905938291"><ele>76.0</ele><time>2026-04-24T00:41:04Z</time></trkpt><trkpt lat="-20.207252296216442" lon="119.86299997561497"><ele>76.0</ele><time>2026-04-24T00:41:05Z</time></trkpt><trkpt lat="-20.207504817893614" lon="119.86309085926575"><ele>76.0</ele><time>2026-04-24T00:41:06Z</time></trkpt><trkpt lat="-20.207752588280872" lon="119.8631788663138"><ele>76.0</ele><time>2026-04-24T00:41:07Z</time></trkpt><trkpt lat="-20.20799824141953" lon="119.8632681726762"><ele>76.0</ele><time>2026-04-24T00:41:08Z</time></trkpt><trkpt lat="-20.20825134437597" lon="119.8633595450594"><ele>76.0</ele><time>2026-04-24T00:41:09Z</time></trkpt><trkpt lat="-20.208505442237378" lon="119.86344731718485"><ele>76.0</ele><time>2026-04-24T00:41:10Z</time></trkpt><trkpt lat="-20.208760626448036" lon="119.86353399302584"><ele>76.5</ele><time>2026-04-24T00:41:11Z</time></trkpt><trkpt lat="-20.209015613484784" lon="119.86362169575065"><ele>77.0</ele><time>2026-04-24T00:41:12Z</time></trkpt><trkpt lat="-20.209265376584327" lon="119.86370919983449"><ele>77.0</ele><time>2026-04-24T00:41:13Z</time></trkpt><trkpt lat="-20.209522820879993" lon="119.86379635139025"><ele>77.0</ele><time>2026-04-24T00:41:14Z</time></trkpt><trkpt lat="-20.209788273253213" lon="119.86389843452577"><ele>77.0</ele><time>2026-04-24T00:41:15Z</time></trkpt><trkpt lat="-20.210046985218515" lon="119.86398959626675"><ele>77.0</ele><time>2026-04-24T00:41:16.001Z</time></trkpt><trkpt lat="-20.210305303876165" lon="119.86407702333457"><ele>77.0</ele><time>2026-04-24T00:41:17.001Z</time></trkpt><trkpt lat="-20.210558727117238" lon="119.86416738804964"><ele>77.0</ele><time>2026-04-24T00:41:18.001Z</time></trkpt><trkpt lat="-20.210810092911277" lon="119.86425689660054"><ele>77.5</ele><time>2026-04-24T00:41:19.001Z</time></trkpt><trkpt lat="-20.21106169597039" lon="119.86434678950971"><ele>78.0</ele><time>2026-04-24T00:41:20.001Z</time></trkpt><trkpt lat="-20.211308591897566" lon="119.86443222796754"><ele>78.5</ele><time>2026-04-24T00:41:21.001Z</time></trkpt><trkpt lat="-20.21156020874282" lon="119.864520648862"><ele>79.0</ele><time>2026-04-24T00:41:22.001Z</time></trkpt><trkpt lat="-20.211801225792975" lon="119.86460542834403"><ele>79.0</ele><time>2026-04-24T00:41:23.001Z</time></trkpt><trkpt lat="-20.212044435043794" lon="119.8646901022143"><ele>79.0</ele><time>2026-04-24T00:41:24.001Z</time></trkpt><trkpt lat="-20.212287379133755" lon="119.86477439535989"><ele>79.5</ele><time>2026-04-24T00:41:25.001Z</time></trkpt><trkpt lat="-20.21253070639722" lon="119.86485595254678"><ele>80.0</ele><time>2026-04-24T00:41:26.001Z</time></trkpt><trkpt lat="-20.21277587421951" lon="119.86494183005131"><ele>80.0</ele><time>2026-04-24T00:41:27.001Z</time></trkpt><trkpt lat="-20.213021385594512" lon="119.86502942737928"><ele>80.0</ele><time>2026-04-24T00:41:28.001Z</time></trkpt><trkpt lat="-20.213268760230907" lon="119.86511694853458"><ele>80.5</ele><time>2026-04-24T00:41:29.001Z</time></trkpt><trkpt lat="-20.21351975162499" lon="119.86520584427792"><ele>81.0</ele><time>2026-04-24T00:41:30.001Z</time></trkpt><trkpt lat="-20.21377386953866" lon="119.865294504415"><ele>81.5</ele><time>2026-04-24T00:41:31.001Z</time></trkpt><trkpt lat="-20.21403440557787" lon="119.86538686597063"><ele>82.0</ele><time>2026-04-24T00:41:32.001Z</time></trkpt><trkpt lat="-20.21429391068976" lon="119.86547950980061"><ele>82.0</ele><time>2026-04-24T00:41:33.001Z</time></trkpt><trkpt lat="-20.21455199759521" lon="119.86557156413753"><ele>82.0</ele><time>2026-04-24T00:41:34.001Z</time></trkpt><trkpt lat="-20.2148080077281" lon="119.8656626766396"><ele>82.5</ele><time>2026-04-24T00:41:35.001Z</time></trkpt><trkpt lat="-20.21506105293255" lon="119.86575471923904"><ele>83.0</ele><time>2026-04-24T00:41:36.001Z</time></trkpt><trkpt lat="-20.215315037398135" lon="119.86584810860045"><ele>83.0</ele><time>2026-04-24T00:41:37.001Z</time></trkpt><trkpt lat="-20.21556635678325" lon="119.86593650179803"><ele>83.0</ele><time>2026-04-24T00:41:38.001Z</time></trkpt><trkpt lat="-20.215821887817977" lon="119.86602672587593"><ele>83.0</ele><time>2026-04-24T00:41:39.001Z</time></trkpt><trkpt lat="-20.21608058111109" lon="119.86611861972781"><ele>83.0</ele><time>2026-04-24T00:41:40.001Z</time></trkpt><trkpt lat="-20.21633911422353" lon="119.8662128571597"><ele>85.0</ele><time>2026-04-24T00:41:41.001Z</time></trkpt><trkpt lat="-20.216596978822672" lon="119.86630552303906"><ele>87.0</ele><time>2026-04-24T00:41:42.001Z</time></trkpt><trkpt lat="-20.2168597102434" lon="119.86637985842762"><ele>87.0</ele><time>2026-04-24T00:41:43.001Z</time></trkpt><trkpt lat="-20.21711621604017" lon="119.86647660792995"><ele>87.0</ele><time>2026-04-24T00:41:44.001Z</time></trkpt><trkpt lat="-20.217368508865842" lon="119.86657640296238"><ele>87.5</ele><time>2026-04-24T00:41:45.001Z</time></trkpt><trkpt lat="-20.21761715578301" lon="119.86668927759612"><ele>88.0</ele><time>2026-04-24T00:41:46.001Z</time></trkpt><trkpt lat="-20.21786942404845" lon="119.86678127745789"><ele>88.0</ele><time>2026-04-24T00:41:47Z</time></trkpt><trkpt lat="-20.21812034373163" lon="119.86687418349702"><ele>88.0</ele><time>2026-04-24T00:41:48Z</time></trkpt><trkpt lat="-20.218373784532922" lon="119.8669696261169"><ele>88.0</ele><time>2026-04-24T00:41:49Z</time></trkpt><trkpt lat="-20.218627628442526" lon="119.86706501472916"><ele>88.0</ele><time>2026-04-24T00:41:50Z</time></trkpt><trkpt lat="-20.218883429533733" lon="119.86715743216917"><ele>87.0</ele><time>2026-04-24T00:41:51Z</time></trkpt><trkpt lat="-20.219141244104076" lon="119.86725103167801"><ele>86.0</ele><time>2026-04-24T00:41:52Z</time></trkpt><trkpt lat="-20.219403357732396" lon="119.8673450136127"><ele>86.0</ele><time>2026-04-24T00:41:53Z</time></trkpt><trkpt lat="-20.219667875912794" lon="119.86743845169947"><ele>86.0</ele><time>2026-04-24T00:41:54Z</time></trkpt><trkpt lat="-20.219927934913983" lon="119.86753060182565"><ele>87.0</ele><time>2026-04-24T00:41:55Z</time></trkpt><trkpt lat="-20.220183287848812" lon="119.86762224838144"><ele>88.0</ele><time>2026-04-24T00:41:56Z</time></trkpt><trkpt lat="-20.220438943806613" lon="119.86771358958865"><ele>89.0</ele><time>2026-04-24T00:41:57Z</time></trkpt><trkpt lat="-20.220690169151958" lon="119.8678048185921"><ele>90.0</ele><time>2026-04-24T00:41:58Z</time></trkpt><trkpt lat="-20.22094095324199" lon="119.86789831835384"><ele>90.0</ele><time>2026-04-24T00:41:59Z</time></trkpt><trkpt lat="-20.221191192296956" lon="119.86799367361533"><ele>90.0</ele><time>2026-04-24T00:42:00Z</time></trkpt><trkpt lat="-20.221437333578564" lon="119.86808289462657"><ele>90.5</ele><time>2026-04-24T00:42:01Z</time></trkpt><trkpt lat="-20.22168522532676" lon="119.86816447347029"><ele>91.0</ele><time>2026-04-24T00:42:02Z</time></trkpt><trkpt lat="-20.221926623789553" lon="119.86823060503089"><ele>91.0</ele><time>2026-04-24T00:42:03Z</time></trkpt><trkpt lat="-20.222173931895103" lon="119.86829298009764"><ele>91.0</ele><time>2026-04-24T00:42:04Z</time></trkpt><trkpt lat="-20.222424521185605" lon="119.86835425152053"><ele>91.5</ele><time>2026-04-24T00:42:05Z</time></trkpt><trkpt lat="-20.222671789313747" lon="119.86842456993901"><ele>92.0</ele><time>2026-04-24T00:42:06Z</time></trkpt><trkpt lat="-20.22292002950404" lon="119.86850578065992"><ele>90.5</ele><time>2026-04-24T00:42:07Z</time></trkpt><trkpt lat="-20.223168539759577" lon="119.86859851802701"><ele>89.0</ele><time>2026-04-24T00:42:08Z</time></trkpt><trkpt lat="-20.2234206605362" lon="119.86870066331035"><ele>89.0</ele><time>2026-04-24T00:42:09Z</time></trkpt><trkpt lat="-20.223675378458392" lon="119.86880653583788"><ele>89.0</ele><time>2026-04-24T00:42:10Z</time></trkpt><trkpt lat="-20.223925170862636" lon="119.8689123701003"><ele>89.0</ele><time>2026-04-24T00:42:11Z</time></trkpt><trkpt lat="-20.224175608350638" lon="119.86901841170645"><ele>89.0</ele><time>2026-04-24T00:42:12Z</time></trkpt><trkpt lat="-20.224420959554042" lon="119.86912972429417"><ele>89.0</ele><time>2026-04-24T00:42:13Z</time></trkpt><trkpt lat="-20.224667703124364" lon="119.86924015511163"><ele>89.0</ele><time>2026-04-24T00:42:14Z</time></trkpt><trkpt lat="-20.22491090969631" lon="119.86935509172541"><ele>89.5</ele><time>2026-04-24T00:42:15Z</time></trkpt><trkpt lat="-20.225153580362612" lon="119.86946811728644"><ele>90.0</ele><time>2026-04-24T00:42:16Z</time></trkpt><trkpt lat="-20.225399731837463" lon="119.86957366491255"><ele>90.5</ele><time>2026-04-24T00:42:17Z</time></trkpt><trkpt lat="-20.22565223587849" lon="119.86967081826198"><ele>91.0</ele><time>2026-04-24T00:42:18Z</time></trkpt><trkpt lat="-20.22590724883611" lon="119.86976421344293"><ele>91.0</ele><time>2026-04-24T00:42:19Z</time></trkpt><trkpt lat="-20.22615747502643" lon="119.86985163511295"><ele>91.0</ele><time>2026-04-24T00:42:20Z</time></trkpt><trkpt lat="-20.22641894417158" lon="119.86993824732859"><ele>91.5</ele><time>2026-04-24T00:42:21Z</time></trkpt><trkpt lat="-20.22667727005134" lon="119.8700168272408"><ele>92.0</ele><time>2026-04-24T00:42:22Z</time></trkpt><trkpt lat="-20.226937386370555" lon="119.87008784074527"><ele>91.5</ele><time>2026-04-24T00:42:23Z</time></trkpt><trkpt lat="-20.227195558696607" lon="119.87016008618608"><ele>91.0</ele><time>2026-04-24T00:42:24Z</time></trkpt><trkpt lat="-20.22745252096546" lon="119.87023582533723"><ele>92.0</ele><time>2026-04-24T00:42:25Z</time></trkpt><trkpt lat="-20.227706212870046" lon="119.8703146959403"><ele>93.0</ele><time>2026-04-24T00:42:26Z</time></trkpt><trkpt lat="-20.22795981168872" lon="119.87039326478828"><ele>92.5</ele><time>2026-04-24T00:42:27Z</time></trkpt><trkpt lat="-20.228214310896515" lon="119.87047176265035"><ele>92.0</ele><time>2026-04-24T00:42:28Z</time></trkpt><trkpt lat="-20.22846796349531" lon="119.87055357793668"><ele>92.0</ele><time>2026-04-24T00:42:29Z</time></trkpt><trkpt lat="-20.228721187651253" lon="119.8706415313065"><ele>92.0</ele><time>2026-04-24T00:42:30Z</time></trkpt><trkpt lat="-20.228971895902102" lon="119.8707328714879"><ele>92.5</ele><time>2026-04-24T00:42:31Z</time></trkpt><trkpt lat="-20.229219545174633" lon="119.87082895281763"><ele>93.0</ele><time>2026-04-24T00:42:32Z</time></trkpt><trkpt lat="-20.22946439737707" lon="119.8709308878631"><ele>93.5</ele><time>2026-04-24T00:42:33Z</time></trkpt><trkpt lat="-20.22971182942449" lon="119.87103844441496"><ele>94.0</ele><time>2026-04-24T00:42:34Z</time></trkpt><trkpt lat="-20.22995444112537" lon="119.87115019378724"><ele>94.0</ele><time>2026-04-24T00:42:35Z</time></trkpt><trkpt lat="-20.23019612471676" lon="119.87126779458451"><ele>94.0</ele><time>2026-04-24T00:42:36Z</time></trkpt><trkpt lat="-20.230435063944494" lon="119.87138607899219"><ele>93.5</ele><time>2026-04-24T00:42:37Z</time></trkpt><trkpt lat="-20.230676346505646" lon="119.87149953153475"><ele>93.0</ele><time>2026-04-24T00:42:38Z</time></trkpt><trkpt lat="-20.230918996172143" lon="119.87160319175744"><ele>93.0</ele><time>2026-04-24T00:42:39Z</time></trkpt><trkpt lat="-20.2311715309762" lon="119.87170124245534"><ele>93.0</ele><time>2026-04-24T00:42:40Z</time></trkpt><trkpt lat="-20.231423508342612" lon="119.87179662288369"><ele>92.5</ele><time>2026-04-24T00:42:41Z</time></trkpt><trkpt lat="-20.231674341518527" lon="119.87189337362824"><ele>92.0</ele><time>2026-04-24T00:42:42Z</time></trkpt><trkpt lat="-20.23192360060451" lon="119.87198932109933"><ele>92.0</ele><time>2026-04-24T00:42:43Z</time></trkpt><trkpt lat="-20.23216940791416" lon="119.87208053138593"><ele>92.0</ele><time>2026-04-24T00:42:44Z</time></trkpt><trkpt lat="-20.232416270658906" lon="119.87217079650628"><ele>92.5</ele><time>2026-04-24T00:42:45Z</time></trkpt><trkpt lat="-20.232663011387256" lon="119.87226330572567"><ele>93.0</ele><time>2026-04-24T00:42:46Z</time></trkpt><trkpt lat="-20.232910243988968" lon="119.87235736053184"><ele>93.0</ele><time>2026-04-24T00:42:47Z</time></trkpt><trkpt lat="-20.233157747865537" lon="119.87244975759961"><ele>93.0</ele><time>2026-04-24T00:42:48Z</time></trkpt><trkpt lat="-20.233400117531044" lon="119.87253889073162"><ele>93.0</ele><time>2026-04-24T00:42:49Z</time></trkpt><trkpt lat="-20.233644414827744" lon="119.87262760078859"><ele>93.0</ele><time>2026-04-24T00:42:50Z</time></trkpt><trkpt lat="-20.2338877254876" lon="119.8727129218387"><ele>92.5</ele><time>2026-04-24T00:42:51Z</time></trkpt><trkpt lat="-20.234128892990473" lon="119.87279754583722"><ele>92.0</ele><time>2026-04-24T00:42:52Z</time></trkpt><trkpt lat="-20.234373934573703" lon="119.8728821672914"><ele>92.0</ele><time>2026-04-24T00:42:53Z</time></trkpt><trkpt lat="-20.234617333087588" lon="119.87296406731582"><ele>92.0</ele><time>2026-04-24T00:42:54Z</time></trkpt><trkpt lat="-20.234868133872357" lon="119.87304318280655"><ele>91.5</ele><time>2026-04-24T00:42:55Z</time></trkpt><trkpt lat="-20.235120118333306" lon="119.87311633633283"><ele>91.0</ele><time>2026-04-24T00:42:56Z</time></trkpt><trkpt lat="-20.235377893080422" lon="119.8731882334664"><ele>91.0</ele><time>2026-04-24T00:42:57Z</time></trkpt><trkpt lat="-20.235635829809056" lon="119.87325771800396"><ele>91.0</ele><time>2026-04-24T00:42:58Z</time></trkpt><trkpt lat="-20.235894144450153" lon="119.87332407276746"><ele>90.5</ele><time>2026-04-24T00:42:59Z</time></trkpt><trkpt lat="-20.236152900875723" lon="119.87339024485942"><ele>90.0</ele><time>2026-04-24T00:43:00Z</time></trkpt><trkpt lat="-20.236411763790652" lon="119.87345788140979"><ele>89.5</ele><time>2026-04-24T00:43:01Z</time></trkpt><trkpt lat="-20.23666862498525" lon="119.87352949440736"><ele>89.0</ele><time>2026-04-24T00:43:02.001Z</time></trkpt><trkpt lat="-20.236927364772402" lon="119.87360508982235"><ele>89.0</ele><time>2026-04-24T00:43:03.001Z</time></trkpt><trkpt lat="-20.237189286747643" lon="119.8736824401422"><ele>89.0</ele><time>2026-04-24T00:43:04.001Z</time></trkpt><trkpt lat="-20.237450984626793" lon="119.87376336131487"><ele>88.5</ele><time>2026-04-24T00:43:05.001Z</time></trkpt><trkpt lat="-20.237712729651946" lon="119.87384919836013"><ele>88.0</ele><time>2026-04-24T00:43:06.001Z</time></trkpt><trkpt lat="-20.237971575210345" lon="119.87393488394389"><ele>88.0</ele><time>2026-04-24T00:43:07.001Z</time></trkpt><trkpt lat="-20.238230277378793" lon="119.87401949064645"><ele>88.0</ele><time>2026-04-24T00:43:08.001Z</time></trkpt><trkpt lat="-20.238490473796297" lon="119.87407773274927"><ele>88.0</ele><time>2026-04-24T00:43:09.001Z</time></trkpt><trkpt lat="-20.238749835959254" lon="119.87415718473669"><ele>88.0</ele><time>2026-04-24T00:43:10.001Z</time></trkpt><trkpt lat="-20.239007748815" lon="119.87423580671164"><ele>88.0</ele><time>2026-04-24T00:43:11.001Z</time></trkpt><trkpt lat="-20.239264736458576" lon="119.87431430571418"><ele>88.0</ele><time>2026-04-24T00:43:12.001Z</time></trkpt><trkpt lat="-20.239520780029316" lon="119.87439280908899"><ele>88.0</ele><time>2026-04-24T00:43:13.001Z</time></trkpt><trkpt lat="-20.239774370044362" lon="119.87447027105831"><ele>88.0</ele><time>2026-04-24T00:43:14.001Z</time></trkpt><trkpt lat="-20.24002800834588" lon="119.87454829235433"><ele>88.0</ele><time>2026-04-24T00:43:15.001Z</time></trkpt><trkpt lat="-20.240282120749754" lon="119.87462614700473"><ele>88.0</ele><time>2026-04-24T00:43:16.001Z</time></trkpt><trkpt lat="-20.24053232844373" lon="119.874703685905"><ele>88.0</ele><time>2026-04-24T00:43:17.001Z</time></trkpt><trkpt lat="-20.240780522300454" lon="119.87479649411809"><ele>88.0</ele><time>2026-04-24T00:43:18.001Z</time></trkpt><trkpt lat="-20.241033864103425" lon="119.87487199758566"><ele>88.0</ele><time>2026-04-24T00:43:19.001Z</time></trkpt><trkpt lat="-20.241284998906657" lon="119.87495259020437"><ele>88.0</ele><time>2026-04-24T00:43:20.001Z</time></trkpt><trkpt lat="-20.24153452122351" lon="119.87503287428086"><ele>88.5</ele><time>2026-04-24T00:43:21.001Z</time></trkpt><trkpt lat="-20.241786981792753" lon="119.87511915323626"><ele>89.0</ele><time>2026-04-24T00:43:22.001Z</time></trkpt><trkpt lat="-20.242038194049645" lon="119.8752090061535"><ele>89.0</ele><time>2026-04-24T00:43:23.001Z</time></trkpt><trkpt lat="-20.242293733595044" lon="119.8752818713984"><ele>89.0</ele><time>2026-04-24T00:43:24.001Z</time></trkpt><trkpt lat="-20.24254454489832" lon="119.875366662499"><ele>89.0</ele><time>2026-04-24T00:43:25.001Z</time></trkpt><trkpt lat="-20.242791176340422" lon="119.87545175896275"><ele>89.0</ele><time>2026-04-24T00:43:26.001Z</time></trkpt><trkpt lat="-20.24304093160197" lon="119.87553900576957"><ele>89.5</ele><time>2026-04-24T00:43:27.001Z</time></trkpt><trkpt lat="-20.243293885977625" lon="119.87562758015972"><ele>90.0</ele><time>2026-04-24T00:43:28.001Z</time></trkpt><trkpt lat="-20.243542197596824" lon="119.87571468796035"><ele>90.0</ele><time>2026-04-24T00:43:29.001Z</time></trkpt><trkpt lat="-20.243793397621854" lon="119.87580189034341"><ele>90.0</ele><time>2026-04-24T00:43:30.001Z</time></trkpt><trkpt lat="-20.244043248459064" lon="119.87588723295518"><ele>90.0</ele><time>2026-04-24T00:43:31.001Z</time></trkpt><trkpt lat="-20.2442913025743" lon="119.87597506685135"><ele>90.0</ele><time>2026-04-24T00:43:32.001Z</time></trkpt><trkpt lat="-20.244543988905356" lon="119.87606637324673"><ele>90.0</ele><time>2026-04-24T00:43:33.001Z</time></trkpt><trkpt lat="-20.24479455983325" lon="119.87615809664922"><ele>90.0</ele><time>2026-04-24T00:43:34.001Z</time></trkpt><trkpt lat="-20.245047090350162" lon="119.8762498675251"><ele>90.0</ele><time>2026-04-24T00:43:35.001Z</time></trkpt><trkpt lat="-20.245300768330196" lon="119.87633961809212"><ele>90.0</ele><time>2026-04-24T00:43:36.001Z</time></trkpt><trkpt lat="-20.24555617680221" lon="119.87642727649742"><ele>90.5</ele><time>2026-04-24T00:43:37.001Z</time></trkpt><trkpt lat="-20.24580974941961" lon="119.87651389289121"><ele>91.0</ele><time>2026-04-24T00:43:38.001Z</time></trkpt><trkpt lat="-20.24606599659357" lon="119.87660069395592"><ele>91.0</ele><time>2026-04-24T00:43:39.001Z</time></trkpt><trkpt lat="-20.246316342352888" lon="119.87669262859409"><ele>91.0</ele><time>2026-04-24T00:43:40.001Z</time></trkpt><trkpt lat="-20.24656660709398" lon="119.87678885646434"><ele>91.0</ele><time>2026-04-24T00:43:41.001Z</time></trkpt><trkpt lat="-20.246809134629768" lon="119.87689384732764"><ele>91.0</ele><time>2026-04-24T00:43:42.001Z</time></trkpt><trkpt lat="-20.247051183012413" lon="119.87698600856903"><ele>91.5</ele><time>2026-04-24T00:43:43.001Z</time></trkpt><trkpt lat="-20.247294053542024" lon="119.87708288877137"><ele>92.0</ele><time>2026-04-24T00:43:44.001Z</time></trkpt><trkpt lat="-20.247539623768162" lon="119.87718628773825"><ele>92.0</ele><time>2026-04-24T00:43:45.001Z</time></trkpt><trkpt lat="-20.24778482570555" lon="119.8772890657045"><ele>92.0</ele><time>2026-04-24T00:43:46.001Z</time></trkpt><trkpt lat="-20.248032797336602" lon="119.87739229816997"><ele>91.5</ele><time>2026-04-24T00:43:47.001Z</time></trkpt><trkpt lat="-20.248278627650723" lon="119.87749340323504"><ele>91.0</ele><time>2026-04-24T00:43:48.001Z</time></trkpt><trkpt lat="-20.248510816076397" lon="119.87758688871638"><ele>90.5</ele><time>2026-04-24T00:43:49.001Z</time></trkpt><trkpt lat="-20.248743494648064" lon="119.87767554644776"><ele>90.0</ele><time>2026-04-24T00:43:50.001Z</time></trkpt><trkpt lat="-20.24897980804635" lon="119.8777568422617"><ele>90.0</ele><time>2026-04-24T00:43:51.001Z</time></trkpt><trkpt lat="-20.249215714916318" lon="119.87783204929845"><ele>90.0</ele><time>2026-04-24T00:43:52.001Z</time></trkpt><trkpt lat="-20.249450310747054" lon="119.87790213611781"><ele>90.0</ele><time>2026-04-24T00:43:53Z</time></trkpt><trkpt lat="-20.24967816135094" lon="119.87796968423798"><ele>90.0</ele><time>2026-04-24T00:43:54Z</time></trkpt><trkpt lat="-20.24990201986162" lon="119.87803706213762"><ele>90.0</ele><time>2026-04-24T00:43:55Z</time></trkpt><trkpt lat="-20.250130448342993" lon="119.87810627570889"><ele>90.0</ele><time>2026-04-24T00:43:56Z</time></trkpt><trkpt lat="-20.25036105992514" lon="119.87817936804981"><ele>90.0</ele><time>2026-04-24T00:43:57Z</time></trkpt><trkpt lat="-20.25059650682549" lon="119.87825706551098"><ele>90.0</ele><time>2026-04-24T00:43:58Z</time></trkpt><trkpt lat="-20.250833543647428" lon="119.8783402752805"><ele>90.5</ele><time>2026-04-24T00:43:59Z</time></trkpt><trkpt lat="-20.25107262988136" lon="119.878428990759"><ele>91.0</ele><time>2026-04-24T00:44:00Z</time></trkpt><trkpt lat="-20.25131156405188" lon="119.87852615829071"><ele>91.0</ele><time>2026-04-24T00:44:01Z</time></trkpt><trkpt lat="-20.251550558551063" lon="119.87863199655193"><ele>91.0</ele><time>2026-04-24T00:44:02Z</time></trkpt><trkpt lat="-20.251789547490052" lon="119.87874132944825"><ele>91.0</ele><time>2026-04-24T00:44:03Z</time></trkpt><trkpt lat="-20.252032212773" lon="119.87885281075955"><ele>91.0</ele><time>2026-04-24T00:44:04Z</time></trkpt><trkpt lat="-20.25227777762556" lon="119.8789579566011"><ele>91.0</ele><time>2026-04-24T00:44:05Z</time></trkpt><trkpt lat="-20.25252524645081" lon="119.87905509861083"><ele>91.0</ele><time>2026-04-24T00:44:06Z</time></trkpt><trkpt lat="-20.252774031874953" lon="119.87914870112866"><ele>91.0</ele><time>2026-04-24T00:44:07Z</time></trkpt><trkpt lat="-20.253023856640798" lon="119.87923543666085"><ele>91.0</ele><time>2026-04-24T00:44:08Z</time></trkpt><trkpt lat="-20.253273937673356" lon="119.87931650096817"><ele>90.0</ele><time>2026-04-24T00:44:09Z</time></trkpt><trkpt lat="-20.2535224418566" lon="119.87939440225574"><ele>89.0</ele><time>2026-04-24T00:44:10Z</time></trkpt><trkpt lat="-20.25376902848684" lon="119.87947114136784"><ele>89.0</ele><time>2026-04-24T00:44:11Z</time></trkpt><trkpt lat="-20.254024410822325" lon="119.87954927053852"><ele>89.0</ele><time>2026-04-24T00:44:12Z</time></trkpt><trkpt lat="-20.254269042615977" lon="119.87962699160173"><ele>89.0</ele><time>2026-04-24T00:44:13Z</time></trkpt><trkpt lat="-20.25451551025831" lon="119.87971078770505"><ele>89.0</ele><time>2026-04-24T00:44:14Z</time></trkpt><trkpt lat="-20.254764712800316" lon="119.87980053745137"><ele>89.0</ele><time>2026-04-24T00:44:15Z</time></trkpt><trkpt lat="-20.25501485952729" lon="119.87989321728479"><ele>89.0</ele><time>2026-04-24T00:44:16Z</time></trkpt><trkpt lat="-20.25526371701618" lon="119.87998780526469"><ele>89.0</ele><time>2026-04-24T00:44:17Z</time></trkpt><trkpt lat="-20.25551314751046" lon="119.88008134822418"><ele>89.0</ele><time>2026-04-24T00:44:18Z</time></trkpt><trkpt lat="-20.255764724765307" lon="119.88016932789756"><ele>89.0</ele><time>2026-04-24T00:44:19Z</time></trkpt><trkpt lat="-20.2560176878451" lon="119.88025777731578"><ele>89.0</ele><time>2026-04-24T00:44:20Z</time></trkpt><trkpt lat="-20.256273669187696" lon="119.88034860568598"><ele>89.5</ele><time>2026-04-24T00:44:21Z</time></trkpt><trkpt lat="-20.25653001041261" lon="119.8804366625321"><ele>90.0</ele><time>2026-04-24T00:44:22Z</time></trkpt><trkpt lat="-20.256791434718096" lon="119.88052525236637"><ele>90.0</ele><time>2026-04-24T00:44:23Z</time></trkpt><trkpt lat="-20.25705054887034" lon="119.88061540559788"><ele>90.0</ele><time>2026-04-24T00:44:24Z</time></trkpt><trkpt lat="-20.257311227966458" lon="119.88070455901676"><ele>90.0</ele><time>2026-04-24T00:44:25Z</time></trkpt><trkpt lat="-20.257575613592916" lon="119.88078971130338"><ele>90.0</ele><time>2026-04-24T00:44:26Z</time></trkpt><trkpt lat="-20.257841548704786" lon="119.88086652052972"><ele>90.0</ele><time>2026-04-24T00:44:27Z</time></trkpt><trkpt lat="-20.258109439023805" lon="119.88093451005304"><ele>90.0</ele><time>2026-04-24T00:44:28Z</time></trkpt><trkpt lat="-20.258374103200804" lon="119.880998564082"><ele>90.0</ele><time>2026-04-24T00:44:29Z</time></trkpt><trkpt lat="-20.258637062370614" lon="119.88106330087513"><ele>90.0</ele><time>2026-04-24T00:44:30Z</time></trkpt><trkpt lat="-20.25889740093267" lon="119.88113422571685"><ele>90.5</ele><time>2026-04-24T00:44:31Z</time></trkpt><trkpt lat="-20.25915573144034" lon="119.88121394736385"><ele>91.0</ele><time>2026-04-24T00:44:32Z</time></trkpt><trkpt lat="-20.259411328572174" lon="119.88129824791172"><ele>91.0</ele><time>2026-04-24T00:44:33Z</time></trkpt><trkpt lat="-20.259665003471856" lon="119.88138542491228"><ele>91.0</ele><time>2026-04-24T00:44:34Z</time></trkpt><trkpt lat="-20.259920739692653" lon="119.88147511510492"><ele>91.5</ele><time>2026-04-24T00:44:35Z</time></trkpt><trkpt lat="-20.260177090637598" lon="119.8815657043216"><ele>92.0</ele><time>2026-04-24T00:44:36Z</time></trkpt><trkpt lat="-20.260432244068234" lon="119.8816538951708"><ele>92.0</ele><time>2026-04-24T00:44:37Z</time></trkpt><trkpt lat="-20.26069370475918" lon="119.88174456276978"><ele>92.0</ele><time>2026-04-24T00:44:38Z</time></trkpt><trkpt lat="-20.260953522913756" lon="119.88183681509122"><ele>92.0</ele><time>2026-04-24T00:44:39Z</time></trkpt><trkpt lat="-20.261211428138086" lon="119.8819284622813"><ele>92.0</ele><time>2026-04-24T00:44:40Z</time></trkpt><trkpt lat="-20.26147459072399" lon="119.88202325964853"><ele>92.0</ele><time>2026-04-24T00:44:41Z</time></trkpt><trkpt lat="-20.261736667017022" lon="119.88211694085035"><ele>92.0</ele><time>2026-04-24T00:44:42Z</time></trkpt><trkpt lat="-20.261994258011512" lon="119.8822097595039"><ele>92.0</ele><time>2026-04-24T00:44:43Z</time></trkpt><trkpt lat="-20.262251755105837" lon="119.88230286322171"><ele>92.0</ele><time>2026-04-24T00:44:44Z</time></trkpt><trkpt lat="-20.26250923768519" lon="119.88239582817566"><ele>92.0</ele><time>2026-04-24T00:44:45Z</time></trkpt><trkpt lat="-20.26276269754388" lon="119.88248515751029"><ele>92.0</ele><time>2026-04-24T00:44:46Z</time></trkpt><trkpt lat="-20.26301780306611" lon="119.88257453551597"><ele>93.0</ele><time>2026-04-24T00:44:47Z</time></trkpt><trkpt lat="-20.263272815927476" lon="119.88266170010799"><ele>94.0</ele><time>2026-04-24T00:44:48Z</time></trkpt><trkpt lat="-20.2635296290445" lon="119.88275375305446"><ele>94.0</ele><time>2026-04-24T00:44:49Z</time></trkpt><trkpt lat="-20.263780400158304" lon="119.88284179275792"><ele>94.0</ele><time>2026-04-24T00:44:50Z</time></trkpt><trkpt lat="-20.264030494051184" lon="119.88293046468806"><ele>94.0</ele><time>2026-04-24T00:44:51Z</time></trkpt><trkpt lat="-20.26428223469568" lon="119.88301786692922"><ele>94.0</ele><time>2026-04-24T00:44:52Z</time></trkpt><trkpt lat="-20.264535307947263" lon="119.88310609422791"><ele>93.5</ele><time>2026-04-24T00:44:53Z</time></trkpt><trkpt lat="-20.264788369252457" lon="119.88319498923855"><ele>93.0</ele><time>2026-04-24T00:44:54Z</time></trkpt><trkpt lat="-20.26504743275916" lon="119.8832886282003"><ele>93.0</ele><time>2026-04-24T00:44:55Z</time></trkpt><trkpt lat="-20.265309069473215" lon="119.8833836189261"><ele>93.0</ele><time>2026-04-24T00:44:56Z</time></trkpt><trkpt lat="-20.265570731141413" lon="119.88347773429163"><ele>93.0</ele><time>2026-04-24T00:44:57Z</time></trkpt><trkpt lat="-20.265831855947454" lon="119.88357071111108"><ele>93.0</ele><time>2026-04-24T00:44:58Z</time></trkpt><trkpt lat="-20.266093374233925" lon="119.88366873531473"><ele>93.0</ele><time>2026-04-24T00:44:59Z</time></trkpt><trkpt lat="-20.26635423606625" lon="119.88376678526411"><ele>93.0</ele><time>2026-04-24T00:45:00Z</time></trkpt><trkpt lat="-20.266621356631493" lon="119.88386383584499"><ele>92.5</ele><time>2026-04-24T00:45:01Z</time></trkpt><trkpt lat="-20.266883140275688" lon="119.88395776429583"><ele>92.0</ele><time>2026-04-24T00:45:02Z</time></trkpt><trkpt lat="-20.267143835324305" lon="119.88405167613678"><ele>92.5</ele><time>2026-04-24T00:45:03Z</time></trkpt><trkpt lat="-20.267409872915263" lon="119.88414923975309"><ele>93.0</ele><time>2026-04-24T00:45:04Z</time></trkpt><trkpt lat="-20.267674574436843" lon="119.88424512430213"><ele>93.0</ele><time>2026-04-24T00:45:05Z</time></trkpt><trkpt lat="-20.26794221288126" lon="119.88434168610505"><ele>93.0</ele><time>2026-04-24T00:45:06Z</time></trkpt><trkpt lat="-20.268210399585712" lon="119.88443979260929"><ele>93.0</ele><time>2026-04-24T00:45:07Z</time></trkpt><trkpt lat="-20.26847549808437" lon="119.88453710161795"><ele>93.0</ele><time>2026-04-24T00:45:08Z</time></trkpt><trkpt lat="-20.26874327040169" lon="119.88463889310464"><ele>92.0</ele><time>2026-04-24T00:45:09Z</time></trkpt><trkpt lat="-20.269002403494543" lon="119.88473268644198"><ele>91.0</ele><time>2026-04-24T00:45:10Z</time></trkpt><trkpt lat="-20.26926725851619" lon="119.88483252964461"><ele>91.0</ele><time>2026-04-24T00:45:11Z</time></trkpt><trkpt lat="-20.269528665100314" lon="119.88492899603952"><ele>91.0</ele><time>2026-04-24T00:45:12Z</time></trkpt><trkpt lat="-20.26978844728862" lon="119.88502513225983"><ele>92.0</ele><time>2026-04-24T00:45:13Z</time></trkpt><trkpt lat="-20.27004443629765" lon="119.88511766006471"><ele>93.0</ele><time>2026-04-24T00:45:14Z</time></trkpt><trkpt lat="-20.270301284869014" lon="119.8852106563604"><ele>93.0</ele><time>2026-04-24T00:45:15Z</time></trkpt><trkpt lat="-20.27055760823286" lon="119.88530316539745"><ele>93.0</ele><time>2026-04-24T00:45:16Z</time></trkpt><trkpt lat="-20.270811468109397" lon="119.88539514036873"><ele>93.0</ele><time>2026-04-24T00:45:17Z</time></trkpt><trkpt lat="-20.271065857683954" lon="119.88548828396326"><ele>93.0</ele><time>2026-04-24T00:45:18Z</time></trkpt><trkpt lat="-20.27131889753775" lon="119.88557325298282"><ele>93.0</ele><time>2026-04-24T00:45:19Z</time></trkpt><trkpt lat="-20.27157343154688" lon="119.8856687545214"><ele>93.0</ele><time>2026-04-24T00:45:20Z</time></trkpt><trkpt lat="-20.27182841596237" lon="119.88575887000177"><ele>93.0</ele><time>2026-04-24T00:45:21Z</time></trkpt><trkpt lat="-20.272084734971777" lon="119.88585042162967"><ele>93.0</ele><time>2026-04-24T00:45:22Z</time></trkpt><trkpt lat="-20.272342879524135" lon="119.8859401837585"><ele>93.0</ele><time>2026-04-24T00:45:23Z</time></trkpt><trkpt lat="-20.2725961085747" lon="119.88602742792756"><ele>93.0</ele><time>2026-04-24T00:45:24Z</time></trkpt><trkpt lat="-20.272852190599718" lon="119.88612029930295"><ele>93.0</ele><time>2026-04-24T00:45:25Z</time></trkpt><trkpt lat="-20.273105276595054" lon="119.88620849026728"><ele>93.0</ele><time>2026-04-24T00:45:26Z</time></trkpt><trkpt lat="-20.273359750886343" lon="119.88630070740238"><ele>93.5</ele><time>2026-04-24T00:45:27Z</time></trkpt><trkpt lat="-20.27361367935112" lon="119.88638362250202"><ele>94.0</ele><time>2026-04-24T00:45:28Z</time></trkpt><trkpt lat="-20.273869631784944" lon="119.88646023945508"><ele>95.0</ele><time>2026-04-24T00:45:29Z</time></trkpt><trkpt lat="-20.274128152380808" lon="119.88653063070241"><ele>96.0</ele><time>2026-04-24T00:45:30Z</time></trkpt><trkpt lat="-20.274382441989346" lon="119.88659495299395"><ele>96.0</ele><time>2026-04-24T00:45:31Z</time></trkpt><trkpt lat="-20.274636562575385" lon="119.8866615443726"><ele>96.0</ele><time>2026-04-24T00:45:32Z</time></trkpt><trkpt lat="-20.27488366759785" lon="119.88675363414065"><ele>97.0</ele><time>2026-04-24T00:45:33Z</time></trkpt><trkpt lat="-20.275139284645505" lon="119.88682011341018"><ele>98.0</ele><time>2026-04-24T00:45:34Z</time></trkpt><trkpt lat="-20.275390156951254" lon="119.88691122028685"><ele>99.0</ele><time>2026-04-24T00:45:35Z</time></trkpt><trkpt lat="-20.27564274388361" lon="119.88700139473956"><ele>100.0</ele><time>2026-04-24T00:45:36Z</time></trkpt><trkpt lat="-20.275894844316145" lon="119.8870915689709"><ele>100.0</ele><time>2026-04-24T00:45:37Z</time></trkpt><trkpt lat="-20.27614694044895" lon="119.8871829797864"><ele>100.0</ele><time>2026-04-24T00:45:38Z</time></trkpt><trkpt lat="-20.27640020063842" lon="119.88727551292759"><ele>99.5</ele><time>2026-04-24T00:45:39Z</time></trkpt><trkpt lat="-20.276656068043035" lon="119.88737078912605"><ele>99.0</ele><time>2026-04-24T00:45:40Z</time></trkpt><trkpt lat="-20.276911293007895" lon="119.88746456845018"><ele>99.0</ele><time>2026-04-24T00:45:41Z</time></trkpt><trkpt lat="-20.277164847256568" lon="119.88755685725774"><ele>99.0</ele><time>2026-04-24T00:45:42Z</time></trkpt><trkpt lat="-20.27742474662875" lon="119.88765070267513"><ele>99.0</ele><time>2026-04-24T00:45:43Z</time></trkpt><trkpt lat="-20.277677068021607" lon="119.88774150041908"><ele>99.0</ele><time>2026-04-24T00:45:44Z</time></trkpt><trkpt lat="-20.27793349785529" lon="119.8878346531192"><ele>98.0</ele><time>2026-04-24T00:45:45Z</time></trkpt><trkpt lat="-20.2781846133675" lon="119.88792401194978"><ele>97.0</ele><time>2026-04-24T00:45:46Z</time></trkpt><trkpt lat="-20.278442193215422" lon="119.88801219550847"><ele>97.0</ele><time>2026-04-24T00:45:47Z</time></trkpt><trkpt lat="-20.278698138312475" lon="119.88809842150607"><ele>97.0</ele><time>2026-04-24T00:45:48Z</time></trkpt><trkpt lat="-20.278952503925222" lon="119.88818311042931"><ele>97.0</ele><time>2026-04-24T00:45:49Z</time></trkpt><trkpt lat="-20.279207556820914" lon="119.88826924888136"><ele>97.0</ele><time>2026-04-24T00:45:50Z</time></trkpt><trkpt lat="-20.279457932016395" lon="119.88835261392761"><ele>97.0</ele><time>2026-04-24T00:45:51.001Z</time></trkpt><trkpt lat="-20.279712778221057" lon="119.88844146762112"><ele>97.0</ele><time>2026-04-24T00:45:52.001Z</time></trkpt><trkpt lat="-20.279966592033613" lon="119.88852825158966"><ele>97.5</ele><time>2026-04-24T00:45:53.001Z</time></trkpt><trkpt lat="-20.28022290673792" lon="119.88861718016952"><ele>98.0</ele><time>2026-04-24T00:45:54.001Z</time></trkpt><trkpt lat="-20.28047628172309" lon="119.88870615841707"><ele>98.0</ele><time>2026-04-24T00:45:55.001Z</time></trkpt><trkpt lat="-20.280729729842758" lon="119.88879605229803"><ele>98.0</ele><time>2026-04-24T00:45:56.001Z</time></trkpt><trkpt lat="-20.280986282955546" lon="119.88888592913828"><ele>98.0</ele><time>2026-04-24T00:45:57.001Z</time></trkpt><trkpt lat="-20.28124031814243" lon="119.88897558341891"><ele>98.0</ele><time>2026-04-24T00:45:58.001Z</time></trkpt><trkpt lat="-20.2814921407097" lon="119.88906417467292"><ele>97.5</ele><time>2026-04-24T00:45:59Z</time></trkpt><trkpt lat="-20.2817433381902" lon="119.88915264818547"><ele>97.0</ele><time>2026-04-24T00:46:00Z</time></trkpt><trkpt lat="-20.28199552877934" lon="119.88924565125483"><ele>97.5</ele><time>2026-04-24T00:46:01Z</time></trkpt><trkpt lat="-20.282244821389686" lon="119.88933522957359"><ele>98.0</ele><time>2026-04-24T00:46:02Z</time></trkpt><trkpt lat="-20.282494943975003" lon="119.88942520070998"><ele>98.0</ele><time>2026-04-24T00:46:03Z</time></trkpt><trkpt lat="-20.282742025929767" lon="119.88951355325587"><ele>98.0</ele><time>2026-04-24T00:46:04Z</time></trkpt><trkpt lat="-20.282992545905245" lon="119.88960234806149"><ele>98.0</ele><time>2026-04-24T00:46:05Z</time></trkpt><trkpt lat="-20.28324112047972" lon="119.88969083675454"><ele>98.0</ele><time>2026-04-24T00:46:06Z</time></trkpt><trkpt lat="-20.283489057318135" lon="119.88978232779756"><ele>98.0</ele><time>2026-04-24T00:46:07Z</time></trkpt><trkpt lat="-20.28373762508587" lon="119.88987486724972"><ele>98.0</ele><time>2026-04-24T00:46:08Z</time></trkpt><trkpt lat="-20.283985122486857" lon="119.88996627158582"><ele>98.5</ele><time>2026-04-24T00:46:09Z</time></trkpt><trkpt lat="-20.284235181053536" lon="119.89005968668249"><ele>99.0</ele><time>2026-04-24T00:46:10Z</time></trkpt><trkpt lat="-20.28448617952894" lon="119.89015515509865"><ele>99.0</ele><time>2026-04-24T00:46:11Z</time></trkpt><trkpt lat="-20.28473594200485" lon="119.89024986283516"><ele>99.0</ele><time>2026-04-24T00:46:12Z</time></trkpt><trkpt lat="-20.284982679913533" lon="119.8903411834668"><ele>99.5</ele><time>2026-04-24T00:46:13Z</time></trkpt><trkpt lat="-20.285236483084432" lon="119.89043361422132"><ele>100.0</ele><time>2026-04-24T00:46:14Z</time></trkpt><trkpt lat="-20.28548247473977" lon="119.89052582758767"><ele>100.0</ele><time>2026-04-24T00:46:15Z</time></trkpt><trkpt lat="-20.285732642642134" lon="119.8906170423271"><ele>100.0</ele><time>2026-04-24T00:46:16Z</time></trkpt><trkpt lat="-20.285984668820504" lon="119.89070950802504"><ele>100.0</ele><time>2026-04-24T00:46:17Z</time></trkpt><trkpt lat="-20.286240172710286" lon="119.89080467176464"><ele>100.0</ele><time>2026-04-24T00:46:18Z</time></trkpt><trkpt lat="-20.286493306885152" lon="119.89089765047453"><ele>99.0</ele><time>2026-04-24T00:46:19Z</time></trkpt><trkpt lat="-20.28674891486267" lon="119.89098880083895"><ele>98.0</ele><time>2026-04-24T00:46:20Z</time></trkpt><trkpt lat="-20.2870020259592" lon="119.8910787682548"><ele>98.0</ele><time>2026-04-24T00:46:21Z</time></trkpt><trkpt lat="-20.287255773380235" lon="119.89117185273264"><ele>98.0</ele><time>2026-04-24T00:46:22Z</time></trkpt><trkpt lat="-20.28751014726128" lon="119.89126406898377"><ele>99.0</ele><time>2026-04-24T00:46:23Z</time></trkpt><trkpt lat="-20.287769196966558" lon="119.89136118386459"><ele>100.0</ele><time>2026-04-24T00:46:24Z</time></trkpt><trkpt lat="-20.288026716010446" lon="119.89145572728891"><ele>99.5</ele><time>2026-04-24T00:46:25Z</time></trkpt><trkpt lat="-20.288286729575017" lon="119.891551718875"><ele>99.0</ele><time>2026-04-24T00:46:26Z</time></trkpt><trkpt lat="-20.288545546272076" lon="119.89164526958606"><ele>99.0</ele><time>2026-04-24T00:46:27Z</time></trkpt><trkpt lat="-20.288799042176667" lon="119.89173812122384"><ele>99.0</ele><time>2026-04-24T00:46:28Z</time></trkpt><trkpt lat="-20.289055228092483" lon="119.89182879701075"><ele>99.0</ele><time>2026-04-24T00:46:29Z</time></trkpt><trkpt lat="-20.28931202048683" lon="119.8919212337836"><ele>99.0</ele><time>2026-04-24T00:46:30Z</time></trkpt><trkpt lat="-20.28956409953099" lon="119.89201162808561"><ele>98.5</ele><time>2026-04-24T00:46:31Z</time></trkpt><trkpt lat="-20.289812670023867" lon="119.89210184469752"><ele>98.0</ele><time>2026-04-24T00:46:32Z</time></trkpt><trkpt lat="-20.29006916061879" lon="119.8921976672868"><ele>98.0</ele><time>2026-04-24T00:46:33Z</time></trkpt><trkpt lat="-20.29031705519799" lon="119.89229053328424"><ele>98.0</ele><time>2026-04-24T00:46:34Z</time></trkpt><trkpt lat="-20.290566052023248" lon="119.89238884186257"><ele>98.5</ele><time>2026-04-24T00:46:35Z</time></trkpt><trkpt lat="-20.290818911266534" lon="119.89248852614205"><ele>99.0</ele><time>2026-04-24T00:46:36Z</time></trkpt><trkpt lat="-20.29107686453116" lon="119.89259209364684"><ele>99.5</ele><time>2026-04-24T00:46:37Z</time></trkpt><trkpt lat="-20.2913295809758" lon="119.89269035534673"><ele>100.0</ele><time>2026-04-24T00:46:38Z</time></trkpt><trkpt lat="-20.29158261185149" lon="119.89279004518485"><ele>100.5</ele><time>2026-04-24T00:46:39Z</time></trkpt><trkpt lat="-20.291834123557265" lon="119.89289158967405"><ele>101.0</ele><time>2026-04-24T00:46:40Z</time></trkpt><trkpt lat="-20.29208780631464" lon="119.89299773071512"><ele>102.0</ele><time>2026-04-24T00:46:41Z</time></trkpt><trkpt lat="-20.29232642164235" lon="119.89308450164818"><ele>103.0</ele><time>2026-04-24T00:46:42Z</time></trkpt><trkpt lat="-20.292579341164075" lon="119.89319115578608"><ele>103.0</ele><time>2026-04-24T00:46:43Z</time></trkpt><trkpt lat="-20.292818591214406" lon="119.89329247663613"><ele>103.0</ele><time>2026-04-24T00:46:44Z</time></trkpt><trkpt lat="-20.29304870085136" lon="119.8933847540456"><ele>103.5</ele><time>2026-04-24T00:46:45Z</time></trkpt><trkpt lat="-20.293272756753797" lon="119.89346684619203"><ele>104.0</ele><time>2026-04-24T00:46:46Z</time></trkpt><trkpt lat="-20.293489942017356" lon="119.89355185851467"><ele>104.0</ele><time>2026-04-24T00:46:47Z</time></trkpt><trkpt lat="-20.293705379508722" lon="119.89363954006214"><ele>104.0</ele><time>2026-04-24T00:46:48Z</time></trkpt><trkpt lat="-20.293927784422493" lon="119.89372771712516"><ele>105.0</ele><time>2026-04-24T00:46:49Z</time></trkpt><trkpt lat="-20.294146207260926" lon="119.89381310257858"><ele>106.0</ele><time>2026-04-24T00:46:50Z</time></trkpt><trkpt lat="-20.294367413648047" lon="119.89389892532161"><ele>106.0</ele><time>2026-04-24T00:46:51Z</time></trkpt><trkpt lat="-20.29459915166053" lon="119.89398660224262"><ele>106.0</ele><time>2026-04-24T00:46:52Z</time></trkpt><trkpt lat="-20.29482889503834" lon="119.89407292650331"><ele>107.0</ele><time>2026-04-24T00:46:53Z</time></trkpt><trkpt lat="-20.295062520856312" lon="119.89416225534299"><ele>108.0</ele><time>2026-04-24T00:46:54Z</time></trkpt><trkpt lat="-20.295301736154638" lon="119.89425132569838"><ele>107.5</ele><time>2026-04-24T00:46:55Z</time></trkpt><trkpt lat="-20.295538988743512" lon="119.89433777553093"><ele>107.0</ele><time>2026-04-24T00:46:56Z</time></trkpt><trkpt lat="-20.295783028450785" lon="119.89442363023595"><ele>107.0</ele><time>2026-04-24T00:46:57Z</time></trkpt><trkpt lat="-20.296028054105843" lon="119.8945037814848"><ele>107.0</ele><time>2026-04-24T00:46:58Z</time></trkpt><trkpt lat="-20.29627707994847" lon="119.89458546941805"><ele>106.5</ele><time>2026-04-24T00:46:59Z</time></trkpt><trkpt lat="-20.296524706525368" lon="119.89466791051464"><ele>106.0</ele><time>2026-04-24T00:47:00Z</time></trkpt><trkpt lat="-20.296774213144765" lon="119.89475164514477"><ele>106.0</ele><time>2026-04-24T00:47:01Z</time></trkpt><trkpt lat="-20.297027019072086" lon="119.8948343034362"><ele>106.0</ele><time>2026-04-24T00:47:02Z</time></trkpt><trkpt lat="-20.297283077055408" lon="119.8949189411687"><ele>107.0</ele><time>2026-04-24T00:47:03Z</time></trkpt><trkpt lat="-20.297538757612294" lon="119.89500291013059"><ele>108.0</ele><time>2026-04-24T00:47:04Z</time></trkpt><trkpt lat="-20.29779674358039" lon="119.89508668486829"><ele>108.0</ele><time>2026-04-24T00:47:05Z</time></trkpt><trkpt lat="-20.298055701326838" lon="119.89517003048267"><ele>108.0</ele><time>2026-04-24T00:47:06Z</time></trkpt><trkpt lat="-20.298314158684672" lon="119.89525587438213"><ele>109.5</ele><time>2026-04-24T00:47:07Z</time></trkpt><trkpt lat="-20.298572436537075" lon="119.89534193991808"><ele>111.0</ele><time>2026-04-24T00:47:08Z</time></trkpt><trkpt lat="-20.29882396832908" lon="119.8954295845355"><ele>111.0</ele><time>2026-04-24T00:47:09Z</time></trkpt><trkpt lat="-20.299061216882446" lon="119.89551482044595"><ele>111.0</ele><time>2026-04-24T00:47:10Z</time></trkpt><trkpt lat="-20.299301954916363" lon="119.8956059802308"><ele>111.0</ele><time>2026-04-24T00:47:11Z</time></trkpt><trkpt lat="-20.299542085281338" lon="119.89569139435069"><ele>111.0</ele><time>2026-04-24T00:47:12Z</time></trkpt><trkpt lat="-20.299785022262054" lon="119.89577619695407"><ele>111.0</ele><time>2026-04-24T00:47:13Z</time></trkpt><trkpt lat="-20.30002880331363" lon="119.89586202720827"><ele>111.0</ele><time>2026-04-24T00:47:14Z</time></trkpt><trkpt lat="-20.30027105947657" lon="119.89595066718604"><ele>111.0</ele><time>2026-04-24T00:47:15Z</time></trkpt><trkpt lat="-20.300518979294953" lon="119.8960439829967"><ele>111.0</ele><time>2026-04-24T00:47:16Z</time></trkpt><trkpt lat="-20.300767664267568" lon="119.89614291083657"><ele>111.0</ele><time>2026-04-24T00:47:17Z</time></trkpt><trkpt lat="-20.301018235366403" lon="119.89624736492641"><ele>111.0</ele><time>2026-04-24T00:47:18Z</time></trkpt><trkpt lat="-20.301270480576957" lon="119.89635898477624"><ele>111.5</ele><time>2026-04-24T00:47:19Z</time></trkpt><trkpt lat="-20.30152665364467" lon="119.89647372574223"><ele>112.0</ele><time>2026-04-24T00:47:20Z</time></trkpt><trkpt lat="-20.30178364915471" lon="119.89659174883198"><ele>112.0</ele><time>2026-04-24T00:47:21Z</time></trkpt><trkpt lat="-20.302039136188686" lon="119.89670918840355"><ele>112.0</ele><time>2026-04-24T00:47:22Z</time></trkpt><trkpt lat="-20.302297411595234" lon="119.89682717070686"><ele>112.5</ele><time>2026-04-24T00:47:23Z</time></trkpt><trkpt lat="-20.30255237191468" lon="119.89694406084307"><ele>113.0</ele><time>2026-04-24T00:47:24Z</time></trkpt><trkpt lat="-20.302802449728176" lon="119.8970587584784"><ele>113.0</ele><time>2026-04-24T00:47:25Z</time></trkpt><trkpt lat="-20.30305598554197" lon="119.89717313166496"><ele>113.0</ele><time>2026-04-24T00:47:26Z</time></trkpt><trkpt lat="-20.303302606319058" lon="119.89728587832832"><ele>113.0</ele><time>2026-04-24T00:47:27Z</time></trkpt><trkpt lat="-20.303549485383815" lon="119.89740010196476"><ele>113.0</ele><time>2026-04-24T00:47:28Z</time></trkpt><trkpt lat="-20.30379920497373" lon="119.89751584087008"><ele>113.0</ele><time>2026-04-24T00:47:29Z</time></trkpt><trkpt lat="-20.304046540527462" lon="119.89763028948629"><ele>113.0</ele><time>2026-04-24T00:47:30Z</time></trkpt><trkpt lat="-20.304294796208215" lon="119.89774004824797"><ele>113.0</ele><time>2026-04-24T00:47:31Z</time></trkpt><trkpt lat="-20.304540455695186" lon="119.89784780589964"><ele>113.0</ele><time>2026-04-24T00:47:32Z</time></trkpt><trkpt lat="-20.30478468911771" lon="119.89795164778208"><ele>113.5</ele><time>2026-04-24T00:47:33Z</time></trkpt><trkpt lat="-20.305030881186653" lon="119.89805227129854"><ele>114.0</ele><time>2026-04-24T00:47:34Z</time></trkpt><trkpt lat="-20.30527445653457" lon="119.89814890878593"><ele>114.0</ele><time>2026-04-24T00:47:35Z</time></trkpt><trkpt lat="-20.305525713423876" lon="119.89824186292533"><ele>114.0</ele><time>2026-04-24T00:47:36Z</time></trkpt><trkpt lat="-20.305780507583922" lon="119.89833356836226"><ele>114.5</ele><time>2026-04-24T00:47:37Z</time></trkpt><trkpt lat="-20.306038547024194" lon="119.89842032523663"><ele>115.0</ele><time>2026-04-24T00:47:38Z</time></trkpt><trkpt lat="-20.306298629218475" lon="119.89850553328107"><ele>115.0</ele><time>2026-04-24T00:47:39Z</time></trkpt><trkpt lat="-20.306556207369105" lon="119.89860928937944"><ele>115.0</ele><time>2026-04-24T00:47:40Z</time></trkpt><trkpt lat="-20.30682008865218" lon="119.89869559704924"><ele>115.0</ele><time>2026-04-24T00:47:41Z</time></trkpt><trkpt lat="-20.307090223026524" lon="119.89876601181032"><ele>115.0</ele><time>2026-04-24T00:47:42Z</time></trkpt><trkpt lat="-20.30735518735677" lon="119.89885385654232"><ele>114.5</ele><time>2026-04-24T00:47:43Z</time></trkpt><trkpt lat="-20.307619218486384" lon="119.89894018427758"><ele>114.0</ele><time>2026-04-24T00:47:44Z</time></trkpt><trkpt lat="-20.307887166583527" lon="119.89902646838539"><ele>115.0</ele><time>2026-04-24T00:47:45Z</time></trkpt><trkpt lat="-20.30815548639471" lon="119.89911262457267"><ele>116.0</ele><time>2026-04-24T00:47:46Z</time></trkpt><trkpt lat="-20.308421622623545" lon="119.89920134691147"><ele>115.5</ele><time>2026-04-24T00:47:47Z</time></trkpt><trkpt lat="-20.308688270474704" lon="119.8992876846189"><ele>115.0</ele><time>2026-04-24T00:47:48Z</time></trkpt><trkpt lat="-20.30895407313078" lon="119.89937364445757"><ele>116.0</ele><time>2026-04-24T00:47:49Z</time></trkpt><trkpt lat="-20.309219626022436" lon="119.89945720559096"><ele>117.0</ele><time>2026-04-24T00:47:50Z</time></trkpt><trkpt lat="-20.309484858548473" lon="119.8995411787707"><ele>117.0</ele><time>2026-04-24T00:47:51Z</time></trkpt><trkpt lat="-20.30975111073863" lon="119.8996259331955"><ele>117.0</ele><time>2026-04-24T00:47:52Z</time></trkpt><trkpt lat="-20.310017447121645" lon="119.89970991352435"><ele>117.0</ele><time>2026-04-24T00:47:53Z</time></trkpt><trkpt lat="-20.310284583122392" lon="119.89979427130969"><ele>117.0</ele><time>2026-04-24T00:47:54Z</time></trkpt><trkpt lat="-20.31055301326902" lon="119.89988022790352"><ele>117.5</ele><time>2026-04-24T00:47:55Z</time></trkpt><trkpt lat="-20.31082057614545" lon="119.89996803974398"><ele>118.0</ele><time>2026-04-24T00:47:56Z</time></trkpt><trkpt lat="-20.31108829951544" lon="119.9000533382622"><ele>118.0</ele><time>2026-04-24T00:47:57Z</time></trkpt><trkpt lat="-20.31135359388333" lon="119.90013703870594"><ele>118.0</ele><time>2026-04-24T00:47:58Z</time></trkpt><trkpt lat="-20.31161744101463" lon="119.90022181568048"><ele>118.5</ele><time>2026-04-24T00:47:59Z</time></trkpt><trkpt lat="-20.311882010976333" lon="119.90030622913305"><ele>119.0</ele><time>2026-04-24T00:48:00Z</time></trkpt><trkpt lat="-20.312147875865083" lon="119.90039006498066"><ele>119.5</ele><time>2026-04-24T00:48:01Z</time></trkpt><trkpt lat="-20.31240716644403" lon="119.90046887815534"><ele>120.0</ele><time>2026-04-24T00:48:02Z</time></trkpt><trkpt lat="-20.312666809209933" lon="119.90054853504083"><ele>120.0</ele><time>2026-04-24T00:48:03Z</time></trkpt><trkpt lat="-20.312919619139414" lon="119.90062412461128"><ele>120.0</ele><time>2026-04-24T00:48:04Z</time></trkpt><trkpt lat="-20.313170264721276" lon="119.9007000154871"><ele>121.0</ele><time>2026-04-24T00:48:05Z</time></trkpt><trkpt lat="-20.313418830412328" lon="119.90077454537183"><ele>122.0</ele><time>2026-04-24T00:48:06Z</time></trkpt><trkpt lat="-20.313661871868316" lon="119.90084642559042"><ele>122.0</ele><time>2026-04-24T00:48:07Z</time></trkpt><trkpt lat="-20.31390304207512" lon="119.9009202564498"><ele>122.0</ele><time>2026-04-24T00:48:08Z</time></trkpt><trkpt lat="-20.314142803197544" lon="119.90099370761838"><ele>123.5</ele><time>2026-04-24T00:48:09Z</time></trkpt><trkpt lat="-20.314378551757066" lon="119.90106975131485"><ele>125.0</ele><time>2026-04-24T00:48:10Z</time></trkpt><trkpt lat="-20.31461174706958" lon="119.90114653539885"><ele>125.0</ele><time>2026-04-24T00:48:11Z</time></trkpt><trkpt lat="-20.314842632331704" lon="119.90122452850822"><ele>125.0</ele><time>2026-04-24T00:48:12Z</time></trkpt><trkpt lat="-20.31507833924575" lon="119.90130436288051"><ele>125.0</ele><time>2026-04-24T00:48:13Z</time></trkpt><trkpt lat="-20.315320290023433" lon="119.90138339780813"><ele>125.0</ele><time>2026-04-24T00:48:14Z</time></trkpt><trkpt lat="-20.315562122446625" lon="119.90146314487359"><ele>126.5</ele><time>2026-04-24T00:48:15Z</time></trkpt><trkpt lat="-20.31580893202305" lon="119.90154535760651"><ele>128.0</ele><time>2026-04-24T00:48:16Z</time></trkpt><trkpt lat="-20.316052418651118" lon="119.90162628467588"><ele>128.0</ele><time>2026-04-24T00:48:17Z</time></trkpt><trkpt lat="-20.316297991485506" lon="119.90171210367964"><ele>128.0</ele><time>2026-04-24T00:48:18Z</time></trkpt><trkpt lat="-20.316542063835268" lon="119.90179411868999"><ele>127.5</ele><time>2026-04-24T00:48:19Z</time></trkpt><trkpt lat="-20.31678735437497" lon="119.90187880383003"><ele>127.0</ele><time>2026-04-24T00:48:20Z</time></trkpt><trkpt lat="-20.31703520428832" lon="119.90196468743886"><ele>127.5</ele><time>2026-04-24T00:48:21Z</time></trkpt><trkpt lat="-20.31727838382107" lon="119.90204354725302"><ele>128.0</ele><time>2026-04-24T00:48:22Z</time></trkpt><trkpt lat="-20.3175255743739" lon="119.90212312729383"><ele>128.0</ele><time>2026-04-24T00:48:23Z</time></trkpt><trkpt lat="-20.31777991464783" lon="119.90220622990654"><ele>128.0</ele><time>2026-04-24T00:48:24Z</time></trkpt><trkpt lat="-20.31803416707156" lon="119.90228580622166"><ele>128.5</ele><time>2026-04-24T00:48:25Z</time></trkpt><trkpt lat="-20.318286166891458" lon="119.90236457423867"><ele>129.0</ele><time>2026-04-24T00:48:26Z</time></trkpt><trkpt lat="-20.318535360702043" lon="119.9024407907358"><ele>129.0</ele><time>2026-04-24T00:48:27Z</time></trkpt><trkpt lat="-20.318786662608215" lon="119.90251942462609"><ele>129.0</ele><time>2026-04-24T00:48:28Z</time></trkpt><trkpt lat="-20.31903339752092" lon="119.90259832439659"><ele>128.5</ele><time>2026-04-24T00:48:29Z</time></trkpt><trkpt lat="-20.319277324227045" lon="119.90267753623337"><ele>128.0</ele><time>2026-04-24T00:48:30Z</time></trkpt><trkpt lat="-20.319519968426743" lon="119.9027549088673"><ele>128.0</ele><time>2026-04-24T00:48:31Z</time></trkpt><trkpt lat="-20.319766547443557" lon="119.90283478738267"><ele>128.0</ele><time>2026-04-24T00:48:32Z</time></trkpt><trkpt lat="-20.32001253931153" lon="119.9029160891232"><ele>128.0</ele><time>2026-04-24T00:48:33Z</time></trkpt><trkpt lat="-20.320266431433243" lon="119.9030010811442"><ele>128.0</ele><time>2026-04-24T00:48:34Z</time></trkpt><trkpt lat="-20.320526808382432" lon="119.90308547857052"><ele>127.5</ele><time>2026-04-24T00:48:35Z</time></trkpt><trkpt lat="-20.32079006466529" lon="119.90317457024338"><ele>127.0</ele><time>2026-04-24T00:48:36Z</time></trkpt><trkpt lat="-20.32105441925545" lon="119.9032684333764"><ele>127.0</ele><time>2026-04-24T00:48:37Z</time></trkpt><trkpt lat="-20.321314322169798" lon="119.90335941294312"><ele>127.0</ele><time>2026-04-24T00:48:38Z</time></trkpt><trkpt lat="-20.321578053417895" lon="119.90345429142504"><ele>127.0</ele><time>2026-04-24T00:48:39Z</time></trkpt><trkpt lat="-20.32184171797473" lon="119.90354942962114"><ele>127.0</ele><time>2026-04-24T00:48:40Z</time></trkpt><trkpt lat="-20.32209729602493" lon="119.90364571536163"><ele>127.0</ele><time>2026-04-24T00:48:41Z</time></trkpt><trkpt lat="-20.3223549459523" lon="119.90374208118412"><ele>127.0</ele><time>2026-04-24T00:48:42Z</time></trkpt><trkpt lat="-20.322617017641566" lon="119.90383639874308"><ele>127.0</ele><time>2026-04-24T00:48:43Z</time></trkpt><trkpt lat="-20.32287955608469" lon="119.90392874136545"><ele>127.0</ele><time>2026-04-24T00:48:44Z</time></trkpt><trkpt lat="-20.32314628876775" lon="119.90401701099383"><ele>127.0</ele><time>2026-04-24T00:48:45Z</time></trkpt><trkpt lat="-20.32341638390277" lon="119.90410898936057"><ele>127.0</ele><time>2026-04-24T00:48:46Z</time></trkpt><trkpt lat="-20.323686234795836" lon="119.90420297503476"><ele>128.0</ele><time>2026-04-24T00:48:47Z</time></trkpt><trkpt lat="-20.32395553505457" lon="119.90429085578354"><ele>129.0</ele><time>2026-04-24T00:48:48Z</time></trkpt><trkpt lat="-20.324228208425698" lon="119.9043772774464"><ele>129.0</ele><time>2026-04-24T00:48:49Z</time></trkpt><trkpt lat="-20.32449539961547" lon="119.90446108928576"><ele>129.0</ele><time>2026-04-24T00:48:50Z</time></trkpt><trkpt lat="-20.324762746400786" lon="119.90454206129982"><ele>129.0</ele><time>2026-04-24T00:48:51Z</time></trkpt><trkpt lat="-20.32503338788986" lon="119.90462203612367"><ele>129.0</ele><time>2026-04-24T00:48:52Z</time></trkpt><trkpt lat="-20.32530951596414" lon="119.90469529236238"><ele>127.5</ele><time>2026-04-24T00:48:53Z</time></trkpt><trkpt lat="-20.325580255114666" lon="119.90477321432884"><ele>126.0</ele><time>2026-04-24T00:48:54Z</time></trkpt><trkpt lat="-20.325850557096388" lon="119.90485124196975"><ele>126.0</ele><time>2026-04-24T00:48:55Z</time></trkpt><trkpt lat="-20.326123378510175" lon="119.90493307617974"><ele>126.0</ele><time>2026-04-24T00:48:56Z</time></trkpt><trkpt lat="-20.32638570694808" lon="119.9050163141432"><ele>126.5</ele><time>2026-04-24T00:48:57Z</time></trkpt><trkpt lat="-20.326647300395017" lon="119.90510565525521"><ele>127.0</ele><time>2026-04-24T00:48:58Z</time></trkpt><trkpt lat="-20.32690890962233" lon="119.90519455285968"><ele>127.0</ele><time>2026-04-24T00:48:59Z</time></trkpt><trkpt lat="-20.327176256340557" lon="119.9052830540065"><ele>127.0</ele><time>2026-04-24T00:49:00Z</time></trkpt><trkpt lat="-20.327437926664878" lon="119.90536852331292"><ele>126.0</ele><time>2026-04-24T00:49:01Z</time></trkpt><trkpt lat="-20.327704385218972" lon="119.90545815463261"><ele>125.0</ele><time>2026-04-24T00:49:02Z</time></trkpt><trkpt lat="-20.327978010629728" lon="119.90554834767104"><ele>125.0</ele><time>2026-04-24T00:49:03Z</time></trkpt><trkpt lat="-20.328253336081993" lon="119.90563589001397"><ele>125.0</ele><time>2026-04-24T00:49:04Z</time></trkpt><trkpt lat="-20.328528045494554" lon="119.90572477170365"><ele>125.0</ele><time>2026-04-24T00:49:05Z</time></trkpt><trkpt lat="-20.328805885636832" lon="119.9058200684758"><ele>125.0</ele><time>2026-04-24T00:49:06Z</time></trkpt><trkpt lat="-20.329083552492634" lon="119.90591541271529"><ele>125.0</ele><time>2026-04-24T00:49:07Z</time></trkpt><trkpt lat="-20.32935789567378" lon="119.9060080429749"><ele>125.0</ele><time>2026-04-24T00:49:08Z</time></trkpt><trkpt lat="-20.32963768814393" lon="119.90610290893441"><ele>125.0</ele><time>2026-04-24T00:49:09Z</time></trkpt><trkpt lat="-20.329916595337398" lon="119.90620066666635"><ele>125.0</ele><time>2026-04-24T00:49:10Z</time></trkpt><trkpt lat="-20.330192851303234" lon="119.9062974049025"><ele>125.0</ele><time>2026-04-24T00:49:11Z</time></trkpt><trkpt lat="-20.330471042518898" lon="119.90639541130535"><ele>125.0</ele><time>2026-04-24T00:49:12Z</time></trkpt><trkpt lat="-20.330745883380324" lon="119.90649232034775"><ele>124.5</ele><time>2026-04-24T00:49:13Z</time></trkpt><trkpt lat="-20.331020301233654" lon="119.90659035014731"><ele>124.0</ele><time>2026-04-24T00:49:14Z</time></trkpt><trkpt lat="-20.33129616890466" lon="119.90669278992092"><ele>125.0</ele><time>2026-04-24T00:49:15Z</time></trkpt><trkpt lat="-20.331569838581636" lon="119.90679616282684"><ele>126.0</ele><time>2026-04-24T00:49:16Z</time></trkpt><trkpt lat="-20.331843154292244" lon="119.9068967521997"><ele>126.0</ele><time>2026-04-24T00:49:17Z</time></trkpt><trkpt lat="-20.332114530807647" lon="119.90699786155571"><ele>126.0</ele><time>2026-04-24T00:49:18Z</time></trkpt><trkpt lat="-20.332383847710375" lon="119.90709908939331"><ele>126.0</ele><time>2026-04-24T00:49:19Z</time></trkpt><trkpt lat="-20.332651425703475" lon="119.90720025141887"><ele>126.0</ele><time>2026-04-24T00:49:20Z</time></trkpt><trkpt lat="-20.33291001660329" lon="119.90731923003524"><ele>127.0</ele><time>2026-04-24T00:49:21Z</time></trkpt><trkpt lat="-20.33317797665493" lon="119.90742159331285"><ele>128.0</ele><time>2026-04-24T00:49:22Z</time></trkpt><trkpt lat="-20.333448109966806" lon="119.90752388228744"><ele>128.0</ele><time>2026-04-24T00:49:23Z</time></trkpt><trkpt lat="-20.333716393586354" lon="119.90762567803394"><ele>128.0</ele><time>2026-04-24T00:49:24Z</time></trkpt><trkpt lat="-20.333983387882235" lon="119.90772620259851"><ele>128.5</ele><time>2026-04-24T00:49:25Z</time></trkpt><trkpt lat="-20.33425551743353" lon="119.90780690540404"><ele>129.0</ele><time>2026-04-24T00:49:26Z</time></trkpt><trkpt lat="-20.334525976461087" lon="119.90790786115609"><ele>129.5</ele><time>2026-04-24T00:49:27Z</time></trkpt><trkpt lat="-20.334796056338707" lon="119.90800212679099"><ele>130.0</ele><time>2026-04-24T00:49:28Z</time></trkpt><trkpt lat="-20.33507123498792" lon="119.9080837080586"><ele>130.0</ele><time>2026-04-24T00:49:29Z</time></trkpt><trkpt lat="-20.335348663609313" lon="119.90814847258322"><ele>130.0</ele><time>2026-04-24T00:49:30Z</time></trkpt><trkpt lat="-20.33562879118379" lon="119.90819137072467"><ele>130.0</ele><time>2026-04-24T00:49:31Z</time></trkpt><trkpt lat="-20.335914304522923" lon="119.90821755174662"><ele>130.0</ele><time>2026-04-24T00:49:32Z</time></trkpt><trkpt lat="-20.336206135909283" lon="119.9082301844397"><ele>130.0</ele><time>2026-04-24T00:49:33Z</time></trkpt><trkpt lat="-20.336498420652205" lon="119.90823424295166"><ele>130.0</ele><time>2026-04-24T00:49:34Z</time></trkpt><trkpt lat="-20.336787943865097" lon="119.90824010082626"><ele>130.0</ele><time>2026-04-24T00:49:35Z</time></trkpt><trkpt lat="-20.337080964202844" lon="119.90824775903684"><ele>130.0</ele><time>2026-04-24T00:49:36Z</time></trkpt><trkpt lat="-20.337375350397362" lon="119.908258296441"><ele>130.0</ele><time>2026-04-24T00:49:37Z</time></trkpt><trkpt lat="-20.337664287062065" lon="119.9082681122979"><ele>130.0</ele><time>2026-04-24T00:49:38Z</time></trkpt><trkpt lat="-20.337953829047066" lon="119.90827369547773"><ele>129.5</ele><time>2026-04-24T00:49:39Z</time></trkpt><trkpt lat="-20.33823852339049" lon="119.90827692818351"><ele>129.0</ele><time>2026-04-24T00:49:40Z</time></trkpt><trkpt lat="-20.338524723175865" lon="119.90828029064537"><ele>129.0</ele><time>2026-04-24T00:49:41Z</time></trkpt><trkpt lat="-20.338809823422057" lon="119.90828280806599"><ele>129.0</ele><time>2026-04-24T00:49:42Z</time></trkpt><trkpt lat="-20.33909164562592" lon="119.90828316220758"><ele>128.5</ele><time>2026-04-24T00:49:43Z</time></trkpt><trkpt lat="-20.33937208535563" lon="119.90828435799963"><ele>128.0</ele><time>2026-04-24T00:49:44Z</time></trkpt><trkpt lat="-20.339660733816576" lon="119.90828435699096"><ele>128.0</ele><time>2026-04-24T00:49:45Z</time></trkpt><trkpt lat="-20.339944797993237" lon="119.90828588382801"><ele>128.0</ele><time>2026-04-24T00:49:46Z</time></trkpt><trkpt lat="-20.340224489956263" lon="119.90828562208192"><ele>128.0</ele><time>2026-04-24T00:49:47Z</time></trkpt><trkpt lat="-20.34050057770171" lon="119.9082859201343"><ele>128.0</ele><time>2026-04-24T00:49:48Z</time></trkpt><trkpt lat="-20.340779743811606" lon="119.90828603143842"><ele>127.5</ele><time>2026-04-24T00:49:49Z</time></trkpt><trkpt lat="-20.341061011616045" lon="119.90829216471269"><ele>127.0</ele><time>2026-04-24T00:49:50Z</time></trkpt><trkpt lat="-20.34134251149871" lon="119.90834029144827"><ele>126.5</ele><time>2026-04-24T00:49:51Z</time></trkpt><trkpt lat="-20.341628598826958" lon="119.90839020137558"><ele>126.0</ele><time>2026-04-24T00:49:52Z</time></trkpt><trkpt lat="-20.34191244966061" lon="119.90845943381828"><ele>126.5</ele><time>2026-04-24T00:49:53Z</time></trkpt><trkpt lat="-20.34219017843957" lon="119.9085487074803"><ele>127.0</ele><time>2026-04-24T00:49:54Z</time></trkpt><trkpt lat="-20.34246083147391" lon="119.9086531132844"><ele>127.0</ele><time>2026-04-24T00:49:55Z</time></trkpt><trkpt lat="-20.342737261669093" lon="119.90874216599552"><ele>127.0</ele><time>2026-04-24T00:49:56Z</time></trkpt><trkpt lat="-20.343003219315726" lon="119.90884479927568"><ele>126.0</ele><time>2026-04-24T00:49:57Z</time></trkpt><trkpt lat="-20.34327198365516" lon="119.9089424064483"><ele>125.0</ele><time>2026-04-24T00:49:58Z</time></trkpt><trkpt lat="-20.343524685979023" lon="119.90903958302192"><ele>125.0</ele><time>2026-04-24T00:49:59Z</time></trkpt><trkpt lat="-20.34378239233249" lon="119.90914372696268"><ele>125.0</ele><time>2026-04-24T00:50:00Z</time></trkpt><trkpt lat="-20.344036121853122" lon="119.90924611093833"><ele>125.0</ele><time>2026-04-24T00:50:01Z</time></trkpt><trkpt lat="-20.3442864889391" lon="119.90934325684373"><ele>125.0</ele><time>2026-04-24T00:50:02Z</time></trkpt><trkpt lat="-20.34454674822149" lon="119.9094456268305"><ele>124.5</ele><time>2026-04-24T00:50:03Z</time></trkpt><trkpt lat="-20.344797888581134" lon="119.90954397463442"><ele>124.0</ele><time>2026-04-24T00:50:04Z</time></trkpt><trkpt lat="-20.345043485127636" lon="119.90964184635772"><ele>124.0</ele><time>2026-04-24T00:50:05Z</time></trkpt><trkpt lat="-20.345297959864467" lon="119.90974367316274"><ele>124.0</ele><time>2026-04-24T00:50:06Z</time></trkpt><trkpt lat="-20.34555306368879" lon="119.90984317141924"><ele>123.5</ele><time>2026-04-24T00:50:07Z</time></trkpt><trkpt lat="-20.34580650236045" lon="119.90994482434573"><ele>123.0</ele><time>2026-04-24T00:50:08Z</time></trkpt><trkpt lat="-20.346064845716786" lon="119.91004651081978"><ele>123.5</ele><time>2026-04-24T00:50:09Z</time></trkpt><trkpt lat="-20.346322619883228" lon="119.9101469997142"><ele>124.0</ele><time>2026-04-24T00:50:10Z</time></trkpt><trkpt lat="-20.346576687496803" lon="119.91024469367042"><ele>123.0</ele><time>2026-04-24T00:50:11Z</time></trkpt><trkpt lat="-20.346828427136295" lon="119.91034475035687"><ele>122.0</ele><time>2026-04-24T00:50:12Z</time></trkpt><trkpt lat="-20.34708302480295" lon="119.91044518183209"><ele>122.0</ele><time>2026-04-24T00:50:13Z</time></trkpt><trkpt lat="-20.347335455388833" lon="119.91054472378886"><ele>122.0</ele><time>2026-04-24T00:50:14Z</time></trkpt><trkpt lat="-20.34759249220372" lon="119.91064736572285"><ele>122.0</ele><time>2026-04-24T00:50:15Z</time></trkpt><trkpt lat="-20.34784335076756" lon="119.91074557598864"><ele>122.0</ele><time>2026-04-24T00:50:16Z</time></trkpt><trkpt lat="-20.348094255565787" lon="119.91084561866809"><ele>122.5</ele><time>2026-04-24T00:50:17Z</time></trkpt><trkpt lat="-20.348345191113978" lon="119.91094656230067"><ele>123.0</ele><time>2026-04-24T00:50:18Z</time></trkpt><trkpt lat="-20.348591602620942" lon="119.91104736152293"><ele>123.0</ele><time>2026-04-24T00:50:19Z</time></trkpt><trkpt lat="-20.348838507287848" lon="119.91114475408301"><ele>123.0</ele><time>2026-04-24T00:50:20Z</time></trkpt><trkpt lat="-20.34909613012421" lon="119.9112454169838"><ele>122.5</ele><time>2026-04-24T00:50:21Z</time></trkpt><trkpt lat="-20.34934650012373" lon="119.91134026013513"><ele>122.0</ele><time>2026-04-24T00:50:22Z</time></trkpt><trkpt lat="-20.349602272908054" lon="119.91143834275195"><ele>122.5</ele><time>2026-04-24T00:50:23Z</time></trkpt><trkpt lat="-20.349855434482883" lon="119.91153730664239"><ele>123.0</ele><time>2026-04-24T00:50:24Z</time></trkpt><trkpt lat="-20.350115269392248" lon="119.9116401208222"><ele>123.0</ele><time>2026-04-24T00:50:25Z</time></trkpt><trkpt lat="-20.35036267228095" lon="119.91173404318891"><ele>123.0</ele><time>2026-04-24T00:50:26Z</time></trkpt><trkpt lat="-20.350619314534693" lon="119.91183071628227"><ele>123.0</ele><time>2026-04-24T00:50:27Z</time></trkpt><trkpt lat="-20.350876834122886" lon="119.91193069355974"><ele>123.0</ele><time>2026-04-24T00:50:28Z</time></trkpt><trkpt lat="-20.35113058308862" lon="119.91203198672288"><ele>123.0</ele><time>2026-04-24T00:50:29Z</time></trkpt><trkpt lat="-20.351386386846972" lon="119.91213635773703"><ele>123.0</ele><time>2026-04-24T00:50:30Z</time></trkpt><trkpt lat="-20.35163025607603" lon="119.91223581155838"><ele>123.0</ele><time>2026-04-24T00:50:31Z</time></trkpt><trkpt lat="-20.351860089841036" lon="119.91232288659475"><ele>123.0</ele><time>2026-04-24T00:50:32Z</time></trkpt><trkpt lat="-20.35209252725057" lon="119.91240936774055"><ele>123.0</ele><time>2026-04-24T00:50:33Z</time></trkpt><trkpt lat="-20.352333808634537" lon="119.91250068383818"><ele>123.0</ele><time>2026-04-24T00:50:34Z</time></trkpt><trkpt lat="-20.352574120218257" lon="119.91259143432269"><ele>123.5</ele><time>2026-04-24T00:50:35Z</time></trkpt><trkpt lat="-20.352833767014232" lon="119.91269849638685"><ele>124.0</ele><time>2026-04-24T00:50:36Z</time></trkpt><trkpt lat="-20.353103193031505" lon="119.91281676567122"><ele>124.0</ele><time>2026-04-24T00:50:37Z</time></trkpt><trkpt lat="-20.353324331621295" lon="119.91288330537037"><ele>124.0</ele><time>2026-04-24T00:50:38Z</time></trkpt><trkpt lat="-20.353569874178586" lon="119.91297966426937"><ele>124.0</ele><time>2026-04-24T00:50:39Z</time></trkpt><trkpt lat="-20.353816071483894" lon="119.9130786617552"><ele>124.0</ele><time>2026-04-24T00:50:40Z</time></trkpt><trkpt lat="-20.354060060467997" lon="119.91318027040015"><ele>123.5</ele><time>2026-04-24T00:50:41Z</time></trkpt><trkpt lat="-20.35430124001499" lon="119.91328878375472"><ele>123.0</ele><time>2026-04-24T00:50:42Z</time></trkpt><trkpt lat="-20.35453136333965" lon="119.9134025409397"><ele>124.0</ele><time>2026-04-24T00:50:43Z</time></trkpt><trkpt lat="-20.35476114550161" lon="119.91353105449147"><ele>125.0</ele><time>2026-04-24T00:50:44Z</time></trkpt><trkpt lat="-20.354982259992614" lon="119.91366920554393"><ele>125.0</ele><time>2026-04-24T00:50:45Z</time></trkpt><trkpt lat="-20.355202838714618" lon="119.91382188646391"><ele>125.0</ele><time>2026-04-24T00:50:46Z</time></trkpt><trkpt lat="-20.35541858379194" lon="119.91399341611279"><ele>125.0</ele><time>2026-04-24T00:50:47Z</time></trkpt><trkpt lat="-20.35562825242484" lon="119.91417327419586"><ele>125.0</ele><time>2026-04-24T00:50:48Z</time></trkpt><trkpt lat="-20.355835436124398" lon="119.91434765099808"><ele>125.0</ele><time>2026-04-24T00:50:49Z</time></trkpt><trkpt lat="-20.35604133675618" lon="119.91453222726479"><ele>125.0</ele><time>2026-04-24T00:50:50Z</time></trkpt><trkpt lat="-20.356242285719873" lon="119.91471460141196"><ele>125.5</ele><time>2026-04-24T00:50:51Z</time></trkpt><trkpt lat="-20.35644574249368" lon="119.91489532963884"><ele>126.0</ele><time>2026-04-24T00:50:52Z</time></trkpt><trkpt lat="-20.356650720735587" lon="119.91507646311712"><ele>126.0</ele><time>2026-04-24T00:50:53Z</time></trkpt><trkpt lat="-20.356853315667344" lon="119.91525525852516"><ele>126.0</ele><time>2026-04-24T00:50:54Z</time></trkpt><trkpt lat="-20.357059188730886" lon="119.91543292289033"><ele>125.5</ele><time>2026-04-24T00:50:55Z</time></trkpt><trkpt lat="-20.357261167061086" lon="119.91560849817148"><ele>125.0</ele><time>2026-04-24T00:50:56Z</time></trkpt><trkpt lat="-20.357467288418782" lon="119.91579477013318"><ele>126.0</ele><time>2026-04-24T00:50:57Z</time></trkpt><trkpt lat="-20.357671023547915" lon="119.91597640712477"><ele>127.0</ele><time>2026-04-24T00:50:58Z</time></trkpt><trkpt lat="-20.35787453526254" lon="119.9161580235718"><ele>126.5</ele><time>2026-04-24T00:50:59Z</time></trkpt><trkpt lat="-20.358078575851152" lon="119.91634860176116"><ele>126.0</ele><time>2026-04-24T00:51:00Z</time></trkpt><trkpt lat="-20.35828444761593" lon="119.91653809254885"><ele>126.0</ele><time>2026-04-24T00:51:01Z</time></trkpt><trkpt lat="-20.358490144294066" lon="119.91672688684831"><ele>126.0</ele><time>2026-04-24T00:51:02Z</time></trkpt><trkpt lat="-20.35869571528523" lon="119.91691711061956"><ele>126.5</ele><time>2026-04-24T00:51:03Z</time></trkpt><trkpt lat="-20.35890135635099" lon="119.91710629235966"><ele>127.0</ele><time>2026-04-24T00:51:04Z</time></trkpt><trkpt lat="-20.359107511487352" lon="119.91729430564928"><ele>127.0</ele><time>2026-04-24T00:51:05Z</time></trkpt><trkpt lat="-20.35931338359551" lon="119.91749060361767"><ele>127.0</ele><time>2026-04-24T00:51:06Z</time></trkpt><trkpt lat="-20.35952140488273" lon="119.91767887208087"><ele>127.5</ele><time>2026-04-24T00:51:07Z</time></trkpt><trkpt lat="-20.35973124219848" lon="119.91786925551853"><ele>128.0</ele><time>2026-04-24T00:51:08Z</time></trkpt><trkpt lat="-20.35994154917877" lon="119.9180591559387"><ele>128.0</ele><time>2026-04-24T00:51:09Z</time></trkpt><trkpt lat="-20.36015379011233" lon="119.91825207795813"><ele>128.0</ele><time>2026-04-24T00:51:10Z</time></trkpt><trkpt lat="-20.360374256056094" lon="119.91843780758835"><ele>128.0</ele><time>2026-04-24T00:51:11Z</time></trkpt><trkpt lat="-20.360590140323055" lon="119.91863136758904"><ele>128.0</ele><time>2026-04-24T00:51:12Z</time></trkpt><trkpt lat="-20.360804469057893" lon="119.91882252825951"><ele>128.0</ele><time>2026-04-24T00:51:13Z</time></trkpt><trkpt lat="-20.36101999875987" lon="119.91901428441264"><ele>128.0</ele><time>2026-04-24T00:51:14Z</time></trkpt><trkpt lat="-20.36123609387937" lon="119.91920226087758"><ele>128.5</ele><time>2026-04-24T00:51:15Z</time></trkpt><trkpt lat="-20.36144671173142" lon="119.91939416470188"><ele>129.0</ele><time>2026-04-24T00:51:16Z</time></trkpt><trkpt lat="-20.361661837918884" lon="119.91958212275668"><ele>129.0</ele><time>2026-04-24T00:51:17Z</time></trkpt><trkpt lat="-20.36187289243163" lon="119.91977070862812"><ele>129.0</ele><time>2026-04-24T00:51:18Z</time></trkpt><trkpt lat="-20.362085047597287" lon="119.91996110720639"><ele>130.0</ele><time>2026-04-24T00:51:19Z</time></trkpt><trkpt lat="-20.362300110948013" lon="119.920156028747"><ele>131.0</ele><time>2026-04-24T00:51:20Z</time></trkpt><trkpt lat="-20.362513394275883" lon="119.92034823169722"><ele>131.0</ele><time>2026-04-24T00:51:21Z</time></trkpt><trkpt lat="-20.362725505306727" lon="119.92053673548195"><ele>131.0</ele><time>2026-04-24T00:51:22Z</time></trkpt><trkpt lat="-20.362937178958678" lon="119.92072600278132"><ele>130.5</ele><time>2026-04-24T00:51:23Z</time></trkpt><trkpt lat="-20.3631459265037" lon="119.92092232976314"><ele>130.0</ele><time>2026-04-24T00:51:24Z</time></trkpt><trkpt lat="-20.36334926036147" lon="119.92111500387863"><ele>130.0</ele><time>2026-04-24T00:51:25Z</time></trkpt><trkpt lat="-20.363550261346457" lon="119.92132022784158"><ele>130.0</ele><time>2026-04-24T00:51:26Z</time></trkpt><trkpt lat="-20.363747592684895" lon="119.92152350032045"><ele>131.0</ele><time>2026-04-24T00:51:27Z</time></trkpt><trkpt lat="-20.363944819781008" lon="119.92172471418256"><ele>132.0</ele><time>2026-04-24T00:51:28Z</time></trkpt><trkpt lat="-20.364142900576923" lon="119.92193130220434"><ele>132.0</ele><time>2026-04-24T00:51:29Z</time></trkpt><trkpt lat="-20.364341760523995" lon="119.92213669980309"><ele>132.0</ele><time>2026-04-24T00:51:30Z</time></trkpt><trkpt lat="-20.36454216586869" lon="119.92234048213972"><ele>132.0</ele><time>2026-04-24T00:51:31Z</time></trkpt><trkpt lat="-20.364743681269506" lon="119.92254876926324"><ele>132.0</ele><time>2026-04-24T00:51:32Z</time></trkpt><trkpt lat="-20.36494050059758" lon="119.9227474709766"><ele>132.0</ele><time>2026-04-24T00:51:33Z</time></trkpt><trkpt lat="-20.36513824747702" lon="119.92295071817033"><ele>132.0</ele><time>2026-04-24T00:51:34Z</time></trkpt><trkpt lat="-20.36533288842206" lon="119.92314598540776"><ele>132.5</ele><time>2026-04-24T00:51:35Z</time></trkpt><trkpt lat="-20.365530694063885" lon="119.92334753795718"><ele>133.0</ele><time>2026-04-24T00:51:36Z</time></trkpt><trkpt lat="-20.365723937728433" lon="119.92354457705383"><ele>133.0</ele><time>2026-04-24T00:51:37Z</time></trkpt><trkpt lat="-20.3659178064696" lon="119.92374381392867"><ele>133.0</ele><time>2026-04-24T00:51:38Z</time></trkpt><trkpt lat="-20.36611605636699" lon="119.9239414722349"><ele>133.0</ele><time>2026-04-24T00:51:39Z</time></trkpt><trkpt lat="-20.366314366328798" lon="119.92414266848134"><ele>133.0</ele><time>2026-04-24T00:51:40Z</time></trkpt><trkpt lat="-20.366513349515223" lon="119.92434247358008"><ele>133.5</ele><time>2026-04-24T00:51:41Z</time></trkpt><trkpt lat="-20.366709915550192" lon="119.92454036811041"><ele>134.0</ele><time>2026-04-24T00:51:42Z</time></trkpt><trkpt lat="-20.366906764463405" lon="119.92474269230408"><ele>134.0</ele><time>2026-04-24T00:51:43Z</time></trkpt><trkpt lat="-20.367100890479133" lon="119.92494267856694"><ele>134.0</ele><time>2026-04-24T00:51:44Z</time></trkpt><trkpt lat="-20.36729246752261" lon="119.92515212280897"><ele>133.5</ele><time>2026-04-24T00:51:45Z</time></trkpt><trkpt lat="-20.367482681882233" lon="119.92535933569502"><ele>133.0</ele><time>2026-04-24T00:51:46Z</time></trkpt><trkpt lat="-20.367669379946093" lon="119.92556010306727"><ele>133.0</ele><time>2026-04-24T00:51:47Z</time></trkpt><trkpt lat="-20.36785133711388" lon="119.9257765973508"><ele>133.0</ele><time>2026-04-24T00:51:48Z</time></trkpt><trkpt lat="-20.368027118536585" lon="119.92598685000647"><ele>133.5</ele><time>2026-04-24T00:51:49Z</time></trkpt><trkpt lat="-20.368205090689436" lon="119.92620113962575"><ele>134.0</ele><time>2026-04-24T00:51:50Z</time></trkpt><trkpt lat="-20.368390083891637" lon="119.9264117642273"><ele>134.0</ele><time>2026-04-24T00:51:51Z</time></trkpt><trkpt lat="-20.36857601974393" lon="119.92662488510594"><ele>134.0</ele><time>2026-04-24T00:51:52Z</time></trkpt><trkpt lat="-20.368764075546085" lon="119.92683004973492"><ele>134.5</ele><time>2026-04-24T00:51:53Z</time></trkpt><trkpt lat="-20.368951112801163" lon="119.92703536002897"><ele>135.0</ele><time>2026-04-24T00:51:54Z</time></trkpt><trkpt lat="-20.36913773892032" lon="119.92724361162153"><ele>135.0</ele><time>2026-04-24T00:51:55Z</time></trkpt><trkpt lat="-20.369321765302683" lon="119.9274528245736"><ele>135.0</ele><time>2026-04-24T00:51:56Z</time></trkpt><trkpt lat="-20.369504617796878" lon="119.927660324443"><ele>135.5</ele><time>2026-04-24T00:51:57Z</time></trkpt><trkpt lat="-20.369690510654" lon="119.92786889274008"><ele>136.0</ele><time>2026-04-24T00:51:58Z</time></trkpt><trkpt lat="-20.369873908863777" lon="119.92807641786366"><ele>136.0</ele><time>2026-04-24T00:51:59Z</time></trkpt><trkpt lat="-20.370058074529748" lon="119.92828376583353"><ele>136.0</ele><time>2026-04-24T00:52:00Z</time></trkpt><trkpt lat="-20.370243220156212" lon="119.92848520626521"><ele>136.5</ele><time>2026-04-24T00:52:01Z</time></trkpt><trkpt lat="-20.370430356387352" lon="119.92869247986371"><ele>137.0</ele><time>2026-04-24T00:52:02Z</time></trkpt><trkpt lat="-20.37061810643302" lon="119.9288984065965"><ele>137.0</ele><time>2026-04-24T00:52:03Z</time></trkpt><trkpt lat="-20.370803928413057" lon="119.92910642705353"><ele>137.0</ele><time>2026-04-24T00:52:04Z</time></trkpt><trkpt lat="-20.37098898178632" lon="119.92930964152445"><ele>137.0</ele><time>2026-04-24T00:52:05Z</time></trkpt><trkpt lat="-20.371175033803713" lon="119.92951322772748"><ele>137.0</ele><time>2026-04-24T00:52:06Z</time></trkpt><trkpt lat="-20.371363059598018" lon="119.92971276778242"><ele>137.0</ele><time>2026-04-24T00:52:07Z</time></trkpt><trkpt lat="-20.371552813959415" lon="119.92992180671447"><ele>137.0</ele><time>2026-04-24T00:52:08Z</time></trkpt><trkpt lat="-20.371744197152555" lon="119.93012960015305"><ele>137.5</ele><time>2026-04-24T00:52:09Z</time></trkpt><trkpt lat="-20.371922444957175" lon="119.93033164454455"><ele>138.0</ele><time>2026-04-24T00:52:10Z</time></trkpt><trkpt lat="-20.3720840832815" lon="119.93052091244816"><ele>138.5</ele><time>2026-04-24T00:52:11Z</time></trkpt><trkpt lat="-20.372251778012657" lon="119.93071329618314"><ele>139.0</ele><time>2026-04-24T00:52:12Z</time></trkpt><trkpt lat="-20.372420679702852" lon="119.93090172667931"><ele>140.0</ele><time>2026-04-24T00:52:13Z</time></trkpt><trkpt lat="-20.372594507347692" lon="119.93109203691004"><ele>141.0</ele><time>2026-04-24T00:52:14Z</time></trkpt><trkpt lat="-20.372768696776603" lon="119.93128355720741"><ele>141.0</ele><time>2026-04-24T00:52:15Z</time></trkpt><trkpt lat="-20.372947304261242" lon="119.93148214836978"><ele>141.0</ele><time>2026-04-24T00:52:16Z</time></trkpt><trkpt lat="-20.373121933271747" lon="119.93166895183539"><ele>140.5</ele><time>2026-04-24T00:52:17Z</time></trkpt><trkpt lat="-20.373294432655662" lon="119.93185676267684"><ele>140.0</ele><time>2026-04-24T00:52:18Z</time></trkpt><trkpt lat="-20.373476755412593" lon="119.93205856798885"><ele>140.0</ele><time>2026-04-24T00:52:19Z</time></trkpt><trkpt lat="-20.373659466435722" lon="119.93225680811094"><ele>140.0</ele><time>2026-04-24T00:52:20Z</time></trkpt><trkpt lat="-20.373839603564182" lon="119.93245594854197"><ele>141.0</ele><time>2026-04-24T00:52:21Z</time></trkpt><trkpt lat="-20.374023068702755" lon="119.93265839323777"><ele>142.0</ele><time>2026-04-24T00:52:22Z</time></trkpt><trkpt lat="-20.374210065233722" lon="119.93286424947627"><ele>142.0</ele><time>2026-04-24T00:52:23Z</time></trkpt><trkpt lat="-20.374394091112464" lon="119.93306943158782"><ele>142.0</ele><time>2026-04-24T00:52:24Z</time></trkpt><trkpt lat="-20.37458104712355" lon="119.9332780316123"><ele>142.5</ele><time>2026-04-24T00:52:25Z</time></trkpt><trkpt lat="-20.374763625682398" lon="119.9334822433814"><ele>143.0</ele><time>2026-04-24T00:52:26Z</time></trkpt><trkpt lat="-20.374952571144416" lon="119.93369091205332"><ele>143.0</ele><time>2026-04-24T00:52:27Z</time></trkpt><trkpt lat="-20.375134918488687" lon="119.93389719324897"><ele>143.0</ele><time>2026-04-24T00:52:28Z</time></trkpt><trkpt lat="-20.375322105909067" lon="119.93409731222197"><ele>143.5</ele><time>2026-04-24T00:52:29Z</time></trkpt><trkpt lat="-20.3755096483453" lon="119.93429680486526"><ele>144.0</ele><time>2026-04-24T00:52:30Z</time></trkpt><trkpt lat="-20.375687090800245" lon="119.93449230147999"><ele>144.0</ele><time>2026-04-24T00:52:31Z</time></trkpt><trkpt lat="-20.3758620139458" lon="119.93468770265687"><ele>144.0</ele><time>2026-04-24T00:52:32Z</time></trkpt><trkpt lat="-20.37603787811483" lon="119.9348830964645"><ele>144.5</ele><time>2026-04-24T00:52:33Z</time></trkpt><trkpt lat="-20.376212703052797" lon="119.93507717346127"><ele>145.0</ele><time>2026-04-24T00:52:34Z</time></trkpt><trkpt lat="-20.376392350450057" lon="119.93527629171687"><ele>145.0</ele><time>2026-04-24T00:52:35Z</time></trkpt><trkpt lat="-20.37657617061338" lon="119.93547967299138"><ele>145.0</ele><time>2026-04-24T00:52:36Z</time></trkpt><trkpt lat="-20.376759955180027" lon="119.93568640879279"><ele>145.5</ele><time>2026-04-24T00:52:37Z</time></trkpt><trkpt lat="-20.376948119160442" lon="119.93589664830726"><ele>146.0</ele><time>2026-04-24T00:52:38Z</time></trkpt><trkpt lat="-20.377134558060995" lon="119.93610415444739"><ele>147.0</ele><time>2026-04-24T00:52:39Z</time></trkpt><trkpt lat="-20.37732549671841" lon="119.93632132765345"><ele>148.0</ele><time>2026-04-24T00:52:40Z</time></trkpt><trkpt lat="-20.377512970154086" lon="119.93653225688671"><ele>148.0</ele><time>2026-04-24T00:52:41Z</time></trkpt><trkpt lat="-20.377706215506006" lon="119.93674620235662"><ele>148.0</ele><time>2026-04-24T00:52:42Z</time></trkpt><trkpt lat="-20.377897600704237" lon="119.9369555624775"><ele>148.0</ele><time>2026-04-24T00:52:43Z</time></trkpt><trkpt lat="-20.378089470006707" lon="119.93716951199264"><ele>148.0</ele><time>2026-04-24T00:52:44Z</time></trkpt><trkpt lat="-20.378279875801404" lon="119.93738146964591"><ele>148.5</ele><time>2026-04-24T00:52:45Z</time></trkpt><trkpt lat="-20.378471357816785" lon="119.93759335008622"><ele>149.0</ele><time>2026-04-24T00:52:46Z</time></trkpt><trkpt lat="-20.378659637602055" lon="119.93780167265696"><ele>149.0</ele><time>2026-04-24T00:52:47Z</time></trkpt><trkpt lat="-20.37885012021456" lon="119.9380107278414"><ele>149.0</ele><time>2026-04-24T00:52:48Z</time></trkpt><trkpt lat="-20.37903986902693" lon="119.93821824638653"><ele>149.5</ele><time>2026-04-24T00:52:49Z</time></trkpt><trkpt lat="-20.379233112090365" lon="119.93842880701915"><ele>150.0</ele><time>2026-04-24T00:52:50Z</time></trkpt><trkpt lat="-20.379427834024156" lon="119.93864215363264"><ele>150.0</ele><time>2026-04-24T00:52:51Z</time></trkpt><trkpt lat="-20.37962128025245" lon="119.93885158326391"><ele>150.0</ele><time>2026-04-24T00:52:52Z</time></trkpt><trkpt lat="-20.379813255503766" lon="119.93906838125919"><ele>150.5</ele><time>2026-04-24T00:52:53Z</time></trkpt><trkpt lat="-20.380003412249657" lon="119.93927026286468"><ele>151.0</ele><time>2026-04-24T00:52:54Z</time></trkpt><trkpt lat="-20.380194562056133" lon="119.93948291442082"><ele>151.0</ele><time>2026-04-24T00:52:55Z</time></trkpt><trkpt lat="-20.38038412740396" lon="119.93969082300119"><ele>151.0</ele><time>2026-04-24T00:52:56Z</time></trkpt><trkpt lat="-20.38057456588704" lon="119.93989895987468"><ele>151.0</ele><time>2026-04-24T00:52:57Z</time></trkpt><trkpt lat="-20.380765819257302" lon="119.9401056554252"><ele>151.0</ele><time>2026-04-24T00:52:58Z</time></trkpt><trkpt lat="-20.380959002132823" lon="119.94030898300967"><ele>151.0</ele><time>2026-04-24T00:52:59Z</time></trkpt><trkpt lat="-20.381154976950672" lon="119.9405166794044"><ele>151.0</ele><time>2026-04-24T00:53:00Z</time></trkpt><trkpt lat="-20.381347902716506" lon="119.94072428200623"><ele>152.0</ele><time>2026-04-24T00:53:01Z</time></trkpt><trkpt lat="-20.3815346798952" lon="119.94092509312635"><ele>153.0</ele><time>2026-04-24T00:53:02Z</time></trkpt><trkpt lat="-20.381710485163897" lon="119.94111197489518"><ele>153.0</ele><time>2026-04-24T00:53:03Z</time></trkpt><trkpt lat="-20.381883065742905" lon="119.94129036995793"><ele>153.0</ele><time>2026-04-24T00:53:04Z</time></trkpt><trkpt lat="-20.38205998406944" lon="119.94147316707725"><ele>153.0</ele><time>2026-04-24T00:53:05Z</time></trkpt><trkpt lat="-20.382246730577744" lon="119.9416569930247"><ele>153.0</ele><time>2026-04-24T00:53:06Z</time></trkpt><trkpt lat="-20.38244112622628" lon="119.94184073203255"><ele>152.5</ele><time>2026-04-24T00:53:07Z</time></trkpt><trkpt lat="-20.382634781035083" lon="119.94202674022767"><ele>152.0</ele><time>2026-04-24T00:53:08Z</time></trkpt><trkpt lat="-20.382828001636227" lon="119.94221921506332"><ele>152.0</ele><time>2026-04-24T00:53:09Z</time></trkpt><trkpt lat="-20.383018655842935" lon="119.94241422005767"><ele>152.0</ele><time>2026-04-24T00:53:10Z</time></trkpt><trkpt lat="-20.383207125959157" lon="119.94260760344427"><ele>150.5</ele><time>2026-04-24T00:53:11Z</time></trkpt><trkpt lat="-20.38339046582308" lon="119.94279843529748"><ele>149.0</ele><time>2026-04-24T00:53:12Z</time></trkpt><trkpt lat="-20.38356209691141" lon="119.9429802996138"><ele>149.0</ele><time>2026-04-24T00:53:13Z</time></trkpt><trkpt lat="-20.383719464120013" lon="119.94316066440865"><ele>149.0</ele><time>2026-04-24T00:53:14Z</time></trkpt><trkpt lat="-20.383863812853996" lon="119.94335239879832"><ele>149.0</ele><time>2026-04-24T00:53:15Z</time></trkpt><trkpt lat="-20.38399779569511" lon="119.94356039824694"><ele>149.0</ele><time>2026-04-24T00:53:16Z</time></trkpt><trkpt lat="-20.38411515775276" lon="119.94378412108483"><ele>149.0</ele><time>2026-04-24T00:53:17Z</time></trkpt><trkpt lat="-20.384204917308335" lon="119.94401866805104"><ele>149.0</ele><time>2026-04-24T00:53:18Z</time></trkpt><trkpt lat="-20.38427207015329" lon="119.94427013029227"><ele>148.5</ele><time>2026-04-24T00:53:19Z</time></trkpt><trkpt lat="-20.384314793878175" lon="119.94453805713282"><ele>148.0</ele><time>2026-04-24T00:53:20Z</time></trkpt><trkpt lat="-20.38434284704798" lon="119.94482323783646"><ele>147.5</ele><time>2026-04-24T00:53:21Z</time></trkpt><trkpt lat="-20.384358375141296" lon="119.94511255655763"><ele>147.0</ele><time>2026-04-24T00:53:22Z</time></trkpt><trkpt lat="-20.38436207873804" lon="119.9454059041948"><ele>147.0</ele><time>2026-04-24T00:53:23Z</time></trkpt><trkpt lat="-20.384363534674005" lon="119.94570000346413"><ele>147.0</ele><time>2026-04-24T00:53:24Z</time></trkpt><trkpt lat="-20.38436416608506" lon="119.94599965977837"><ele>146.5</ele><time>2026-04-24T00:53:25Z</time></trkpt><trkpt lat="-20.38436750836846" lon="119.94629775376691"><ele>146.0</ele><time>2026-04-24T00:53:26Z</time></trkpt><trkpt lat="-20.384373324733378" lon="119.94659786568411"><ele>145.0</ele><time>2026-04-24T00:53:27Z</time></trkpt><trkpt lat="-20.384376629998435" lon="119.94690236926839"><ele>144.0</ele><time>2026-04-24T00:53:28Z</time></trkpt><trkpt lat="-20.384380157068446" lon="119.94720752302358"><ele>144.0</ele><time>2026-04-24T00:53:29Z</time></trkpt><trkpt lat="-20.38438796348397" lon="119.94751054501855"><ele>144.0</ele><time>2026-04-24T00:53:30Z</time></trkpt><trkpt lat="-20.384395108913218" lon="119.94781691083327"><ele>144.0</ele><time>2026-04-24T00:53:31Z</time></trkpt><trkpt lat="-20.38440336232562" lon="119.94811642047735"><ele>144.0</ele><time>2026-04-24T00:53:32Z</time></trkpt><trkpt lat="-20.38441210956938" lon="119.94842386970768"><ele>143.5</ele><time>2026-04-24T00:53:33Z</time></trkpt><trkpt lat="-20.384417813836286" lon="119.94873478154804"><ele>143.0</ele><time>2026-04-24T00:53:34Z</time></trkpt><trkpt lat="-20.38442451074361" lon="119.94904443177288"><ele>142.5</ele><time>2026-04-24T00:53:35Z</time></trkpt><trkpt lat="-20.38443311527887" lon="119.9493495464375"><ele>142.0</ele><time>2026-04-24T00:53:36Z</time></trkpt><trkpt lat="-20.384441147346188" lon="119.94966110900758"><ele>142.0</ele><time>2026-04-24T00:53:37Z</time></trkpt><trkpt lat="-20.38444790390152" lon="119.94996891574833"><ele>142.0</ele><time>2026-04-24T00:53:38Z</time></trkpt><trkpt lat="-20.38445168127822" lon="119.95027937986058"><ele>142.0</ele><time>2026-04-24T00:53:39Z</time></trkpt><trkpt lat="-20.384458061480238" lon="119.95058761263638"><ele>142.0</ele><time>2026-04-24T00:53:40Z</time></trkpt><trkpt lat="-20.384465041292582" lon="119.95089188592756"><ele>141.5</ele><time>2026-04-24T00:53:41Z</time></trkpt><trkpt lat="-20.384470107952765" lon="119.95120571899297"><ele>141.0</ele><time>2026-04-24T00:53:42Z</time></trkpt><trkpt lat="-20.384474268728138" lon="119.95151645322846"><ele>140.5</ele><time>2026-04-24T00:53:43Z</time></trkpt><trkpt lat="-20.38448277042647" lon="119.95182286467964"><ele>140.0</ele><time>2026-04-24T00:53:44Z</time></trkpt><trkpt lat="-20.384489827963993" lon="119.95213625159663"><ele>140.0</ele><time>2026-04-24T00:53:45Z</time></trkpt><trkpt lat="-20.38449870309399" lon="119.95244307813473"><ele>140.0</ele><time>2026-04-24T00:53:46Z</time></trkpt><trkpt lat="-20.384504609271357" lon="119.9527526156235"><ele>140.0</ele><time>2026-04-24T00:53:47Z</time></trkpt><trkpt lat="-20.384511057018262" lon="119.95306041362022"><ele>140.0</ele><time>2026-04-24T00:53:48Z</time></trkpt><trkpt lat="-20.38451608594509" lon="119.95337539119541"><ele>139.5</ele><time>2026-04-24T00:53:49Z</time></trkpt><trkpt lat="-20.38452248837092" lon="119.95368865830696"><ele>139.0</ele><time>2026-04-24T00:53:50Z</time></trkpt><trkpt lat="-20.384530377221314" lon="119.95400172243043"><ele>138.5</ele><time>2026-04-24T00:53:51Z</time></trkpt><trkpt lat="-20.38453752518618" lon="119.95431190568617"><ele>138.0</ele><time>2026-04-24T00:53:52Z</time></trkpt><trkpt lat="-20.384545142222038" lon="119.95462080036772"><ele>138.0</ele><time>2026-04-24T00:53:53Z</time></trkpt><trkpt lat="-20.384553466060716" lon="119.95493116534371"><ele>138.0</ele><time>2026-04-24T00:53:54Z</time></trkpt><trkpt lat="-20.384564299520644" lon="119.9552379211213"><ele>138.0</ele><time>2026-04-24T00:53:55Z</time></trkpt><trkpt lat="-20.38457913057638" lon="119.95554243006613"><ele>138.0</ele><time>2026-04-24T00:53:56Z</time></trkpt><trkpt lat="-20.384588063219887" lon="119.95584338095777"><ele>138.0</ele><time>2026-04-24T00:53:57Z</time></trkpt><trkpt lat="-20.384593597287925" lon="119.95615185141166"><ele>138.0</ele><time>2026-04-24T00:53:58Z</time></trkpt><trkpt lat="-20.384598445767352" lon="119.95645340699575"><ele>137.0</ele><time>2026-04-24T00:53:59Z</time></trkpt><trkpt lat="-20.384606485297226" lon="119.95675882403732"><ele>136.0</ele><time>2026-04-24T00:54:00Z</time></trkpt><trkpt lat="-20.38461274055474" lon="119.95706368877747"><ele>136.0</ele><time>2026-04-24T00:54:01Z</time></trkpt><trkpt lat="-20.38461959185589" lon="119.9573714639037"><ele>136.0</ele><time>2026-04-24T00:54:02Z</time></trkpt><trkpt lat="-20.384628288547933" lon="119.9576685946272"><ele>135.5</ele><time>2026-04-24T00:54:03Z</time></trkpt><trkpt lat="-20.384634658495465" lon="119.95797338842526"><ele>135.0</ele><time>2026-04-24T00:54:04Z</time></trkpt><trkpt lat="-20.384641890477962" lon="119.9582792580637"><ele>135.0</ele><time>2026-04-24T00:54:05Z</time></trkpt><trkpt lat="-20.384651159499743" lon="119.95857915072003"><ele>135.0</ele><time>2026-04-24T00:54:06Z</time></trkpt><trkpt lat="-20.38466038681081" lon="119.95888493794833"><ele>135.0</ele><time>2026-04-24T00:54:07Z</time></trkpt><trkpt lat="-20.384669351739504" lon="119.95918769815744"><ele>135.0</ele><time>2026-04-24T00:54:08Z</time></trkpt><trkpt lat="-20.384675879531496" lon="119.95949142078496"><ele>134.0</ele><time>2026-04-24T00:54:09Z</time></trkpt><trkpt lat="-20.38468075721707" lon="119.95979331326859"><ele>133.0</ele><time>2026-04-24T00:54:10Z</time></trkpt><trkpt lat="-20.38468869550135" lon="119.96009282969186"><ele>133.0</ele><time>2026-04-24T00:54:11Z</time></trkpt><trkpt lat="-20.38469420640415" lon="119.96039794700681"><ele>133.0</ele><time>2026-04-24T00:54:12Z</time></trkpt><trkpt lat="-20.384701897215745" lon="119.96069953205887"><ele>133.0</ele><time>2026-04-24T00:54:13Z</time></trkpt><trkpt lat="-20.384711447466092" lon="119.96100161868618"><ele>133.0</ele><time>2026-04-24T00:54:14Z</time></trkpt><trkpt lat="-20.384719517501914" lon="119.96129915981139"><ele>133.0</ele><time>2026-04-24T00:54:15Z</time></trkpt><trkpt lat="-20.384727256488663" lon="119.96159891483823"><ele>133.0</ele><time>2026-04-24T00:54:16Z</time></trkpt><trkpt lat="-20.38473295598517" lon="119.96190242614475"><ele>132.0</ele><time>2026-04-24T00:54:17Z</time></trkpt><trkpt lat="-20.384738677914715" lon="119.9622072630137"><ele>131.0</ele><time>2026-04-24T00:54:18Z</time></trkpt><trkpt lat="-20.384744484479377" lon="119.96251144211799"><ele>132.0</ele><time>2026-04-24T00:54:19Z</time></trkpt><trkpt lat="-20.3847507652139" lon="119.96282446912063"><ele>133.0</ele><time>2026-04-24T00:54:20Z</time></trkpt><trkpt lat="-20.38475347693893" lon="119.96313050105717"><ele>133.5</ele><time>2026-04-24T00:54:21Z</time></trkpt><trkpt lat="-20.384758611442223" lon="119.9634310601954"><ele>134.0</ele><time>2026-04-24T00:54:22Z</time></trkpt><trkpt lat="-20.38476882707199" lon="119.9637285075433"><ele>134.0</ele><time>2026-04-24T00:54:23Z</time></trkpt><trkpt lat="-20.384779329811227" lon="119.96402740704536"><ele>134.0</ele><time>2026-04-24T00:54:24Z</time></trkpt><trkpt lat="-20.384789490996436" lon="119.96432646721125"><ele>133.5</ele><time>2026-04-24T00:54:25Z</time></trkpt><trkpt lat="-20.38479506499069" lon="119.96462079003476"><ele>133.0</ele><time>2026-04-24T00:54:26Z</time></trkpt><trkpt lat="-20.384803009791398" lon="119.96492341414604"><ele>132.5</ele><time>2026-04-24T00:54:27Z</time></trkpt><trkpt lat="-20.384815159680656" lon="119.96521466142718"><ele>132.0</ele><time>2026-04-24T00:54:28Z</time></trkpt><trkpt lat="-20.38481861775319" lon="119.96551838925265"><ele>132.0</ele><time>2026-04-24T00:54:29Z</time></trkpt><trkpt lat="-20.384821491622365" lon="119.96580509295191"><ele>132.0</ele><time>2026-04-24T00:54:30Z</time></trkpt><trkpt lat="-20.384831483976527" lon="119.96611484580356"><ele>132.0</ele><time>2026-04-24T00:54:31Z</time></trkpt><trkpt lat="-20.384835671521614" lon="119.96641497494811"><ele>132.0</ele><time>2026-04-24T00:54:32Z</time></trkpt><trkpt lat="-20.384839361636775" lon="119.96671338847229"><ele>132.5</ele><time>2026-04-24T00:54:33Z</time></trkpt><trkpt lat="-20.384841831102932" lon="119.96702056204408"><ele>133.0</ele><time>2026-04-24T00:54:34Z</time></trkpt><trkpt lat="-20.384845649662367" lon="119.96732325704332"><ele>132.0</ele><time>2026-04-24T00:54:35Z</time></trkpt><trkpt lat="-20.384851690028967" lon="119.96763397767465"><ele>131.0</ele><time>2026-04-24T00:54:36Z</time></trkpt><trkpt lat="-20.38485797631642" lon="119.96793489453512"><ele>131.0</ele><time>2026-04-24T00:54:37Z</time></trkpt><trkpt lat="-20.384866114168318" lon="119.96823509549863"><ele>131.0</ele><time>2026-04-24T00:54:38Z</time></trkpt><trkpt lat="-20.384876849962865" lon="119.96854212325134"><ele>131.0</ele><time>2026-04-24T00:54:39Z</time></trkpt><trkpt lat="-20.384887293729264" lon="119.968846455591"><ele>131.0</ele><time>2026-04-24T00:54:40Z</time></trkpt><trkpt lat="-20.38489431640731" lon="119.96915006563204"><ele>131.5</ele><time>2026-04-24T00:54:41Z</time></trkpt><trkpt lat="-20.38490244834329" lon="119.96945471879177"><ele>132.0</ele><time>2026-04-24T00:54:42Z</time></trkpt><trkpt lat="-20.38490741022928" lon="119.96976505964265"><ele>131.5</ele><time>2026-04-24T00:54:43Z</time></trkpt><trkpt lat="-20.384912436088797" lon="119.97007471219037"><ele>131.0</ele><time>2026-04-24T00:54:44Z</time></trkpt><trkpt lat="-20.384918709925753" lon="119.97037896435954"><ele>131.0</ele><time>2026-04-24T00:54:45Z</time></trkpt><trkpt lat="-20.384926644609504" lon="119.97068976447575"><ele>131.0</ele><time>2026-04-24T00:54:46Z</time></trkpt><trkpt lat="-20.384934115126416" lon="119.97099982543908"><ele>131.5</ele><time>2026-04-24T00:54:47Z</time></trkpt><trkpt lat="-20.38494102049466" lon="119.9713106264497"><ele>132.0</ele><time>2026-04-24T00:54:48Z</time></trkpt><trkpt lat="-20.384947968952538" lon="119.9716147586537"><ele>132.0</ele><time>2026-04-24T00:54:49Z</time></trkpt><trkpt lat="-20.384953380413762" lon="119.971925837711"><ele>132.0</ele><time>2026-04-24T00:54:50Z</time></trkpt><trkpt lat="-20.384959023005745" lon="119.97223053684628"><ele>131.0</ele><time>2026-04-24T00:54:51Z</time></trkpt><trkpt lat="-20.38496753830212" lon="119.97254306891999"><ele>130.0</ele><time>2026-04-24T00:54:52Z</time></trkpt><trkpt lat="-20.38497876499408" lon="119.97285532054855"><ele>130.0</ele><time>2026-04-24T00:54:53Z</time></trkpt><trkpt lat="-20.384985821667186" lon="119.97316306367657"><ele>130.0</ele><time>2026-04-24T00:54:54Z</time></trkpt><trkpt lat="-20.384991917697075" lon="119.97347896577594"><ele>130.0</ele><time>2026-04-24T00:54:55Z</time></trkpt><trkpt lat="-20.38499873475353" lon="119.97379186922682"><ele>130.0</ele><time>2026-04-24T00:54:56Z</time></trkpt><trkpt lat="-20.38500551408637" lon="119.97410202324714"><ele>130.5</ele><time>2026-04-24T00:54:57Z</time></trkpt><trkpt lat="-20.38501492037101" lon="119.97441123613838"><ele>131.0</ele><time>2026-04-24T00:54:58Z</time></trkpt><trkpt lat="-20.385024356554418" lon="119.97471418531183"><ele>131.0</ele><time>2026-04-24T00:54:59Z</time></trkpt><trkpt lat="-20.38503320755464" lon="119.97501875096614"><ele>131.0</ele><time>2026-04-24T00:55:00Z</time></trkpt><trkpt lat="-20.385040040635023" lon="119.97532763925359"><ele>131.0</ele><time>2026-04-24T00:55:01Z</time></trkpt><trkpt lat="-20.385044868764147" lon="119.97563793987698"><ele>131.0</ele><time>2026-04-24T00:55:02Z</time></trkpt><trkpt lat="-20.385050056621925" lon="119.9759516836381"><ele>131.0</ele><time>2026-04-24T00:55:03Z</time></trkpt><trkpt lat="-20.385057293295628" lon="119.97626216131066"><ele>131.0</ele><time>2026-04-24T00:55:04Z</time></trkpt><trkpt lat="-20.385063974719635" lon="119.97657447730381"><ele>131.5</ele><time>2026-04-24T00:55:05Z</time></trkpt><trkpt lat="-20.385068590268073" lon="119.97688380957543"><ele>132.0</ele><time>2026-04-24T00:55:06Z</time></trkpt><trkpt lat="-20.385073199521628" lon="119.97719429131084"><ele>132.0</ele><time>2026-04-24T00:55:07Z</time></trkpt><trkpt lat="-20.385081781572126" lon="119.97749600653658"><ele>132.0</ele><time>2026-04-24T00:55:08Z</time></trkpt><trkpt lat="-20.38508574716283" lon="119.97780580288367"><ele>132.0</ele><time>2026-04-24T00:55:09Z</time></trkpt><trkpt lat="-20.38509596467663" lon="119.97810403486292"><ele>132.0</ele><time>2026-04-24T00:55:10Z</time></trkpt><trkpt lat="-20.38510165408786" lon="119.97840761192522"><ele>132.0</ele><time>2026-04-24T00:55:11Z</time></trkpt><trkpt lat="-20.38511080454988" lon="119.97870564536082"><ele>132.0</ele><time>2026-04-24T00:55:12Z</time></trkpt><trkpt lat="-20.38511707466007" lon="119.97900511164617"><ele>132.5</ele><time>2026-04-24T00:55:13Z</time></trkpt><trkpt lat="-20.38512383585318" lon="119.97930359703012"><ele>133.0</ele><time>2026-04-24T00:55:14Z</time></trkpt><trkpt lat="-20.385127674514102" lon="119.97960733661769"><ele>133.0</ele><time>2026-04-24T00:55:15Z</time></trkpt><trkpt lat="-20.385137582952567" lon="119.97990620384142"><ele>133.0</ele><time>2026-04-24T00:55:16Z</time></trkpt><trkpt lat="-20.3851474295037" lon="119.98020380923367"><ele>133.0</ele><time>2026-04-24T00:55:17Z</time></trkpt><trkpt lat="-20.385153481144396" lon="119.98050580501274"><ele>133.0</ele><time>2026-04-24T00:55:18Z</time></trkpt><trkpt lat="-20.385163459075997" lon="119.98080586562642"><ele>133.0</ele><time>2026-04-24T00:55:19Z</time></trkpt><trkpt lat="-20.3851641511842" lon="119.98110807549642"><ele>133.0</ele><time>2026-04-24T00:55:20Z</time></trkpt><trkpt lat="-20.385174311807553" lon="119.98140123478332"><ele>133.5</ele><time>2026-04-24T00:55:21Z</time></trkpt><trkpt lat="-20.385179820613732" lon="119.98169697090266"><ele>134.0</ele><time>2026-04-24T00:55:22Z</time></trkpt><trkpt lat="-20.385191128320734" lon="119.98198423359372"><ele>134.0</ele><time>2026-04-24T00:55:23Z</time></trkpt><trkpt lat="-20.38519388505569" lon="119.9822759932566"><ele>134.0</ele><time>2026-04-24T00:55:24Z</time></trkpt><trkpt lat="-20.38520255766641" lon="119.98256354761816"><ele>134.0</ele><time>2026-04-24T00:55:25Z</time></trkpt><trkpt lat="-20.38520794285229" lon="119.98285132951803"><ele>134.0</ele><time>2026-04-24T00:55:26Z</time></trkpt><trkpt lat="-20.385215110464426" lon="119.98313366809683"><ele>134.5</ele><time>2026-04-24T00:55:27Z</time></trkpt><trkpt lat="-20.385223379846668" lon="119.98341761760814"><ele>135.0</ele><time>2026-04-24T00:55:28Z</time></trkpt><trkpt lat="-20.385233551267824" lon="119.98370522297667"><ele>135.0</ele><time>2026-04-24T00:55:29Z</time></trkpt><trkpt lat="-20.385238228885868" lon="119.98398718792349"><ele>135.0</ele><time>2026-04-24T00:55:30Z</time></trkpt><trkpt lat="-20.385242889247166" lon="119.98427275662975"><ele>135.0</ele><time>2026-04-24T00:55:31Z</time></trkpt><trkpt lat="-20.38524715243334" lon="119.98455732654324"><ele>135.0</ele><time>2026-04-24T00:55:32Z</time></trkpt><trkpt lat="-20.385253007625437" lon="119.98484333555034"><ele>134.5</ele><time>2026-04-24T00:55:33Z</time></trkpt><trkpt lat="-20.385261205772505" lon="119.98512910641875"><ele>134.0</ele><time>2026-04-24T00:55:34Z</time></trkpt><trkpt lat="-20.38526744046629" lon="119.98541469340766"><ele>134.0</ele><time>2026-04-24T00:55:35Z</time></trkpt><trkpt lat="-20.38527636207088" lon="119.9857002649607"><ele>134.0</ele><time>2026-04-24T00:55:36Z</time></trkpt><trkpt lat="-20.38528583424532" lon="119.98598284726225"><ele>133.5</ele><time>2026-04-24T00:55:37Z</time></trkpt><trkpt lat="-20.385293258739683" lon="119.98626489579863"><ele>133.0</ele><time>2026-04-24T00:55:38Z</time></trkpt><trkpt lat="-20.385297423813743" lon="119.98654497298796"><ele>134.0</ele><time>2026-04-24T00:55:39Z</time></trkpt><trkpt lat="-20.38529872481755" lon="119.98682401121386"><ele>135.0</ele><time>2026-04-24T00:55:40Z</time></trkpt><trkpt lat="-20.385302569742773" lon="119.98709382632424"><ele>135.0</ele><time>2026-04-24T00:55:41Z</time></trkpt><trkpt lat="-20.38530514920594" lon="119.98737346667797"><ele>135.0</ele><time>2026-04-24T00:55:42Z</time></trkpt><trkpt lat="-20.385313377307273" lon="119.98764979908262"><ele>135.0</ele><time>2026-04-24T00:55:43Z</time></trkpt><trkpt lat="-20.385320158843903" lon="119.98793055483257"><ele>135.0</ele><time>2026-04-24T00:55:44Z</time></trkpt><trkpt lat="-20.385328579868847" lon="119.98820843061948"><ele>135.0</ele><time>2026-04-24T00:55:45Z</time></trkpt><trkpt lat="-20.385333034771428" lon="119.98848367245198"><ele>135.0</ele><time>2026-04-24T00:55:46Z</time></trkpt><trkpt lat="-20.385329775561324" lon="119.98876567135234"><ele>135.0</ele><time>2026-04-24T00:55:47Z</time></trkpt><trkpt lat="-20.385335406142794" lon="119.98903410701243"><ele>135.0</ele><time>2026-04-24T00:55:48Z</time></trkpt><trkpt lat="-20.385344162350552" lon="119.98930942941644"><ele>136.0</ele><time>2026-04-24T00:55:49Z</time></trkpt><trkpt lat="-20.385358332263262" lon="119.98958076967061"><ele>137.0</ele><time>2026-04-24T00:55:50Z</time></trkpt><trkpt lat="-20.38536427434006" lon="119.98985144840105"><ele>136.5</ele><time>2026-04-24T00:55:51Z</time></trkpt><trkpt lat="-20.385370633814652" lon="119.9901274501418"><ele>136.0</ele><time>2026-04-24T00:55:52Z</time></trkpt><trkpt lat="-20.385380425306444" lon="119.99040135757753"><ele>136.0</ele><time>2026-04-24T00:55:53Z</time></trkpt><trkpt lat="-20.38538570840456" lon="119.99067946511266"><ele>136.0</ele><time>2026-04-24T00:55:54Z</time></trkpt><trkpt lat="-20.38538939963174" lon="119.99096279094746"><ele>135.5</ele><time>2026-04-24T00:55:55Z</time></trkpt><trkpt lat="-20.385393834839952" lon="119.99124688284039"><ele>135.0</ele><time>2026-04-24T00:55:56Z</time></trkpt><trkpt lat="-20.38539825105879" lon="119.99153540495527"><ele>135.5</ele><time>2026-04-24T00:55:57Z</time></trkpt><trkpt lat="-20.385401838197296" lon="119.9918284704806"><ele>136.0</ele><time>2026-04-24T00:55:58Z</time></trkpt><trkpt lat="-20.38540213508815" lon="119.99212401800692"><ele>136.0</ele><time>2026-04-24T00:55:59Z</time></trkpt><trkpt lat="-20.38539669779658" lon="119.99241922956672"><ele>136.0</ele><time>2026-04-24T00:56:00Z</time></trkpt><trkpt lat="-20.385392496687107" lon="119.99270920360703"><ele>136.5</ele><time>2026-04-24T00:56:01Z</time></trkpt><trkpt lat="-20.38538297399054" lon="119.99300575051902"><ele>137.0</ele><time>2026-04-24T00:56:02Z</time></trkpt><trkpt lat="-20.385378069534262" lon="119.99329434571348"><ele>137.0</ele><time>2026-04-24T00:56:03Z</time></trkpt><trkpt lat="-20.38536304778453" lon="119.99359120901518"><ele>137.0</ele><time>2026-04-24T00:56:04Z</time></trkpt><trkpt lat="-20.38534829566893" lon="119.9938859795186"><ele>137.5</ele><time>2026-04-24T00:56:05Z</time></trkpt><trkpt lat="-20.385330679258125" lon="119.99418341305613"><ele>138.0</ele><time>2026-04-24T00:56:06Z</time></trkpt><trkpt lat="-20.38530900016291" lon="119.99448277949752"><ele>138.0</ele><time>2026-04-24T00:56:07Z</time></trkpt><trkpt lat="-20.38528671782591" lon="119.99478448743555"><ele>138.0</ele><time>2026-04-24T00:56:08Z</time></trkpt><trkpt lat="-20.385264311717204" lon="119.9950818593397"><ele>138.5</ele><time>2026-04-24T00:56:09Z</time></trkpt><trkpt lat="-20.385243706252425" lon="119.99537314619708"><ele>139.0</ele><time>2026-04-24T00:56:10Z</time></trkpt><trkpt lat="-20.385216863124253" lon="119.99566290405058"><ele>138.5</ele><time>2026-04-24T00:56:11Z</time></trkpt><trkpt lat="-20.385186929162273" lon="119.99595185829602"><ele>138.0</ele><time>2026-04-24T00:56:12Z</time></trkpt><trkpt lat="-20.385155182471873" lon="119.99623825721645"><ele>138.0</ele><time>2026-04-24T00:56:13Z</time></trkpt><trkpt lat="-20.38512042541777" lon="119.9965197332125"><ele>138.0</ele><time>2026-04-24T00:56:14Z</time></trkpt><trkpt lat="-20.38507745139313" lon="119.99680314292634"><ele>138.0</ele><time>2026-04-24T00:56:15Z</time></trkpt><trkpt lat="-20.385036796480147" lon="119.99708393009075"><ele>138.0</ele><time>2026-04-24T00:56:16Z</time></trkpt><trkpt lat="-20.384993805131334" lon="119.99736541436572"><ele>138.5</ele><time>2026-04-24T00:56:17Z</time></trkpt><trkpt lat="-20.384947912661424" lon="119.99765535631732"><ele>139.0</ele><time>2026-04-24T00:56:18Z</time></trkpt><trkpt lat="-20.38490202398023" lon="119.99794875183295"><ele>139.0</ele><time>2026-04-24T00:56:19Z</time></trkpt><trkpt lat="-20.384856663993844" lon="119.99823823352907"><ele>139.0</ele><time>2026-04-24T00:56:20Z</time></trkpt><trkpt lat="-20.38480925117693" lon="119.99852626106373"><ele>139.5</ele><time>2026-04-24T00:56:21Z</time></trkpt><trkpt lat="-20.384757931698456" lon="119.99881696965404"><ele>140.0</ele><time>2026-04-24T00:56:22Z</time></trkpt><trkpt lat="-20.384705326940363" lon="119.9991001422164"><ele>140.0</ele><time>2026-04-24T00:56:23Z</time></trkpt><trkpt lat="-20.384647918369662" lon="119.999389160353"><ele>140.0</ele><time>2026-04-24T00:56:24Z</time></trkpt><trkpt lat="-20.38459258387635" lon="119.99966695221565"><ele>140.0</ele><time>2026-04-24T00:56:25Z</time></trkpt><trkpt lat="-20.384532889026534" lon="119.99994538978184"><ele>140.0</ele><time>2026-04-24T00:56:26Z</time></trkpt><trkpt lat="-20.38447235289171" lon="120.00022334311934"><ele>140.0</ele><time>2026-04-24T00:56:27Z</time></trkpt><trkpt lat="-20.38441435912421" lon="120.00050118653881"><ele>140.0</ele><time>2026-04-24T00:56:28Z</time></trkpt><trkpt lat="-20.384350466319503" lon="120.00078065445886"><ele>140.5</ele><time>2026-04-24T00:56:29Z</time></trkpt><trkpt lat="-20.384285857051303" lon="120.0010600794352"><ele>141.0</ele><time>2026-04-24T00:56:30Z</time></trkpt><trkpt lat="-20.384221089214247" lon="120.00133809879405"><ele>141.0</ele><time>2026-04-24T00:56:31Z</time></trkpt><trkpt lat="-20.384153385036626" lon="120.00162234895176"><ele>141.0</ele><time>2026-04-24T00:56:32Z</time></trkpt><trkpt lat="-20.38408563372317" lon="120.00190786508146"><ele>141.0</ele><time>2026-04-24T00:56:33Z</time></trkpt><trkpt lat="-20.38401849148409" lon="120.00219057436932"><ele>141.0</ele><time>2026-04-24T00:56:34Z</time></trkpt><trkpt lat="-20.38394917564106" lon="120.00247553962991"><ele>141.0</ele><time>2026-04-24T00:56:35Z</time></trkpt><trkpt lat="-20.38387642466305" lon="120.00276271206265"><ele>141.0</ele><time>2026-04-24T00:56:36Z</time></trkpt><trkpt lat="-20.383803716042376" lon="120.00304448255591"><ele>141.5</ele><time>2026-04-24T00:56:37Z</time></trkpt><trkpt lat="-20.383728330299505" lon="120.00333150136838"><ele>142.0</ele><time>2026-04-24T00:56:38Z</time></trkpt><trkpt lat="-20.383652780922905" lon="120.00361597842634"><ele>142.0</ele><time>2026-04-24T00:56:39Z</time></trkpt><trkpt lat="-20.383576212756477" lon="120.0039010471033"><ele>142.0</ele><time>2026-04-24T00:56:40Z</time></trkpt><trkpt lat="-20.383503386143854" lon="120.0041852570456"><ele>142.5</ele><time>2026-04-24T00:56:41Z</time></trkpt><trkpt lat="-20.38342887926761" lon="120.00447400102226"><ele>143.0</ele><time>2026-04-24T00:56:42Z</time></trkpt><trkpt lat="-20.38335828003216" lon="120.00475989454726"><ele>142.5</ele><time>2026-04-24T00:56:43Z</time></trkpt><trkpt lat="-20.383285967503802" lon="120.00504808333761"><ele>142.0</ele><time>2026-04-24T00:56:44Z</time></trkpt><trkpt lat="-20.383213364439676" lon="120.00533626941356"><ele>142.0</ele><time>2026-04-24T00:56:45Z</time></trkpt><trkpt lat="-20.383138935816785" lon="120.00563030423714"><ele>142.0</ele><time>2026-04-24T00:56:46Z</time></trkpt><trkpt lat="-20.383066849754652" lon="120.00592289129506"><ele>142.5</ele><time>2026-04-24T00:56:47Z</time></trkpt><trkpt lat="-20.382993583691068" lon="120.00621685029495"><ele>143.0</ele><time>2026-04-24T00:56:48Z</time></trkpt><trkpt lat="-20.382922769055696" lon="120.00651120446014"><ele>143.5</ele><time>2026-04-24T00:56:49Z</time></trkpt><trkpt lat="-20.38285353154654" lon="120.00680537371436"><ele>144.0</ele><time>2026-04-24T00:56:50Z</time></trkpt><trkpt lat="-20.382783450772795" lon="120.00709805518936"><ele>144.0</ele><time>2026-04-24T00:56:51Z</time></trkpt><trkpt lat="-20.3827086976022" lon="120.00739041730928"><ele>144.0</ele><time>2026-04-24T00:56:52Z</time></trkpt><trkpt lat="-20.3826339693639" lon="120.00767974817263"><ele>143.5</ele><time>2026-04-24T00:56:53Z</time></trkpt><trkpt lat="-20.38255639441824" lon="120.00797252646021"><ele>143.0</ele><time>2026-04-24T00:56:54Z</time></trkpt><trkpt lat="-20.382484320905828" lon="120.00826289510258"><ele>143.5</ele><time>2026-04-24T00:56:55Z</time></trkpt><trkpt lat="-20.382408925234838" lon="120.00855491261873"><ele>144.0</ele><time>2026-04-24T00:56:56Z</time></trkpt><trkpt lat="-20.382332893773743" lon="120.00884794405044"><ele>144.0</ele><time>2026-04-24T00:56:57Z</time></trkpt><trkpt lat="-20.382260348911693" lon="120.0091423112567"><ele>144.0</ele><time>2026-04-24T00:56:58Z</time></trkpt><trkpt lat="-20.382187729129594" lon="120.009438957411"><ele>144.5</ele><time>2026-04-24T00:56:59Z</time></trkpt><trkpt lat="-20.38211981413858" lon="120.00973625888014"><ele>145.0</ele><time>2026-04-24T00:57:00Z</time></trkpt><trkpt lat="-20.382046921092357" lon="120.01003021533865"><ele>146.0</ele><time>2026-04-24T00:57:01Z</time></trkpt><trkpt lat="-20.381974565679773" lon="120.01030885144542"><ele>147.0</ele><time>2026-04-24T00:57:02Z</time></trkpt><trkpt lat="-20.381913209737604" lon="120.01056676678857"><ele>147.0</ele><time>2026-04-24T00:57:03Z</time></trkpt><trkpt lat="-20.38185494937173" lon="120.01081458904791"><ele>147.0</ele><time>2026-04-24T00:57:04Z</time></trkpt><trkpt lat="-20.38179813818439" lon="120.01106463256986"><ele>147.0</ele><time>2026-04-24T00:57:05Z</time></trkpt><trkpt lat="-20.381736746804236" lon="120.01132559019206"><ele>147.0</ele><time>2026-04-24T00:57:06Z</time></trkpt><trkpt lat="-20.381673775556003" lon="120.01159531349492"><ele>147.0</ele><time>2026-04-24T00:57:07Z</time></trkpt><trkpt lat="-20.381609331523155" lon="120.01185814251657"><ele>147.0</ele><time>2026-04-24T00:57:08Z</time></trkpt><trkpt lat="-20.38153845934312" lon="120.01213163310258"><ele>147.0</ele><time>2026-04-24T00:57:09Z</time></trkpt><trkpt lat="-20.38146927424447" lon="120.01241139804037"><ele>147.0</ele><time>2026-04-24T00:57:10Z</time></trkpt><trkpt lat="-20.381398278129808" lon="120.01270237606373"><ele>148.0</ele><time>2026-04-24T00:57:11Z</time></trkpt><trkpt lat="-20.381325898808274" lon="120.0129970742671"><ele>149.0</ele><time>2026-04-24T00:57:12Z</time></trkpt><trkpt lat="-20.381253447710822" lon="120.0132909895818"><ele>148.5</ele><time>2026-04-24T00:57:13Z</time></trkpt><trkpt lat="-20.381181471773246" lon="120.01358783973521"><ele>148.0</ele><time>2026-04-24T00:57:14Z</time></trkpt><trkpt lat="-20.38111396077322" lon="120.01388341220964"><ele>149.0</ele><time>2026-04-24T00:57:15Z</time></trkpt><trkpt lat="-20.381041261059384" lon="120.01418073044792"><ele>150.0</ele><time>2026-04-24T00:57:16Z</time></trkpt><trkpt lat="-20.380963421360224" lon="120.01447532590915"><ele>150.0</ele><time>2026-04-24T00:57:17Z</time></trkpt><trkpt lat="-20.380888502531864" lon="120.01477312758374"><ele>150.0</ele><time>2026-04-24T00:57:18Z</time></trkpt><trkpt lat="-20.380816691979998" lon="120.01507106875484"><ele>149.5</ele><time>2026-04-24T00:57:19Z</time></trkpt><trkpt lat="-20.38074379334082" lon="120.01536735843378"><ele>149.0</ele><time>2026-04-24T00:57:20Z</time></trkpt><trkpt lat="-20.38067132369902" lon="120.0156597490409"><ele>149.5</ele><time>2026-04-24T00:57:21Z</time></trkpt><trkpt lat="-20.380599491291857" lon="120.01595000770737"><ele>150.0</ele><time>2026-04-24T00:57:22Z</time></trkpt><trkpt lat="-20.380524298858486" lon="120.01624163885289"><ele>150.5</ele><time>2026-04-24T00:57:23Z</time></trkpt><trkpt lat="-20.380445480407307" lon="120.01653463035457"><ele>151.0</ele><time>2026-04-24T00:57:24Z</time></trkpt><trkpt lat="-20.38036592932153" lon="120.01683304188053"><ele>151.5</ele><time>2026-04-24T00:57:25Z</time></trkpt><trkpt lat="-20.380289166895025" lon="120.01712279313145"><ele>152.0</ele><time>2026-04-24T00:57:26Z</time></trkpt><trkpt lat="-20.38020860888169" lon="120.01741534087674"><ele>152.0</ele><time>2026-04-24T00:57:27Z</time></trkpt><trkpt lat="-20.380124966924658" lon="120.01770223087455"><ele>152.0</ele><time>2026-04-24T00:57:28Z</time></trkpt><trkpt lat="-20.380036554143658" lon="120.01799690612435"><ele>152.0</ele><time>2026-04-24T00:57:29Z</time></trkpt><trkpt lat="-20.37994437208747" lon="120.01828498109731"><ele>152.0</ele><time>2026-04-24T00:57:30Z</time></trkpt><trkpt lat="-20.379847398737223" lon="120.01856728206886"><ele>152.0</ele><time>2026-04-24T00:57:31Z</time></trkpt><trkpt lat="-20.379741776419642" lon="120.01884787493641"><ele>152.0</ele><time>2026-04-24T00:57:32Z</time></trkpt><trkpt lat="-20.379627571310913" lon="120.01912143530572"><ele>153.0</ele><time>2026-04-24T00:57:33Z</time></trkpt><trkpt lat="-20.37950029381843" lon="120.01939338512963"><ele>154.0</ele><time>2026-04-24T00:57:34Z</time></trkpt><trkpt lat="-20.379357131001534" lon="120.019659800181"><ele>154.0</ele><time>2026-04-24T00:57:35Z</time></trkpt><trkpt lat="-20.37919863504466" lon="120.01992367306467"><ele>154.0</ele><time>2026-04-24T00:57:36Z</time></trkpt><trkpt lat="-20.37902981724298" lon="120.02018065988837"><ele>156.0</ele><time>2026-04-24T00:57:37Z</time></trkpt><trkpt lat="-20.378850934849247" lon="120.02043454183459"><ele>158.0</ele><time>2026-04-24T00:57:38Z</time></trkpt><trkpt lat="-20.3786638091906" lon="120.02068185862304"><ele>159.0</ele><time>2026-04-24T00:57:39Z</time></trkpt><trkpt lat="-20.378481200500115" lon="120.02092902544813"><ele>160.0</ele><time>2026-04-24T00:57:40Z</time></trkpt><trkpt lat="-20.378301556125766" lon="120.0211758108255"><ele>160.0</ele><time>2026-04-24T00:57:41Z</time></trkpt><trkpt lat="-20.378122558861747" lon="120.02142153828339"><ele>160.0</ele><time>2026-04-24T00:57:42Z</time></trkpt><trkpt lat="-20.377947601297986" lon="120.02166327199961"><ele>161.5</ele><time>2026-04-24T00:57:43Z</time></trkpt><trkpt lat="-20.37777253829532" lon="120.0219075700959"><ele>163.0</ele><time>2026-04-24T00:57:44Z</time></trkpt><trkpt lat="-20.377599884156957" lon="120.02214948152223"><ele>163.0</ele><time>2026-04-24T00:57:45Z</time></trkpt><trkpt lat="-20.377429500618963" lon="120.02238993001528"><ele>163.0</ele><time>2026-04-24T00:57:46Z</time></trkpt><trkpt lat="-20.37725104637051" lon="120.02263188772517"><ele>167.0</ele><time>2026-04-24T00:57:47Z</time></trkpt><trkpt lat="-20.37707451477947" lon="120.02286935046004"><ele>171.0</ele><time>2026-04-24T00:57:48Z</time></trkpt><trkpt lat="-20.376897438543047" lon="120.0231104386353"><ele>169.5</ele><time>2026-04-24T00:57:49Z</time></trkpt><trkpt lat="-20.376721726302996" lon="120.02334542907965"><ele>168.0</ele><time>2026-04-24T00:57:50Z</time></trkpt><trkpt lat="-20.376547633860287" lon="120.02357000922623"><ele>168.0</ele><time>2026-04-24T00:57:51Z</time></trkpt><trkpt lat="-20.37638267253366" lon="120.0237773432174"><ele>168.0</ele><time>2026-04-24T00:57:52Z</time></trkpt><trkpt lat="-20.376223531254173" lon="120.02398782432644"><ele>168.0</ele><time>2026-04-24T00:57:53Z</time></trkpt><trkpt lat="-20.376064648059398" lon="120.02421489079786"><ele>168.0</ele><time>2026-04-24T00:57:54Z</time></trkpt><trkpt lat="-20.375909170191363" lon="120.0244585665223"><ele>168.0</ele><time>2026-04-24T00:57:55Z</time></trkpt><trkpt lat="-20.37576575752279" lon="120.02471511557198"><ele>168.0</ele><time>2026-04-24T00:57:56Z</time></trkpt><trkpt lat="-20.375635316322846" lon="120.02498463002567"><ele>167.0</ele><time>2026-04-24T00:57:57Z</time></trkpt><trkpt lat="-20.375515008328325" lon="120.0252659449592"><ele>166.0</ele><time>2026-04-24T00:57:58Z</time></trkpt><trkpt lat="-20.375399042845558" lon="120.02555633085247"><ele>165.0</ele><time>2026-04-24T00:57:59Z</time></trkpt><trkpt lat="-20.37528596607038" lon="120.02584898641803"><ele>164.0</ele><time>2026-04-24T00:58:00Z</time></trkpt><trkpt lat="-20.37517799166108" lon="120.02614707884017"><ele>164.0</ele><time>2026-04-24T00:58:01Z</time></trkpt><trkpt lat="-20.375080818052012" lon="120.02645304071248"><ele>164.0</ele><time>2026-04-24T00:58:02Z</time></trkpt><trkpt lat="-20.374995100511608" lon="120.02676476722428"><ele>164.0</ele><time>2026-04-24T00:58:03Z</time></trkpt><trkpt lat="-20.374919244767046" lon="120.0270769653186"><ele>164.0</ele><time>2026-04-24T00:58:04Z</time></trkpt><trkpt lat="-20.374855310619708" lon="120.02738802599785"><ele>163.5</ele><time>2026-04-24T00:58:05Z</time></trkpt><trkpt lat="-20.3748037413657" lon="120.02770089246663"><ele>163.0</ele><time>2026-04-24T00:58:06Z</time></trkpt><trkpt lat="-20.374765632688007" lon="120.02801417924248"><ele>162.5</ele><time>2026-04-24T00:58:07Z</time></trkpt><trkpt lat="-20.374741648210815" lon="120.02833298557951"><ele>162.0</ele><time>2026-04-24T00:58:08Z</time></trkpt><trkpt lat="-20.374727862447454" lon="120.02865295851949"><ele>162.0</ele><time>2026-04-24T00:58:09Z</time></trkpt><trkpt lat="-20.374724476557095" lon="120.02897146498566"><ele>162.0</ele><time>2026-04-24T00:58:10Z</time></trkpt><trkpt lat="-20.37473024654972" lon="120.02928820230427"><ele>161.0</ele><time>2026-04-24T00:58:11Z</time></trkpt><trkpt lat="-20.374747923122328" lon="120.02960303014916"><ele>160.0</ele><time>2026-04-24T00:58:12Z</time></trkpt><trkpt lat="-20.374778496662902" lon="120.0299136476667"><ele>159.5</ele><time>2026-04-24T00:58:13Z</time></trkpt><trkpt lat="-20.37482279864697" lon="120.0302210968514"><ele>159.0</ele><time>2026-04-24T00:58:14Z</time></trkpt><trkpt lat="-20.37488376988966" lon="120.03052901382495"><ele>159.0</ele><time>2026-04-24T00:58:15Z</time></trkpt><trkpt lat="-20.37495423287669" lon="120.03083559102659"><ele>159.0</ele><time>2026-04-24T00:58:16Z</time></trkpt><trkpt lat="-20.375035490105276" lon="120.0311351954003"><ele>159.0</ele><time>2026-04-24T00:58:17Z</time></trkpt><trkpt lat="-20.37512607265644" lon="120.03143026840524"><ele>159.0</ele><time>2026-04-24T00:58:18Z</time></trkpt><trkpt lat="-20.375222953402346" lon="120.03172319582795"><ele>159.5</ele><time>2026-04-24T00:58:19Z</time></trkpt><trkpt lat="-20.3753265873615" lon="120.03201073798486"><ele>160.0</ele><time>2026-04-24T00:58:20Z</time></trkpt><trkpt lat="-20.37543485094512" lon="120.03229161299514"><ele>159.5</ele><time>2026-04-24T00:58:21Z</time></trkpt><trkpt lat="-20.375549369399163" lon="120.03255276711255"><ele>159.0</ele><time>2026-04-24T00:58:22Z</time></trkpt><trkpt lat="-20.37567255725894" lon="120.03280108800442"><ele>159.0</ele><time>2026-04-24T00:58:23Z</time></trkpt><trkpt lat="-20.375809181571977" lon="120.0330584583862"><ele>159.0</ele><time>2026-04-24T00:58:24Z</time></trkpt><trkpt lat="-20.375956266367066" lon="120.03331764798614"><ele>159.0</ele><time>2026-04-24T00:58:25Z</time></trkpt><trkpt lat="-20.37610501826804" lon="120.0335720702327"><ele>159.0</ele><time>2026-04-24T00:58:26Z</time></trkpt><trkpt lat="-20.376258240103123" lon="120.03382120418391"><ele>159.0</ele><time>2026-04-24T00:58:27Z</time></trkpt><trkpt lat="-20.376413890954062" lon="120.03407263778638"><ele>159.0</ele><time>2026-04-24T00:58:28Z</time></trkpt><trkpt lat="-20.37656930511973" lon="120.03432114826589"><ele>160.5</ele><time>2026-04-24T00:58:29Z</time></trkpt><trkpt lat="-20.376722965855553" lon="120.03457162403923"><ele>162.0</ele><time>2026-04-24T00:58:30Z</time></trkpt><trkpt lat="-20.376874289140243" lon="120.03481720265103"><ele>163.0</ele><time>2026-04-24T00:58:31Z</time></trkpt><trkpt lat="-20.377024259739912" lon="120.0350600539332"><ele>164.0</ele><time>2026-04-24T00:58:32Z</time></trkpt><trkpt lat="-20.377173198368002" lon="120.0353051787457"><ele>163.5</ele><time>2026-04-24T00:58:33Z</time></trkpt><trkpt lat="-20.377323962215304" lon="120.03555477389655"><ele>163.0</ele><time>2026-04-24T00:58:34Z</time></trkpt><trkpt lat="-20.377471821558384" lon="120.03580193601167"><ele>163.5</ele><time>2026-04-24T00:58:35Z</time></trkpt><trkpt lat="-20.37762420385836" lon="120.03605316639151"><ele>164.0</ele><time>2026-04-24T00:58:36Z</time></trkpt><trkpt lat="-20.377778873629097" lon="120.03630723778363"><ele>164.0</ele><time>2026-04-24T00:58:37Z</time></trkpt><trkpt lat="-20.377932367420065" lon="120.03655649701926"><ele>164.0</ele><time>2026-04-24T00:58:38Z</time></trkpt><trkpt lat="-20.378089035398347" lon="120.03681278228672"><ele>164.5</ele><time>2026-04-24T00:58:39Z</time></trkpt><trkpt lat="-20.37824499066667" lon="120.03706490669732"><ele>165.0</ele><time>2026-04-24T00:58:40Z</time></trkpt><trkpt lat="-20.37840085277065" lon="120.03732169690612"><ele>164.5</ele><time>2026-04-24T00:58:41Z</time></trkpt><trkpt lat="-20.378556657018166" lon="120.03758305205552"><ele>164.0</ele><time>2026-04-24T00:58:42Z</time></trkpt><trkpt lat="-20.378714532273133" lon="120.03784277118037"><ele>163.5</ele><time>2026-04-24T00:58:43Z</time></trkpt><trkpt lat="-20.378875831349532" lon="120.03810615555811"><ele>163.0</ele><time>2026-04-24T00:58:44Z</time></trkpt><trkpt lat="-20.37903725640578" lon="120.03836410065504"><ele>163.0</ele><time>2026-04-24T00:58:45Z</time></trkpt><trkpt lat="-20.379195810662246" lon="120.03862330076812"><ele>163.0</ele><time>2026-04-24T00:58:46Z</time></trkpt><trkpt lat="-20.37935318346552" lon="120.03888556372841"><ele>163.5</ele><time>2026-04-24T00:58:47Z</time></trkpt><trkpt lat="-20.37950726847423" lon="120.0391454689639"><ele>164.0</ele><time>2026-04-24T00:58:48Z</time></trkpt><trkpt lat="-20.379660835855372" lon="120.0394033491555"><ele>162.5</ele><time>2026-04-24T00:58:49Z</time></trkpt><trkpt lat="-20.379812798962824" lon="120.03965790524798"><ele>161.0</ele><time>2026-04-24T00:58:50Z</time></trkpt><trkpt lat="-20.37996650158628" lon="120.0399088090758"><ele>160.0</ele><time>2026-04-24T00:58:51Z</time></trkpt><trkpt lat="-20.380121262684725" lon="120.04015836237751"><ele>159.0</ele><time>2026-04-24T00:58:52Z</time></trkpt><trkpt lat="-20.38027509966461" lon="120.04040924092247"><ele>159.0</ele><time>2026-04-24T00:58:53Z</time></trkpt><trkpt lat="-20.3804277789178" lon="120.04065785716719"><ele>159.0</ele><time>2026-04-24T00:58:54Z</time></trkpt><trkpt lat="-20.38058059459308" lon="120.04090917346505"><ele>158.5</ele><time>2026-04-24T00:58:55Z</time></trkpt><trkpt lat="-20.380734112566053" lon="120.04115715494088"><ele>158.0</ele><time>2026-04-24T00:58:56Z</time></trkpt><trkpt lat="-20.380886144592452" lon="120.04140380467403"><ele>158.0</ele><time>2026-04-24T00:58:57Z</time></trkpt><trkpt lat="-20.381035928263323" lon="120.04164662637022"><ele>158.0</ele><time>2026-04-24T00:58:58Z</time></trkpt><trkpt lat="-20.3811833001635" lon="120.04189096002568"><ele>158.0</ele><time>2026-04-24T00:58:59Z</time></trkpt><trkpt lat="-20.381330024378318" lon="120.04213285871282"><ele>158.0</ele><time>2026-04-24T00:59:00Z</time></trkpt><trkpt lat="-20.381476181249766" lon="120.04237531141182"><ele>157.5</ele><time>2026-04-24T00:59:01Z</time></trkpt><trkpt lat="-20.381618624511347" lon="120.04261089344058"><ele>157.0</ele><time>2026-04-24T00:59:02Z</time></trkpt><trkpt lat="-20.3817662632856" lon="120.04285334879856"><ele>157.0</ele><time>2026-04-24T00:59:03Z</time></trkpt><trkpt lat="-20.38191106954929" lon="120.0430901089501"><ele>157.0</ele><time>2026-04-24T00:59:04Z</time></trkpt><trkpt lat="-20.382055012350836" lon="120.0433286055812"><ele>155.0</ele><time>2026-04-24T00:59:05Z</time></trkpt><trkpt lat="-20.3823349269705" lon="120.0437951374907"><ele>155.0</ele><time>2026-04-24T00:59:07Z</time></trkpt><trkpt lat="-20.38247708702614" lon="120.04402876959827"><ele>155.0</ele><time>2026-04-24T00:59:08Z</time></trkpt><trkpt lat="-20.382619174839355" lon="120.0442635009999"><ele>156.0</ele><time>2026-04-24T00:59:09Z</time></trkpt><trkpt lat="-20.382760917012348" lon="120.04449634859789"><ele>157.0</ele><time>2026-04-24T00:59:10Z</time></trkpt><trkpt lat="-20.38290524257327" lon="120.04473317387523"><ele>156.5</ele><time>2026-04-24T00:59:11Z</time></trkpt><trkpt lat="-20.383050432971668" lon="120.04496747367358"><ele>156.0</ele><time>2026-04-24T00:59:12Z</time></trkpt><trkpt lat="-20.38319486190443" lon="120.04520339852503"><ele>156.0</ele><time>2026-04-24T00:59:13Z</time></trkpt><trkpt lat="-20.38333683153351" lon="120.04544186087135"><ele>156.0</ele><time>2026-04-24T00:59:14Z</time></trkpt><trkpt lat="-20.383475186282567" lon="120.04567880755349"><ele>156.5</ele><time>2026-04-24T00:59:15Z</time></trkpt><trkpt lat="-20.383617226415357" lon="120.0459155183412"><ele>157.0</ele><time>2026-04-24T00:59:16Z</time></trkpt><trkpt lat="-20.383760179426343" lon="120.04614640793125"><ele>157.0</ele><time>2026-04-24T00:59:17Z</time></trkpt><trkpt lat="-20.38390346696288" lon="120.04637840073467"><ele>157.0</ele><time>2026-04-24T00:59:18Z</time></trkpt><trkpt lat="-20.3840451042895" lon="120.04661925108186"><ele>156.5</ele><time>2026-04-24T00:59:19Z</time></trkpt><trkpt lat="-20.38418721815273" lon="120.04684839998276"><ele>156.0</ele><time>2026-04-24T00:59:20Z</time></trkpt><trkpt lat="-20.384329039444545" lon="120.04708344721436"><ele>156.0</ele><time>2026-04-24T00:59:21Z</time></trkpt><trkpt lat="-20.384470076981614" lon="120.04731710666645"><ele>156.0</ele><time>2026-04-24T00:59:22Z</time></trkpt><trkpt lat="-20.384612481945464" lon="120.04754532575261"><ele>156.0</ele><time>2026-04-24T00:59:23Z</time></trkpt><trkpt lat="-20.384755302722372" lon="120.04777478999527"><ele>156.0</ele><time>2026-04-24T00:59:24Z</time></trkpt><trkpt lat="-20.384896532363456" lon="120.04800378922768"><ele>156.0</ele><time>2026-04-24T00:59:25Z</time></trkpt><trkpt lat="-20.385038944944018" lon="120.04824319565054"><ele>156.0</ele><time>2026-04-24T00:59:26Z</time></trkpt><trkpt lat="-20.385182757205776" lon="120.04847813925993"><ele>156.0</ele><time>2026-04-24T00:59:27Z</time></trkpt><trkpt lat="-20.385327515016087" lon="120.04871651351513"><ele>156.0</ele><time>2026-04-24T00:59:28Z</time></trkpt><trkpt lat="-20.38547361067336" lon="120.04895635929861"><ele>155.5</ele><time>2026-04-24T00:59:29Z</time></trkpt><trkpt lat="-20.385620005665334" lon="120.04919826835396"><ele>155.0</ele><time>2026-04-24T00:59:30Z</time></trkpt><trkpt lat="-20.385767105783195" lon="120.04944533671194"><ele>155.0</ele><time>2026-04-24T00:59:31Z</time></trkpt><trkpt lat="-20.385914667010763" lon="120.04969113926482"><ele>155.0</ele><time>2026-04-24T00:59:32Z</time></trkpt><trkpt lat="-20.386061781105926" lon="120.0499354918388"><ele>154.5</ele><time>2026-04-24T00:59:33Z</time></trkpt><trkpt lat="-20.386211534125458" lon="120.05017903332592"><ele>154.0</ele><time>2026-04-24T00:59:34Z</time></trkpt><trkpt lat="-20.386362966345203" lon="120.05042449671664"><ele>154.0</ele><time>2026-04-24T00:59:35Z</time></trkpt><trkpt lat="-20.386515414244393" lon="120.0506733717636"><ele>154.0</ele><time>2026-04-24T00:59:36Z</time></trkpt><trkpt lat="-20.386667245851175" lon="120.05091822126433"><ele>153.5</ele><time>2026-04-24T00:59:37Z</time></trkpt><trkpt lat="-20.386819580319095" lon="120.05116561553751"><ele>153.0</ele><time>2026-04-24T00:59:38Z</time></trkpt><trkpt lat="-20.386970113001965" lon="120.05141394452187"><ele>153.0</ele><time>2026-04-24T00:59:39Z</time></trkpt><trkpt lat="-20.387119496465104" lon="120.05165703646493"><ele>153.0</ele><time>2026-04-24T00:59:40Z</time></trkpt><trkpt lat="-20.387269820323503" lon="120.05190687653705"><ele>153.0</ele><time>2026-04-24T00:59:41Z</time></trkpt><trkpt lat="-20.387417876789172" lon="120.05215129967384"><ele>153.0</ele><time>2026-04-24T00:59:42Z</time></trkpt><trkpt lat="-20.387566832682438" lon="120.05239765250596"><ele>153.0</ele><time>2026-04-24T00:59:43Z</time></trkpt><trkpt lat="-20.38771479860225" lon="120.05263890644596"><ele>153.0</ele><time>2026-04-24T00:59:44Z</time></trkpt><trkpt lat="-20.387865739751852" lon="120.05288741224304"><ele>152.5</ele><time>2026-04-24T00:59:45Z</time></trkpt><trkpt lat="-20.38801473581439" lon="120.05313170912373"><ele>152.0</ele><time>2026-04-24T00:59:46Z</time></trkpt><trkpt lat="-20.388164521002427" lon="120.05337929817088"><ele>153.0</ele><time>2026-04-24T00:59:47Z</time></trkpt><trkpt lat="-20.388314691173047" lon="120.05362687408561"><ele>154.0</ele><time>2026-04-24T00:59:48Z</time></trkpt><trkpt lat="-20.38846442047817" lon="120.05386855956138"><ele>154.0</ele><time>2026-04-24T00:59:49Z</time></trkpt><trkpt lat="-20.388614972319523" lon="120.05411949799473"><ele>154.0</ele><time>2026-04-24T00:59:50Z</time></trkpt><trkpt lat="-20.388764554506274" lon="120.05436997054856"><ele>153.5</ele><time>2026-04-24T00:59:51Z</time></trkpt><trkpt lat="-20.388914034930753" lon="120.05462039602976"><ele>153.0</ele><time>2026-04-24T00:59:52Z</time></trkpt><trkpt lat="-20.389065664155165" lon="120.05487157137536"><ele>153.5</ele><time>2026-04-24T00:59:53Z</time></trkpt><trkpt lat="-20.389218094586035" lon="120.05512009327188"><ele>154.0</ele><time>2026-04-24T00:59:54Z</time></trkpt><trkpt lat="-20.389369099750322" lon="120.05537093121278"><ele>154.0</ele><time>2026-04-24T00:59:55Z</time></trkpt><trkpt lat="-20.38952093993246" lon="120.05562178389305"><ele>154.0</ele><time>2026-04-24T00:59:56Z</time></trkpt><trkpt lat="-20.389673387148147" lon="120.05587430049052"><ele>154.5</ele><time>2026-04-24T00:59:57Z</time></trkpt><trkpt lat="-20.389825279658286" lon="120.05612756860491"><ele>155.0</ele><time>2026-04-24T00:59:58Z</time></trkpt><trkpt lat="-20.389978548088045" lon="120.05637765760733"><ele>155.5</ele><time>2026-04-24T00:59:59Z</time></trkpt><trkpt lat="-20.3901310071186" lon="120.05662888264493"><ele>156.0</ele><time>2026-04-24T01:00:00Z</time></trkpt><trkpt lat="-20.390283367650856" lon="120.05687728829454"><ele>156.0</ele><time>2026-04-24T01:00:01Z</time></trkpt><trkpt lat="-20.390435501687616" lon="120.0571210668091"><ele>156.0</ele><time>2026-04-24T01:00:02Z</time></trkpt><trkpt lat="-20.390583075662683" lon="120.05736920360414"><ele>156.0</ele><time>2026-04-24T01:00:03Z</time></trkpt><trkpt lat="-20.39073248446989" lon="120.05761520785225"><ele>156.0</ele><time>2026-04-24T01:00:04Z</time></trkpt><trkpt lat="-20.390878582099955" lon="120.05786391377207"><ele>156.0</ele><time>2026-04-24T01:00:05Z</time></trkpt><trkpt lat="-20.391027587204142" lon="120.05810776701959"><ele>156.0</ele><time>2026-04-24T01:00:06Z</time></trkpt><trkpt lat="-20.39117542589777" lon="120.0583515634116"><ele>156.0</ele><time>2026-04-24T01:00:07Z</time></trkpt><trkpt lat="-20.391323668779314" lon="120.05859354328413"><ele>156.0</ele><time>2026-04-24T01:00:08Z</time></trkpt><trkpt lat="-20.39147147201392" lon="120.05883749904316"><ele>156.0</ele><time>2026-04-24T01:00:09Z</time></trkpt><trkpt lat="-20.391622109512223" lon="120.05907811284752"><ele>156.0</ele><time>2026-04-24T01:00:10Z</time></trkpt><trkpt lat="-20.39177167283778" lon="120.05931342625124"><ele>156.5</ele><time>2026-04-24T01:00:11Z</time></trkpt><trkpt lat="-20.391917501546317" lon="120.05955975862602"><ele>157.0</ele><time>2026-04-24T01:00:12Z</time></trkpt><trkpt lat="-20.392064198960668" lon="120.05979795874804"><ele>158.0</ele><time>2026-04-24T01:00:13Z</time></trkpt><trkpt lat="-20.39220784361464" lon="120.0600400554951"><ele>159.0</ele><time>2026-04-24T01:00:14Z</time></trkpt><trkpt lat="-20.392354537004866" lon="120.06028333860219"><ele>159.0</ele><time>2026-04-24T01:00:15Z</time></trkpt><trkpt lat="-20.392502716236002" lon="120.06052284477907"><ele>159.0</ele><time>2026-04-24T01:00:16Z</time></trkpt><trkpt lat="-20.3926515437768" lon="120.060762568201"><ele>159.5</ele><time>2026-04-24T01:00:17Z</time></trkpt><trkpt lat="-20.392798479326867" lon="120.0610045474551"><ele>160.0</ele><time>2026-04-24T01:00:18Z</time></trkpt><trkpt lat="-20.39294595219821" lon="120.06124714688161"><ele>160.5</ele><time>2026-04-24T01:00:19Z</time></trkpt><trkpt lat="-20.39309290626444" lon="120.06149087968961"><ele>161.0</ele><time>2026-04-24T01:00:20Z</time></trkpt><trkpt lat="-20.393240758889675" lon="120.06173453233299"><ele>161.0</ele><time>2026-04-24T01:00:21Z</time></trkpt><trkpt lat="-20.393387335936318" lon="120.06197669615537"><ele>161.0</ele><time>2026-04-24T01:00:22Z</time></trkpt><trkpt lat="-20.39353251408486" lon="120.06221963652763"><ele>162.0</ele><time>2026-04-24T01:00:23Z</time></trkpt><trkpt lat="-20.393677972505937" lon="120.06245885810405"><ele>163.0</ele><time>2026-04-24T01:00:24Z</time></trkpt><trkpt lat="-20.393828533715077" lon="120.06269580496254"><ele>163.5</ele><time>2026-04-24T01:00:25Z</time></trkpt><trkpt lat="-20.393988957247753" lon="120.06292214415394"><ele>164.0</ele><time>2026-04-24T01:00:26Z</time></trkpt><trkpt lat="-20.39415855550238" lon="120.06314640624224"><ele>164.5</ele><time>2026-04-24T01:00:27Z</time></trkpt><trkpt lat="-20.39433363366203" lon="120.06336919808243"><ele>165.0</ele><time>2026-04-24T01:00:28Z</time></trkpt><trkpt lat="-20.39450842886794" lon="120.06359289083694"><ele>165.5</ele><time>2026-04-24T01:00:29Z</time></trkpt><trkpt lat="-20.39467872449269" lon="120.0638191461286"><ele>166.0</ele><time>2026-04-24T01:00:30Z</time></trkpt><trkpt lat="-20.39484792077532" lon="120.06404754721483"><ele>166.0</ele><time>2026-04-24T01:00:31Z</time></trkpt><trkpt lat="-20.39501804019203" lon="120.06427499541404"><ele>166.0</ele><time>2026-04-24T01:00:32Z</time></trkpt><trkpt lat="-20.39518949369805" lon="120.06450043126023"><ele>166.0</ele><time>2026-04-24T01:00:33Z</time></trkpt><trkpt lat="-20.395361812114313" lon="120.06473054762337"><ele>166.0</ele><time>2026-04-24T01:00:34Z</time></trkpt><trkpt lat="-20.395530531647598" lon="120.06495791279455"><ele>166.5</ele><time>2026-04-24T01:00:35Z</time></trkpt><trkpt lat="-20.39569957213781" lon="120.06519123221626"><ele>167.0</ele><time>2026-04-24T01:00:36Z</time></trkpt><trkpt lat="-20.395866629365095" lon="120.06542181315115"><ele>167.0</ele><time>2026-04-24T01:00:37Z</time></trkpt><trkpt lat="-20.396025652457734" lon="120.06565523833976"><ele>167.0</ele><time>2026-04-24T01:00:38Z</time></trkpt><trkpt lat="-20.396178588046833" lon="120.06590052159711"><ele>167.0</ele><time>2026-04-24T01:00:39Z</time></trkpt><trkpt lat="-20.39632501476697" lon="120.06614888148974"><ele>167.0</ele><time>2026-04-24T01:00:40Z</time></trkpt><trkpt lat="-20.396467475319483" lon="120.06640286657223"><ele>164.5</ele><time>2026-04-24T01:00:41Z</time></trkpt><trkpt lat="-20.396608527179957" lon="120.06665912887064"><ele>162.0</ele><time>2026-04-24T01:00:42Z</time></trkpt><trkpt lat="-20.39675154524359" lon="120.06691448264588"><ele>162.0</ele><time>2026-04-24T01:00:43Z</time></trkpt><trkpt lat="-20.396897195555407" lon="120.06717143038092"><ele>162.0</ele><time>2026-04-24T01:00:44Z</time></trkpt><trkpt lat="-20.397043624879682" lon="120.06742735457337"><ele>161.0</ele><time>2026-04-24T01:00:45Z</time></trkpt><trkpt lat="-20.397187806534106" lon="120.06768571262548"><ele>160.0</ele><time>2026-04-24T01:00:46Z</time></trkpt><trkpt lat="-20.39732019795664" lon="120.06794431628772"><ele>160.0</ele><time>2026-04-24T01:00:47Z</time></trkpt><trkpt lat="-20.39743867458981" lon="120.06821174800312"><ele>160.0</ele><time>2026-04-24T01:00:48Z</time></trkpt><trkpt lat="-20.397540983180203" lon="120.0684844007738"><ele>161.0</ele><time>2026-04-24T01:00:49Z</time></trkpt><trkpt lat="-20.39763490381242" lon="120.06876286745847"><ele>162.0</ele><time>2026-04-24T01:00:50Z</time></trkpt><trkpt lat="-20.39772318562697" lon="120.06904587642286"><ele>162.0</ele><time>2026-04-24T01:00:51Z</time></trkpt><trkpt lat="-20.397813025147187" lon="120.06932831655158"><ele>162.0</ele><time>2026-04-24T01:00:52Z</time></trkpt><trkpt lat="-20.397906844744977" lon="120.06960958735137"><ele>162.0</ele><time>2026-04-24T01:00:53Z</time></trkpt><trkpt lat="-20.398002811634992" lon="120.06988626521665"><ele>162.0</ele><time>2026-04-24T01:00:54Z</time></trkpt><trkpt lat="-20.39809943199079" lon="120.0701626839066"><ele>162.0</ele><time>2026-04-24T01:00:55Z</time></trkpt><trkpt lat="-20.398194557250378" lon="120.0704409606941"><ele>162.0</ele><time>2026-04-24T01:00:56Z</time></trkpt><trkpt lat="-20.398288027875584" lon="120.07071970936438"><ele>162.5</ele><time>2026-04-24T01:00:57Z</time></trkpt><trkpt lat="-20.398382098763292" lon="120.07100063995027"><ele>163.0</ele><time>2026-04-24T01:00:58Z</time></trkpt><trkpt lat="-20.398476812635117" lon="120.07127247562157"><ele>163.0</ele><time>2026-04-24T01:00:59Z</time></trkpt><trkpt lat="-20.39857314810257" lon="120.07154877616547"><ele>163.0</ele><time>2026-04-24T01:01:00Z</time></trkpt><trkpt lat="-20.398667008394604" lon="120.07182086083836"><ele>163.5</ele><time>2026-04-24T01:01:01Z</time></trkpt><trkpt lat="-20.39876038337275" lon="120.07209548637498"><ele>164.0</ele><time>2026-04-24T01:01:02Z</time></trkpt><trkpt lat="-20.39885251423114" lon="120.07236495948729"><ele>163.0</ele><time>2026-04-24T01:01:03Z</time></trkpt><trkpt lat="-20.398947386392987" lon="120.07263309748559"><ele>162.0</ele><time>2026-04-24T01:01:04Z</time></trkpt><trkpt lat="-20.399038086463637" lon="120.07289553768807"><ele>162.0</ele><time>2026-04-24T01:01:05Z</time></trkpt><trkpt lat="-20.399128552201443" lon="120.07315575132176"><ele>162.0</ele><time>2026-04-24T01:01:06Z</time></trkpt><trkpt lat="-20.399217600661537" lon="120.0734126076853"><ele>162.0</ele><time>2026-04-24T01:01:07Z</time></trkpt><trkpt lat="-20.399307545573397" lon="120.07367056488877"><ele>162.0</ele><time>2026-04-24T01:01:08Z</time></trkpt><trkpt lat="-20.399397148198013" lon="120.07392194471984"><ele>163.0</ele><time>2026-04-24T01:01:09Z</time></trkpt><trkpt lat="-20.399480796780068" lon="120.07417210300399"><ele>164.0</ele><time>2026-04-24T01:01:10Z</time></trkpt><trkpt lat="-20.399562714859076" lon="120.07442590908714"><ele>164.0</ele><time>2026-04-24T01:01:11Z</time></trkpt><trkpt lat="-20.399645619812855" lon="120.07467277222642"><ele>164.0</ele><time>2026-04-24T01:01:12Z</time></trkpt><trkpt lat="-20.399727796425594" lon="120.07491574828211"><ele>163.0</ele><time>2026-04-24T01:01:13Z</time></trkpt><trkpt lat="-20.399813665564384" lon="120.07516184986794"><ele>162.0</ele><time>2026-04-24T01:01:14Z</time></trkpt><trkpt lat="-20.399901752037177" lon="120.07541993349561"><ele>162.0</ele><time>2026-04-24T01:01:15Z</time></trkpt><trkpt lat="-20.399991874881433" lon="120.07568353296581"><ele>162.0</ele><time>2026-04-24T01:01:16Z</time></trkpt><trkpt lat="-20.400081153549156" lon="120.07595284531425"><ele>162.5</ele><time>2026-04-24T01:01:17Z</time></trkpt><trkpt lat="-20.400172596783825" lon="120.07622561850658"><ele>163.0</ele><time>2026-04-24T01:01:18Z</time></trkpt><trkpt lat="-20.400267071665123" lon="120.07650148193031"><ele>164.0</ele><time>2026-04-24T01:01:19Z</time></trkpt><trkpt lat="-20.400364006615618" lon="120.07677972779925"><ele>165.0</ele><time>2026-04-24T01:01:20Z</time></trkpt><trkpt lat="-20.400461336590986" lon="120.0770567020196"><ele>164.5</ele><time>2026-04-24T01:01:21Z</time></trkpt><trkpt lat="-20.400558306753705" lon="120.07733662088467"><ele>164.0</ele><time>2026-04-24T01:01:22Z</time></trkpt><trkpt lat="-20.400650953417834" lon="120.07761607323847"><ele>163.5</ele><time>2026-04-24T01:01:23Z</time></trkpt><trkpt lat="-20.40074216013534" lon="120.07789117652301"><ele>163.0</ele><time>2026-04-24T01:01:24Z</time></trkpt><trkpt lat="-20.400834976198972" lon="120.07816705146715"><ele>163.0</ele><time>2026-04-24T01:01:25Z</time></trkpt><trkpt lat="-20.400928455475363" lon="120.07844267919573"><ele>163.0</ele><time>2026-04-24T01:01:26Z</time></trkpt><trkpt lat="-20.401023827918262" lon="120.07871762347594"><ele>163.0</ele><time>2026-04-24T01:01:27Z</time></trkpt><trkpt lat="-20.401118131786067" lon="120.07899424346942"><ele>163.0</ele><time>2026-04-24T01:01:28Z</time></trkpt><trkpt lat="-20.401213623879247" lon="120.07926841913158"><ele>163.5</ele><time>2026-04-24T01:01:29Z</time></trkpt><trkpt lat="-20.401310138411052" lon="120.07954510860316"><ele>164.0</ele><time>2026-04-24T01:01:30Z</time></trkpt><trkpt lat="-20.401402761694133" lon="120.07981743765954"><ele>163.5</ele><time>2026-04-24T01:01:31Z</time></trkpt><trkpt lat="-20.401494515649834" lon="120.08008949476326"><ele>163.0</ele><time>2026-04-24T01:01:32Z</time></trkpt><trkpt lat="-20.401584246404703" lon="120.0803558063004"><ele>163.0</ele><time>2026-04-24T01:01:33Z</time></trkpt><trkpt lat="-20.401673698118007" lon="120.08061979882535"><ele>163.0</ele><time>2026-04-24T01:01:34Z</time></trkpt><trkpt lat="-20.401763211779524" lon="120.08088528495571"><ele>163.0</ele><time>2026-04-24T01:01:35Z</time></trkpt><trkpt lat="-20.401851529530248" lon="120.08114176908916"><ele>163.0</ele><time>2026-04-24T01:01:36Z</time></trkpt><trkpt lat="-20.401938189739536" lon="120.08139590457505"><ele>163.5</ele><time>2026-04-24T01:01:37Z</time></trkpt><trkpt lat="-20.402024327027544" lon="120.08165027089066"><ele>164.0</ele><time>2026-04-24T01:01:38Z</time></trkpt><trkpt lat="-20.402110707397696" lon="120.08189846935444"><ele>164.5</ele><time>2026-04-24T01:01:39Z</time></trkpt><trkpt lat="-20.402196186319173" lon="120.0821409788472"><ele>165.0</ele><time>2026-04-24T01:01:40Z</time></trkpt><trkpt lat="-20.40227845278445" lon="120.08237846223467"><ele>165.5</ele><time>2026-04-24T01:01:41Z</time></trkpt><trkpt lat="-20.402358271430696" lon="120.08261833884379"><ele>166.0</ele><time>2026-04-24T01:01:42Z</time></trkpt><trkpt lat="-20.402439028301263" lon="120.0828566243372"><ele>166.0</ele><time>2026-04-24T01:01:43Z</time></trkpt><trkpt lat="-20.40252259640934" lon="120.08308727840304"><ele>166.0</ele><time>2026-04-24T01:01:44Z</time></trkpt><trkpt lat="-20.402602331257825" lon="120.08331971293492"><ele>166.5</ele><time>2026-04-24T01:01:45Z</time></trkpt><trkpt lat="-20.402681457059664" lon="120.08355542532746"><ele>167.0</ele><time>2026-04-24T01:01:46Z</time></trkpt><trkpt lat="-20.402758554376604" lon="120.0837886470234"><ele>167.0</ele><time>2026-04-24T01:01:47Z</time></trkpt><trkpt lat="-20.402836344762754" lon="120.08402139652272"><ele>167.0</ele><time>2026-04-24T01:01:48Z</time></trkpt><trkpt lat="-20.40291439720176" lon="120.08425708252166"><ele>167.5</ele><time>2026-04-24T01:01:49Z</time></trkpt><trkpt lat="-20.40300233413748" lon="120.08449191976736"><ele>168.0</ele><time>2026-04-24T01:01:50Z</time></trkpt><trkpt lat="-20.40308484678598" lon="120.0847356321544"><ele>168.5</ele><time>2026-04-24T01:01:51Z</time></trkpt><trkpt lat="-20.40316547472765" lon="120.0849853727792"><ele>169.0</ele><time>2026-04-24T01:01:52Z</time></trkpt><trkpt lat="-20.403249435026872" lon="120.08524176660464"><ele>169.0</ele><time>2026-04-24T01:01:53Z</time></trkpt><trkpt lat="-20.40333999766954" lon="120.08550128373963"><ele>169.0</ele><time>2026-04-24T01:01:54Z</time></trkpt><trkpt lat="-20.40343122209262" lon="120.0857661497491"><ele>169.0</ele><time>2026-04-24T01:01:55Z</time></trkpt><trkpt lat="-20.40352255153896" lon="120.08603315228213"><ele>169.0</ele><time>2026-04-24T01:01:56Z</time></trkpt><trkpt lat="-20.403617129497633" lon="120.08630613317153"><ele>169.0</ele><time>2026-04-24T01:01:57Z</time></trkpt><trkpt lat="-20.40371062160452" lon="120.08657917425523"><ele>169.0</ele><time>2026-04-24T01:01:58Z</time></trkpt><trkpt lat="-20.40380373063794" lon="120.08685079628769"><ele>170.0</ele><time>2026-04-24T01:01:59Z</time></trkpt><trkpt lat="-20.403896534064984" lon="120.08712215678337"><ele>171.0</ele><time>2026-04-24T01:02:00Z</time></trkpt><trkpt lat="-20.40398862810321" lon="120.08739279862598"><ele>171.5</ele><time>2026-04-24T01:02:01Z</time></trkpt><trkpt lat="-20.404080888167247" lon="120.08766277971058"><ele>172.0</ele><time>2026-04-24T01:02:02Z</time></trkpt><trkpt lat="-20.4041721161746" lon="120.08792989727222"><ele>172.0</ele><time>2026-04-24T01:02:03Z</time></trkpt><trkpt lat="-20.40426423882363" lon="120.08819587561912"><ele>172.0</ele><time>2026-04-24T01:02:04Z</time></trkpt><trkpt lat="-20.404359159840997" lon="120.08846350397069"><ele>172.0</ele><time>2026-04-24T01:02:05Z</time></trkpt><trkpt lat="-20.40444639772539" lon="120.0887258291097"><ele>172.0</ele><time>2026-04-24T01:02:06Z</time></trkpt><trkpt lat="-20.404526226595724" lon="120.08897659453868"><ele>172.0</ele><time>2026-04-24T01:02:07Z</time></trkpt><trkpt lat="-20.404604396685052" lon="120.08923281617334"><ele>172.0</ele><time>2026-04-24T01:02:08Z</time></trkpt><trkpt lat="-20.40467655676853" lon="120.08948488669331"><ele>171.5</ele><time>2026-04-24T01:02:09Z</time></trkpt><trkpt lat="-20.404739418832946" lon="120.08974577165694"><ele>171.0</ele><time>2026-04-24T01:02:10Z</time></trkpt><trkpt lat="-20.404791005963016" lon="120.09001722530927"><ele>172.5</ele><time>2026-04-24T01:02:11Z</time></trkpt><trkpt lat="-20.40483223304321" lon="120.09028925015394"><ele>174.0</ele><time>2026-04-24T01:02:12Z</time></trkpt><trkpt lat="-20.404873187975493" lon="120.09055775872997"><ele>174.0</ele><time>2026-04-24T01:02:13Z</time></trkpt><trkpt lat="-20.404906561846627" lon="120.09083036648676"><ele>174.0</ele><time>2026-04-24T01:02:14Z</time></trkpt><trkpt lat="-20.404935696865618" lon="120.09110739447611"><ele>174.0</ele><time>2026-04-24T01:02:15Z</time></trkpt><trkpt lat="-20.404955327064027" lon="120.09137949160319"><ele>174.0</ele><time>2026-04-24T01:02:16Z</time></trkpt><trkpt lat="-20.40496884553453" lon="120.09165302596844"><ele>174.5</ele><time>2026-04-24T01:02:17Z</time></trkpt><trkpt lat="-20.404980477817187" lon="120.09193061828233"><ele>175.0</ele><time>2026-04-24T01:02:18Z</time></trkpt><trkpt lat="-20.40499576947631" lon="120.09220105786089"><ele>175.5</ele><time>2026-04-24T01:02:19Z</time></trkpt><trkpt lat="-20.40501194602966" lon="120.09247286133743"><ele>176.0</ele><time>2026-04-24T01:02:20Z</time></trkpt><trkpt lat="-20.405028659586645" lon="120.0927484420277"><ele>176.0</ele><time>2026-04-24T01:02:21Z</time></trkpt><trkpt lat="-20.40504488411168" lon="120.09301953756732"><ele>176.0</ele><time>2026-04-24T01:02:22Z</time></trkpt><trkpt lat="-20.405063234570637" lon="120.09329664245566"><ele>175.0</ele><time>2026-04-24T01:02:23Z</time></trkpt><trkpt lat="-20.405078325830157" lon="120.09356748544872"><ele>174.0</ele><time>2026-04-24T01:02:24Z</time></trkpt><trkpt lat="-20.405092093248836" lon="120.09384320060894"><ele>174.0</ele><time>2026-04-24T01:02:25Z</time></trkpt><trkpt lat="-20.40510742442761" lon="120.09412342871623"><ele>174.0</ele><time>2026-04-24T01:02:26Z</time></trkpt><trkpt lat="-20.40512705013805" lon="120.09440052979917"><ele>174.0</ele><time>2026-04-24T01:02:27Z</time></trkpt><trkpt lat="-20.405145760082497" lon="120.0946746707958"><ele>174.0</ele><time>2026-04-24T01:02:28Z</time></trkpt><trkpt lat="-20.405166101074233" lon="120.0949534046999"><ele>174.5</ele><time>2026-04-24T01:02:29Z</time></trkpt><trkpt lat="-20.405180419354554" lon="120.09522675382745"><ele>175.0</ele><time>2026-04-24T01:02:30Z</time></trkpt><trkpt lat="-20.405195104003937" lon="120.09549829632176"><ele>175.0</ele><time>2026-04-24T01:02:31Z</time></trkpt><trkpt lat="-20.405212588615168" lon="120.09576596186264"><ele>175.0</ele><time>2026-04-24T01:02:32Z</time></trkpt><trkpt lat="-20.405230680337016" lon="120.09603057021708"><ele>175.0</ele><time>2026-04-24T01:02:33Z</time></trkpt><trkpt lat="-20.4052445117981" lon="120.0962881483464"><ele>175.0</ele><time>2026-04-24T01:02:34Z</time></trkpt><trkpt lat="-20.40525695717865" lon="120.09654687209935"><ele>175.5</ele><time>2026-04-24T01:02:35Z</time></trkpt><trkpt lat="-20.405274179976523" lon="120.09680115815283"><ele>176.0</ele><time>2026-04-24T01:02:36Z</time></trkpt><trkpt lat="-20.4052905032432" lon="120.09705128985402"><ele>176.0</ele><time>2026-04-24T01:02:37Z</time></trkpt><trkpt lat="-20.40530247228078" lon="120.09729748802398"><ele>176.0</ele><time>2026-04-24T01:02:38Z</time></trkpt><trkpt lat="-20.4053132257194" lon="120.09755272081078"><ele>176.5</ele><time>2026-04-24T01:02:39Z</time></trkpt><trkpt lat="-20.40532666857518" lon="120.0978163894395"><ele>177.0</ele><time>2026-04-24T01:02:40Z</time></trkpt><trkpt lat="-20.40533622416009" lon="120.09808362508569"><ele>176.5</ele><time>2026-04-24T01:02:41Z</time></trkpt><trkpt lat="-20.405348073532497" lon="120.09835085766423"><ele>176.0</ele><time>2026-04-24T01:02:42Z</time></trkpt><trkpt lat="-20.40536478947534" lon="120.09861411373333"><ele>176.0</ele><time>2026-04-24T01:02:43Z</time></trkpt><trkpt lat="-20.405387742564766" lon="120.09887969258052"><ele>176.0</ele><time>2026-04-24T01:02:44Z</time></trkpt><trkpt lat="-20.40541103721537" lon="120.09914692535271"><ele>176.5</ele><time>2026-04-24T01:02:45Z</time></trkpt><trkpt lat="-20.405431609921553" lon="120.0994108026745"><ele>177.0</ele><time>2026-04-24T01:02:46Z</time></trkpt><trkpt lat="-20.405450772000115" lon="120.09967022017719"><ele>176.5</ele><time>2026-04-24T01:02:47Z</time></trkpt><trkpt lat="-20.405464860399366" lon="120.0999277798702"><ele>176.0</ele><time>2026-04-24T01:02:48Z</time></trkpt><trkpt lat="-20.405471803808535" lon="120.10019193797172"><ele>176.0</ele><time>2026-04-24T01:02:49Z</time></trkpt><trkpt lat="-20.405481287372893" lon="120.1004533433452"><ele>176.0</ele><time>2026-04-24T01:02:50Z</time></trkpt><trkpt lat="-20.405496142456336" lon="120.10070896602751"><ele>176.0</ele><time>2026-04-24T01:02:51Z</time></trkpt><trkpt lat="-20.405515526675476" lon="120.10096776046356"><ele>176.0</ele><time>2026-04-24T01:02:52Z</time></trkpt><trkpt lat="-20.40553317928516" lon="120.10122217602056"><ele>176.0</ele><time>2026-04-24T01:02:53Z</time></trkpt><trkpt lat="-20.405554336696124" lon="120.10147008364736"><ele>176.0</ele><time>2026-04-24T01:02:54Z</time></trkpt><trkpt lat="-20.405571651314563" lon="120.10172033912531"><ele>176.0</ele><time>2026-04-24T01:02:55Z</time></trkpt><trkpt lat="-20.405591732856724" lon="120.10196962896737"><ele>176.0</ele><time>2026-04-24T01:02:56Z</time></trkpt><trkpt lat="-20.40561723800295" lon="120.10221388947853"><ele>176.5</ele><time>2026-04-24T01:02:57Z</time></trkpt><trkpt lat="-20.405652276884094" lon="120.10245529426304"><ele>177.0</ele><time>2026-04-24T01:02:58Z</time></trkpt><trkpt lat="-20.40569540778203" lon="120.10269475591508"><ele>177.0</ele><time>2026-04-24T01:02:59Z</time></trkpt><trkpt lat="-20.405744680387254" lon="120.1029350670629"><ele>177.0</ele><time>2026-04-24T01:03:00Z</time></trkpt><trkpt lat="-20.405797395334297" lon="120.1031810155483"><ele>177.0</ele><time>2026-04-24T01:03:01Z</time></trkpt><trkpt lat="-20.405825294545604" lon="120.103436397987"><ele>177.0</ele><time>2026-04-24T01:03:02Z</time></trkpt><trkpt lat="-20.405908563177423" lon="120.10368701381626"><ele>177.0</ele><time>2026-04-24T01:03:03Z</time></trkpt><trkpt lat="-20.405965713680665" lon="120.10394331377546"><ele>177.0</ele><time>2026-04-24T01:03:04Z</time></trkpt><trkpt lat="-20.406022314643366" lon="120.10419601897392"><ele>176.0</ele><time>2026-04-24T01:03:05Z</time></trkpt><trkpt lat="-20.40607504277021" lon="120.10444543697498"><ele>175.0</ele><time>2026-04-24T01:03:06Z</time></trkpt><trkpt lat="-20.4061248932862" lon="120.10470469852218"><ele>175.0</ele><time>2026-04-24T01:03:07Z</time></trkpt><trkpt lat="-20.40617551712493" lon="120.10496628399108"><ele>175.0</ele><time>2026-04-24T01:03:08Z</time></trkpt><trkpt lat="-20.40623012714569" lon="120.10523775348797"><ele>175.0</ele><time>2026-04-24T01:03:09Z</time></trkpt><trkpt lat="-20.406287650484973" lon="120.10550789575385"><ele>175.0</ele><time>2026-04-24T01:03:10Z</time></trkpt><trkpt lat="-20.406346803872474" lon="120.10577879213763"><ele>175.5</ele><time>2026-04-24T01:03:11Z</time></trkpt><trkpt lat="-20.40640875150432" lon="120.10605333473714"><ele>176.0</ele><time>2026-04-24T01:03:12Z</time></trkpt><trkpt lat="-20.406471047688196" lon="120.10633142445157"><ele>176.5</ele><time>2026-04-24T01:03:13Z</time></trkpt><trkpt lat="-20.40653223945413" lon="120.10661087334982"><ele>177.0</ele><time>2026-04-24T01:03:14Z</time></trkpt><trkpt lat="-20.406591346947874" lon="120.1068880108724"><ele>177.0</ele><time>2026-04-24T01:03:15Z</time></trkpt><trkpt lat="-20.406650791364623" lon="120.10716740357331"><ele>177.0</ele><time>2026-04-24T01:03:16Z</time></trkpt><trkpt lat="-20.406710809812125" lon="120.10744891050382"><ele>176.5</ele><time>2026-04-24T01:03:17Z</time></trkpt><trkpt lat="-20.40677335278722" lon="120.10773453286879"><ele>176.0</ele><time>2026-04-24T01:03:18Z</time></trkpt><trkpt lat="-20.406834239125143" lon="120.10801826834741"><ele>175.0</ele><time>2026-04-24T01:03:19Z</time></trkpt><trkpt lat="-20.406897475486694" lon="120.10830007966666"><ele>174.0</ele><time>2026-04-24T01:03:20Z</time></trkpt><trkpt lat="-20.406967216528667" lon="120.10858177691577"><ele>174.0</ele><time>2026-04-24T01:03:21Z</time></trkpt><trkpt lat="-20.4070404644126" lon="120.10886420361746"><ele>174.0</ele><time>2026-04-24T01:03:22Z</time></trkpt><trkpt lat="-20.40712051233848" lon="120.10914230578852"><ele>175.0</ele><time>2026-04-24T01:03:23Z</time></trkpt><trkpt lat="-20.407208529324823" lon="120.10942721312261"><ele>176.0</ele><time>2026-04-24T01:03:24Z</time></trkpt><trkpt lat="-20.40730044275387" lon="120.10970740914128"><ele>176.0</ele><time>2026-04-24T01:03:25Z</time></trkpt><trkpt lat="-20.407398665627102" lon="120.10998308076442"><ele>176.0</ele><time>2026-04-24T01:03:26Z</time></trkpt><trkpt lat="-20.407500707563386" lon="120.11025937607974"><ele>176.0</ele><time>2026-04-24T01:03:27Z</time></trkpt><trkpt lat="-20.407610886067754" lon="120.11053036555725"><ele>176.0</ele><time>2026-04-24T01:03:28Z</time></trkpt><trkpt lat="-20.407732953216254" lon="120.11079276095573"><ele>176.5</ele><time>2026-04-24T01:03:29Z</time></trkpt><trkpt lat="-20.407864340080607" lon="120.11105020533118"><ele>177.0</ele><time>2026-04-24T01:03:30Z</time></trkpt><trkpt lat="-20.408003324689716" lon="120.11130530205389"><ele>177.0</ele><time>2026-04-24T01:03:31Z</time></trkpt><trkpt lat="-20.40814752320632" lon="120.11155047221455"><ele>177.0</ele><time>2026-04-24T01:03:32Z</time></trkpt><trkpt lat="-20.408296638720785" lon="120.11179395302665"><ele>177.0</ele><time>2026-04-24T01:03:33Z</time></trkpt><trkpt lat="-20.408452818841575" lon="120.11203949606188"><ele>177.0</ele><time>2026-04-24T01:03:34Z</time></trkpt><trkpt lat="-20.40861879454554" lon="120.11227406825444"><ele>177.0</ele><time>2026-04-24T01:03:35Z</time></trkpt><trkpt lat="-20.408790079513352" lon="120.11250341547635"><ele>177.0</ele><time>2026-04-24T01:03:36Z</time></trkpt><trkpt lat="-20.408969684653314" lon="120.11272797591567"><ele>177.0</ele><time>2026-04-24T01:03:37Z</time></trkpt><trkpt lat="-20.409155294411132" lon="120.1129399976767"><ele>177.0</ele><time>2026-04-24T01:03:38Z</time></trkpt><trkpt lat="-20.4093469677637" lon="120.11314650580869"><ele>177.0</ele><time>2026-04-24T01:03:39Z</time></trkpt><trkpt lat="-20.409540672819865" lon="120.11334831883592"><ele>177.0</ele><time>2026-04-24T01:03:40Z</time></trkpt><trkpt lat="-20.40974165460633" lon="120.11355088227845"><ele>177.5</ele><time>2026-04-24T01:03:41Z</time></trkpt><trkpt lat="-20.409944246404063" lon="120.1137450629274"><ele>178.0</ele><time>2026-04-24T01:03:42Z</time></trkpt><trkpt lat="-20.410150690729267" lon="120.11393364575721"><ele>178.5</ele><time>2026-04-24T01:03:43Z</time></trkpt><trkpt lat="-20.410358469841228" lon="120.1141219571367"><ele>179.0</ele><time>2026-04-24T01:03:44Z</time></trkpt><trkpt lat="-20.410565913953572" lon="120.11431391047753"><ele>179.0</ele><time>2026-04-24T01:03:45Z</time></trkpt><trkpt lat="-20.410778220963206" lon="120.11451105184038"><ele>179.0</ele><time>2026-04-24T01:03:46Z</time></trkpt><trkpt lat="-20.410987105988358" lon="120.11470443154856"><ele>179.0</ele><time>2026-04-24T01:03:47Z</time></trkpt><trkpt lat="-20.4111990549462" lon="120.11490393307979"><ele>179.0</ele><time>2026-04-24T01:03:48Z</time></trkpt><trkpt lat="-20.411411246349754" lon="120.11510029386696"><ele>179.0</ele><time>2026-04-24T01:03:49Z</time></trkpt><trkpt lat="-20.411624767851073" lon="120.11529672739614"><ele>179.0</ele><time>2026-04-24T01:03:50Z</time></trkpt><trkpt lat="-20.41183739733056" lon="120.11549289988356"><ele>179.0</ele><time>2026-04-24T01:03:51Z</time></trkpt><trkpt lat="-20.41204838244643" lon="120.1156866425283"><ele>179.0</ele><time>2026-04-24T01:03:52Z</time></trkpt><trkpt lat="-20.412260402603266" lon="120.11588295525691"><ele>179.5</ele><time>2026-04-24T01:03:53Z</time></trkpt><trkpt lat="-20.412470570844114" lon="120.11607708640763"><ele>180.0</ele><time>2026-04-24T01:03:54Z</time></trkpt><trkpt lat="-20.41267895283034" lon="120.1162720005363"><ele>180.0</ele><time>2026-04-24T01:03:55Z</time></trkpt><trkpt lat="-20.412885588566976" lon="120.11646404224295"><ele>180.0</ele><time>2026-04-24T01:03:56Z</time></trkpt><trkpt lat="-20.41308792631223" lon="120.11665395166243"><ele>180.0</ele><time>2026-04-24T01:03:57Z</time></trkpt><trkpt lat="-20.413289690605648" lon="120.11684472893211"><ele>180.0</ele><time>2026-04-24T01:03:58Z</time></trkpt><trkpt lat="-20.413492390371523" lon="120.11703417712405"><ele>180.0</ele><time>2026-04-24T01:03:59Z</time></trkpt><trkpt lat="-20.4136958385744" lon="120.11722361796058"><ele>180.0</ele><time>2026-04-24T01:04:00Z</time></trkpt><trkpt lat="-20.413896521498824" lon="120.11741382562104"><ele>179.0</ele><time>2026-04-24T01:04:01Z</time></trkpt><trkpt lat="-20.41409876636483" lon="120.11760280826287"><ele>178.0</ele><time>2026-04-24T01:04:02Z</time></trkpt><trkpt lat="-20.414301529856306" lon="120.11779044173909"><ele>178.0</ele><time>2026-04-24T01:04:03Z</time></trkpt><trkpt lat="-20.414506125236514" lon="120.11798003731825"><ele>178.0</ele><time>2026-04-24T01:04:04Z</time></trkpt><trkpt lat="-20.414711359411083" lon="120.11816974632987"><ele>178.0</ele><time>2026-04-24T01:04:05Z</time></trkpt><trkpt lat="-20.414918946070433" lon="120.11835922372275"><ele>178.0</ele><time>2026-04-24T01:04:06Z</time></trkpt><trkpt lat="-20.4151265171855" lon="120.11854978611535"><ele>178.0</ele><time>2026-04-24T01:04:07Z</time></trkpt><trkpt lat="-20.4153343857838" lon="120.11874313086346"><ele>178.0</ele><time>2026-04-24T01:04:08Z</time></trkpt><trkpt lat="-20.415542162110818" lon="120.11893755116888"><ele>177.5</ele><time>2026-04-24T01:04:09Z</time></trkpt><trkpt lat="-20.415746591791898" lon="120.11912708834315"><ele>177.0</ele><time>2026-04-24T01:04:10Z</time></trkpt><trkpt lat="-20.415951498026264" lon="120.11931913331655"><ele>177.0</ele><time>2026-04-24T01:04:11Z</time></trkpt><trkpt lat="-20.416157461465126" lon="120.11951214517275"><ele>177.0</ele><time>2026-04-24T01:04:12Z</time></trkpt><trkpt lat="-20.416361556417577" lon="120.11970229011094"><ele>177.5</ele><time>2026-04-24T01:04:13Z</time></trkpt><trkpt lat="-20.416566890909444" lon="120.11988898073825"><ele>178.0</ele><time>2026-04-24T01:04:14Z</time></trkpt><trkpt lat="-20.41677400221833" lon="120.12008456769755"><ele>178.0</ele><time>2026-04-24T01:04:15Z</time></trkpt><trkpt lat="-20.416976527643488" lon="120.12027412169968"><ele>178.0</ele><time>2026-04-24T01:04:16Z</time></trkpt><trkpt lat="-20.417179351097424" lon="120.12046530566626"><ele>177.5</ele><time>2026-04-24T01:04:17Z</time></trkpt><trkpt lat="-20.417382371931424" lon="120.12065893682481"><ele>177.0</ele><time>2026-04-24T01:04:18Z</time></trkpt><trkpt lat="-20.41758853816771" lon="120.12085360465903"><ele>176.5</ele><time>2026-04-24T01:04:19Z</time></trkpt><trkpt lat="-20.417796838961703" lon="120.12104665279861"><ele>176.0</ele><time>2026-04-24T01:04:20Z</time></trkpt><trkpt lat="-20.41800711485863" lon="120.12123651205522"><ele>176.0</ele><time>2026-04-24T01:04:21Z</time></trkpt><trkpt lat="-20.41821583845518" lon="120.121430035309"><ele>176.0</ele><time>2026-04-24T01:04:22Z</time></trkpt><trkpt lat="-20.418419480437567" lon="120.1216227115966"><ele>176.0</ele><time>2026-04-24T01:04:23Z</time></trkpt><trkpt lat="-20.41862313926098" lon="120.12181079175382"><ele>176.0</ele><time>2026-04-24T01:04:24Z</time></trkpt><trkpt lat="-20.418828310250937" lon="120.1219977939218"><ele>176.5</ele><time>2026-04-24T01:04:25Z</time></trkpt><trkpt lat="-20.4190365892017" lon="120.12218708996835"><ele>177.0</ele><time>2026-04-24T01:04:26Z</time></trkpt><trkpt lat="-20.419241639473043" lon="120.12237366873433"><ele>176.5</ele><time>2026-04-24T01:04:27Z</time></trkpt><trkpt lat="-20.4194457597515" lon="120.1225602040531"><ele>176.0</ele><time>2026-04-24T01:04:28Z</time></trkpt><trkpt lat="-20.419648494450154" lon="120.12275064914486"><ele>176.0</ele><time>2026-04-24T01:04:29Z</time></trkpt><trkpt lat="-20.41984439123492" lon="120.12293154939695"><ele>176.0</ele><time>2026-04-24T01:04:30Z</time></trkpt><trkpt lat="-20.42004795398677" lon="120.12312108272329"><ele>175.5</ele><time>2026-04-24T01:04:31Z</time></trkpt><trkpt lat="-20.42025244802464" lon="120.12331254567856"><ele>175.0</ele><time>2026-04-24T01:04:32Z</time></trkpt><trkpt lat="-20.420455919569267" lon="120.12350569076396"><ele>175.0</ele><time>2026-04-24T01:04:33Z</time></trkpt><trkpt lat="-20.420661888085156" lon="120.12369795511889"><ele>175.0</ele><time>2026-04-24T01:04:34Z</time></trkpt><trkpt lat="-20.42086845625327" lon="120.12388977231193"><ele>175.0</ele><time>2026-04-24T01:04:35Z</time></trkpt><trkpt lat="-20.421076781348887" lon="120.12408447060459"><ele>175.0</ele><time>2026-04-24T01:04:36Z</time></trkpt><trkpt lat="-20.42128429080955" lon="120.12427816930271"><ele>175.0</ele><time>2026-04-24T01:04:37Z</time></trkpt><trkpt lat="-20.421490413940415" lon="120.12447065831205"><ele>175.0</ele><time>2026-04-24T01:04:38Z</time></trkpt><trkpt lat="-20.42169683417106" lon="120.12466394615619"><ele>175.0</ele><time>2026-04-24T01:04:39Z</time></trkpt><trkpt lat="-20.421905755155485" lon="120.12485532400211"><ele>175.0</ele><time>2026-04-24T01:04:40Z</time></trkpt><trkpt lat="-20.42211503481229" lon="120.1250485773611"><ele>175.0</ele><time>2026-04-24T01:04:41Z</time></trkpt><trkpt lat="-20.422320937431973" lon="120.12524197845387"><ele>175.0</ele><time>2026-04-24T01:04:42Z</time></trkpt><trkpt lat="-20.42252460903571" lon="120.1254321107639"><ele>175.0</ele><time>2026-04-24T01:04:43Z</time></trkpt><trkpt lat="-20.422729994583133" lon="120.12562620737228"><ele>175.0</ele><time>2026-04-24T01:04:44Z</time></trkpt><trkpt lat="-20.422936028383667" lon="120.12581843963325"><ele>175.5</ele><time>2026-04-24T01:04:45Z</time></trkpt><trkpt lat="-20.423142195006648" lon="120.12600840735722"><ele>176.0</ele><time>2026-04-24T01:04:46Z</time></trkpt><trkpt lat="-20.423352288412882" lon="120.1262000629574"><ele>176.0</ele><time>2026-04-24T01:04:47Z</time></trkpt><trkpt lat="-20.423561642691446" lon="120.12639215452246"><ele>176.0</ele><time>2026-04-24T01:04:48Z</time></trkpt><trkpt lat="-20.423769002944073" lon="120.12658516539778"><ele>176.0</ele><time>2026-04-24T01:04:49Z</time></trkpt><trkpt lat="-20.423975732402354" lon="120.12678069082703"><ele>176.0</ele><time>2026-04-24T01:04:50Z</time></trkpt><trkpt lat="-20.424180304592486" lon="120.12697418643353"><ele>176.0</ele><time>2026-04-24T01:04:51Z</time></trkpt><trkpt lat="-20.424384379065188" lon="120.1271666421732"><ele>176.0</ele><time>2026-04-24T01:04:51.999Z</time></trkpt><trkpt lat="-20.424594621643195" lon="120.1273598267599"><ele>176.0</ele><time>2026-04-24T01:04:52.999Z</time></trkpt><trkpt lat="-20.424805656902517" lon="120.12754632226923"><ele>176.0</ele><time>2026-04-24T01:04:53.999Z</time></trkpt><trkpt lat="-20.425015818983074" lon="120.12772778045782"><ele>176.0</ele><time>2026-04-24T01:04:54.999Z</time></trkpt><trkpt lat="-20.42523220791086" lon="120.12791066369486"><ele>176.0</ele><time>2026-04-24T01:04:55.999Z</time></trkpt><trkpt lat="-20.42545121767223" lon="120.12809134428021"><ele>176.5</ele><time>2026-04-24T01:04:56.999Z</time></trkpt><trkpt lat="-20.425670102351116" lon="120.12826956050695"><ele>177.0</ele><time>2026-04-24T01:04:57.999Z</time></trkpt><trkpt lat="-20.42588654372267" lon="120.12844626641646"><ele>177.0</ele><time>2026-04-24T01:04:58.999Z</time></trkpt><trkpt lat="-20.426100322583263" lon="120.12862383429285"><ele>177.0</ele><time>2026-04-24T01:04:59.999Z</time></trkpt><trkpt lat="-20.426310804389907" lon="120.12880237219024"><ele>177.0</ele><time>2026-04-24T01:05:00.999Z</time></trkpt><trkpt lat="-20.426523151425354" lon="120.12898066971367"><ele>177.0</ele><time>2026-04-24T01:05:01.999Z</time></trkpt><trkpt lat="-20.42673628860288" lon="120.12915849012735"><ele>177.5</ele><time>2026-04-24T01:05:02.999Z</time></trkpt><trkpt lat="-20.426949038468106" lon="120.12933483291984"><ele>178.0</ele><time>2026-04-24T01:05:03.999Z</time></trkpt><trkpt lat="-20.427156977987906" lon="120.12950669409315"><ele>178.0</ele><time>2026-04-24T01:05:04.999Z</time></trkpt><trkpt lat="-20.427347042359536" lon="120.12966275175764"><ele>178.0</ele><time>2026-04-24T01:05:05.999Z</time></trkpt><trkpt lat="-20.427539299061696" lon="120.12982016459866"><ele>178.5</ele><time>2026-04-24T01:05:06.999Z</time></trkpt><trkpt lat="-20.427739993964042" lon="120.12998584645537"><ele>179.0</ele><time>2026-04-24T01:05:07.999Z</time></trkpt><trkpt lat="-20.427944917622618" lon="120.13015537257061"><ele>179.5</ele><time>2026-04-24T01:05:08.999Z</time></trkpt><trkpt lat="-20.42815138545568" lon="120.13032683159365"><ele>180.0</ele><time>2026-04-24T01:05:09.999Z</time></trkpt><trkpt lat="-20.42835653287221" lon="120.13049496630562"><ele>180.0</ele><time>2026-04-24T01:05:10.999Z</time></trkpt><trkpt lat="-20.428565092308204" lon="120.13066343175909"><ele>180.0</ele><time>2026-04-24T01:05:11.999Z</time></trkpt><trkpt lat="-20.428769606104318" lon="120.13082667042227"><ele>179.5</ele><time>2026-04-24T01:05:12.999Z</time></trkpt><trkpt lat="-20.428972900985112" lon="120.13099161278276"><ele>179.0</ele><time>2026-04-24T01:05:13.999Z</time></trkpt><trkpt lat="-20.42917697510564" lon="120.13116272786166"><ele>179.0</ele><time>2026-04-24T01:05:14.999Z</time></trkpt><trkpt lat="-20.42938346623843" lon="120.13133872536491"><ele>179.0</ele><time>2026-04-24T01:05:15.999Z</time></trkpt><trkpt lat="-20.429590787967573" lon="120.13151359995074"><ele>178.5</ele><time>2026-04-24T01:05:16.999Z</time></trkpt><trkpt lat="-20.42979875877591" lon="120.13168816042814"><ele>178.0</ele><time>2026-04-24T01:05:17.999Z</time></trkpt><trkpt lat="-20.430007686559104" lon="120.13186105272656"><ele>178.0</ele><time>2026-04-24T01:05:18.999Z</time></trkpt><trkpt lat="-20.430215923385788" lon="120.13203136473385"><ele>178.0</ele><time>2026-04-24T01:05:19.999Z</time></trkpt><trkpt lat="-20.430426281873906" lon="120.13220257267504"><ele>177.5</ele><time>2026-04-24T01:05:20.999Z</time></trkpt><trkpt lat="-20.430631675762545" lon="120.13236747323927"><ele>177.0</ele><time>2026-04-24T01:05:21.999Z</time></trkpt><trkpt lat="-20.430838696009115" lon="120.13253735957203"><ele>177.0</ele><time>2026-04-24T01:05:22.999Z</time></trkpt><trkpt lat="-20.431043787519634" lon="120.1327066603964"><ele>177.0</ele><time>2026-04-24T01:05:23.999Z</time></trkpt><trkpt lat="-20.43125043529342" lon="120.13287783787686"><ele>177.0</ele><time>2026-04-24T01:05:24.999Z</time></trkpt><trkpt lat="-20.431456644417317" lon="120.13304758556171"><ele>177.0</ele><time>2026-04-24T01:05:25.999Z</time></trkpt><trkpt lat="-20.43166717763881" lon="120.13321997578431"><ele>177.0</ele><time>2026-04-24T01:05:26.999Z</time></trkpt><trkpt lat="-20.431878059650405" lon="120.13339235334172"><ele>177.0</ele><time>2026-04-24T01:05:27.999Z</time></trkpt><trkpt lat="-20.432089677805084" lon="120.1335631674281"><ele>176.5</ele><time>2026-04-24T01:05:28.999Z</time></trkpt><trkpt lat="-20.432301266142606" lon="120.1337343419703"><ele>176.0</ele><time>2026-04-24T01:05:29.999Z</time></trkpt><trkpt lat="-20.432512048932306" lon="120.133906324207"><ele>175.0</ele><time>2026-04-24T01:05:30.999Z</time></trkpt><trkpt lat="-20.432723322889757" lon="120.13408021672491"><ele>174.0</ele><time>2026-04-24T01:05:31.999Z</time></trkpt><trkpt lat="-20.43293605106997" lon="120.13425594068657"><ele>174.5</ele><time>2026-04-24T01:05:32.999Z</time></trkpt><trkpt lat="-20.433152099383943" lon="120.13443432304322"><ele>175.0</ele><time>2026-04-24T01:05:33.999Z</time></trkpt><trkpt lat="-20.433366350749335" lon="120.13461399796293"><ele>175.0</ele><time>2026-04-24T01:05:34.999Z</time></trkpt><trkpt lat="-20.433583660660506" lon="120.13479547511626"><ele>175.0</ele><time>2026-04-24T01:05:35.999Z</time></trkpt><trkpt lat="-20.433798881444602" lon="120.13497494244072"><ele>175.0</ele><time>2026-04-24T01:05:36.999Z</time></trkpt><trkpt lat="-20.434018357591885" lon="120.13515971658467"><ele>175.0</ele><time>2026-04-24T01:05:37.999Z</time></trkpt><trkpt lat="-20.43423676117724" lon="120.13534250686055"><ele>175.0</ele><time>2026-04-24T01:05:38.999Z</time></trkpt><trkpt lat="-20.4344542882732" lon="120.13552275220992"><ele>175.0</ele><time>2026-04-24T01:05:39.999Z</time></trkpt><trkpt lat="-20.434670437152796" lon="120.13570144866594"><ele>174.0</ele><time>2026-04-24T01:05:40.999Z</time></trkpt><trkpt lat="-20.43488519929067" lon="120.13587701187875"><ele>173.0</ele><time>2026-04-24T01:05:41.999Z</time></trkpt><trkpt lat="-20.43509524289355" lon="120.13604869559678"><ele>173.0</ele><time>2026-04-24T01:05:42.999Z</time></trkpt><trkpt lat="-20.4353087772897" lon="120.13622053878372"><ele>173.0</ele><time>2026-04-24T01:05:43.999Z</time></trkpt><trkpt lat="-20.4355202081498" lon="120.13639479464523"><ele>173.0</ele><time>2026-04-24T01:05:44.999Z</time></trkpt><trkpt lat="-20.43573339625198" lon="120.13657131278808"><ele>173.0</ele><time>2026-04-24T01:05:45.999Z</time></trkpt><trkpt lat="-20.435946090877255" lon="120.13674774167336"><ele>173.0</ele><time>2026-04-24T01:05:46.999Z</time></trkpt><trkpt lat="-20.436160280702353" lon="120.13692501909199"><ele>173.0</ele><time>2026-04-24T01:05:47.999Z</time></trkpt><trkpt lat="-20.436374223078367" lon="120.13710155498455"><ele>172.5</ele><time>2026-04-24T01:05:48.999Z</time></trkpt><trkpt lat="-20.43658702681363" lon="120.13727700286826"><ele>172.0</ele><time>2026-04-24T01:05:49.999Z</time></trkpt><trkpt lat="-20.436799363665358" lon="120.13745448776316"><ele>172.0</ele><time>2026-04-24T01:05:50.999Z</time></trkpt><trkpt lat="-20.437012274154046" lon="120.13763168313557"><ele>172.0</ele><time>2026-04-24T01:05:51.999Z</time></trkpt><trkpt lat="-20.437228973996167" lon="120.1378130237949"><ele>172.5</ele><time>2026-04-24T01:05:52.999Z</time></trkpt><trkpt lat="-20.43744808376852" lon="120.13799412761894"><ele>173.0</ele><time>2026-04-24T01:05:53.999Z</time></trkpt><trkpt lat="-20.437666942904908" lon="120.13817484841977"><ele>172.5</ele><time>2026-04-24T01:05:54.999Z</time></trkpt><trkpt lat="-20.437888135906135" lon="120.13835713220125"><ele>172.0</ele><time>2026-04-24T01:05:56Z</time></trkpt><trkpt lat="-20.438104659912447" lon="120.13853720833266"><ele>172.0</ele><time>2026-04-24T01:05:57Z</time></trkpt><trkpt lat="-20.438323842937518" lon="120.13871869055443"><ele>172.0</ele><time>2026-04-24T01:05:58Z</time></trkpt><trkpt lat="-20.438540907681563" lon="120.13889926956975"><ele>172.0</ele><time>2026-04-24T01:05:59Z</time></trkpt><trkpt lat="-20.438757577128108" lon="120.13907622818637"><ele>172.0</ele><time>2026-04-24T01:06:00Z</time></trkpt><trkpt lat="-20.438971889148895" lon="120.13924811814319"><ele>171.5</ele><time>2026-04-24T01:06:01Z</time></trkpt><trkpt lat="-20.43918471432049" lon="120.13942202071357"><ele>171.0</ele><time>2026-04-24T01:06:02Z</time></trkpt><trkpt lat="-20.439397764783966" lon="120.1395970383371"><ele>171.0</ele><time>2026-04-24T01:06:03Z</time></trkpt><trkpt lat="-20.439608783882697" lon="120.1397697702702"><ele>171.0</ele><time>2026-04-24T01:06:04Z</time></trkpt><trkpt lat="-20.439820447318642" lon="120.13994224648147"><ele>171.0</ele><time>2026-04-24T01:06:05Z</time></trkpt><trkpt lat="-20.440033142433276" lon="120.14011663835842"><ele>171.0</ele><time>2026-04-24T01:06:06Z</time></trkpt><trkpt lat="-20.440245013593103" lon="120.14029157020876"><ele>171.0</ele><time>2026-04-24T01:06:07Z</time></trkpt><trkpt lat="-20.44045561201642" lon="120.14046620434799"><ele>171.0</ele><time>2026-04-24T01:06:08Z</time></trkpt><trkpt lat="-20.440667488610742" lon="120.14064251492522"><ele>171.0</ele><time>2026-04-24T01:06:09Z</time></trkpt><trkpt lat="-20.440881022003126" lon="120.14081931185379"><ele>171.0</ele><time>2026-04-24T01:06:10Z</time></trkpt><trkpt lat="-20.4410969907085" lon="120.14099892644633"><ele>171.0</ele><time>2026-04-24T01:06:11Z</time></trkpt><trkpt lat="-20.441311487211067" lon="120.14117596788256"><ele>171.0</ele><time>2026-04-24T01:06:12Z</time></trkpt><trkpt lat="-20.441525304564376" lon="120.14135480761554"><ele>171.0</ele><time>2026-04-24T01:06:13Z</time></trkpt><trkpt lat="-20.441742314927772" lon="120.14153477127341"><ele>171.0</ele><time>2026-04-24T01:06:14Z</time></trkpt><trkpt lat="-20.441957354109416" lon="120.14171460815905"><ele>170.5</ele><time>2026-04-24T01:06:15Z</time></trkpt><trkpt lat="-20.442168201492336" lon="120.14189436457124"><ele>170.0</ele><time>2026-04-24T01:06:16Z</time></trkpt><trkpt lat="-20.44238156385634" lon="120.14207336480541"><ele>170.0</ele><time>2026-04-24T01:06:17Z</time></trkpt><trkpt lat="-20.44259612096421" lon="120.14225131820724"><ele>170.0</ele><time>2026-04-24T01:06:18Z</time></trkpt><trkpt lat="-20.442810998976935" lon="120.14242879012012"><ele>170.5</ele><time>2026-04-24T01:06:19Z</time></trkpt><trkpt lat="-20.443024440420153" lon="120.14260423985402"><ele>171.0</ele><time>2026-04-24T01:06:20Z</time></trkpt><trkpt lat="-20.443240015229858" lon="120.14278280265209"><ele>171.0</ele><time>2026-04-24T01:06:21Z</time></trkpt><trkpt lat="-20.443452220347492" lon="120.14295680071314"><ele>171.0</ele><time>2026-04-24T01:06:22Z</time></trkpt><trkpt lat="-20.443667686052333" lon="120.14313400083113"><ele>170.5</ele><time>2026-04-24T01:06:23Z</time></trkpt><trkpt lat="-20.443882716121397" lon="120.14330654754717"><ele>170.0</ele><time>2026-04-24T01:06:24Z</time></trkpt><trkpt lat="-20.44409973335903" lon="120.14348220413476"><ele>170.0</ele><time>2026-04-24T01:06:25Z</time></trkpt><trkpt lat="-20.444313172396484" lon="120.14365647310363"><ele>170.0</ele><time>2026-04-24T01:06:26Z</time></trkpt><trkpt lat="-20.444530910115105" lon="120.14383357693086"><ele>169.5</ele><time>2026-04-24T01:06:27Z</time></trkpt><trkpt lat="-20.444745994525892" lon="120.1440076383602"><ele>169.0</ele><time>2026-04-24T01:06:28Z</time></trkpt><trkpt lat="-20.44496284771937" lon="120.1441829635048"><ele>169.0</ele><time>2026-04-24T01:06:29Z</time></trkpt><trkpt lat="-20.445177669549377" lon="120.14435947205054"><ele>169.0</ele><time>2026-04-24T01:06:30Z</time></trkpt><trkpt lat="-20.44538992662797" lon="120.14453417037468"><ele>168.0</ele><time>2026-04-24T01:06:31Z</time></trkpt><trkpt lat="-20.445602479124386" lon="120.14470679125101"><ele>167.0</ele><time>2026-04-24T01:06:32Z</time></trkpt><trkpt lat="-20.445814872939856" lon="120.14487775804076"><ele>168.0</ele><time>2026-04-24T01:06:33Z</time></trkpt><trkpt lat="-20.446026716270058" lon="120.14504901704439"><ele>169.0</ele><time>2026-04-24T01:06:34Z</time></trkpt><trkpt lat="-20.446238220818326" lon="120.14522213635587"><ele>169.0</ele><time>2026-04-24T01:06:35Z</time></trkpt><trkpt lat="-20.446449124166254" lon="120.14539267372548"><ele>169.0</ele><time>2026-04-24T01:06:36Z</time></trkpt><trkpt lat="-20.446658696869555" lon="120.1455648472408"><ele>168.5</ele><time>2026-04-24T01:06:37Z</time></trkpt><trkpt lat="-20.44686880612044" lon="120.14573588289683"><ele>168.0</ele><time>2026-04-24T01:06:38Z</time></trkpt><trkpt lat="-20.44707678849186" lon="120.14590607099805"><ele>168.0</ele><time>2026-04-24T01:06:39Z</time></trkpt><trkpt lat="-20.447284489678893" lon="120.1460741982766"><ele>168.0</ele><time>2026-04-24T01:06:40Z</time></trkpt><trkpt lat="-20.44749158379323" lon="120.14624361920536"><ele>168.0</ele><time>2026-04-24T01:06:41Z</time></trkpt><trkpt lat="-20.447695644627018" lon="120.14641269024588"><ele>168.0</ele><time>2026-04-24T01:06:42Z</time></trkpt><trkpt lat="-20.44790136270456" lon="120.1465778595384"><ele>168.5</ele><time>2026-04-24T01:06:43Z</time></trkpt><trkpt lat="-20.44810965246051" lon="120.14674515946322"><ele>169.0</ele><time>2026-04-24T01:06:44Z</time></trkpt><trkpt lat="-20.4483253505872" lon="120.14691821685638"><ele>169.0</ele><time>2026-04-24T01:06:45Z</time></trkpt><trkpt lat="-20.448538067941204" lon="120.14708743149885"><ele>169.0</ele><time>2026-04-24T01:06:46Z</time></trkpt><trkpt lat="-20.44874763886715" lon="120.14725392103516"><ele>169.5</ele><time>2026-04-24T01:06:47Z</time></trkpt><trkpt lat="-20.44895435578492" lon="120.14742001915455"><ele>170.0</ele><time>2026-04-24T01:06:48Z</time></trkpt><trkpt lat="-20.449158087174375" lon="120.14758603890104"><ele>170.0</ele><time>2026-04-24T01:06:49Z</time></trkpt><trkpt lat="-20.44936177092178" lon="120.14775586280852"><ele>170.0</ele><time>2026-04-24T01:06:50Z</time></trkpt><trkpt lat="-20.44956761240533" lon="120.14792935052424"><ele>170.0</ele><time>2026-04-24T01:06:51Z</time></trkpt><trkpt lat="-20.449775099356717" lon="120.14810127846434"><ele>170.0</ele><time>2026-04-24T01:06:52Z</time></trkpt><trkpt lat="-20.44998504522741" lon="120.1482720135549"><ele>170.0</ele><time>2026-04-24T01:06:53Z</time></trkpt><trkpt lat="-20.45019370930782" lon="120.1484433248842"><ele>170.0</ele><time>2026-04-24T01:06:54Z</time></trkpt><trkpt lat="-20.450404038929868" lon="120.14861303415091"><ele>169.0</ele><time>2026-04-24T01:06:55Z</time></trkpt><trkpt lat="-20.45060887051229" lon="120.14877967818613"><ele>168.0</ele><time>2026-04-24T01:06:56Z</time></trkpt><trkpt lat="-20.450811867160333" lon="120.14894545821417"><ele>169.5</ele><time>2026-04-24T01:06:57Z</time></trkpt><trkpt lat="-20.45101191090367" lon="120.14910675334833"><ele>171.0</ele><time>2026-04-24T01:06:57.999Z</time></trkpt><trkpt lat="-20.451210991109985" lon="120.14926894225339"><ele>170.5</ele><time>2026-04-24T01:06:58.999Z</time></trkpt><trkpt lat="-20.451408105313984" lon="120.1494258547956"><ele>170.0</ele><time>2026-04-24T01:06:59.999Z</time></trkpt><trkpt lat="-20.45160523804221" lon="120.14958814833258"><ele>170.0</ele><time>2026-04-24T01:07:00.999Z</time></trkpt><trkpt lat="-20.451803908321985" lon="120.14975292995243"><ele>170.0</ele><time>2026-04-24T01:07:01.999Z</time></trkpt><trkpt lat="-20.45200140924976" lon="120.14991330501631"><ele>171.0</ele><time>2026-04-24T01:07:02.999Z</time></trkpt><trkpt lat="-20.45220315845022" lon="120.1500762183014"><ele>172.0</ele><time>2026-04-24T01:07:03.999Z</time></trkpt><trkpt lat="-20.452405864513693" lon="120.15023797916918"><ele>172.0</ele><time>2026-04-24T01:07:04.999Z</time></trkpt><trkpt lat="-20.452610721202195" lon="120.15040554516005"><ele>172.0</ele><time>2026-04-24T01:07:05.999Z</time></trkpt><trkpt lat="-20.452814473528697" lon="120.15056978662767"><ele>171.5</ele><time>2026-04-24T01:07:06.999Z</time></trkpt><trkpt lat="-20.453020685280386" lon="120.15073830530979"><ele>171.0</ele><time>2026-04-24T01:07:07.999Z</time></trkpt><trkpt lat="-20.453228532568435" lon="120.15090723410722"><ele>171.0</ele><time>2026-04-24T01:07:08.999Z</time></trkpt><trkpt lat="-20.45343996699002" lon="120.1510772386767"><ele>171.0</ele><time>2026-04-24T01:07:09.999Z</time></trkpt><trkpt lat="-20.453650487746664" lon="120.15124501537024"><ele>171.5</ele><time>2026-04-24T01:07:10.999Z</time></trkpt><trkpt lat="-20.45386102888983" lon="120.15141610117445"><ele>172.0</ele><time>2026-04-24T01:07:11.999Z</time></trkpt><trkpt lat="-20.45407217096455" lon="120.15159051154035"><ele>172.0</ele><time>2026-04-24T01:07:12.999Z</time></trkpt><trkpt lat="-20.45428541506055" lon="120.15176474421565"><ele>172.0</ele><time>2026-04-24T01:07:13.999Z</time></trkpt><trkpt lat="-20.45450036725199" lon="120.15194221796837"><ele>172.0</ele><time>2026-04-24T01:07:14.999Z</time></trkpt><trkpt lat="-20.454714195909027" lon="120.15211367044674"><ele>172.0</ele><time>2026-04-24T01:07:15.999Z</time></trkpt><trkpt lat="-20.4549269079531" lon="120.15228720499809"><ele>173.5</ele><time>2026-04-24T01:07:16.999Z</time></trkpt><trkpt lat="-20.455137586050938" lon="120.15245372068395"><ele>175.0</ele><time>2026-04-24T01:07:17.999Z</time></trkpt><trkpt lat="-20.455350814135436" lon="120.15262328285947"><ele>174.0</ele><time>2026-04-24T01:07:18.999Z</time></trkpt><trkpt lat="-20.455563093523068" lon="120.15279457618021"><ele>173.0</ele><time>2026-04-24T01:07:19.999Z</time></trkpt><trkpt lat="-20.455774452077332" lon="120.15296835525137"><ele>173.0</ele><time>2026-04-24T01:07:20.999Z</time></trkpt><trkpt lat="-20.45598424990285" lon="120.15314272613456"><ele>173.0</ele><time>2026-04-24T01:07:21.999Z</time></trkpt><trkpt lat="-20.45619465154432" lon="120.15331582790455"><ele>173.0</ele><time>2026-04-24T01:07:22.999Z</time></trkpt><trkpt lat="-20.456402809891564" lon="120.15348944168919"><ele>173.0</ele><time>2026-04-24T01:07:23.999Z</time></trkpt><trkpt lat="-20.456611565657482" lon="120.15365899971216"><ele>173.0</ele><time>2026-04-24T01:07:24.999Z</time></trkpt><trkpt lat="-20.45681467788855" lon="120.15382736046683"><ele>173.0</ele><time>2026-04-24T01:07:25.999Z</time></trkpt><trkpt lat="-20.457014658473756" lon="120.15399524999265"><ele>172.5</ele><time>2026-04-24T01:07:26.999Z</time></trkpt><trkpt lat="-20.457214173180816" lon="120.15416571208661"><ele>172.0</ele><time>2026-04-24T01:07:27.999Z</time></trkpt><trkpt lat="-20.457416724022625" lon="120.15433557076318"><ele>172.0</ele><time>2026-04-24T01:07:28.999Z</time></trkpt><trkpt lat="-20.45762263803868" lon="120.15450558601022"><ele>172.0</ele><time>2026-04-24T01:07:29.999Z</time></trkpt><trkpt lat="-20.457832692065672" lon="120.15467776014216"><ele>171.5</ele><time>2026-04-24T01:07:30.999Z</time></trkpt><trkpt lat="-20.458043969935886" lon="120.15484992897733"><ele>171.0</ele><time>2026-04-24T01:07:31.999Z</time></trkpt><trkpt lat="-20.45825775798316" lon="120.15502611458852"><ele>170.0</ele><time>2026-04-24T01:07:32.999Z</time></trkpt><trkpt lat="-20.458474049099475" lon="120.15520560889796"><ele>169.0</ele><time>2026-04-24T01:07:33.999Z</time></trkpt><trkpt lat="-20.45869267621254" lon="120.15538921256228"><ele>169.0</ele><time>2026-04-24T01:07:34.999Z</time></trkpt><trkpt lat="-20.458908207067186" lon="120.15556817171114"><ele>169.0</ele><time>2026-04-24T01:07:35.999Z</time></trkpt><trkpt lat="-20.459124817591817" lon="120.15574825181923"><ele>170.0</ele><time>2026-04-24T01:07:36.999Z</time></trkpt><trkpt lat="-20.459339795477494" lon="120.15592936298866"><ele>171.0</ele><time>2026-04-24T01:07:37.999Z</time></trkpt><trkpt lat="-20.45955338414743" lon="120.15611403413352"><ele>169.5</ele><time>2026-04-24T01:07:38.999Z</time></trkpt><trkpt lat="-20.459768268548867" lon="120.1562941762842"><ele>168.0</ele><time>2026-04-24T01:07:39.999Z</time></trkpt><trkpt lat="-20.459981004237726" lon="120.15646835466816"><ele>169.5</ele><time>2026-04-24T01:07:40.999Z</time></trkpt><trkpt lat="-20.460193413212945" lon="120.15664206030716"><ele>171.0</ele><time>2026-04-24T01:07:41.999Z</time></trkpt><trkpt lat="-20.460403937074656" lon="120.15681851000278"><ele>170.0</ele><time>2026-04-24T01:07:42.999Z</time></trkpt><trkpt lat="-20.460615645913677" lon="120.15699861084784"><ele>169.0</ele><time>2026-04-24T01:07:43.999Z</time></trkpt><trkpt lat="-20.46082886087663" lon="120.15717755103218"><ele>169.0</ele><time>2026-04-24T01:07:44.999Z</time></trkpt><trkpt lat="-20.461040166669843" lon="120.15735112443349"><ele>169.0</ele><time>2026-04-24T01:07:45.999Z</time></trkpt><trkpt lat="-20.46125527796755" lon="120.15752675320661"><ele>169.0</ele><time>2026-04-24T01:07:46.999Z</time></trkpt><trkpt lat="-20.461470692222143" lon="120.15770295981818"><ele>169.0</ele><time>2026-04-24T01:07:47.999Z</time></trkpt><trkpt lat="-20.461683082152472" lon="120.15787728416275"><ele>169.0</ele><time>2026-04-24T01:07:48.999Z</time></trkpt><trkpt lat="-20.461899000717445" lon="120.15805695499984"><ele>169.0</ele><time>2026-04-24T01:07:49.999Z</time></trkpt><trkpt lat="-20.462112348270857" lon="120.15823422642131"><ele>169.5</ele><time>2026-04-24T01:07:50.999Z</time></trkpt><trkpt lat="-20.46232673884279" lon="120.15841567074183"><ele>170.0</ele><time>2026-04-24T01:07:51.999Z</time></trkpt><trkpt lat="-20.462539529965948" lon="120.15859568051403"><ele>170.0</ele><time>2026-04-24T01:07:52.999Z</time></trkpt><trkpt lat="-20.46275354071657" lon="120.15877554702568"><ele>170.0</ele><time>2026-04-24T01:07:53.999Z</time></trkpt><trkpt lat="-20.462968087455366" lon="120.15895530560347"><ele>170.5</ele><time>2026-04-24T01:07:54.999Z</time></trkpt><trkpt lat="-20.46318252604092" lon="120.15913336251215"><ele>171.0</ele><time>2026-04-24T01:07:55.999Z</time></trkpt><trkpt lat="-20.463395674544106" lon="120.15931225840949"><ele>171.0</ele><time>2026-04-24T01:07:56.999Z</time></trkpt><trkpt lat="-20.46360798978762" lon="120.15948973453632"><ele>171.0</ele><time>2026-04-24T01:07:57.999Z</time></trkpt><trkpt lat="-20.4638178772249" lon="120.15966824901673"><ele>170.0</ele><time>2026-04-24T01:07:58.999Z</time></trkpt><trkpt lat="-20.464023941179917" lon="120.15984528543184"><ele>169.0</ele><time>2026-04-24T01:07:59.999Z</time></trkpt><trkpt lat="-20.464231987472864" lon="120.16002514540313"><ele>169.0</ele><time>2026-04-24T01:08:00.999Z</time></trkpt><trkpt lat="-20.464443526621423" lon="120.16020610601133"><ele>169.0</ele><time>2026-04-24T01:08:01.999Z</time></trkpt><trkpt lat="-20.464654938243815" lon="120.16038561926547"><ele>169.0</ele><time>2026-04-24T01:08:02.999Z</time></trkpt><trkpt lat="-20.46486896504427" lon="120.16056403555919"><ele>169.0</ele><time>2026-04-24T01:08:03.999Z</time></trkpt><trkpt lat="-20.465082434398845" lon="120.16074343147218"><ele>169.0</ele><time>2026-04-24T01:08:04.999Z</time></trkpt><trkpt lat="-20.465293406641173" lon="120.16091904408765"><ele>169.0</ele><time>2026-04-24T01:08:05.999Z</time></trkpt><trkpt lat="-20.46550200876288" lon="120.16109391652803"><ele>169.0</ele><time>2026-04-24T01:08:06.999Z</time></trkpt><trkpt lat="-20.465706858961404" lon="120.1612676222668"><ele>169.0</ele><time>2026-04-24T01:08:07.999Z</time></trkpt><trkpt lat="-20.465912613674682" lon="120.16144371116893"><ele>169.0</ele><time>2026-04-24T01:08:08.999Z</time></trkpt><trkpt lat="-20.466118432926983" lon="120.16162271756338"><ele>169.0</ele><time>2026-04-24T01:08:09.999Z</time></trkpt><trkpt lat="-20.46632544475969" lon="120.16180331647342"><ele>169.0</ele><time>2026-04-24T01:08:10.999Z</time></trkpt><trkpt lat="-20.46653219742609" lon="120.16198360063252"><ele>169.0</ele><time>2026-04-24T01:08:11.999Z</time></trkpt><trkpt lat="-20.466739658792815" lon="120.16215969136536"><ele>169.0</ele><time>2026-04-24T01:08:12.999Z</time></trkpt><trkpt lat="-20.466950569248908" lon="120.16233267372532"><ele>169.0</ele><time>2026-04-24T01:08:13.999Z</time></trkpt><trkpt lat="-20.467161620935624" lon="120.16250648359618"><ele>169.5</ele><time>2026-04-24T01:08:14.999Z</time></trkpt><trkpt lat="-20.467372185625468" lon="120.1626827881843"><ele>170.0</ele><time>2026-04-24T01:08:15.999Z</time></trkpt><trkpt lat="-20.467578371658707" lon="120.16285883419546"><ele>170.0</ele><time>2026-04-24T01:08:16.999Z</time></trkpt><trkpt lat="-20.467783792707305" lon="120.16303576762127"><ele>170.0</ele><time>2026-04-24T01:08:17.999Z</time></trkpt><trkpt lat="-20.46799098875567" lon="120.16321213839625"><ele>171.5</ele><time>2026-04-24T01:08:18.999Z</time></trkpt><trkpt lat="-20.46819822874868" lon="120.1633871264424"><ele>173.0</ele><time>2026-04-24T01:08:19.999Z</time></trkpt><trkpt lat="-20.46840762489784" lon="120.16356383282371"><ele>173.0</ele><time>2026-04-24T01:08:20.999Z</time></trkpt><trkpt lat="-20.46861592876016" lon="120.16374092233187"><ele>173.0</ele><time>2026-04-24T01:08:21.999Z</time></trkpt><trkpt lat="-20.4688232508719" lon="120.16391861252654"><ele>172.5</ele><time>2026-04-24T01:08:22.999Z</time></trkpt><trkpt lat="-20.46903196137328" lon="120.16409692777364"><ele>172.0</ele><time>2026-04-24T01:08:23.999Z</time></trkpt><trkpt lat="-20.469239148092704" lon="120.16427626164311"><ele>172.0</ele><time>2026-04-24T01:08:24.999Z</time></trkpt><trkpt lat="-20.46944636659349" lon="120.16445446289278"><ele>172.0</ele><time>2026-04-24T01:08:25.999Z</time></trkpt><trkpt lat="-20.4696554556638" lon="120.16463076486413"><ele>172.5</ele><time>2026-04-24T01:08:26.999Z</time></trkpt><trkpt lat="-20.46986471468927" lon="120.16480770937835"><ele>173.0</ele><time>2026-04-24T01:08:27.999Z</time></trkpt><trkpt lat="-20.470072452940606" lon="120.16498459853707"><ele>173.5</ele><time>2026-04-24T01:08:28.999Z</time></trkpt><trkpt lat="-20.470276310698207" lon="120.16515860828287"><ele>174.0</ele><time>2026-04-24T01:08:29.999Z</time></trkpt><trkpt lat="-20.47048312790862" lon="120.16533427094448"><ele>174.0</ele><time>2026-04-24T01:08:30.999Z</time></trkpt><trkpt lat="-20.47068979724095" lon="120.16551079037342"><ele>174.0</ele><time>2026-04-24T01:08:31.999Z</time></trkpt><trkpt lat="-20.470895781288217" lon="120.165684537418"><ele>174.0</ele><time>2026-04-24T01:08:32.999Z</time></trkpt><trkpt lat="-20.47110414072927" lon="120.1658593921793"><ele>174.0</ele><time>2026-04-24T01:08:33.999Z</time></trkpt><trkpt lat="-20.471311085597918" lon="120.16603099112201"><ele>174.0</ele><time>2026-04-24T01:08:34.999Z</time></trkpt><trkpt lat="-20.47151821275725" lon="120.16620404277569"><ele>174.0</ele><time>2026-04-24T01:08:35.999Z</time></trkpt><trkpt lat="-20.47172516935527" lon="120.1663768427582"><ele>173.5</ele><time>2026-04-24T01:08:36.999Z</time></trkpt><trkpt lat="-20.471929715703737" lon="120.16654753005895"><ele>173.0</ele><time>2026-04-24T01:08:37.999Z</time></trkpt><trkpt lat="-20.472134405458714" lon="120.16671727927178"><ele>173.0</ele><time>2026-04-24T01:08:38.999Z</time></trkpt><trkpt lat="-20.47234001169824" lon="120.16688443948259"><ele>173.0</ele><time>2026-04-24T01:08:39.999Z</time></trkpt><trkpt lat="-20.472547436634017" lon="120.16704851836218"><ele>173.0</ele><time>2026-04-24T01:08:41Z</time></trkpt><trkpt lat="-20.47275923933034" lon="120.1672165503635"><ele>173.0</ele><time>2026-04-24T01:08:42Z</time></trkpt><trkpt lat="-20.472967125952373" lon="120.16738486524966"><ele>173.5</ele><time>2026-04-24T01:08:43Z</time></trkpt><trkpt lat="-20.473176097556802" lon="120.16755658003176"><ele>174.0</ele><time>2026-04-24T01:08:44Z</time></trkpt><trkpt lat="-20.47338745386408" lon="120.16772764398294"><ele>174.0</ele><time>2026-04-24T01:08:45Z</time></trkpt><trkpt lat="-20.473598328986476" lon="120.16789730683723"><ele>174.0</ele><time>2026-04-24T01:08:46Z</time></trkpt><trkpt lat="-20.47381082816184" lon="120.16806698127552"><ele>172.5</ele><time>2026-04-24T01:08:47Z</time></trkpt><trkpt lat="-20.474023951062303" lon="120.16823698252054"><ele>171.0</ele><time>2026-04-24T01:08:48Z</time></trkpt><trkpt lat="-20.474236513935413" lon="120.16840840891521"><ele>171.0</ele><time>2026-04-24T01:08:49Z</time></trkpt><trkpt lat="-20.47444978735686" lon="120.1685794784468"><ele>171.0</ele><time>2026-04-24T01:08:50Z</time></trkpt><trkpt lat="-20.47466308437023" lon="120.16875269386193"><ele>171.5</ele><time>2026-04-24T01:08:51Z</time></trkpt><trkpt lat="-20.47487571316163" lon="120.16892810491191"><ele>172.0</ele><time>2026-04-24T01:08:52Z</time></trkpt><trkpt lat="-20.47508635771868" lon="120.16910076563805"><ele>171.5</ele><time>2026-04-24T01:08:53Z</time></trkpt><trkpt lat="-20.475299746054056" lon="120.16927316800434"><ele>171.0</ele><time>2026-04-24T01:08:54Z</time></trkpt><trkpt lat="-20.475512358430816" lon="120.16944437349144"><ele>171.0</ele><time>2026-04-24T01:08:55Z</time></trkpt><trkpt lat="-20.475723824410462" lon="120.1696145238093"><ele>171.0</ele><time>2026-04-24T01:08:56Z</time></trkpt><trkpt lat="-20.475939461398287" lon="120.16978564442144"><ele>170.0</ele><time>2026-04-24T01:08:57Z</time></trkpt><trkpt lat="-20.47615406506755" lon="120.16995654476949"><ele>169.0</ele><time>2026-04-24T01:08:58Z</time></trkpt><trkpt lat="-20.47636217996404" lon="120.17012128756454"><ele>169.0</ele><time>2026-04-24T01:08:59Z</time></trkpt><trkpt lat="-20.47655592678094" lon="120.17027846260375"><ele>169.0</ele><time>2026-04-24T01:09:00Z</time></trkpt><trkpt lat="-20.4767325520329" lon="120.1704244507995"><ele>169.0</ele><time>2026-04-24T01:09:01Z</time></trkpt><trkpt lat="-20.4768991192459" lon="120.17056226237325"><ele>169.0</ele><time>2026-04-24T01:09:02Z</time></trkpt><trkpt lat="-20.47705718162816" lon="120.1706927397779"><ele>169.0</ele><time>2026-04-24T01:09:03Z</time></trkpt><trkpt lat="-20.477196795821413" lon="120.17081007455953"><ele>168.75</ele><time>2026-04-24T01:09:03.999Z</time></trkpt><trkpt lat="-20.477319933183516" lon="120.17091682944684"><ele>168.5</ele><time>2026-04-24T01:09:04.999Z</time></trkpt><trkpt lat="-20.47742378515637" lon="120.17101327101119"><ele>168.25</ele><time>2026-04-24T01:09:05.999Z</time></trkpt><trkpt lat="-20.477505020264225" lon="120.17110476151201"><ele>168.0</ele><time>2026-04-24T01:09:06.999Z</time></trkpt><trkpt lat="-20.47757983176459" lon="120.17120186259368"><ele>168.0</ele><time>2026-04-24T01:09:07.999Z</time></trkpt><trkpt lat="-20.477643771554636" lon="120.17130958258636"><ele>168.0</ele><time>2026-04-24T01:09:08.999Z</time></trkpt><trkpt lat="-20.477699394305322" lon="120.17141332466427"><ele>168.0</ele><time>2026-04-24T01:09:09.999Z</time></trkpt><trkpt lat="-20.47774749107944" lon="120.17150684067076"><ele>168.0</ele><time>2026-04-24T01:09:10.999Z</time></trkpt><trkpt lat="-20.47778057244209" lon="120.17160669835927"><ele>168.0</ele><time>2026-04-24T01:09:11.999Z</time></trkpt><trkpt lat="-20.477792022316216" lon="120.1716879715086"><ele>167.4</ele><time>2026-04-24T01:09:12.999Z</time></trkpt><trkpt lat="-20.477816034772353" lon="120.17175570926102"><ele>166.8</ele><time>2026-04-24T01:09:13.999Z</time></trkpt><trkpt lat="-20.47784961405734" lon="120.1718604901447"><ele>166.2</ele><time>2026-04-24T01:09:15.999Z</time></trkpt><trkpt lat="-20.477657756907572" lon="120.17193566410353"><ele>165.6</ele><time>2026-04-24T01:09:17.999Z</time></trkpt><trkpt lat="-20.47759305376276" lon="120.17194027318324"><ele>165.0</ele><time>2026-04-24T01:09:18.999Z</time></trkpt><trkpt lat="-20.477510286527917" lon="120.17195075574126"><ele>165.0</ele><time>2026-04-24T01:09:19.999Z</time></trkpt><trkpt lat="-20.47740271454737" lon="120.1719643798524"><ele>165.0</ele><time>2026-04-24T01:09:20.999Z</time></trkpt><trkpt lat="-20.477271775226612" lon="120.17198096347376"><ele>165.0</ele><time>2026-04-24T01:09:21.999Z</time></trkpt><trkpt lat="-20.47712100730977" lon="120.17200005839332"><ele>165.0</ele><time>2026-04-24T01:09:22.999Z</time></trkpt><trkpt lat="-20.47696169855883" lon="120.17201989324325"><ele>164.66666666666666</ele><time>2026-04-24T01:09:23.999Z</time></trkpt><trkpt lat="-20.476793139031127" lon="120.1720542800238"><ele>164.33333333333331</ele><time>2026-04-24T01:09:24.999Z</time></trkpt><trkpt lat="-20.476603809813106" lon="120.17206504739184"><ele>164.0</ele><time>2026-04-24T01:09:25.999Z</time></trkpt><trkpt lat="-20.476408490709403" lon="120.17207978012239"><ele>164.0</ele><time>2026-04-24T01:09:26.999Z</time></trkpt><trkpt lat="-20.47619634749962" lon="120.17209923132191"><ele>164.0</ele><time>2026-04-24T01:09:27.999Z</time></trkpt><trkpt lat="-20.475969869650974" lon="120.17212115864899"><ele>164.0</ele><time>2026-04-24T01:09:28.999Z</time></trkpt><trkpt lat="-20.475735541827866" lon="120.1721465298919"><ele>164.0</ele><time>2026-04-24T01:09:29.999Z</time></trkpt><trkpt lat="-20.475502088307625" lon="120.17217205865026"><ele>164.0</ele><time>2026-04-24T01:09:30.999Z</time></trkpt><trkpt lat="-20.475259910354087" lon="120.17219845878058"><ele>164.5</ele><time>2026-04-24T01:09:31.999Z</time></trkpt><trkpt lat="-20.475007277121613" lon="120.17222366715798"><ele>165.0</ele><time>2026-04-24T01:09:32.999Z</time></trkpt><trkpt lat="-20.474748493129436" lon="120.17224909885093"><ele>165.0</ele><time>2026-04-24T01:09:33.999Z</time></trkpt><trkpt lat="-20.474479017292342" lon="120.1722793789828"><ele>165.0</ele><time>2026-04-24T01:09:34.999Z</time></trkpt><trkpt lat="-20.474206481451986" lon="120.17231330743279"><ele>165.0</ele><time>2026-04-24T01:09:35.999Z</time></trkpt><trkpt lat="-20.473941964774415" lon="120.17234655194501"><ele>165.0</ele><time>2026-04-24T01:09:36.999Z</time></trkpt><trkpt lat="-20.473674697037552" lon="120.17237911590043"><ele>164.5</ele><time>2026-04-24T01:09:37.999Z</time></trkpt><trkpt lat="-20.473404388536537" lon="120.17241273803135"><ele>164.0</ele><time>2026-04-24T01:09:38.999Z</time></trkpt><trkpt lat="-20.473128264069672" lon="120.17244723647588"><ele>164.0</ele><time>2026-04-24T01:09:39.999Z</time></trkpt><trkpt lat="-20.472849515836536" lon="120.17248079430027"><ele>164.0</ele><time>2026-04-24T01:09:40.999Z</time></trkpt><trkpt lat="-20.47256841734191" lon="120.17251479982026"><ele>164.0</ele><time>2026-04-24T01:09:41.999Z</time></trkpt><trkpt lat="-20.47228074801897" lon="120.17255015028708"><ele>164.0</ele><time>2026-04-24T01:09:42.999Z</time></trkpt><trkpt lat="-20.471995962860184" lon="120.17258272235604"><ele>164.5</ele><time>2026-04-24T01:09:43.999Z</time></trkpt><trkpt lat="-20.47171172557303" lon="120.17261590879606"><ele>165.0</ele><time>2026-04-24T01:09:44.999Z</time></trkpt><trkpt lat="-20.47142684455376" lon="120.17264882484282"><ele>165.0</ele><time>2026-04-24T01:09:45.999Z</time></trkpt><trkpt lat="-20.471142591821206" lon="120.17268119224501"><ele>165.0</ele><time>2026-04-24T01:09:46.999Z</time></trkpt><trkpt lat="-20.47085444169662" lon="120.17271254403381"><ele>165.0</ele><time>2026-04-24T01:09:47.999Z</time></trkpt><trkpt lat="-20.470572149258757" lon="120.1727430821626"><ele>165.0</ele><time>2026-04-24T01:09:48.999Z</time></trkpt><trkpt lat="-20.470286963708155" lon="120.17277537708993"><ele>165.0</ele><time>2026-04-24T01:09:49.999Z</time></trkpt><trkpt lat="-20.47000108976654" lon="120.1728086191244"><ele>165.0</ele><time>2026-04-24T01:09:50.999Z</time></trkpt><trkpt lat="-20.46971400061831" lon="120.17284456612863"><ele>165.0</ele><time>2026-04-24T01:09:51.999Z</time></trkpt><trkpt lat="-20.46942336448221" lon="120.17288137931084"><ele>165.0</ele><time>2026-04-24T01:09:52.999Z</time></trkpt><trkpt lat="-20.469132822713956" lon="120.17291381326528"><ele>165.0</ele><time>2026-04-24T01:09:53.999Z</time></trkpt><trkpt lat="-20.468837392592953" lon="120.17294786661591"><ele>165.0</ele><time>2026-04-24T01:09:54.999Z</time></trkpt><trkpt lat="-20.46854508596641" lon="120.17297855435248"><ele>165.5</ele><time>2026-04-24T01:09:55.999Z</time></trkpt><trkpt lat="-20.468252891498143" lon="120.1730101246892"><ele>166.0</ele><time>2026-04-24T01:09:56.999Z</time></trkpt><trkpt lat="-20.46795975161129" lon="120.17304298180392"><ele>165.5</ele><time>2026-04-24T01:09:57.999Z</time></trkpt><trkpt lat="-20.467666810524918" lon="120.17307593100156"><ele>165.0</ele><time>2026-04-24T01:09:58.999Z</time></trkpt><trkpt lat="-20.467370236552444" lon="120.17311181692442"><ele>165.0</ele><time>2026-04-24T01:09:59.999Z</time></trkpt><trkpt lat="-20.46707503674609" lon="120.17314462688906"><ele>165.0</ele><time>2026-04-24T01:10:00.999Z</time></trkpt><trkpt lat="-20.466779069735235" lon="120.17317500370844"><ele>165.0</ele><time>2026-04-24T01:10:01.999Z</time></trkpt><trkpt lat="-20.466488164515187" lon="120.17320683006376"><ele>165.0</ele><time>2026-04-24T01:10:02.999Z</time></trkpt><trkpt lat="-20.46619472446723" lon="120.17324337209828"><ele>165.0</ele><time>2026-04-24T01:10:03.999Z</time></trkpt><trkpt lat="-20.46590462423672" lon="120.17328133534262"><ele>165.0</ele><time>2026-04-24T01:10:04.999Z</time></trkpt><trkpt lat="-20.465614555057268" lon="120.17331473226717"><ele>165.5</ele><time>2026-04-24T01:10:05.999Z</time></trkpt><trkpt lat="-20.46532196531109" lon="120.17334856153938"><ele>166.0</ele><time>2026-04-24T01:10:06.999Z</time></trkpt><trkpt lat="-20.46503014264156" lon="120.17338080514794"><ele>166.0</ele><time>2026-04-24T01:10:07.999Z</time></trkpt><trkpt lat="-20.464739807212098" lon="120.17341476411566"><ele>166.0</ele><time>2026-04-24T01:10:08.999Z</time></trkpt><trkpt lat="-20.46445010869555" lon="120.1734485117343"><ele>166.0</ele><time>2026-04-24T01:10:09.999Z</time></trkpt><trkpt lat="-20.464161311056607" lon="120.17348302146227"><ele>166.0</ele><time>2026-04-24T01:10:10.999Z</time></trkpt><trkpt lat="-20.463873069450564" lon="120.17351777817605"><ele>166.0</ele><time>2026-04-24T01:10:11.999Z</time></trkpt><trkpt lat="-20.463585246116967" lon="120.17355036558685"><ele>166.0</ele><time>2026-04-24T01:10:12.999Z</time></trkpt><trkpt lat="-20.463297601344035" lon="120.17358280806987"><ele>166.0</ele><time>2026-04-24T01:10:13.999Z</time></trkpt><trkpt lat="-20.463010858545573" lon="120.17361670754586"><ele>166.0</ele><time>2026-04-24T01:10:14.999Z</time></trkpt><trkpt lat="-20.462722978494746" lon="120.17365339403078"><ele>167.0</ele><time>2026-04-24T01:10:15.999Z</time></trkpt><trkpt lat="-20.462438929219278" lon="120.17368862840874"><ele>168.0</ele><time>2026-04-24T01:10:16.999Z</time></trkpt><trkpt lat="-20.462152339936335" lon="120.17372245278037"><ele>168.5</ele><time>2026-04-24T01:10:17.999Z</time></trkpt><trkpt lat="-20.46186527885302" lon="120.17375666654078"><ele>169.0</ele><time>2026-04-24T01:10:18.999Z</time></trkpt><trkpt lat="-20.4615812593705" lon="120.17379208093806"><ele>169.0</ele><time>2026-04-24T01:10:19.999Z</time></trkpt><trkpt lat="-20.461293216715443" lon="120.17382788093457"><ele>169.0</ele><time>2026-04-24T01:10:20.999Z</time></trkpt><trkpt lat="-20.461004548871287" lon="120.17386327009949"><ele>169.5</ele><time>2026-04-24T01:10:21.999Z</time></trkpt><trkpt lat="-20.46071376205388" lon="120.17389882038788"><ele>170.0</ele><time>2026-04-24T01:10:22.999Z</time></trkpt><trkpt lat="-20.460418253607358" lon="120.1739332377494"><ele>170.5</ele><time>2026-04-24T01:10:23.999Z</time></trkpt><trkpt lat="-20.46012579027394" lon="120.17396796240378"><ele>171.0</ele><time>2026-04-24T01:10:25Z</time></trkpt><trkpt lat="-20.459831187078805" lon="120.17400175822672"><ele>171.5</ele><time>2026-04-24T01:10:26Z</time></trkpt><trkpt lat="-20.459528626453384" lon="120.17403448855607"><ele>172.0</ele><time>2026-04-24T01:10:27Z</time></trkpt><trkpt lat="-20.459229275792847" lon="120.17406827203833"><ele>172.0</ele><time>2026-04-24T01:10:28Z</time></trkpt><trkpt lat="-20.458929022638163" lon="120.1741053682604"><ele>172.0</ele><time>2026-04-24T01:10:29Z</time></trkpt><trkpt lat="-20.458625762821335" lon="120.1741426050447"><ele>172.5</ele><time>2026-04-24T01:10:30Z</time></trkpt><trkpt lat="-20.458318598653317" lon="120.17417930797727"><ele>173.0</ele><time>2026-04-24T01:10:31Z</time></trkpt><trkpt lat="-20.458013515485625" lon="120.1742162413076"><ele>173.5</ele><time>2026-04-24T01:10:32Z</time></trkpt><trkpt lat="-20.457707678324144" lon="120.17425364519825"><ele>174.0</ele><time>2026-04-24T01:10:33Z</time></trkpt><trkpt lat="-20.45740432323472" lon="120.17428996510631"><ele>174.5</ele><time>2026-04-24T01:10:34Z</time></trkpt><trkpt lat="-20.45709983767633" lon="120.17432468777905"><ele>175.0</ele><time>2026-04-24T01:10:35Z</time></trkpt><trkpt lat="-20.456793225920205" lon="120.17436082891285"><ele>175.0</ele><time>2026-04-24T01:10:36Z</time></trkpt><trkpt lat="-20.45648721003506" lon="120.17439924434682"><ele>175.0</ele><time>2026-04-24T01:10:37Z</time></trkpt><trkpt lat="-20.456180900057245" lon="120.17443325482067"><ele>175.5</ele><time>2026-04-24T01:10:38Z</time></trkpt><trkpt lat="-20.455875624341907" lon="120.17446790463859"><ele>176.0</ele><time>2026-04-24T01:10:39Z</time></trkpt><trkpt lat="-20.455571489678157" lon="120.17450545639151"><ele>177.0</ele><time>2026-04-24T01:10:40Z</time></trkpt><trkpt lat="-20.455262310570628" lon="120.17454340049792"><ele>178.0</ele><time>2026-04-24T01:10:41Z</time></trkpt><trkpt lat="-20.45495754913381" lon="120.17457751537495"><ele>178.0</ele><time>2026-04-24T01:10:42Z</time></trkpt><trkpt lat="-20.45465086730561" lon="120.17461081592124"><ele>178.0</ele><time>2026-04-24T01:10:43Z</time></trkpt><trkpt lat="-20.454344410194196" lon="120.17464712037066"><ele>178.0</ele><time>2026-04-24T01:10:44Z</time></trkpt><trkpt lat="-20.454035458319453" lon="120.17468235107815"><ele>178.0</ele><time>2026-04-24T01:10:45Z</time></trkpt><trkpt lat="-20.45373127981133" lon="120.17471543796694"><ele>179.0</ele><time>2026-04-24T01:10:46Z</time></trkpt><trkpt lat="-20.453427687785496" lon="120.17475030893331"><ele>180.0</ele><time>2026-04-24T01:10:47Z</time></trkpt><trkpt lat="-20.45312083057141" lon="120.17478662579448"><ele>181.0</ele><time>2026-04-24T01:10:48Z</time></trkpt><trkpt lat="-20.45281534368126" lon="120.17482188501273"><ele>182.0</ele><time>2026-04-24T01:10:49Z</time></trkpt><trkpt lat="-20.45251173491431" lon="120.17485378434998"><ele>181.5</ele><time>2026-04-24T01:10:50Z</time></trkpt><trkpt lat="-20.45220179557691" lon="120.17488841827218"><ele>181.0</ele><time>2026-04-24T01:10:51Z</time></trkpt><trkpt lat="-20.451894141634536" lon="120.17492429082581"><ele>182.0</ele><time>2026-04-24T01:10:52Z</time></trkpt><trkpt lat="-20.451591324127616" lon="120.17496026499776"><ele>183.0</ele><time>2026-04-24T01:10:53Z</time></trkpt><trkpt lat="-20.45129196138303" lon="120.17499685032047"><ele>184.0</ele><time>2026-04-24T01:10:54Z</time></trkpt><trkpt lat="-20.450989727371834" lon="120.17503340636088"><ele>185.0</ele><time>2026-04-24T01:10:55Z</time></trkpt><trkpt lat="-20.450687012164266" lon="120.17506984131543"><ele>185.5</ele><time>2026-04-24T01:10:56Z</time></trkpt><trkpt lat="-20.45038502757932" lon="120.17510369488004"><ele>186.0</ele><time>2026-04-24T01:10:57Z</time></trkpt><trkpt lat="-20.450081788049395" lon="120.17513711008229"><ele>186.0</ele><time>2026-04-24T01:10:58Z</time></trkpt><trkpt lat="-20.44977838435278" lon="120.17517168578557"><ele>186.0</ele><time>2026-04-24T01:10:59Z</time></trkpt><trkpt lat="-20.4494780523482" lon="120.17520418075657"><ele>187.0</ele><time>2026-04-24T01:11:00Z</time></trkpt><trkpt lat="-20.44917865646952" lon="120.17523655014759"><ele>188.0</ele><time>2026-04-24T01:11:01Z</time></trkpt><trkpt lat="-20.448876887129593" lon="120.17527108656033"><ele>188.5</ele><time>2026-04-24T01:11:02Z</time></trkpt><trkpt lat="-20.44857563531948" lon="120.1753092440012"><ele>189.0</ele><time>2026-04-24T01:11:03Z</time></trkpt><trkpt lat="-20.448274058091368" lon="120.17534864022974"><ele>189.0</ele><time>2026-04-24T01:11:04Z</time></trkpt><trkpt lat="-20.447972338129333" lon="120.17538380029946"><ele>189.0</ele><time>2026-04-24T01:11:05Z</time></trkpt><trkpt lat="-20.447670377955202" lon="120.17541572679308"><ele>190.5</ele><time>2026-04-24T01:11:06Z</time></trkpt><trkpt lat="-20.44737238082622" lon="120.17544715441063"><ele>192.0</ele><time>2026-04-24T01:11:07Z</time></trkpt><trkpt lat="-20.447078794683836" lon="120.17547769786455"><ele>193.0</ele><time>2026-04-24T01:11:08Z</time></trkpt><trkpt lat="-20.446781866764585" lon="120.17551463862671"><ele>194.0</ele><time>2026-04-24T01:11:08.999Z</time></trkpt><trkpt lat="-20.44648379332648" lon="120.17555594809575"><ele>195.0</ele><time>2026-04-24T01:11:09.999Z</time></trkpt><trkpt lat="-20.446186029960874" lon="120.1755924807625"><ele>196.0</ele><time>2026-04-24T01:11:11Z</time></trkpt><trkpt lat="-20.445883420208546" lon="120.17562320136855"><ele>196.0</ele><time>2026-04-24T01:11:12Z</time></trkpt><trkpt lat="-20.445582349974927" lon="120.17565950474827"><ele>196.0</ele><time>2026-04-24T01:11:13Z</time></trkpt><trkpt lat="-20.445281871007218" lon="120.17569594021421"><ele>196.5</ele><time>2026-04-24T01:11:14Z</time></trkpt><trkpt lat="-20.44498102689421" lon="120.17573096794565"><ele>197.0</ele><time>2026-04-24T01:11:15Z</time></trkpt><trkpt lat="-20.44468095494003" lon="120.17576897272488"><ele>197.0</ele><time>2026-04-24T01:11:16Z</time></trkpt><trkpt lat="-20.444379942572574" lon="120.17580622849015"><ele>197.0</ele><time>2026-04-24T01:11:17Z</time></trkpt><trkpt lat="-20.444078895718917" lon="120.17584234263174"><ele>198.0</ele><time>2026-04-24T01:11:18Z</time></trkpt><trkpt lat="-20.44377854312313" lon="120.17587708176207"><ele>199.0</ele><time>2026-04-24T01:11:19Z</time></trkpt><trkpt lat="-20.443476947348504" lon="120.17591197528284"><ele>199.0</ele><time>2026-04-24T01:11:20Z</time></trkpt><trkpt lat="-20.443176271715988" lon="120.17595292004697"><ele>199.0</ele><time>2026-04-24T01:11:21Z</time></trkpt><trkpt lat="-20.442881175607816" lon="120.17599128319299"><ele>199.5</ele><time>2026-04-24T01:11:22Z</time></trkpt><trkpt lat="-20.442587890319814" lon="120.17602358364827"><ele>200.0</ele><time>2026-04-24T01:11:23Z</time></trkpt><trkpt lat="-20.442298523833365" lon="120.17605436725438"><ele>200.5</ele><time>2026-04-24T01:11:24Z</time></trkpt><trkpt lat="-20.44203034427408" lon="120.1760912714955"><ele>201.0</ele><time>2026-04-24T01:11:25Z</time></trkpt><trkpt lat="-20.44175735401042" lon="120.17614269737255"><ele>201.0</ele><time>2026-04-24T01:11:26Z</time></trkpt><trkpt lat="-20.441462613643715" lon="120.17620294711952"><ele>201.0</ele><time>2026-04-24T01:11:27Z</time></trkpt><trkpt lat="-20.441159370811857" lon="120.17626217054293"><ele>200.0</ele><time>2026-04-24T01:11:28Z</time></trkpt><trkpt lat="-20.44085447460913" lon="120.17631953691313"><ele>199.0</ele><time>2026-04-24T01:11:29Z</time></trkpt><trkpt lat="-20.44055044631895" lon="120.17637554643542"><ele>199.0</ele><time>2026-04-24T01:11:30Z</time></trkpt><trkpt lat="-20.440251331248398" lon="120.17643079457942"><ele>199.0</ele><time>2026-04-24T01:11:31Z</time></trkpt><trkpt lat="-20.439953381732227" lon="120.17648618261362"><ele>198.5</ele><time>2026-04-24T01:11:32Z</time></trkpt><trkpt lat="-20.439653545737865" lon="120.1765450845953"><ele>198.0</ele><time>2026-04-24T01:11:33Z</time></trkpt><trkpt lat="-20.43935405432107" lon="120.1765949094157"><ele>197.5</ele><time>2026-04-24T01:11:34Z</time></trkpt><trkpt lat="-20.439053582558476" lon="120.1766438194324"><ele>197.0</ele><time>2026-04-24T01:11:35Z</time></trkpt><trkpt lat="-20.43874937586662" lon="120.17669191594752"><ele>196.0</ele><time>2026-04-24T01:11:36Z</time></trkpt><trkpt lat="-20.438445479294895" lon="120.17674216865878"><ele>195.0</ele><time>2026-04-24T01:11:37Z</time></trkpt><trkpt lat="-20.43814156058625" lon="120.17679174729841"><ele>195.0</ele><time>2026-04-24T01:11:38Z</time></trkpt><trkpt lat="-20.43783669312595" lon="120.17683913653447"><ele>195.0</ele><time>2026-04-24T01:11:39Z</time></trkpt><trkpt lat="-20.43752854232096" lon="120.1768834869962"><ele>195.0</ele><time>2026-04-24T01:11:40Z</time></trkpt><trkpt lat="-20.437223379972256" lon="120.17692703195439"><ele>195.0</ele><time>2026-04-24T01:11:41Z</time></trkpt><trkpt lat="-20.43691751900118" lon="120.1769673966491"><ele>194.5</ele><time>2026-04-24T01:11:42Z</time></trkpt><trkpt lat="-20.436609657643846" lon="120.17700721864573"><ele>194.0</ele><time>2026-04-24T01:11:43Z</time></trkpt><trkpt lat="-20.436304140491693" lon="120.17704478869219"><ele>194.0</ele><time>2026-04-24T01:11:44Z</time></trkpt><trkpt lat="-20.43599653961111" lon="120.17707871643559"><ele>194.0</ele><time>2026-04-24T01:11:45Z</time></trkpt><trkpt lat="-20.435693602864607" lon="120.17711294337538"><ele>193.5</ele><time>2026-04-24T01:11:46Z</time></trkpt><trkpt lat="-20.435388864716057" lon="120.17714790983469"><ele>193.0</ele><time>2026-04-24T01:11:47Z</time></trkpt><trkpt lat="-20.43508780189288" lon="120.1771850985164"><ele>193.0</ele><time>2026-04-24T01:11:48Z</time></trkpt><trkpt lat="-20.434785753995083" lon="120.17722686909512"><ele>193.0</ele><time>2026-04-24T01:11:49Z</time></trkpt><trkpt lat="-20.43448742156807" lon="120.1772702054652"><ele>192.0</ele><time>2026-04-24T01:11:50Z</time></trkpt><trkpt lat="-20.43418960952462" lon="120.17731649948479"><ele>191.0</ele><time>2026-04-24T01:11:51Z</time></trkpt><trkpt lat="-20.433888637198333" lon="120.1773637405044"><ele>190.5</ele><time>2026-04-24T01:11:52Z</time></trkpt><trkpt lat="-20.433587603649205" lon="120.17741213933535"><ele>190.0</ele><time>2026-04-24T01:11:53Z</time></trkpt><trkpt lat="-20.433286857418576" lon="120.17746143251942"><ele>190.0</ele><time>2026-04-24T01:11:54Z</time></trkpt><trkpt lat="-20.432989434919936" lon="120.1775120413129"><ele>190.0</ele><time>2026-04-24T01:11:55Z</time></trkpt><trkpt lat="-20.43269182821733" lon="120.1775608808313"><ele>189.0</ele><time>2026-04-24T01:11:56Z</time></trkpt><trkpt lat="-20.432394504414503" lon="120.17760809138916"><ele>188.0</ele><time>2026-04-24T01:11:57Z</time></trkpt><trkpt lat="-20.432098122720674" lon="120.17765767934024"><ele>187.5</ele><time>2026-04-24T01:11:58Z</time></trkpt><trkpt lat="-20.431799860706224" lon="120.17771041354341"><ele>187.0</ele><time>2026-04-24T01:11:59Z</time></trkpt><trkpt lat="-20.431500540550516" lon="120.17776480527117"><ele>185.5</ele><time>2026-04-24T01:12:00Z</time></trkpt><trkpt lat="-20.431201844710838" lon="120.17781226908791"><ele>184.0</ele><time>2026-04-24T01:12:01Z</time></trkpt><trkpt lat="-20.43090280515979" lon="120.17785986351288"><ele>184.0</ele><time>2026-04-24T01:12:02Z</time></trkpt><trkpt lat="-20.43060195060416" lon="120.17791037052906"><ele>184.0</ele><time>2026-04-24T01:12:03Z</time></trkpt><trkpt lat="-20.43030068968814" lon="120.17796089688854"><ele>184.5</ele><time>2026-04-24T01:12:04Z</time></trkpt><trkpt lat="-20.42999882013105" lon="120.17800953235793"><ele>185.0</ele><time>2026-04-24T01:12:05Z</time></trkpt><trkpt lat="-20.429695201688997" lon="120.17806060423699"><ele>183.5</ele><time>2026-04-24T01:12:06Z</time></trkpt><trkpt lat="-20.429395756390942" lon="120.17810892758035"><ele>182.0</ele><time>2026-04-24T01:12:07Z</time></trkpt><trkpt lat="-20.429097049447783" lon="120.1781571028433"><ele>181.0</ele><time>2026-04-24T01:12:08Z</time></trkpt><trkpt lat="-20.428793781636326" lon="120.17820520840888"><ele>180.0</ele><time>2026-04-24T01:12:09Z</time></trkpt><trkpt lat="-20.42849388208045" lon="120.17825632342209"><ele>180.0</ele><time>2026-04-24T01:12:10Z</time></trkpt><trkpt lat="-20.42819146585941" lon="120.17831280503098"><ele>180.0</ele><time>2026-04-24T01:12:11Z</time></trkpt><trkpt lat="-20.427891347824218" lon="120.178362908601"><ele>180.5</ele><time>2026-04-24T01:12:12Z</time></trkpt><trkpt lat="-20.427594494405305" lon="120.17841188123953"><ele>181.0</ele><time>2026-04-24T01:12:13Z</time></trkpt><trkpt lat="-20.427299443172476" lon="120.17846360029915"><ele>180.5</ele><time>2026-04-24T01:12:14Z</time></trkpt><trkpt lat="-20.427002276285332" lon="120.17851447928878"><ele>180.0</ele><time>2026-04-24T01:12:15Z</time></trkpt><trkpt lat="-20.426704106775595" lon="120.17856651235134"><ele>180.0</ele><time>2026-04-24T01:12:16Z</time></trkpt><trkpt lat="-20.426403621039086" lon="120.178615568816"><ele>180.0</ele><time>2026-04-24T01:12:17Z</time></trkpt><trkpt lat="-20.426104239137146" lon="120.17866636527154"><ele>179.0</ele><time>2026-04-24T01:12:18Z</time></trkpt><trkpt lat="-20.425805357248368" lon="120.17871834998195"><ele>178.0</ele><time>2026-04-24T01:12:19Z</time></trkpt><trkpt lat="-20.425503594051296" lon="120.1787741705103"><ele>178.0</ele><time>2026-04-24T01:12:20Z</time></trkpt><trkpt lat="-20.425202271066528" lon="120.17882834193543"><ele>178.0</ele><time>2026-04-24T01:12:21Z</time></trkpt><trkpt lat="-20.42489868592105" lon="120.178878897816"><ele>177.0</ele><time>2026-04-24T01:12:22Z</time></trkpt><trkpt lat="-20.424593326594373" lon="120.17893002127714"><ele>176.0</ele><time>2026-04-24T01:12:23Z</time></trkpt><trkpt lat="-20.424286939532355" lon="120.17898185212736"><ele>176.0</ele><time>2026-04-24T01:12:24Z</time></trkpt><trkpt lat="-20.423979531945328" lon="120.17903101393863"><ele>176.0</ele><time>2026-04-24T01:12:25Z</time></trkpt><trkpt lat="-20.423675098867008" lon="120.17908097625292"><ele>175.5</ele><time>2026-04-24T01:12:26Z</time></trkpt><trkpt lat="-20.42336620313879" lon="120.17913489080006"><ele>175.0</ele><time>2026-04-24T01:12:27Z</time></trkpt><trkpt lat="-20.42306325936876" lon="120.17918795273256"><ele>174.5</ele><time>2026-04-24T01:12:28Z</time></trkpt><trkpt lat="-20.422759838635983" lon="120.17924168138599"><ele>174.0</ele><time>2026-04-24T01:12:29Z</time></trkpt><trkpt lat="-20.422459597690942" lon="120.17929312867271"><ele>174.0</ele><time>2026-04-24T01:12:30Z</time></trkpt><trkpt lat="-20.42216374223907" lon="120.17934153526663"><ele>174.0</ele><time>2026-04-24T01:12:31Z</time></trkpt><trkpt lat="-20.42186663432808" lon="120.1793913231692"><ele>174.0</ele><time>2026-04-24T01:12:32Z</time></trkpt><trkpt lat="-20.4215696208702" lon="120.17944159101289"><ele>174.0</ele><time>2026-04-24T01:12:33Z</time></trkpt><trkpt lat="-20.421271146500963" lon="120.1794915793615"><ele>174.0</ele><time>2026-04-24T01:12:34Z</time></trkpt><trkpt lat="-20.420973425452875" lon="120.17954064549967"><ele>174.0</ele><time>2026-04-24T01:12:35Z</time></trkpt><trkpt lat="-20.42067923262698" lon="120.17958828233166"><ele>174.0</ele><time>2026-04-24T01:12:36Z</time></trkpt><trkpt lat="-20.42038418785614" lon="120.17963585910282"><ele>174.0</ele><time>2026-04-24T01:12:37Z</time></trkpt><trkpt lat="-20.42009277568267" lon="120.17968502313613"><ele>174.0</ele><time>2026-04-24T01:12:38Z</time></trkpt><trkpt lat="-20.41979760081157" lon="120.17973513104893"><ele>174.0</ele><time>2026-04-24T01:12:39Z</time></trkpt><trkpt lat="-20.41950116534185" lon="120.17978421462473"><ele>173.5</ele><time>2026-04-24T01:12:40Z</time></trkpt><trkpt lat="-20.419203197080588" lon="120.1798321467051"><ele>173.0</ele><time>2026-04-24T01:12:41Z</time></trkpt><trkpt lat="-20.41890361821979" lon="120.17988121300718"><ele>173.0</ele><time>2026-04-24T01:12:42Z</time></trkpt><trkpt lat="-20.418604591485057" lon="120.17992514487563"><ele>173.0</ele><time>2026-04-24T01:12:43Z</time></trkpt><trkpt lat="-20.418307116143882" lon="120.17997139729358"><ele>173.0</ele><time>2026-04-24T01:12:44Z</time></trkpt><trkpt lat="-20.41800697607753" lon="120.18002064401928"><ele>173.0</ele><time>2026-04-24T01:12:45Z</time></trkpt><trkpt lat="-20.417707459592148" lon="120.18006947727426"><ele>172.5</ele><time>2026-04-24T01:12:46Z</time></trkpt><trkpt lat="-20.41740453256047" lon="120.18011742568125"><ele>172.0</ele><time>2026-04-24T01:12:47Z</time></trkpt><trkpt lat="-20.417102720508833" lon="120.18016876748014"><ele>172.0</ele><time>2026-04-24T01:12:48Z</time></trkpt><trkpt lat="-20.416801996338716" lon="120.1802206525911"><ele>172.0</ele><time>2026-04-24T01:12:49Z</time></trkpt><trkpt lat="-20.416502909864406" lon="120.18027372230551"><ele>172.0</ele><time>2026-04-24T01:12:50Z</time></trkpt><trkpt lat="-20.41620237823671" lon="120.18032512874586"><ele>172.0</ele><time>2026-04-24T01:12:51Z</time></trkpt><trkpt lat="-20.415903651722342" lon="120.18037474878487"><ele>172.0</ele><time>2026-04-24T01:12:52Z</time></trkpt><trkpt lat="-20.415609682417585" lon="120.18042294062434"><ele>172.0</ele><time>2026-04-24T01:12:53Z</time></trkpt><trkpt lat="-20.415315405401206" lon="120.18047254199156"><ele>172.5</ele><time>2026-04-24T01:12:54Z</time></trkpt><trkpt lat="-20.415022253422" lon="120.18052247028736"><ele>173.0</ele><time>2026-04-24T01:12:55Z</time></trkpt><trkpt lat="-20.41472851806049" lon="120.18057471363399"><ele>172.5</ele><time>2026-04-24T01:12:56Z</time></trkpt><trkpt lat="-20.41443330933353" lon="120.1806252774602"><ele>172.0</ele><time>2026-04-24T01:12:57Z</time></trkpt><trkpt lat="-20.414135776396442" lon="120.1806788788456"><ele>172.0</ele><time>2026-04-24T01:12:58Z</time></trkpt><trkpt lat="-20.413841857614983" lon="120.18073096774195"><ele>172.0</ele><time>2026-04-24T01:12:59Z</time></trkpt><trkpt lat="-20.413545008609" lon="120.18078265513653"><ele>171.5</ele><time>2026-04-24T01:13:00Z</time></trkpt><trkpt lat="-20.41325114649787" lon="120.18083310241202"><ele>171.0</ele><time>2026-04-24T01:13:01Z</time></trkpt><trkpt lat="-20.412958244922788" lon="120.18088422949887"><ele>171.0</ele><time>2026-04-24T01:13:02Z</time></trkpt><trkpt lat="-20.412665730251973" lon="120.18093675983262"><ele>171.0</ele><time>2026-04-24T01:13:03Z</time></trkpt><trkpt lat="-20.41237170678774" lon="120.18099049690562"><ele>171.0</ele><time>2026-04-24T01:13:04Z</time></trkpt><trkpt lat="-20.412077020773392" lon="120.1810410415114"><ele>171.0</ele><time>2026-04-24T01:13:05Z</time></trkpt><trkpt lat="-20.411781010115842" lon="120.18109015979869"><ele>171.0</ele><time>2026-04-24T01:13:06Z</time></trkpt><trkpt lat="-20.41148555286811" lon="120.18114103215993"><ele>171.0</ele><time>2026-04-24T01:13:07Z</time></trkpt><trkpt lat="-20.411186081586344" lon="120.18119547340535"><ele>171.5</ele><time>2026-04-24T01:13:08Z</time></trkpt><trkpt lat="-20.410884495915237" lon="120.18124884346008"><ele>172.0</ele><time>2026-04-24T01:13:09Z</time></trkpt><trkpt lat="-20.41058183503616" lon="120.18129761291604"><ele>172.0</ele><time>2026-04-24T01:13:10Z</time></trkpt><trkpt lat="-20.41028246194091" lon="120.18134464064829"><ele>172.0</ele><time>2026-04-24T01:13:11Z</time></trkpt><trkpt lat="-20.409986443218987" lon="120.18138971939076"><ele>172.0</ele><time>2026-04-24T01:13:12Z</time></trkpt><trkpt lat="-20.409694565579894" lon="120.1814344561234"><ele>172.0</ele><time>2026-04-24T01:13:13Z</time></trkpt><trkpt lat="-20.4094059465177" lon="120.18148391307157"><ele>172.5</ele><time>2026-04-24T01:13:14Z</time></trkpt><trkpt lat="-20.409127850306323" lon="120.18153478847496"><ele>173.0</ele><time>2026-04-24T01:13:15Z</time></trkpt><trkpt lat="-20.408851284755407" lon="120.18159345027527"><ele>173.5</ele><time>2026-04-24T01:13:16Z</time></trkpt><trkpt lat="-20.40857984895984" lon="120.18166394329549"><ele>174.0</ele><time>2026-04-24T01:13:17Z</time></trkpt><trkpt lat="-20.408315475594" lon="120.18175121489709"><ele>174.0</ele><time>2026-04-24T01:13:18Z</time></trkpt><trkpt lat="-20.408046912946677" lon="120.18186269195128"><ele>174.0</ele><time>2026-04-24T01:13:19Z</time></trkpt><trkpt lat="-20.40778120041719" lon="120.18199126616702"><ele>173.5</ele><time>2026-04-24T01:13:20Z</time></trkpt><trkpt lat="-20.40751688337808" lon="120.18213229840586"><ele>173.0</ele><time>2026-04-24T01:13:21Z</time></trkpt><trkpt lat="-20.40725629732434" lon="120.18228270798663"><ele>173.5</ele><time>2026-04-24T01:13:22Z</time></trkpt><trkpt lat="-20.40700268715029" lon="120.18243305311738"><ele>174.0</ele><time>2026-04-24T01:13:23Z</time></trkpt><trkpt lat="-20.406754823338343" lon="120.18258795406095"><ele>174.0</ele><time>2026-04-24T01:13:24Z</time></trkpt><trkpt lat="-20.40651039608179" lon="120.18274095276136"><ele>174.0</ele><time>2026-04-24T01:13:25Z</time></trkpt><trkpt lat="-20.4062710605478" lon="120.18289444888784"><ele>174.0</ele><time>2026-04-24T01:13:26Z</time></trkpt><trkpt lat="-20.406033854637958" lon="120.18304631765257"><ele>174.0</ele><time>2026-04-24T01:13:27Z</time></trkpt><trkpt lat="-20.405797591835555" lon="120.18320127593418"><ele>174.0</ele><time>2026-04-24T01:13:28Z</time></trkpt><trkpt lat="-20.40556297088132" lon="120.18335854100228"><ele>174.0</ele><time>2026-04-24T01:13:29Z</time></trkpt><trkpt lat="-20.405330558819333" lon="120.18352022901841"><ele>174.0</ele><time>2026-04-24T01:13:30Z</time></trkpt><trkpt lat="-20.405100519253672" lon="120.18368388256873"><ele>174.0</ele><time>2026-04-24T01:13:31Z</time></trkpt><trkpt lat="-20.404868407608664" lon="120.18385538127991"><ele>174.5</ele><time>2026-04-24T01:13:32Z</time></trkpt><trkpt lat="-20.40464023256018" lon="120.18402542157735"><ele>175.0</ele><time>2026-04-24T01:13:33Z</time></trkpt><trkpt lat="-20.404412463222435" lon="120.18419610564065"><ele>175.0</ele><time>2026-04-24T01:13:34Z</time></trkpt><trkpt lat="-20.404178003911216" lon="120.18437230707436"><ele>175.0</ele><time>2026-04-24T01:13:35Z</time></trkpt><trkpt lat="-20.403944572291785" lon="120.184549709437"><ele>175.0</ele><time>2026-04-24T01:13:36Z</time></trkpt><trkpt lat="-20.40371711766651" lon="120.18473294350359"><ele>175.0</ele><time>2026-04-24T01:13:37Z</time></trkpt><trkpt lat="-20.403499251829498" lon="120.18491924465988"><ele>176.0</ele><time>2026-04-24T01:13:38Z</time></trkpt><trkpt lat="-20.40328847476604" lon="120.18511190018441"><ele>177.0</ele><time>2026-04-24T01:13:39Z</time></trkpt><trkpt lat="-20.403086225735198" lon="120.18531376099818"><ele>177.0</ele><time>2026-04-24T01:13:40Z</time></trkpt><trkpt lat="-20.402890355566804" lon="120.1855270090905"><ele>177.0</ele><time>2026-04-24T01:13:41Z</time></trkpt><trkpt lat="-20.40269639421489" lon="120.18574553640632"><ele>178.0</ele><time>2026-04-24T01:13:42Z</time></trkpt><trkpt lat="-20.402497922711206" lon="120.18596699797438"><ele>179.0</ele><time>2026-04-24T01:13:43Z</time></trkpt><trkpt lat="-20.402303977327026" lon="120.1861870773831"><ele>179.5</ele><time>2026-04-24T01:13:44Z</time></trkpt><trkpt lat="-20.402112255596183" lon="120.18640185403218"><ele>180.0</ele><time>2026-04-24T01:13:45Z</time></trkpt><trkpt lat="-20.40191662282469" lon="120.18661280020872"><ele>181.0</ele><time>2026-04-24T01:13:46Z</time></trkpt><trkpt lat="-20.401717285459625" lon="120.18681840785067"><ele>182.0</ele><time>2026-04-24T01:13:47Z</time></trkpt><trkpt lat="-20.401521393843947" lon="120.18701250335288"><ele>182.5</ele><time>2026-04-24T01:13:48Z</time></trkpt><trkpt lat="-20.401316790399544" lon="120.18719399337635"><ele>183.0</ele><time>2026-04-24T01:13:49Z</time></trkpt><trkpt lat="-20.40110634436696" lon="120.18735921665981"><ele>183.0</ele><time>2026-04-24T01:13:50Z</time></trkpt><trkpt lat="-20.400902389490238" lon="120.18749054270154"><ele>183.0</ele><time>2026-04-24T01:13:51Z</time></trkpt><trkpt lat="-20.40068231047219" lon="120.18758921261768"><ele>182.5</ele><time>2026-04-24T01:13:52Z</time></trkpt><trkpt lat="-20.400438291700063" lon="120.18766015193475"><ele>182.0</ele><time>2026-04-24T01:13:53Z</time></trkpt><trkpt lat="-20.400179661973098" lon="120.18771363069658"><ele>182.0</ele><time>2026-04-24T01:13:54Z</time></trkpt><trkpt lat="-20.399909412830034" lon="120.18775274008746"><ele>182.0</ele><time>2026-04-24T01:13:55Z</time></trkpt><trkpt lat="-20.399639046276963" lon="120.18779528380387"><ele>181.0</ele><time>2026-04-24T01:13:56Z</time></trkpt><trkpt lat="-20.399369625648557" lon="120.18784971769843"><ele>180.0</ele><time>2026-04-24T01:13:57Z</time></trkpt><trkpt lat="-20.399098550750356" lon="120.18791064138993"><ele>179.5</ele><time>2026-04-24T01:13:58Z</time></trkpt><trkpt lat="-20.39882287034047" lon="120.18797413085164"><ele>179.0</ele><time>2026-04-24T01:13:59Z</time></trkpt><trkpt lat="-20.398544388124453" lon="120.18803704519514"><ele>179.0</ele><time>2026-04-24T01:14:00Z</time></trkpt><trkpt lat="-20.3982629837635" lon="120.18810038439983"><ele>179.0</ele><time>2026-04-24T01:14:01Z</time></trkpt><trkpt lat="-20.397980377720405" lon="120.188163095452"><ele>178.5</ele><time>2026-04-24T01:14:02Z</time></trkpt><trkpt lat="-20.39769857234369" lon="120.1882272953546"><ele>178.0</ele><time>2026-04-24T01:14:03Z</time></trkpt><trkpt lat="-20.397413032492977" lon="120.18829107967937"><ele>177.0</ele><time>2026-04-24T01:14:04Z</time></trkpt><trkpt lat="-20.397126140254557" lon="120.1883535204162"><ele>176.0</ele><time>2026-04-24T01:14:05Z</time></trkpt><trkpt lat="-20.39683890821475" lon="120.18841986035262"><ele>176.0</ele><time>2026-04-24T01:14:06Z</time></trkpt><trkpt lat="-20.396553424672202" lon="120.18848457693979"><ele>176.0</ele><time>2026-04-24T01:14:07Z</time></trkpt><trkpt lat="-20.39626591855042" lon="120.18854831815212"><ele>177.0</ele><time>2026-04-24T01:14:08Z</time></trkpt><trkpt lat="-20.395974107426245" lon="120.18861434092905"><ele>178.0</ele><time>2026-04-24T01:14:09Z</time></trkpt><trkpt lat="-20.395681627154413" lon="120.1886813684366"><ele>178.5</ele><time>2026-04-24T01:14:10Z</time></trkpt><trkpt lat="-20.395386964963294" lon="120.1887484495446"><ele>179.0</ele><time>2026-04-24T01:14:11Z</time></trkpt><trkpt lat="-20.395088525734245" lon="120.18881359471588"><ele>179.0</ele><time>2026-04-24T01:14:12Z</time></trkpt><trkpt lat="-20.3947917990967" lon="120.1888777418345"><ele>179.0</ele><time>2026-04-24T01:14:13Z</time></trkpt><trkpt lat="-20.39449271885797" lon="120.1889439839352"><ele>178.0</ele><time>2026-04-24T01:14:14Z</time></trkpt><trkpt lat="-20.394193021388627" lon="120.18900925571624"><ele>177.0</ele><time>2026-04-24T01:14:15Z</time></trkpt><trkpt lat="-20.393889568144978" lon="120.18907545872085"><ele>178.5</ele><time>2026-04-24T01:14:16Z</time></trkpt><trkpt lat="-20.393586155521437" lon="120.18913815235992"><ele>180.0</ele><time>2026-04-24T01:14:17Z</time></trkpt><trkpt lat="-20.393277516211594" lon="120.18919885869497"><ele>180.0</ele><time>2026-04-24T01:14:18Z</time></trkpt><trkpt lat="-20.392970124429485" lon="120.18925692178651"><ele>180.0</ele><time>2026-04-24T01:14:19Z</time></trkpt><trkpt lat="-20.3926619251961" lon="120.18931061601566"><ele>180.0</ele><time>2026-04-24T01:14:20Z</time></trkpt><trkpt lat="-20.392351871455514" lon="120.18936320828863"><ele>180.0</ele><time>2026-04-24T01:14:21Z</time></trkpt><trkpt lat="-20.39204311394628" lon="120.18941090375677"><ele>179.5</ele><time>2026-04-24T01:14:22Z</time></trkpt><trkpt lat="-20.391734319976262" lon="120.18945259006738"><ele>179.0</ele><time>2026-04-24T01:14:23Z</time></trkpt><trkpt lat="-20.391427678443623" lon="120.18948527859145"><ele>178.5</ele><time>2026-04-24T01:14:24Z</time></trkpt><trkpt lat="-20.39111970927272" lon="120.18951531395308"><ele>178.0</ele><time>2026-04-24T01:14:25Z</time></trkpt><trkpt lat="-20.39081382273919" lon="120.18955014442558"><ele>178.0</ele><time>2026-04-24T01:14:26Z</time></trkpt><trkpt lat="-20.390505952480876" lon="120.18959158329471"><ele>178.0</ele><time>2026-04-24T01:14:27Z</time></trkpt><trkpt lat="-20.39020011736974" lon="120.18963006004006"><ele>178.0</ele><time>2026-04-24T01:14:28Z</time></trkpt><trkpt lat="-20.38989311081453" lon="120.1896698814798"><ele>178.0</ele><time>2026-04-24T01:14:29Z</time></trkpt><trkpt lat="-20.38958653395078" lon="120.18971164891474"><ele>177.5</ele><time>2026-04-24T01:14:30.001Z</time></trkpt><trkpt lat="-20.38928087315904" lon="120.18975253411408"><ele>177.0</ele><time>2026-04-24T01:14:31.001Z</time></trkpt><trkpt lat="-20.388972463451076" lon="120.18979062690183"><ele>177.0</ele><time>2026-04-24T01:14:32.001Z</time></trkpt><trkpt lat="-20.388658984584183" lon="120.18982645437765"><ele>177.0</ele><time>2026-04-24T01:14:33.001Z</time></trkpt><trkpt lat="-20.388355556866713" lon="120.18986139884348"><ele>175.5</ele><time>2026-04-24T01:14:34.001Z</time></trkpt><trkpt lat="-20.38805019475016" lon="120.18989056770212"><ele>174.0</ele><time>2026-04-24T01:14:35.001Z</time></trkpt><trkpt lat="-20.38774438505465" lon="120.18991221750635"><ele>173.0</ele><time>2026-04-24T01:14:36.001Z</time></trkpt><trkpt lat="-20.38743920591672" lon="120.18992510724338"><ele>172.0</ele><time>2026-04-24T01:14:37.001Z</time></trkpt><trkpt lat="-20.38713577523994" lon="120.18993479040203"><ele>172.0</ele><time>2026-04-24T01:14:38.001Z</time></trkpt><trkpt lat="-20.386831019335496" lon="120.1899406609174"><ele>172.0</ele><time>2026-04-24T01:14:39.001Z</time></trkpt><trkpt lat="-20.386521365855454" lon="120.18994034426095"><ele>171.5</ele><time>2026-04-24T01:14:40.001Z</time></trkpt><trkpt lat="-20.386213286793236" lon="120.18994097115784"><ele>171.0</ele><time>2026-04-24T01:14:41.001Z</time></trkpt><trkpt lat="-20.385902722433507" lon="120.18994264806865"><ele>171.0</ele><time>2026-04-24T01:14:42.001Z</time></trkpt><trkpt lat="-20.385592778863984" lon="120.18994320615452"><ele>171.0</ele><time>2026-04-24T01:14:43.001Z</time></trkpt><trkpt lat="-20.385287748184634" lon="120.18994320635404"><ele>170.0</ele><time>2026-04-24T01:14:44.001Z</time></trkpt><trkpt lat="-20.384980669852933" lon="120.18994519993335"><ele>169.0</ele><time>2026-04-24T01:14:45.001Z</time></trkpt><trkpt lat="-20.384673878542483" lon="120.18995261571268"><ele>169.0</ele><time>2026-04-24T01:14:46.001Z</time></trkpt><trkpt lat="-20.384368056413994" lon="120.18995742710118"><ele>169.0</ele><time>2026-04-24T01:14:47.001Z</time></trkpt><trkpt lat="-20.38406052810181" lon="120.18996194440132"><ele>168.5</ele><time>2026-04-24T01:14:48.001Z</time></trkpt><trkpt lat="-20.383755889233687" lon="120.18996252158009"><ele>168.0</ele><time>2026-04-24T01:14:49.001Z</time></trkpt><trkpt lat="-20.383452414238505" lon="120.18996312024872"><ele>168.0</ele><time>2026-04-24T01:14:50.001Z</time></trkpt><trkpt lat="-20.38314744334869" lon="120.18996608964035"><ele>168.0</ele><time>2026-04-24T01:14:51.001Z</time></trkpt><trkpt lat="-20.382841556664786" lon="120.1899707701112"><ele>168.5</ele><time>2026-04-24T01:14:52.001Z</time></trkpt><trkpt lat="-20.3825347991299" lon="120.18997734873756"><ele>169.0</ele><time>2026-04-24T01:14:53.001Z</time></trkpt><trkpt lat="-20.382228244029335" lon="120.18998317080748"><ele>168.5</ele><time>2026-04-24T01:14:54.001Z</time></trkpt><trkpt lat="-20.381918845294887" lon="120.18998716846743"><ele>168.0</ele><time>2026-04-24T01:14:55.001Z</time></trkpt><trkpt lat="-20.38160903901088" lon="120.18998704848198"><ele>167.5</ele><time>2026-04-24T01:14:56.001Z</time></trkpt><trkpt lat="-20.381299368533654" lon="120.18998792716003"><ele>167.0</ele><time>2026-04-24T01:14:57.001Z</time></trkpt><trkpt lat="-20.380987520629766" lon="120.1899893722678"><ele>167.0</ele><time>2026-04-24T01:14:58.001Z</time></trkpt><trkpt lat="-20.380679545518937" lon="120.18998595807642"><ele>167.0</ele><time>2026-04-24T01:14:59.001Z</time></trkpt><trkpt lat="-20.38037528110187" lon="120.189978116526"><ele>167.0</ele><time>2026-04-24T01:15:00.001Z</time></trkpt><trkpt lat="-20.38007500639874" lon="120.18996053146117"><ele>167.0</ele><time>2026-04-24T01:15:01.001Z</time></trkpt><trkpt lat="-20.379776298149977" lon="120.18993199427237"><ele>167.0</ele><time>2026-04-24T01:15:02.001Z</time></trkpt><trkpt lat="-20.379477434890674" lon="120.18988774616837"><ele>167.0</ele><time>2026-04-24T01:15:03.001Z</time></trkpt><trkpt lat="-20.37918025776519" lon="120.18983142645813"><ele>168.0</ele><time>2026-04-24T01:15:04.001Z</time></trkpt><trkpt lat="-20.378881359787314" lon="120.18976511286536"><ele>169.0</ele><time>2026-04-24T01:15:05.001Z</time></trkpt><trkpt lat="-20.378583761953397" lon="120.18969376599821"><ele>169.0</ele><time>2026-04-24T01:15:06.001Z</time></trkpt><trkpt lat="-20.378285954326415" lon="120.18962735651253"><ele>169.0</ele><time>2026-04-24T01:15:07.001Z</time></trkpt><trkpt lat="-20.37798684899135" lon="120.18955689404005"><ele>168.0</ele><time>2026-04-24T01:15:08.001Z</time></trkpt><trkpt lat="-20.377686112654043" lon="120.189484798442"><ele>167.0</ele><time>2026-04-24T01:15:09.001Z</time></trkpt><trkpt lat="-20.377383544441688" lon="120.18940740788115"><ele>166.5</ele><time>2026-04-24T01:15:10.001Z</time></trkpt><trkpt lat="-20.37708373760494" lon="120.18933049091302"><ele>166.0</ele><time>2026-04-24T01:15:11.001Z</time></trkpt><trkpt lat="-20.37678299522211" lon="120.18925557345257"><ele>166.0</ele><time>2026-04-24T01:15:12.001Z</time></trkpt><trkpt lat="-20.37648435251756" lon="120.18918145347644"><ele>166.0</ele><time>2026-04-24T01:15:13.001Z</time></trkpt><trkpt lat="-20.376185954267374" lon="120.18910911036933"><ele>166.5</ele><time>2026-04-24T01:15:14.001Z</time></trkpt><trkpt lat="-20.37588984636825" lon="120.18903583073732"><ele>167.0</ele><time>2026-04-24T01:15:15.001Z</time></trkpt><trkpt lat="-20.37559047300718" lon="120.1889622436947"><ele>165.5</ele><time>2026-04-24T01:15:16.001Z</time></trkpt><trkpt lat="-20.375291456787348" lon="120.1888885061171"><ele>164.0</ele><time>2026-04-24T01:15:17.001Z</time></trkpt><trkpt lat="-20.374988496092676" lon="120.18881489319678"><ele>164.0</ele><time>2026-04-24T01:15:18.001Z</time></trkpt><trkpt lat="-20.37468368636748" lon="120.18874052286925"><ele>164.0</ele><time>2026-04-24T01:15:19.001Z</time></trkpt><trkpt lat="-20.374379279930235" lon="120.18866359013478"><ele>164.0</ele><time>2026-04-24T01:15:20.001Z</time></trkpt><trkpt lat="-20.374072622027043" lon="120.18858576124227"><ele>164.0</ele><time>2026-04-24T01:15:21.001Z</time></trkpt><trkpt lat="-20.373768737654256" lon="120.18851075311119"><ele>164.0</ele><time>2026-04-24T01:15:22.001Z</time></trkpt><trkpt lat="-20.373459738643348" lon="120.18843352572588"><ele>164.0</ele><time>2026-04-24T01:15:23.001Z</time></trkpt><trkpt lat="-20.373153922135923" lon="120.18835589665295"><ele>163.5</ele><time>2026-04-24T01:15:24.001Z</time></trkpt><trkpt lat="-20.37284811965268" lon="120.18827973475472"><ele>163.0</ele><time>2026-04-24T01:15:25.001Z</time></trkpt><trkpt lat="-20.37253947549872" lon="120.18820245448289"><ele>163.0</ele><time>2026-04-24T01:15:26.001Z</time></trkpt><trkpt lat="-20.37223559173973" lon="120.18812437708442"><ele>163.0</ele><time>2026-04-24T01:15:27.001Z</time></trkpt><trkpt lat="-20.37193558064742" lon="120.18804290962896"><ele>163.5</ele><time>2026-04-24T01:15:28.001Z</time></trkpt><trkpt lat="-20.371631791558467" lon="120.18796178313715"><ele>164.0</ele><time>2026-04-24T01:15:29.001Z</time></trkpt><trkpt lat="-20.371323721090683" lon="120.18788445171882"><ele>163.0</ele><time>2026-04-24T01:15:30.001Z</time></trkpt><trkpt lat="-20.371018237868263" lon="120.18780569872473"><ele>162.0</ele><time>2026-04-24T01:15:31.001Z</time></trkpt><trkpt lat="-20.370716148430827" lon="120.18772411878439"><ele>162.0</ele><time>2026-04-24T01:15:32.001Z</time></trkpt><trkpt lat="-20.370412526295915" lon="120.18764127468971"><ele>162.0</ele><time>2026-04-24T01:15:33.001Z</time></trkpt><trkpt lat="-20.37011248992821" lon="120.18756029003832"><ele>162.0</ele><time>2026-04-24T01:15:34.001Z</time></trkpt><trkpt lat="-20.36981017799077" lon="120.18748516400862"><ele>162.0</ele><time>2026-04-24T01:15:35.001Z</time></trkpt><trkpt lat="-20.369506141597572" lon="120.18740988019694"><ele>161.5</ele><time>2026-04-24T01:15:36.001Z</time></trkpt><trkpt lat="-20.369197405589286" lon="120.1873358868368"><ele>161.0</ele><time>2026-04-24T01:15:37.001Z</time></trkpt><trkpt lat="-20.368888642862878" lon="120.18726362124558"><ele>160.5</ele><time>2026-04-24T01:15:38.001Z</time></trkpt><trkpt lat="-20.368583577791988" lon="120.18719176622912"><ele>160.0</ele><time>2026-04-24T01:15:39.001Z</time></trkpt><trkpt lat="-20.36828533432686" lon="120.18711893902247"><ele>161.0</ele><time>2026-04-24T01:15:40.001Z</time></trkpt><trkpt lat="-20.367991388864226" lon="120.18704928867375"><ele>162.0</ele><time>2026-04-24T01:15:41.001Z</time></trkpt><trkpt lat="-20.367713415414862" lon="120.18699092998982"><ele>162.0</ele><time>2026-04-24T01:15:42.001Z</time></trkpt><trkpt lat="-20.367448712776806" lon="120.18694773280781"><ele>162.0</ele><time>2026-04-24T01:15:43.001Z</time></trkpt><trkpt lat="-20.36718628784295" lon="120.18691820896757"><ele>161.5</ele><time>2026-04-24T01:15:44.001Z</time></trkpt><trkpt lat="-20.366924512531494" lon="120.18691732661291"><ele>161.0</ele><time>2026-04-24T01:15:45.001Z</time></trkpt><trkpt lat="-20.366650171772314" lon="120.18692916243754"><ele>161.0</ele><time>2026-04-24T01:15:46.001Z</time></trkpt><trkpt lat="-20.36637009522756" lon="120.1869513700567"><ele>161.0</ele><time>2026-04-24T01:15:47.001Z</time></trkpt><trkpt lat="-20.366083487725334" lon="120.18697932142909"><ele>160.5</ele><time>2026-04-24T01:15:48.001Z</time></trkpt><trkpt lat="-20.365794855272895" lon="120.18700895982839"><ele>160.0</ele><time>2026-04-24T01:15:49.001Z</time></trkpt><trkpt lat="-20.36550809963578" lon="120.18703867420594"><ele>159.0</ele><time>2026-04-24T01:15:50.001Z</time></trkpt><trkpt lat="-20.36521787771097" lon="120.18706843591144"><ele>158.0</ele><time>2026-04-24T01:15:51.001Z</time></trkpt><trkpt lat="-20.36492532853608" lon="120.18710160374033"><ele>157.5</ele><time>2026-04-24T01:15:52.001Z</time></trkpt><trkpt lat="-20.36463283981048" lon="120.18713828520788"><ele>157.0</ele><time>2026-04-24T01:15:53.001Z</time></trkpt><trkpt lat="-20.36433978617985" lon="120.18717823923096"><ele>157.0</ele><time>2026-04-24T01:15:54.001Z</time></trkpt><trkpt lat="-20.364045946849956" lon="120.1872195118717"><ele>157.0</ele><time>2026-04-24T01:15:55.001Z</time></trkpt><trkpt lat="-20.363754208474475" lon="120.18726971992723"><ele>157.0</ele><time>2026-04-24T01:15:56.001Z</time></trkpt><trkpt lat="-20.36346080894906" lon="120.18731941507586"><ele>157.0</ele><time>2026-04-24T01:15:57.001Z</time></trkpt><trkpt lat="-20.363166012179676" lon="120.18736969348589"><ele>156.5</ele><time>2026-04-24T01:15:58.001Z</time></trkpt><trkpt lat="-20.36287336742255" lon="120.1874195156268"><ele>156.0</ele><time>2026-04-24T01:15:59.001Z</time></trkpt><trkpt lat="-20.362582131775515" lon="120.18746796349257"><ele>156.0</ele><time>2026-04-24T01:16:00.001Z</time></trkpt><trkpt lat="-20.362290543315304" lon="120.1875157747504"><ele>156.0</ele><time>2026-04-24T01:16:01.001Z</time></trkpt><trkpt lat="-20.362000895395" lon="120.18756165140262"><ele>155.5</ele><time>2026-04-24T01:16:02.001Z</time></trkpt><trkpt lat="-20.36171149495859" lon="120.1876046220384"><ele>155.0</ele><time>2026-04-24T01:16:03.001Z</time></trkpt><trkpt lat="-20.361424881978326" lon="120.1876440511925"><ele>155.0</ele><time>2026-04-24T01:16:04.001Z</time></trkpt><trkpt lat="-20.361139089810838" lon="120.1876878510736"><ele>155.0</ele><time>2026-04-24T01:16:05.001Z</time></trkpt><trkpt lat="-20.3608572232796" lon="120.18773308279192"><ele>155.0</ele><time>2026-04-24T01:16:06.001Z</time></trkpt><trkpt lat="-20.36056673445743" lon="120.18778041121969"><ele>155.0</ele><time>2026-04-24T01:16:07.001Z</time></trkpt><trkpt lat="-20.360272161226582" lon="120.18783074116016"><ele>155.0</ele><time>2026-04-24T01:16:08.001Z</time></trkpt><trkpt lat="-20.35997833210036" lon="120.18788215082432"><ele>155.0</ele><time>2026-04-24T01:16:09.001Z</time></trkpt><trkpt lat="-20.359686948804224" lon="120.18793313482657"><ele>155.0</ele><time>2026-04-24T01:16:10.001Z</time></trkpt><trkpt lat="-20.359395727137255" lon="120.18798434114899"><ele>155.0</ele><time>2026-04-24T01:16:11.001Z</time></trkpt><trkpt lat="-20.359105710386896" lon="120.18804030563226"><ele>155.0</ele><time>2026-04-24T01:16:12.001Z</time></trkpt><trkpt lat="-20.358814225523048" lon="120.18809417366029"><ele>155.0</ele><time>2026-04-24T01:16:13.001Z</time></trkpt><trkpt lat="-20.358524069024156" lon="120.18814901829522"><ele>154.5</ele><time>2026-04-24T01:16:14.001Z</time></trkpt><trkpt lat="-20.358230805593443" lon="120.18820389422058"><ele>154.0</ele><time>2026-04-24T01:16:15.001Z</time></trkpt><trkpt lat="-20.357939435790254" lon="120.18826292346643"><ele>154.0</ele><time>2026-04-24T01:16:16.001Z</time></trkpt><trkpt lat="-20.35764810408222" lon="120.18832204267153"><ele>154.0</ele><time>2026-04-24T01:16:17.001Z</time></trkpt><trkpt lat="-20.35736056264165" lon="120.18838353334513"><ele>154.0</ele><time>2026-04-24T01:16:18.001Z</time></trkpt><trkpt lat="-20.357070258560082" lon="120.18844484387144"><ele>154.0</ele><time>2026-04-24T01:16:19.001Z</time></trkpt><trkpt lat="-20.356785744649702" lon="120.18850225308782"><ele>154.0</ele><time>2026-04-24T01:16:20.001Z</time></trkpt><trkpt lat="-20.35649988801214" lon="120.18855204988701"><ele>154.0</ele><time>2026-04-24T01:16:21.001Z</time></trkpt><trkpt lat="-20.356216459453503" lon="120.18860044576584"><ele>154.5</ele><time>2026-04-24T01:16:22.001Z</time></trkpt><trkpt lat="-20.355929914332382" lon="120.18865159376196"><ele>155.0</ele><time>2026-04-24T01:16:23.001Z</time></trkpt><trkpt lat="-20.35564767606074" lon="120.1887009201988"><ele>154.0</ele><time>2026-04-24T01:16:24.001Z</time></trkpt><trkpt lat="-20.35536976358781" lon="120.18875246941212"><ele>153.0</ele><time>2026-04-24T01:16:25.001Z</time></trkpt><trkpt lat="-20.355088493212296" lon="120.18880447442719"><ele>153.0</ele><time>2026-04-24T01:16:26.001Z</time></trkpt><trkpt lat="-20.354801239909307" lon="120.18885561226345"><ele>153.0</ele><time>2026-04-24T01:16:27.001Z</time></trkpt><trkpt lat="-20.354513528949706" lon="120.18890679780176"><ele>153.0</ele><time>2026-04-24T01:16:28.001Z</time></trkpt><trkpt lat="-20.354225115124095" lon="120.18895652709355"><ele>153.0</ele><time>2026-04-24T01:16:29.001Z</time></trkpt><trkpt lat="-20.353935119744357" lon="120.18900715167213"><ele>153.0</ele><time>2026-04-24T01:16:30.001Z</time></trkpt><trkpt lat="-20.353643001626544" lon="120.18905794713426"><ele>153.0</ele><time>2026-04-24T01:16:31.001Z</time></trkpt><trkpt lat="-20.353344388740997" lon="120.18910919682584"><ele>153.0</ele><time>2026-04-24T01:16:32.001Z</time></trkpt><trkpt lat="-20.35304608520946" lon="120.18916085132967"><ele>153.0</ele><time>2026-04-24T01:16:33.001Z</time></trkpt><trkpt lat="-20.352749458914786" lon="120.18921175326109"><ele>152.5</ele><time>2026-04-24T01:16:34.001Z</time></trkpt><trkpt lat="-20.35245277383767" lon="120.1892632040942"><ele>152.0</ele><time>2026-04-24T01:16:35.001Z</time></trkpt><trkpt lat="-20.35215859736065" lon="120.18931412413185"><ele>152.0</ele><time>2026-04-24T01:16:36.001Z</time></trkpt><trkpt lat="-20.351866390951614" lon="120.18936621757015"><ele>152.0</ele><time>2026-04-24T01:16:37.001Z</time></trkpt><trkpt lat="-20.351575388690275" lon="120.18941757505686"><ele>152.5</ele><time>2026-04-24T01:16:38.001Z</time></trkpt><trkpt lat="-20.351284572611178" lon="120.18946826084684"><ele>153.0</ele><time>2026-04-24T01:16:39.001Z</time></trkpt><trkpt lat="-20.350994905263814" lon="120.18951753352589"><ele>153.0</ele><time>2026-04-24T01:16:40.001Z</time></trkpt><trkpt lat="-20.350701649812095" lon="120.18956581613993"><ele>153.0</ele><time>2026-04-24T01:16:41.001Z</time></trkpt><trkpt lat="-20.350409109996306" lon="120.18961456170639"><ele>152.5</ele><time>2026-04-24T01:16:42.001Z</time></trkpt><trkpt lat="-20.350112079305056" lon="120.18966691620993"><ele>152.0</ele><time>2026-04-24T01:16:43.001Z</time></trkpt><trkpt lat="-20.349812008672853" lon="120.18972361854776"><ele>152.5</ele><time>2026-04-24T01:16:44.001Z</time></trkpt><trkpt lat="-20.34951494326596" lon="120.18978150993485"><ele>153.0</ele><time>2026-04-24T01:16:45.001Z</time></trkpt><trkpt lat="-20.349217158808244" lon="120.18984032209384"><ele>153.5</ele><time>2026-04-24T01:16:46.001Z</time></trkpt><trkpt lat="-20.348923398792422" lon="120.18989475981456"><ele>154.0</ele><time>2026-04-24T01:16:47.001Z</time></trkpt><trkpt lat="-20.348627281135393" lon="120.18995155151201"><ele>154.0</ele><time>2026-04-24T01:16:48.001Z</time></trkpt><trkpt lat="-20.348331337469197" lon="120.19000564285318"><ele>154.0</ele><time>2026-04-24T01:16:49.001Z</time></trkpt><trkpt lat="-20.34803570150814" lon="120.19005809048684"><ele>153.5</ele><time>2026-04-24T01:16:50.001Z</time></trkpt><trkpt lat="-20.347736851662127" lon="120.19011276866362"><ele>153.0</ele><time>2026-04-24T01:16:51.001Z</time></trkpt><trkpt lat="-20.347438354537697" lon="120.19016496973941"><ele>152.5</ele><time>2026-04-24T01:16:52.001Z</time></trkpt><trkpt lat="-20.347138336052375" lon="120.19021841426323"><ele>152.0</ele><time>2026-04-24T01:16:53.001Z</time></trkpt><trkpt lat="-20.34683456520907" lon="120.19027023162309"><ele>152.0</ele><time>2026-04-24T01:16:54.001Z</time></trkpt><trkpt lat="-20.346534105266954" lon="120.19032686270019"><ele>152.0</ele><time>2026-04-24T01:16:55.001Z</time></trkpt><trkpt lat="-20.346233925770452" lon="120.1903818505556"><ele>151.5</ele><time>2026-04-24T01:16:56.001Z</time></trkpt><trkpt lat="-20.34593438112778" lon="120.19043572472859"><ele>151.0</ele><time>2026-04-24T01:16:57.001Z</time></trkpt><trkpt lat="-20.345637456340956" lon="120.19048735147287"><ele>151.5</ele><time>2026-04-24T01:16:58.001Z</time></trkpt><trkpt lat="-20.345339188959517" lon="120.19053799598777"><ele>152.0</ele><time>2026-04-24T01:16:59.001Z</time></trkpt><trkpt lat="-20.345036663831564" lon="120.19059091022078"><ele>152.0</ele><time>2026-04-24T01:17:00.001Z</time></trkpt><trkpt lat="-20.344731494446144" lon="120.19064468269963"><ele>152.0</ele><time>2026-04-24T01:17:01.001Z</time></trkpt><trkpt lat="-20.344424014768144" lon="120.1906978086414"><ele>152.5</ele><time>2026-04-24T01:17:02.001Z</time></trkpt><trkpt lat="-20.34411993980406" lon="120.19075386864571"><ele>153.0</ele><time>2026-04-24T01:17:03.001Z</time></trkpt><trkpt lat="-20.343811663112728" lon="120.19079092675857"><ele>153.0</ele><time>2026-04-24T01:17:04.001Z</time></trkpt><trkpt lat="-20.343508119342363" lon="120.19085959742668"><ele>153.0</ele><time>2026-04-24T01:17:05.001Z</time></trkpt><trkpt lat="-20.343205368223437" lon="120.19091479373938"><ele>152.5</ele><time>2026-04-24T01:17:06.001Z</time></trkpt><trkpt lat="-20.34289961400614" lon="120.19096790229602"><ele>152.0</ele><time>2026-04-24T01:17:07.001Z</time></trkpt><trkpt lat="-20.34259477777202" lon="120.19102365630128"><ele>152.0</ele><time>2026-04-24T01:17:08.001Z</time></trkpt><trkpt lat="-20.34229263309707" lon="120.19107712957357"><ele>152.0</ele><time>2026-04-24T01:17:09.001Z</time></trkpt><trkpt lat="-20.341994189830174" lon="120.19112870173826"><ele>152.0</ele><time>2026-04-24T01:17:10.001Z</time></trkpt><trkpt lat="-20.34169793153034" lon="120.1911805297164"><ele>152.0</ele><time>2026-04-24T01:17:11.001Z</time></trkpt><trkpt lat="-20.341405531838515" lon="120.19123064680791"><ele>151.5</ele><time>2026-04-24T01:17:12.001Z</time></trkpt><trkpt lat="-20.341114054892806" lon="120.1912789024713"><ele>151.0</ele><time>2026-04-24T01:17:13.001Z</time></trkpt><trkpt lat="-20.34082282487148" lon="120.1913308195409"><ele>151.5</ele><time>2026-04-24T01:17:14.001Z</time></trkpt><trkpt lat="-20.340533041643436" lon="120.19138386835995"><ele>152.0</ele><time>2026-04-24T01:17:15.001Z</time></trkpt><trkpt lat="-20.340240047348978" lon="120.19143926251947"><ele>152.0</ele><time>2026-04-24T01:17:16.001Z</time></trkpt><trkpt lat="-20.339944942523495" lon="120.19149219414668"><ele>152.0</ele><time>2026-04-24T01:17:17.001Z</time></trkpt><trkpt lat="-20.33964841967257" lon="120.19154217494528"><ele>152.5</ele><time>2026-04-24T01:17:18.001Z</time></trkpt><trkpt lat="-20.339353303036717" lon="120.19158878663092"><ele>153.0</ele><time>2026-04-24T01:17:19.001Z</time></trkpt><trkpt lat="-20.33905475424457" lon="120.19163682664859"><ele>152.5</ele><time>2026-04-24T01:17:20.001Z</time></trkpt><trkpt lat="-20.33875856942739" lon="120.19168794115761"><ele>152.0</ele><time>2026-04-24T01:17:21.001Z</time></trkpt><trkpt lat="-20.338459090810257" lon="120.19174027449819"><ele>152.0</ele><time>2026-04-24T01:17:22.001Z</time></trkpt><trkpt lat="-20.33816056828439" lon="120.19178998094131"><ele>152.0</ele><time>2026-04-24T01:17:23.001Z</time></trkpt><trkpt lat="-20.337863764785713" lon="120.19184013828276"><ele>151.5</ele><time>2026-04-24T01:17:24.001Z</time></trkpt><trkpt lat="-20.337566578324875" lon="120.19189065589673"><ele>151.0</ele><time>2026-04-24T01:17:25.001Z</time></trkpt><trkpt lat="-20.337267514619196" lon="120.19194072330805"><ele>151.0</ele><time>2026-04-24T01:17:26.001Z</time></trkpt><trkpt lat="-20.336970852873428" lon="120.19198766301677"><ele>151.0</ele><time>2026-04-24T01:17:27.001Z</time></trkpt><trkpt lat="-20.336675486069513" lon="120.19203480974743"><ele>150.5</ele><time>2026-04-24T01:17:28.001Z</time></trkpt><trkpt lat="-20.336378319614074" lon="120.19208455347025"><ele>150.0</ele><time>2026-04-24T01:17:29.001Z</time></trkpt><trkpt lat="-20.336080098866915" lon="120.19213578582377"><ele>150.0</ele><time>2026-04-24T01:17:30.001Z</time></trkpt><trkpt lat="-20.335781802889493" lon="120.19218620753483"><ele>150.0</ele><time>2026-04-24T01:17:31.001Z</time></trkpt><trkpt lat="-20.335483689728534" lon="120.19223130568801"><ele>150.5</ele><time>2026-04-24T01:17:32.001Z</time></trkpt><trkpt lat="-20.33518744070502" lon="120.19228164609075"><ele>151.0</ele><time>2026-04-24T01:17:33.001Z</time></trkpt><trkpt lat="-20.33488963891608" lon="120.19233390961912"><ele>151.0</ele><time>2026-04-24T01:17:34.001Z</time></trkpt><trkpt lat="-20.334591968561238" lon="120.19238570561373"><ele>151.0</ele><time>2026-04-24T01:17:35.001Z</time></trkpt><trkpt lat="-20.334292954285168" lon="120.19243721068693"><ele>151.0</ele><time>2026-04-24T01:17:36.001Z</time></trkpt><trkpt lat="-20.33399349593734" lon="120.19248913161567"><ele>151.0</ele><time>2026-04-24T01:17:37.001Z</time></trkpt><trkpt lat="-20.33369550552471" lon="120.19253879004191"><ele>151.0</ele><time>2026-04-24T01:17:38.001Z</time></trkpt><trkpt lat="-20.33339331796059" lon="120.19258778451807"><ele>151.0</ele><time>2026-04-24T01:17:39.001Z</time></trkpt><trkpt lat="-20.333091962040175" lon="120.19263309119822"><ele>151.0</ele><time>2026-04-24T01:17:40.001Z</time></trkpt><trkpt lat="-20.33278959303327" lon="120.19267956935614"><ele>151.0</ele><time>2026-04-24T01:17:41.001Z</time></trkpt><trkpt lat="-20.33248649670357" lon="120.19272456960705"><ele>150.0</ele><time>2026-04-24T01:17:42.001Z</time></trkpt><trkpt lat="-20.3321866289543" lon="120.19277290842543"><ele>149.0</ele><time>2026-04-24T01:17:43.001Z</time></trkpt><trkpt lat="-20.331886676497597" lon="120.1928195064239"><ele>149.0</ele><time>2026-04-24T01:17:44.001Z</time></trkpt><trkpt lat="-20.331585002627552" lon="120.19286669536328"><ele>149.0</ele><time>2026-04-24T01:17:45.001Z</time></trkpt><trkpt lat="-20.33128562928731" lon="120.19291796730491"><ele>149.5</ele><time>2026-04-24T01:17:46.001Z</time></trkpt><trkpt lat="-20.33098214906457" lon="120.19297219926116"><ele>150.0</ele><time>2026-04-24T01:17:47.001Z</time></trkpt><trkpt lat="-20.330679454545212" lon="120.19302697353024"><ele>149.0</ele><time>2026-04-24T01:17:48.001Z</time></trkpt><trkpt lat="-20.330379842391405" lon="120.19307728605116"><ele>148.0</ele><time>2026-04-24T01:17:49.001Z</time></trkpt><trkpt lat="-20.330076950207687" lon="120.1931262714494"><ele>148.0</ele><time>2026-04-24T01:17:50.001Z</time></trkpt><trkpt lat="-20.329776383165072" lon="120.19317638623718"><ele>148.0</ele><time>2026-04-24T01:17:51.001Z</time></trkpt><trkpt lat="-20.3294741527925" lon="120.19322605751164"><ele>148.0</ele><time>2026-04-24T01:17:52.001Z</time></trkpt><trkpt lat="-20.3291719393119" lon="120.19327674358738"><ele>148.0</ele><time>2026-04-24T01:17:53.001Z</time></trkpt><trkpt lat="-20.32886805103981" lon="120.19332887187879"><ele>149.0</ele><time>2026-04-24T01:17:54.001Z</time></trkpt><trkpt lat="-20.328569612929442" lon="120.193379952308"><ele>150.0</ele><time>2026-04-24T01:17:55.001Z</time></trkpt><trkpt lat="-20.32827018321045" lon="120.19342838927938"><ele>149.0</ele><time>2026-04-24T01:17:56.001Z</time></trkpt><trkpt lat="-20.32797070456781" lon="120.19347662358744"><ele>148.0</ele><time>2026-04-24T01:17:57.001Z</time></trkpt><trkpt lat="-20.327673379046796" lon="120.19352441775969"><ele>148.0</ele><time>2026-04-24T01:17:58.001Z</time></trkpt><trkpt lat="-20.327376665942186" lon="120.19357368891383"><ele>148.0</ele><time>2026-04-24T01:17:59.001Z</time></trkpt><trkpt lat="-20.32708194075652" lon="120.1936241715916"><ele>148.5</ele><time>2026-04-24T01:18:00.001Z</time></trkpt><trkpt lat="-20.326785368657504" lon="120.19367423122969"><ele>149.0</ele><time>2026-04-24T01:18:01.001Z</time></trkpt><trkpt lat="-20.32648870343352" lon="120.19372040814588"><ele>148.5</ele><time>2026-04-24T01:18:02.001Z</time></trkpt><trkpt lat="-20.326188378366318" lon="120.19377019525713"><ele>148.0</ele><time>2026-04-24T01:18:03.001Z</time></trkpt><trkpt lat="-20.325883060938366" lon="120.19382201589578"><ele>148.0</ele><time>2026-04-24T01:18:04.001Z</time></trkpt><trkpt lat="-20.325581263103626" lon="120.19387662061621"><ele>148.0</ele><time>2026-04-24T01:18:05.001Z</time></trkpt><trkpt lat="-20.325279639257662" lon="120.19393356824841"><ele>147.5</ele><time>2026-04-24T01:18:06.001Z</time></trkpt><trkpt lat="-20.32497706957258" lon="120.19399232972548"><ele>147.0</ele><time>2026-04-24T01:18:07.001Z</time></trkpt><trkpt lat="-20.32467909875854" lon="120.19404890282603"><ele>148.0</ele><time>2026-04-24T01:18:08.001Z</time></trkpt><trkpt lat="-20.324386043554693" lon="120.19410460302264"><ele>149.0</ele><time>2026-04-24T01:18:09.001Z</time></trkpt><trkpt lat="-20.324090039400236" lon="120.19416088186824"><ele>149.0</ele><time>2026-04-24T01:18:10.001Z</time></trkpt><trkpt lat="-20.32379729516921" lon="120.19421715044093"><ele>149.0</ele><time>2026-04-24T01:18:11.001Z</time></trkpt><trkpt lat="-20.323509196309796" lon="120.19427570611816"><ele>149.0</ele><time>2026-04-24T01:18:12.001Z</time></trkpt><trkpt lat="-20.323229797197094" lon="120.19433111715558"><ele>149.0</ele><time>2026-04-24T01:18:13.001Z</time></trkpt><trkpt lat="-20.322968131337557" lon="120.19438518933197"><ele>149.0</ele><time>2026-04-24T01:18:14.001Z</time></trkpt><trkpt lat="-20.322702717671906" lon="120.19443498262632"><ele>149.0</ele><time>2026-04-24T01:18:15.001Z</time></trkpt><trkpt lat="-20.322435025357606" lon="120.19447728364756"><ele>149.0</ele><time>2026-04-24T01:18:16.001Z</time></trkpt><trkpt lat="-20.32217249197106" lon="120.19452440686908"><ele>149.0</ele><time>2026-04-24T01:18:17.001Z</time></trkpt><trkpt lat="-20.321917445859857" lon="120.19458087403032"><ele>149.0</ele><time>2026-04-24T01:18:18.001Z</time></trkpt><trkpt lat="-20.321665325025165" lon="120.19464133594447"><ele>149.0</ele><time>2026-04-24T01:18:19.001Z</time></trkpt><trkpt lat="-20.32141638031889" lon="120.1947088176404"><ele>150.0</ele><time>2026-04-24T01:18:20.001Z</time></trkpt><trkpt lat="-20.321170250085444" lon="120.1947838664615"><ele>151.0</ele><time>2026-04-24T01:18:21.001Z</time></trkpt><trkpt lat="-20.32092632473017" lon="120.19486138437767"><ele>152.5</ele><time>2026-04-24T01:18:22.001Z</time></trkpt><trkpt lat="-20.320685340864234" lon="120.19494171667716"><ele>154.0</ele><time>2026-04-24T01:18:23.001Z</time></trkpt><trkpt lat="-20.32044325900293" lon="120.19502481792358"><ele>154.5</ele><time>2026-04-24T01:18:24.001Z</time></trkpt><trkpt lat="-20.320206307792354" lon="120.19510891598802"><ele>155.0</ele><time>2026-04-24T01:18:25.001Z</time></trkpt><trkpt lat="-20.319958839149443" lon="120.19520460079426"><ele>154.0</ele><time>2026-04-24T01:18:26.001Z</time></trkpt><trkpt lat="-20.31970926409736" lon="120.1953105083374"><ele>153.0</ele><time>2026-04-24T01:18:27.001Z</time></trkpt><trkpt lat="-20.31946440358066" lon="120.19542680735815"><ele>153.0</ele><time>2026-04-24T01:18:28.001Z</time></trkpt><trkpt lat="-20.31922026220004" lon="120.1955476010365"><ele>153.0</ele><time>2026-04-24T01:18:29.001Z</time></trkpt><trkpt lat="-20.318974519016866" lon="120.19567178345851"><ele>152.0</ele><time>2026-04-24T01:18:30.001Z</time></trkpt><trkpt lat="-20.318730362120846" lon="120.19579553388365"><ele>151.0</ele><time>2026-04-24T01:18:31.001Z</time></trkpt><trkpt lat="-20.3184859858849" lon="120.19591825954501"><ele>151.0</ele><time>2026-04-24T01:18:32.001Z</time></trkpt><trkpt lat="-20.318241620862754" lon="120.19604407526934"><ele>151.0</ele><time>2026-04-24T01:18:33.001Z</time></trkpt><trkpt lat="-20.317997679829332" lon="120.1961703925977"><ele>150.5</ele><time>2026-04-24T01:18:34.001Z</time></trkpt><trkpt lat="-20.317747227760616" lon="120.1962984183946"><ele>150.0</ele><time>2026-04-24T01:18:35.001Z</time></trkpt><trkpt lat="-20.31749902874476" lon="120.19642682201199"><ele>150.5</ele><time>2026-04-24T01:18:36.001Z</time></trkpt><trkpt lat="-20.31724837524003" lon="120.196557105878"><ele>151.0</ele><time>2026-04-24T01:18:37.001Z</time></trkpt><trkpt lat="-20.316996707520307" lon="120.19668326205971"><ele>149.5</ele><time>2026-04-24T01:18:38.001Z</time></trkpt><trkpt lat="-20.316749873179837" lon="120.19680727874409"><ele>148.0</ele><time>2026-04-24T01:18:39.001Z</time></trkpt><trkpt lat="-20.316505826611607" lon="120.19693395274899"><ele>147.5</ele><time>2026-04-24T01:18:40.001Z</time></trkpt><trkpt lat="-20.316273115042005" lon="120.19705749435568"><ele>147.0</ele><time>2026-04-24T01:18:41.001Z</time></trkpt><trkpt lat="-20.316044554843145" lon="120.19717300865146"><ele>147.0</ele><time>2026-04-24T01:18:42.001Z</time></trkpt><trkpt lat="-20.315819060237846" lon="120.19727906521253"><ele>147.0</ele><time>2026-04-24T01:18:43.001Z</time></trkpt><trkpt lat="-20.315594902115766" lon="120.19737622431089"><ele>145.5</ele><time>2026-04-24T01:18:44.001Z</time></trkpt><trkpt lat="-20.315371754484982" lon="120.19747679386933"><ele>144.0</ele><time>2026-04-24T01:18:45.001Z</time></trkpt><trkpt lat="-20.315152847668507" lon="120.19757729028507"><ele>144.0</ele><time>2026-04-24T01:18:46.001Z</time></trkpt><trkpt lat="-20.314942594462995" lon="120.19767992061406"><ele>144.0</ele><time>2026-04-24T01:18:47.001Z</time></trkpt><trkpt lat="-20.31472784692704" lon="120.19777881697728"><ele>144.0</ele><time>2026-04-24T01:18:48.001Z</time></trkpt><trkpt lat="-20.314511984970665" lon="120.19788067501968"><ele>144.0</ele><time>2026-04-24T01:18:49.001Z</time></trkpt><trkpt lat="-20.314292050899713" lon="120.19798642782717"><ele>144.0</ele><time>2026-04-24T01:18:50.001Z</time></trkpt><trkpt lat="-20.314065469228396" lon="120.19809589299167"><ele>144.0</ele><time>2026-04-24T01:18:51.001Z</time></trkpt><trkpt lat="-20.313833967619047" lon="120.19820833134656"><ele>143.5</ele><time>2026-04-24T01:18:52.001Z</time></trkpt><trkpt lat="-20.313599558044135" lon="120.19832226945617"><ele>143.0</ele><time>2026-04-24T01:18:53.001Z</time></trkpt><trkpt lat="-20.3133582631785" lon="120.19843898238746"><ele>143.0</ele><time>2026-04-24T01:18:54.001Z</time></trkpt><trkpt lat="-20.313112201947852" lon="120.19854965411872"><ele>143.0</ele><time>2026-04-24T01:18:55.001Z</time></trkpt><trkpt lat="-20.312859545844688" lon="120.19866151159235"><ele>142.5</ele><time>2026-04-24T01:18:56.001Z</time></trkpt><trkpt lat="-20.312604883414163" lon="120.19877745646095"><ele>142.0</ele><time>2026-04-24T01:18:57.001Z</time></trkpt><trkpt lat="-20.312349462199258" lon="120.19889603851747"><ele>141.0</ele><time>2026-04-24T01:18:58.001Z</time></trkpt><trkpt lat="-20.31208949225996" lon="120.19901516689958"><ele>140.0</ele><time>2026-04-24T01:18:59.001Z</time></trkpt><trkpt lat="-20.311830907592892" lon="120.19913529854382"><ele>140.0</ele><time>2026-04-24T01:19:00.001Z</time></trkpt><trkpt lat="-20.311568075325678" lon="120.199254965002"><ele>140.0</ele><time>2026-04-24T01:19:01.001Z</time></trkpt><trkpt lat="-20.311302861610095" lon="120.1993769026698"><ele>139.5</ele><time>2026-04-24T01:19:02.001Z</time></trkpt><trkpt lat="-20.31103580919769" lon="120.19950161611753"><ele>139.0</ele><time>2026-04-24T01:19:03.001Z</time></trkpt><trkpt lat="-20.31076776993888" lon="120.19962281070282"><ele>139.0</ele><time>2026-04-24T01:19:04.001Z</time></trkpt><trkpt lat="-20.310498339355973" lon="120.19974247930199"><ele>139.0</ele><time>2026-04-24T01:19:05.001Z</time></trkpt><trkpt lat="-20.310231661185586" lon="120.19986367250826"><ele>139.0</ele><time>2026-04-24T01:19:06.001Z</time></trkpt><trkpt lat="-20.3099641809103" lon="120.19998414906892"><ele>139.0</ele><time>2026-04-24T01:19:07.001Z</time></trkpt><trkpt lat="-20.309696252410664" lon="120.2001036879137"><ele>138.0</ele><time>2026-04-24T01:19:08.001Z</time></trkpt><trkpt lat="-20.309429199390163" lon="120.20022188158079"><ele>137.0</ele><time>2026-04-24T01:19:09.001Z</time></trkpt><trkpt lat="-20.309156765767046" lon="120.20034396743121"><ele>137.0</ele><time>2026-04-24T01:19:10.001Z</time></trkpt><trkpt lat="-20.308889310409796" lon="120.20046158024235"><ele>137.0</ele><time>2026-04-24T01:19:11.001Z</time></trkpt><trkpt lat="-20.308619110181315" lon="120.20057860061034"><ele>137.0</ele><time>2026-04-24T01:19:12.001Z</time></trkpt><trkpt lat="-20.308346833974966" lon="120.20069550552932"><ele>137.0</ele><time>2026-04-24T01:19:13.001Z</time></trkpt><trkpt lat="-20.308075441587732" lon="120.20081502438904"><ele>137.0</ele><time>2026-04-24T01:19:14.001Z</time></trkpt><trkpt lat="-20.30780537744645" lon="120.200935451125"><ele>137.0</ele><time>2026-04-24T01:19:15.001Z</time></trkpt><trkpt lat="-20.30753691154497" lon="120.20105482729726"><ele>137.0</ele><time>2026-04-24T01:19:16.001Z</time></trkpt><trkpt lat="-20.30726907273815" lon="120.20117230563284"><ele>137.0</ele><time>2026-04-24T01:19:17.001Z</time></trkpt><trkpt lat="-20.306998737091437" lon="120.20128865727646"><ele>136.5</ele><time>2026-04-24T01:19:18.001Z</time></trkpt><trkpt lat="-20.306729059622054" lon="120.20140299856216"><ele>136.0</ele><time>2026-04-24T01:19:19.001Z</time></trkpt><trkpt lat="-20.306457308001505" lon="120.20151909166397"><ele>135.5</ele><time>2026-04-24T01:19:20.001Z</time></trkpt><trkpt lat="-20.30618247514743" lon="120.20163330019686"><ele>135.0</ele><time>2026-04-24T01:19:21.001Z</time></trkpt><trkpt lat="-20.305909774363542" lon="120.20174670334634"><ele>135.0</ele><time>2026-04-24T01:19:22.001Z</time></trkpt><trkpt lat="-20.305631623119993" lon="120.20186061393622"><ele>135.0</ele><time>2026-04-24T01:19:23.001Z</time></trkpt><trkpt lat="-20.305353776088968" lon="120.20197361733678"><ele>134.5</ele><time>2026-04-24T01:19:24.001Z</time></trkpt><trkpt lat="-20.305076522447006" lon="120.20208484213234"><ele>134.0</ele><time>2026-04-24T01:19:25.001Z</time></trkpt><trkpt lat="-20.304801950527533" lon="120.20219571035244"><ele>134.0</ele><time>2026-04-24T01:19:26.001Z</time></trkpt><trkpt lat="-20.304527194160155" lon="120.2023050899384"><ele>134.0</ele><time>2026-04-24T01:19:27.001Z</time></trkpt><trkpt lat="-20.30425093308874" lon="120.2024184125454"><ele>134.0</ele><time>2026-04-24T01:19:28.001Z</time></trkpt><trkpt lat="-20.303973505650603" lon="120.20253101842682"><ele>134.0</ele><time>2026-04-24T01:19:29.001Z</time></trkpt><trkpt lat="-20.30369478239368" lon="120.2026447690467"><ele>134.5</ele><time>2026-04-24T01:19:30.001Z</time></trkpt><trkpt lat="-20.303416287280807" lon="120.20276072761817"><ele>135.0</ele><time>2026-04-24T01:19:31.001Z</time></trkpt><trkpt lat="-20.303132144721395" lon="120.20287449647506"><ele>134.5</ele><time>2026-04-24T01:19:32.001Z</time></trkpt><trkpt lat="-20.302846615386613" lon="120.2029854680868"><ele>134.0</ele><time>2026-04-24T01:19:33.001Z</time></trkpt><trkpt lat="-20.302567329199828" lon="120.20309950255658"><ele>134.0</ele><time>2026-04-24T01:19:34.001Z</time></trkpt><trkpt lat="-20.30228434310002" lon="120.20321457642716"><ele>134.0</ele><time>2026-04-24T01:19:35.001Z</time></trkpt><trkpt lat="-20.302000070848845" lon="120.20332609112201"><ele>134.0</ele><time>2026-04-24T01:19:36.001Z</time></trkpt><trkpt lat="-20.301719216344956" lon="120.20343699247263"><ele>134.0</ele><time>2026-04-24T01:19:37.001Z</time></trkpt><trkpt lat="-20.301438246634262" lon="120.2035460627156"><ele>134.0</ele><time>2026-04-24T01:19:38.001Z</time></trkpt><trkpt lat="-20.30115753025982" lon="120.20365468833897"><ele>134.0</ele><time>2026-04-24T01:19:39.001Z</time></trkpt><trkpt lat="-20.300878298568932" lon="120.20375359163842"><ele>134.0</ele><time>2026-04-24T01:19:40.001Z</time></trkpt><trkpt lat="-20.30059789743485" lon="120.20384486848396"><ele>134.0</ele><time>2026-04-24T01:19:41.001Z</time></trkpt><trkpt lat="-20.300313416177012" lon="120.20392915736504"><ele>134.0</ele><time>2026-04-24T01:19:42.001Z</time></trkpt><trkpt lat="-20.30002778722647" lon="120.20400658293183"><ele>134.0</ele><time>2026-04-24T01:19:43.001Z</time></trkpt><trkpt lat="-20.29973873283299" lon="120.20407569990648"><ele>133.5</ele><time>2026-04-24T01:19:44.001Z</time></trkpt><trkpt lat="-20.299444709157118" lon="120.20413268685682"><ele>133.0</ele><time>2026-04-24T01:19:45.001Z</time></trkpt><trkpt lat="-20.299148449772474" lon="120.20417714641613"><ele>133.0</ele><time>2026-04-24T01:19:46.001Z</time></trkpt><trkpt lat="-20.29885174545618" lon="120.20421175348591"><ele>133.0</ele><time>2026-04-24T01:19:47.001Z</time></trkpt><trkpt lat="-20.298555979065462" lon="120.20424298814143"><ele>133.0</ele><time>2026-04-24T01:19:48.001Z</time></trkpt><trkpt lat="-20.29825782907281" lon="120.20427806978422"><ele>133.0</ele><time>2026-04-24T01:19:49.001Z</time></trkpt><trkpt lat="-20.297959715915567" lon="120.20431810867055"><ele>133.5</ele><time>2026-04-24T01:19:50.001Z</time></trkpt><trkpt lat="-20.297659722775027" lon="120.20436050442306"><ele>134.0</ele><time>2026-04-24T01:19:51.001Z</time></trkpt><trkpt lat="-20.297360308580796" lon="120.20439824937097"><ele>133.5</ele><time>2026-04-24T01:19:52.001Z</time></trkpt><trkpt lat="-20.29706076391192" lon="120.20443751716587"><ele>133.0</ele><time>2026-04-24T01:19:53.001Z</time></trkpt><trkpt lat="-20.29676005982364" lon="120.20447999870703"><ele>133.0</ele><time>2026-04-24T01:19:54.001Z</time></trkpt><trkpt lat="-20.296460714160375" lon="120.20452048847329"><ele>133.0</ele><time>2026-04-24T01:19:55.001Z</time></trkpt><trkpt lat="-20.2961591203955" lon="120.20456057527453"><ele>133.0</ele><time>2026-04-24T01:19:56.001Z</time></trkpt><trkpt lat="-20.29585786946018" lon="120.20460095331494"><ele>133.0</ele><time>2026-04-24T01:19:57.001Z</time></trkpt><trkpt lat="-20.29555917685342" lon="120.20464257913969"><ele>133.0</ele><time>2026-04-24T01:19:58.001Z</time></trkpt><trkpt lat="-20.29526068910976" lon="120.20468351708259"><ele>133.0</ele><time>2026-04-24T01:19:59.001Z</time></trkpt><trkpt lat="-20.294960786596103" lon="120.20472075429515"><ele>132.5</ele><time>2026-04-24T01:20:00.001Z</time></trkpt><trkpt lat="-20.2946565174665" lon="120.20475955416714"><ele>132.0</ele><time>2026-04-24T01:20:01.001Z</time></trkpt><trkpt lat="-20.294353833088866" lon="120.20479969748114"><ele>131.0</ele><time>2026-04-24T01:20:02.001Z</time></trkpt><trkpt lat="-20.294046358672908" lon="120.2048391588352"><ele>130.0</ele><time>2026-04-24T01:20:03.001Z</time></trkpt><trkpt lat="-20.293738582705934" lon="120.2048782129184"><ele>130.0</ele><time>2026-04-24T01:20:04.001Z</time></trkpt><trkpt lat="-20.293430909576053" lon="120.20492045640223"><ele>130.0</ele><time>2026-04-24T01:20:05.001Z</time></trkpt><trkpt lat="-20.293123965592123" lon="120.20496023327584"><ele>130.5</ele><time>2026-04-24T01:20:06.001Z</time></trkpt><trkpt lat="-20.29281902172928" lon="120.2049984120778"><ele>131.0</ele><time>2026-04-24T01:20:07.001Z</time></trkpt><trkpt lat="-20.2925132465867" lon="120.20503582111049"><ele>130.0</ele><time>2026-04-24T01:20:08.001Z</time></trkpt><trkpt lat="-20.29220663294539" lon="120.205075626963"><ele>129.0</ele><time>2026-04-24T01:20:09.001Z</time></trkpt><trkpt lat="-20.291904009203723" lon="120.20511807014648"><ele>129.0</ele><time>2026-04-24T01:20:10.001Z</time></trkpt><trkpt lat="-20.291603482749434" lon="120.20515828805878"><ele>129.0</ele><time>2026-04-24T01:20:11.001Z</time></trkpt><trkpt lat="-20.291304385400448" lon="120.20520000932142"><ele>129.5</ele><time>2026-04-24T01:20:12.001Z</time></trkpt><trkpt lat="-20.291005828758514" lon="120.20523951313787"><ele>130.0</ele><time>2026-04-24T01:20:13.001Z</time></trkpt><trkpt lat="-20.290706913044414" lon="120.20527893742909"><ele>130.0</ele><time>2026-04-24T01:20:14.001Z</time></trkpt><trkpt lat="-20.290405301135127" lon="120.20531869585082"><ele>130.0</ele><time>2026-04-24T01:20:15.001Z</time></trkpt><trkpt lat="-20.290107248572983" lon="120.20535638282001"><ele>130.0</ele><time>2026-04-24T01:20:16.001Z</time></trkpt><trkpt lat="-20.28980823692272" lon="120.20539402046897"><ele>130.0</ele><time>2026-04-24T01:20:17.001Z</time></trkpt><trkpt lat="-20.28951107979713" lon="120.20543150074529"><ele>129.5</ele><time>2026-04-24T01:20:18.001Z</time></trkpt><trkpt lat="-20.289215161969118" lon="120.20546892853912"><ele>129.0</ele><time>2026-04-24T01:20:19.001Z</time></trkpt><trkpt lat="-20.288918143269395" lon="120.20550557606514"><ele>128.5</ele><time>2026-04-24T01:20:20.001Z</time></trkpt><trkpt lat="-20.288620227691293" lon="120.20554470834766"><ele>128.0</ele><time>2026-04-24T01:20:21.001Z</time></trkpt><trkpt lat="-20.28832271368233" lon="120.20558267964616"><ele>128.0</ele><time>2026-04-24T01:20:22.001Z</time></trkpt><trkpt lat="-20.288022847605394" lon="120.20561710205199"><ele>128.0</ele><time>2026-04-24T01:20:23.001Z</time></trkpt><trkpt lat="-20.287723639453233" lon="120.20565330128554"><ele>128.5</ele><time>2026-04-24T01:20:24.001Z</time></trkpt><trkpt lat="-20.28742154245398" lon="120.20569410164073"><ele>129.0</ele><time>2026-04-24T01:20:25.001Z</time></trkpt><trkpt lat="-20.287119204408498" lon="120.20573994616143"><ele>128.0</ele><time>2026-04-24T01:20:26.001Z</time></trkpt><trkpt lat="-20.286815372378918" lon="120.20578247978511"><ele>127.0</ele><time>2026-04-24T01:20:27.001Z</time></trkpt><trkpt lat="-20.286508529406237" lon="120.20581844263597"><ele>127.0</ele><time>2026-04-24T01:20:28.001Z</time></trkpt><trkpt lat="-20.286205478738918" lon="120.2058536910026"><ele>127.0</ele><time>2026-04-24T01:20:29.001Z</time></trkpt><trkpt lat="-20.28590690448096" lon="120.2058928645713"><ele>127.0</ele><time>2026-04-24T01:20:30.001Z</time></trkpt><trkpt lat="-20.285610302284187" lon="120.20593491378368"><ele>127.0</ele><time>2026-04-24T01:20:31.001Z</time></trkpt><trkpt lat="-20.285310319760985" lon="120.20595811092939"><ele>127.0</ele><time>2026-04-24T01:20:32.001Z</time></trkpt><trkpt lat="-20.2850127421578" lon="120.20599365577644"><ele>127.0</ele><time>2026-04-24T01:20:33.001Z</time></trkpt><trkpt lat="-20.284710544534317" lon="120.20603065686298"><ele>127.0</ele><time>2026-04-24T01:20:34.001Z</time></trkpt><trkpt lat="-20.284409944525134" lon="120.20606829496477"><ele>127.0</ele><time>2026-04-24T01:20:35.001Z</time></trkpt><trkpt lat="-20.284108387359733" lon="120.20610724510026"><ele>127.0</ele><time>2026-04-24T01:20:36.001Z</time></trkpt><trkpt lat="-20.283807317633034" lon="120.20614686527152"><ele>127.0</ele><time>2026-04-24T01:20:37.001Z</time></trkpt><trkpt lat="-20.28350518216093" lon="120.2061875207691"><ele>127.0</ele><time>2026-04-24T01:20:38.001Z</time></trkpt><trkpt lat="-20.283206828458553" lon="120.20624259746597"><ele>127.0</ele><time>2026-04-24T01:20:39.001Z</time></trkpt><trkpt lat="-20.282908867549914" lon="120.20627748509918"><ele>127.0</ele><time>2026-04-24T01:20:40.001Z</time></trkpt><trkpt lat="-20.28261651972421" lon="120.20631166076227"><ele>127.0</ele><time>2026-04-24T01:20:41.001Z</time></trkpt><trkpt lat="-20.28231824966989" lon="120.20635211322211"><ele>126.5</ele><time>2026-04-24T01:20:42.001Z</time></trkpt><trkpt lat="-20.282022381518264" lon="120.20639320581432"><ele>126.0</ele><time>2026-04-24T01:20:43.001Z</time></trkpt><trkpt lat="-20.281725110980563" lon="120.20643111733393"><ele>126.0</ele><time>2026-04-24T01:20:44.001Z</time></trkpt><trkpt lat="-20.281428791513523" lon="120.20646379855083"><ele>126.0</ele><time>2026-04-24T01:20:45.001Z</time></trkpt><trkpt lat="-20.281133034073967" lon="120.20649582698412"><ele>126.0</ele><time>2026-04-24T01:20:46.001Z</time></trkpt><trkpt lat="-20.280835498150555" lon="120.20652783140726"><ele>126.0</ele><time>2026-04-24T01:20:47.001Z</time></trkpt><trkpt lat="-20.280536542718885" lon="120.20656136607451"><ele>126.0</ele><time>2026-04-24T01:20:48.001Z</time></trkpt><trkpt lat="-20.28023849473632" lon="120.20659547142321"><ele>126.0</ele><time>2026-04-24T01:20:49.001Z</time></trkpt><trkpt lat="-20.279935769894287" lon="120.20663422846872"><ele>126.0</ele><time>2026-04-24T01:20:50.001Z</time></trkpt><trkpt lat="-20.279633675034177" lon="120.20667449272436"><ele>126.0</ele><time>2026-04-24T01:20:51.001Z</time></trkpt><trkpt lat="-20.279332082652942" lon="120.20671029162267"><ele>126.0</ele><time>2026-04-24T01:20:52.001Z</time></trkpt><trkpt lat="-20.279030153936095" lon="120.20674001937647"><ele>126.0</ele><time>2026-04-24T01:20:53.001Z</time></trkpt><trkpt lat="-20.27872548568311" lon="120.2067725349657"><ele>126.0</ele><time>2026-04-24T01:20:54.001Z</time></trkpt><trkpt lat="-20.27843136476197" lon="120.20681287489008"><ele>126.0</ele><time>2026-04-24T01:20:55.001Z</time></trkpt><trkpt lat="-20.278138056292292" lon="120.20685902670226"><ele>125.5</ele><time>2026-04-24T01:20:56.001Z</time></trkpt><trkpt lat="-20.277849636841736" lon="120.20690448970973"><ele>125.0</ele><time>2026-04-24T01:20:57.001Z</time></trkpt><trkpt lat="-20.277569480220166" lon="120.2069446422201"><ele>125.0</ele><time>2026-04-24T01:20:58.001Z</time></trkpt><trkpt lat="-20.277281384739233" lon="120.20698085981435"><ele>125.0</ele><time>2026-04-24T01:20:59.001Z</time></trkpt><trkpt lat="-20.276984812459144" lon="120.20701977286349"><ele>125.0</ele><time>2026-04-24T01:21:00.001Z</time></trkpt><trkpt lat="-20.276699430396963" lon="120.20706022524281"><ele>125.0</ele><time>2026-04-24T01:21:01.001Z</time></trkpt><trkpt lat="-20.276419112619244" lon="120.20710176724496"><ele>125.0</ele><time>2026-04-24T01:21:02.001Z</time></trkpt><trkpt lat="-20.276135194317423" lon="120.20713830458921"><ele>125.0</ele><time>2026-04-24T01:21:03.001Z</time></trkpt><trkpt lat="-20.275848004068873" lon="120.20717699363806"><ele>124.5</ele><time>2026-04-24T01:21:04.001Z</time></trkpt><trkpt lat="-20.27555878053196" lon="120.20721732324948"><ele>124.0</ele><time>2026-04-24T01:21:05.001Z</time></trkpt><trkpt lat="-20.275269497186567" lon="120.20726198070855"><ele>124.0</ele><time>2026-04-24T01:21:06.001Z</time></trkpt><trkpt lat="-20.2749778266506" lon="120.20730241571819"><ele>124.0</ele><time>2026-04-24T01:21:07.001Z</time></trkpt><trkpt lat="-20.2746849802827" lon="120.20733989997566"><ele>125.0</ele><time>2026-04-24T01:21:08.001Z</time></trkpt><trkpt lat="-20.274394986477162" lon="120.2073747136927"><ele>126.0</ele><time>2026-04-24T01:21:09.001Z</time></trkpt><trkpt lat="-20.27410474354196" lon="120.20740827412038"><ele>125.5</ele><time>2026-04-24T01:21:10.001Z</time></trkpt><trkpt lat="-20.27381177528154" lon="120.20743804579317"><ele>125.0</ele><time>2026-04-24T01:21:11.001Z</time></trkpt><trkpt lat="-20.273519845004273" lon="120.20747238225756"><ele>125.0</ele><time>2026-04-24T01:21:12.001Z</time></trkpt><trkpt lat="-20.27323139080013" lon="120.20750999176065"><ele>125.0</ele><time>2026-04-24T01:21:13.001Z</time></trkpt><trkpt lat="-20.272944875447568" lon="120.20754953735157"><ele>125.5</ele><time>2026-04-24T01:21:14.001Z</time></trkpt><trkpt lat="-20.272653673649216" lon="120.20758881256066"><ele>126.0</ele><time>2026-04-24T01:21:15.001Z</time></trkpt><trkpt lat="-20.272365775420358" lon="120.20762490546157"><ele>125.5</ele><time>2026-04-24T01:21:16.001Z</time></trkpt><trkpt lat="-20.272082741184878" lon="120.20765986885073"><ele>125.0</ele><time>2026-04-24T01:21:17.001Z</time></trkpt><trkpt lat="-20.271795551369305" lon="120.20769690813961"><ele>125.0</ele><time>2026-04-24T01:21:18.001Z</time></trkpt><trkpt lat="-20.271512142045868" lon="120.20772759111942"><ele>125.0</ele><time>2026-04-24T01:21:19.001Z</time></trkpt><trkpt lat="-20.27122846924131" lon="120.20775674047474"><ele>124.5</ele><time>2026-04-24T01:21:20.001Z</time></trkpt><trkpt lat="-20.270944301111257" lon="120.20778334565328"><ele>124.0</ele><time>2026-04-24T01:21:21.001Z</time></trkpt><trkpt lat="-20.270656852808013" lon="120.20780366670311"><ele>124.5</ele><time>2026-04-24T01:21:22.001Z</time></trkpt><trkpt lat="-20.27037181814411" lon="120.20781981085743"><ele>125.0</ele><time>2026-04-24T01:21:23.001Z</time></trkpt><trkpt lat="-20.270086262921765" lon="120.20783403178126"><ele>125.0</ele><time>2026-04-24T01:21:24.001Z</time></trkpt><trkpt lat="-20.269799266275747" lon="120.20784223546681"><ele>125.0</ele><time>2026-04-24T01:21:25.001Z</time></trkpt><trkpt lat="-20.269511309955153" lon="120.20785234815449"><ele>125.0</ele><time>2026-04-24T01:21:26.001Z</time></trkpt><trkpt lat="-20.269225755754665" lon="120.20786695849446"><ele>125.0</ele><time>2026-04-24T01:21:27.001Z</time></trkpt><trkpt lat="-20.268933137765604" lon="120.2078801417193"><ele>124.5</ele><time>2026-04-24T01:21:28.001Z</time></trkpt><trkpt lat="-20.268641936518577" lon="120.20788862681329"><ele>124.0</ele><time>2026-04-24T01:21:29.001Z</time></trkpt><trkpt lat="-20.26834989282102" lon="120.20789584689899"><ele>124.5</ele><time>2026-04-24T01:21:30.001Z</time></trkpt><trkpt lat="-20.268056946187393" lon="120.20790430428653"><ele>125.0</ele><time>2026-04-24T01:21:31.001Z</time></trkpt><trkpt lat="-20.267763232421732" lon="120.20791382600989"><ele>125.0</ele><time>2026-04-24T01:21:32.001Z</time></trkpt><trkpt lat="-20.267471917485143" lon="120.20792550196605"><ele>125.0</ele><time>2026-04-24T01:21:33.001Z</time></trkpt><trkpt lat="-20.267180895333286" lon="120.20793465619451"><ele>125.0</ele><time>2026-04-24T01:21:34.001Z</time></trkpt><trkpt lat="-20.26689116453551" lon="120.20794380181029"><ele>125.0</ele><time>2026-04-24T01:21:35.001Z</time></trkpt><trkpt lat="-20.266600959888766" lon="120.20795237013466"><ele>125.0</ele><time>2026-04-24T01:21:36.001Z</time></trkpt><trkpt lat="-20.266311590346465" lon="120.20796340581488"><ele>125.0</ele><time>2026-04-24T01:21:37.001Z</time></trkpt><trkpt lat="-20.266019360352793" lon="120.20797838821487"><ele>125.0</ele><time>2026-04-24T01:21:38.001Z</time></trkpt><trkpt lat="-20.26572861741925" lon="120.20798816078229"><ele>125.0</ele><time>2026-04-24T01:21:39Z</time></trkpt><trkpt lat="-20.26543788224789" lon="120.20800028676982"><ele>125.0</ele><time>2026-04-24T01:21:40Z</time></trkpt><trkpt lat="-20.26514734285138" lon="120.20800940002403"><ele>125.0</ele><time>2026-04-24T01:21:41Z</time></trkpt><trkpt lat="-20.264859684190416" lon="120.20801538390295"><ele>125.0</ele><time>2026-04-24T01:21:42Z</time></trkpt><trkpt lat="-20.264568004659264" lon="120.20802634329236"><ele>125.0</ele><time>2026-04-24T01:21:43Z</time></trkpt><trkpt lat="-20.2642779837917" lon="120.20803652258788"><ele>125.0</ele><time>2026-04-24T01:21:44Z</time></trkpt><trkpt lat="-20.26398934041775" lon="120.20804670883008"><ele>125.0</ele><time>2026-04-24T01:21:45Z</time></trkpt><trkpt lat="-20.263699274295757" lon="120.20805846652749"><ele>125.0</ele><time>2026-04-24T01:21:46Z</time></trkpt><trkpt lat="-20.263409661251202" lon="120.20807206715828"><ele>125.0</ele><time>2026-04-24T01:21:47Z</time></trkpt><trkpt lat="-20.263118044172" lon="120.2080816988715"><ele>125.0</ele><time>2026-04-24T01:21:48Z</time></trkpt><trkpt lat="-20.26282576693739" lon="120.20809150350217"><ele>125.0</ele><time>2026-04-24T01:21:49Z</time></trkpt><trkpt lat="-20.262532563468806" lon="120.20809974686311"><ele>125.0</ele><time>2026-04-24T01:21:50Z</time></trkpt><trkpt lat="-20.26223676622001" lon="120.20810880834759"><ele>125.0</ele><time>2026-04-24T01:21:51Z</time></trkpt><trkpt lat="-20.261942483528674" lon="120.20811913356678"><ele>125.0</ele><time>2026-04-24T01:21:52Z</time></trkpt><trkpt lat="-20.26164637922263" lon="120.20812818116104"><ele>125.0</ele><time>2026-04-24T01:21:53Z</time></trkpt><trkpt lat="-20.26134924411668" lon="120.20813807615384"><ele>124.5</ele><time>2026-04-24T01:21:54Z</time></trkpt><trkpt lat="-20.26105204383344" lon="120.20814784575145"><ele>124.0</ele><time>2026-04-24T01:21:55Z</time></trkpt><trkpt lat="-20.26075433745482" lon="120.20815847229015"><ele>124.0</ele><time>2026-04-24T01:21:56Z</time></trkpt><trkpt lat="-20.260456186228097" lon="120.20816727053155"><ele>124.0</ele><time>2026-04-24T01:21:57Z</time></trkpt><trkpt lat="-20.260156092260708" lon="120.20817498536972"><ele>124.0</ele><time>2026-04-24T01:21:58Z</time></trkpt><trkpt lat="-20.25985670292067" lon="120.20818200356196"><ele>124.0</ele><time>2026-04-24T01:21:59Z</time></trkpt><trkpt lat="-20.25955760532332" lon="120.20818747513188"><ele>123.5</ele><time>2026-04-24T01:22:00Z</time></trkpt><trkpt lat="-20.25925768694406" lon="120.20819723293876"><ele>123.0</ele><time>2026-04-24T01:22:01Z</time></trkpt><trkpt lat="-20.258961033211126" lon="120.20820976831857"><ele>122.5</ele><time>2026-04-24T01:22:02Z</time></trkpt><trkpt lat="-20.258663916795175" lon="120.20822275316712"><ele>122.0</ele><time>2026-04-24T01:22:03Z</time></trkpt><trkpt lat="-20.25836981310214" lon="120.20823352904023"><ele>122.0</ele><time>2026-04-24T01:22:04Z</time></trkpt><trkpt lat="-20.258073382861635" lon="120.20824257531837"><ele>122.0</ele><time>2026-04-24T01:22:05Z</time></trkpt><trkpt lat="-20.257779873201994" lon="120.20825035432298"><ele>122.0</ele><time>2026-04-24T01:22:06Z</time></trkpt><trkpt lat="-20.25748752993628" lon="120.2082580207618"><ele>122.0</ele><time>2026-04-24T01:22:07Z</time></trkpt><trkpt lat="-20.25719746257797" lon="120.20827135223746"><ele>122.5</ele><time>2026-04-24T01:22:08Z</time></trkpt><trkpt lat="-20.256905677030616" lon="120.20828867511268"><ele>123.0</ele><time>2026-04-24T01:22:09Z</time></trkpt><trkpt lat="-20.25661246458538" lon="120.2083043559819"><ele>122.5</ele><time>2026-04-24T01:22:10Z</time></trkpt><trkpt lat="-20.25631324771698" lon="120.20831925132036"><ele>122.0</ele><time>2026-04-24T01:22:11Z</time></trkpt><trkpt lat="-20.256008966205606" lon="120.20832812588615"><ele>122.0</ele><time>2026-04-24T01:22:12Z</time></trkpt><trkpt lat="-20.255710029393345" lon="120.20833394320779"><ele>122.0</ele><time>2026-04-24T01:22:13Z</time></trkpt><trkpt lat="-20.255409889405502" lon="120.20834076921972"><ele>121.5</ele><time>2026-04-24T01:22:14Z</time></trkpt><trkpt lat="-20.255107279985893" lon="120.20835157062344"><ele>121.0</ele><time>2026-04-24T01:22:15Z</time></trkpt><trkpt lat="-20.25480880905383" lon="120.20836625197022"><ele>120.5</ele><time>2026-04-24T01:22:16Z</time></trkpt><trkpt lat="-20.254507728696417" lon="120.2083791745647"><ele>120.0</ele><time>2026-04-24T01:22:17Z</time></trkpt><trkpt lat="-20.254208433309856" lon="120.2083954062323"><ele>120.0</ele><time>2026-04-24T01:22:18Z</time></trkpt><trkpt lat="-20.25391172344809" lon="120.20840704778327"><ele>120.0</ele><time>2026-04-24T01:22:19Z</time></trkpt><trkpt lat="-20.25360889359234" lon="120.20841640786558"><ele>120.0</ele><time>2026-04-24T01:22:20Z</time></trkpt><trkpt lat="-20.25330937278963" lon="120.20842816094911"><ele>120.0</ele><time>2026-04-24T01:22:21Z</time></trkpt><trkpt lat="-20.25300670456948" lon="120.20843903776101"><ele>119.5</ele><time>2026-04-24T01:22:22Z</time></trkpt><trkpt lat="-20.252703806907434" lon="120.2084493553549"><ele>119.0</ele><time>2026-04-24T01:22:23Z</time></trkpt><trkpt lat="-20.252403408926924" lon="120.20846072392294"><ele>119.0</ele><time>2026-04-24T01:22:24Z</time></trkpt><trkpt lat="-20.252107007698623" lon="120.20847472783572"><ele>119.0</ele><time>2026-04-24T01:22:25Z</time></trkpt><trkpt lat="-20.251810393012505" lon="120.20848633957469"><ele>119.0</ele><time>2026-04-24T01:22:26Z</time></trkpt><trkpt lat="-20.251514486002424" lon="120.20849375373844"><ele>119.0</ele><time>2026-04-24T01:22:27Z</time></trkpt><trkpt lat="-20.251217158700914" lon="120.2084968424118"><ele>118.0</ele><time>2026-04-24T01:22:28Z</time></trkpt><trkpt lat="-20.250920813991456" lon="120.20850530536754"><ele>117.0</ele><time>2026-04-24T01:22:29Z</time></trkpt><trkpt lat="-20.25062406141733" lon="120.20851389264985"><ele>116.0</ele><time>2026-04-24T01:22:30Z</time></trkpt><trkpt lat="-20.250327500376283" lon="120.20852095984392"><ele>115.0</ele><time>2026-04-24T01:22:31Z</time></trkpt><trkpt lat="-20.25002967092117" lon="120.2085261409675"><ele>115.0</ele><time>2026-04-24T01:22:32Z</time></trkpt><trkpt lat="-20.249731624060498" lon="120.2085306977476"><ele>115.0</ele><time>2026-04-24T01:22:33Z</time></trkpt><trkpt lat="-20.249428860689473" lon="120.20853485390997"><ele>115.0</ele><time>2026-04-24T01:22:34Z</time></trkpt><trkpt lat="-20.249128846704608" lon="120.2085416388348"><ele>115.0</ele><time>2026-04-24T01:22:35Z</time></trkpt><trkpt lat="-20.248828715063805" lon="120.20854643803435"><ele>114.5</ele><time>2026-04-24T01:22:36Z</time></trkpt><trkpt lat="-20.248528853636977" lon="120.20855110289212"><ele>114.0</ele><time>2026-04-24T01:22:37Z</time></trkpt><trkpt lat="-20.24823081929876" lon="120.20855394484703"><ele>113.0</ele><time>2026-04-24T01:22:38Z</time></trkpt><trkpt lat="-20.24793674290471" lon="120.20855788835591"><ele>112.0</ele><time>2026-04-24T01:22:39Z</time></trkpt><trkpt lat="-20.247640636918938" lon="120.20856491364881"><ele>112.0</ele><time>2026-04-24T01:22:40Z</time></trkpt><trkpt lat="-20.247348442632656" lon="120.20856994993038"><ele>112.0</ele><time>2026-04-24T01:22:41Z</time></trkpt><trkpt lat="-20.24706107499563" lon="120.2085734839467"><ele>112.5</ele><time>2026-04-24T01:22:42Z</time></trkpt><trkpt lat="-20.24677537730878" lon="120.20857530190985"><ele>113.0</ele><time>2026-04-24T01:22:43Z</time></trkpt><trkpt lat="-20.246488452114555" lon="120.2085759616991"><ele>112.0</ele><time>2026-04-24T01:22:44Z</time></trkpt><trkpt lat="-20.246202064331204" lon="120.20857789021379"><ele>111.0</ele><time>2026-04-24T01:22:45Z</time></trkpt><trkpt lat="-20.245919472963404" lon="120.20857947693477"><ele>111.0</ele><time>2026-04-24T01:22:46Z</time></trkpt><trkpt lat="-20.245636765299487" lon="120.20858322053591"><ele>111.0</ele><time>2026-04-24T01:22:47Z</time></trkpt><trkpt lat="-20.24535567487218" lon="120.20858660955207"><ele>111.0</ele><time>2026-04-24T01:22:48Z</time></trkpt><trkpt lat="-20.24506923942676" lon="120.20858743569532"><ele>111.0</ele><time>2026-04-24T01:22:49Z</time></trkpt><trkpt lat="-20.24478536843862" lon="120.20858990200517"><ele>110.5</ele><time>2026-04-24T01:22:50Z</time></trkpt><trkpt lat="-20.244498229321373" lon="120.20859360779926"><ele>110.0</ele><time>2026-04-24T01:22:51Z</time></trkpt><trkpt lat="-20.24421043406987" lon="120.20859496664424"><ele>109.0</ele><time>2026-04-24T01:22:52Z</time></trkpt><trkpt lat="-20.243922175454994" lon="120.2085978124497"><ele>108.0</ele><time>2026-04-24T01:22:53Z</time></trkpt><trkpt lat="-20.243627163350855" lon="120.20860118819814"><ele>108.0</ele><time>2026-04-24T01:22:54Z</time></trkpt><trkpt lat="-20.243331156551758" lon="120.20860116497903"><ele>108.0</ele><time>2026-04-24T01:22:55Z</time></trkpt><trkpt lat="-20.243030770029478" lon="120.20860488374305"><ele>107.5</ele><time>2026-04-24T01:22:56Z</time></trkpt><trkpt lat="-20.24273090809275" lon="120.20860844362565"><ele>107.0</ele><time>2026-04-24T01:22:57Z</time></trkpt><trkpt lat="-20.242426468493782" lon="120.20861235209793"><ele>106.5</ele><time>2026-04-24T01:22:58Z</time></trkpt><trkpt lat="-20.242116956156128" lon="120.2086129924836"><ele>106.0</ele><time>2026-04-24T01:22:59Z</time></trkpt><trkpt lat="-20.241805932503375" lon="120.20861436794279"><ele>106.0</ele><time>2026-04-24T01:23:00Z</time></trkpt><trkpt lat="-20.241497649690693" lon="120.20861280732613"><ele>106.0</ele><time>2026-04-24T01:23:01Z</time></trkpt><trkpt lat="-20.241188126289117" lon="120.2086121575195"><ele>106.0</ele><time>2026-04-24T01:23:02Z</time></trkpt><trkpt lat="-20.240882655679613" lon="120.20861543971907"><ele>106.0</ele><time>2026-04-24T01:23:03Z</time></trkpt><trkpt lat="-20.24057819698684" lon="120.208620978709"><ele>106.0</ele><time>2026-04-24T01:23:04Z</time></trkpt><trkpt lat="-20.24027572976231" lon="120.20862319823247"><ele>106.0</ele><time>2026-04-24T01:23:05Z</time></trkpt><trkpt lat="-20.239975030340368" lon="120.20862154717092"><ele>106.0</ele><time>2026-04-24T01:23:06Z</time></trkpt><trkpt lat="-20.239675415001024" lon="120.20862274438421"><ele>106.0</ele><time>2026-04-24T01:23:07Z</time></trkpt><trkpt lat="-20.23937339095201" lon="120.20862396700598"><ele>106.0</ele><time>2026-04-24T01:23:08Z</time></trkpt><trkpt lat="-20.239075719822843" lon="120.20862880135273"><ele>106.0</ele><time>2026-04-24T01:23:09Z</time></trkpt><trkpt lat="-20.238777197567902" lon="120.20863432362795"><ele>105.5</ele><time>2026-04-24T01:23:10Z</time></trkpt><trkpt lat="-20.23848494516689" lon="120.20863982116056"><ele>105.0</ele><time>2026-04-24T01:23:11Z</time></trkpt><trkpt lat="-20.23818832347914" lon="120.20864425928417"><ele>104.5</ele><time>2026-04-24T01:23:12Z</time></trkpt><trkpt lat="-20.237892758991492" lon="120.20864755127575"><ele>104.0</ele><time>2026-04-24T01:23:13Z</time></trkpt><trkpt lat="-20.237595327406076" lon="120.2086514072851"><ele>104.0</ele><time>2026-04-24T01:23:14Z</time></trkpt><trkpt lat="-20.237299433059118" lon="120.20865776550387"><ele>104.0</ele><time>2026-04-24T01:23:15Z</time></trkpt><trkpt lat="-20.237005086695653" lon="120.20866371547443"><ele>104.0</ele><time>2026-04-24T01:23:16Z</time></trkpt><trkpt lat="-20.236713359555328" lon="120.2086712489895"><ele>104.0</ele><time>2026-04-24T01:23:17Z</time></trkpt><trkpt lat="-20.23642209392269" lon="120.20867788832075"><ele>104.0</ele><time>2026-04-24T01:23:18Z</time></trkpt><trkpt lat="-20.236130804999398" lon="120.20868559386098"><ele>104.0</ele><time>2026-04-24T01:23:19Z</time></trkpt><trkpt lat="-20.23583866339819" lon="120.20869173658009"><ele>103.5</ele><time>2026-04-24T01:23:20Z</time></trkpt><trkpt lat="-20.235547687053185" lon="120.20869932916301"><ele>103.0</ele><time>2026-04-24T01:23:21Z</time></trkpt><trkpt lat="-20.23525398881385" lon="120.20870983513358"><ele>103.0</ele><time>2026-04-24T01:23:22Z</time></trkpt><trkpt lat="-20.23495992593074" lon="120.20871663274687"><ele>103.0</ele><time>2026-04-24T01:23:23Z</time></trkpt><trkpt lat="-20.234666076891124" lon="120.20872190913956"><ele>103.0</ele><time>2026-04-24T01:23:24Z</time></trkpt><trkpt lat="-20.234368432777128" lon="120.2087272587899"><ele>103.0</ele><time>2026-04-24T01:23:25Z</time></trkpt><trkpt lat="-20.234070849589447" lon="120.20873365536406"><ele>102.5</ele><time>2026-04-24T01:23:26Z</time></trkpt><trkpt lat="-20.233770180330612" lon="120.20874044817377"><ele>102.0</ele><time>2026-04-24T01:23:27Z</time></trkpt><trkpt lat="-20.23347236892687" lon="120.20874565979149"><ele>102.0</ele><time>2026-04-24T01:23:28Z</time></trkpt><trkpt lat="-20.233176082280508" lon="120.20874912769916"><ele>102.0</ele><time>2026-04-24T01:23:29Z</time></trkpt><trkpt lat="-20.232879084991403" lon="120.20875453144116"><ele>102.0</ele><time>2026-04-24T01:23:30Z</time></trkpt><trkpt lat="-20.232585134833077" lon="120.20875609331726"><ele>102.0</ele><time>2026-04-24T01:23:31Z</time></trkpt><trkpt lat="-20.23229306313802" lon="120.20875260795209"><ele>102.0</ele><time>2026-04-24T01:23:32Z</time></trkpt><trkpt lat="-20.231999233314827" lon="120.20874820892156"><ele>102.0</ele><time>2026-04-24T01:23:33Z</time></trkpt><trkpt lat="-20.231707475817444" lon="120.20874660789889"><ele>102.0</ele><time>2026-04-24T01:23:34Z</time></trkpt><trkpt lat="-20.231417236139947" lon="120.20874649855281"><ele>102.0</ele><time>2026-04-24T01:23:35Z</time></trkpt><trkpt lat="-20.231127600331394" lon="120.20874423764985"><ele>102.0</ele><time>2026-04-24T01:23:36Z</time></trkpt><trkpt lat="-20.23084232682883" lon="120.20873855889646"><ele>102.0</ele><time>2026-04-24T01:23:37Z</time></trkpt><trkpt lat="-20.230557393355415" lon="120.20873154555844"><ele>103.0</ele><time>2026-04-24T01:23:38Z</time></trkpt><trkpt lat="-20.230269335769492" lon="120.2087202692761"><ele>104.0</ele><time>2026-04-24T01:23:39Z</time></trkpt><trkpt lat="-20.22997986273362" lon="120.2087099403825"><ele>103.5</ele><time>2026-04-24T01:23:40Z</time></trkpt><trkpt lat="-20.22968966320904" lon="120.20870146140167"><ele>103.0</ele><time>2026-04-24T01:23:41Z</time></trkpt><trkpt lat="-20.229398252341138" lon="120.20869521054428"><ele>103.0</ele><time>2026-04-24T01:23:42Z</time></trkpt><trkpt lat="-20.229109547557428" lon="120.2086903687624"><ele>103.0</ele><time>2026-04-24T01:23:43Z</time></trkpt><trkpt lat="-20.228820598041214" lon="120.20868220063342"><ele>103.0</ele><time>2026-04-24T01:23:44Z</time></trkpt><trkpt lat="-20.228530704834604" lon="120.20866787824194"><ele>103.0</ele><time>2026-04-24T01:23:45Z</time></trkpt><trkpt lat="-20.22823860252304" lon="120.20864946610683"><ele>103.5</ele><time>2026-04-24T01:23:46Z</time></trkpt><trkpt lat="-20.22794374219295" lon="120.20862977523451"><ele>104.0</ele><time>2026-04-24T01:23:47Z</time></trkpt><trkpt lat="-20.22764870506362" lon="120.208603376277"><ele>104.0</ele><time>2026-04-24T01:23:48Z</time></trkpt><trkpt lat="-20.227355797598882" lon="120.20857635404522"><ele>104.0</ele><time>2026-04-24T01:23:49Z</time></trkpt><trkpt lat="-20.227062307899065" lon="120.20855460994801"><ele>103.5</ele><time>2026-04-24T01:23:50Z</time></trkpt><trkpt lat="-20.226770578873356" lon="120.20853698315325"><ele>103.0</ele><time>2026-04-24T01:23:51Z</time></trkpt><trkpt lat="-20.226484175586013" lon="120.2085211292437"><ele>102.5</ele><time>2026-04-24T01:23:52Z</time></trkpt><trkpt lat="-20.226191633868243" lon="120.20850961226989"><ele>102.0</ele><time>2026-04-24T01:23:53Z</time></trkpt><trkpt lat="-20.225901813193232" lon="120.20850079844533"><ele>101.5</ele><time>2026-04-24T01:23:54Z</time></trkpt><trkpt lat="-20.225611459069192" lon="120.2084970396608"><ele>101.0</ele><time>2026-04-24T01:23:55Z</time></trkpt><trkpt lat="-20.225322101889898" lon="120.20850343187557"><ele>101.0</ele><time>2026-04-24T01:23:56Z</time></trkpt><trkpt lat="-20.225032932583314" lon="120.2085118089166"><ele>101.0</ele><time>2026-04-24T01:23:57Z</time></trkpt><trkpt lat="-20.22474276208749" lon="120.20852892332458"><ele>101.0</ele><time>2026-04-24T01:23:58Z</time></trkpt><trkpt lat="-20.224455728429064" lon="120.20854168549432"><ele>101.0</ele><time>2026-04-24T01:23:59Z</time></trkpt><trkpt lat="-20.224162258830308" lon="120.20854186824633"><ele>102.0</ele><time>2026-04-24T01:24:00Z</time></trkpt><trkpt lat="-20.22387258528287" lon="120.20853488418757"><ele>103.0</ele><time>2026-04-24T01:24:01Z</time></trkpt><trkpt lat="-20.223587219377205" lon="120.20852917783156"><ele>103.0</ele><time>2026-04-24T01:24:02Z</time></trkpt><trkpt lat="-20.22330299521963" lon="120.20852095881033"><ele>103.0</ele><time>2026-04-24T01:24:03Z</time></trkpt><trkpt lat="-20.22302303196908" lon="120.20850758079129"><ele>103.0</ele><time>2026-04-24T01:24:04Z</time></trkpt><trkpt lat="-20.222745631874446" lon="120.20848974521284"><ele>103.0</ele><time>2026-04-24T01:24:05Z</time></trkpt><trkpt lat="-20.22246640578963" lon="120.2084702575276"><ele>103.5</ele><time>2026-04-24T01:24:06Z</time></trkpt><trkpt lat="-20.222181430576256" lon="120.2084526057923"><ele>104.0</ele><time>2026-04-24T01:24:07Z</time></trkpt><trkpt lat="-20.221892539348424" lon="120.2084315299793"><ele>104.0</ele><time>2026-04-24T01:24:08Z</time></trkpt><trkpt lat="-20.221604447666593" lon="120.20841190631876"><ele>104.0</ele><time>2026-04-24T01:24:09Z</time></trkpt><trkpt lat="-20.221312642356484" lon="120.2083945366805"><ele>104.0</ele><time>2026-04-24T01:24:10Z</time></trkpt><trkpt lat="-20.221021496961683" lon="120.20837894772319"><ele>104.0</ele><time>2026-04-24T01:24:11Z</time></trkpt><trkpt lat="-20.22073149634218" lon="120.2083674312829"><ele>104.0</ele><time>2026-04-24T01:24:12Z</time></trkpt><trkpt lat="-20.220438663210327" lon="120.20836126563037"><ele>104.0</ele><time>2026-04-24T01:24:13Z</time></trkpt><trkpt lat="-20.22017064703094" lon="120.20835627972889"><ele>104.0</ele><time>2026-04-24T01:24:14Z</time></trkpt><trkpt lat="-20.21989541024123" lon="120.20835930115929"><ele>104.0</ele><time>2026-04-24T01:24:15Z</time></trkpt><trkpt lat="-20.219612932985044" lon="120.20836737002284"><ele>103.0</ele><time>2026-04-24T01:24:16Z</time></trkpt><trkpt lat="-20.21932126233329" lon="120.20837597835738"><ele>102.0</ele><time>2026-04-24T01:24:17Z</time></trkpt><trkpt lat="-20.21902875838315" lon="120.20838404924896"><ele>102.5</ele><time>2026-04-24T01:24:18Z</time></trkpt><trkpt lat="-20.21872997568495" lon="120.20839461266367"><ele>103.0</ele><time>2026-04-24T01:24:19Z</time></trkpt><trkpt lat="-20.218429574150786" lon="120.2084065685106"><ele>103.0</ele><time>2026-04-24T01:24:20Z</time></trkpt><trkpt lat="-20.218133150046484" lon="120.20842052913386"><ele>103.0</ele><time>2026-04-24T01:24:21Z</time></trkpt><trkpt lat="-20.21783645890994" lon="120.20843256528228"><ele>103.0</ele><time>2026-04-24T01:24:22Z</time></trkpt><trkpt lat="-20.217534618004382" lon="120.2084445414717"><ele>103.0</ele><time>2026-04-24T01:24:23Z</time></trkpt><trkpt lat="-20.21723460861042" lon="120.2084575529115"><ele>101.5</ele><time>2026-04-24T01:24:24Z</time></trkpt><trkpt lat="-20.21693288653184" lon="120.20847005795979"><ele>100.0</ele><time>2026-04-24T01:24:25Z</time></trkpt><trkpt lat="-20.216630667978713" lon="120.2084828132781"><ele>99.5</ele><time>2026-04-24T01:24:26Z</time></trkpt><trkpt lat="-20.216328778984966" lon="120.20849776840717"><ele>99.0</ele><time>2026-04-24T01:24:27Z</time></trkpt><trkpt lat="-20.216024898388753" lon="120.20851449588359"><ele>99.0</ele><time>2026-04-24T01:24:28Z</time></trkpt><trkpt lat="-20.21572091108167" lon="120.20853109360614"><ele>99.0</ele><time>2026-04-24T01:24:29Z</time></trkpt><trkpt lat="-20.215416756433584" lon="120.20855084400164"><ele>99.0</ele><time>2026-04-24T01:24:30Z</time></trkpt><trkpt lat="-20.21511303036885" lon="120.2085728345558"><ele>99.0</ele><time>2026-04-24T01:24:31Z</time></trkpt><trkpt lat="-20.214814942995275" lon="120.2085954742164"><ele>99.0</ele><time>2026-04-24T01:24:32Z</time></trkpt><trkpt lat="-20.214522525258506" lon="120.20861595746517"><ele>99.0</ele><time>2026-04-24T01:24:33Z</time></trkpt><trkpt lat="-20.214227923128195" lon="120.20864138268517"><ele>99.0</ele><time>2026-04-24T01:24:34Z</time></trkpt><trkpt lat="-20.21392761037971" lon="120.20866475443403"><ele>99.0</ele><time>2026-04-24T01:24:35Z</time></trkpt><trkpt lat="-20.213627543222234" lon="120.2086926881462"><ele>99.0</ele><time>2026-04-24T01:24:36Z</time></trkpt><trkpt lat="-20.213331212385864" lon="120.20872585583928"><ele>99.0</ele><time>2026-04-24T01:24:37Z</time></trkpt><trkpt lat="-20.2130351644118" lon="120.20875936839272"><ele>98.5</ele><time>2026-04-24T01:24:38Z</time></trkpt><trkpt lat="-20.21274073293737" lon="120.20879854245483"><ele>98.0</ele><time>2026-04-24T01:24:39Z</time></trkpt><trkpt lat="-20.21244415593066" lon="120.20884123569867"><ele>98.0</ele><time>2026-04-24T01:24:40Z</time></trkpt><trkpt lat="-20.21215123908347" lon="120.20888679597704"><ele>98.0</ele><time>2026-04-24T01:24:41Z</time></trkpt><trkpt lat="-20.211857151274373" lon="120.20893424897737"><ele>98.0</ele><time>2026-04-24T01:24:42Z</time></trkpt><trkpt lat="-20.211561789675628" lon="120.20898016777893"><ele>98.0</ele><time>2026-04-24T01:24:43Z</time></trkpt><trkpt lat="-20.211265099611797" lon="120.20902644968213"><ele>98.0</ele><time>2026-04-24T01:24:44Z</time></trkpt><trkpt lat="-20.210968259242375" lon="120.20907143960542"><ele>98.0</ele><time>2026-04-24T01:24:45Z</time></trkpt><trkpt lat="-20.210666142628124" lon="120.20911722912092"><ele>98.5</ele><time>2026-04-24T01:24:46Z</time></trkpt><trkpt lat="-20.210367748523876" lon="120.20916314909222"><ele>99.0</ele><time>2026-04-24T01:24:47Z</time></trkpt><trkpt lat="-20.210071364983666" lon="120.20921030463806"><ele>99.0</ele><time>2026-04-24T01:24:48Z</time></trkpt><trkpt lat="-20.209773390852895" lon="120.20925522197207"><ele>99.0</ele><time>2026-04-24T01:24:49Z</time></trkpt><trkpt lat="-20.20947917056073" lon="120.20929913275732"><ele>99.0</ele><time>2026-04-24T01:24:50Z</time></trkpt><trkpt lat="-20.20918426320953" lon="120.20934557642015"><ele>99.0</ele><time>2026-04-24T01:24:51Z</time></trkpt><trkpt lat="-20.20888831666043" lon="120.20939553839247"><ele>97.5</ele><time>2026-04-24T01:24:52Z</time></trkpt><trkpt lat="-20.208590593253067" lon="120.20944172332595"><ele>96.0</ele><time>2026-04-24T01:24:53Z</time></trkpt><trkpt lat="-20.208292992909954" lon="120.20948617577504"><ele>96.0</ele><time>2026-04-24T01:24:54Z</time></trkpt><trkpt lat="-20.207997665761393" lon="120.2095346605248"><ele>96.0</ele><time>2026-04-24T01:24:55Z</time></trkpt><trkpt lat="-20.20769777227534" lon="120.20958991674082"><ele>96.0</ele><time>2026-04-24T01:24:56Z</time></trkpt><trkpt lat="-20.207396723338963" lon="120.20964210806572"><ele>96.0</ele><time>2026-04-24T01:24:57Z</time></trkpt><trkpt lat="-20.20709906361814" lon="120.20968800469014"><ele>96.0</ele><time>2026-04-24T01:24:58Z</time></trkpt><trkpt lat="-20.206796393116903" lon="120.20973277559305"><ele>96.0</ele><time>2026-04-24T01:24:59Z</time></trkpt><trkpt lat="-20.20649536446152" lon="120.20977632528417"><ele>95.5</ele><time>2026-04-24T01:25:00Z</time></trkpt><trkpt lat="-20.206192275637132" lon="120.20981845448874"><ele>95.0</ele><time>2026-04-24T01:25:01Z</time></trkpt><trkpt lat="-20.205888906713728" lon="120.20986137040438"><ele>95.5</ele><time>2026-04-24T01:25:02Z</time></trkpt><trkpt lat="-20.20558888893465" lon="120.2099035919214"><ele>96.0</ele><time>2026-04-24T01:25:03Z</time></trkpt><trkpt lat="-20.20528730442509" lon="120.20994443154594"><ele>96.0</ele><time>2026-04-24T01:25:04Z</time></trkpt><trkpt lat="-20.204984691181146" lon="120.20998582442992"><ele>96.0</ele><time>2026-04-24T01:25:05Z</time></trkpt><trkpt lat="-20.204683586132898" lon="120.21002403179308"><ele>95.0</ele><time>2026-04-24T01:25:06Z</time></trkpt><trkpt lat="-20.204377541656278" lon="120.21005809165855"><ele>94.0</ele><time>2026-04-24T01:25:07Z</time></trkpt><trkpt lat="-20.20407901782785" lon="120.21009265328098"><ele>94.0</ele><time>2026-04-24T01:25:08Z</time></trkpt><trkpt lat="-20.203779306772283" lon="120.21012100923198"><ele>94.0</ele><time>2026-04-24T01:25:09Z</time></trkpt><trkpt lat="-20.20348069481588" lon="120.2101436979476"><ele>94.0</ele><time>2026-04-24T01:25:10Z</time></trkpt><trkpt lat="-20.203178701849428" lon="120.21016510696154"><ele>94.0</ele><time>2026-04-24T01:25:11Z</time></trkpt><trkpt lat="-20.202875741835204" lon="120.21018257883361"><ele>94.0</ele><time>2026-04-24T01:25:12Z</time></trkpt><trkpt lat="-20.202574093154663" lon="120.21019309473621"><ele>94.0</ele><time>2026-04-24T01:25:13Z</time></trkpt><trkpt lat="-20.20227354839545" lon="120.2102005971013"><ele>94.0</ele><time>2026-04-24T01:25:14Z</time></trkpt><trkpt lat="-20.20196823942048" lon="120.21020328244083"><ele>94.0</ele><time>2026-04-24T01:25:15Z</time></trkpt><trkpt lat="-20.20166237032553" lon="120.21021065688433"><ele>93.0</ele><time>2026-04-24T01:25:16Z</time></trkpt><trkpt lat="-20.201358112309673" lon="120.21022162526508"><ele>92.0</ele><time>2026-04-24T01:25:17Z</time></trkpt><trkpt lat="-20.201055091952696" lon="120.21023747157015"><ele>92.0</ele><time>2026-04-24T01:25:18Z</time></trkpt><trkpt lat="-20.20075409733537" lon="120.21025500933806"><ele>92.0</ele><time>2026-04-24T01:25:19Z</time></trkpt><trkpt lat="-20.200454278290387" lon="120.21027389273968"><ele>91.5</ele><time>2026-04-24T01:25:20Z</time></trkpt><trkpt lat="-20.20015402273289" lon="120.21029365364774"><ele>91.0</ele><time>2026-04-24T01:25:21Z</time></trkpt><trkpt lat="-20.19985247385251" lon="120.21031170208298"><ele>90.5</ele><time>2026-04-24T01:25:22Z</time></trkpt><trkpt lat="-20.19954860087346" lon="120.21032769164454"><ele>90.0</ele><time>2026-04-24T01:25:23Z</time></trkpt><trkpt lat="-20.19924702009672" lon="120.21034160474284"><ele>89.5</ele><time>2026-04-24T01:25:24Z</time></trkpt><trkpt lat="-20.19894423770458" lon="120.21035692456205"><ele>89.0</ele><time>2026-04-24T01:25:25Z</time></trkpt><trkpt lat="-20.198642194577456" lon="120.21037404526732"><ele>89.0</ele><time>2026-04-24T01:25:26Z</time></trkpt><trkpt lat="-20.19834246570787" lon="120.21039413568153"><ele>89.0</ele><time>2026-04-24T01:25:27Z</time></trkpt><trkpt lat="-20.198039932674355" lon="120.21041298587387"><ele>89.0</ele><time>2026-04-24T01:25:28Z</time></trkpt><trkpt lat="-20.19773637738229" lon="120.21042828172143"><ele>89.0</ele><time>2026-04-24T01:25:29Z</time></trkpt><trkpt lat="-20.1974331448454" lon="120.21044254534404"><ele>87.5</ele><time>2026-04-24T01:25:30Z</time></trkpt><trkpt lat="-20.197129964606496" lon="120.21045968198837"><ele>86.0</ele><time>2026-04-24T01:25:31Z</time></trkpt><trkpt lat="-20.196827585209526" lon="120.21047891416761"><ele>86.0</ele><time>2026-04-24T01:25:32Z</time></trkpt><trkpt lat="-20.19652741784999" lon="120.2104977331559"><ele>86.0</ele><time>2026-04-24T01:25:33Z</time></trkpt><trkpt lat="-20.19622725824194" lon="120.21051441416638"><ele>86.0</ele><time>2026-04-24T01:25:34Z</time></trkpt><trkpt lat="-20.1959248025708" lon="120.21052990843134"><ele>86.0</ele><time>2026-04-24T01:25:35Z</time></trkpt><trkpt lat="-20.195622573466895" lon="120.21054490077088"><ele>86.0</ele><time>2026-04-24T01:25:36Z</time></trkpt><trkpt lat="-20.195317424250554" lon="120.21056031878761"><ele>86.0</ele><time>2026-04-24T01:25:37Z</time></trkpt><trkpt lat="-20.195009926218045" lon="120.21057707946753"><ele>85.0</ele><time>2026-04-24T01:25:38Z</time></trkpt><trkpt lat="-20.19470396518966" lon="120.21059542636202"><ele>84.0</ele><time>2026-04-24T01:25:39Z</time></trkpt><trkpt lat="-20.194392603114768" lon="120.21061395129183"><ele>84.0</ele><time>2026-04-24T01:25:40Z</time></trkpt><trkpt lat="-20.194080536358648" lon="120.21063204723427"><ele>84.0</ele><time>2026-04-24T01:25:41Z</time></trkpt><trkpt lat="-20.193772753282506" lon="120.21064971468809"><ele>84.0</ele><time>2026-04-24T01:25:42Z</time></trkpt><trkpt lat="-20.193465752804684" lon="120.21066223782613"><ele>84.0</ele><time>2026-04-24T01:25:43Z</time></trkpt><trkpt lat="-20.193161885054327" lon="120.21067418563126"><ele>84.0</ele><time>2026-04-24T01:25:44Z</time></trkpt><trkpt lat="-20.192860663564336" lon="120.21068769632092"><ele>84.0</ele><time>2026-04-24T01:25:45Z</time></trkpt><trkpt lat="-20.192561395766027" lon="120.21070049321408"><ele>83.0</ele><time>2026-04-24T01:25:46Z</time></trkpt><trkpt lat="-20.192264629272945" lon="120.21071218227313"><ele>82.0</ele><time>2026-04-24T01:25:47Z</time></trkpt><trkpt lat="-20.191966218049576" lon="120.21072213261786"><ele>82.0</ele><time>2026-04-24T01:25:48Z</time></trkpt><trkpt lat="-20.19166794724557" lon="120.21073068054773"><ele>82.0</ele><time>2026-04-24T01:25:49Z</time></trkpt><trkpt lat="-20.19137101929018" lon="120.21073866841975"><ele>82.0</ele><time>2026-04-24T01:25:50Z</time></trkpt><trkpt lat="-20.191070958278715" lon="120.21074441366449"><ele>82.0</ele><time>2026-04-24T01:25:51Z</time></trkpt><trkpt lat="-20.190773317146363" lon="120.21074935986753"><ele>81.0</ele><time>2026-04-24T01:25:52Z</time></trkpt><trkpt lat="-20.19047581742332" lon="120.21075652329286"><ele>80.0</ele><time>2026-04-24T01:25:53Z</time></trkpt><trkpt lat="-20.190183908571417" lon="120.21076440167988"><ele>80.0</ele><time>2026-04-24T01:25:54Z</time></trkpt><trkpt lat="-20.18988814916777" lon="120.21077182759493"><ele>80.0</ele><time>2026-04-24T01:25:55Z</time></trkpt><trkpt lat="-20.189591695080825" lon="120.2107792793871"><ele>80.0</ele><time>2026-04-24T01:25:56Z</time></trkpt><trkpt lat="-20.189294155485715" lon="120.21078454088696"><ele>80.0</ele><time>2026-04-24T01:25:57Z</time></trkpt><trkpt lat="-20.188997660383087" lon="120.21079224447207"><ele>79.5</ele><time>2026-04-24T01:25:58Z</time></trkpt><trkpt lat="-20.18869895670252" lon="120.21080149487483"><ele>79.0</ele><time>2026-04-24T01:25:59Z</time></trkpt><trkpt lat="-20.18839934456104" lon="120.21081110541091"><ele>79.5</ele><time>2026-04-24T01:26:00Z</time></trkpt><trkpt lat="-20.18809700388288" lon="120.2108174672582"><ele>80.0</ele><time>2026-04-24T01:26:01Z</time></trkpt><trkpt lat="-20.18779965611315" lon="120.21082368880664"><ele>80.0</ele><time>2026-04-24T01:26:02Z</time></trkpt><trkpt lat="-20.18750209150438" lon="120.21083134890304"><ele>80.0</ele><time>2026-04-24T01:26:03Z</time></trkpt><trkpt lat="-20.187202200617865" lon="120.21083734386153"><ele>79.5</ele><time>2026-04-24T01:26:04Z</time></trkpt><trkpt lat="-20.186901026393677" lon="120.21084359848867"><ele>79.0</ele><time>2026-04-24T01:26:05Z</time></trkpt><trkpt lat="-20.186601641816573" lon="120.21084900888235"><ele>78.5</ele><time>2026-04-24T01:26:06Z</time></trkpt><trkpt lat="-20.186300435086768" lon="120.210857462625"><ele>78.0</ele><time>2026-04-24T01:26:07Z</time></trkpt><trkpt lat="-20.18600023317289" lon="120.2108673387581"><ele>78.0</ele><time>2026-04-24T01:26:08Z</time></trkpt><trkpt lat="-20.185699756471482" lon="120.21087469762796"><ele>78.0</ele><time>2026-04-24T01:26:09Z</time></trkpt><trkpt lat="-20.1853962155084" lon="120.21088364474546"><ele>78.5</ele><time>2026-04-24T01:26:10Z</time></trkpt><trkpt lat="-20.18509503564462" lon="120.21089311656407"><ele>79.0</ele><time>2026-04-24T01:26:11Z</time></trkpt><trkpt lat="-20.184796352735408" lon="120.21090359444588"><ele>79.0</ele><time>2026-04-24T01:26:12Z</time></trkpt><trkpt lat="-20.184495490077772" lon="120.21091445654046"><ele>79.0</ele><time>2026-04-24T01:26:13Z</time></trkpt><trkpt lat="-20.184193218349584" lon="120.21092499855544"><ele>78.5</ele><time>2026-04-24T01:26:14Z</time></trkpt><trkpt lat="-20.183893115775586" lon="120.21093456758625"><ele>78.0</ele><time>2026-04-24T01:26:15Z</time></trkpt><trkpt lat="-20.18359270718117" lon="120.21094426913233"><ele>78.0</ele><time>2026-04-24T01:26:16Z</time></trkpt><trkpt lat="-20.183295752503163" lon="120.21095549267528"><ele>78.0</ele><time>2026-04-24T01:26:17Z</time></trkpt><trkpt lat="-20.18300000831171" lon="120.21096871463533"><ele>78.5</ele><time>2026-04-24T01:26:18Z</time></trkpt><trkpt lat="-20.182702665866543" lon="120.21097976978207"><ele>79.0</ele><time>2026-04-24T01:26:19Z</time></trkpt><trkpt lat="-20.182405797370013" lon="120.21099147778409"><ele>79.0</ele><time>2026-04-24T01:26:20Z</time></trkpt><trkpt lat="-20.182111496366772" lon="120.2110024172448"><ele>79.0</ele><time>2026-04-24T01:26:21Z</time></trkpt><trkpt lat="-20.18181612263186" lon="120.21101347553386"><ele>79.0</ele><time>2026-04-24T01:26:22Z</time></trkpt><trkpt lat="-20.181521046333206" lon="120.21102657153664"><ele>79.0</ele><time>2026-04-24T01:26:23Z</time></trkpt><trkpt lat="-20.181228042046587" lon="120.21104012115225"><ele>79.0</ele><time>2026-04-24T01:26:24Z</time></trkpt><trkpt lat="-20.180938680044065" lon="120.2110561139931"><ele>79.0</ele><time>2026-04-24T01:26:25Z</time></trkpt><trkpt lat="-20.180646146996764" lon="120.21107102647696"><ele>78.5</ele><time>2026-04-24T01:26:26Z</time></trkpt><trkpt lat="-20.180354988854962" lon="120.21108497918691"><ele>78.0</ele><time>2026-04-24T01:26:27Z</time></trkpt><trkpt lat="-20.18006137654192" lon="120.21109990803892"><ele>78.0</ele><time>2026-04-24T01:26:28Z</time></trkpt><trkpt lat="-20.179763914808127" lon="120.21111602048914"><ele>78.0</ele><time>2026-04-24T01:26:29Z</time></trkpt><trkpt lat="-20.17946554072973" lon="120.21113677503763"><ele>78.0</ele><time>2026-04-24T01:26:30Z</time></trkpt><trkpt lat="-20.179165490544744" lon="120.21115724047708"><ele>78.0</ele><time>2026-04-24T01:26:31Z</time></trkpt><trkpt lat="-20.178864369607865" lon="120.21117437721672"><ele>78.0</ele><time>2026-04-24T01:26:32Z</time></trkpt><trkpt lat="-20.178561248893505" lon="120.21118845063457"><ele>78.0</ele><time>2026-04-24T01:26:33Z</time></trkpt><trkpt lat="-20.178257235558608" lon="120.21120148819251"><ele>78.5</ele><time>2026-04-24T01:26:34Z</time></trkpt><trkpt lat="-20.17795249151145" lon="120.21121481432662"><ele>79.0</ele><time>2026-04-24T01:26:35Z</time></trkpt><trkpt lat="-20.17765487396504" lon="120.21122533127091"><ele>79.0</ele><time>2026-04-24T01:26:36Z</time></trkpt><trkpt lat="-20.17735713229184" lon="120.21123762118214"><ele>79.0</ele><time>2026-04-24T01:26:37Z</time></trkpt><trkpt lat="-20.177059204911085" lon="120.21125268122046"><ele>79.0</ele><time>2026-04-24T01:26:38Z</time></trkpt><trkpt lat="-20.17675878318316" lon="120.21126658723303"><ele>79.0</ele><time>2026-04-24T01:26:39Z</time></trkpt><trkpt lat="-20.176458711548978" lon="120.21128185726559"><ele>78.5</ele><time>2026-04-24T01:26:40Z</time></trkpt><trkpt lat="-20.17615717126372" lon="120.21129829263799"><ele>78.0</ele><time>2026-04-24T01:26:41Z</time></trkpt><trkpt lat="-20.175857813271747" lon="120.211311865107"><ele>77.5</ele><time>2026-04-24T01:26:42Z</time></trkpt><trkpt lat="-20.175560519339896" lon="120.21131955762246"><ele>77.0</ele><time>2026-04-24T01:26:43Z</time></trkpt><trkpt lat="-20.175264679632996" lon="120.21132464490927"><ele>77.0</ele><time>2026-04-24T01:26:44Z</time></trkpt><trkpt lat="-20.17496757530878" lon="120.21133636662054"><ele>77.0</ele><time>2026-04-24T01:26:45Z</time></trkpt><trkpt lat="-20.174665793562546" lon="120.21134988503584"><ele>76.5</ele><time>2026-04-24T01:26:46Z</time></trkpt><trkpt lat="-20.17436315156984" lon="120.21136193873875"><ele>76.0</ele><time>2026-04-24T01:26:47Z</time></trkpt><trkpt lat="-20.174059998453295" lon="120.21137221534993"><ele>77.0</ele><time>2026-04-24T01:26:48Z</time></trkpt><trkpt lat="-20.173756093397756" lon="120.21137694291508"><ele>78.0</ele><time>2026-04-24T01:26:49Z</time></trkpt><trkpt lat="-20.17344760420105" lon="120.21137583821185"><ele>77.5</ele><time>2026-04-24T01:26:50Z</time></trkpt><trkpt lat="-20.17313889288415" lon="120.21137634684666"><ele>77.0</ele><time>2026-04-24T01:26:51Z</time></trkpt><trkpt lat="-20.17283201763831" lon="120.2113807694408"><ele>77.0</ele><time>2026-04-24T01:26:52Z</time></trkpt><trkpt lat="-20.172528545462438" lon="120.21138684919144"><ele>77.0</ele><time>2026-04-24T01:26:53Z</time></trkpt><trkpt lat="-20.172224733038426" lon="120.21138730336438"><ele>77.0</ele><time>2026-04-24T01:26:54Z</time></trkpt><trkpt lat="-20.171921771114985" lon="120.21138723745402"><ele>77.0</ele><time>2026-04-24T01:26:55Z</time></trkpt><trkpt lat="-20.17161816942534" lon="120.21138722730693"><ele>76.5</ele><time>2026-04-24T01:26:56Z</time></trkpt><trkpt lat="-20.171330606608667" lon="120.21138479069855"><ele>76.0</ele><time>2026-04-24T01:26:57Z</time></trkpt><trkpt lat="-20.171050398565168" lon="120.2113887199564"><ele>76.0</ele><time>2026-04-24T01:26:58Z</time></trkpt><trkpt lat="-20.170767104187608" lon="120.21139537543554"><ele>76.0</ele><time>2026-04-24T01:26:59Z</time></trkpt><trkpt lat="-20.170479322062615" lon="120.21140155969012"><ele>76.5</ele><time>2026-04-24T01:27:00Z</time></trkpt><trkpt lat="-20.170190762221292" lon="120.21140573604538"><ele>77.0</ele><time>2026-04-24T01:27:01Z</time></trkpt><trkpt lat="-20.1698992375651" lon="120.21140803083759"><ele>77.5</ele><time>2026-04-24T01:27:02Z</time></trkpt><trkpt lat="-20.16960823249537" lon="120.21141408678868"><ele>78.0</ele><time>2026-04-24T01:27:03Z</time></trkpt><trkpt lat="-20.16931975249424" lon="120.21142126615696"><ele>78.0</ele><time>2026-04-24T01:27:04Z</time></trkpt><trkpt lat="-20.169029082184917" lon="120.21142890703096"><ele>78.0</ele><time>2026-04-24T01:27:05Z</time></trkpt><trkpt lat="-20.16873439725868" lon="120.2114353914227"><ele>77.0</ele><time>2026-04-24T01:27:06Z</time></trkpt><trkpt lat="-20.168434033863136" lon="120.21144356949006"><ele>76.0</ele><time>2026-04-24T01:27:07Z</time></trkpt><trkpt lat="-20.168132768824083" lon="120.21145475743849"><ele>75.5</ele><time>2026-04-24T01:27:08Z</time></trkpt><trkpt lat="-20.16783714749232" lon="120.2114621810455"><ele>75.0</ele><time>2026-04-24T01:27:09Z</time></trkpt><trkpt lat="-20.167543607793995" lon="120.21146656886673"><ele>74.5</ele><time>2026-04-24T01:27:10Z</time></trkpt><trkpt lat="-20.167247319920538" lon="120.21147011294167"><ele>74.0</ele><time>2026-04-24T01:27:11Z</time></trkpt><trkpt lat="-20.166949025316868" lon="120.21146996242163"><ele>74.0</ele><time>2026-04-24T01:27:12Z</time></trkpt><trkpt lat="-20.166653874443778" lon="120.21146894943794"><ele>74.0</ele><time>2026-04-24T01:27:13Z</time></trkpt><trkpt lat="-20.1663601674932" lon="120.21146902733904"><ele>75.0</ele><time>2026-04-24T01:27:14Z</time></trkpt><trkpt lat="-20.16606604074223" lon="120.21147080741137"><ele>76.0</ele><time>2026-04-24T01:27:15Z</time></trkpt><trkpt lat="-20.16576998620488" lon="120.21147371221396"><ele>76.0</ele><time>2026-04-24T01:27:16Z</time></trkpt><trkpt lat="-20.165473008392556" lon="120.21147381492399"><ele>76.0</ele><time>2026-04-24T01:27:17Z</time></trkpt><trkpt lat="-20.165177105477806" lon="120.21147023550793"><ele>76.0</ele><time>2026-04-24T01:27:18Z</time></trkpt><trkpt lat="-20.164879769906353" lon="120.21146717694823"><ele>76.0</ele><time>2026-04-24T01:27:19Z</time></trkpt><trkpt lat="-20.164585566648547" lon="120.21146457235936"><ele>75.0</ele><time>2026-04-24T01:27:20Z</time></trkpt><trkpt lat="-20.164282456833163" lon="120.21146287017895"><ele>74.0</ele><time>2026-04-24T01:27:21Z</time></trkpt><trkpt lat="-20.16397979962082" lon="120.2114639309903"><ele>73.5</ele><time>2026-04-24T01:27:22Z</time></trkpt><trkpt lat="-20.163678233467714" lon="120.21146543239144"><ele>73.0</ele><time>2026-04-24T01:27:23Z</time></trkpt><trkpt lat="-20.163374081888893" lon="120.21146220925866"><ele>73.5</ele><time>2026-04-24T01:27:24Z</time></trkpt><trkpt lat="-20.163072184088215" lon="120.21145659978927"><ele>74.0</ele><time>2026-04-24T01:27:25Z</time></trkpt><trkpt lat="-20.162773509446968" lon="120.21145511058432"><ele>74.0</ele><time>2026-04-24T01:27:26Z</time></trkpt><trkpt lat="-20.16247359609239" lon="120.21145626946497"><ele>74.0</ele><time>2026-04-24T01:27:27Z</time></trkpt><trkpt lat="-20.162173397715506" lon="120.21145651359292"><ele>73.5</ele><time>2026-04-24T01:27:28Z</time></trkpt><trkpt lat="-20.16187268112995" lon="120.21145533830632"><ele>73.0</ele><time>2026-04-24T01:27:29Z</time></trkpt><trkpt lat="-20.161573582394215" lon="120.21145240252221"><ele>73.0</ele><time>2026-04-24T01:27:30Z</time></trkpt><trkpt lat="-20.161275523185417" lon="120.21144937142847"><ele>73.0</ele><time>2026-04-24T01:27:31Z</time></trkpt><trkpt lat="-20.160973412689508" lon="120.21144666164079"><ele>73.5</ele><time>2026-04-24T01:27:32Z</time></trkpt><trkpt lat="-20.16067097931482" lon="120.2114438479921"><ele>74.0</ele><time>2026-04-24T01:27:33Z</time></trkpt><trkpt lat="-20.16036802917073" lon="120.21144133252669"><ele>74.0</ele><time>2026-04-24T01:27:34Z</time></trkpt><trkpt lat="-20.160070858181278" lon="120.2114418664335"><ele>74.0</ele><time>2026-04-24T01:27:35Z</time></trkpt><trkpt lat="-20.15977366472995" lon="120.21144079329298"><ele>74.0</ele><time>2026-04-24T01:27:36Z</time></trkpt><trkpt lat="-20.159478482007177" lon="120.21143788336254"><ele>74.0</ele><time>2026-04-24T01:27:37Z</time></trkpt><trkpt lat="-20.159187577889053" lon="120.21143890920877"><ele>73.5</ele><time>2026-04-24T01:27:38Z</time></trkpt><trkpt lat="-20.158897231559106" lon="120.21143933170798"><ele>73.0</ele><time>2026-04-24T01:27:39Z</time></trkpt><trkpt lat="-20.158606825791125" lon="120.21143739503086"><ele>73.0</ele><time>2026-04-24T01:27:40Z</time></trkpt><trkpt lat="-20.158314629707522" lon="120.21142852271274"><ele>73.0</ele><time>2026-04-24T01:27:41Z</time></trkpt><trkpt lat="-20.158019658954494" lon="120.21141066704473"><ele>73.0</ele><time>2026-04-24T01:27:42Z</time></trkpt><trkpt lat="-20.157726367456377" lon="120.21138913660894"><ele>73.0</ele><time>2026-04-24T01:27:43Z</time></trkpt><trkpt lat="-20.15743195481401" lon="120.2113641905668"><ele>73.5</ele><time>2026-04-24T01:27:44Z</time></trkpt><trkpt lat="-20.15713926675926" lon="120.21133612828861"><ele>74.0</ele><time>2026-04-24T01:27:45Z</time></trkpt><trkpt lat="-20.15684447576359" lon="120.21130692739669"><ele>74.0</ele><time>2026-04-24T01:27:46Z</time></trkpt><trkpt lat="-20.15654197375211" lon="120.21127639526816"><ele>74.0</ele><time>2026-04-24T01:27:47Z</time></trkpt><trkpt lat="-20.156238543217718" lon="120.21124788433256"><ele>73.5</ele><time>2026-04-24T01:27:48Z</time></trkpt><trkpt lat="-20.15593538180593" lon="120.21122445895688"><ele>73.0</ele><time>2026-04-24T01:27:49Z</time></trkpt><trkpt lat="-20.155632765787168" lon="120.2112073171827"><ele>73.0</ele><time>2026-04-24T01:27:50Z</time></trkpt><trkpt lat="-20.15533303721634" lon="120.2111989749153"><ele>73.0</ele><time>2026-04-24T01:27:51Z</time></trkpt><trkpt lat="-20.155052944310988" lon="120.21120701739818"><ele>73.0</ele><time>2026-04-24T01:27:52Z</time></trkpt><trkpt lat="-20.154767135921116" lon="120.21123439001872"><ele>73.0</ele><time>2026-04-24T01:27:53Z</time></trkpt><trkpt lat="-20.15447525837778" lon="120.211276991486"><ele>73.0</ele><time>2026-04-24T01:27:54Z</time></trkpt><trkpt lat="-20.15417199260945" lon="120.211331833007"><ele>73.0</ele><time>2026-04-24T01:27:55Z</time></trkpt><trkpt lat="-20.15387177948923" lon="120.2113973255885"><ele>73.0</ele><time>2026-04-24T01:27:56Z</time></trkpt><trkpt lat="-20.15358397273343" lon="120.21146551894122"><ele>73.0</ele><time>2026-04-24T01:27:57Z</time></trkpt><trkpt lat="-20.153300797635335" lon="120.21153662413515"><ele>72.5</ele><time>2026-04-24T01:27:58Z</time></trkpt><trkpt lat="-20.153015584523775" lon="120.21160863828814"><ele>72.0</ele><time>2026-04-24T01:27:59Z</time></trkpt><trkpt lat="-20.15272305303844" lon="120.21167825493995"><ele>72.0</ele><time>2026-04-24T01:28:00Z</time></trkpt><trkpt lat="-20.152427834053405" lon="120.21174491152723"><ele>72.0</ele><time>2026-04-24T01:28:01Z</time></trkpt><trkpt lat="-20.152132010133283" lon="120.21181178759758"><ele>72.5</ele><time>2026-04-24T01:28:02Z</time></trkpt><trkpt lat="-20.15183768953002" lon="120.2118772605663"><ele>73.0</ele><time>2026-04-24T01:28:03Z</time></trkpt><trkpt lat="-20.151543130287664" lon="120.21194211036666"><ele>73.0</ele><time>2026-04-24T01:28:04Z</time></trkpt><trkpt lat="-20.15124736257018" lon="120.21200552061974"><ele>73.0</ele><time>2026-04-24T01:28:05Z</time></trkpt><trkpt lat="-20.150948562316437" lon="120.21206611134465"><ele>72.5</ele><time>2026-04-24T01:28:06Z</time></trkpt><trkpt lat="-20.15064765891641" lon="120.2121204212228"><ele>72.0</ele><time>2026-04-24T01:28:07Z</time></trkpt><trkpt lat="-20.15034209468094" lon="120.21217233203876"><ele>72.0</ele><time>2026-04-24T01:28:08Z</time></trkpt><trkpt lat="-20.15003802670965" lon="120.21221693638633"><ele>72.0</ele><time>2026-04-24T01:28:09Z</time></trkpt><trkpt lat="-20.149735278605196" lon="120.21225127955191"><ele>72.0</ele><time>2026-04-24T01:28:10Z</time></trkpt><trkpt lat="-20.149428432722413" lon="120.21228323559554"><ele>72.0</ele><time>2026-04-24T01:28:11Z</time></trkpt><trkpt lat="-20.149122857132266" lon="120.21230908678301"><ele>72.5</ele><time>2026-04-24T01:28:12Z</time></trkpt><trkpt lat="-20.14881640807722" lon="120.21233413321407"><ele>73.0</ele><time>2026-04-24T01:28:13Z</time></trkpt><trkpt lat="-20.148511480562924" lon="120.21235932636773"><ele>72.5</ele><time>2026-04-24T01:28:14Z</time></trkpt><trkpt lat="-20.148208658186345" lon="120.21238582565746"><ele>72.0</ele><time>2026-04-24T01:28:15Z</time></trkpt><trkpt lat="-20.14790852400362" lon="120.21241631251088"><ele>72.0</ele><time>2026-04-24T01:28:16Z</time></trkpt><trkpt lat="-20.147609440961293" lon="120.21244734469407"><ele>72.0</ele><time>2026-04-24T01:28:17Z</time></trkpt><trkpt lat="-20.147309914377267" lon="120.2124777438507"><ele>71.5</ele><time>2026-04-24T01:28:18Z</time></trkpt><trkpt lat="-20.147007761843934" lon="120.21250675589992"><ele>71.0</ele><time>2026-04-24T01:28:19Z</time></trkpt><trkpt lat="-20.14670679888491" lon="120.21253731715825"><ele>70.5</ele><time>2026-04-24T01:28:20Z</time></trkpt><trkpt lat="-20.146405227396396" lon="120.21256943425277"><ele>70.0</ele><time>2026-04-24T01:28:21Z</time></trkpt><trkpt lat="-20.146097783992268" lon="120.21259882606203"><ele>70.0</ele><time>2026-04-24T01:28:22Z</time></trkpt><trkpt lat="-20.145792619191855" lon="120.2126273103064"><ele>70.0</ele><time>2026-04-24T01:28:23Z</time></trkpt><trkpt lat="-20.145489789610366" lon="120.21265786582823"><ele>70.0</ele><time>2026-04-24T01:28:24Z</time></trkpt><trkpt lat="-20.145188314081153" lon="120.21269202783259"><ele>70.0</ele><time>2026-04-24T01:28:25Z</time></trkpt><trkpt lat="-20.144886056129415" lon="120.21272671010645"><ele>69.5</ele><time>2026-04-24T01:28:26Z</time></trkpt><trkpt lat="-20.14458591164141" lon="120.21275873415334"><ele>69.0</ele><time>2026-04-24T01:28:27Z</time></trkpt><trkpt lat="-20.144288934436567" lon="120.21279123625445"><ele>70.0</ele><time>2026-04-24T01:28:28Z</time></trkpt><trkpt lat="-20.14399100243272" lon="120.21282399150348"><ele>71.0</ele><time>2026-04-24T01:28:29Z</time></trkpt><trkpt lat="-20.14369219031041" lon="120.21285865487181"><ele>71.0</ele><time>2026-04-24T01:28:30Z</time></trkpt><trkpt lat="-20.143391481756723" lon="120.2128945070607"><ele>71.0</ele><time>2026-04-24T01:28:31Z</time></trkpt><trkpt lat="-20.143090601769114" lon="120.2129286730049"><ele>70.5</ele><time>2026-04-24T01:28:32Z</time></trkpt><trkpt lat="-20.14279033793961" lon="120.21295942856499"><ele>70.0</ele><time>2026-04-24T01:28:33Z</time></trkpt><trkpt lat="-20.142490348374594" lon="120.21299301222514"><ele>70.0</ele><time>2026-04-24T01:28:34Z</time></trkpt><trkpt lat="-20.14218635567028" lon="120.21302206160794"><ele>70.0</ele><time>2026-04-24T01:28:35Z</time></trkpt><trkpt lat="-20.14188234126963" lon="120.21305354082138"><ele>70.0</ele><time>2026-04-24T01:28:36Z</time></trkpt><trkpt lat="-20.14158167012495" lon="120.21308800293181"><ele>70.0</ele><time>2026-04-24T01:28:37Z</time></trkpt><trkpt lat="-20.141282536385162" lon="120.2131212619943"><ele>69.5</ele><time>2026-04-24T01:28:38Z</time></trkpt><trkpt lat="-20.140983295620774" lon="120.21315145775122"><ele>69.0</ele><time>2026-04-24T01:28:39Z</time></trkpt><trkpt lat="-20.1406822412708" lon="120.21318241957695"><ele>69.0</ele><time>2026-04-24T01:28:40Z</time></trkpt><trkpt lat="-20.14038863740498" lon="120.21321325916959"><ele>69.0</ele><time>2026-04-24T01:28:41Z</time></trkpt><trkpt lat="-20.140096279156747" lon="120.21324306289235"><ele>69.0</ele><time>2026-04-24T01:28:42Z</time></trkpt><trkpt lat="-20.139798838581736" lon="120.213276861275"><ele>69.0</ele><time>2026-04-24T01:28:43Z</time></trkpt><trkpt lat="-20.13950564582722" lon="120.21331040711271"><ele>69.0</ele><time>2026-04-24T01:28:44Z</time></trkpt><trkpt lat="-20.139210719653388" lon="120.2133427279869"><ele>69.0</ele><time>2026-04-24T01:28:45Z</time></trkpt><trkpt lat="-20.138913197047422" lon="120.21337830214223"><ele>69.0</ele><time>2026-04-24T01:28:46Z</time></trkpt><trkpt lat="-20.13861062621221" lon="120.2134105690203"><ele>69.0</ele><time>2026-04-24T01:28:47Z</time></trkpt><trkpt lat="-20.138306384294523" lon="120.21344549855007"><ele>68.5</ele><time>2026-04-24T01:28:48Z</time></trkpt><trkpt lat="-20.137998429580353" lon="120.21347735009998"><ele>68.0</ele><time>2026-04-24T01:28:49Z</time></trkpt><trkpt lat="-20.13769066788639" lon="120.21350914045013"><ele>67.5</ele><time>2026-04-24T01:28:50Z</time></trkpt><trkpt lat="-20.137381807765955" lon="120.21354341193408"><ele>67.0</ele><time>2026-04-24T01:28:51Z</time></trkpt><trkpt lat="-20.137068966233983" lon="120.21357824299014"><ele>67.0</ele><time>2026-04-24T01:28:52Z</time></trkpt><trkpt lat="-20.136757714274047" lon="120.21361263408427"><ele>67.0</ele><time>2026-04-24T01:28:53Z</time></trkpt><trkpt lat="-20.136446505846912" lon="120.21364609519293"><ele>66.5</ele><time>2026-04-24T01:28:54Z</time></trkpt><trkpt lat="-20.136136062683715" lon="120.2136790161979"><ele>66.0</ele><time>2026-04-24T01:28:55Z</time></trkpt><trkpt lat="-20.135825159063906" lon="120.21371377749827"><ele>65.5</ele><time>2026-04-24T01:28:56Z</time></trkpt><trkpt lat="-20.135517629635338" lon="120.21374915464195"><ele>65.0</ele><time>2026-04-24T01:28:57Z</time></trkpt><trkpt lat="-20.135206379016125" lon="120.21378247391004"><ele>65.0</ele><time>2026-04-24T01:28:58Z</time></trkpt><trkpt lat="-20.134891222776094" lon="120.2138159818698"><ele>65.0</ele><time>2026-04-24T01:28:59Z</time></trkpt><trkpt lat="-20.13457384809115" lon="120.21384903825648"><ele>65.5</ele><time>2026-04-24T01:29:00Z</time></trkpt><trkpt lat="-20.13425544179966" lon="120.21387960367763"><ele>66.0</ele><time>2026-04-24T01:29:01Z</time></trkpt><trkpt lat="-20.133934357139225" lon="120.21391024520753"><ele>66.0</ele><time>2026-04-24T01:29:02Z</time></trkpt><trkpt lat="-20.13361649621621" lon="120.21394184600392"><ele>66.0</ele><time>2026-04-24T01:29:03Z</time></trkpt><trkpt lat="-20.133302294856296" lon="120.21397322066697"><ele>65.5</ele><time>2026-04-24T01:29:04Z</time></trkpt><trkpt lat="-20.132992374192458" lon="120.21400496254992"><ele>65.0</ele><time>2026-04-24T01:29:05Z</time></trkpt><trkpt lat="-20.13268437359062" lon="120.21403447583974"><ele>65.5</ele><time>2026-04-24T01:29:06Z</time></trkpt><trkpt lat="-20.132377401394923" lon="120.21406488733297"><ele>66.0</ele><time>2026-04-24T01:29:07Z</time></trkpt><trkpt lat="-20.13206810917344" lon="120.2140909909821"><ele>66.0</ele><time>2026-04-24T01:29:08Z</time></trkpt><trkpt lat="-20.131758215706597" lon="120.21411727029249"><ele>66.0</ele><time>2026-04-24T01:29:09Z</time></trkpt><trkpt lat="-20.131448404446655" lon="120.21414090679862"><ele>66.0</ele><time>2026-04-24T01:29:10Z</time></trkpt><trkpt lat="-20.13113972053779" lon="120.21416179586753"><ele>66.0</ele><time>2026-04-24T01:29:11Z</time></trkpt><trkpt lat="-20.130835005090123" lon="120.21418135862743"><ele>65.5</ele><time>2026-04-24T01:29:12Z</time></trkpt><trkpt lat="-20.13052753074118" lon="120.21420222321014"><ele>65.0</ele><time>2026-04-24T01:29:13Z</time></trkpt><trkpt lat="-20.130219236965058" lon="120.21422590277268"><ele>65.0</ele><time>2026-04-24T01:29:14Z</time></trkpt><trkpt lat="-20.129908620871447" lon="120.21425133731583"><ele>65.0</ele><time>2026-04-24T01:29:15Z</time></trkpt><trkpt lat="-20.129598760024752" lon="120.21427705294394"><ele>65.0</ele><time>2026-04-24T01:29:16Z</time></trkpt><trkpt lat="-20.129287591890275" lon="120.2143016201823"><ele>65.0</ele><time>2026-04-24T01:29:17Z</time></trkpt><trkpt lat="-20.128975936121865" lon="120.21432867027731"><ele>65.0</ele><time>2026-04-24T01:29:18Z</time></trkpt><trkpt lat="-20.12866408919583" lon="120.21435678488797"><ele>65.0</ele><time>2026-04-24T01:29:19Z</time></trkpt><trkpt lat="-20.12835336054808" lon="120.21438551483156"><ele>64.5</ele><time>2026-04-24T01:29:20Z</time></trkpt><trkpt lat="-20.128042615665343" lon="120.21441683807052"><ele>64.0</ele><time>2026-04-24T01:29:21Z</time></trkpt><trkpt lat="-20.127734247667583" lon="120.21445101851599"><ele>64.0</ele><time>2026-04-24T01:29:22Z</time></trkpt><trkpt lat="-20.12742771149528" lon="120.21448544544798"><ele>64.0</ele><time>2026-04-24T01:29:23Z</time></trkpt><trkpt lat="-20.12711765224006" lon="120.21452162424848"><ele>64.5</ele><time>2026-04-24T01:29:24Z</time></trkpt><trkpt lat="-20.126809432214888" lon="120.2145591575634"><ele>65.0</ele><time>2026-04-24T01:29:25Z</time></trkpt><trkpt lat="-20.126499703627584" lon="120.21459770848007"><ele>65.0</ele><time>2026-04-24T01:29:26Z</time></trkpt><trkpt lat="-20.12618888717039" lon="120.21463411969802"><ele>65.0</ele><time>2026-04-24T01:29:27Z</time></trkpt><trkpt lat="-20.12587664981766" lon="120.21467011631644"><ele>65.0</ele><time>2026-04-24T01:29:28Z</time></trkpt><trkpt lat="-20.12556676572223" lon="120.21471021252209"><ele>65.0</ele><time>2026-04-24T01:29:29Z</time></trkpt><trkpt lat="-20.125259931985184" lon="120.21474943992713"><ele>65.0</ele><time>2026-04-24T01:29:30Z</time></trkpt><trkpt lat="-20.12495320160341" lon="120.2147881809067"><ele>65.0</ele><time>2026-04-24T01:29:31Z</time></trkpt><trkpt lat="-20.124647182336183" lon="120.21482723083591"><ele>65.5</ele><time>2026-04-24T01:29:32Z</time></trkpt><trkpt lat="-20.12433926686295" lon="120.2148674241941"><ele>66.0</ele><time>2026-04-24T01:29:33Z</time></trkpt><trkpt lat="-20.12403015869205" lon="120.2149045272979"><ele>65.0</ele><time>2026-04-24T01:29:34Z</time></trkpt><trkpt lat="-20.12372160786995" lon="120.21494107734753"><ele>64.0</ele><time>2026-04-24T01:29:35Z</time></trkpt><trkpt lat="-20.123416484749214" lon="120.2149790778285"><ele>64.0</ele><time>2026-04-24T01:29:36Z</time></trkpt><trkpt lat="-20.123112593198847" lon="120.2150166932325"><ele>64.0</ele><time>2026-04-24T01:29:37Z</time></trkpt><trkpt lat="-20.12280470517535" lon="120.2150520453269"><ele>64.0</ele><time>2026-04-24T01:29:38Z</time></trkpt><trkpt lat="-20.12249822585277" lon="120.215086970977"><ele>64.0</ele><time>2026-04-24T01:29:39Z</time></trkpt><trkpt lat="-20.122189051257696" lon="120.21512068963447"><ele>64.5</ele><time>2026-04-24T01:29:40Z</time></trkpt><trkpt lat="-20.121880457118756" lon="120.2151554658617"><ele>65.0</ele><time>2026-04-24T01:29:41Z</time></trkpt><trkpt lat="-20.121572255293927" lon="120.2151936992893"><ele>65.0</ele><time>2026-04-24T01:29:42Z</time></trkpt><trkpt lat="-20.121263481919478" lon="120.21523518069715"><ele>65.0</ele><time>2026-04-24T01:29:43Z</time></trkpt><trkpt lat="-20.120955645080567" lon="120.21527352064966"><ele>64.5</ele><time>2026-04-24T01:29:44Z</time></trkpt><trkpt lat="-20.120646962594332" lon="120.21530808115824"><ele>64.0</ele><time>2026-04-24T01:29:45Z</time></trkpt><trkpt lat="-20.120336327338293" lon="120.21534705905125"><ele>64.0</ele><time>2026-04-24T01:29:46Z</time></trkpt><trkpt lat="-20.120027713927886" lon="120.21538719921494"><ele>64.0</ele><time>2026-04-24T01:29:47Z</time></trkpt><trkpt lat="-20.119719297196156" lon="120.21542490905362"><ele>64.0</ele><time>2026-04-24T01:29:48Z</time></trkpt><trkpt lat="-20.119407136746183" lon="120.21545733008955"><ele>64.0</ele><time>2026-04-24T01:29:49Z</time></trkpt><trkpt lat="-20.119095754984123" lon="120.21548830010404"><ele>64.0</ele><time>2026-04-24T01:29:50Z</time></trkpt><trkpt lat="-20.11878473778535" lon="120.21551924222234"><ele>64.0</ele><time>2026-04-24T01:29:51Z</time></trkpt><trkpt lat="-20.118474753413288" lon="120.21554872519341"><ele>64.0</ele><time>2026-04-24T01:29:52Z</time></trkpt><trkpt lat="-20.1181673770025" lon="120.21557805582955"><ele>64.0</ele><time>2026-04-24T01:29:53Z</time></trkpt><trkpt lat="-20.11786299034937" lon="120.2156094290196"><ele>64.0</ele><time>2026-04-24T01:29:54Z</time></trkpt><trkpt lat="-20.11755777251118" lon="120.21564114695892"><ele>64.0</ele><time>2026-04-24T01:29:55Z</time></trkpt><trkpt lat="-20.117249535703696" lon="120.21567296656875"><ele>65.0</ele><time>2026-04-24T01:29:56Z</time></trkpt><trkpt lat="-20.116944894775305" lon="120.2157060555263"><ele>66.0</ele><time>2026-04-24T01:29:57Z</time></trkpt><trkpt lat="-20.116636878052038" lon="120.21573714458752"><ele>66.0</ele><time>2026-04-24T01:29:58Z</time></trkpt><trkpt lat="-20.11633112886185" lon="120.21576702011338"><ele>66.0</ele><time>2026-04-24T01:29:59Z</time></trkpt><trkpt lat="-20.116025743074765" lon="120.21579643103745"><ele>66.0</ele><time>2026-04-24T01:30:00Z</time></trkpt><trkpt lat="-20.115722143622342" lon="120.21582402240121"><ele>66.0</ele><time>2026-04-24T01:30:01Z</time></trkpt><trkpt lat="-20.11541169299051" lon="120.21585081636819"><ele>66.0</ele><time>2026-04-24T01:30:02Z</time></trkpt><trkpt lat="-20.115106811680597" lon="120.2158754605415"><ele>66.0</ele><time>2026-04-24T01:30:03Z</time></trkpt><trkpt lat="-20.11480276218708" lon="120.21590091169183"><ele>66.5</ele><time>2026-04-24T01:30:04Z</time></trkpt><trkpt lat="-20.114501261370435" lon="120.21592866519254"><ele>67.0</ele><time>2026-04-24T01:30:05Z</time></trkpt><trkpt lat="-20.114196124922724" lon="120.21595500401797"><ele>67.0</ele><time>2026-04-24T01:30:06Z</time></trkpt><trkpt lat="-20.113890810507908" lon="120.21598277522564"><ele>67.0</ele><time>2026-04-24T01:30:07Z</time></trkpt><trkpt lat="-20.113586402334235" lon="120.2160087427519"><ele>67.0</ele><time>2026-04-24T01:30:08Z</time></trkpt><trkpt lat="-20.113279390202518" lon="120.21603256940223"><ele>67.0</ele><time>2026-04-24T01:30:09Z</time></trkpt><trkpt lat="-20.112972752139378" lon="120.21605337065685"><ele>67.0</ele><time>2026-04-24T01:30:10Z</time></trkpt><trkpt lat="-20.112663448628716" lon="120.21607137036487"><ele>67.0</ele><time>2026-04-24T01:30:11Z</time></trkpt><trkpt lat="-20.11235767691444" lon="120.21608478528125"><ele>67.0</ele><time>2026-04-24T01:30:12Z</time></trkpt><trkpt lat="-20.112051847903018" lon="120.21608947102511"><ele>67.0</ele><time>2026-04-24T01:30:13Z</time></trkpt><trkpt lat="-20.111743170018467" lon="120.2160865377061"><ele>68.0</ele><time>2026-04-24T01:30:14Z</time></trkpt><trkpt lat="-20.111434372954857" lon="120.21607644133421"><ele>69.0</ele><time>2026-04-24T01:30:15Z</time></trkpt><trkpt lat="-20.111125468223918" lon="120.21606164122916"><ele>69.0</ele><time>2026-04-24T01:30:16Z</time></trkpt><trkpt lat="-20.110813026306086" lon="120.21604600076432"><ele>69.0</ele><time>2026-04-24T01:30:17Z</time></trkpt><trkpt lat="-20.110501866198163" lon="120.21603539094393"><ele>68.5</ele><time>2026-04-24T01:30:18Z</time></trkpt><trkpt lat="-20.11018638639821" lon="120.21603620909096"><ele>68.0</ele><time>2026-04-24T01:30:19Z</time></trkpt><trkpt lat="-20.109867670810626" lon="120.21604223852229"><ele>68.0</ele><time>2026-04-24T01:30:20Z</time></trkpt><trkpt lat="-20.109550401911996" lon="120.21605015392957"><ele>68.0</ele><time>2026-04-24T01:30:21Z</time></trkpt><trkpt lat="-20.1092324162411" lon="120.21605637557738"><ele>67.0</ele><time>2026-04-24T01:30:22Z</time></trkpt><trkpt lat="-20.108916250532303" lon="120.21606312919006"><ele>66.0</ele><time>2026-04-24T01:30:23Z</time></trkpt><trkpt lat="-20.108600423123207" lon="120.21607271526274"><ele>66.0</ele><time>2026-04-24T01:30:24Z</time></trkpt><trkpt lat="-20.108290622801793" lon="120.2160858601748"><ele>66.0</ele><time>2026-04-24T01:30:25Z</time></trkpt><trkpt lat="-20.107971555176267" lon="120.2161036665618"><ele>65.5</ele><time>2026-04-24T01:30:26Z</time></trkpt><trkpt lat="-20.107656789482398" lon="120.21612132688192"><ele>65.0</ele><time>2026-04-24T01:30:27Z</time></trkpt><trkpt lat="-20.10734930611178" lon="120.21613810200776"><ele>64.5</ele><time>2026-04-24T01:30:28Z</time></trkpt><trkpt lat="-20.10704617253143" lon="120.2161539905057"><ele>64.0</ele><time>2026-04-24T01:30:29Z</time></trkpt><trkpt lat="-20.106747414979278" lon="120.21617050212615"><ele>64.0</ele><time>2026-04-24T01:30:30Z</time></trkpt><trkpt lat="-20.106438501579" lon="120.21618060727582"><ele>64.0</ele><time>2026-04-24T01:30:31Z</time></trkpt><trkpt lat="-20.106140305701956" lon="120.21619628505404"><ele>64.0</ele><time>2026-04-24T01:30:32Z</time></trkpt><trkpt lat="-20.105834786176768" lon="120.21621268106274"><ele>64.0</ele><time>2026-04-24T01:30:33Z</time></trkpt><trkpt lat="-20.105531599646717" lon="120.21622373234369"><ele>63.5</ele><time>2026-04-24T01:30:34Z</time></trkpt><trkpt lat="-20.105233212238034" lon="120.21622931516092"><ele>63.0</ele><time>2026-04-24T01:30:35Z</time></trkpt><trkpt lat="-20.104939581081922" lon="120.21623469676156"><ele>62.5</ele><time>2026-04-24T01:30:36Z</time></trkpt><trkpt lat="-20.104643101507254" lon="120.2162365338672"><ele>62.0</ele><time>2026-04-24T01:30:37Z</time></trkpt><trkpt lat="-20.10434971258651" lon="120.21623036355257"><ele>61.5</ele><time>2026-04-24T01:30:38Z</time></trkpt><trkpt lat="-20.104053609779214" lon="120.21622683416582"><ele>61.0</ele><time>2026-04-24T01:30:39Z</time></trkpt><trkpt lat="-20.103752218749296" lon="120.21622211489827"><ele>61.0</ele><time>2026-04-24T01:30:40Z</time></trkpt><trkpt lat="-20.103450498593173" lon="120.21622192641715"><ele>61.0</ele><time>2026-04-24T01:30:41Z</time></trkpt><trkpt lat="-20.10314582734489" lon="120.21622568345478"><ele>60.0</ele><time>2026-04-24T01:30:42Z</time></trkpt><trkpt lat="-20.10284130337842" lon="120.21622713757621"><ele>59.0</ele><time>2026-04-24T01:30:43Z</time></trkpt><trkpt lat="-20.10253113745362" lon="120.21622585855766"><ele>59.0</ele><time>2026-04-24T01:30:44Z</time></trkpt><trkpt lat="-20.102218007325252" lon="120.21622393788222"><ele>59.0</ele><time>2026-04-24T01:30:45Z</time></trkpt><trkpt lat="-20.10190552943005" lon="120.2162247572812"><ele>59.0</ele><time>2026-04-24T01:30:46Z</time></trkpt><trkpt lat="-20.101589523788704" lon="120.21622696734755"><ele>59.0</ele><time>2026-04-24T01:30:47Z</time></trkpt><trkpt lat="-20.10127664212098" lon="120.21623127192416"><ele>58.0</ele><time>2026-04-24T01:30:48Z</time></trkpt><trkpt lat="-20.100981787650475" lon="120.21623642561725"><ele>57.0</ele><time>2026-04-24T01:30:49Z</time></trkpt><trkpt lat="-20.100688514457122" lon="120.21623674832767"><ele>56.0</ele><time>2026-04-24T01:30:50Z</time></trkpt><trkpt lat="-20.100384950462914" lon="120.21623724806766"><ele>55.0</ele><time>2026-04-24T01:30:51Z</time></trkpt><trkpt lat="-20.1000770815016" lon="120.21623856945337"><ele>55.0</ele><time>2026-04-24T01:30:52Z</time></trkpt><trkpt lat="-20.09976693519113" lon="120.21624204538598"><ele>55.0</ele><time>2026-04-24T01:30:53Z</time></trkpt><trkpt lat="-20.099458202436935" lon="120.2162457690133"><ele>55.0</ele><time>2026-04-24T01:30:54Z</time></trkpt><trkpt lat="-20.099148986466584" lon="120.21624910300318"><ele>55.0</ele><time>2026-04-24T01:30:55Z</time></trkpt><trkpt lat="-20.098841645202118" lon="120.21625182730986"><ele>55.5</ele><time>2026-04-24T01:30:56Z</time></trkpt><trkpt lat="-20.098532734570135" lon="120.2162514551208"><ele>56.0</ele><time>2026-04-24T01:30:57Z</time></trkpt><trkpt lat="-20.098227523797018" lon="120.2162501912135"><ele>55.0</ele><time>2026-04-24T01:30:58Z</time></trkpt><trkpt lat="-20.0979223211496" lon="120.21624941890501"><ele>54.0</ele><time>2026-04-24T01:30:59Z</time></trkpt><trkpt lat="-20.097620148082417" lon="120.21624884484874"><ele>54.0</ele><time>2026-04-24T01:31:00Z</time></trkpt><trkpt lat="-20.09731906123278" lon="120.21624764544947"><ele>54.0</ele><time>2026-04-24T01:31:01Z</time></trkpt><trkpt lat="-20.097015067912427" lon="120.21624594162506"><ele>54.0</ele><time>2026-04-24T01:31:02Z</time></trkpt><trkpt lat="-20.096710687331427" lon="120.21624710625328"><ele>54.0</ele><time>2026-04-24T01:31:03Z</time></trkpt><trkpt lat="-20.096400997891443" lon="120.21624965496378"><ele>53.5</ele><time>2026-04-24T01:31:04Z</time></trkpt><trkpt lat="-20.096091347148676" lon="120.21625184975466"><ele>53.0</ele><time>2026-04-24T01:31:05Z</time></trkpt><trkpt lat="-20.095778370417165" lon="120.21625275489573"><ele>52.5</ele><time>2026-04-24T01:31:06Z</time></trkpt><trkpt lat="-20.095458648792242" lon="120.21625339531037"><ele>52.0</ele><time>2026-04-24T01:31:07Z</time></trkpt><trkpt lat="-20.09513769932038" lon="120.216254928931"><ele>51.5</ele><time>2026-04-24T01:31:08Z</time></trkpt><trkpt lat="-20.094815904408733" lon="120.21625839176123"><ele>51.0</ele><time>2026-04-24T01:31:09Z</time></trkpt><trkpt lat="-20.094493865806122" lon="120.21626058156083"><ele>51.0</ele><time>2026-04-24T01:31:10Z</time></trkpt><trkpt lat="-20.09418197420143" lon="120.21625965256183"><ele>51.0</ele><time>2026-04-24T01:31:11Z</time></trkpt><trkpt lat="-20.093873230689788" lon="120.21625804153854"><ele>51.0</ele><time>2026-04-24T01:31:12Z</time></trkpt><trkpt lat="-20.093567865457306" lon="120.21625799365549"><ele>51.0</ele><time>2026-04-24T01:31:13Z</time></trkpt><trkpt lat="-20.093257629964477" lon="120.21625946186394"><ele>51.0</ele><time>2026-04-24T01:31:14Z</time></trkpt><trkpt lat="-20.0929473942276" lon="120.21626101645263"><ele>51.0</ele><time>2026-04-24T01:31:15Z</time></trkpt><trkpt lat="-20.092631973571407" lon="120.21626425320649"><ele>51.0</ele><time>2026-04-24T01:31:16Z</time></trkpt><trkpt lat="-20.092316094998605" lon="120.21626555473028"><ele>51.0</ele><time>2026-04-24T01:31:17Z</time></trkpt><trkpt lat="-20.091994378326838" lon="120.21626947282437"><ele>51.0</ele><time>2026-04-24T01:31:18Z</time></trkpt><trkpt lat="-20.091672414679284" lon="120.21627512877372"><ele>51.0</ele><time>2026-04-24T01:31:19Z</time></trkpt><trkpt lat="-20.091352010852503" lon="120.21628182943688"><ele>50.5</ele><time>2026-04-24T01:31:20Z</time></trkpt><trkpt lat="-20.091033776654058" lon="120.21628457135766"><ele>50.0</ele><time>2026-04-24T01:31:21Z</time></trkpt><trkpt lat="-20.090719203914016" lon="120.21628374926541"><ele>50.0</ele><time>2026-04-24T01:31:22Z</time></trkpt><trkpt lat="-20.090401446756932" lon="120.21627817484712"><ele>50.0</ele><time>2026-04-24T01:31:23Z</time></trkpt><trkpt lat="-20.09008826827585" lon="120.21627038524785"><ele>50.5</ele><time>2026-04-24T01:31:24Z</time></trkpt><trkpt lat="-20.089774944988662" lon="120.21626350600502"><ele>51.0</ele><time>2026-04-24T01:31:25Z</time></trkpt><trkpt lat="-20.08946121478582" lon="120.21625727834727"><ele>51.0</ele><time>2026-04-24T01:31:26Z</time></trkpt><trkpt lat="-20.089145775389817" lon="120.2162508471779"><ele>51.0</ele><time>2026-04-24T01:31:27Z</time></trkpt><trkpt lat="-20.088831778361723" lon="120.21624597423119"><ele>51.0</ele><time>2026-04-24T01:31:28Z</time></trkpt><trkpt lat="-20.088516223051098" lon="120.21623792884284"><ele>51.0</ele><time>2026-04-24T01:31:29Z</time></trkpt><trkpt lat="-20.08819943892898" lon="120.21622567500519"><ele>51.0</ele><time>2026-04-24T01:31:30Z</time></trkpt><trkpt lat="-20.087880512936476" lon="120.21621055553169"><ele>51.0</ele><time>2026-04-24T01:31:31Z</time></trkpt><trkpt lat="-20.087562240582123" lon="120.21619279792466"><ele>51.5</ele><time>2026-04-24T01:31:32Z</time></trkpt><trkpt lat="-20.087244447252402" lon="120.21617290158821"><ele>52.0</ele><time>2026-04-24T01:31:33Z</time></trkpt><trkpt lat="-20.086936277609926" lon="120.21615612296685"><ele>52.0</ele><time>2026-04-24T01:31:34Z</time></trkpt><trkpt lat="-20.086656120518494" lon="120.21614511405653"><ele>52.0</ele><time>2026-04-24T01:31:35Z</time></trkpt><trkpt lat="-20.086385232227247" lon="120.21614881220117"><ele>51.5</ele><time>2026-04-24T01:31:36Z</time></trkpt><trkpt lat="-20.086093269756894" lon="120.21616262832595"><ele>51.0</ele><time>2026-04-24T01:31:37Z</time></trkpt><trkpt lat="-20.085792137700643" lon="120.2161855899826"><ele>50.0</ele><time>2026-04-24T01:31:38Z</time></trkpt><trkpt lat="-20.085487528093427" lon="120.21621052567959"><ele>49.0</ele><time>2026-04-24T01:31:39Z</time></trkpt><trkpt lat="-20.08518502151236" lon="120.21623358795219"><ele>48.5</ele><time>2026-04-24T01:31:40Z</time></trkpt><trkpt lat="-20.08488009013871" lon="120.21626037347083"><ele>48.0</ele><time>2026-04-24T01:31:41Z</time></trkpt><trkpt lat="-20.08457810818553" lon="120.21629121297592"><ele>48.0</ele><time>2026-04-24T01:31:42Z</time></trkpt><trkpt lat="-20.08427337217354" lon="120.21632752801621"><ele>48.0</ele><time>2026-04-24T01:31:43Z</time></trkpt><trkpt lat="-20.083966397828778" lon="120.21636566957898"><ele>48.0</ele><time>2026-04-24T01:31:44Z</time></trkpt><trkpt lat="-20.083654469003466" lon="120.21640664435874"><ele>48.0</ele><time>2026-04-24T01:31:45Z</time></trkpt><trkpt lat="-20.083343948788627" lon="120.21644951984709"><ele>48.5</ele><time>2026-04-24T01:31:46Z</time></trkpt><trkpt lat="-20.083030867917063" lon="120.21649682327435"><ele>49.0</ele><time>2026-04-24T01:31:47Z</time></trkpt><trkpt lat="-20.082718235834637" lon="120.21654557958485"><ele>49.0</ele><time>2026-04-24T01:31:48Z</time></trkpt><trkpt lat="-20.08240198543662" lon="120.21659660802611"><ele>49.0</ele><time>2026-04-24T01:31:49Z</time></trkpt><trkpt lat="-20.082087024095777" lon="120.21664501046524"><ele>49.0</ele><time>2026-04-24T01:31:50Z</time></trkpt><trkpt lat="-20.08177401297859" lon="120.21669020142151"><ele>49.0</ele><time>2026-04-24T01:31:51Z</time></trkpt><trkpt lat="-20.081462360231434" lon="120.21673324822898"><ele>48.5</ele><time>2026-04-24T01:31:52Z</time></trkpt><trkpt lat="-20.081151421611054" lon="120.21677572048051"><ele>48.0</ele><time>2026-04-24T01:31:53Z</time></trkpt><trkpt lat="-20.080845112986808" lon="120.21681711855216"><ele>48.0</ele><time>2026-04-24T01:31:54Z</time></trkpt><trkpt lat="-20.0805295090015" lon="120.21686337566716"><ele>48.0</ele><time>2026-04-24T01:31:55Z</time></trkpt><trkpt lat="-20.08021541947781" lon="120.21691064853859"><ele>48.0</ele><time>2026-04-24T01:31:56Z</time></trkpt><trkpt lat="-20.079897505199988" lon="120.21696000714341"><ele>48.0</ele><time>2026-04-24T01:31:57Z</time></trkpt><trkpt lat="-20.07957204604175" lon="120.21701136838576"><ele>48.0</ele><time>2026-04-24T01:31:58Z</time></trkpt><trkpt lat="-20.07924915190448" lon="120.21706195808385"><ele>48.0</ele><time>2026-04-24T01:31:59Z</time></trkpt><trkpt lat="-20.078927619365864" lon="120.21710936439548"><ele>48.0</ele><time>2026-04-24T01:32:00Z</time></trkpt><trkpt lat="-20.07860673253585" lon="120.2171531483589"><ele>48.0</ele><time>2026-04-24T01:32:01Z</time></trkpt><trkpt lat="-20.078290668948238" lon="120.21719631102388"><ele>47.5</ele><time>2026-04-24T01:32:02Z</time></trkpt><trkpt lat="-20.077973559171586" lon="120.21723641863682"><ele>47.0</ele><time>2026-04-24T01:32:03Z</time></trkpt><trkpt lat="-20.07766004022098" lon="120.21727793955525"><ele>47.0</ele><time>2026-04-24T01:32:04Z</time></trkpt><trkpt lat="-20.077344147923597" lon="120.21732058514048"><ele>47.0</ele><time>2026-04-24T01:32:05Z</time></trkpt><trkpt lat="-20.077026700964947" lon="120.2173653373214"><ele>47.0</ele><time>2026-04-24T01:32:06Z</time></trkpt><trkpt lat="-20.0767109481825" lon="120.21740930577668"><ele>47.0</ele><time>2026-04-24T01:32:07Z</time></trkpt><trkpt lat="-20.076395872052775" lon="120.21745362309268"><ele>47.5</ele><time>2026-04-24T01:32:08Z</time></trkpt><trkpt lat="-20.076079593859593" lon="120.2174993421819"><ele>48.0</ele><time>2026-04-24T01:32:09Z</time></trkpt><trkpt lat="-20.07575953232768" lon="120.21754371913215"><ele>48.0</ele><time>2026-04-24T01:32:10Z</time></trkpt><trkpt lat="-20.075442035731907" lon="120.21758297959416"><ele>48.0</ele><time>2026-04-24T01:32:11Z</time></trkpt><trkpt lat="-20.075123741250373" lon="120.21761428731074"><ele>48.0</ele><time>2026-04-24T01:32:12Z</time></trkpt><trkpt lat="-20.074805802432827" lon="120.21764441456574"><ele>48.0</ele><time>2026-04-24T01:32:13Z</time></trkpt><trkpt lat="-20.074489234622757" lon="120.21766934404302"><ele>48.0</ele><time>2026-04-24T01:32:14Z</time></trkpt><trkpt lat="-20.074166511002336" lon="120.21768888097965"><ele>48.0</ele><time>2026-04-24T01:32:15Z</time></trkpt><trkpt lat="-20.073846581151724" lon="120.21770224744489"><ele>47.5</ele><time>2026-04-24T01:32:16Z</time></trkpt><trkpt lat="-20.073525165747505" lon="120.21771285158674"><ele>47.0</ele><time>2026-04-24T01:32:17Z</time></trkpt><trkpt lat="-20.073204980426706" lon="120.21771835477148"><ele>46.5</ele><time>2026-04-24T01:32:18Z</time></trkpt><trkpt lat="-20.072883857551496" lon="120.21772059773329"><ele>46.0</ele><time>2026-04-24T01:32:19Z</time></trkpt><trkpt lat="-20.072566739826023" lon="120.21772262113238"><ele>46.0</ele><time>2026-04-24T01:32:20Z</time></trkpt><trkpt lat="-20.072252512523264" lon="120.21772360603961"><ele>46.0</ele><time>2026-04-24T01:32:21Z</time></trkpt><trkpt lat="-20.071939039875733" lon="120.2177209436953"><ele>46.0</ele><time>2026-04-24T01:32:22Z</time></trkpt><trkpt lat="-20.071624486357965" lon="120.21771671967439"><ele>46.0</ele><time>2026-04-24T01:32:23Z</time></trkpt><trkpt lat="-20.07131079754615" lon="120.21771187462326"><ele>46.5</ele><time>2026-04-24T01:32:24Z</time></trkpt><trkpt lat="-20.07099427135032" lon="120.21771320116581"><ele>47.0</ele><time>2026-04-24T01:32:25Z</time></trkpt><trkpt lat="-20.070673248893662" lon="120.2177147871639"><ele>47.0</ele><time>2026-04-24T01:32:26Z</time></trkpt><trkpt lat="-20.07035536854551" lon="120.21771206942493"><ele>47.0</ele><time>2026-04-24T01:32:27Z</time></trkpt><trkpt lat="-20.070034658351716" lon="120.21770717389188"><ele>47.0</ele><time>2026-04-24T01:32:28Z</time></trkpt><trkpt lat="-20.06971218893561" lon="120.21770767184472"><ele>47.0</ele><time>2026-04-24T01:32:29Z</time></trkpt><trkpt lat="-20.069388441133825" lon="120.21770471375937"><ele>48.0</ele><time>2026-04-24T01:32:30Z</time></trkpt><trkpt lat="-20.069067806547718" lon="120.2176950433169"><ele>49.0</ele><time>2026-04-24T01:32:31Z</time></trkpt><trkpt lat="-20.068749040529042" lon="120.21768272941459"><ele>49.0</ele><time>2026-04-24T01:32:32Z</time></trkpt><trkpt lat="-20.068430673082222" lon="120.217670635924"><ele>49.0</ele><time>2026-04-24T01:32:33Z</time></trkpt><trkpt lat="-20.068112557556645" lon="120.217658867278"><ele>48.5</ele><time>2026-04-24T01:32:34Z</time></trkpt><trkpt lat="-20.067790292229805" lon="120.21764774482475"><ele>48.0</ele><time>2026-04-24T01:32:35Z</time></trkpt><trkpt lat="-20.067471530541425" lon="120.21763719700823"><ele>48.0</ele><time>2026-04-24T01:32:36Z</time></trkpt><trkpt lat="-20.067150558353898" lon="120.21762877148757"><ele>48.0</ele><time>2026-04-24T01:32:37Z</time></trkpt><trkpt lat="-20.066831076155758" lon="120.217621639305"><ele>48.0</ele><time>2026-04-24T01:32:38Z</time></trkpt><trkpt lat="-20.066512538314374" lon="120.21761477674387"><ele>48.0</ele><time>2026-04-24T01:32:39Z</time></trkpt><trkpt lat="-20.06619433772684" lon="120.21761192866384"><ele>48.0</ele><time>2026-04-24T01:32:40Z</time></trkpt><trkpt lat="-20.065882787375937" lon="120.2176098455332"><ele>48.0</ele><time>2026-04-24T01:32:41Z</time></trkpt><trkpt lat="-20.06557402445308" lon="120.2176061670882"><ele>48.5</ele><time>2026-04-24T01:32:42Z</time></trkpt><trkpt lat="-20.06526334095231" lon="120.21759540973088"><ele>49.0</ele><time>2026-04-24T01:32:43Z</time></trkpt><trkpt lat="-20.06495403666754" lon="120.21758609436462"><ele>48.0</ele><time>2026-04-24T01:32:44Z</time></trkpt><trkpt lat="-20.0646427792506" lon="120.2175803377186"><ele>47.0</ele><time>2026-04-24T01:32:45Z</time></trkpt><trkpt lat="-20.06433145592405" lon="120.21757685951563"><ele>48.0</ele><time>2026-04-24T01:32:46Z</time></trkpt><trkpt lat="-20.064021686369564" lon="120.21757544072283"><ele>49.0</ele><time>2026-04-24T01:32:47Z</time></trkpt><trkpt lat="-20.063711999916396" lon="120.21757418320801"><ele>49.0</ele><time>2026-04-24T01:32:48Z</time></trkpt><trkpt lat="-20.063400021591736" lon="120.2175741919605"><ele>49.0</ele><time>2026-04-24T01:32:49Z</time></trkpt><trkpt lat="-20.063092509395027" lon="120.21757625692685"><ele>48.5</ele><time>2026-04-24T01:32:50Z</time></trkpt><trkpt lat="-20.062784819307655" lon="120.21757606553808"><ele>48.0</ele><time>2026-04-24T01:32:51Z</time></trkpt><trkpt lat="-20.06247499319884" lon="120.21757331852089"><ele>48.5</ele><time>2026-04-24T01:32:52Z</time></trkpt><trkpt lat="-20.062168577286673" lon="120.21757507326558"><ele>49.0</ele><time>2026-04-24T01:32:53Z</time></trkpt><trkpt lat="-20.061864622115905" lon="120.21757839143673"><ele>50.0</ele><time>2026-04-24T01:32:54Z</time></trkpt><trkpt lat="-20.061559172938086" lon="120.21757919179464"><ele>51.0</ele><time>2026-04-24T01:32:55Z</time></trkpt><trkpt lat="-20.061256813642796" lon="120.21757866241543"><ele>51.0</ele><time>2026-04-24T01:32:56Z</time></trkpt><trkpt lat="-20.060948823255526" lon="120.21757558933615"><ele>51.0</ele><time>2026-04-24T01:32:57Z</time></trkpt><trkpt lat="-20.060641947938667" lon="120.21757382477136"><ele>52.5</ele><time>2026-04-24T01:32:58Z</time></trkpt><trkpt lat="-20.060334421984933" lon="120.2175732218056"><ele>54.0</ele><time>2026-04-24T01:32:59Z</time></trkpt><trkpt lat="-20.060023595870028" lon="120.21757006416549"><ele>57.0</ele><time>2026-04-24T01:33:00Z</time></trkpt><trkpt lat="-20.05971869847104" lon="120.21756171725147"><ele>60.0</ele><time>2026-04-24T01:33:01Z</time></trkpt><trkpt lat="-20.059418159346013" lon="120.21755567739068"><ele>60.0</ele><time>2026-04-24T01:33:02Z</time></trkpt><trkpt lat="-20.059126034213552" lon="120.21755240234006"><ele>60.0</ele><time>2026-04-24T01:33:03Z</time></trkpt><trkpt lat="-20.058843412016724" lon="120.21755445644453"><ele>62.0</ele><time>2026-04-24T01:33:04Z</time></trkpt><trkpt lat="-20.058567963115202" lon="120.21756481786355"><ele>64.0</ele><time>2026-04-24T01:33:05Z</time></trkpt><trkpt lat="-20.058290929008237" lon="120.21758118052252"><ele>63.0</ele><time>2026-04-24T01:33:06Z</time></trkpt><trkpt lat="-20.058003932494923" lon="120.21760177107845"><ele>62.0</ele><time>2026-04-24T01:33:07Z</time></trkpt><trkpt lat="-20.057716061690652" lon="120.21761977141634"><ele>61.5</ele><time>2026-04-24T01:33:08Z</time></trkpt><trkpt lat="-20.05742115691456" lon="120.21763471039094"><ele>61.0</ele><time>2026-04-24T01:33:09Z</time></trkpt><trkpt lat="-20.057124646439025" lon="120.21765135972386"><ele>61.0</ele><time>2026-04-24T01:33:10Z</time></trkpt><trkpt lat="-20.056824562336907" lon="120.21767168309725"><ele>61.0</ele><time>2026-04-24T01:33:11Z</time></trkpt><trkpt lat="-20.0565174054421" lon="120.21769547196263"><ele>61.0</ele><time>2026-04-24T01:33:12Z</time></trkpt><trkpt lat="-20.056210325262292" lon="120.21771185880827"><ele>61.0</ele><time>2026-04-24T01:33:13Z</time></trkpt><trkpt lat="-20.055897171913188" lon="120.21771632247285"><ele>61.5</ele><time>2026-04-24T01:33:14Z</time></trkpt><trkpt lat="-20.055589497040685" lon="120.21771811358495"><ele>62.0</ele><time>2026-04-24T01:33:15Z</time></trkpt><trkpt lat="-20.05527820989635" lon="120.21771572884235"><ele>62.0</ele><time>2026-04-24T01:33:16Z</time></trkpt><trkpt lat="-20.054969894693958" lon="120.2177023385342"><ele>62.0</ele><time>2026-04-24T01:33:17Z</time></trkpt><trkpt lat="-20.05466651202682" lon="120.21768368872488"><ele>61.0</ele><time>2026-04-24T01:33:18Z</time></trkpt><trkpt lat="-20.054363026105218" lon="120.21765751972762"><ele>60.0</ele><time>2026-04-24T01:33:19Z</time></trkpt><trkpt lat="-20.054066280646264" lon="120.21762958973477"><ele>59.5</ele><time>2026-04-24T01:33:20Z</time></trkpt><trkpt lat="-20.05376517795423" lon="120.2176039921322"><ele>59.0</ele><time>2026-04-24T01:33:21Z</time></trkpt><trkpt lat="-20.053463318326084" lon="120.21758149917216"><ele>59.5</ele><time>2026-04-24T01:33:22Z</time></trkpt><trkpt lat="-20.053159863469812" lon="120.2175556088495"><ele>60.0</ele><time>2026-04-24T01:33:23Z</time></trkpt><trkpt lat="-20.05285764366254" lon="120.2175381634299"><ele>60.0</ele><time>2026-04-24T01:33:24Z</time></trkpt><trkpt lat="-20.05256065696303" lon="120.21752478725136"><ele>60.0</ele><time>2026-04-24T01:33:25Z</time></trkpt><trkpt lat="-20.05227333216841" lon="120.21751605378515"><ele>60.0</ele><time>2026-04-24T01:33:26Z</time></trkpt><trkpt lat="-20.05199346220883" lon="120.21751801576393"><ele>60.0</ele><time>2026-04-24T01:33:27Z</time></trkpt><trkpt lat="-20.0517083785519" lon="120.21752777929545"><ele>60.0</ele><time>2026-04-24T01:33:28Z</time></trkpt><trkpt lat="-20.051422167501435" lon="120.21754025457084"><ele>60.0</ele><time>2026-04-24T01:33:29Z</time></trkpt><trkpt lat="-20.0511401066589" lon="120.21755268541851"><ele>60.0</ele><time>2026-04-24T01:33:30Z</time></trkpt><trkpt lat="-20.0508469725892" lon="120.21756166698822"><ele>60.0</ele><time>2026-04-24T01:33:31Z</time></trkpt><trkpt lat="-20.05056696685105" lon="120.21757295537155"><ele>58.5</ele><time>2026-04-24T01:33:32Z</time></trkpt><trkpt lat="-20.050281173299112" lon="120.21757777892851"><ele>57.0</ele><time>2026-04-24T01:33:33Z</time></trkpt><trkpt lat="-20.049994305865013" lon="120.21758139818395"><ele>57.0</ele><time>2026-04-24T01:33:34Z</time></trkpt><trkpt lat="-20.049705136545747" lon="120.21759027170938"><ele>57.0</ele><time>2026-04-24T01:33:35Z</time></trkpt><trkpt lat="-20.049422946036522" lon="120.21759611040792"><ele>57.0</ele><time>2026-04-24T01:33:36Z</time></trkpt><trkpt lat="-20.049137951782686" lon="120.21760217012165"><ele>57.0</ele><time>2026-04-24T01:33:37Z</time></trkpt><trkpt lat="-20.048858417886287" lon="120.21760419117784"><ele>57.0</ele><time>2026-04-24T01:33:38Z</time></trkpt><trkpt lat="-20.04858550002818" lon="120.2176096945063"><ele>57.0</ele><time>2026-04-24T01:33:39Z</time></trkpt><trkpt lat="-20.048305053251774" lon="120.21761167214547"><ele>56.0</ele><time>2026-04-24T01:33:40Z</time></trkpt><trkpt lat="-20.04804299040862" lon="120.21761229384839"><ele>55.0</ele><time>2026-04-24T01:33:41Z</time></trkpt><trkpt lat="-20.0477766981499" lon="120.21761086321831"><ele>55.0</ele><time>2026-04-24T01:33:42Z</time></trkpt><trkpt lat="-20.047510374322613" lon="120.21761765210994"><ele>55.0</ele><time>2026-04-24T01:33:43Z</time></trkpt><trkpt lat="-20.04724539658304" lon="120.21763022983214"><ele>54.5</ele><time>2026-04-24T01:33:44Z</time></trkpt><trkpt lat="-20.046981210754982" lon="120.2176421379792"><ele>54.0</ele><time>2026-04-24T01:33:45Z</time></trkpt><trkpt lat="-20.046719628517128" lon="120.21765965047375"><ele>54.0</ele><time>2026-04-24T01:33:46Z</time></trkpt><trkpt lat="-20.046457994352117" lon="120.2176763852553"><ele>54.0</ele><time>2026-04-24T01:33:47Z</time></trkpt><trkpt lat="-20.046188802910063" lon="120.21769147400416"><ele>54.0</ele><time>2026-04-24T01:33:48Z</time></trkpt><trkpt lat="-20.045918095716097" lon="120.21770394746383"><ele>54.0</ele><time>2026-04-24T01:33:49Z</time></trkpt><trkpt lat="-20.045645300352927" lon="120.2177188800855"><ele>54.0</ele><time>2026-04-24T01:33:50Z</time></trkpt><trkpt lat="-20.045373967409876" lon="120.21772714896468"><ele>54.0</ele><time>2026-04-24T01:33:51Z</time></trkpt><trkpt lat="-20.045099575164265" lon="120.21773475228561"><ele>54.0</ele><time>2026-04-24T01:33:52Z</time></trkpt><trkpt lat="-20.044827578674475" lon="120.21774414336053"><ele>54.0</ele><time>2026-04-24T01:33:53Z</time></trkpt><trkpt lat="-20.044547350789994" lon="120.21775501863976"><ele>54.0</ele><time>2026-04-24T01:33:54Z</time></trkpt><trkpt lat="-20.044267948213466" lon="120.21776696741695"><ele>54.0</ele><time>2026-04-24T01:33:55Z</time></trkpt><trkpt lat="-20.043980632135913" lon="120.21777855128678"><ele>55.0</ele><time>2026-04-24T01:33:56Z</time></trkpt><trkpt lat="-20.043691984981752" lon="120.21779032152376"><ele>56.0</ele><time>2026-04-24T01:33:57Z</time></trkpt><trkpt lat="-20.043403703344307" lon="120.21780354254801"><ele>55.0</ele><time>2026-04-24T01:33:58Z</time></trkpt><trkpt lat="-20.043113510685" lon="120.2178148722206"><ele>54.0</ele><time>2026-04-24T01:33:59Z</time></trkpt><trkpt lat="-20.042817562266247" lon="120.21782534505073"><ele>54.0</ele><time>2026-04-24T01:34:00Z</time></trkpt><trkpt lat="-20.0425275489656" lon="120.21783471329991"><ele>54.0</ele><time>2026-04-24T01:34:01Z</time></trkpt><trkpt lat="-20.042232872966764" lon="120.21784455414328"><ele>53.5</ele><time>2026-04-24T01:34:02Z</time></trkpt><trkpt lat="-20.0419395180657" lon="120.21785553742008"><ele>53.0</ele><time>2026-04-24T01:34:03Z</time></trkpt><trkpt lat="-20.041639040484863" lon="120.2178624144954"><ele>53.5</ele><time>2026-04-24T01:34:04Z</time></trkpt><trkpt lat="-20.041337557955746" lon="120.21784356742415"><ele>54.0</ele><time>2026-04-24T01:34:05Z</time></trkpt><trkpt lat="-20.041037844371825" lon="120.21784933309102"><ele>54.5</ele><time>2026-04-24T01:34:06Z</time></trkpt><trkpt lat="-20.04073573047755" lon="120.21785496094707"><ele>55.0</ele><time>2026-04-24T01:34:07Z</time></trkpt><trkpt lat="-20.040432178699565" lon="120.21785953333254"><ele>55.0</ele><time>2026-04-24T01:34:08Z</time></trkpt><trkpt lat="-20.040130591780546" lon="120.21786492559195"><ele>55.0</ele><time>2026-04-24T01:34:09Z</time></trkpt><trkpt lat="-20.039826274920387" lon="120.21786829626406"><ele>54.0</ele><time>2026-04-24T01:34:10Z</time></trkpt><trkpt lat="-20.039521062421862" lon="120.2178715918508"><ele>53.0</ele><time>2026-04-24T01:34:11Z</time></trkpt><trkpt lat="-20.0392197536405" lon="120.21787710220879"><ele>54.0</ele><time>2026-04-24T01:34:12Z</time></trkpt><trkpt lat="-20.0389119453344" lon="120.21788487420622"><ele>55.0</ele><time>2026-04-24T01:34:13Z</time></trkpt><trkpt lat="-20.03860873281401" lon="120.21789297075048"><ele>55.0</ele><time>2026-04-24T01:34:14Z</time></trkpt><trkpt lat="-20.03830820628545" lon="120.21790247400955"><ele>55.0</ele><time>2026-04-24T01:34:15Z</time></trkpt><trkpt lat="-20.038005860056014" lon="120.21792540195361"><ele>55.0</ele><time>2026-04-24T01:34:16Z</time></trkpt><trkpt lat="-20.037708793137067" lon="120.21793334559324"><ele>55.0</ele><time>2026-04-24T01:34:17Z</time></trkpt><trkpt lat="-20.03741003132095" lon="120.2179374222428"><ele>55.5</ele><time>2026-04-24T01:34:18Z</time></trkpt><trkpt lat="-20.037110698014434" lon="120.21794509949419"><ele>56.0</ele><time>2026-04-24T01:34:19Z</time></trkpt><trkpt lat="-20.036810680910328" lon="120.21795736618532"><ele>55.5</ele><time>2026-04-24T01:34:20Z</time></trkpt><trkpt lat="-20.03650472947934" lon="120.21797142453718"><ele>55.0</ele><time>2026-04-24T01:34:21Z</time></trkpt><trkpt lat="-20.03619745049308" lon="120.21798401285834"><ele>55.0</ele><time>2026-04-24T01:34:22Z</time></trkpt><trkpt lat="-20.035888390147008" lon="120.21799818391862"><ele>55.0</ele><time>2026-04-24T01:34:23Z</time></trkpt><trkpt lat="-20.035583412387748" lon="120.21801376097652"><ele>54.0</ele><time>2026-04-24T01:34:24Z</time></trkpt><trkpt lat="-20.035276002108446" lon="120.21802455673365"><ele>53.0</ele><time>2026-04-24T01:34:25Z</time></trkpt><trkpt lat="-20.034968883585453" lon="120.21803280849281"><ele>52.0</ele><time>2026-04-24T01:34:26Z</time></trkpt><trkpt lat="-20.034663082088972" lon="120.21804519432342"><ele>51.0</ele><time>2026-04-24T01:34:27Z</time></trkpt><trkpt lat="-20.03435368436659" lon="120.2180572556625"><ele>50.5</ele><time>2026-04-24T01:34:28Z</time></trkpt><trkpt lat="-20.034043011517507" lon="120.21807531754808"><ele>50.0</ele><time>2026-04-24T01:34:29Z</time></trkpt><trkpt lat="-20.03373217749542" lon="120.21809157601972"><ele>50.0</ele><time>2026-04-24T01:34:30Z</time></trkpt><trkpt lat="-20.033415254247664" lon="120.2181096133831"><ele>50.0</ele><time>2026-04-24T01:34:31Z</time></trkpt><trkpt lat="-20.03309885816269" lon="120.21812649680366"><ele>50.5</ele><time>2026-04-24T01:34:32Z</time></trkpt><trkpt lat="-20.03278584932834" lon="120.21813946836596"><ele>51.0</ele><time>2026-04-24T01:34:33Z</time></trkpt><trkpt lat="-20.032463636224136" lon="120.21815492403967"><ele>49.5</ele><time>2026-04-24T01:34:34Z</time></trkpt><trkpt lat="-20.032147243350764" lon="120.21815179725144"><ele>48.0</ele><time>2026-04-24T01:34:35Z</time></trkpt><trkpt lat="-20.031823579976535" lon="120.2181822493651"><ele>47.5</ele><time>2026-04-24T01:34:36Z</time></trkpt><trkpt lat="-20.031502635194666" lon="120.21819333144917"><ele>47.0</ele><time>2026-04-24T01:34:37Z</time></trkpt><trkpt lat="-20.03118518511185" lon="120.21818700253503"><ele>47.0</ele><time>2026-04-24T01:34:38Z</time></trkpt><trkpt lat="-20.030871929457707" lon="120.21819747610664"><ele>47.0</ele><time>2026-04-24T01:34:39Z</time></trkpt><trkpt lat="-20.030560788974732" lon="120.21820955048354"><ele>46.5</ele><time>2026-04-24T01:34:40Z</time></trkpt><trkpt lat="-20.030246649763637" lon="120.21822664739861"><ele>46.0</ele><time>2026-04-24T01:34:41Z</time></trkpt><trkpt lat="-20.029934884355445" lon="120.21824174182484"><ele>46.0</ele><time>2026-04-24T01:34:42Z</time></trkpt><trkpt lat="-20.02962350565612" lon="120.21825346815731"><ele>46.0</ele><time>2026-04-24T01:34:43Z</time></trkpt><trkpt lat="-20.029315907173963" lon="120.218267706687"><ele>45.0</ele><time>2026-04-24T01:34:44Z</time></trkpt><trkpt lat="-20.029007478660056" lon="120.21829786456124"><ele>44.0</ele><time>2026-04-24T01:34:45Z</time></trkpt><trkpt lat="-20.02869748400656" lon="120.21830908635398"><ele>44.0</ele><time>2026-04-24T01:34:46Z</time></trkpt><trkpt lat="-20.028387125698448" lon="120.21832140180378"><ele>44.0</ele><time>2026-04-24T01:34:47Z</time></trkpt><trkpt lat="-20.02808110046792" lon="120.21833396114955"><ele>43.5</ele><time>2026-04-24T01:34:48Z</time></trkpt><trkpt lat="-20.027771055244298" lon="120.21834844988066"><ele>43.0</ele><time>2026-04-24T01:34:49Z</time></trkpt><trkpt lat="-20.027469338366895" lon="120.21836011164811"><ele>43.0</ele><time>2026-04-24T01:34:50Z</time></trkpt><trkpt lat="-20.02716432215597" lon="120.21837178346209"><ele>43.0</ele><time>2026-04-24T01:34:51Z</time></trkpt><trkpt lat="-20.026858599032177" lon="120.21838507253133"><ele>41.5</ele><time>2026-04-24T01:34:52Z</time></trkpt><trkpt lat="-20.026553867292648" lon="120.21838375163715"><ele>40.0</ele><time>2026-04-24T01:34:53Z</time></trkpt><trkpt lat="-20.026247431962673" lon="120.2183969481272"><ele>40.0</ele><time>2026-04-24T01:34:54Z</time></trkpt><trkpt lat="-20.02594337752995" lon="120.21840951261389"><ele>40.0</ele><time>2026-04-24T01:34:55Z</time></trkpt><trkpt lat="-20.025636209624107" lon="120.21843500979995"><ele>40.0</ele><time>2026-04-24T01:34:56Z</time></trkpt><trkpt lat="-20.0253282009889" lon="120.21844317451979"><ele>40.0</ele><time>2026-04-24T01:34:57Z</time></trkpt><trkpt lat="-20.025021667184397" lon="120.21843657111538"><ele>39.5</ele><time>2026-04-24T01:34:58Z</time></trkpt><trkpt lat="-20.024712012666345" lon="120.21844373124232"><ele>39.0</ele><time>2026-04-24T01:34:59Z</time></trkpt><trkpt lat="-20.024399951705384" lon="120.21845094700858"><ele>38.0</ele><time>2026-04-24T01:35:00Z</time></trkpt><trkpt lat="-20.024089649819274" lon="120.2184595153278"><ele>37.0</ele><time>2026-04-24T01:35:01Z</time></trkpt><trkpt lat="-20.02378264548222" lon="120.21849698776279"><ele>37.0</ele><time>2026-04-24T01:35:02Z</time></trkpt><trkpt lat="-20.023472837340663" lon="120.21850604039439"><ele>37.0</ele><time>2026-04-24T01:35:03Z</time></trkpt><trkpt lat="-20.023163434942642" lon="120.21851642160635"><ele>37.5</ele><time>2026-04-24T01:35:04Z</time></trkpt><trkpt lat="-20.022855961549503" lon="120.21852469837579"><ele>38.0</ele><time>2026-04-24T01:35:05Z</time></trkpt><trkpt lat="-20.022547941550485" lon="120.21853421586773"><ele>38.0</ele><time>2026-04-24T01:35:06Z</time></trkpt><trkpt lat="-20.0222401704177" lon="120.21854602388414"><ele>38.0</ele><time>2026-04-24T01:35:07Z</time></trkpt><trkpt lat="-20.021934438165125" lon="120.2185574977917"><ele>36.5</ele><time>2026-04-24T01:35:08Z</time></trkpt><trkpt lat="-20.02163000685814" lon="120.21856903633144"><ele>35.0</ele><time>2026-04-24T01:35:09Z</time></trkpt><trkpt lat="-20.021323347900562" lon="120.21857601079917"><ele>35.0</ele><time>2026-04-24T01:35:10Z</time></trkpt><trkpt lat="-20.021022434933737" lon="120.2185839109421"><ele>35.0</ele><time>2026-04-24T01:35:11Z</time></trkpt><trkpt lat="-20.020721847837052" lon="120.21859246405003"><ele>34.5</ele><time>2026-04-24T01:35:12Z</time></trkpt><trkpt lat="-20.0204209393374" lon="120.21860349463944"><ele>34.0</ele><time>2026-04-24T01:35:13Z</time></trkpt><trkpt lat="-20.020123067181995" lon="120.21861451361245"><ele>34.0</ele><time>2026-04-24T01:35:14Z</time></trkpt><trkpt lat="-20.01982572306979" lon="120.21862544406295"><ele>34.0</ele><time>2026-04-24T01:35:15Z</time></trkpt><trkpt lat="-20.019528399265372" lon="120.21863931837285"><ele>34.0</ele><time>2026-04-24T01:35:16Z</time></trkpt><trkpt lat="-20.019233230581452" lon="120.21864989450845"><ele>34.0</ele><time>2026-04-24T01:35:17Z</time></trkpt><trkpt lat="-20.018938145189725" lon="120.2186617896717"><ele>34.0</ele><time>2026-04-24T01:35:18Z</time></trkpt><trkpt lat="-20.01864507984912" lon="120.21867532189563"><ele>34.0</ele><time>2026-04-24T01:35:19Z</time></trkpt><trkpt lat="-20.01835131238723" lon="120.2186901697405"><ele>34.0</ele><time>2026-04-24T01:35:20Z</time></trkpt><trkpt lat="-20.018056962924422" lon="120.21870289813455"><ele>34.0</ele><time>2026-04-24T01:35:21Z</time></trkpt><trkpt lat="-20.017758697884798" lon="120.2187134748257"><ele>34.0</ele><time>2026-04-24T01:35:22Z</time></trkpt><trkpt lat="-20.01746325401794" lon="120.2187201749186"><ele>34.0</ele><time>2026-04-24T01:35:23Z</time></trkpt><trkpt lat="-20.017163317780735" lon="120.21873157641502"><ele>34.0</ele><time>2026-04-24T01:35:24Z</time></trkpt><trkpt lat="-20.016865946600486" lon="120.21874549439804"><ele>34.0</ele><time>2026-04-24T01:35:25Z</time></trkpt><trkpt lat="-20.016567735860594" lon="120.218764276147"><ele>34.0</ele><time>2026-04-24T01:35:26Z</time></trkpt><trkpt lat="-20.016269795168306" lon="120.2187760355532"><ele>34.0</ele><time>2026-04-24T01:35:27Z</time></trkpt><trkpt lat="-20.01596989069495" lon="120.21878928385527"><ele>32.5</ele><time>2026-04-24T01:35:28Z</time></trkpt><trkpt lat="-20.015668490446107" lon="120.21880334653008"><ele>31.0</ele><time>2026-04-24T01:35:29Z</time></trkpt><trkpt lat="-20.01536727978707" lon="120.21881713445521"><ele>31.0</ele><time>2026-04-24T01:35:30Z</time></trkpt><trkpt lat="-20.015066646079116" lon="120.21883009283336"><ele>31.0</ele><time>2026-04-24T01:35:31Z</time></trkpt><trkpt lat="-20.01476872919803" lon="120.21884397962899"><ele>31.0</ele><time>2026-04-24T01:35:32Z</time></trkpt><trkpt lat="-20.014472856521778" lon="120.21885674749984"><ele>31.0</ele><time>2026-04-24T01:35:33Z</time></trkpt><trkpt lat="-20.014171557788437" lon="120.21887246536127"><ele>31.5</ele><time>2026-04-24T01:35:34Z</time></trkpt><trkpt lat="-20.013870974585608" lon="120.21889038966201"><ele>32.0</ele><time>2026-04-24T01:35:35Z</time></trkpt><trkpt lat="-20.01357029079525" lon="120.21890230516271"><ele>31.0</ele><time>2026-04-24T01:35:36Z</time></trkpt><trkpt lat="-20.013270223863767" lon="120.21890639913732"><ele>30.0</ele><time>2026-04-24T01:35:37Z</time></trkpt><trkpt lat="-20.01297086372777" lon="120.21890772570379"><ele>30.0</ele><time>2026-04-24T01:35:38Z</time></trkpt><trkpt lat="-20.012664452850338" lon="120.21890937268884"><ele>30.0</ele><time>2026-04-24T01:35:39Z</time></trkpt><trkpt lat="-20.01236292394266" lon="120.21890805585126"><ele>30.0</ele><time>2026-04-24T01:35:40Z</time></trkpt><trkpt lat="-20.012062797583397" lon="120.21890218835037"><ele>30.0</ele><time>2026-04-24T01:35:41Z</time></trkpt><trkpt lat="-20.011762261244723" lon="120.21889337509627"><ele>29.5</ele><time>2026-04-24T01:35:42Z</time></trkpt><trkpt lat="-20.01146096077558" lon="120.2188856498792"><ele>29.0</ele><time>2026-04-24T01:35:43Z</time></trkpt><trkpt lat="-20.011156067640083" lon="120.21887852931978"><ele>29.0</ele><time>2026-04-24T01:35:44Z</time></trkpt><trkpt lat="-20.010853435404922" lon="120.21887209580049"><ele>29.0</ele><time>2026-04-24T01:35:45Z</time></trkpt><trkpt lat="-20.010551601316187" lon="120.21886927171222"><ele>29.0</ele><time>2026-04-24T01:35:46Z</time></trkpt><trkpt lat="-20.010249372157663" lon="120.21887273501981"><ele>29.0</ele><time>2026-04-24T01:35:47Z</time></trkpt><trkpt lat="-20.009945758508987" lon="120.21888585177419"><ele>29.0</ele><time>2026-04-24T01:35:48Z</time></trkpt><trkpt lat="-20.00964834520668" lon="120.21889689961418"><ele>29.0</ele><time>2026-04-24T01:35:49Z</time></trkpt><trkpt lat="-20.009351945458246" lon="120.21891059973899"><ele>28.0</ele><time>2026-04-24T01:35:50Z</time></trkpt><trkpt lat="-20.009052529493605" lon="120.21892277932706"><ele>27.0</ele><time>2026-04-24T01:35:51Z</time></trkpt><trkpt lat="-20.00876018458911" lon="120.21893518260352"><ele>27.0</ele><time>2026-04-24T01:35:52Z</time></trkpt><trkpt lat="-20.00846604550593" lon="120.21895166501885"><ele>27.0</ele><time>2026-04-24T01:35:53Z</time></trkpt><trkpt lat="-20.00817485797371" lon="120.2189658580687"><ele>27.0</ele><time>2026-04-24T01:35:54Z</time></trkpt><trkpt lat="-20.007886354565517" lon="120.21898033458038"><ele>27.0</ele><time>2026-04-24T01:35:55Z</time></trkpt><trkpt lat="-20.007601235157708" lon="120.21898799515876"><ele>27.0</ele><time>2026-04-24T01:35:56Z</time></trkpt><trkpt lat="-20.007312789131518" lon="120.21899182690242"><ele>27.0</ele><time>2026-04-24T01:35:57Z</time></trkpt><trkpt lat="-20.007025178416455" lon="120.21899640361768"><ele>27.0</ele><time>2026-04-24T01:35:58Z</time></trkpt><trkpt lat="-20.006736576165107" lon="120.21900087751378"><ele>27.0</ele><time>2026-04-24T01:35:59Z</time></trkpt><trkpt lat="-20.006446457802475" lon="120.21900421948652"><ele>26.5</ele><time>2026-04-24T01:36:00Z</time></trkpt><trkpt lat="-20.006155046489198" lon="120.21900500441177"><ele>26.0</ele><time>2026-04-24T01:36:01Z</time></trkpt><trkpt lat="-20.005864038099276" lon="120.21900994652628"><ele>26.0</ele><time>2026-04-24T01:36:02Z</time></trkpt><trkpt lat="-20.00557506099271" lon="120.21901698632314"><ele>26.0</ele><time>2026-04-24T01:36:03Z</time></trkpt><trkpt lat="-20.00528095725325" lon="120.21902415605169"><ele>25.0</ele><time>2026-04-24T01:36:04Z</time></trkpt><trkpt lat="-20.0049837434353" lon="120.21903013995335"><ele>24.0</ele><time>2026-04-24T01:36:05Z</time></trkpt><trkpt lat="-20.004688220102583" lon="120.21903769679997"><ele>24.0</ele><time>2026-04-24T01:36:06Z</time></trkpt><trkpt lat="-20.00439288615877" lon="120.21904172409658"><ele>24.0</ele><time>2026-04-24T01:36:07Z</time></trkpt><trkpt lat="-20.004101133009442" lon="120.2190455471699"><ele>24.0</ele><time>2026-04-24T01:36:08Z</time></trkpt><trkpt lat="-20.0038072207786" lon="120.21904919261412"><ele>24.0</ele><time>2026-04-24T01:36:09Z</time></trkpt><trkpt lat="-20.00351158246269" lon="120.21905557901205"><ele>23.5</ele><time>2026-04-24T01:36:10Z</time></trkpt><trkpt lat="-20.003215485206063" lon="120.21906379557592"><ele>23.0</ele><time>2026-04-24T01:36:11Z</time></trkpt><trkpt lat="-20.002914083270507" lon="120.21907283604327"><ele>23.0</ele><time>2026-04-24T01:36:12Z</time></trkpt><trkpt lat="-20.002617620843576" lon="120.21907898671455"><ele>23.0</ele><time>2026-04-24T01:36:13Z</time></trkpt><trkpt lat="-20.00232030876471" lon="120.21908040312925"><ele>23.0</ele><time>2026-04-24T01:36:14Z</time></trkpt><trkpt lat="-20.002022561297018" lon="120.21908376566161"><ele>23.0</ele><time>2026-04-24T01:36:15Z</time></trkpt><trkpt lat="-20.001726851198928" lon="120.21909013980954"><ele>23.5</ele><time>2026-04-24T01:36:16Z</time></trkpt><trkpt lat="-20.001431013653036" lon="120.21907623864536"><ele>24.0</ele><time>2026-04-24T01:36:17Z</time></trkpt><trkpt lat="-20.001133924035464" lon="120.2190936509162"><ele>24.0</ele><time>2026-04-24T01:36:18Z</time></trkpt><trkpt lat="-20.000837730722235" lon="120.21909175225092"><ele>24.0</ele><time>2026-04-24T01:36:19Z</time></trkpt><trkpt lat="-20.0005410681719" lon="120.21909202264509"><ele>24.0</ele><time>2026-04-24T01:36:20Z</time></trkpt><trkpt lat="-20.000241651104165" lon="120.21909211105189"><ele>24.0</ele><time>2026-04-24T01:36:21Z</time></trkpt><trkpt lat="-19.999940106119038" lon="120.21909321396701"><ele>24.0</ele><time>2026-04-24T01:36:22Z</time></trkpt><trkpt lat="-19.99963385206693" lon="120.21909376214585"><ele>24.0</ele><time>2026-04-24T01:36:23Z</time></trkpt><trkpt lat="-19.999328670496247" lon="120.21909633874881"><ele>23.5</ele><time>2026-04-24T01:36:24Z</time></trkpt><trkpt lat="-19.999024085365647" lon="120.2190986689997"><ele>23.0</ele><time>2026-04-24T01:36:25Z</time></trkpt><trkpt lat="-19.99871966937374" lon="120.21910411602624"><ele>23.0</ele><time>2026-04-24T01:36:26Z</time></trkpt><trkpt lat="-19.99841804646417" lon="120.21910900896555"><ele>23.0</ele><time>2026-04-24T01:36:27Z</time></trkpt><trkpt lat="-19.99811693745083" lon="120.21911773464673"><ele>23.0</ele><time>2026-04-24T01:36:28Z</time></trkpt><trkpt lat="-19.997815101633293" lon="120.21912476644856"><ele>23.0</ele><time>2026-04-24T01:36:29Z</time></trkpt><trkpt lat="-19.99751480727781" lon="120.21912973231879"><ele>22.5</ele><time>2026-04-24T01:36:30Z</time></trkpt><trkpt lat="-19.997212174502724" lon="120.21913403199156"><ele>22.0</ele><time>2026-04-24T01:36:31Z</time></trkpt><trkpt lat="-19.99691503968142" lon="120.21913936412732"><ele>22.5</ele><time>2026-04-24T01:36:32Z</time></trkpt><trkpt lat="-19.996616572850964" lon="120.21914996814657"><ele>23.0</ele><time>2026-04-24T01:36:33Z</time></trkpt><trkpt lat="-19.996319496218685" lon="120.21916477453563"><ele>23.0</ele><time>2026-04-24T01:36:34Z</time></trkpt><trkpt lat="-19.99602335402986" lon="120.21918110818636"><ele>23.0</ele><time>2026-04-24T01:36:35Z</time></trkpt><trkpt lat="-19.99572900886485" lon="120.21919639778599"><ele>23.0</ele><time>2026-04-24T01:36:36Z</time></trkpt><trkpt lat="-19.99543417219264" lon="120.2192107325583"><ele>23.0</ele><time>2026-04-24T01:36:37Z</time></trkpt><trkpt lat="-19.99513696653574" lon="120.2192204120837"><ele>22.5</ele><time>2026-04-24T01:36:38Z</time></trkpt><trkpt lat="-19.99483716630276" lon="120.21923004447544"><ele>22.0</ele><time>2026-04-24T01:36:39Z</time></trkpt><trkpt lat="-19.994539722779457" lon="120.21923973894887"><ele>22.0</ele><time>2026-04-24T01:36:40Z</time></trkpt><trkpt lat="-19.99424082650841" lon="120.21925018656891"><ele>22.0</ele><time>2026-04-24T01:36:41Z</time></trkpt><trkpt lat="-19.993943108017273" lon="120.21926039937809"><ele>21.0</ele><time>2026-04-24T01:36:42Z</time></trkpt><trkpt lat="-19.993646274824997" lon="120.21927013516239"><ele>20.0</ele><time>2026-04-24T01:36:43Z</time></trkpt><trkpt lat="-19.993352291522744" lon="120.2192778999352"><ele>20.0</ele><time>2026-04-24T01:36:44Z</time></trkpt><trkpt lat="-19.993054841929382" lon="120.21928654035491"><ele>20.0</ele><time>2026-04-24T01:36:45Z</time></trkpt><trkpt lat="-19.99275874063078" lon="120.21929796913282"><ele>19.5</ele><time>2026-04-24T01:36:46Z</time></trkpt><trkpt lat="-19.992463082003496" lon="120.21930957193781"><ele>19.0</ele><time>2026-04-24T01:36:47Z</time></trkpt><trkpt lat="-19.992163990836787" lon="120.21932312065523"><ele>19.0</ele><time>2026-04-24T01:36:48Z</time></trkpt><trkpt lat="-19.991863558178157" lon="120.21933826908669"><ele>19.0</ele><time>2026-04-24T01:36:49Z</time></trkpt><trkpt lat="-19.991561094878307" lon="120.21935340193926"><ele>19.0</ele><time>2026-04-24T01:36:50Z</time></trkpt><trkpt lat="-19.991260715310993" lon="120.21936596040644"><ele>19.0</ele><time>2026-04-24T01:36:51Z</time></trkpt><trkpt lat="-19.990955440750213" lon="120.21937663833526"><ele>19.0</ele><time>2026-04-24T01:36:52Z</time></trkpt><trkpt lat="-19.99065182344356" lon="120.21938904658134"><ele>19.0</ele><time>2026-04-24T01:36:53Z</time></trkpt><trkpt lat="-19.99035025818284" lon="120.2194023636943"><ele>19.0</ele><time>2026-04-24T01:36:54Z</time></trkpt><trkpt lat="-19.990053987048462" lon="120.21941382777314"><ele>19.0</ele><time>2026-04-24T01:36:55Z</time></trkpt><trkpt lat="-19.989763031965307" lon="120.21942431525387"><ele>19.5</ele><time>2026-04-24T01:36:56Z</time></trkpt><trkpt lat="-19.989472185220126" lon="120.2194334485733"><ele>20.0</ele><time>2026-04-24T01:36:57Z</time></trkpt><trkpt lat="-19.989178293978064" lon="120.21944378140668"><ele>19.0</ele><time>2026-04-24T01:36:58Z</time></trkpt><trkpt lat="-19.988884079268292" lon="120.21945413836576"><ele>18.0</ele><time>2026-04-24T01:36:59Z</time></trkpt><trkpt lat="-19.988600310652295" lon="120.21946527768431"><ele>17.5</ele><time>2026-04-24T01:37:00Z</time></trkpt><trkpt lat="-19.988298405339606" lon="120.21947869546314"><ele>17.0</ele><time>2026-04-24T01:37:01Z</time></trkpt><trkpt lat="-19.98800346799266" lon="120.21949089306295"><ele>17.0</ele><time>2026-04-24T01:37:02Z</time></trkpt><trkpt lat="-19.987701837689464" lon="120.21950259541336"><ele>17.0</ele><time>2026-04-24T01:37:03Z</time></trkpt><trkpt lat="-19.98740346119703" lon="120.2195143536624"><ele>17.0</ele><time>2026-04-24T01:37:04Z</time></trkpt><trkpt lat="-19.987103847044086" lon="120.21952862036345"><ele>17.0</ele><time>2026-04-24T01:37:05Z</time></trkpt><trkpt lat="-19.986822442779975" lon="120.21954498729876"><ele>18.5</ele><time>2026-04-24T01:37:06Z</time></trkpt><trkpt lat="-19.986544662608736" lon="120.21956198107631"><ele>20.0</ele><time>2026-04-24T01:37:07Z</time></trkpt><trkpt lat="-19.986256982439922" lon="120.21957510486065"><ele>20.0</ele><time>2026-04-24T01:37:08Z</time></trkpt><trkpt lat="-19.985966200923873" lon="120.21958816500461"><ele>20.0</ele><time>2026-04-24T01:37:09Z</time></trkpt><trkpt lat="-19.985673819338363" lon="120.2196024244877"><ele>20.0</ele><time>2026-04-24T01:37:10Z</time></trkpt><trkpt lat="-19.98538675582103" lon="120.21961785133786"><ele>20.0</ele><time>2026-04-24T01:37:11Z</time></trkpt><trkpt lat="-19.985101505408217" lon="120.21963520354396"><ele>21.0</ele><time>2026-04-24T01:37:12Z</time></trkpt><trkpt lat="-19.984815165168314" lon="120.21964869536865"><ele>22.0</ele><time>2026-04-24T01:37:13Z</time></trkpt><trkpt lat="-19.984523561779486" lon="120.21966397244339"><ele>22.0</ele><time>2026-04-24T01:37:14Z</time></trkpt><trkpt lat="-19.984247038098573" lon="120.21968243620721"><ele>22.0</ele><time>2026-04-24T01:37:15Z</time></trkpt><trkpt lat="-19.983958305855047" lon="120.21970002536534"><ele>22.5</ele><time>2026-04-24T01:37:16Z</time></trkpt><trkpt lat="-19.983676254306484" lon="120.21971528619122"><ele>23.0</ele><time>2026-04-24T01:37:17Z</time></trkpt><trkpt lat="-19.98340105683327" lon="120.21972874736402"><ele>22.5</ele><time>2026-04-24T01:37:18Z</time></trkpt><trkpt lat="-19.983124613117667" lon="120.2197403628498"><ele>22.0</ele><time>2026-04-24T01:37:19Z</time></trkpt><trkpt lat="-19.982843940110364" lon="120.21975084675874"><ele>22.0</ele><time>2026-04-24T01:37:20Z</time></trkpt><trkpt lat="-19.982565636506234" lon="120.21976434979665"><ele>22.0</ele><time>2026-04-24T01:37:21Z</time></trkpt><trkpt lat="-19.982280883347563" lon="120.21977804540424"><ele>22.5</ele><time>2026-04-24T01:37:22Z</time></trkpt><trkpt lat="-19.98200186673593" lon="120.21978789247036"><ele>23.0</ele><time>2026-04-24T01:37:23Z</time></trkpt><trkpt lat="-19.981715961410693" lon="120.21979955406621"><ele>23.0</ele><time>2026-04-24T01:37:24Z</time></trkpt><trkpt lat="-19.981440746792117" lon="120.21981467972148"><ele>23.0</ele><time>2026-04-24T01:37:25Z</time></trkpt><trkpt lat="-19.98116882915476" lon="120.21983279583417"><ele>23.0</ele><time>2026-04-24T01:37:26Z</time></trkpt><trkpt lat="-19.980901532202747" lon="120.21985742419618"><ele>23.0</ele><time>2026-04-24T01:37:27Z</time></trkpt><trkpt lat="-19.98063278524522" lon="120.21988770493829"><ele>23.0</ele><time>2026-04-24T01:37:28Z</time></trkpt><trkpt lat="-19.980347377881294" lon="120.21991785190765"><ele>23.0</ele><time>2026-04-24T01:37:29Z</time></trkpt><trkpt lat="-19.980063700228957" lon="120.2199438325661"><ele>22.0</ele><time>2026-04-24T01:37:30Z</time></trkpt><trkpt lat="-19.979774858209616" lon="120.2199656353959"><ele>21.0</ele><time>2026-04-24T01:37:31Z</time></trkpt><trkpt lat="-19.979488067636684" lon="120.2199828991906"><ele>21.0</ele><time>2026-04-24T01:37:32Z</time></trkpt><trkpt lat="-19.97919980533194" lon="120.22000176556003"><ele>21.0</ele><time>2026-04-24T01:37:33Z</time></trkpt><trkpt lat="-19.978911996409966" lon="120.22002394216616"><ele>21.0</ele><time>2026-04-24T01:37:34Z</time></trkpt><trkpt lat="-19.97862764580994" lon="120.22004680520004"><ele>21.0</ele><time>2026-04-24T01:37:35Z</time></trkpt><trkpt lat="-19.97833705998735" lon="120.22006695433763"><ele>21.0</ele><time>2026-04-24T01:37:36Z</time></trkpt><trkpt lat="-19.97805163565183" lon="120.22009245403305"><ele>21.0</ele><time>2026-04-24T01:37:37Z</time></trkpt><trkpt lat="-19.977770135663082" lon="120.2201212712389"><ele>21.0</ele><time>2026-04-24T01:37:38Z</time></trkpt><trkpt lat="-19.977484540158496" lon="120.22014778871197"><ele>21.0</ele><time>2026-04-24T01:37:39Z</time></trkpt><trkpt lat="-19.977198402406792" lon="120.2201636464705"><ele>21.0</ele><time>2026-04-24T01:37:40Z</time></trkpt><trkpt lat="-19.976906379809115" lon="120.22017763195257"><ele>21.0</ele><time>2026-04-24T01:37:41Z</time></trkpt><trkpt lat="-19.976615421308278" lon="120.2201963534769"><ele>21.5</ele><time>2026-04-24T01:37:42Z</time></trkpt><trkpt lat="-19.976320215626124" lon="120.22021569045694"><ele>22.0</ele><time>2026-04-24T01:37:43Z</time></trkpt><trkpt lat="-19.976021775627146" lon="120.22023735213689"><ele>21.5</ele><time>2026-04-24T01:37:44Z</time></trkpt><trkpt lat="-19.975719762368776" lon="120.22026170285174"><ele>21.0</ele><time>2026-04-24T01:37:45Z</time></trkpt><trkpt lat="-19.975416426247072" lon="120.22028714119315"><ele>21.0</ele><time>2026-04-24T01:37:46Z</time></trkpt><trkpt lat="-19.975110269568948" lon="120.22030555936261"><ele>21.0</ele><time>2026-04-24T01:37:47Z</time></trkpt><trkpt lat="-19.974807592502" lon="120.22032047250485"><ele>20.0</ele><time>2026-04-24T01:37:48Z</time></trkpt><trkpt lat="-19.974503740577198" lon="120.22033723415117"><ele>19.0</ele><time>2026-04-24T01:37:49Z</time></trkpt><trkpt lat="-19.974200202411076" lon="120.22035773919245"><ele>19.5</ele><time>2026-04-24T01:37:50Z</time></trkpt><trkpt lat="-19.973898906596435" lon="120.2203829113863"><ele>20.0</ele><time>2026-04-24T01:37:51Z</time></trkpt><trkpt lat="-19.973599846040422" lon="120.22041320860653"><ele>19.5</ele><time>2026-04-24T01:37:52Z</time></trkpt><trkpt lat="-19.97329787448964" lon="120.22044177938864"><ele>19.0</ele><time>2026-04-24T01:37:53Z</time></trkpt><trkpt lat="-19.973001199280247" lon="120.22045857817213"><ele>19.0</ele><time>2026-04-24T01:37:54Z</time></trkpt><trkpt lat="-19.97271522470273" lon="120.22047506173136"><ele>19.0</ele><time>2026-04-24T01:37:55Z</time></trkpt><trkpt lat="-19.972433455394846" lon="120.22048156406979"><ele>19.5</ele><time>2026-04-24T01:37:56Z</time></trkpt><trkpt lat="-19.972157798275987" lon="120.22049336471903"><ele>20.0</ele><time>2026-04-24T01:37:57Z</time></trkpt><trkpt lat="-19.971878633131922" lon="120.220511016476"><ele>19.0</ele><time>2026-04-24T01:37:58Z</time></trkpt><trkpt lat="-19.971600044426143" lon="120.22052874722557"><ele>18.0</ele><time>2026-04-24T01:37:59Z</time></trkpt><trkpt lat="-19.971322683439496" lon="120.22054513163201"><ele>18.0</ele><time>2026-04-24T01:38:00Z</time></trkpt><trkpt lat="-19.971063866625837" lon="120.22055953006442"><ele>18.0</ele><time>2026-04-24T01:38:01Z</time></trkpt><trkpt lat="-19.970821930160028" lon="120.22056889420324"><ele>18.0</ele><time>2026-04-24T01:38:02Z</time></trkpt><trkpt lat="-19.97059316845493" lon="120.22057334530508"><ele>18.0</ele><time>2026-04-24T01:38:03Z</time></trkpt><trkpt lat="-19.970386874506815" lon="120.2205695784532"><ele>18.0</ele><time>2026-04-24T01:38:04Z</time></trkpt><trkpt lat="-19.9702095839439" lon="120.22056316465242"><ele>18.0</ele><time>2026-04-24T01:38:05Z</time></trkpt><trkpt lat="-19.970048892903908" lon="120.22055953212342"><ele>18.0</ele><time>2026-04-24T01:38:06Z</time></trkpt><trkpt lat="-19.969911194993" lon="120.22055817364767"><ele>18.0</ele><time>2026-04-24T01:38:07Z</time></trkpt><trkpt lat="-19.96980234503328" lon="120.22055787343832"><ele>18.0</ele><time>2026-04-24T01:38:08Z</time></trkpt><trkpt lat="-19.969730559532987" lon="120.22055536216756"><ele>18.166666666666668</ele><time>2026-04-24T01:38:09Z</time></trkpt><trkpt lat="-19.969644274207138" lon="120.22055950787748"><ele>18.333333333333332</ele><time>2026-04-24T01:38:13Z</time></trkpt><trkpt lat="-19.96961259087087" lon="120.22064319166358"><ele>18.5</ele><time>2026-04-24T01:38:15Z</time></trkpt><trkpt lat="-19.969611314741144" lon="120.22072841128468"><ele>18.666666666666664</ele><time>2026-04-24T01:38:16Z</time></trkpt><trkpt lat="-19.969603396396543" lon="120.22081792075836"><ele>18.833333333333332</ele><time>2026-04-24T01:38:17Z</time></trkpt><trkpt lat="-19.969583204698672" lon="120.22092524507858"><ele>19.0</ele><time>2026-04-24T01:38:18Z</time></trkpt><trkpt lat="-19.969562628803907" lon="120.2210542411935"><ele>19.666666666666664</ele><time>2026-04-24T01:38:19Z</time></trkpt><trkpt lat="-19.969540205070174" lon="120.22119626538846"><ele>20.333333333333332</ele><time>2026-04-24T01:38:20Z</time></trkpt><trkpt lat="-19.969514650145737" lon="120.22136213649281"><ele>21.0</ele><time>2026-04-24T01:38:21Z</time></trkpt><trkpt lat="-19.9694856973536" lon="120.22153154672596"><ele>21.333333333333332</ele><time>2026-04-24T01:38:22Z</time></trkpt><trkpt lat="-19.969450042508523" lon="120.22171809834795"><ele>21.666666666666664</ele><time>2026-04-24T01:38:23Z</time></trkpt><trkpt lat="-19.969413981199665" lon="120.22192049730498"><ele>22.0</ele><time>2026-04-24T01:38:24Z</time></trkpt><trkpt lat="-19.969378598952794" lon="120.22213229386156"><ele>22.0</ele><time>2026-04-24T01:38:25Z</time></trkpt><trkpt lat="-19.96934248971897" lon="120.22235445766736"><ele>22.0</ele><time>2026-04-24T01:38:26Z</time></trkpt><trkpt lat="-19.96930486589625" lon="120.22259020203941"><ele>22.0</ele><time>2026-04-24T01:38:27Z</time></trkpt><trkpt lat="-19.969262304659516" lon="120.22283324321924"><ele>22.0</ele><time>2026-04-24T01:38:28Z</time></trkpt><trkpt lat="-19.969219354224272" lon="120.22307733840393"><ele>22.0</ele><time>2026-04-24T01:38:29Z</time></trkpt><trkpt lat="-19.969175466478614" lon="120.22333081062463"><ele>22.0</ele><time>2026-04-24T01:38:30Z</time></trkpt><trkpt lat="-19.969130703609903" lon="120.22359269587194"><ele>22.0</ele><time>2026-04-24T01:38:31Z</time></trkpt><trkpt lat="-19.969087215951834" lon="120.22386046976648"><ele>22.5</ele><time>2026-04-24T01:38:32Z</time></trkpt><trkpt lat="-19.96904239297522" lon="120.22413145601706"><ele>23.0</ele><time>2026-04-24T01:38:33Z</time></trkpt><trkpt lat="-19.9689982675484" lon="120.22440622886569"><ele>23.0</ele><time>2026-04-24T01:38:34Z</time></trkpt><trkpt lat="-19.96895407085614" lon="120.22468909971354"><ele>23.0</ele><time>2026-04-24T01:38:35Z</time></trkpt><trkpt lat="-19.968910451090842" lon="120.22497152351197"><ele>23.5</ele><time>2026-04-24T01:38:36Z</time></trkpt><trkpt lat="-19.968862740463294" lon="120.22525465159224"><ele>24.0</ele><time>2026-04-24T01:38:37Z</time></trkpt><trkpt lat="-19.968812795513212" lon="120.22553325227075"><ele>24.0</ele><time>2026-04-24T01:38:38Z</time></trkpt><trkpt lat="-19.968762506564364" lon="120.22581180710255"><ele>24.0</ele><time>2026-04-24T01:38:39Z</time></trkpt><trkpt lat="-19.968714843809085" lon="120.22609580620943"><ele>24.0</ele><time>2026-04-24T01:38:40Z</time></trkpt><trkpt lat="-19.968670324801366" lon="120.2263790583005"><ele>24.0</ele><time>2026-04-24T01:38:41Z</time></trkpt><trkpt lat="-19.96862739361767" lon="120.22666466296744"><ele>25.5</ele><time>2026-04-24T01:38:42Z</time></trkpt><trkpt lat="-19.968581565224557" lon="120.22694948172995"><ele>27.0</ele><time>2026-04-24T01:38:43Z</time></trkpt><trkpt lat="-19.968531747597652" lon="120.22723322456709"><ele>27.5</ele><time>2026-04-24T01:38:44Z</time></trkpt><trkpt lat="-19.968479560959636" lon="120.22751738032997"><ele>28.0</ele><time>2026-04-24T01:38:45Z</time></trkpt><trkpt lat="-19.968428042463668" lon="120.2278027238782"><ele>28.0</ele><time>2026-04-24T01:38:46Z</time></trkpt><trkpt lat="-19.96837886841574" lon="120.22809051402449"><ele>28.0</ele><time>2026-04-24T01:38:47Z</time></trkpt><trkpt lat="-19.968332396405412" lon="120.22838021816077"><ele>28.5</ele><time>2026-04-24T01:38:48Z</time></trkpt><trkpt lat="-19.96828473463551" lon="120.22866629598636"><ele>29.0</ele><time>2026-04-24T01:38:49Z</time></trkpt><trkpt lat="-19.96823709356444" lon="120.2289579401543"><ele>28.5</ele><time>2026-04-24T01:38:50Z</time></trkpt><trkpt lat="-19.968191267367942" lon="120.22924840716487"><ele>28.0</ele><time>2026-04-24T01:38:51Z</time></trkpt><trkpt lat="-19.968143267405672" lon="120.22954511220293"><ele>29.0</ele><time>2026-04-24T01:38:52Z</time></trkpt><trkpt lat="-19.96809536692623" lon="120.22983566396572"><ele>30.0</ele><time>2026-04-24T01:38:53Z</time></trkpt><trkpt lat="-19.96804561181668" lon="120.23012708925565"><ele>30.0</ele><time>2026-04-24T01:38:54Z</time></trkpt><trkpt lat="-19.967993975430847" lon="120.23041968958663"><ele>30.0</ele><time>2026-04-24T01:38:55Z</time></trkpt><trkpt lat="-19.967942364343067" lon="120.23071312288106"><ele>30.0</ele><time>2026-04-24T01:38:56Z</time></trkpt><trkpt lat="-19.967892643543976" lon="120.23100606706386"><ele>30.0</ele><time>2026-04-24T01:38:57Z</time></trkpt><trkpt lat="-19.967845413498818" lon="120.23129968764603"><ele>30.5</ele><time>2026-04-24T01:38:58Z</time></trkpt><trkpt lat="-19.967796510531297" lon="120.23159677410607"><ele>31.0</ele><time>2026-04-24T01:38:59Z</time></trkpt><trkpt lat="-19.967747457147812" lon="120.23189381560066"><ele>31.0</ele><time>2026-04-24T01:39:00Z</time></trkpt><trkpt lat="-19.967698432916546" lon="120.23219139258705"><ele>31.0</ele><time>2026-04-24T01:39:01Z</time></trkpt><trkpt lat="-19.967651396536436" lon="120.23248794852626"><ele>30.0</ele><time>2026-04-24T01:39:02Z</time></trkpt><trkpt lat="-19.967554636231718" lon="120.23307853763957"><ele>30.0</ele><time>2026-04-24T01:39:04Z</time></trkpt><trkpt lat="-19.96750560769434" lon="120.23337334187536"><ele>30.0</ele><time>2026-04-24T01:39:05Z</time></trkpt><trkpt lat="-19.967457072835003" lon="120.23366698786839"><ele>30.0</ele><time>2026-04-24T01:39:06Z</time></trkpt><trkpt lat="-19.96740910321557" lon="120.23396382964805"><ele>30.0</ele><time>2026-04-24T01:39:07Z</time></trkpt><trkpt lat="-19.967362624610832" lon="120.23426372900344"><ele>29.5</ele><time>2026-04-24T01:39:08Z</time></trkpt><trkpt lat="-19.96732270208308" lon="120.23456342570712"><ele>29.0</ele><time>2026-04-24T01:39:09Z</time></trkpt><trkpt lat="-19.96729079271332" lon="120.23486439616727"><ele>30.0</ele><time>2026-04-24T01:39:10Z</time></trkpt><trkpt lat="-19.967263628861208" lon="120.2351679963351"><ele>31.0</ele><time>2026-04-24T01:39:11Z</time></trkpt><trkpt lat="-19.96724106910083" lon="120.23547134501078"><ele>31.5</ele><time>2026-04-24T01:39:12Z</time></trkpt><trkpt lat="-19.96721787706717" lon="120.23577457013425"><ele>32.0</ele><time>2026-04-24T01:39:13Z</time></trkpt><trkpt lat="-19.967192220531466" lon="120.23607989317115"><ele>32.0</ele><time>2026-04-24T01:39:14Z</time></trkpt><trkpt lat="-19.96717505821418" lon="120.2363856514159"><ele>32.0</ele><time>2026-04-24T01:39:15Z</time></trkpt><trkpt lat="-19.967162386684638" lon="120.23668902056757"><ele>31.0</ele><time>2026-04-24T01:39:16Z</time></trkpt><trkpt lat="-19.96715358478186" lon="120.23699204484232"><ele>30.0</ele><time>2026-04-24T01:39:17Z</time></trkpt><trkpt lat="-19.96714822344276" lon="120.23729125518791"><ele>29.5</ele><time>2026-04-24T01:39:18Z</time></trkpt><trkpt lat="-19.967148431216682" lon="120.23759096209963"><ele>29.0</ele><time>2026-04-24T01:39:19Z</time></trkpt><trkpt lat="-19.967151077628436" lon="120.23789079087338"><ele>29.0</ele><time>2026-04-24T01:39:20Z</time></trkpt><trkpt lat="-19.967158490992087" lon="120.23819056662512"><ele>29.0</ele><time>2026-04-24T01:39:21Z</time></trkpt><trkpt lat="-19.96716930215268" lon="120.23849608836747"><ele>29.0</ele><time>2026-04-24T01:39:22Z</time></trkpt><trkpt lat="-19.967182795853184" lon="120.2387992106843"><ele>29.0</ele><time>2026-04-24T01:39:23Z</time></trkpt><trkpt lat="-19.96719671070739" lon="120.23910364113242"><ele>29.0</ele><time>2026-04-24T01:39:24Z</time></trkpt><trkpt lat="-19.967209037548514" lon="120.23940952381632"><ele>29.0</ele><time>2026-04-24T01:39:25Z</time></trkpt><trkpt lat="-19.967218285951784" lon="120.2397176247974"><ele>29.0</ele><time>2026-04-24T01:39:26Z</time></trkpt><trkpt lat="-19.967229716617037" lon="120.24002652105287"><ele>29.0</ele><time>2026-04-24T01:39:27Z</time></trkpt><trkpt lat="-19.96724268449532" lon="120.24033666708021"><ele>28.0</ele><time>2026-04-24T01:39:28Z</time></trkpt><trkpt lat="-19.96725357199115" lon="120.24064452982077"><ele>27.0</ele><time>2026-04-24T01:39:29Z</time></trkpt><trkpt lat="-19.967262711827466" lon="120.24095077072236"><ele>27.0</ele><time>2026-04-24T01:39:30Z</time></trkpt><trkpt lat="-19.96727381987549" lon="120.24125177168324"><ele>27.0</ele><time>2026-04-24T01:39:31Z</time></trkpt><trkpt lat="-19.967288883208766" lon="120.24155091407604"><ele>27.5</ele><time>2026-04-24T01:39:32Z</time></trkpt><trkpt lat="-19.967301031955962" lon="120.24184691398145"><ele>28.0</ele><time>2026-04-24T01:39:33Z</time></trkpt><trkpt lat="-19.967311439957623" lon="120.24214351895081"><ele>28.0</ele><time>2026-04-24T01:39:34Z</time></trkpt><trkpt lat="-19.967322841217904" lon="120.24244257694444"><ele>28.0</ele><time>2026-04-24T01:39:35Z</time></trkpt><trkpt lat="-19.967335330017846" lon="120.24274363364569"><ele>28.0</ele><time>2026-04-24T01:39:36Z</time></trkpt><trkpt lat="-19.96734760444321" lon="120.24304623245047"><ele>28.0</ele><time>2026-04-24T01:39:37Z</time></trkpt><trkpt lat="-19.967360152773814" lon="120.24334924389487"><ele>28.0</ele><time>2026-04-24T01:39:38Z</time></trkpt><trkpt lat="-19.967373749765013" lon="120.2436510263234"><ele>28.0</ele><time>2026-04-24T01:39:39Z</time></trkpt><trkpt lat="-19.967385216702976" lon="120.2439496780528"><ele>27.5</ele><time>2026-04-24T01:39:40Z</time></trkpt><trkpt lat="-19.967396347799227" lon="120.24424637149944"><ele>27.0</ele><time>2026-04-24T01:39:41Z</time></trkpt><trkpt lat="-19.967406787925604" lon="120.24454249069"><ele>26.0</ele><time>2026-04-24T01:39:42Z</time></trkpt><trkpt lat="-19.967416976669554" lon="120.24483863405172"><ele>25.0</ele><time>2026-04-24T01:39:43Z</time></trkpt><trkpt lat="-19.9674243116758" lon="120.24513518912863"><ele>25.0</ele><time>2026-04-24T01:39:44Z</time></trkpt><trkpt lat="-19.96743543803637" lon="120.2454285599442"><ele>25.0</ele><time>2026-04-24T01:39:45Z</time></trkpt><trkpt lat="-19.96744932785003" lon="120.24571926119897"><ele>25.5</ele><time>2026-04-24T01:39:46Z</time></trkpt><trkpt lat="-19.967460598922383" lon="120.24600905016861"><ele>26.0</ele><time>2026-04-24T01:39:47Z</time></trkpt><trkpt lat="-19.967470981573054" lon="120.24630025594882"><ele>26.0</ele><time>2026-04-24T01:39:48Z</time></trkpt><trkpt lat="-19.96748136379745" lon="120.24659090916634"><ele>26.0</ele><time>2026-04-24T01:39:49Z</time></trkpt><trkpt lat="-19.967493260685053" lon="120.24688275407709"><ele>26.0</ele><time>2026-04-24T01:39:50Z</time></trkpt><trkpt lat="-19.967505363182166" lon="120.24717637792286"><ele>26.0</ele><time>2026-04-24T01:39:51Z</time></trkpt><trkpt lat="-19.96751629816089" lon="120.24747413042775"><ele>25.5</ele><time>2026-04-24T01:39:52Z</time></trkpt><trkpt lat="-19.967529211910833" lon="120.24777255749731"><ele>25.0</ele><time>2026-04-24T01:39:53Z</time></trkpt><trkpt lat="-19.967542377415107" lon="120.2480756010697"><ele>24.5</ele><time>2026-04-24T01:39:54Z</time></trkpt><trkpt lat="-19.96755509275134" lon="120.2483782261238"><ele>24.0</ele><time>2026-04-24T01:39:55Z</time></trkpt><trkpt lat="-19.9675679128253" lon="120.24868164831966"><ele>24.0</ele><time>2026-04-24T01:39:56Z</time></trkpt><trkpt lat="-19.967579408572057" lon="120.24898815494169"><ele>24.0</ele><time>2026-04-24T01:39:57Z</time></trkpt><trkpt lat="-19.9675895199322" lon="120.24929642650622"><ele>24.0</ele><time>2026-04-24T01:39:58Z</time></trkpt><trkpt lat="-19.967603467495113" lon="120.2496076918304"><ele>24.0</ele><time>2026-04-24T01:39:59Z</time></trkpt><trkpt lat="-19.967620222247845" lon="120.24991606430929"><ele>23.5</ele><time>2026-04-24T01:40:00Z</time></trkpt><trkpt lat="-19.967632489691127" lon="120.25022421913788"><ele>23.0</ele><time>2026-04-24T01:40:01Z</time></trkpt><trkpt lat="-19.967642252602502" lon="120.25052991585228"><ele>22.5</ele><time>2026-04-24T01:40:02Z</time></trkpt><trkpt lat="-19.967651183880626" lon="120.25083908193191"><ele>22.0</ele><time>2026-04-24T01:40:03Z</time></trkpt><trkpt lat="-19.967662411817475" lon="120.25114681796379"><ele>21.5</ele><time>2026-04-24T01:40:04Z</time></trkpt><trkpt lat="-19.96767432254044" lon="120.25145911462103"><ele>21.0</ele><time>2026-04-24T01:40:05Z</time></trkpt><trkpt lat="-19.967685829839876" lon="120.25177271577545"><ele>21.0</ele><time>2026-04-24T01:40:06Z</time></trkpt><trkpt lat="-19.967698450359556" lon="120.2520853828815"><ele>21.0</ele><time>2026-04-24T01:40:07Z</time></trkpt><trkpt lat="-19.9677122724509" lon="120.25239694869484"><ele>21.0</ele><time>2026-04-24T01:40:08Z</time></trkpt><trkpt lat="-19.967725180619162" lon="120.25270963063168"><ele>21.0</ele><time>2026-04-24T01:40:09Z</time></trkpt><trkpt lat="-19.96773937125854" lon="120.25302321601956"><ele>21.0</ele><time>2026-04-24T01:40:10Z</time></trkpt><trkpt lat="-19.96775399276359" lon="120.2533348711141"><ele>21.0</ele><time>2026-04-24T01:40:11Z</time></trkpt><trkpt lat="-19.967767983272395" lon="120.25364424784026"><ele>19.0</ele><time>2026-04-24T01:40:12Z</time></trkpt><trkpt lat="-19.9677879412275" lon="120.25426644010274"><ele>19.0</ele><time>2026-04-24T01:40:14Z</time></trkpt><trkpt lat="-19.967795779355555" lon="120.25458236771739"><ele>19.0</ele><time>2026-04-24T01:40:15Z</time></trkpt><trkpt lat="-19.967806925944426" lon="120.25489248830041"><ele>20.0</ele><time>2026-04-24T01:40:16Z</time></trkpt><trkpt lat="-19.967818710116084" lon="120.25520256110563"><ele>21.0</ele><time>2026-04-24T01:40:17Z</time></trkpt><trkpt lat="-19.967829266557683" lon="120.25551179880146"><ele>20.0</ele><time>2026-04-24T01:40:18Z</time></trkpt><trkpt lat="-19.967839078537853" lon="120.25582001311344"><ele>19.0</ele><time>2026-04-24T01:40:19Z</time></trkpt><trkpt lat="-19.967851169579383" lon="120.25612971363928"><ele>19.0</ele><time>2026-04-24T01:40:20Z</time></trkpt><trkpt lat="-19.967865568338343" lon="120.25643710035241"><ele>19.0</ele><time>2026-04-24T01:40:21Z</time></trkpt><trkpt lat="-19.967878907409265" lon="120.25674417056506"><ele>19.0</ele><time>2026-04-24T01:40:22Z</time></trkpt><trkpt lat="-19.96789014452934" lon="120.25704836630686"><ele>19.0</ele><time>2026-04-24T01:40:23Z</time></trkpt><trkpt lat="-19.967902070193496" lon="120.25734995684721"><ele>18.5</ele><time>2026-04-24T01:40:24Z</time></trkpt><trkpt lat="-19.967914145964063" lon="120.25764963632749"><ele>18.0</ele><time>2026-04-24T01:40:25Z</time></trkpt><trkpt lat="-19.96792441618714" lon="120.2579433641998"><ele>18.5</ele><time>2026-04-24T01:40:26Z</time></trkpt><trkpt lat="-19.967933408862088" lon="120.25824139951395"><ele>19.0</ele><time>2026-04-24T01:40:27Z</time></trkpt><trkpt lat="-19.967943835767606" lon="120.25853397854469"><ele>19.0</ele><time>2026-04-24T01:40:28Z</time></trkpt><trkpt lat="-19.96795179812658" lon="120.2588248270173"><ele>19.0</ele><time>2026-04-24T01:40:29Z</time></trkpt><trkpt lat="-19.967959036335493" lon="120.25911414773273"><ele>19.5</ele><time>2026-04-24T01:40:30Z</time></trkpt><trkpt lat="-19.967968880409536" lon="120.2594060889303"><ele>20.0</ele><time>2026-04-24T01:40:31Z</time></trkpt><trkpt lat="-19.967980587777745" lon="120.2597003989449"><ele>21.0</ele><time>2026-04-24T01:40:32Z</time></trkpt><trkpt lat="-19.967992331367267" lon="120.25999436590895"><ele>22.0</ele><time>2026-04-24T01:40:32.999Z</time></trkpt><trkpt lat="-19.968002673197624" lon="120.26028940885725"><ele>22.0</ele><time>2026-04-24T01:40:33.999Z</time></trkpt><trkpt lat="-19.96801599036651" lon="120.26058314278829"><ele>22.0</ele><time>2026-04-24T01:40:34.999Z</time></trkpt><trkpt lat="-19.968030331860326" lon="120.26087760368547"><ele>22.0</ele><time>2026-04-24T01:40:35.999Z</time></trkpt><trkpt lat="-19.968041162235902" lon="120.26116924822603"><ele>22.0</ele><time>2026-04-24T01:40:36.999Z</time></trkpt><trkpt lat="-19.968052574182767" lon="120.26145661845123"><ele>22.0</ele><time>2026-04-24T01:40:37.999Z</time></trkpt><trkpt lat="-19.968060813687355" lon="120.26174408298102"><ele>22.0</ele><time>2026-04-24T01:40:38.999Z</time></trkpt><trkpt lat="-19.96807203211982" lon="120.2620278314163"><ele>22.5</ele><time>2026-04-24T01:40:39.999Z</time></trkpt><trkpt lat="-19.96808481260146" lon="120.26231318866581"><ele>23.0</ele><time>2026-04-24T01:40:40.999Z</time></trkpt><trkpt lat="-19.968097206361804" lon="120.26259798673794"><ele>23.0</ele><time>2026-04-24T01:40:41.999Z</time></trkpt><trkpt lat="-19.968110167827092" lon="120.26288480350033"><ele>23.0</ele><time>2026-04-24T01:40:42.999Z</time></trkpt><trkpt lat="-19.968121733798636" lon="120.26317169692575"><ele>23.0</ele><time>2026-04-24T01:40:43.999Z</time></trkpt><trkpt lat="-19.968132984458496" lon="120.26345901726951"><ele>23.0</ele><time>2026-04-24T01:40:44.999Z</time></trkpt><trkpt lat="-19.968146282770032" lon="120.26374756854617"><ele>23.0</ele><time>2026-04-24T01:40:45.999Z</time></trkpt><trkpt lat="-19.96815895017986" lon="120.26403715801416"><ele>23.0</ele><time>2026-04-24T01:40:46.999Z</time></trkpt><trkpt lat="-19.9681693033083" lon="120.26433070770392"><ele>23.0</ele><time>2026-04-24T01:40:47.999Z</time></trkpt><trkpt lat="-19.96817991641927" lon="120.26462011960878"><ele>23.0</ele><time>2026-04-24T01:40:48.999Z</time></trkpt><trkpt lat="-19.968187790700437" lon="120.26490941397068"><ele>23.5</ele><time>2026-04-24T01:40:49.999Z</time></trkpt><trkpt lat="-19.968196738989402" lon="120.26519680139587"><ele>24.0</ele><time>2026-04-24T01:40:51Z</time></trkpt><trkpt lat="-19.968207326122318" lon="120.26548519603729"><ele>25.0</ele><time>2026-04-24T01:40:52Z</time></trkpt><trkpt lat="-19.968218017925064" lon="120.26577680057623"><ele>26.0</ele><time>2026-04-24T01:40:53Z</time></trkpt><trkpt lat="-19.968230909704605" lon="120.26606663403616"><ele>26.0</ele><time>2026-04-24T01:40:54Z</time></trkpt><trkpt lat="-19.96824308409681" lon="120.26635494531271"><ele>26.0</ele><time>2026-04-24T01:40:55Z</time></trkpt><trkpt lat="-19.968254461580987" lon="120.26664252368319"><ele>26.0</ele><time>2026-04-24T01:40:56Z</time></trkpt><trkpt lat="-19.968266875605696" lon="120.26693020054283"><ele>26.0</ele><time>2026-04-24T01:40:57Z</time></trkpt><trkpt lat="-19.968279393358547" lon="120.26721716887408"><ele>26.5</ele><time>2026-04-24T01:40:58Z</time></trkpt><trkpt lat="-19.968292337309006" lon="120.26750302312128"><ele>27.0</ele><time>2026-04-24T01:40:59Z</time></trkpt><trkpt lat="-19.968306624086132" lon="120.26779040405088"><ele>27.0</ele><time>2026-04-24T01:41:00Z</time></trkpt><trkpt lat="-19.96831818706863" lon="120.26807738533917"><ele>27.0</ele><time>2026-04-24T01:41:01Z</time></trkpt><trkpt lat="-19.968327697799378" lon="120.26836836203438"><ele>27.0</ele><time>2026-04-24T01:41:02Z</time></trkpt><trkpt lat="-19.968338194398942" lon="120.26866134483642"><ele>27.0</ele><time>2026-04-24T01:41:03Z</time></trkpt><trkpt lat="-19.968346528317827" lon="120.2689534007476"><ele>26.5</ele><time>2026-04-24T01:41:04Z</time></trkpt><trkpt lat="-19.968357433733555" lon="120.26924509917546"><ele>26.0</ele><time>2026-04-24T01:41:05Z</time></trkpt><trkpt lat="-19.968368576270368" lon="120.26953505135181"><ele>27.5</ele><time>2026-04-24T01:41:06Z</time></trkpt><trkpt lat="-19.96838020784896" lon="120.2698237801055"><ele>29.0</ele><time>2026-04-24T01:41:07Z</time></trkpt><trkpt lat="-19.968392690863872" lon="120.27010699308671"><ele>29.0</ele><time>2026-04-24T01:41:08Z</time></trkpt><trkpt lat="-19.968405298713343" lon="120.27039017405605"><ele>29.0</ele><time>2026-04-24T01:41:09Z</time></trkpt><trkpt lat="-19.968419114839488" lon="120.27066868051006"><ele>28.5</ele><time>2026-04-24T01:41:10Z</time></trkpt><trkpt lat="-19.968433309978337" lon="120.2709468401462"><ele>28.0</ele><time>2026-04-24T01:41:11Z</time></trkpt><trkpt lat="-19.968446808984517" lon="120.27122614239667"><ele>27.0</ele><time>2026-04-24T01:41:12Z</time></trkpt><trkpt lat="-19.968458620941263" lon="120.27150396842403"><ele>26.0</ele><time>2026-04-24T01:41:13Z</time></trkpt><trkpt lat="-19.968468290658958" lon="120.2717857150362"><ele>26.0</ele><time>2026-04-24T01:41:14Z</time></trkpt><trkpt lat="-19.968475598025048" lon="120.27206655303432"><ele>26.0</ele><time>2026-04-24T01:41:15Z</time></trkpt><trkpt lat="-19.968485526528916" lon="120.27234520494709"><ele>26.0</ele><time>2026-04-24T01:41:16Z</time></trkpt><trkpt lat="-19.968495624758294" lon="120.27262306679637"><ele>26.0</ele><time>2026-04-24T01:41:17Z</time></trkpt><trkpt lat="-19.968503891085874" lon="120.27289944089611"><ele>26.0</ele><time>2026-04-24T01:41:18Z</time></trkpt><trkpt lat="-19.96851214042407" lon="120.27317463141118"><ele>26.0</ele><time>2026-04-24T01:41:19Z</time></trkpt><trkpt lat="-19.968520947873294" lon="120.27344757611546"><ele>26.0</ele><time>2026-04-24T01:41:20Z</time></trkpt><trkpt lat="-19.96853100344943" lon="120.27371949570339"><ele>26.0</ele><time>2026-04-24T01:41:21Z</time></trkpt><trkpt lat="-19.968539765539234" lon="120.27399174280293"><ele>26.5</ele><time>2026-04-24T01:41:22Z</time></trkpt><trkpt lat="-19.96854973714587" lon="120.27426806977496"><ele>27.0</ele><time>2026-04-24T01:41:23Z</time></trkpt><trkpt lat="-19.968560851496523" lon="120.2745472612611"><ele>26.5</ele><time>2026-04-24T01:41:24Z</time></trkpt><trkpt lat="-19.9685719222024" lon="120.27483026967917"><ele>26.0</ele><time>2026-04-24T01:41:25Z</time></trkpt><trkpt lat="-19.968581621067422" lon="120.2751167798847"><ele>26.0</ele><time>2026-04-24T01:41:26Z</time></trkpt><trkpt lat="-19.968592233001097" lon="120.2754072555583"><ele>26.0</ele><time>2026-04-24T01:41:27Z</time></trkpt><trkpt lat="-19.96860350605384" lon="120.27569799110293"><ele>26.5</ele><time>2026-04-24T01:41:28Z</time></trkpt><trkpt lat="-19.968615536608002" lon="120.27598654556652"><ele>27.0</ele><time>2026-04-24T01:41:29Z</time></trkpt><trkpt lat="-19.96863110243446" lon="120.27627383599447"><ele>26.5</ele><time>2026-04-24T01:41:30Z</time></trkpt><trkpt lat="-19.96864607113364" lon="120.2765607707344"><ele>26.0</ele><time>2026-04-24T01:41:31Z</time></trkpt><trkpt lat="-19.968658157276206" lon="120.27684780643727"><ele>26.0</ele><time>2026-04-24T01:41:32Z</time></trkpt><trkpt lat="-19.968667481855274" lon="120.27713572951845"><ele>26.0</ele><time>2026-04-24T01:41:33Z</time></trkpt><trkpt lat="-19.968674239980967" lon="120.27742861592544"><ele>26.5</ele><time>2026-04-24T01:41:34Z</time></trkpt><trkpt lat="-19.968681407378515" lon="120.27771943539197"><ele>27.0</ele><time>2026-04-24T01:41:35Z</time></trkpt><trkpt lat="-19.96868821603838" lon="120.27801038920508"><ele>27.5</ele><time>2026-04-24T01:41:36Z</time></trkpt><trkpt lat="-19.96869943823484" lon="120.27829805024761"><ele>28.0</ele><time>2026-04-24T01:41:37Z</time></trkpt><trkpt lat="-19.968711012318828" lon="120.27858754335864"><ele>28.0</ele><time>2026-04-24T01:41:38Z</time></trkpt><trkpt lat="-19.968725784828905" lon="120.27887573456768"><ele>28.0</ele><time>2026-04-24T01:41:39Z</time></trkpt><trkpt lat="-19.96873803976004" lon="120.27916254251693"><ele>28.5</ele><time>2026-04-24T01:41:40Z</time></trkpt><trkpt lat="-19.968746625564446" lon="120.2794487823316"><ele>29.0</ele><time>2026-04-24T01:41:41Z</time></trkpt><trkpt lat="-19.968753526356743" lon="120.27973916108445"><ele>29.5</ele><time>2026-04-24T01:41:42Z</time></trkpt><trkpt lat="-19.968757808862094" lon="120.28002325379774"><ele>30.0</ele><time>2026-04-24T01:41:43Z</time></trkpt><trkpt lat="-19.96875237351948" lon="120.28031160901521"><ele>30.0</ele><time>2026-04-24T01:41:44Z</time></trkpt><trkpt lat="-19.96874465190488" lon="120.28059870248899"><ele>30.0</ele><time>2026-04-24T01:41:45Z</time></trkpt><trkpt lat="-19.968733856892932" lon="120.28089231164219"><ele>30.5</ele><time>2026-04-24T01:41:46Z</time></trkpt><trkpt lat="-19.96871614977395" lon="120.2811814367899"><ele>31.0</ele><time>2026-04-24T01:41:47Z</time></trkpt><trkpt lat="-19.968695326288724" lon="120.28147088102727"><ele>31.5</ele><time>2026-04-24T01:41:48Z</time></trkpt><trkpt lat="-19.968672230097603" lon="120.28176045683614"><ele>32.0</ele><time>2026-04-24T01:41:49Z</time></trkpt><trkpt lat="-19.968643542622054" lon="120.2820495912162"><ele>31.5</ele><time>2026-04-24T01:41:50Z</time></trkpt><trkpt lat="-19.968608992305512" lon="120.28233726343039"><ele>31.0</ele><time>2026-04-24T01:41:51Z</time></trkpt><trkpt lat="-19.968569469030843" lon="120.28262501963982"><ele>31.0</ele><time>2026-04-24T01:41:52Z</time></trkpt><trkpt lat="-19.968522010001124" lon="120.28291196082405"><ele>31.0</ele><time>2026-04-24T01:41:53Z</time></trkpt><trkpt lat="-19.968470864115464" lon="120.28319775634458"><ele>30.5</ele><time>2026-04-24T01:41:54Z</time></trkpt><trkpt lat="-19.968418210472333" lon="120.28348624164148"><ele>30.0</ele><time>2026-04-24T01:41:55Z</time></trkpt><trkpt lat="-19.968360364590314" lon="120.28377574026274"><ele>29.0</ele><time>2026-04-24T01:41:56Z</time></trkpt><trkpt lat="-19.96829809282833" lon="120.28406314152714"><ele>28.0</ele><time>2026-04-24T01:41:57Z</time></trkpt><trkpt lat="-19.968231851518876" lon="120.28434844133582"><ele>28.0</ele><time>2026-04-24T01:41:58Z</time></trkpt><trkpt lat="-19.968163839240866" lon="120.2846315400591"><ele>28.0</ele><time>2026-04-24T01:41:59Z</time></trkpt><trkpt lat="-19.968093782603372" lon="120.28491724641933"><ele>27.5</ele><time>2026-04-24T01:42:00Z</time></trkpt><trkpt lat="-19.968028904018663" lon="120.28520134173829"><ele>27.0</ele><time>2026-04-24T01:42:01Z</time></trkpt><trkpt lat="-19.967965916287284" lon="120.28549215696921"><ele>26.5</ele><time>2026-04-24T01:42:02Z</time></trkpt><trkpt lat="-19.96790282007529" lon="120.28578018309072"><ele>26.0</ele><time>2026-04-24T01:42:03Z</time></trkpt><trkpt lat="-19.967839561590985" lon="120.28606807885537"><ele>26.0</ele><time>2026-04-24T01:42:04Z</time></trkpt><trkpt lat="-19.967775592379574" lon="120.28635495116072"><ele>26.0</ele><time>2026-04-24T01:42:05Z</time></trkpt><trkpt lat="-19.96771145849868" lon="120.28664211297989"><ele>25.5</ele><time>2026-04-24T01:42:06Z</time></trkpt><trkpt lat="-19.967648587177283" lon="120.28692800213004"><ele>25.0</ele><time>2026-04-24T01:42:07Z</time></trkpt><trkpt lat="-19.967585878075806" lon="120.28721436007082"><ele>24.5</ele><time>2026-04-24T01:42:08Z</time></trkpt><trkpt lat="-19.967523124831963" lon="120.28750145237886"><ele>24.0</ele><time>2026-04-24T01:42:09Z</time></trkpt><trkpt lat="-19.967459543246957" lon="120.28778539581137"><ele>24.0</ele><time>2026-04-24T01:42:10Z</time></trkpt><trkpt lat="-19.967398806161835" lon="120.28806978068263"><ele>24.0</ele><time>2026-04-24T01:42:11Z</time></trkpt><trkpt lat="-19.967337007226245" lon="120.28835505219485"><ele>23.5</ele><time>2026-04-24T01:42:12Z</time></trkpt><trkpt lat="-19.967275574833405" lon="120.28864129650744"><ele>23.0</ele><time>2026-04-24T01:42:13Z</time></trkpt><trkpt lat="-19.967211845631244" lon="120.288924641629"><ele>22.5</ele><time>2026-04-24T01:42:14Z</time></trkpt><trkpt lat="-19.967145957277356" lon="120.28920596570394"><ele>22.0</ele><time>2026-04-24T01:42:15Z</time></trkpt><trkpt lat="-19.967077371179307" lon="120.28949133445255"><ele>22.0</ele><time>2026-04-24T01:42:16Z</time></trkpt><trkpt lat="-19.967009535019866" lon="120.28977654144522"><ele>22.0</ele><time>2026-04-24T01:42:17Z</time></trkpt><trkpt lat="-19.966944951121256" lon="120.29006453001145"><ele>22.0</ele><time>2026-04-24T01:42:18Z</time></trkpt><trkpt lat="-19.966877686516693" lon="120.2903525387483"><ele>22.0</ele><time>2026-04-24T01:42:19Z</time></trkpt><trkpt lat="-19.966809434625052" lon="120.29064245954187"><ele>21.5</ele><time>2026-04-24T01:42:20Z</time></trkpt><trkpt lat="-19.96674469114282" lon="120.29093018769368"><ele>21.0</ele><time>2026-04-24T01:42:21Z</time></trkpt><trkpt lat="-19.966680646899373" lon="120.2912234615183"><ele>20.5</ele><time>2026-04-24T01:42:22Z</time></trkpt><trkpt lat="-19.966616964767702" lon="120.29151334891766"><ele>20.0</ele><time>2026-04-24T01:42:23Z</time></trkpt><trkpt lat="-19.966551391875146" lon="120.29180395816758"><ele>20.0</ele><time>2026-04-24T01:42:24Z</time></trkpt><trkpt lat="-19.966483444014663" lon="120.29209362652925"><ele>20.0</ele><time>2026-04-24T01:42:25Z</time></trkpt><trkpt lat="-19.966414819854442" lon="120.29238541446138"><ele>20.0</ele><time>2026-04-24T01:42:26Z</time></trkpt><trkpt lat="-19.966349251243656" lon="120.29267993801622"><ele>20.0</ele><time>2026-04-24T01:42:27Z</time></trkpt><trkpt lat="-19.966285216603374" lon="120.29297369105355"><ele>20.0</ele><time>2026-04-24T01:42:28Z</time></trkpt><trkpt lat="-19.966224200434493" lon="120.29326257883189"><ele>20.0</ele><time>2026-04-24T01:42:29Z</time></trkpt><trkpt lat="-19.966160469814444" lon="120.2935508249458"><ele>20.0</ele><time>2026-04-24T01:42:30Z</time></trkpt><trkpt lat="-19.966096444084318" lon="120.29383931649834"><ele>20.0</ele><time>2026-04-24T01:42:31Z</time></trkpt><trkpt lat="-19.966032317953996" lon="120.29412718843024"><ele>20.0</ele><time>2026-04-24T01:42:32Z</time></trkpt><trkpt lat="-19.965966435993288" lon="120.29441278071843"><ele>20.0</ele><time>2026-04-24T01:42:33Z</time></trkpt><trkpt lat="-19.965901978712616" lon="120.2946998644181"><ele>19.5</ele><time>2026-04-24T01:42:34Z</time></trkpt><trkpt lat="-19.96583599633292" lon="120.29498829692386"><ele>19.0</ele><time>2026-04-24T01:42:35Z</time></trkpt><trkpt lat="-19.965769718049348" lon="120.29527714954297"><ele>19.0</ele><time>2026-04-24T01:42:36Z</time></trkpt><trkpt lat="-19.965705146660554" lon="120.29556347258813"><ele>19.0</ele><time>2026-04-24T01:42:37Z</time></trkpt><trkpt lat="-19.965644041082147" lon="120.29584936542354"><ele>18.5</ele><time>2026-04-24T01:42:38Z</time></trkpt><trkpt lat="-19.965582402806604" lon="120.29613423204918"><ele>18.0</ele><time>2026-04-24T01:42:38.999Z</time></trkpt><trkpt lat="-19.965518127348172" lon="120.29642108661004"><ele>18.0</ele><time>2026-04-24T01:42:39.999Z</time></trkpt><trkpt lat="-19.965450795472993" lon="120.29670720272561"><ele>18.0</ele><time>2026-04-24T01:42:40.999Z</time></trkpt><trkpt lat="-19.96538431402802" lon="120.2969922691242"><ele>18.5</ele><time>2026-04-24T01:42:41.999Z</time></trkpt><trkpt lat="-19.96531807327185" lon="120.29727699298117"><ele>19.0</ele><time>2026-04-24T01:42:42.999Z</time></trkpt><trkpt lat="-19.96525299670045" lon="120.29756323141635"><ele>19.0</ele><time>2026-04-24T01:42:43.999Z</time></trkpt><trkpt lat="-19.965189467260352" lon="120.29785189567671"><ele>19.0</ele><time>2026-04-24T01:42:44.999Z</time></trkpt><trkpt lat="-19.965127326214017" lon="120.2981417896486"><ele>19.0</ele><time>2026-04-24T01:42:45.999Z</time></trkpt><trkpt lat="-19.965065082421688" lon="120.29843012250974"><ele>19.0</ele><time>2026-04-24T01:42:46.999Z</time></trkpt><trkpt lat="-19.96500147813791" lon="120.29871716653497"><ele>18.5</ele><time>2026-04-24T01:42:47.999Z</time></trkpt><trkpt lat="-19.964936785585056" lon="120.29900338565487"><ele>18.0</ele><time>2026-04-24T01:42:48.999Z</time></trkpt><trkpt lat="-19.964870846502688" lon="120.29928608033919"><ele>18.0</ele><time>2026-04-24T01:42:49.999Z</time></trkpt><trkpt lat="-19.964802531292246" lon="120.29957046574008"><ele>18.0</ele><time>2026-04-24T01:42:50.999Z</time></trkpt><trkpt lat="-19.96473649376582" lon="120.29985647838733"><ele>18.5</ele><time>2026-04-24T01:42:51.999Z</time></trkpt><trkpt lat="-19.964671754931512" lon="120.30014514529365"><ele>19.0</ele><time>2026-04-24T01:42:52.999Z</time></trkpt><trkpt lat="-19.964610567575292" lon="120.30043203284697"><ele>19.5</ele><time>2026-04-24T01:42:53.999Z</time></trkpt><trkpt lat="-19.964550155165192" lon="120.30071932655976"><ele>20.0</ele><time>2026-04-24T01:42:54.999Z</time></trkpt><trkpt lat="-19.964490527288614" lon="120.30100615518846"><ele>20.0</ele><time>2026-04-24T01:42:55.999Z</time></trkpt><trkpt lat="-19.964429294987564" lon="120.30129173258501"><ele>20.0</ele><time>2026-04-24T01:42:56.999Z</time></trkpt><trkpt lat="-19.96436640007533" lon="120.30157586686066"><ele>21.5</ele><time>2026-04-24T01:42:57.999Z</time></trkpt><trkpt lat="-19.964301935970973" lon="120.30185804380933"><ele>23.0</ele><time>2026-04-24T01:42:58.999Z</time></trkpt><trkpt lat="-19.964238469140597" lon="120.30214056131115"><ele>23.0</ele><time>2026-04-24T01:42:59.999Z</time></trkpt><trkpt lat="-19.964175071175667" lon="120.30242349243326"><ele>23.0</ele><time>2026-04-24T01:43:00.999Z</time></trkpt><trkpt lat="-19.964110508696333" lon="120.30270293764275"><ele>23.0</ele><time>2026-04-24T01:43:01.999Z</time></trkpt><trkpt lat="-19.964045095069803" lon="120.30297813688165"><ele>23.0</ele><time>2026-04-24T01:43:03Z</time></trkpt><trkpt lat="-19.9639787779918" lon="120.3032497264968"><ele>23.0</ele><time>2026-04-24T01:43:04Z</time></trkpt><trkpt lat="-19.963916543917712" lon="120.30352204602505"><ele>23.0</ele><time>2026-04-24T01:43:05Z</time></trkpt><trkpt lat="-19.963858362438437" lon="120.30379667132763"><ele>23.0</ele><time>2026-04-24T01:43:06Z</time></trkpt><trkpt lat="-19.96380200224341" lon="120.30406956722807"><ele>23.0</ele><time>2026-04-24T01:43:07Z</time></trkpt><trkpt lat="-19.963745463294625" lon="120.30433991707334"><ele>23.0</ele><time>2026-04-24T01:43:08Z</time></trkpt><trkpt lat="-19.963688357477924" lon="120.30460749281002"><ele>23.0</ele><time>2026-04-24T01:43:09Z</time></trkpt><trkpt lat="-19.963629037145132" lon="120.30487167345419"><ele>23.0</ele><time>2026-04-24T01:43:10Z</time></trkpt><trkpt lat="-19.96356926370775" lon="120.30512821014221"><ele>23.0</ele><time>2026-04-24T01:43:11Z</time></trkpt><trkpt lat="-19.96350831329073" lon="120.30538971890371"><ele>24.0</ele><time>2026-04-24T01:43:12Z</time></trkpt><trkpt lat="-19.963446909656348" lon="120.30564636419207"><ele>25.0</ele><time>2026-04-24T01:43:13Z</time></trkpt><trkpt lat="-19.96338638380118" lon="120.30590130780136"><ele>24.5</ele><time>2026-04-24T01:43:14Z</time></trkpt><trkpt lat="-19.963326829871328" lon="120.30616059470603"><ele>24.0</ele><time>2026-04-24T01:43:15Z</time></trkpt><trkpt lat="-19.963268499203657" lon="120.30642125348099"><ele>25.0</ele><time>2026-04-24T01:43:16Z</time></trkpt><trkpt lat="-19.963211382126055" lon="120.30668265841503"><ele>26.0</ele><time>2026-04-24T01:43:17Z</time></trkpt><trkpt lat="-19.963155345538667" lon="120.30694502608799"><ele>26.0</ele><time>2026-04-24T01:43:18Z</time></trkpt><trkpt lat="-19.96309635250301" lon="120.30721009694487"><ele>26.0</ele><time>2026-04-24T01:43:19Z</time></trkpt><trkpt lat="-19.963035560084595" lon="120.30747130430056"><ele>27.0</ele><time>2026-04-24T01:43:20Z</time></trkpt><trkpt lat="-19.96297571100771" lon="120.30773226982646"><ele>28.0</ele><time>2026-04-24T01:43:21Z</time></trkpt><trkpt lat="-19.962918274925133" lon="120.30799311909558"><ele>28.0</ele><time>2026-04-24T01:43:22Z</time></trkpt><trkpt lat="-19.962861172358192" lon="120.30825792953158"><ele>28.0</ele><time>2026-04-24T01:43:23Z</time></trkpt><trkpt lat="-19.96280089726679" lon="120.30852317934945"><ele>28.0</ele><time>2026-04-24T01:43:24Z</time></trkpt><trkpt lat="-19.962741680251984" lon="120.3087898896318"><ele>28.0</ele><time>2026-04-24T01:43:25Z</time></trkpt><trkpt lat="-19.96268100860331" lon="120.30905749814085"><ele>29.0</ele><time>2026-04-24T01:43:26Z</time></trkpt><trkpt lat="-19.962620246378858" lon="120.30932467739268"><ele>30.0</ele><time>2026-04-24T01:43:27Z</time></trkpt><trkpt lat="-19.96255933000038" lon="120.30959473538736"><ele>30.0</ele><time>2026-04-24T01:43:28Z</time></trkpt><trkpt lat="-19.962498269218237" lon="120.30986138334401"><ele>30.0</ele><time>2026-04-24T01:43:29Z</time></trkpt><trkpt lat="-19.962437047841572" lon="120.31013140679822"><ele>30.0</ele><time>2026-04-24T01:43:30Z</time></trkpt><trkpt lat="-19.962377216578975" lon="120.31040160358539"><ele>30.0</ele><time>2026-04-24T01:43:31Z</time></trkpt><trkpt lat="-19.962315952689362" lon="120.31067250650662"><ele>31.5</ele><time>2026-04-24T01:43:32Z</time></trkpt><trkpt lat="-19.962254523261276" lon="120.31094677532569"><ele>33.0</ele><time>2026-04-24T01:43:33Z</time></trkpt><trkpt lat="-19.96219174217458" lon="120.3112287241039"><ele>33.5</ele><time>2026-04-24T01:43:34Z</time></trkpt><trkpt lat="-19.962130366975515" lon="120.31150912410787"><ele>34.0</ele><time>2026-04-24T01:43:35Z</time></trkpt><trkpt lat="-19.96206682582631" lon="120.31179228488769"><ele>34.0</ele><time>2026-04-24T01:43:36Z</time></trkpt><trkpt lat="-19.96200348209536" lon="120.31207649850161"><ele>34.0</ele><time>2026-04-24T01:43:37Z</time></trkpt><trkpt lat="-19.96194273357676" lon="120.31236289479955"><ele>34.5</ele><time>2026-04-24T01:43:38Z</time></trkpt><trkpt lat="-19.96188622986264" lon="120.31265400959259"><ele>35.0</ele><time>2026-04-24T01:43:39Z</time></trkpt><trkpt lat="-19.961836172661783" lon="120.31294593709114"><ele>35.0</ele><time>2026-04-24T01:43:40Z</time></trkpt><trkpt lat="-19.96179395285034" lon="120.31323999376953"><ele>35.0</ele><time>2026-04-24T01:43:41Z</time></trkpt><trkpt lat="-19.96175846860351" lon="120.31353844739704"><ele>35.0</ele><time>2026-04-24T01:43:42Z</time></trkpt><trkpt lat="-19.961727161892192" lon="120.31383400515116"><ele>35.0</ele><time>2026-04-24T01:43:43Z</time></trkpt><trkpt lat="-19.961698705565745" lon="120.31412990435456"><ele>34.5</ele><time>2026-04-24T01:43:44Z</time></trkpt><trkpt lat="-19.961676608977022" lon="120.31441791383772"><ele>34.0</ele><time>2026-04-24T01:43:45Z</time></trkpt><trkpt lat="-19.961655220276572" lon="120.3147055622081"><ele>33.5</ele><time>2026-04-24T01:43:46Z</time></trkpt><trkpt lat="-19.96164020469032" lon="120.31498651265605"><ele>33.0</ele><time>2026-04-24T01:43:47Z</time></trkpt><trkpt lat="-19.961629712792593" lon="120.31526622838945"><ele>33.0</ele><time>2026-04-24T01:43:48Z</time></trkpt><trkpt lat="-19.96162224382393" lon="120.31554468581702"><ele>33.0</ele><time>2026-04-24T01:43:49Z</time></trkpt><trkpt lat="-19.96161947155008" lon="120.31582393968785"><ele>34.0</ele><time>2026-04-24T01:43:50Z</time></trkpt><trkpt lat="-19.96162308696879" lon="120.31610540412956"><ele>35.0</ele><time>2026-04-24T01:43:51Z</time></trkpt><trkpt lat="-19.961631741458085" lon="120.31638513778786"><ele>35.5</ele><time>2026-04-24T01:43:52Z</time></trkpt><trkpt lat="-19.961644017354306" lon="120.3166664626291"><ele>36.0</ele><time>2026-04-24T01:43:53Z</time></trkpt><trkpt lat="-19.961657148084555" lon="120.31695063211677"><ele>36.0</ele><time>2026-04-24T01:43:54Z</time></trkpt><trkpt lat="-19.96167122166181" lon="120.31723275699763"><ele>36.0</ele><time>2026-04-24T01:43:55Z</time></trkpt><trkpt lat="-19.961689129432045" lon="120.31751469498602"><ele>36.0</ele><time>2026-04-24T01:43:56Z</time></trkpt><trkpt lat="-19.961704902068366" lon="120.31779592798965"><ele>36.0</ele><time>2026-04-24T01:43:57Z</time></trkpt><trkpt lat="-19.961719276536506" lon="120.3180774418339"><ele>36.0</ele><time>2026-04-24T01:43:58Z</time></trkpt><trkpt lat="-19.961730754962936" lon="120.31835746181996"><ele>36.0</ele><time>2026-04-24T01:43:59Z</time></trkpt><trkpt lat="-19.961742239618996" lon="120.31863595935526"><ele>36.5</ele><time>2026-04-24T01:44:00Z</time></trkpt><trkpt lat="-19.9617560125126" lon="120.31891576331904"><ele>37.0</ele><time>2026-04-24T01:44:01Z</time></trkpt><trkpt lat="-19.961771146993648" lon="120.31919239328565"><ele>37.0</ele><time>2026-04-24T01:44:02Z</time></trkpt><trkpt lat="-19.9617866993078" lon="120.31946482860181"><ele>37.0</ele><time>2026-04-24T01:44:03Z</time></trkpt><trkpt lat="-19.961802317975444" lon="120.3197367844569"><ele>36.0</ele><time>2026-04-24T01:44:04Z</time></trkpt><trkpt lat="-19.961819583480796" lon="120.32000737106686"><ele>35.0</ele><time>2026-04-24T01:44:05Z</time></trkpt><trkpt lat="-19.96183520767311" lon="120.32027674905287"><ele>35.0</ele><time>2026-04-24T01:44:06Z</time></trkpt><trkpt lat="-19.96184973708898" lon="120.32054782534162"><ele>35.0</ele><time>2026-04-24T01:44:07Z</time></trkpt><trkpt lat="-19.961864845188153" lon="120.32081904098554"><ele>34.5</ele><time>2026-04-24T01:44:08Z</time></trkpt><trkpt lat="-19.961877591765347" lon="120.32109281484865"><ele>34.0</ele><time>2026-04-24T01:44:09Z</time></trkpt><trkpt lat="-19.96188707453225" lon="120.32137041021096"><ele>33.5</ele><time>2026-04-24T01:44:10Z</time></trkpt><trkpt lat="-19.9618994040147" lon="120.32165033566119"><ele>33.0</ele><time>2026-04-24T01:44:11Z</time></trkpt><trkpt lat="-19.961915481414156" lon="120.32193162905338"><ele>33.0</ele><time>2026-04-24T01:44:12Z</time></trkpt><trkpt lat="-19.96193194938384" lon="120.32221516474539"><ele>33.0</ele><time>2026-04-24T01:44:13Z</time></trkpt><trkpt lat="-19.961945178909424" lon="120.32249894774031"><ele>32.5</ele><time>2026-04-24T01:44:14Z</time></trkpt><trkpt lat="-19.961956274495904" lon="120.32278166682113"><ele>32.0</ele><time>2026-04-24T01:44:15Z</time></trkpt><trkpt lat="-19.96196793708249" lon="120.32305172098381"><ele>32.0</ele><time>2026-04-24T01:44:16Z</time></trkpt><trkpt lat="-19.9619813469363" lon="120.32330823308264"><ele>32.0</ele><time>2026-04-24T01:44:17Z</time></trkpt><trkpt lat="-19.961997244397764" lon="120.32356959814184"><ele>32.0</ele><time>2026-04-24T01:44:18Z</time></trkpt><trkpt lat="-19.962015353815023" lon="120.32384415853201"><ele>32.0</ele><time>2026-04-24T01:44:19Z</time></trkpt><trkpt lat="-19.962032230953007" lon="120.324121742386"><ele>31.0</ele><time>2026-04-24T01:44:20Z</time></trkpt><trkpt lat="-19.96204825827556" lon="120.32439789176807"><ele>30.0</ele><time>2026-04-24T01:44:21Z</time></trkpt><trkpt lat="-19.96206044973968" lon="120.32467466000278"><ele>29.0</ele><time>2026-04-24T01:44:22Z</time></trkpt><trkpt lat="-19.962071881245617" lon="120.3249570687565"><ele>28.0</ele><time>2026-04-24T01:44:23Z</time></trkpt><trkpt lat="-19.96208110394854" lon="120.32524190383002"><ele>28.0</ele><time>2026-04-24T01:44:24Z</time></trkpt><trkpt lat="-19.96209207041352" lon="120.32552752781228"><ele>28.0</ele><time>2026-04-24T01:44:25Z</time></trkpt><trkpt lat="-19.962108501155004" lon="120.32580950105218"><ele>27.5</ele><time>2026-04-24T01:44:26Z</time></trkpt><trkpt lat="-19.962127126028456" lon="120.32609429559797"><ele>27.0</ele><time>2026-04-24T01:44:27Z</time></trkpt><trkpt lat="-19.962144220267188" lon="120.3263848670116"><ele>26.5</ele><time>2026-04-24T01:44:28Z</time></trkpt><trkpt lat="-19.962159414987575" lon="120.32667125586785"><ele>26.0</ele><time>2026-04-24T01:44:29Z</time></trkpt><trkpt lat="-19.962172674158488" lon="120.32695883086704"><ele>25.5</ele><time>2026-04-24T01:44:30Z</time></trkpt><trkpt lat="-19.96218517284731" lon="120.32724425781787"><ele>25.0</ele><time>2026-04-24T01:44:31Z</time></trkpt><trkpt lat="-19.96219722490134" lon="120.32753046376648"><ele>25.0</ele><time>2026-04-24T01:44:32Z</time></trkpt><trkpt lat="-19.962209890023697" lon="120.32781518063709"><ele>25.0</ele><time>2026-04-24T01:44:33Z</time></trkpt><trkpt lat="-19.962223633019487" lon="120.32809939649215"><ele>25.0</ele><time>2026-04-24T01:44:34Z</time></trkpt><trkpt lat="-19.962235559127134" lon="120.32838196459758"><ele>25.0</ele><time>2026-04-24T01:44:35Z</time></trkpt><trkpt lat="-19.96224934435511" lon="120.32866067085826"><ele>25.5</ele><time>2026-04-24T01:44:36Z</time></trkpt><trkpt lat="-19.9622638835681" lon="120.32893767778778"><ele>26.0</ele><time>2026-04-24T01:44:37Z</time></trkpt><trkpt lat="-19.96227816480706" lon="120.32921119550691"><ele>26.0</ele><time>2026-04-24T01:44:38Z</time></trkpt><trkpt lat="-19.96229306053421" lon="120.32948988726528"><ele>26.0</ele><time>2026-04-24T01:44:39Z</time></trkpt><trkpt lat="-19.962309628115175" lon="120.3297734944034"><ele>26.5</ele><time>2026-04-24T01:44:40Z</time></trkpt><trkpt lat="-19.962323294999344" lon="120.33006139487014"><ele>27.0</ele><time>2026-04-24T01:44:41Z</time></trkpt><trkpt lat="-19.962335074553824" lon="120.33035283559735"><ele>27.0</ele><time>2026-04-24T01:44:42Z</time></trkpt><trkpt lat="-19.962349334563008" lon="120.33064521154581"><ele>27.0</ele><time>2026-04-24T01:44:43Z</time></trkpt><trkpt lat="-19.962362010363655" lon="120.33093698666063"><ele>27.0</ele><time>2026-04-24T01:44:44Z</time></trkpt><trkpt lat="-19.962375076023758" lon="120.33122804921811"><ele>27.0</ele><time>2026-04-24T01:44:44.999Z</time></trkpt><trkpt lat="-19.96238946309032" lon="120.33152278960584"><ele>26.5</ele><time>2026-04-24T01:44:45.999Z</time></trkpt><trkpt lat="-19.962406957165904" lon="120.33181220676637"><ele>26.0</ele><time>2026-04-24T01:44:46.999Z</time></trkpt><trkpt lat="-19.962422583902306" lon="120.33210507738472"><ele>28.0</ele><time>2026-04-24T01:44:47.999Z</time></trkpt><trkpt lat="-19.962439244488085" lon="120.33239983431747"><ele>30.0</ele><time>2026-04-24T01:44:48.999Z</time></trkpt><trkpt lat="-19.96245394752304" lon="120.33269742846619"><ele>30.0</ele><time>2026-04-24T01:44:49.999Z</time></trkpt><trkpt lat="-19.962467705731605" lon="120.3329888697967"><ele>30.0</ele><time>2026-04-24T01:44:50.999Z</time></trkpt><trkpt lat="-19.962480845359963" lon="120.33328248428342"><ele>31.0</ele><time>2026-04-24T01:44:51.999Z</time></trkpt><trkpt lat="-19.962496039440417" lon="120.33357865392443"><ele>32.0</ele><time>2026-04-24T01:44:52.999Z</time></trkpt><trkpt lat="-19.962513940528964" lon="120.33387145832161"><ele>32.5</ele><time>2026-04-24T01:44:53.999Z</time></trkpt><trkpt lat="-19.962529308326406" lon="120.33416805989953"><ele>33.0</ele><time>2026-04-24T01:44:54.999Z</time></trkpt><trkpt lat="-19.962544037118157" lon="120.33446222084764"><ele>33.5</ele><time>2026-04-24T01:44:55.999Z</time></trkpt><trkpt lat="-19.962557944883848" lon="120.33476376953101"><ele>34.0</ele><time>2026-04-24T01:44:56.999Z</time></trkpt><trkpt lat="-19.962571791276467" lon="120.3350630310952"><ele>34.0</ele><time>2026-04-24T01:44:57.999Z</time></trkpt><trkpt lat="-19.962585463546898" lon="120.33536094065589"><ele>34.0</ele><time>2026-04-24T01:44:58.999Z</time></trkpt><trkpt lat="-19.96259922032164" lon="120.33565920442852"><ele>34.5</ele><time>2026-04-24T01:45:00Z</time></trkpt><trkpt lat="-19.962612946347527" lon="120.33595406721976"><ele>35.0</ele><time>2026-04-24T01:45:01Z</time></trkpt><trkpt lat="-19.962628288251896" lon="120.33624698505905"><ele>35.5</ele><time>2026-04-24T01:45:02Z</time></trkpt><trkpt lat="-19.96264404573147" lon="120.3365338603746"><ele>36.0</ele><time>2026-04-24T01:45:03Z</time></trkpt><trkpt lat="-19.962658171558623" lon="120.33681411930328"><ele>36.0</ele><time>2026-04-24T01:45:04Z</time></trkpt><trkpt lat="-19.962673389711867" lon="120.33708883531283"><ele>36.0</ele><time>2026-04-24T01:45:05Z</time></trkpt><trkpt lat="-19.9626868840074" lon="120.33735853711774"><ele>37.0</ele><time>2026-04-24T01:45:06Z</time></trkpt><trkpt lat="-19.96269868188788" lon="120.33762721397584"><ele>38.0</ele><time>2026-04-24T01:45:07Z</time></trkpt><trkpt lat="-19.962709956978976" lon="120.33789044634436"><ele>39.5</ele><time>2026-04-24T01:45:08Z</time></trkpt><trkpt lat="-19.962723838114677" lon="120.3381500813947"><ele>41.0</ele><time>2026-04-24T01:45:09Z</time></trkpt><trkpt lat="-19.962738227056136" lon="120.33840018560272"><ele>41.0</ele><time>2026-04-24T01:45:10Z</time></trkpt><trkpt lat="-19.962750216004412" lon="120.33863055142093"><ele>41.0</ele><time>2026-04-24T01:45:11Z</time></trkpt><trkpt lat="-19.96275628989226" lon="120.33883520365157"><ele>41.0</ele><time>2026-04-24T01:45:12Z</time></trkpt><trkpt lat="-19.962753879160232" lon="120.33902266838176"><ele>41.4</ele><time>2026-04-24T01:45:13Z</time></trkpt><trkpt lat="-19.962748120736922" lon="120.33917621668088"><ele>41.8</ele><time>2026-04-24T01:45:14Z</time></trkpt><trkpt lat="-19.96274447061607" lon="120.33929723691597"><ele>42.199999999999996</ele><time>2026-04-24T01:45:15Z</time></trkpt><trkpt lat="-19.96273546841179" lon="120.33939007347244"><ele>42.599999999999994</ele><time>2026-04-24T01:45:16Z</time></trkpt><trkpt lat="-19.962729878619243" lon="120.33948332177962"><ele>43.0</ele><time>2026-04-24T01:45:18Z</time></trkpt><trkpt lat="-19.962750732537586" lon="120.33956480330743"><ele>43.0</ele><time>2026-04-24T01:45:21Z</time></trkpt><trkpt lat="-19.962789536058526" lon="120.33969317702191"><ele>43.0</ele><time>2026-04-24T01:45:23Z</time></trkpt><trkpt lat="-19.962808861092487" lon="120.33978856774178"><ele>43.0</ele><time>2026-04-24T01:45:24Z</time></trkpt><trkpt lat="-19.962818349296715" lon="120.33990566670167"><ele>43.0</ele><time>2026-04-24T01:45:25Z</time></trkpt><trkpt lat="-19.962818086744626" lon="120.34003137960606"><ele>43.0</ele><time>2026-04-24T01:45:26Z</time></trkpt><trkpt lat="-19.962816053541115" lon="120.34016580402373"><ele>43.333333333333336</ele><time>2026-04-24T01:45:27Z</time></trkpt><trkpt lat="-19.962822492547126" lon="120.34031626178364"><ele>43.666666666666664</ele><time>2026-04-24T01:45:28Z</time></trkpt><trkpt lat="-19.96283284480757" lon="120.3404837420792"><ele>44.0</ele><time>2026-04-24T01:45:29Z</time></trkpt><trkpt lat="-19.962845735005708" lon="120.34066623844078"><ele>43.33333333333333</ele><time>2026-04-24T01:45:30Z</time></trkpt><trkpt lat="-19.962856895470008" lon="120.34084970769206"><ele>42.666666666666664</ele><time>2026-04-24T01:45:31Z</time></trkpt><trkpt lat="-19.96286881214426" lon="120.34104136805311"><ele>42.0</ele><time>2026-04-24T01:45:32Z</time></trkpt><trkpt lat="-19.962881154389827" lon="120.34124207017553"><ele>42.0</ele><time>2026-04-24T01:45:33Z</time></trkpt><trkpt lat="-19.962893790863333" lon="120.34144823571968"><ele>42.0</ele><time>2026-04-24T01:45:34Z</time></trkpt><trkpt lat="-19.9629025381334" lon="120.34166080472961"><ele>42.0</ele><time>2026-04-24T01:45:35Z</time></trkpt><trkpt lat="-19.962911019098943" lon="120.3418807870166"><ele>42.0</ele><time>2026-04-24T01:45:36Z</time></trkpt><trkpt lat="-19.962915814775755" lon="120.34209881604414"><ele>42.0</ele><time>2026-04-24T01:45:37Z</time></trkpt><trkpt lat="-19.962922034363263" lon="120.34232224590373"><ele>42.0</ele><time>2026-04-24T01:45:38Z</time></trkpt><trkpt lat="-19.962929680284507" lon="120.34255292089631"><ele>42.333333333333336</ele><time>2026-04-24T01:45:39Z</time></trkpt><trkpt lat="-19.962934257801205" lon="120.34278871322061"><ele>42.66666666666667</ele><time>2026-04-24T01:45:40Z</time></trkpt><trkpt lat="-19.962927661920496" lon="120.34302955169517"><ele>43.0</ele><time>2026-04-24T01:45:41Z</time></trkpt><trkpt lat="-19.96291470390182" lon="120.34327511643339"><ele>43.5</ele><time>2026-04-24T01:45:42Z</time></trkpt><trkpt lat="-19.962893124672927" lon="120.34352199065926"><ele>44.0</ele><time>2026-04-24T01:45:43Z</time></trkpt><trkpt lat="-19.962866134853353" lon="120.34377021079487"><ele>44.0</ele><time>2026-04-24T01:45:44Z</time></trkpt><trkpt lat="-19.962836038595846" lon="120.34401989423061"><ele>44.0</ele><time>2026-04-24T01:45:45Z</time></trkpt><trkpt lat="-19.96280470907589" lon="120.34426877949277"><ele>44.0</ele><time>2026-04-24T01:45:46Z</time></trkpt><trkpt lat="-19.962764024368205" lon="120.34452117810791"><ele>44.0</ele><time>2026-04-24T01:45:47Z</time></trkpt><trkpt lat="-19.962716499598045" lon="120.34477081311661"><ele>44.5</ele><time>2026-04-24T01:45:48Z</time></trkpt><trkpt lat="-19.962660889762883" lon="120.34502242197004"><ele>45.0</ele><time>2026-04-24T01:45:49Z</time></trkpt><trkpt lat="-19.96259812577444" lon="120.34527426272642"><ele>45.0</ele><time>2026-04-24T01:45:50Z</time></trkpt><trkpt lat="-19.962527359734132" lon="120.34553032955358"><ele>45.0</ele><time>2026-04-24T01:45:51Z</time></trkpt><trkpt lat="-19.962453013715127" lon="120.34578643865248"><ele>44.0</ele><time>2026-04-24T01:45:52Z</time></trkpt><trkpt lat="-19.962374819534677" lon="120.34604125738487"><ele>43.0</ele><time>2026-04-24T01:45:53Z</time></trkpt><trkpt lat="-19.962289066976158" lon="120.3462887937033"><ele>42.0</ele><time>2026-04-24T01:45:54Z</time></trkpt><trkpt lat="-19.962195373207322" lon="120.34653836640918"><ele>41.0</ele><time>2026-04-24T01:45:55Z</time></trkpt><trkpt lat="-19.96209938030672" lon="120.34679147272747"><ele>41.0</ele><time>2026-04-24T01:45:56Z</time></trkpt><trkpt lat="-19.961996969102564" lon="120.3470442718521"><ele>41.0</ele><time>2026-04-24T01:45:57Z</time></trkpt><trkpt lat="-19.961886579623375" lon="120.34729894766113"><ele>39.5</ele><time>2026-04-24T01:45:58Z</time></trkpt><trkpt lat="-19.961778459216482" lon="120.34754951215754"><ele>38.0</ele><time>2026-04-24T01:45:59Z</time></trkpt><trkpt lat="-19.96167150977217" lon="120.34780125890757"><ele>36.5</ele><time>2026-04-24T01:46:00Z</time></trkpt><trkpt lat="-19.961565715584726" lon="120.34805613901086"><ele>35.0</ele><time>2026-04-24T01:46:01Z</time></trkpt><trkpt lat="-19.961460165991824" lon="120.34830884994125"><ele>35.0</ele><time>2026-04-24T01:46:02Z</time></trkpt><trkpt lat="-19.961357734658716" lon="120.34856233541116"><ele>35.0</ele><time>2026-04-24T01:46:03Z</time></trkpt><trkpt lat="-19.9612555373543" lon="120.34881472257797"><ele>34.5</ele><time>2026-04-24T01:46:04Z</time></trkpt><trkpt lat="-19.961154593825096" lon="120.34906535566058"><ele>34.0</ele><time>2026-04-24T01:46:05Z</time></trkpt><trkpt lat="-19.961051915874382" lon="120.34931665626539"><ele>34.0</ele><time>2026-04-24T01:46:06Z</time></trkpt><trkpt lat="-19.960947288140957" lon="120.34956859153237"><ele>34.0</ele><time>2026-04-24T01:46:07Z</time></trkpt><trkpt lat="-19.96084271423817" lon="120.34981838047881"><ele>33.5</ele><time>2026-04-24T01:46:08Z</time></trkpt><trkpt lat="-19.960738296618324" lon="120.35007107005943"><ele>33.0</ele><time>2026-04-24T01:46:09Z</time></trkpt><trkpt lat="-19.960634080103578" lon="120.35032435715073"><ele>32.0</ele><time>2026-04-24T01:46:10Z</time></trkpt><trkpt lat="-19.960531267489593" lon="120.35058115877904"><ele>31.0</ele><time>2026-04-24T01:46:11Z</time></trkpt><trkpt lat="-19.960427334191493" lon="120.3508387263076"><ele>31.0</ele><time>2026-04-24T01:46:12Z</time></trkpt><trkpt lat="-19.96032224955832" lon="120.35109701954264"><ele>31.0</ele><time>2026-04-24T01:46:13Z</time></trkpt><trkpt lat="-19.960216928771242" lon="120.35135397841213"><ele>31.5</ele><time>2026-04-24T01:46:14Z</time></trkpt><trkpt lat="-19.960107901227243" lon="120.35161461310148"><ele>32.0</ele><time>2026-04-24T01:46:15Z</time></trkpt><trkpt lat="-19.9599974301717" lon="120.35188139410971"><ele>32.5</ele><time>2026-04-24T01:46:16Z</time></trkpt><trkpt lat="-19.959888653394795" lon="120.35214843513671"><ele>33.0</ele><time>2026-04-24T01:46:17Z</time></trkpt><trkpt lat="-19.95977887206129" lon="120.35241702000349"><ele>33.5</ele><time>2026-04-24T01:46:18Z</time></trkpt><trkpt lat="-19.959667845370834" lon="120.35268570740496"><ele>34.0</ele><time>2026-04-24T01:46:19Z</time></trkpt><trkpt lat="-19.95955940901391" lon="120.35295552820723"><ele>34.0</ele><time>2026-04-24T01:46:20Z</time></trkpt><trkpt lat="-19.959450648168158" lon="120.35323124149572"><ele>34.0</ele><time>2026-04-24T01:46:21Z</time></trkpt><trkpt lat="-19.9593412225277" lon="120.3535029280958"><ele>34.0</ele><time>2026-04-24T01:46:22Z</time></trkpt><trkpt lat="-19.959231793409074" lon="120.35376976567153"><ele>34.0</ele><time>2026-04-24T01:46:23Z</time></trkpt><trkpt lat="-19.959120652487186" lon="120.35403387212874"><ele>34.5</ele><time>2026-04-24T01:46:24Z</time></trkpt><trkpt lat="-19.959011918274648" lon="120.35429846718004"><ele>35.0</ele><time>2026-04-24T01:46:25Z</time></trkpt><trkpt lat="-19.95890392199602" lon="120.35456461215622"><ele>35.5</ele><time>2026-04-24T01:46:26Z</time></trkpt><trkpt lat="-19.958795979273066" lon="120.35483186545027"><ele>36.0</ele><time>2026-04-24T01:46:27Z</time></trkpt><trkpt lat="-19.95868849307809" lon="120.3551003883016"><ele>36.0</ele><time>2026-04-24T01:46:28Z</time></trkpt><trkpt lat="-19.958582544593394" lon="120.35536627499859"><ele>36.0</ele><time>2026-04-24T01:46:29Z</time></trkpt><trkpt lat="-19.958474980864448" lon="120.35562873365795"><ele>35.5</ele><time>2026-04-24T01:46:30Z</time></trkpt><trkpt lat="-19.958368157148787" lon="120.35588894361459"><ele>35.0</ele><time>2026-04-24T01:46:31Z</time></trkpt><trkpt lat="-19.958262800282977" lon="120.35615087523418"><ele>35.0</ele><time>2026-04-24T01:46:32Z</time></trkpt><trkpt lat="-19.958155657272275" lon="120.35641205124793"><ele>35.0</ele><time>2026-04-24T01:46:33Z</time></trkpt><trkpt lat="-19.95804687007847" lon="120.35667441845469"><ele>35.0</ele><time>2026-04-24T01:46:34Z</time></trkpt><trkpt lat="-19.95793983245046" lon="120.35693409305733"><ele>35.0</ele><time>2026-04-24T01:46:35Z</time></trkpt><trkpt lat="-19.95783238798958" lon="120.35719409449432"><ele>36.0</ele><time>2026-04-24T01:46:36Z</time></trkpt><trkpt lat="-19.957726809756117" lon="120.35745354876313"><ele>37.0</ele><time>2026-04-24T01:46:37Z</time></trkpt><trkpt lat="-19.957620203623296" lon="120.35771163694793"><ele>36.5</ele><time>2026-04-24T01:46:38Z</time></trkpt><trkpt lat="-19.957514752777833" lon="120.35796682133076"><ele>36.0</ele><time>2026-04-24T01:46:39Z</time></trkpt><trkpt lat="-19.957410295040834" lon="120.35822373436164"><ele>36.0</ele><time>2026-04-24T01:46:40Z</time></trkpt><trkpt lat="-19.957306877799372" lon="120.35847749924673"><ele>36.0</ele><time>2026-04-24T01:46:41Z</time></trkpt><trkpt lat="-19.957201751248327" lon="120.35873250658497"><ele>35.5</ele><time>2026-04-24T01:46:42Z</time></trkpt><trkpt lat="-19.957095809380217" lon="120.35898796016153"><ele>35.0</ele><time>2026-04-24T01:46:43Z</time></trkpt><trkpt lat="-19.956991688704665" lon="120.35924130132139"><ele>35.0</ele><time>2026-04-24T01:46:44Z</time></trkpt><trkpt lat="-19.95688787735118" lon="120.35949481865279"><ele>35.0</ele><time>2026-04-24T01:46:45.001Z</time></trkpt><trkpt lat="-19.95678258193194" lon="120.3597517804657"><ele>36.5</ele><time>2026-04-24T01:46:46.001Z</time></trkpt><trkpt lat="-19.95667692450243" lon="120.36000597303416"><ele>38.0</ele><time>2026-04-24T01:46:47.001Z</time></trkpt><trkpt lat="-19.956569886858972" lon="120.3602647203422"><ele>38.0</ele><time>2026-04-24T01:46:48.001Z</time></trkpt><trkpt lat="-19.956463568461945" lon="120.36052231025407"><ele>38.0</ele><time>2026-04-24T01:46:49.001Z</time></trkpt><trkpt lat="-19.956359006754102" lon="120.36077778697587"><ele>38.0</ele><time>2026-04-24T01:46:50.001Z</time></trkpt><trkpt lat="-19.956255067939896" lon="120.36103219950513"><ele>38.0</ele><time>2026-04-24T01:46:51Z</time></trkpt><trkpt lat="-19.956150620589494" lon="120.36128882351362"><ele>39.0</ele><time>2026-04-24T01:46:52Z</time></trkpt><trkpt lat="-19.956046210014144" lon="120.36154324749752"><ele>40.0</ele><time>2026-04-24T01:46:53Z</time></trkpt><trkpt lat="-19.95594270573122" lon="120.3617978461138"><ele>40.0</ele><time>2026-04-24T01:46:54Z</time></trkpt><trkpt lat="-19.955838881236865" lon="120.36205446770064"><ele>40.0</ele><time>2026-04-24T01:46:55Z</time></trkpt><trkpt lat="-19.95573452171243" lon="120.36230992643873"><ele>40.5</ele><time>2026-04-24T01:46:56Z</time></trkpt><trkpt lat="-19.955631181533704" lon="120.36256059689275"><ele>41.0</ele><time>2026-04-24T01:46:57Z</time></trkpt><trkpt lat="-19.955529137832443" lon="120.36280903394332"><ele>42.0</ele><time>2026-04-24T01:46:58Z</time></trkpt><trkpt lat="-19.955429633201895" lon="120.36305189816508"><ele>43.0</ele><time>2026-04-24T01:46:59Z</time></trkpt><trkpt lat="-19.955332052998507" lon="120.36328877028863"><ele>43.0</ele><time>2026-04-24T01:47:00Z</time></trkpt><trkpt lat="-19.955236106168126" lon="120.36351908597524"><ele>43.0</ele><time>2026-04-24T01:47:01Z</time></trkpt><trkpt lat="-19.955139885488666" lon="120.36375390327748"><ele>43.5</ele><time>2026-04-24T01:47:02Z</time></trkpt><trkpt lat="-19.9550431365731" lon="120.36398622290557"><ele>44.0</ele><time>2026-04-24T01:47:03Z</time></trkpt><trkpt lat="-19.954953395922885" lon="120.36420418896151"><ele>44.33333333333333</ele><time>2026-04-24T01:47:04Z</time></trkpt><trkpt lat="-19.95487499810178" lon="120.36440808509013"><ele>44.666666666666664</ele><time>2026-04-24T01:47:05Z</time></trkpt><trkpt lat="-19.95479575543912" lon="120.36457976061544"><ele>45.0</ele><time>2026-04-24T01:47:06Z</time></trkpt><trkpt lat="-19.95473854476398" lon="120.36471908786694"><ele>45.2</ele><time>2026-04-24T01:47:07Z</time></trkpt><trkpt lat="-19.954692992152186" lon="120.36483055286315"><ele>45.4</ele><time>2026-04-24T01:47:08Z</time></trkpt><trkpt lat="-19.954654184915935" lon="120.36492551230124"><ele>45.599999999999994</ele><time>2026-04-24T01:47:09Z</time></trkpt><trkpt lat="-19.95461424040706" lon="120.36502325454512"><ele>45.8</ele><time>2026-04-24T01:47:10Z</time></trkpt><trkpt lat="-19.954568241879855" lon="120.36513581063686"><ele>46.0</ele><time>2026-04-24T01:47:11Z</time></trkpt><trkpt lat="-19.95451610750446" lon="120.36526338093108"><ele>46.0</ele><time>2026-04-24T01:47:12Z</time></trkpt><trkpt lat="-19.954454395889986" lon="120.3654143862291"><ele>46.0</ele><time>2026-04-24T01:47:13Z</time></trkpt><trkpt lat="-19.954386827183328" lon="120.36557972353103"><ele>46.0</ele><time>2026-04-24T01:47:14Z</time></trkpt><trkpt lat="-19.954321115786446" lon="120.36573865572358"><ele>45.66666666666667</ele><time>2026-04-24T01:47:15Z</time></trkpt><trkpt lat="-19.954261529874138" lon="120.36588188554597"><ele>45.333333333333336</ele><time>2026-04-24T01:47:16Z</time></trkpt><trkpt lat="-19.954198667369752" lon="120.36603301323137"><ele>45.0</ele><time>2026-04-24T01:47:17Z</time></trkpt><trkpt lat="-19.954133348423017" lon="120.36619475537509"><ele>45.0</ele><time>2026-04-24T01:47:18Z</time></trkpt><trkpt lat="-19.95406281911023" lon="120.36636939848586"><ele>45.0</ele><time>2026-04-24T01:47:19Z</time></trkpt><trkpt lat="-19.95398925582736" lon="120.36655155419562"><ele>45.0</ele><time>2026-04-24T01:47:20Z</time></trkpt><trkpt lat="-19.954269809759428" lon="120.36689541072045"><ele>45.0</ele><time>2026-04-24T01:47:21Z</time></trkpt><trkpt lat="-19.954208183280137" lon="120.36708491176186"><ele>45.0</ele><time>2026-04-24T01:47:22Z</time></trkpt><trkpt lat="-19.95414559167872" lon="120.3672598606411"><ele>45.0</ele><time>2026-04-24T01:47:23Z</time></trkpt><trkpt lat="-19.95408407659486" lon="120.3674333329576"><ele>45.0</ele><time>2026-04-24T01:47:24Z</time></trkpt><trkpt lat="-19.9540295856992" lon="120.3675936536679"><ele>45.0</ele><time>2026-04-24T01:47:25Z</time></trkpt><trkpt lat="-19.95397572140733" lon="120.36774654964546"><ele>45.0</ele><time>2026-04-24T01:47:26Z</time></trkpt><trkpt lat="-19.953919839214155" lon="120.36789109855194"><ele>45.333333333333336</ele><time>2026-04-24T01:47:27Z</time></trkpt><trkpt lat="-19.95385580459176" lon="120.3680407400875"><ele>45.66666666666667</ele><time>2026-04-24T01:47:28Z</time></trkpt><trkpt lat="-19.953787996286163" lon="120.36820391834713"><ele>46.0</ele><time>2026-04-24T01:47:29Z</time></trkpt><trkpt lat="-19.953722258911288" lon="120.36837751194517"><ele>46.0</ele><time>2026-04-24T01:47:30Z</time></trkpt><trkpt lat="-19.953662206223488" lon="120.36855602899992"><ele>46.0</ele><time>2026-04-24T01:47:31Z</time></trkpt><trkpt lat="-19.953603253997542" lon="120.36873305399928"><ele>46.0</ele><time>2026-04-24T01:47:32Z</time></trkpt><trkpt lat="-19.953549232348717" lon="120.3688949400375"><ele>45.66666666666667</ele><time>2026-04-24T01:47:33Z</time></trkpt><trkpt lat="-19.95348721432542" lon="120.36904883395403"><ele>45.333333333333336</ele><time>2026-04-24T01:47:34Z</time></trkpt><trkpt lat="-19.953421913016573" lon="120.36921280525216"><ele>45.0</ele><time>2026-04-24T01:47:35Z</time></trkpt><trkpt lat="-19.953359725770305" lon="120.36938245592177"><ele>45.333333333333336</ele><time>2026-04-24T01:47:36Z</time></trkpt><trkpt lat="-19.953299941590785" lon="120.36954887858857"><ele>45.66666666666667</ele><time>2026-04-24T01:47:37Z</time></trkpt><trkpt lat="-19.953241895751827" lon="120.36971218896586"><ele>46.0</ele><time>2026-04-24T01:47:38Z</time></trkpt><trkpt lat="-19.95317338319535" lon="120.36988250830404"><ele>46.0</ele><time>2026-04-24T01:47:39Z</time></trkpt><trkpt lat="-19.9531072704002" lon="120.37005509204407"><ele>46.0</ele><time>2026-04-24T01:47:40Z</time></trkpt><trkpt lat="-19.95303910432263" lon="120.37022773075017"><ele>46.0</ele><time>2026-04-24T01:47:41Z</time></trkpt><trkpt lat="-19.952974175839884" lon="120.37040233473216"><ele>46.333333333333336</ele><time>2026-04-24T01:47:42Z</time></trkpt><trkpt lat="-19.952906951074056" lon="120.37057536699088"><ele>46.666666666666664</ele><time>2026-04-24T01:47:43Z</time></trkpt><trkpt lat="-19.952848646671114" lon="120.37072914434788"><ele>47.0</ele><time>2026-04-24T01:47:44Z</time></trkpt><trkpt lat="-19.952798370308436" lon="120.37084791082512"><ele>47.0</ele><time>2026-04-24T01:47:45Z</time></trkpt><trkpt lat="-19.95274436159573" lon="120.37097081668895"><ele>47.0</ele><time>2026-04-24T01:47:46Z</time></trkpt><trkpt lat="-19.95269677921156" lon="120.37110396631303"><ele>47.0</ele><time>2026-04-24T01:47:47Z</time></trkpt><trkpt lat="-19.95264715374582" lon="120.37125099035504"><ele>47.0</ele><time>2026-04-24T01:47:48Z</time></trkpt><trkpt lat="-19.95259311996944" lon="120.37139509572647"><ele>46.666666666666664</ele><time>2026-04-24T01:47:49Z</time></trkpt><trkpt lat="-19.95252861895682" lon="120.37154921780491"><ele>46.333333333333336</ele><time>2026-04-24T01:47:50Z</time></trkpt><trkpt lat="-19.952470941388942" lon="120.3717043442832"><ele>46.0</ele><time>2026-04-24T01:47:51Z</time></trkpt><trkpt lat="-19.952415422837507" lon="120.37186148960464"><ele>46.0</ele><time>2026-04-24T01:47:52Z</time></trkpt><trkpt lat="-19.95235540687984" lon="120.372015902861"><ele>46.0</ele><time>2026-04-24T01:47:53Z</time></trkpt><trkpt lat="-19.952295511702406" lon="120.37216098178226"><ele>46.0</ele><time>2026-04-24T01:47:54Z</time></trkpt><trkpt lat="-19.95223992068827" lon="120.37228810154906"><ele>46.0</ele><time>2026-04-24T01:47:55Z</time></trkpt><trkpt lat="-19.952190328356995" lon="120.37242322071091"><ele>46.0</ele><time>2026-04-24T01:47:56Z</time></trkpt><trkpt lat="-19.952138218448088" lon="120.37257551599915"><ele>46.0</ele><time>2026-04-24T01:47:57Z</time></trkpt><trkpt lat="-19.952082521648848" lon="120.37272489015507"><ele>46.0</ele><time>2026-04-24T01:47:58Z</time></trkpt><trkpt lat="-19.952022738141363" lon="120.37287524286414"><ele>46.0</ele><time>2026-04-24T01:47:59Z</time></trkpt><trkpt lat="-19.951966944976153" lon="120.37301797859293"><ele>46.0</ele><time>2026-04-24T01:48:00Z</time></trkpt><trkpt lat="-19.9519129988465" lon="120.37314859680839"><ele>46.0</ele><time>2026-04-24T01:48:01Z</time></trkpt><trkpt lat="-19.951860118731485" lon="120.37328764986093"><ele>46.0</ele><time>2026-04-24T01:48:02Z</time></trkpt><trkpt lat="-19.951805712836354" lon="120.37343963536873"><ele>46.0</ele><time>2026-04-24T01:48:03Z</time></trkpt><trkpt lat="-19.951747923002294" lon="120.37358229233237"><ele>46.0</ele><time>2026-04-24T01:48:04Z</time></trkpt><trkpt lat="-19.95169418033805" lon="120.37371314165118"><ele>46.0</ele><time>2026-04-24T01:48:05Z</time></trkpt><trkpt lat="-19.951642378124053" lon="120.37384631875037"><ele>46.0</ele><time>2026-04-24T01:48:06Z</time></trkpt><trkpt lat="-19.951591837079985" lon="120.37397826225317"><ele>46.0</ele><time>2026-04-24T01:48:07Z</time></trkpt><trkpt lat="-19.95154724395499" lon="120.37409970276353"><ele>46.0</ele><time>2026-04-24T01:48:08Z</time></trkpt><trkpt lat="-19.951506082945635" lon="120.37421147280945"><ele>46.0</ele><time>2026-04-24T01:48:09Z</time></trkpt><trkpt lat="-19.951465892796914" lon="120.3743139076963"><ele>46.0</ele><time>2026-04-24T01:48:10Z</time></trkpt><trkpt lat="-19.951426445008266" lon="120.37441256115662"><ele>46.0</ele><time>2026-04-24T01:48:11Z</time></trkpt><trkpt lat="-19.951386611369237" lon="120.374512157332"><ele>46.0</ele><time>2026-04-24T01:48:12Z</time></trkpt><trkpt lat="-19.951338209181937" lon="120.37462623368033"><ele>46.0</ele><time>2026-04-24T01:48:13Z</time></trkpt><trkpt lat="-19.951285549252436" lon="120.37474831773234"><ele>46.0</ele><time>2026-04-24T01:48:14Z</time></trkpt><trkpt lat="-19.95122970304898" lon="120.37487716872162"><ele>46.0</ele><time>2026-04-24T01:48:15Z</time></trkpt><trkpt lat="-19.951167686311383" lon="120.37501456434607"><ele>45.66666666666667</ele><time>2026-04-24T01:48:16Z</time></trkpt><trkpt lat="-19.951100983494776" lon="120.37515066356208"><ele>45.333333333333336</ele><time>2026-04-24T01:48:17Z</time></trkpt><trkpt lat="-19.951029343405157" lon="120.37529112447557"><ele>45.0</ele><time>2026-04-24T01:48:18Z</time></trkpt><trkpt lat="-19.950952589804544" lon="120.37543903126179"><ele>46.0</ele><time>2026-04-24T01:48:19Z</time></trkpt><trkpt lat="-19.950869338759723" lon="120.37559185821107"><ele>47.0</ele><time>2026-04-24T01:48:20Z</time></trkpt><trkpt lat="-19.95078404123728" lon="120.37573838565308"><ele>48.0</ele><time>2026-04-24T01:48:21Z</time></trkpt><trkpt lat="-19.950698070149073" lon="120.3758695589552"><ele>48.0</ele><time>2026-04-24T01:48:22Z</time></trkpt><trkpt lat="-19.950607519254717" lon="120.37599676813674"><ele>48.0</ele><time>2026-04-24T01:48:23Z</time></trkpt><trkpt lat="-19.95051098967009" lon="120.37613394409755"><ele>48.0</ele><time>2026-04-24T01:48:24Z</time></trkpt><trkpt lat="-19.950415306455668" lon="120.37626573102004"><ele>48.0</ele><time>2026-04-24T01:48:25Z</time></trkpt><trkpt lat="-19.95031353438061" lon="120.37640149511653"><ele>48.0</ele><time>2026-04-24T01:48:26Z</time></trkpt><trkpt lat="-19.950215686114095" lon="120.37652461020006"><ele>48.0</ele><time>2026-04-24T01:48:27Z</time></trkpt><trkpt lat="-19.950130739136824" lon="120.37663669622741"><ele>48.0</ele><time>2026-04-24T01:48:28Z</time></trkpt><trkpt lat="-19.950059215530754" lon="120.37672777383226"><ele>48.0</ele><time>2026-04-24T01:48:29.001Z</time></trkpt><trkpt lat="-19.95000236507326" lon="120.37680283049386"><ele>48.0</ele><time>2026-04-24T01:48:30.001Z</time></trkpt><trkpt lat="-19.949957942480726" lon="120.37685635310248"><ele>48.0</ele><time>2026-04-24T01:48:31.001Z</time></trkpt><trkpt lat="-19.949869876914654" lon="120.37690898636458"><ele>48.0</ele><time>2026-04-24T01:48:33.001Z</time></trkpt><trkpt lat="-19.949792243043532" lon="120.37696003923195"><ele>48.0</ele><time>2026-04-24T01:48:35.001Z</time></trkpt><trkpt lat="-19.949673802233967" lon="120.37704919954182"><ele>48.0</ele><time>2026-04-24T01:48:37.001Z</time></trkpt><trkpt lat="-19.949592441479833" lon="120.37711941370287"><ele>48.0</ele><time>2026-04-24T01:48:38.001Z</time></trkpt><trkpt lat="-19.94951585995296" lon="120.37720297312953"><ele>48.0</ele><time>2026-04-24T01:48:39.001Z</time></trkpt><trkpt lat="-19.949430119780768" lon="120.37729999871634"><ele>48.0</ele><time>2026-04-24T01:48:40.001Z</time></trkpt><trkpt lat="-19.94933352944427" lon="120.37740551849444"><ele>48.0</ele><time>2026-04-24T01:48:41.001Z</time></trkpt><trkpt lat="-19.949227395052002" lon="120.37750394091921"><ele>48.0</ele><time>2026-04-24T01:48:42.001Z</time></trkpt><trkpt lat="-19.949104742676756" lon="120.37760449013888"><ele>48.0</ele><time>2026-04-24T01:48:43.001Z</time></trkpt><trkpt lat="-19.94898085979625" lon="120.37770048413307"><ele>47.8</ele><time>2026-04-24T01:48:44.001Z</time></trkpt><trkpt lat="-19.948870114698344" lon="120.37778643254023"><ele>47.599999999999994</ele><time>2026-04-24T01:48:45.001Z</time></trkpt><trkpt lat="-19.948769351973603" lon="120.37786140535056"><ele>47.400000000000006</ele><time>2026-04-24T01:48:46.001Z</time></trkpt><trkpt lat="-19.94869707749934" lon="120.37791361536783"><ele>47.2</ele><time>2026-04-24T01:48:47.001Z</time></trkpt><trkpt lat="-19.94862947222018" lon="120.37795176011201"><ele>47.0</ele><time>2026-04-24T01:48:49.001Z</time></trkpt><trkpt lat="-19.948725077360045" lon="120.37787327964473"><ele>47.0</ele><time>2026-04-24T01:49:18Z</time></trkpt><trkpt lat="-19.948784890772092" lon="120.37783573416205"><ele>47.0</ele><time>2026-04-24T01:49:19Z</time></trkpt><trkpt lat="-19.948845619448715" lon="120.37779157670745"><ele>47.0</ele><time>2026-04-24T01:49:20Z</time></trkpt><trkpt lat="-19.948928141891052" lon="120.37773220357334"><ele>47.0</ele><time>2026-04-24T01:49:21Z</time></trkpt><trkpt lat="-19.949028154680416" lon="120.37766637151451"><ele>47.0</ele><time>2026-04-24T01:49:22Z</time></trkpt><trkpt lat="-19.949126749251842" lon="120.37758776535709"><ele>47.2</ele><time>2026-04-24T01:49:23Z</time></trkpt><trkpt lat="-19.94922042402095" lon="120.37750415755923"><ele>47.400000000000006</ele><time>2026-04-24T01:49:24Z</time></trkpt><trkpt lat="-19.949303525719163" lon="120.37742853071852"><ele>47.599999999999994</ele><time>2026-04-24T01:49:25Z</time></trkpt><trkpt lat="-19.949375083939888" lon="120.37736281596997"><ele>47.8</ele><time>2026-04-24T01:49:26Z</time></trkpt><trkpt lat="-19.94943314035886" lon="120.37730347406236"><ele>48.0</ele><time>2026-04-24T01:49:27Z</time></trkpt><trkpt lat="-19.949491053695635" lon="120.37726000347777"><ele>48.0</ele><time>2026-04-24T01:49:29Z</time></trkpt><trkpt lat="-19.949550845955194" lon="120.37728125768898"><ele>48.0</ele><time>2026-04-24T01:49:32Z</time></trkpt><trkpt lat="-19.949559580139255" lon="120.37737146605244"><ele>48.0</ele><time>2026-04-24T01:49:34Z</time></trkpt><trkpt lat="-19.94952979729404" lon="120.37746656773616"><ele>48.0</ele><time>2026-04-24T01:49:35Z</time></trkpt><trkpt lat="-19.94948260417362" lon="120.37756320060912"><ele>48.0</ele><time>2026-04-24T01:49:36Z</time></trkpt><trkpt lat="-19.949429958463217" lon="120.37767287876963"><ele>48.0</ele><time>2026-04-24T01:49:37Z</time></trkpt><trkpt lat="-19.94937405336933" lon="120.37779809713729"><ele>48.0</ele><time>2026-04-24T01:49:38Z</time></trkpt><trkpt lat="-19.949316222530854" lon="120.37793936376906"><ele>48.0</ele><time>2026-04-24T01:49:39Z</time></trkpt><trkpt lat="-19.9492569903152" lon="120.37808736420477"><ele>48.0</ele><time>2026-04-24T01:49:40Z</time></trkpt><trkpt lat="-19.94919780024744" lon="120.37824067117916"><ele>47.666666666666664</ele><time>2026-04-24T01:49:41Z</time></trkpt><trkpt lat="-19.949128284755552" lon="120.37840774815389"><ele>47.33333333333333</ele><time>2026-04-24T01:49:42Z</time></trkpt><trkpt lat="-19.949053118683977" lon="120.37858522780905"><ele>47.0</ele><time>2026-04-24T01:49:43Z</time></trkpt><trkpt lat="-19.948976261662626" lon="120.37876785180829"><ele>47.33333333333333</ele><time>2026-04-24T01:49:44Z</time></trkpt><trkpt lat="-19.948900131624082" lon="120.37895440847106"><ele>47.666666666666664</ele><time>2026-04-24T01:49:45Z</time></trkpt><trkpt lat="-19.948814497222195" lon="120.3791570447627"><ele>48.0</ele><time>2026-04-24T01:49:46Z</time></trkpt><trkpt lat="-19.948719727043926" lon="120.37937265072136"><ele>48.0</ele><time>2026-04-24T01:49:47Z</time></trkpt><trkpt lat="-19.948623941404403" lon="120.37958969397216"><ele>48.0</ele><time>2026-04-24T01:49:48Z</time></trkpt><trkpt lat="-19.94852350660909" lon="120.37981349900643"><ele>48.0</ele><time>2026-04-24T01:49:49Z</time></trkpt><trkpt lat="-19.94841591272944" lon="120.38004886612731"><ele>48.0</ele><time>2026-04-24T01:49:50Z</time></trkpt><trkpt lat="-19.948302276112432" lon="120.38028636752973"><ele>48.5</ele><time>2026-04-24T01:49:51Z</time></trkpt><trkpt lat="-19.948184907635092" lon="120.38052604343716"><ele>49.0</ele><time>2026-04-24T01:49:52Z</time></trkpt><trkpt lat="-19.948061204592143" lon="120.38077366048238"><ele>49.0</ele><time>2026-04-24T01:49:53Z</time></trkpt><trkpt lat="-19.9479370175974" lon="120.38102250995267"><ele>49.0</ele><time>2026-04-24T01:49:54Z</time></trkpt><trkpt lat="-19.947807898751805" lon="120.38127740480904"><ele>48.5</ele><time>2026-04-24T01:49:55Z</time></trkpt><trkpt lat="-19.94767724671171" lon="120.38152997913944"><ele>48.0</ele><time>2026-04-24T01:49:56Z</time></trkpt><trkpt lat="-19.94754401737211" lon="120.3817784230465"><ele>47.5</ele><time>2026-04-24T01:49:57Z</time></trkpt><trkpt lat="-19.947406251345544" lon="120.3820260959771"><ele>47.0</ele><time>2026-04-24T01:49:58Z</time></trkpt><trkpt lat="-19.947267251643055" lon="120.38226957244594"><ele>47.0</ele><time>2026-04-24T01:49:59Z</time></trkpt><trkpt lat="-19.947129226670793" lon="120.38251476430672"><ele>47.0</ele><time>2026-04-24T01:50:00Z</time></trkpt><trkpt lat="-19.946990335136647" lon="120.38275721727558"><ele>47.0</ele><time>2026-04-24T01:50:01Z</time></trkpt><trkpt lat="-19.94684964343521" lon="120.38300057898921"><ele>47.0</ele><time>2026-04-24T01:50:02Z</time></trkpt><trkpt lat="-19.946711387226866" lon="120.38324189844714"><ele>46.5</ele><time>2026-04-24T01:50:03Z</time></trkpt><trkpt lat="-19.946566760421053" lon="120.3834789886962"><ele>46.0</ele><time>2026-04-24T01:50:04Z</time></trkpt><trkpt lat="-19.946419560315324" lon="120.38371360240947"><ele>45.0</ele><time>2026-04-24T01:50:05Z</time></trkpt><trkpt lat="-19.946279503017575" lon="120.38394952415351"><ele>44.0</ele><time>2026-04-24T01:50:06Z</time></trkpt><trkpt lat="-19.946146089240877" lon="120.3841849493113"><ele>44.0</ele><time>2026-04-24T01:50:07Z</time></trkpt><trkpt lat="-19.946013012371257" lon="120.38442438303665"><ele>44.0</ele><time>2026-04-24T01:50:08Z</time></trkpt><trkpt lat="-19.94587983228505" lon="120.38465968459131"><ele>43.0</ele><time>2026-04-24T01:50:09Z</time></trkpt><trkpt lat="-19.945745939470697" lon="120.38489526093903"><ele>42.0</ele><time>2026-04-24T01:50:10Z</time></trkpt><trkpt lat="-19.945608221717965" lon="120.38513272268236"><ele>42.0</ele><time>2026-04-24T01:50:11Z</time></trkpt><trkpt lat="-19.945466495891026" lon="120.38537112029475"><ele>42.0</ele><time>2026-04-24T01:50:12Z</time></trkpt><trkpt lat="-19.945322680320494" lon="120.38560812911022"><ele>42.0</ele><time>2026-04-24T01:50:13Z</time></trkpt><trkpt lat="-19.945180257462198" lon="120.3858475778967"><ele>42.0</ele><time>2026-04-24T01:50:14Z</time></trkpt><trkpt lat="-19.945039732929864" lon="120.38608535178088"><ele>42.0</ele><time>2026-04-24T01:50:15Z</time></trkpt><trkpt lat="-19.944901846354128" lon="120.38632237966462"><ele>42.0</ele><time>2026-04-24T01:50:16Z</time></trkpt><trkpt lat="-19.944766057101482" lon="120.386556763602"><ele>41.0</ele><time>2026-04-24T01:50:17Z</time></trkpt><trkpt lat="-19.9446282573623" lon="120.38679547007249"><ele>40.0</ele><time>2026-04-24T01:50:18Z</time></trkpt><trkpt lat="-19.944489031693443" lon="120.38703142209545"><ele>40.0</ele><time>2026-04-24T01:50:19Z</time></trkpt><trkpt lat="-19.944350093061445" lon="120.38726430200971"><ele>40.0</ele><time>2026-04-24T01:50:20Z</time></trkpt><trkpt lat="-19.944211018628263" lon="120.38750031279717"><ele>40.0</ele><time>2026-04-24T01:50:21Z</time></trkpt><trkpt lat="-19.944072563137446" lon="120.38773573288775"><ele>40.0</ele><time>2026-04-24T01:50:22Z</time></trkpt><trkpt lat="-19.94393393879647" lon="120.38797185087034"><ele>40.0</ele><time>2026-04-24T01:50:23Z</time></trkpt><trkpt lat="-19.943794424910934" lon="120.38821103228555"><ele>40.0</ele><time>2026-04-24T01:50:24.001Z</time></trkpt><trkpt lat="-19.943653275954087" lon="120.38845103414562"><ele>40.0</ele><time>2026-04-24T01:50:25.001Z</time></trkpt><trkpt lat="-19.943511050493154" lon="120.38869253271032"><ele>40.0</ele><time>2026-04-24T01:50:26.001Z</time></trkpt><trkpt lat="-19.943369866961202" lon="120.38893627052705"><ele>40.5</ele><time>2026-04-24T01:50:27.001Z</time></trkpt><trkpt lat="-19.943230013343232" lon="120.38918079301297"><ele>41.0</ele><time>2026-04-24T01:50:28.001Z</time></trkpt><trkpt lat="-19.943088987104908" lon="120.38942905514325"><ele>40.5</ele><time>2026-04-24T01:50:29.001Z</time></trkpt><trkpt lat="-19.942945306581656" lon="120.38967809732833"><ele>40.0</ele><time>2026-04-24T01:50:30.001Z</time></trkpt><trkpt lat="-19.94279955605052" lon="120.38992868282075"><ele>40.0</ele><time>2026-04-24T01:50:31.001Z</time></trkpt><trkpt lat="-19.942654587837776" lon="120.39017883954419"><ele>40.0</ele><time>2026-04-24T01:50:32.001Z</time></trkpt><trkpt lat="-19.942510143635808" lon="120.39043024558369"><ele>40.0</ele><time>2026-04-24T01:50:33.001Z</time></trkpt><trkpt lat="-19.94236425591457" lon="120.39068424571889"><ele>40.0</ele><time>2026-04-24T01:50:34.001Z</time></trkpt><trkpt lat="-19.942217033114602" lon="120.39093629493597"><ele>40.0</ele><time>2026-04-24T01:50:35.001Z</time></trkpt><trkpt lat="-19.942068621413895" lon="120.39118751610279"><ele>40.0</ele><time>2026-04-24T01:50:36.001Z</time></trkpt><trkpt lat="-19.941920211557534" lon="120.39144031932152"><ele>40.0</ele><time>2026-04-24T01:50:37.001Z</time></trkpt><trkpt lat="-19.941776314593074" lon="120.39169424480818"><ele>40.0</ele><time>2026-04-24T01:50:38.001Z</time></trkpt><trkpt lat="-19.941631592496297" lon="120.39194726942998"><ele>38.0</ele><time>2026-04-24T01:50:39.001Z</time></trkpt><trkpt lat="-19.941486273042887" lon="120.39219814785163"><ele>36.0</ele><time>2026-04-24T01:50:40.001Z</time></trkpt><trkpt lat="-19.941338339192246" lon="120.39244888374158"><ele>36.0</ele><time>2026-04-24T01:50:41.001Z</time></trkpt><trkpt lat="-19.941191060244563" lon="120.39270021322564"><ele>36.0</ele><time>2026-04-24T01:50:42.001Z</time></trkpt><trkpt lat="-19.94104425118154" lon="120.39295090225431"><ele>36.0</ele><time>2026-04-24T01:50:43.001Z</time></trkpt><trkpt lat="-19.940896205014674" lon="120.39320005437244"><ele>36.0</ele><time>2026-04-24T01:50:44.001Z</time></trkpt><trkpt lat="-19.940749772345107" lon="120.3934489741263"><ele>36.0</ele><time>2026-04-24T01:50:45.001Z</time></trkpt><trkpt lat="-19.940604041686655" lon="120.39369747479502"><ele>36.0</ele><time>2026-04-24T01:50:46.001Z</time></trkpt><trkpt lat="-19.940461139481005" lon="120.39394610011139"><ele>37.0</ele><time>2026-04-24T01:50:47.001Z</time></trkpt><trkpt lat="-19.940317253577902" lon="120.39419136456365"><ele>38.0</ele><time>2026-04-24T01:50:48.001Z</time></trkpt><trkpt lat="-19.940174100086825" lon="120.39443223382665"><ele>37.5</ele><time>2026-04-24T01:50:49.001Z</time></trkpt><trkpt lat="-19.940030982720586" lon="120.39466807683554"><ele>37.0</ele><time>2026-04-24T01:50:50.001Z</time></trkpt><trkpt lat="-19.93988996709679" lon="120.39490628642416"><ele>36.5</ele><time>2026-04-24T01:50:51.001Z</time></trkpt><trkpt lat="-19.939750463079918" lon="120.39514788521873"><ele>36.0</ele><time>2026-04-24T01:50:52.001Z</time></trkpt><trkpt lat="-19.939611050742837" lon="120.39538828670138"><ele>36.0</ele><time>2026-04-24T01:50:53.001Z</time></trkpt><trkpt lat="-19.939470795894614" lon="120.39562517926947"><ele>36.0</ele><time>2026-04-24T01:50:54.001Z</time></trkpt><trkpt lat="-19.939333896750405" lon="120.3958619360974"><ele>36.0</ele><time>2026-04-24T01:50:55.001Z</time></trkpt><trkpt lat="-19.939194635482167" lon="120.39609943499941"><ele>36.0</ele><time>2026-04-24T01:50:56.001Z</time></trkpt><trkpt lat="-19.93905242775912" lon="120.3963395417095"><ele>36.5</ele><time>2026-04-24T01:50:57.001Z</time></trkpt><trkpt lat="-19.938909716372265" lon="120.39658679854064"><ele>37.0</ele><time>2026-04-24T01:50:58.001Z</time></trkpt><trkpt lat="-19.938767900532227" lon="120.39683470672502"><ele>37.0</ele><time>2026-04-24T01:50:59.001Z</time></trkpt><trkpt lat="-19.93862396778897" lon="120.39708687771986"><ele>37.0</ele><time>2026-04-24T01:51:00.001Z</time></trkpt><trkpt lat="-19.938476430236175" lon="120.39733644857904"><ele>36.0</ele><time>2026-04-24T01:51:01.001Z</time></trkpt><trkpt lat="-19.93832706754961" lon="120.39758960050114"><ele>35.0</ele><time>2026-04-24T01:51:02Z</time></trkpt><trkpt lat="-19.93817735869914" lon="120.39784451098562"><ele>34.5</ele><time>2026-04-24T01:51:03Z</time></trkpt><trkpt lat="-19.93802767503369" lon="120.39810233364956"><ele>34.0</ele><time>2026-04-24T01:51:04Z</time></trkpt><trkpt lat="-19.937879150473368" lon="120.39835629084786"><ele>34.0</ele><time>2026-04-24T01:51:05Z</time></trkpt><trkpt lat="-19.93773090170939" lon="120.3986082341875"><ele>34.0</ele><time>2026-04-24T01:51:06Z</time></trkpt><trkpt lat="-19.93758261342974" lon="120.39886035157629"><ele>32.5</ele><time>2026-04-24T01:51:07Z</time></trkpt><trkpt lat="-19.937437067770755" lon="120.39911017624452"><ele>31.0</ele><time>2026-04-24T01:51:08Z</time></trkpt><trkpt lat="-19.937290034704837" lon="120.39936018644282"><ele>31.0</ele><time>2026-04-24T01:51:09Z</time></trkpt><trkpt lat="-19.93714209216436" lon="120.39961044801797"><ele>31.0</ele><time>2026-04-24T01:51:10Z</time></trkpt><trkpt lat="-19.93699647741448" lon="120.39986041975378"><ele>30.5</ele><time>2026-04-24T01:51:11Z</time></trkpt><trkpt lat="-19.93685196853776" lon="120.40011091180787"><ele>30.0</ele><time>2026-04-24T01:51:12Z</time></trkpt><trkpt lat="-19.936705957802783" lon="120.40035982750729"><ele>29.5</ele><time>2026-04-24T01:51:13Z</time></trkpt><trkpt lat="-19.93656015912191" lon="120.40060383331027"><ele>29.0</ele><time>2026-04-24T01:51:14Z</time></trkpt><trkpt lat="-19.936414453168158" lon="120.40085028679111"><ele>29.0</ele><time>2026-04-24T01:51:15Z</time></trkpt><trkpt lat="-19.93627259524588" lon="120.40109569824313"><ele>29.0</ele><time>2026-04-24T01:51:16Z</time></trkpt><trkpt lat="-19.936128025800237" lon="120.40134393873886"><ele>29.0</ele><time>2026-04-24T01:51:17Z</time></trkpt><trkpt lat="-19.935985805987368" lon="120.40159008700593"><ele>29.0</ele><time>2026-04-24T01:51:18Z</time></trkpt><trkpt lat="-19.935843602733232" lon="120.40183687394394"><ele>28.5</ele><time>2026-04-24T01:51:19Z</time></trkpt><trkpt lat="-19.935701535272482" lon="120.40208459405096"><ele>28.0</ele><time>2026-04-24T01:51:20Z</time></trkpt><trkpt lat="-19.93556038682325" lon="120.402329683251"><ele>27.5</ele><time>2026-04-24T01:51:21Z</time></trkpt><trkpt lat="-19.935416820588937" lon="120.40257529732736"><ele>27.0</ele><time>2026-04-24T01:51:22Z</time></trkpt><trkpt lat="-19.935272631925027" lon="120.40281923976667"><ele>27.0</ele><time>2026-04-24T01:51:23Z</time></trkpt><trkpt lat="-19.93512751640344" lon="120.40306428220995"><ele>27.0</ele><time>2026-04-24T01:51:24Z</time></trkpt><trkpt lat="-19.9349840530812" lon="120.40330784154624"><ele>26.0</ele><time>2026-04-24T01:51:25Z</time></trkpt><trkpt lat="-19.934840005564176" lon="120.40355399606372"><ele>25.0</ele><time>2026-04-24T01:51:26Z</time></trkpt><trkpt lat="-19.934695374756704" lon="120.40379991624083"><ele>25.0</ele><time>2026-04-24T01:51:27Z</time></trkpt><trkpt lat="-19.934551176588794" lon="120.40404687829859"><ele>25.0</ele><time>2026-04-24T01:51:28Z</time></trkpt><trkpt lat="-19.93440556212612" lon="120.4042965107241"><ele>25.0</ele><time>2026-04-24T01:51:29Z</time></trkpt><trkpt lat="-19.934262309557624" lon="120.4045472195952"><ele>25.0</ele><time>2026-04-24T01:51:30Z</time></trkpt><trkpt lat="-19.9341167648267" lon="120.40479886152555"><ele>24.5</ele><time>2026-04-24T01:51:31Z</time></trkpt><trkpt lat="-19.93397163113407" lon="120.40505098606631"><ele>24.0</ele><time>2026-04-24T01:51:32Z</time></trkpt><trkpt lat="-19.933828094648284" lon="120.40530102182895"><ele>24.5</ele><time>2026-04-24T01:51:33Z</time></trkpt><trkpt lat="-19.93368359039155" lon="120.40554861467298"><ele>25.0</ele><time>2026-04-24T01:51:34Z</time></trkpt><trkpt lat="-19.933537140367047" lon="120.40579465511155"><ele>25.0</ele><time>2026-04-24T01:51:35Z</time></trkpt><trkpt lat="-19.93338989928586" lon="120.40604164956628"><ele>25.0</ele><time>2026-04-24T01:51:36Z</time></trkpt><trkpt lat="-19.933244417735107" lon="120.40628912166478"><ele>24.5</ele><time>2026-04-24T01:51:37Z</time></trkpt><trkpt lat="-19.933099557451786" lon="120.40654066614287"><ele>24.0</ele><time>2026-04-24T01:51:38Z</time></trkpt><trkpt lat="-19.932959287564138" lon="120.4067885055003"><ele>24.0</ele><time>2026-04-24T01:51:39Z</time></trkpt><trkpt lat="-19.932823712331516" lon="120.40703932355562"><ele>24.0</ele><time>2026-04-24T01:51:40Z</time></trkpt><trkpt lat="-19.93269054792245" lon="120.40729396897787"><ele>24.0</ele><time>2026-04-24T01:51:41Z</time></trkpt><trkpt lat="-19.932560852019733" lon="120.40755156183397"><ele>24.0</ele><time>2026-04-24T01:51:42Z</time></trkpt><trkpt lat="-19.93243241752145" lon="120.40781305515712"><ele>25.0</ele><time>2026-04-24T01:51:43Z</time></trkpt><trkpt lat="-19.932306865032732" lon="120.40807821572265"><ele>26.0</ele><time>2026-04-24T01:51:44Z</time></trkpt><trkpt lat="-19.93218697244041" lon="120.40834085756227"><ele>26.0</ele><time>2026-04-24T01:51:45Z</time></trkpt><trkpt lat="-19.93206827963168" lon="120.40860273421637"><ele>26.0</ele><time>2026-04-24T01:51:46Z</time></trkpt><trkpt lat="-19.931953529479284" lon="120.40886331353926"><ele>25.5</ele><time>2026-04-24T01:51:47Z</time></trkpt><trkpt lat="-19.93184047839154" lon="120.40912441595412"><ele>25.0</ele><time>2026-04-24T01:51:48Z</time></trkpt><trkpt lat="-19.93172847230174" lon="120.40938793448186"><ele>25.0</ele><time>2026-04-24T01:51:49Z</time></trkpt><trkpt lat="-19.93162040911228" lon="120.40965507629365"><ele>25.0</ele><time>2026-04-24T01:51:50Z</time></trkpt><trkpt lat="-19.931518632199975" lon="120.4099215479679"><ele>25.0</ele><time>2026-04-24T01:51:51Z</time></trkpt><trkpt lat="-19.931417668815154" lon="120.41018950445137"><ele>25.0</ele><time>2026-04-24T01:51:52Z</time></trkpt><trkpt lat="-19.931318188999025" lon="120.41045795013012"><ele>24.5</ele><time>2026-04-24T01:51:53Z</time></trkpt><trkpt lat="-19.931218550298055" lon="120.410729855094"><ele>24.0</ele><time>2026-04-24T01:51:54Z</time></trkpt><trkpt lat="-19.931119122597824" lon="120.41099614514349"><ele>24.0</ele><time>2026-04-24T01:51:55Z</time></trkpt><trkpt lat="-19.931017515844644" lon="120.41126403261562"><ele>24.0</ele><time>2026-04-24T01:51:56Z</time></trkpt><trkpt lat="-19.93091581172426" lon="120.41152877112418"><ele>24.0</ele><time>2026-04-24T01:51:57Z</time></trkpt><trkpt lat="-19.930816185856223" lon="120.41179592446306"><ele>24.0</ele><time>2026-04-24T01:51:58Z</time></trkpt><trkpt lat="-19.930717898063047" lon="120.41206253454074"><ele>24.0</ele><time>2026-04-24T01:51:59Z</time></trkpt><trkpt lat="-19.930619587845385" lon="120.41232951229757"><ele>24.0</ele><time>2026-04-24T01:52:00Z</time></trkpt><trkpt lat="-19.930519701533616" lon="120.4125985375624"><ele>24.0</ele><time>2026-04-24T01:52:01Z</time></trkpt><trkpt lat="-19.93042044805845" lon="120.41286643902306"><ele>24.0</ele><time>2026-04-24T01:52:02Z</time></trkpt><trkpt lat="-19.93032151368764" lon="120.41313681630386"><ele>25.0</ele><time>2026-04-24T01:52:03Z</time></trkpt><trkpt lat="-19.93022031983819" lon="120.41341004170759"><ele>26.0</ele><time>2026-04-24T01:52:04Z</time></trkpt><trkpt lat="-19.930120448625203" lon="120.41368097703992"><ele>25.0</ele><time>2026-04-24T01:52:05Z</time></trkpt><trkpt lat="-19.9300194155141" lon="120.41395263142664"><ele>24.0</ele><time>2026-04-24T01:52:06Z</time></trkpt><trkpt lat="-19.92991880548625" lon="120.41422384799893"><ele>24.0</ele><time>2026-04-24T01:52:07Z</time></trkpt><trkpt lat="-19.929819011024293" lon="120.41449505528733"><ele>24.0</ele><time>2026-04-24T01:52:08Z</time></trkpt><trkpt lat="-19.929716696485404" lon="120.41477042468557"><ele>24.5</ele><time>2026-04-24T01:52:09Z</time></trkpt><trkpt lat="-19.92961695366662" lon="120.41504441275596"><ele>25.0</ele><time>2026-04-24T01:52:10Z</time></trkpt><trkpt lat="-19.929516112851775" lon="120.41532029281923"><ele>25.5</ele><time>2026-04-24T01:52:11Z</time></trkpt><trkpt lat="-19.929412952985675" lon="120.41559468228886"><ele>26.0</ele><time>2026-04-24T01:52:12Z</time></trkpt><trkpt lat="-19.929310304949826" lon="120.41586904830328"><ele>26.0</ele><time>2026-04-24T01:52:13Z</time></trkpt><trkpt lat="-19.92920880255316" lon="120.41614309054772"><ele>26.0</ele><time>2026-04-24T01:52:14Z</time></trkpt><trkpt lat="-19.92910815775033" lon="120.41641801566243"><ele>26.0</ele><time>2026-04-24T01:52:15Z</time></trkpt><trkpt lat="-19.92900736319901" lon="120.41669459862739"><ele>26.0</ele><time>2026-04-24T01:52:16Z</time></trkpt><trkpt lat="-19.928908787694432" lon="120.41696795316825"><ele>26.0</ele><time>2026-04-24T01:52:17Z</time></trkpt><trkpt lat="-19.928808704623194" lon="120.41724192779427"><ele>26.0</ele><time>2026-04-24T01:52:18Z</time></trkpt><trkpt lat="-19.92870808698774" lon="120.41750948737399"><ele>26.0</ele><time>2026-04-24T01:52:19Z</time></trkpt><trkpt lat="-19.928605266381876" lon="120.4177792999767"><ele>26.0</ele><time>2026-04-24T01:52:20Z</time></trkpt><trkpt lat="-19.928505091046144" lon="120.41804591341538"><ele>26.0</ele><time>2026-04-24T01:52:21Z</time></trkpt><trkpt lat="-19.928404706962464" lon="120.41831097207512"><ele>26.0</ele><time>2026-04-24T01:52:22Z</time></trkpt><trkpt lat="-19.9283054374894" lon="120.41857572166285"><ele>25.5</ele><time>2026-04-24T01:52:23Z</time></trkpt><trkpt lat="-19.928205658447762" lon="120.41884444829944"><ele>25.0</ele><time>2026-04-24T01:52:24Z</time></trkpt><trkpt lat="-19.92810526619345" lon="120.41911208487785"><ele>25.0</ele><time>2026-04-24T01:52:25Z</time></trkpt><trkpt lat="-19.928004705010324" lon="120.41938416721817"><ele>25.0</ele><time>2026-04-24T01:52:26Z</time></trkpt><trkpt lat="-19.92790357125948" lon="120.41965663350884"><ele>25.5</ele><time>2026-04-24T01:52:27Z</time></trkpt><trkpt lat="-19.927801557943994" lon="120.41993182612717"><ele>26.0</ele><time>2026-04-24T01:52:28Z</time></trkpt><trkpt lat="-19.927699856998164" lon="120.42020944681317"><ele>26.0</ele><time>2026-04-24T01:52:29Z</time></trkpt><trkpt lat="-19.927597486043624" lon="120.42048790584076"><ele>26.0</ele><time>2026-04-24T01:52:30Z</time></trkpt><trkpt lat="-19.92749610212448" lon="120.42076377075665"><ele>25.0</ele><time>2026-04-24T01:52:31Z</time></trkpt><trkpt lat="-19.92739497907097" lon="120.42103733242327"><ele>24.0</ele><time>2026-04-24T01:52:32Z</time></trkpt><trkpt lat="-19.92729414404568" lon="120.42131029190277"><ele>24.0</ele><time>2026-04-24T01:52:33Z</time></trkpt><trkpt lat="-19.927193501365917" lon="120.42158184968208"><ele>24.0</ele><time>2026-04-24T01:52:34Z</time></trkpt><trkpt lat="-19.927093962807877" lon="120.42185150703796"><ele>24.0</ele><time>2026-04-24T01:52:35Z</time></trkpt><trkpt lat="-19.926996037443043" lon="120.42211987100144"><ele>24.0</ele><time>2026-04-24T01:52:36Z</time></trkpt><trkpt lat="-19.92689623585986" lon="120.42239010655835"><ele>24.5</ele><time>2026-04-24T01:52:37Z</time></trkpt><trkpt lat="-19.926793141715926" lon="120.42266452370399"><ele>25.0</ele><time>2026-04-24T01:52:38Z</time></trkpt><trkpt lat="-19.926688550389787" lon="120.42294061850026"><ele>24.5</ele><time>2026-04-24T01:52:39.001Z</time></trkpt><trkpt lat="-19.926586392059505" lon="120.42321733659855"><ele>24.0</ele><time>2026-04-24T01:52:40.001Z</time></trkpt><trkpt lat="-19.92648574976693" lon="120.42349390474662"><ele>24.0</ele><time>2026-04-24T01:52:41.001Z</time></trkpt><trkpt lat="-19.926385602293955" lon="120.42376859307737"><ele>24.0</ele><time>2026-04-24T01:52:42.001Z</time></trkpt><trkpt lat="-19.926285331069018" lon="120.42404378349806"><ele>25.0</ele><time>2026-04-24T01:52:43.001Z</time></trkpt><trkpt lat="-19.926186707695873" lon="120.42431582470427"><ele>26.0</ele><time>2026-04-24T01:52:44.001Z</time></trkpt><trkpt lat="-19.926086329412247" lon="120.42458350304986"><ele>26.0</ele><time>2026-04-24T01:52:45.001Z</time></trkpt><trkpt lat="-19.92598641669422" lon="120.42485037964893"><ele>26.0</ele><time>2026-04-24T01:52:46.001Z</time></trkpt><trkpt lat="-19.925887139623402" lon="120.42511636197436"><ele>26.0</ele><time>2026-04-24T01:52:47.001Z</time></trkpt><trkpt lat="-19.925788394875948" lon="120.42538408857887"><ele>26.0</ele><time>2026-04-24T01:52:48.001Z</time></trkpt><trkpt lat="-19.925687823590973" lon="120.42565066962082"><ele>26.0</ele><time>2026-04-24T01:52:49.001Z</time></trkpt><trkpt lat="-19.92558817648611" lon="120.42591600878856"><ele>26.0</ele><time>2026-04-24T01:52:50.001Z</time></trkpt><trkpt lat="-19.925486682792265" lon="120.426183235872"><ele>26.5</ele><time>2026-04-24T01:52:51.001Z</time></trkpt><trkpt lat="-19.925388110652154" lon="120.42645115059996"><ele>27.0</ele><time>2026-04-24T01:52:52.001Z</time></trkpt><trkpt lat="-19.925289817252" lon="120.42671849230578"><ele>27.0</ele><time>2026-04-24T01:52:53.001Z</time></trkpt><trkpt lat="-19.92519309861518" lon="120.42698430146511"><ele>27.0</ele><time>2026-04-24T01:52:54.001Z</time></trkpt><trkpt lat="-19.9250980616289" lon="120.42724723725637"><ele>26.5</ele><time>2026-04-24T01:52:55.001Z</time></trkpt><trkpt lat="-19.925001288209064" lon="120.42751064423834"><ele>26.0</ele><time>2026-04-24T01:52:56.001Z</time></trkpt><trkpt lat="-19.924902216478387" lon="120.42777125073198"><ele>26.0</ele><time>2026-04-24T01:52:57.001Z</time></trkpt><trkpt lat="-19.924805940304914" lon="120.42803148396159"><ele>26.0</ele><time>2026-04-24T01:52:58.001Z</time></trkpt><trkpt lat="-19.924709087406285" lon="120.42829310642419"><ele>26.0</ele><time>2026-04-24T01:52:59.001Z</time></trkpt><trkpt lat="-19.924610804710607" lon="120.42855786552367"><ele>26.0</ele><time>2026-04-24T01:53:00.001Z</time></trkpt><trkpt lat="-19.924511381946566" lon="120.4288243725865"><ele>26.0</ele><time>2026-04-24T01:53:01.001Z</time></trkpt><trkpt lat="-19.92441143504051" lon="120.42909174613926"><ele>26.0</ele><time>2026-04-24T01:53:02.001Z</time></trkpt><trkpt lat="-19.92430987610124" lon="120.42936136435505"><ele>26.0</ele><time>2026-04-24T01:53:03.001Z</time></trkpt><trkpt lat="-19.924208460255663" lon="120.42963119687042"><ele>26.0</ele><time>2026-04-24T01:53:04.001Z</time></trkpt><trkpt lat="-19.924106615814303" lon="120.4299006613563"><ele>26.0</ele><time>2026-04-24T01:53:05.001Z</time></trkpt><trkpt lat="-19.92400652660991" lon="120.43016865707669"><ele>26.0</ele><time>2026-04-24T01:53:06.001Z</time></trkpt><trkpt lat="-19.92390737953835" lon="120.43043448919659"><ele>25.5</ele><time>2026-04-24T01:53:07.001Z</time></trkpt><trkpt lat="-19.923810416385347" lon="120.43070088652047"><ele>25.0</ele><time>2026-04-24T01:53:08Z</time></trkpt><trkpt lat="-19.923713709431226" lon="120.43096687349896"><ele>25.0</ele><time>2026-04-24T01:53:09Z</time></trkpt><trkpt lat="-19.92361672376868" lon="120.43123366196511"><ele>25.0</ele><time>2026-04-24T01:53:10Z</time></trkpt><trkpt lat="-19.92352093794239" lon="120.43149909755417"><ele>24.5</ele><time>2026-04-24T01:53:11Z</time></trkpt><trkpt lat="-19.923426839494383" lon="120.4317610860762"><ele>24.0</ele><time>2026-04-24T01:53:12Z</time></trkpt><trkpt lat="-19.923330027449285" lon="120.43202097216945"><ele>23.5</ele><time>2026-04-24T01:53:13Z</time></trkpt><trkpt lat="-19.923229950576374" lon="120.43227695948448"><ele>23.0</ele><time>2026-04-24T01:53:14Z</time></trkpt><trkpt lat="-19.923129346814818" lon="120.43253125773973"><ele>23.0</ele><time>2026-04-24T01:53:15Z</time></trkpt><trkpt lat="-19.92302892085768" lon="120.43278928784409"><ele>23.0</ele><time>2026-04-24T01:53:16Z</time></trkpt><trkpt lat="-19.922935267146517" lon="120.43304677215242"><ele>22.5</ele><time>2026-04-24T01:53:17Z</time></trkpt><trkpt lat="-19.92284255544301" lon="120.43330232778023"><ele>22.0</ele><time>2026-04-24T01:53:18Z</time></trkpt><trkpt lat="-19.922751636100376" lon="120.43355278906897"><ele>22.0</ele><time>2026-04-24T01:53:19Z</time></trkpt><trkpt lat="-19.922661753061984" lon="120.43380369467658"><ele>22.0</ele><time>2026-04-24T01:53:20Z</time></trkpt><trkpt lat="-19.922574006710693" lon="120.43404977315986"><ele>22.0</ele><time>2026-04-24T01:53:21Z</time></trkpt><trkpt lat="-19.922484167198558" lon="120.4342939858294"><ele>22.0</ele><time>2026-04-24T01:53:22Z</time></trkpt><trkpt lat="-19.922389792248936" lon="120.43453955031028"><ele>22.0</ele><time>2026-04-24T01:53:23Z</time></trkpt><trkpt lat="-19.92229380398919" lon="120.43478967493375"><ele>22.0</ele><time>2026-04-24T01:53:24Z</time></trkpt><trkpt lat="-19.922198017428812" lon="120.43503961825941"><ele>22.0</ele><time>2026-04-24T01:53:25Z</time></trkpt><trkpt lat="-19.922103024842638" lon="120.43529446267547"><ele>22.0</ele><time>2026-04-24T01:53:26Z</time></trkpt><trkpt lat="-19.92201219020241" lon="120.43554806910393"><ele>22.0</ele><time>2026-04-24T01:53:27Z</time></trkpt><trkpt lat="-19.92191889238578" lon="120.43580484687435"><ele>22.0</ele><time>2026-04-24T01:53:28Z</time></trkpt><trkpt lat="-19.92182416591609" lon="120.4360611778403"><ele>21.5</ele><time>2026-04-24T01:53:29Z</time></trkpt><trkpt lat="-19.92172551536993" lon="120.4363222692534"><ele>21.0</ele><time>2026-04-24T01:53:30Z</time></trkpt><trkpt lat="-19.921624105881282" lon="120.43658708357391"><ele>21.0</ele><time>2026-04-24T01:53:31Z</time></trkpt><trkpt lat="-19.92152081654209" lon="120.43685499952431"><ele>21.0</ele><time>2026-04-24T01:53:32Z</time></trkpt><trkpt lat="-19.921419003724427" lon="120.43712828807445"><ele>21.0</ele><time>2026-04-24T01:53:33Z</time></trkpt><trkpt lat="-19.92132060799107" lon="120.43740388325143"><ele>21.0</ele><time>2026-04-24T01:53:34Z</time></trkpt><trkpt lat="-19.921219191874503" lon="120.43768342307686"><ele>21.0</ele><time>2026-04-24T01:53:35Z</time></trkpt><trkpt lat="-19.9211165722025" lon="120.43796445726548"><ele>21.0</ele><time>2026-04-24T01:53:36Z</time></trkpt><trkpt lat="-19.921011875465606" lon="120.43824870172304"><ele>21.0</ele><time>2026-04-24T01:53:37Z</time></trkpt><trkpt lat="-19.920905937548508" lon="120.43853196227383"><ele>21.0</ele><time>2026-04-24T01:53:38Z</time></trkpt><trkpt lat="-19.92080125885173" lon="120.43881547911042"><ele>21.0</ele><time>2026-04-24T01:53:39Z</time></trkpt><trkpt lat="-19.920697730987523" lon="120.43909697012165"><ele>21.0</ele><time>2026-04-24T01:53:40Z</time></trkpt><trkpt lat="-19.92059225071112" lon="120.43937563038254"><ele>21.5</ele><time>2026-04-24T01:53:41Z</time></trkpt><trkpt lat="-19.920488511287758" lon="120.43965190338777"><ele>22.0</ele><time>2026-04-24T01:53:42Z</time></trkpt><trkpt lat="-19.92038696076151" lon="120.43992481999297"><ele>22.0</ele><time>2026-04-24T01:53:43Z</time></trkpt><trkpt lat="-19.92028594657355" lon="120.44019915221281"><ele>22.0</ele><time>2026-04-24T01:53:44Z</time></trkpt><trkpt lat="-19.920186345499907" lon="120.4404715449574"><ele>22.5</ele><time>2026-04-24T01:53:45Z</time></trkpt><trkpt lat="-19.92008631059943" lon="120.44074220334136"><ele>23.0</ele><time>2026-04-24T01:53:46Z</time></trkpt><trkpt lat="-19.919984036205577" lon="120.44101180666644"><ele>22.0</ele><time>2026-04-24T01:53:47Z</time></trkpt><trkpt lat="-19.91988303423094" lon="120.44127827307081"><ele>21.0</ele><time>2026-04-24T01:53:48Z</time></trkpt><trkpt lat="-19.919785046573335" lon="120.44154783735036"><ele>21.0</ele><time>2026-04-24T01:53:49Z</time></trkpt><trkpt lat="-19.919688677066073" lon="120.44181540055484"><ele>21.0</ele><time>2026-04-24T01:53:50Z</time></trkpt><trkpt lat="-19.91959162189343" lon="120.44208206050295"><ele>21.5</ele><time>2026-04-24T01:53:51Z</time></trkpt><trkpt lat="-19.919494322484" lon="120.44234660570449"><ele>22.0</ele><time>2026-04-24T01:53:52Z</time></trkpt><trkpt lat="-19.91939521711214" lon="120.44261141571792"><ele>22.0</ele><time>2026-04-24T01:53:53Z</time></trkpt><trkpt lat="-19.91929590658354" lon="120.44287866451369"><ele>22.0</ele><time>2026-04-24T01:53:54Z</time></trkpt><trkpt lat="-19.919195862330085" lon="120.44314584186775"><ele>20.5</ele><time>2026-04-24T01:53:55Z</time></trkpt><trkpt lat="-19.919094281046696" lon="120.44341400973931"><ele>19.0</ele><time>2026-04-24T01:53:56Z</time></trkpt><trkpt lat="-19.918993933566686" lon="120.44368130313818"><ele>20.0</ele><time>2026-04-24T01:53:57Z</time></trkpt><trkpt lat="-19.91889516197744" lon="120.44395098576192"><ele>21.0</ele><time>2026-04-24T01:53:58Z</time></trkpt><trkpt lat="-19.918797287243006" lon="120.44421896147306"><ele>21.0</ele><time>2026-04-24T01:53:59Z</time></trkpt><trkpt lat="-19.918699896043506" lon="120.44448606606981"><ele>21.0</ele><time>2026-04-24T01:54:00Z</time></trkpt><trkpt lat="-19.918600354601576" lon="120.44475362824426"><ele>21.0</ele><time>2026-04-24T01:54:01Z</time></trkpt><trkpt lat="-19.91849962827178" lon="120.44502055934814"><ele>21.0</ele><time>2026-04-24T01:54:02Z</time></trkpt><trkpt lat="-19.91840070083244" lon="120.44528623334702"><ele>21.0</ele><time>2026-04-24T01:54:03Z</time></trkpt><trkpt lat="-19.918302013541584" lon="120.44555597441583"><ele>21.0</ele><time>2026-04-24T01:54:04Z</time></trkpt><trkpt lat="-19.9182030550122" lon="120.44582736979162"><ele>21.0</ele><time>2026-04-24T01:54:05Z</time></trkpt><trkpt lat="-19.918100602077697" lon="120.44609658539972"><ele>21.0</ele><time>2026-04-24T01:54:06Z</time></trkpt><trkpt lat="-19.9179982468116" lon="120.44636277977405"><ele>20.5</ele><time>2026-04-24T01:54:07Z</time></trkpt><trkpt lat="-19.91790121014255" lon="120.44663208055111"><ele>20.0</ele><time>2026-04-24T01:54:08Z</time></trkpt><trkpt lat="-19.917807546400084" lon="120.44689670600778"><ele>20.5</ele><time>2026-04-24T01:54:09Z</time></trkpt><trkpt lat="-19.91771197273931" lon="120.44715792316042"><ele>21.0</ele><time>2026-04-24T01:54:10Z</time></trkpt><trkpt lat="-19.91761608010127" lon="120.44742102511482"><ele>20.5</ele><time>2026-04-24T01:54:11Z</time></trkpt><trkpt lat="-19.917517421781362" lon="120.44768531191653"><ele>20.0</ele><time>2026-04-24T01:54:12Z</time></trkpt><trkpt lat="-19.917415868584154" lon="120.44795344593433"><ele>21.0</ele><time>2026-04-24T01:54:13Z</time></trkpt><trkpt lat="-19.91731434803012" lon="120.44822151366893"><ele>22.0</ele><time>2026-04-24T01:54:14Z</time></trkpt><trkpt lat="-19.91721485248085" lon="120.44848990180945"><ele>22.0</ele><time>2026-04-24T01:54:15Z</time></trkpt><trkpt lat="-19.91711508848682" lon="120.44875751985687"><ele>22.0</ele><time>2026-04-24T01:54:16Z</time></trkpt><trkpt lat="-19.917015688596628" lon="120.44902380798864"><ele>22.0</ele><time>2026-04-24T01:54:17Z</time></trkpt><trkpt lat="-19.91691687276503" lon="120.44929070320222"><ele>22.0</ele><time>2026-04-24T01:54:18Z</time></trkpt><trkpt lat="-19.916817883917446" lon="120.44955623289829"><ele>22.5</ele><time>2026-04-24T01:54:19Z</time></trkpt><trkpt lat="-19.91672136763635" lon="120.44982106172837"><ele>23.0</ele><time>2026-04-24T01:54:20Z</time></trkpt><trkpt lat="-19.916621258798987" lon="120.45009200396836"><ele>23.0</ele><time>2026-04-24T01:54:21Z</time></trkpt><trkpt lat="-19.916519998589745" lon="120.45036645938353"><ele>23.0</ele><time>2026-04-24T01:54:22Z</time></trkpt><trkpt lat="-19.91641863357769" lon="120.45063825040555"><ele>23.0</ele><time>2026-04-24T01:54:23Z</time></trkpt><trkpt lat="-19.916320556346694" lon="120.4509087768651"><ele>23.0</ele><time>2026-04-24T01:54:24Z</time></trkpt><trkpt lat="-19.916228264921088" lon="120.4511775616175"><ele>23.5</ele><time>2026-04-24T01:54:25Z</time></trkpt><trkpt lat="-19.91614045933565" lon="120.45144834812473"><ele>24.0</ele><time>2026-04-24T01:54:26Z</time></trkpt><trkpt lat="-19.916057756182237" lon="120.45171467866294"><ele>24.0</ele><time>2026-04-24T01:54:27Z</time></trkpt><trkpt lat="-19.91597985177448" lon="120.45198066774113"><ele>24.0</ele><time>2026-04-24T01:54:28Z</time></trkpt><trkpt lat="-19.91589975850255" lon="120.452248635965"><ele>25.5</ele><time>2026-04-24T01:54:29Z</time></trkpt><trkpt lat="-19.915815159565813" lon="120.45251599670055"><ele>27.0</ele><time>2026-04-24T01:54:30Z</time></trkpt><trkpt lat="-19.915728196290864" lon="120.45278533182196"><ele>27.0</ele><time>2026-04-24T01:54:31Z</time></trkpt><trkpt lat="-19.915643365138266" lon="120.45305983653586"><ele>27.0</ele><time>2026-04-24T01:54:32.001Z</time></trkpt><trkpt lat="-19.915560239739165" lon="120.45334173348422"><ele>27.0</ele><time>2026-04-24T01:54:33.001Z</time></trkpt><trkpt lat="-19.91547923615094" lon="120.45362547638325"><ele>27.0</ele><time>2026-04-24T01:54:34.001Z</time></trkpt><trkpt lat="-19.91540060630635" lon="120.45391120098488"><ele>27.0</ele><time>2026-04-24T01:54:35.001Z</time></trkpt><trkpt lat="-19.915324387558357" lon="120.4542005963416"><ele>27.0</ele><time>2026-04-24T01:54:36.001Z</time></trkpt><trkpt lat="-19.915251569882148" lon="120.4544931583107"><ele>27.0</ele><time>2026-04-24T01:54:37.001Z</time></trkpt><trkpt lat="-19.91516441750677" lon="120.45478357158453"><ele>27.0</ele><time>2026-04-24T01:54:38.001Z</time></trkpt><trkpt lat="-19.91510880208509" lon="120.45508629657245"><ele>27.0</ele><time>2026-04-24T01:54:39.001Z</time></trkpt><trkpt lat="-19.915033282051958" lon="120.45538425176193"><ele>27.0</ele><time>2026-04-24T01:54:40.001Z</time></trkpt><trkpt lat="-19.91495658460541" lon="120.45567534327539"><ele>27.0</ele><time>2026-04-24T01:54:41.001Z</time></trkpt><trkpt lat="-19.914883045762167" lon="120.45596348968391"><ele>27.0</ele><time>2026-04-24T01:54:42.001Z</time></trkpt><trkpt lat="-19.91481149327237" lon="120.45625173404288"><ele>26.5</ele><time>2026-04-24T01:54:43.001Z</time></trkpt><trkpt lat="-19.91473876355934" lon="120.45653829689293"><ele>26.0</ele><time>2026-04-24T01:54:44.001Z</time></trkpt><trkpt lat="-19.914666750889072" lon="120.45682708800913"><ele>26.0</ele><time>2026-04-24T01:54:45.001Z</time></trkpt><trkpt lat="-19.914595647568422" lon="120.45711494606958"><ele>26.0</ele><time>2026-04-24T01:54:46.001Z</time></trkpt><trkpt lat="-19.914524289890924" lon="120.45740181084956"><ele>26.0</ele><time>2026-04-24T01:54:47.001Z</time></trkpt><trkpt lat="-19.91445282015448" lon="120.45768469991332"><ele>26.0</ele><time>2026-04-24T01:54:48.001Z</time></trkpt><trkpt lat="-19.914383271767978" lon="120.45796659489793"><ele>26.0</ele><time>2026-04-24T01:54:49.001Z</time></trkpt><trkpt lat="-19.914315424128286" lon="120.4582433998512"><ele>26.0</ele><time>2026-04-24T01:54:50.001Z</time></trkpt><trkpt lat="-19.914247576857555" lon="120.45851910098094"><ele>25.0</ele><time>2026-04-24T01:54:51.001Z</time></trkpt><trkpt lat="-19.914180190413838" lon="120.45879229182123"><ele>24.0</ele><time>2026-04-24T01:54:52.001Z</time></trkpt><trkpt lat="-19.91411002267351" lon="120.45906143336303"><ele>24.0</ele><time>2026-04-24T01:54:53.001Z</time></trkpt><trkpt lat="-19.914042115032853" lon="120.45932721191868"><ele>24.0</ele><time>2026-04-24T01:54:54.001Z</time></trkpt><trkpt lat="-19.913976975790096" lon="120.45958954074278"><ele>24.0</ele><time>2026-04-24T01:54:55.001Z</time></trkpt><trkpt lat="-19.913915167195892" lon="120.45985410563054"><ele>24.0</ele><time>2026-04-24T01:54:56.001Z</time></trkpt><trkpt lat="-19.91384903150048" lon="120.4601249066383"><ele>24.0</ele><time>2026-04-24T01:54:57.001Z</time></trkpt><trkpt lat="-19.913781068508293" lon="120.46039561446379"><ele>24.0</ele><time>2026-04-24T01:54:58.001Z</time></trkpt><trkpt lat="-19.913714568111878" lon="120.46066276027524"><ele>25.0</ele><time>2026-04-24T01:54:59.001Z</time></trkpt><trkpt lat="-19.913647938235886" lon="120.46092446388202"><ele>26.0</ele><time>2026-04-24T01:55:00.001Z</time></trkpt><trkpt lat="-19.913583185508504" lon="120.46118139677101"><ele>25.5</ele><time>2026-04-24T01:55:01.001Z</time></trkpt><trkpt lat="-19.913518830308927" lon="120.46143588420065"><ele>25.0</ele><time>2026-04-24T01:55:02.001Z</time></trkpt><trkpt lat="-19.913451550797372" lon="120.461696740608"><ele>25.0</ele><time>2026-04-24T01:55:03.001Z</time></trkpt><trkpt lat="-19.913380232680346" lon="120.46196463730502"><ele>25.0</ele><time>2026-04-24T01:55:04.001Z</time></trkpt><trkpt lat="-19.913308017065788" lon="120.46223301596383"><ele>25.0</ele><time>2026-04-24T01:55:05.001Z</time></trkpt><trkpt lat="-19.913238448073468" lon="120.46250361632876"><ele>25.0</ele><time>2026-04-24T01:55:06.001Z</time></trkpt><trkpt lat="-19.91317066462827" lon="120.46277729010906"><ele>25.0</ele><time>2026-04-24T01:55:07.001Z</time></trkpt><trkpt lat="-19.913101771972578" lon="120.46305558280255"><ele>25.0</ele><time>2026-04-24T01:55:08.001Z</time></trkpt><trkpt lat="-19.91303212562948" lon="120.46333771746309"><ele>25.0</ele><time>2026-04-24T01:55:09.001Z</time></trkpt><trkpt lat="-19.912963062181795" lon="120.46361871844333"><ele>25.0</ele><time>2026-04-24T01:55:10.001Z</time></trkpt><trkpt lat="-19.91289494798951" lon="120.46389313969453"><ele>24.5</ele><time>2026-04-24T01:55:11.001Z</time></trkpt><trkpt lat="-19.912827616523913" lon="120.46416226076597"><ele>24.0</ele><time>2026-04-24T01:55:12.001Z</time></trkpt><trkpt lat="-19.912760306089965" lon="120.46443156083966"><ele>25.0</ele><time>2026-04-24T01:55:13.001Z</time></trkpt><trkpt lat="-19.912697302113088" lon="120.46469989735016"><ele>26.0</ele><time>2026-04-24T01:55:14Z</time></trkpt><trkpt lat="-19.912634162280817" lon="120.46497267483917"><ele>26.0</ele><time>2026-04-24T01:55:15Z</time></trkpt><trkpt lat="-19.91256536367081" lon="120.46524577504606"><ele>26.0</ele><time>2026-04-24T01:55:16Z</time></trkpt><trkpt lat="-19.91249433443006" lon="120.4655200984527"><ele>25.5</ele><time>2026-04-24T01:55:17Z</time></trkpt><trkpt lat="-19.912422031476392" lon="120.46579248758457"><ele>25.0</ele><time>2026-04-24T01:55:18Z</time></trkpt><trkpt lat="-19.912350054171153" lon="120.46606154516665"><ele>24.5</ele><time>2026-04-24T01:55:19Z</time></trkpt><trkpt lat="-19.91228099756365" lon="120.46632905062148"><ele>24.0</ele><time>2026-04-24T01:55:20Z</time></trkpt><trkpt lat="-19.91221403510427" lon="120.46659782891605"><ele>24.0</ele><time>2026-04-24T01:55:21Z</time></trkpt><trkpt lat="-19.91214807372631" lon="120.46686434033867"><ele>24.0</ele><time>2026-04-24T01:55:22Z</time></trkpt><trkpt lat="-19.91208277684276" lon="120.46712983316995"><ele>24.5</ele><time>2026-04-24T01:55:23Z</time></trkpt><trkpt lat="-19.91201569257532" lon="120.4674015728167"><ele>25.0</ele><time>2026-04-24T01:55:24Z</time></trkpt><trkpt lat="-19.9119481760393" lon="120.46767326812419"><ele>25.0</ele><time>2026-04-24T01:55:25Z</time></trkpt><trkpt lat="-19.911880286455823" lon="120.46794218998824"><ele>25.0</ele><time>2026-04-24T01:55:26Z</time></trkpt><trkpt lat="-19.911812842407173" lon="120.46820537051757"><ele>25.0</ele><time>2026-04-24T01:55:27Z</time></trkpt><trkpt lat="-19.91174830093643" lon="120.46846769566568"><ele>25.0</ele><time>2026-04-24T01:55:28Z</time></trkpt><trkpt lat="-19.911681171427507" lon="120.46872956404768"><ele>24.5</ele><time>2026-04-24T01:55:29Z</time></trkpt><trkpt lat="-19.911614154108538" lon="120.46898912026678"><ele>24.0</ele><time>2026-04-24T01:55:30Z</time></trkpt><trkpt lat="-19.911550025271463" lon="120.46924757338734"><ele>24.0</ele><time>2026-04-24T01:55:31Z</time></trkpt><trkpt lat="-19.91148820592006" lon="120.46950209513516"><ele>24.0</ele><time>2026-04-24T01:55:32Z</time></trkpt><trkpt lat="-19.911427045468383" lon="120.46975223446374"><ele>24.5</ele><time>2026-04-24T01:55:33Z</time></trkpt><trkpt lat="-19.91136690204004" lon="120.47000347979352"><ele>25.0</ele><time>2026-04-24T01:55:34Z</time></trkpt><trkpt lat="-19.911305476013435" lon="120.47026088716395"><ele>24.5</ele><time>2026-04-24T01:55:35Z</time></trkpt><trkpt lat="-19.911242355284166" lon="120.47052065241552"><ele>24.0</ele><time>2026-04-24T01:55:36Z</time></trkpt><trkpt lat="-19.911178246356744" lon="120.47078659161201"><ele>24.0</ele><time>2026-04-24T01:55:37Z</time></trkpt><trkpt lat="-19.91111007159284" lon="120.47105820646517"><ele>24.0</ele><time>2026-04-24T01:55:38Z</time></trkpt><trkpt lat="-19.911038429768137" lon="120.47133883958955"><ele>24.0</ele><time>2026-04-24T01:55:39Z</time></trkpt><trkpt lat="-19.910965661720883" lon="120.47162323078624"><ele>24.0</ele><time>2026-04-24T01:55:40Z</time></trkpt><trkpt lat="-19.91089369237122" lon="120.4719095808443"><ele>24.5</ele><time>2026-04-24T01:55:41Z</time></trkpt><trkpt lat="-19.9108221732899" lon="120.4721962674637"><ele>25.0</ele><time>2026-04-24T01:55:42Z</time></trkpt><trkpt lat="-19.91075212356515" lon="120.47248178116726"><ele>25.0</ele><time>2026-04-24T01:55:43Z</time></trkpt><trkpt lat="-19.910680922501214" lon="120.4727665838296"><ele>25.0</ele><time>2026-04-24T01:55:44Z</time></trkpt><trkpt lat="-19.910610084074943" lon="120.47304945669076"><ele>25.0</ele><time>2026-04-24T01:55:45Z</time></trkpt><trkpt lat="-19.91054038329828" lon="120.47333098068903"><ele>25.0</ele><time>2026-04-24T01:55:46Z</time></trkpt><trkpt lat="-19.91046846211246" lon="120.47361557066357"><ele>25.5</ele><time>2026-04-24T01:55:47Z</time></trkpt><trkpt lat="-19.91039260158058" lon="120.47389918586617"><ele>26.0</ele><time>2026-04-24T01:55:48Z</time></trkpt><trkpt lat="-19.91031674614593" lon="120.47418243639797"><ele>26.0</ele><time>2026-04-24T01:55:49Z</time></trkpt><trkpt lat="-19.910242213143984" lon="120.4744683887651"><ele>26.0</ele><time>2026-04-24T01:55:50Z</time></trkpt><trkpt lat="-19.910170479393393" lon="120.47475452448293"><ele>26.0</ele><time>2026-04-24T01:55:51Z</time></trkpt><trkpt lat="-19.91009719380347" lon="120.47504119707253"><ele>26.0</ele><time>2026-04-24T01:55:52Z</time></trkpt><trkpt lat="-19.91002413491102" lon="120.47532964619613"><ele>25.5</ele><time>2026-04-24T01:55:53Z</time></trkpt><trkpt lat="-19.909952443264242" lon="120.47562117344243"><ele>25.0</ele><time>2026-04-24T01:55:54Z</time></trkpt><trkpt lat="-19.90988179792135" lon="120.47591185504378"><ele>25.0</ele><time>2026-04-24T01:55:55Z</time></trkpt><trkpt lat="-19.909808838652214" lon="120.47620712148007"><ele>25.0</ele><time>2026-04-24T01:55:56Z</time></trkpt><trkpt lat="-19.909734678264286" lon="120.47650054697517"><ele>25.5</ele><time>2026-04-24T01:55:57Z</time></trkpt><trkpt lat="-19.909666797278035" lon="120.47677215293643"><ele>26.0</ele><time>2026-04-24T01:55:58Z</time></trkpt><trkpt lat="-19.909602519352603" lon="120.47703504213183"><ele>26.0</ele><time>2026-04-24T01:55:59Z</time></trkpt><trkpt lat="-19.909539405568292" lon="120.47729208185203"><ele>26.0</ele><time>2026-04-24T01:56:00Z</time></trkpt><trkpt lat="-19.90947566010055" lon="120.4775462989754"><ele>26.0</ele><time>2026-04-24T01:56:01Z</time></trkpt><trkpt lat="-19.90941236202368" lon="120.47780312063117"><ele>26.0</ele><time>2026-04-24T01:56:02Z</time></trkpt><trkpt lat="-19.909347294890587" lon="120.47806496537609"><ele>25.5</ele><time>2026-04-24T01:56:03Z</time></trkpt><trkpt lat="-19.909280243593006" lon="120.47833110158402"><ele>25.0</ele><time>2026-04-24T01:56:04Z</time></trkpt><trkpt lat="-19.909210253696507" lon="120.47859838134254"><ele>25.5</ele><time>2026-04-24T01:56:05Z</time></trkpt><trkpt lat="-19.909141039006407" lon="120.47886729618341"><ele>26.0</ele><time>2026-04-24T01:56:06Z</time></trkpt><trkpt lat="-19.909073396794348" lon="120.47913745076066"><ele>26.0</ele><time>2026-04-24T01:56:07Z</time></trkpt><trkpt lat="-19.909006521239675" lon="120.47940663551641"><ele>26.0</ele><time>2026-04-24T01:56:08Z</time></trkpt><trkpt lat="-19.908937101445424" lon="120.4796769612494"><ele>26.5</ele><time>2026-04-24T01:56:09Z</time></trkpt><trkpt lat="-19.908867648612674" lon="120.47995189100834"><ele>27.0</ele><time>2026-04-24T01:56:10Z</time></trkpt><trkpt lat="-19.908798275577546" lon="120.48022782399833"><ele>26.5</ele><time>2026-04-24T01:56:11Z</time></trkpt><trkpt lat="-19.908727789782716" lon="120.48050724886815"><ele>26.0</ele><time>2026-04-24T01:56:12Z</time></trkpt><trkpt lat="-19.908658069712672" lon="120.48078616190183"><ele>26.0</ele><time>2026-04-24T01:56:13Z</time></trkpt><trkpt lat="-19.908589828381572" lon="120.4810681393132"><ele>26.0</ele><time>2026-04-24T01:56:14Z</time></trkpt><trkpt lat="-19.90852353419529" lon="120.48134779756703"><ele>26.0</ele><time>2026-04-24T01:56:15Z</time></trkpt><trkpt lat="-19.908453475831248" lon="120.48162679787087"><ele>26.0</ele><time>2026-04-24T01:56:16Z</time></trkpt><trkpt lat="-19.908381156618265" lon="120.4819068044425"><ele>25.5</ele><time>2026-04-24T01:56:17Z</time></trkpt><trkpt lat="-19.908309312835435" lon="120.4821882555713"><ele>25.0</ele><time>2026-04-24T01:56:18Z</time></trkpt><trkpt lat="-19.908236946822633" lon="120.482470490289"><ele>25.0</ele><time>2026-04-24T01:56:19.001Z</time></trkpt><trkpt lat="-19.908164938148012" lon="120.48275617839094"><ele>25.0</ele><time>2026-04-24T01:56:20.001Z</time></trkpt><trkpt lat="-19.908092523013853" lon="120.48304416705099"><ele>24.5</ele><time>2026-04-24T01:56:21.001Z</time></trkpt><trkpt lat="-19.90802189573358" lon="120.48333298625434"><ele>24.0</ele><time>2026-04-24T01:56:22.001Z</time></trkpt><trkpt lat="-19.907950512971254" lon="120.48362463394345"><ele>23.5</ele><time>2026-04-24T01:56:23.001Z</time></trkpt><trkpt lat="-19.907877931308597" lon="120.48392072584394"><ele>23.0</ele><time>2026-04-24T01:56:24.001Z</time></trkpt><trkpt lat="-19.907803800976982" lon="120.48421699617472"><ele>23.0</ele><time>2026-04-24T01:56:25.001Z</time></trkpt><trkpt lat="-19.90772852477682" lon="120.48451520623564"><ele>23.0</ele><time>2026-04-24T01:56:26.001Z</time></trkpt><trkpt lat="-19.907653203945067" lon="120.48481276370258"><ele>24.0</ele><time>2026-04-24T01:56:27.001Z</time></trkpt><trkpt lat="-19.90757660425277" lon="120.48511081267543"><ele>25.0</ele><time>2026-04-24T01:56:28.001Z</time></trkpt><trkpt lat="-19.907504706617615" lon="120.48540240199458"><ele>24.5</ele><time>2026-04-24T01:56:29.001Z</time></trkpt><trkpt lat="-19.907432472783178" lon="120.48569212109108"><ele>24.0</ele><time>2026-04-24T01:56:30.001Z</time></trkpt><trkpt lat="-19.90736082970202" lon="120.48598028353308"><ele>24.5</ele><time>2026-04-24T01:56:31.001Z</time></trkpt><trkpt lat="-19.907287858976545" lon="120.48627016823065"><ele>25.0</ele><time>2026-04-24T01:56:32.001Z</time></trkpt><trkpt lat="-19.90721552362846" lon="120.48655877504045"><ele>25.0</ele><time>2026-04-24T01:56:33.001Z</time></trkpt><trkpt lat="-19.907143976524722" lon="120.48684726575021"><ele>25.0</ele><time>2026-04-24T01:56:34.001Z</time></trkpt><trkpt lat="-19.907072323634754" lon="120.4871361159053"><ele>24.5</ele><time>2026-04-24T01:56:35.001Z</time></trkpt><trkpt lat="-19.90699687417345" lon="120.4874311892995"><ele>24.0</ele><time>2026-04-24T01:56:36.001Z</time></trkpt><trkpt lat="-19.906920224261675" lon="120.48772872635298"><ele>23.5</ele><time>2026-04-24T01:56:37.001Z</time></trkpt><trkpt lat="-19.90684463238383" lon="120.48802443999568"><ele>23.0</ele><time>2026-04-24T01:56:38.001Z</time></trkpt><trkpt lat="-19.906768471182556" lon="120.48831571597002"><ele>23.0</ele><time>2026-04-24T01:56:39.001Z</time></trkpt><trkpt lat="-19.906694068108553" lon="120.48860383136999"><ele>23.0</ele><time>2026-04-24T01:56:40.001Z</time></trkpt><trkpt lat="-19.906621418734886" lon="120.48889402371599"><ele>23.5</ele><time>2026-04-24T01:56:41.001Z</time></trkpt><trkpt lat="-19.906552607258913" lon="120.48918279836809"><ele>24.0</ele><time>2026-04-24T01:56:42.001Z</time></trkpt><trkpt lat="-19.90648186110359" lon="120.48947335861402"><ele>24.0</ele><time>2026-04-24T01:56:43.001Z</time></trkpt><trkpt lat="-19.906408864932033" lon="120.48976721869673"><ele>24.0</ele><time>2026-04-24T01:56:44.001Z</time></trkpt><trkpt lat="-19.906334018698416" lon="120.49006223592762"><ele>24.0</ele><time>2026-04-24T01:56:45.001Z</time></trkpt><trkpt lat="-19.906261329588556" lon="120.4903548093696"><ele>24.0</ele><time>2026-04-24T01:56:46.001Z</time></trkpt><trkpt lat="-19.906187928809395" lon="120.49064981040866"><ele>23.0</ele><time>2026-04-24T01:56:47.001Z</time></trkpt><trkpt lat="-19.906115710753333" lon="120.4909462506124"><ele>22.0</ele><time>2026-04-24T01:56:48.001Z</time></trkpt><trkpt lat="-19.906041721607306" lon="120.49124914251968"><ele>22.5</ele><time>2026-04-24T01:56:49.001Z</time></trkpt><trkpt lat="-19.90596904795487" lon="120.49155335866193"><ele>23.0</ele><time>2026-04-24T01:56:50.001Z</time></trkpt><trkpt lat="-19.90589639597016" lon="120.49185974704828"><ele>23.0</ele><time>2026-04-24T01:56:51.001Z</time></trkpt><trkpt lat="-19.905821441479844" lon="120.49216215383137"><ele>23.0</ele><time>2026-04-24T01:56:52.001Z</time></trkpt><trkpt lat="-19.90574549053498" lon="120.49245893798388"><ele>23.0</ele><time>2026-04-24T01:56:53.001Z</time></trkpt><trkpt lat="-19.905670405684145" lon="120.49275292758418"><ele>23.0</ele><time>2026-04-24T01:56:54.001Z</time></trkpt><trkpt lat="-19.905594161634117" lon="120.49304975799816"><ele>23.5</ele><time>2026-04-24T01:56:55.001Z</time></trkpt><trkpt lat="-19.905517412905922" lon="120.49334663606655"><ele>24.0</ele><time>2026-04-24T01:56:56.001Z</time></trkpt><trkpt lat="-19.90544135833999" lon="120.49364052412766"><ele>24.5</ele><time>2026-04-24T01:56:57.001Z</time></trkpt><trkpt lat="-19.90536650298118" lon="120.4939316141106"><ele>25.0</ele><time>2026-04-24T01:56:58.001Z</time></trkpt><trkpt lat="-19.905292899345614" lon="120.49422397564395"><ele>25.0</ele><time>2026-04-24T01:56:59.001Z</time></trkpt><trkpt lat="-19.905219995603858" lon="120.49451757531602"><ele>25.0</ele><time>2026-04-24T01:57:00.001Z</time></trkpt><trkpt lat="-19.905145846058648" lon="120.49481485343624"><ele>25.5</ele><time>2026-04-24T01:57:01.001Z</time></trkpt><trkpt lat="-19.905072119159918" lon="120.49511208223896"><ele>26.0</ele><time>2026-04-24T01:57:02.001Z</time></trkpt><trkpt lat="-19.904998590166304" lon="120.495406471489"><ele>25.5</ele><time>2026-04-24T01:57:03.001Z</time></trkpt><trkpt lat="-19.904923269629517" lon="120.49570128078398"><ele>25.0</ele><time>2026-04-24T01:57:04.001Z</time></trkpt><trkpt lat="-19.90484890244801" lon="120.49599589813491"><ele>25.0</ele><time>2026-04-24T01:57:05.001Z</time></trkpt><trkpt lat="-19.90477226032488" lon="120.49628987342601"><ele>25.0</ele><time>2026-04-24T01:57:06.001Z</time></trkpt><trkpt lat="-19.904697246062085" lon="120.49658434686276"><ele>25.0</ele><time>2026-04-24T01:57:07.001Z</time></trkpt><trkpt lat="-19.90462329527147" lon="120.4968808006089"><ele>25.0</ele><time>2026-04-24T01:57:08.001Z</time></trkpt><trkpt lat="-19.904548126805818" lon="120.49717976719504"><ele>24.5</ele><time>2026-04-24T01:57:09.001Z</time></trkpt><trkpt lat="-19.9044739247139" lon="120.49747448427453"><ele>24.0</ele><time>2026-04-24T01:57:10.001Z</time></trkpt><trkpt lat="-19.904401366842535" lon="120.49776952485759"><ele>24.5</ele><time>2026-04-24T01:57:11.001Z</time></trkpt><trkpt lat="-19.9043295351221" lon="120.49806445225772"><ele>25.0</ele><time>2026-04-24T01:57:12.001Z</time></trkpt><trkpt lat="-19.904256073979674" lon="120.49835833414183"><ele>25.0</ele><time>2026-04-24T01:57:13.001Z</time></trkpt><trkpt lat="-19.904181260312527" lon="120.49865260849673"><ele>25.0</ele><time>2026-04-24T01:57:14.001Z</time></trkpt><trkpt lat="-19.904107051969063" lon="120.49894665358123"><ele>25.0</ele><time>2026-04-24T01:57:15.001Z</time></trkpt><trkpt lat="-19.90403262758992" lon="120.49924223800545"><ele>25.0</ele><time>2026-04-24T01:57:16.001Z</time></trkpt><trkpt lat="-19.90395849552605" lon="120.49954058813242"><ele>25.0</ele><time>2026-04-24T01:57:17.001Z</time></trkpt><trkpt lat="-19.903885571724125" lon="120.4998396611015"><ele>25.0</ele><time>2026-04-24T01:57:18.001Z</time></trkpt><trkpt lat="-19.903811586517904" lon="120.50013788053172"><ele>25.5</ele><time>2026-04-24T01:57:19.001Z</time></trkpt><trkpt lat="-19.90373560485686" lon="120.5004336977835"><ele>26.0</ele><time>2026-04-24T01:57:20Z</time></trkpt><trkpt lat="-19.903659735277245" lon="120.50072688124402"><ele>26.0</ele><time>2026-04-24T01:57:21Z</time></trkpt><trkpt lat="-19.903585476389537" lon="120.50101652695146"><ele>26.0</ele><time>2026-04-24T01:57:22Z</time></trkpt><trkpt lat="-19.903511027054364" lon="120.50130446970445"><ele>26.0</ele><time>2026-04-24T01:57:23Z</time></trkpt><trkpt lat="-19.903438397895716" lon="120.5015891451968"><ele>26.0</ele><time>2026-04-24T01:57:24Z</time></trkpt><trkpt lat="-19.903367206731154" lon="120.50187306265867"><ele>26.0</ele><time>2026-04-24T01:57:25Z</time></trkpt><trkpt lat="-19.90329502756605" lon="120.50215871576789"><ele>26.0</ele><time>2026-04-24T01:57:26Z</time></trkpt><trkpt lat="-19.90322426863904" lon="120.502443911875"><ele>26.0</ele><time>2026-04-24T01:57:27Z</time></trkpt><trkpt lat="-19.90315139074803" lon="120.50273220360522"><ele>26.0</ele><time>2026-04-24T01:57:28Z</time></trkpt><trkpt lat="-19.903080654854932" lon="120.50302168583671"><ele>26.0</ele><time>2026-04-24T01:57:29Z</time></trkpt><trkpt lat="-19.903007951719715" lon="120.50331330173555"><ele>26.0</ele><time>2026-04-24T01:57:30Z</time></trkpt><trkpt lat="-19.902934534907295" lon="120.50360700725085"><ele>26.5</ele><time>2026-04-24T01:57:31Z</time></trkpt><trkpt lat="-19.90286020016099" lon="120.50390119942423"><ele>27.0</ele><time>2026-04-24T01:57:32Z</time></trkpt><trkpt lat="-19.902786820665455" lon="120.50419564387506"><ele>27.0</ele><time>2026-04-24T01:57:33Z</time></trkpt><trkpt lat="-19.90271294091934" lon="120.50448900613343"><ele>27.0</ele><time>2026-04-24T01:57:34Z</time></trkpt><trkpt lat="-19.90263884538237" lon="120.50478192096901"><ele>26.5</ele><time>2026-04-24T01:57:35Z</time></trkpt><trkpt lat="-19.90256572908402" lon="120.50508119064327"><ele>26.0</ele><time>2026-04-24T01:57:36Z</time></trkpt><trkpt lat="-19.90249453377326" lon="120.50537980135381"><ele>26.0</ele><time>2026-04-24T01:57:37Z</time></trkpt><trkpt lat="-19.902419890275418" lon="120.50567956546222"><ele>26.0</ele><time>2026-04-24T01:57:38Z</time></trkpt><trkpt lat="-19.902344732464687" lon="120.50597696541631"><ele>25.5</ele><time>2026-04-24T01:57:39Z</time></trkpt><trkpt lat="-19.902270743920667" lon="120.50627070061299"><ele>25.0</ele><time>2026-04-24T01:57:40Z</time></trkpt><trkpt lat="-19.902199111470733" lon="120.50656207659061"><ele>25.0</ele><time>2026-04-24T01:57:41Z</time></trkpt><trkpt lat="-19.902132220673874" lon="120.50685245434194"><ele>25.0</ele><time>2026-04-24T01:57:42Z</time></trkpt><trkpt lat="-19.902064750094816" lon="120.507143791305"><ele>26.0</ele><time>2026-04-24T01:57:43Z</time></trkpt><trkpt lat="-19.90199244362896" lon="120.5074326084288"><ele>27.0</ele><time>2026-04-24T01:57:44Z</time></trkpt><trkpt lat="-19.901915507930553" lon="120.50771747673872"><ele>27.5</ele><time>2026-04-24T01:57:45Z</time></trkpt><trkpt lat="-19.901839816468616" lon="120.50799880915535"><ele>28.0</ele><time>2026-04-24T01:57:46Z</time></trkpt><trkpt lat="-19.901767204940466" lon="120.50827999601067"><ele>28.0</ele><time>2026-04-24T01:57:47Z</time></trkpt><trkpt lat="-19.901696189835572" lon="120.50856121413634"><ele>28.0</ele><time>2026-04-24T01:57:48Z</time></trkpt><trkpt lat="-19.901623420319684" lon="120.50884390134374"><ele>28.0</ele><time>2026-04-24T01:57:49Z</time></trkpt><trkpt lat="-19.901551987944714" lon="120.5091245063594"><ele>28.0</ele><time>2026-04-24T01:57:50Z</time></trkpt><trkpt lat="-19.9014811177739" lon="120.50940680401257"><ele>28.5</ele><time>2026-04-24T01:57:51Z</time></trkpt><trkpt lat="-19.901413311659468" lon="120.50968700092194"><ele>29.0</ele><time>2026-04-24T01:57:52Z</time></trkpt><trkpt lat="-19.90134139835742" lon="120.50996894294303"><ele>29.0</ele><time>2026-04-24T01:57:53Z</time></trkpt><trkpt lat="-19.90126830380747" lon="120.51025176904851"><ele>29.0</ele><time>2026-04-24T01:57:54Z</time></trkpt><trkpt lat="-19.901196510467518" lon="120.51053337533905"><ele>28.5</ele><time>2026-04-24T01:57:55Z</time></trkpt><trkpt lat="-19.90112538551918" lon="120.51081624553962"><ele>28.0</ele><time>2026-04-24T01:57:56Z</time></trkpt><trkpt lat="-19.90105475551046" lon="120.51110028759332"><ele>28.0</ele><time>2026-04-24T01:57:57Z</time></trkpt><trkpt lat="-19.900984255745296" lon="120.51138651613905"><ele>28.0</ele><time>2026-04-24T01:57:58Z</time></trkpt><trkpt lat="-19.90091321208097" lon="120.51167322158709"><ele>28.0</ele><time>2026-04-24T01:57:59Z</time></trkpt><trkpt lat="-19.900840541831343" lon="120.51195390423378"><ele>28.0</ele><time>2026-04-24T01:58:00Z</time></trkpt><trkpt lat="-19.900767781762816" lon="120.51223169549999"><ele>28.0</ele><time>2026-04-24T01:58:01Z</time></trkpt><trkpt lat="-19.900697755201698" lon="120.51250755876472"><ele>28.0</ele><time>2026-04-24T01:58:02Z</time></trkpt><trkpt lat="-19.90063273037125" lon="120.51278082377965"><ele>28.5</ele><time>2026-04-24T01:58:03Z</time></trkpt><trkpt lat="-19.900570459550522" lon="120.51305275217814"><ele>29.0</ele><time>2026-04-24T01:58:04Z</time></trkpt><trkpt lat="-19.90050552032944" lon="120.51332461573242"><ele>29.0</ele><time>2026-04-24T01:58:05Z</time></trkpt><trkpt lat="-19.90043628805995" lon="120.51360192576652"><ele>29.0</ele><time>2026-04-24T01:58:06Z</time></trkpt><trkpt lat="-19.90036603684846" lon="120.51387688609363"><ele>28.5</ele><time>2026-04-24T01:58:07Z</time></trkpt><trkpt lat="-19.900293573403" lon="120.51415244842184"><ele>28.0</ele><time>2026-04-24T01:58:08Z</time></trkpt><trkpt lat="-19.9002221267338" lon="120.51443202346522"><ele>28.0</ele><time>2026-04-24T01:58:09Z</time></trkpt><trkpt lat="-19.900150453114687" lon="120.5147098245636"><ele>28.0</ele><time>2026-04-24T01:58:10Z</time></trkpt><trkpt lat="-19.900075496465483" lon="120.51498623441513"><ele>28.0</ele><time>2026-04-24T01:58:11Z</time></trkpt><trkpt lat="-19.90000366629106" lon="120.51526019833857"><ele>28.0</ele><time>2026-04-24T01:58:12Z</time></trkpt><trkpt lat="-19.899935295819414" lon="120.51553770749736"><ele>28.5</ele><time>2026-04-24T01:58:13Z</time></trkpt><trkpt lat="-19.899869385914613" lon="120.51581721727452"><ele>29.0</ele><time>2026-04-24T01:58:14.001Z</time></trkpt><trkpt lat="-19.899803453240654" lon="120.51609895482821"><ele>28.5</ele><time>2026-04-24T01:58:15.001Z</time></trkpt><trkpt lat="-19.899736550276142" lon="120.51638450245682"><ele>28.0</ele><time>2026-04-24T01:58:16.001Z</time></trkpt><trkpt lat="-19.899666402815377" lon="120.51666787385855"><ele>28.0</ele><time>2026-04-24T01:58:17.001Z</time></trkpt><trkpt lat="-19.89959120498366" lon="120.51694975070114"><ele>28.0</ele><time>2026-04-24T01:58:18.001Z</time></trkpt><trkpt lat="-19.8995128749889" lon="120.51723477146378"><ele>28.0</ele><time>2026-04-24T01:58:19.001Z</time></trkpt><trkpt lat="-19.89943636797405" lon="120.51751745482743"><ele>28.0</ele><time>2026-04-24T01:58:20.001Z</time></trkpt><trkpt lat="-19.89936321284041" lon="120.51779951613229"><ele>28.0</ele><time>2026-04-24T01:58:21.001Z</time></trkpt><trkpt lat="-19.8992939440223" lon="120.51808290588595"><ele>28.0</ele><time>2026-04-24T01:58:22.001Z</time></trkpt><trkpt lat="-19.899227383378395" lon="120.51836727662706"><ele>28.0</ele><time>2026-04-24T01:58:23.001Z</time></trkpt><trkpt lat="-19.899159926286256" lon="120.51865135853818"><ele>28.0</ele><time>2026-04-24T01:58:24.001Z</time></trkpt><trkpt lat="-19.89908974014545" lon="120.51893638717208"><ele>28.5</ele><time>2026-04-24T01:58:25.001Z</time></trkpt><trkpt lat="-19.899018193757843" lon="120.51922133870838"><ele>29.0</ele><time>2026-04-24T01:58:26.001Z</time></trkpt><trkpt lat="-19.89894855643858" lon="120.51950526740866"><ele>28.5</ele><time>2026-04-24T01:58:27.001Z</time></trkpt><trkpt lat="-19.89887621938467" lon="120.51979056967967"><ele>28.0</ele><time>2026-04-24T01:58:28.001Z</time></trkpt><trkpt lat="-19.898804429148466" lon="120.52007555496432"><ele>28.0</ele><time>2026-04-24T01:58:29.001Z</time></trkpt><trkpt lat="-19.898734107380083" lon="120.52035969112657"><ele>28.0</ele><time>2026-04-24T01:58:30.001Z</time></trkpt><trkpt lat="-19.89866203815737" lon="120.52064448542545"><ele>28.5</ele><time>2026-04-24T01:58:31.001Z</time></trkpt><trkpt lat="-19.898590558842944" lon="120.52092594835625"><ele>29.0</ele><time>2026-04-24T01:58:32.001Z</time></trkpt><trkpt lat="-19.89851945395743" lon="120.52121020030152"><ele>29.0</ele><time>2026-04-24T01:58:33.001Z</time></trkpt><trkpt lat="-19.8984467830288" lon="120.52149653434672"><ele>29.0</ele><time>2026-04-24T01:58:34.001Z</time></trkpt><trkpt lat="-19.898375260431266" lon="120.52178290704705"><ele>28.5</ele><time>2026-04-24T01:58:35.001Z</time></trkpt><trkpt lat="-19.898305626842195" lon="120.52206580596831"><ele>28.0</ele><time>2026-04-24T01:58:36.001Z</time></trkpt><trkpt lat="-19.898235752193507" lon="120.52234866023133"><ele>28.0</ele><time>2026-04-24T01:58:37.001Z</time></trkpt><trkpt lat="-19.898165381484908" lon="120.52263025329185"><ele>28.0</ele><time>2026-04-24T01:58:38.001Z</time></trkpt><trkpt lat="-19.898092797859707" lon="120.52290984742962"><ele>28.5</ele><time>2026-04-24T01:58:39.001Z</time></trkpt><trkpt lat="-19.8980198256567" lon="120.523188743027"><ele>29.0</ele><time>2026-04-24T01:58:40.001Z</time></trkpt><trkpt lat="-19.89794837290772" lon="120.5234680147084"><ele>28.5</ele><time>2026-04-24T01:58:41.001Z</time></trkpt><trkpt lat="-19.89787717879163" lon="120.52374508860329"><ele>28.0</ele><time>2026-04-24T01:58:42.001Z</time></trkpt><trkpt lat="-19.89780682096462" lon="120.52402265437244"><ele>28.0</ele><time>2026-04-24T01:58:43.001Z</time></trkpt><trkpt lat="-19.897736464363515" lon="120.52430348336742"><ele>28.0</ele><time>2026-04-24T01:58:44.001Z</time></trkpt><trkpt lat="-19.89766764243509" lon="120.52458221342302"><ele>28.5</ele><time>2026-04-24T01:58:45.001Z</time></trkpt><trkpt lat="-19.897598444033157" lon="120.52486366256572"><ele>29.0</ele><time>2026-04-24T01:58:46.001Z</time></trkpt><trkpt lat="-19.89752776500108" lon="120.52514747760398"><ele>29.0</ele><time>2026-04-24T01:58:47.001Z</time></trkpt><trkpt lat="-19.897453065341168" lon="120.52543173526003"><ele>29.0</ele><time>2026-04-24T01:58:48.001Z</time></trkpt><trkpt lat="-19.897372862775864" lon="120.52571295582365"><ele>29.0</ele><time>2026-04-24T01:58:49.001Z</time></trkpt><trkpt lat="-19.89729045890767" lon="120.52598911835618"><ele>29.0</ele><time>2026-04-24T01:58:50.001Z</time></trkpt><trkpt lat="-19.897205761182242" lon="120.52626329176469"><ele>30.0</ele><time>2026-04-24T01:58:51.001Z</time></trkpt><trkpt lat="-19.89712084917827" lon="120.52653617760821"><ele>31.0</ele><time>2026-04-24T01:58:52.001Z</time></trkpt><trkpt lat="-19.89703147233689" lon="120.52680853821451"><ele>31.0</ele><time>2026-04-24T01:58:53.001Z</time></trkpt><trkpt lat="-19.89693968120884" lon="120.52707988672415"><ele>31.0</ele><time>2026-04-24T01:58:54.001Z</time></trkpt><trkpt lat="-19.896843817389573" lon="120.5273516360779"><ele>30.5</ele><time>2026-04-24T01:58:55.001Z</time></trkpt><trkpt lat="-19.89674414211435" lon="120.52762649386545"><ele>30.0</ele><time>2026-04-24T01:58:56.001Z</time></trkpt><trkpt lat="-19.896641210035888" lon="120.52790606102477"><ele>30.0</ele><time>2026-04-24T01:58:57.001Z</time></trkpt><trkpt lat="-19.89653714718195" lon="120.52818126112702"><ele>30.0</ele><time>2026-04-24T01:58:58.001Z</time></trkpt><trkpt lat="-19.896430907594148" lon="120.52845519462939"><ele>30.0</ele><time>2026-04-24T01:58:59.001Z</time></trkpt><trkpt lat="-19.896322246102994" lon="120.52872802736108"><ele>30.0</ele><time>2026-04-24T01:59:00.001Z</time></trkpt><trkpt lat="-19.896209515369275" lon="120.52899947789345"><ele>30.0</ele><time>2026-04-24T01:59:01.001Z</time></trkpt><trkpt lat="-19.896094626992728" lon="120.52927098440284"><ele>30.0</ele><time>2026-04-24T01:59:02.001Z</time></trkpt><trkpt lat="-19.89597907601498" lon="120.52954064473525"><ele>29.5</ele><time>2026-04-24T01:59:03.001Z</time></trkpt><trkpt lat="-19.895862550174208" lon="120.5298110408958"><ele>29.0</ele><time>2026-04-24T01:59:04.001Z</time></trkpt><trkpt lat="-19.89574473341811" lon="120.53008021312608"><ele>29.0</ele><time>2026-04-24T01:59:05.001Z</time></trkpt><trkpt lat="-19.895627262927636" lon="120.53035182813555"><ele>29.0</ele><time>2026-04-24T01:59:06.001Z</time></trkpt><trkpt lat="-19.895512092045053" lon="120.53062218703532"><ele>28.5</ele><time>2026-04-24T01:59:07.001Z</time></trkpt><trkpt lat="-19.895395585043335" lon="120.53089110912279"><ele>28.0</ele><time>2026-04-24T01:59:08.001Z</time></trkpt><trkpt lat="-19.895278780860025" lon="120.53115791463405"><ele>28.0</ele><time>2026-04-24T01:59:09.001Z</time></trkpt><trkpt lat="-19.895161721481507" lon="120.53142773860584"><ele>28.0</ele><time>2026-04-24T01:59:10.001Z</time></trkpt><trkpt lat="-19.895045993292374" lon="120.53170014631947"><ele>28.0</ele><time>2026-04-24T01:59:11.001Z</time></trkpt><trkpt lat="-19.8949314889085" lon="120.5319688545021"><ele>28.0</ele><time>2026-04-24T01:59:12.001Z</time></trkpt><trkpt lat="-19.894815024882476" lon="120.53223798195224"><ele>28.0</ele><time>2026-04-24T01:59:13.001Z</time></trkpt><trkpt lat="-19.89469993049816" lon="120.5325051274856"><ele>28.0</ele><time>2026-04-24T01:59:14.001Z</time></trkpt><trkpt lat="-19.89458627658355" lon="120.53277011783733"><ele>28.0</ele><time>2026-04-24T01:59:15.001Z</time></trkpt><trkpt lat="-19.89447119281101" lon="120.53303979764502"><ele>28.0</ele><time>2026-04-24T01:59:16.001Z</time></trkpt><trkpt lat="-19.89435572031706" lon="120.53330728508602"><ele>27.5</ele><time>2026-04-24T01:59:17.001Z</time></trkpt><trkpt lat="-19.894238971512305" lon="120.53357564658552"><ele>27.0</ele><time>2026-04-24T01:59:18.001Z</time></trkpt><trkpt lat="-19.89412324365444" lon="120.53384251644303"><ele>26.5</ele><time>2026-04-24T01:59:19.001Z</time></trkpt><trkpt lat="-19.89400737720752" lon="120.53410970773565"><ele>26.0</ele><time>2026-04-24T01:59:20.001Z</time></trkpt><trkpt lat="-19.893892692670995" lon="120.5343744790808"><ele>25.5</ele><time>2026-04-24T01:59:21.001Z</time></trkpt><trkpt lat="-19.89377818669413" lon="120.5346388664238"><ele>25.0</ele><time>2026-04-24T01:59:22.001Z</time></trkpt><trkpt lat="-19.89366201580052" lon="120.5349042777654"><ele>25.0</ele><time>2026-04-24T01:59:23.001Z</time></trkpt><trkpt lat="-19.893545977790524" lon="120.53517533221977"><ele>25.0</ele><time>2026-04-24T01:59:24.001Z</time></trkpt><trkpt lat="-19.89343245316577" lon="120.53544716864695"><ele>26.0</ele><time>2026-04-24T01:59:25.001Z</time></trkpt><trkpt lat="-19.89331927471223" lon="120.5357193258834"><ele>27.0</ele><time>2026-04-24T01:59:26Z</time></trkpt><trkpt lat="-19.89320390013327" lon="120.53599472547891"><ele>27.0</ele><time>2026-04-24T01:59:27Z</time></trkpt><trkpt lat="-19.89308550020851" lon="120.53627429742905"><ele>27.0</ele><time>2026-04-24T01:59:28Z</time></trkpt><trkpt lat="-19.892967836341292" lon="120.53655046955562"><ele>27.0</ele><time>2026-04-24T01:59:29Z</time></trkpt><trkpt lat="-19.892848873937414" lon="120.53682492782873"><ele>27.0</ele><time>2026-04-24T01:59:30Z</time></trkpt><trkpt lat="-19.892728915271782" lon="120.53710067643776"><ele>27.0</ele><time>2026-04-24T01:59:31Z</time></trkpt><trkpt lat="-19.892610877066875" lon="120.53737602958991"><ele>27.0</ele><time>2026-04-24T01:59:32Z</time></trkpt><trkpt lat="-19.89249292681705" lon="120.53765264592943"><ele>27.5</ele><time>2026-04-24T01:59:33Z</time></trkpt><trkpt lat="-19.89237505937406" lon="120.53792901892055"><ele>28.0</ele><time>2026-04-24T01:59:34Z</time></trkpt><trkpt lat="-19.892257767549538" lon="120.53820319346322"><ele>28.0</ele><time>2026-04-24T01:59:35Z</time></trkpt><trkpt lat="-19.892139971044568" lon="120.53847396411692"><ele>28.0</ele><time>2026-04-24T01:59:36Z</time></trkpt><trkpt lat="-19.892022437077156" lon="120.5387429912392"><ele>28.0</ele><time>2026-04-24T01:59:37Z</time></trkpt><trkpt lat="-19.89190506805302" lon="120.53900941044347"><ele>28.0</ele><time>2026-04-24T01:59:38Z</time></trkpt><trkpt lat="-19.891789240820017" lon="120.53927156005797"><ele>28.0</ele><time>2026-04-24T01:59:39Z</time></trkpt><trkpt lat="-19.891672651097764" lon="120.53953640431655"><ele>28.0</ele><time>2026-04-24T01:59:40Z</time></trkpt><trkpt lat="-19.891558318282758" lon="120.53980187957222"><ele>28.0</ele><time>2026-04-24T01:59:41Z</time></trkpt><trkpt lat="-19.891445823200307" lon="120.54006816072197"><ele>28.0</ele><time>2026-04-24T01:59:42Z</time></trkpt><trkpt lat="-19.891333519704176" lon="120.540335683405"><ele>28.0</ele><time>2026-04-24T01:59:43Z</time></trkpt><trkpt lat="-19.891220144774206" lon="120.54060573069441"><ele>28.0</ele><time>2026-04-24T01:59:44Z</time></trkpt><trkpt lat="-19.89110589528341" lon="120.54087221100558"><ele>28.0</ele><time>2026-04-24T01:59:45Z</time></trkpt><trkpt lat="-19.890990311786638" lon="120.54113746544144"><ele>28.0</ele><time>2026-04-24T01:59:46Z</time></trkpt><trkpt lat="-19.890871636855575" lon="120.54140780147418"><ele>27.0</ele><time>2026-04-24T01:59:47Z</time></trkpt><trkpt lat="-19.890750298532964" lon="120.54168088716956"><ele>26.0</ele><time>2026-04-24T01:59:48Z</time></trkpt><trkpt lat="-19.890627870554177" lon="120.54195673737276"><ele>26.5</ele><time>2026-04-24T01:59:49Z</time></trkpt><trkpt lat="-19.890506036653537" lon="120.54223477808017"><ele>27.0</ele><time>2026-04-24T01:59:50Z</time></trkpt><trkpt lat="-19.890386560581568" lon="120.54251077684731"><ele>27.0</ele><time>2026-04-24T01:59:51Z</time></trkpt><trkpt lat="-19.89026935325217" lon="120.5427856881083"><ele>27.0</ele><time>2026-04-24T01:59:52Z</time></trkpt><trkpt lat="-19.890150326153936" lon="120.54306001775242"><ele>26.5</ele><time>2026-04-24T01:59:53Z</time></trkpt><trkpt lat="-19.890033325305428" lon="120.54333102065951"><ele>26.0</ele><time>2026-04-24T01:59:54Z</time></trkpt><trkpt lat="-19.889916733592543" lon="120.5436054960407"><ele>26.0</ele><time>2026-04-24T01:59:55Z</time></trkpt><trkpt lat="-19.889802400042946" lon="120.54387750936743"><ele>26.0</ele><time>2026-04-24T01:59:56Z</time></trkpt><trkpt lat="-19.889687269895933" lon="120.54414988995208"><ele>26.0</ele><time>2026-04-24T01:59:57Z</time></trkpt><trkpt lat="-19.889572806938695" lon="120.54442318290542"><ele>26.0</ele><time>2026-04-24T01:59:58Z</time></trkpt><trkpt lat="-19.88945613071909" lon="120.54469708489866"><ele>26.5</ele><time>2026-04-24T01:59:59Z</time></trkpt><trkpt lat="-19.889338377031343" lon="120.54496793784965"><ele>27.0</ele><time>2026-04-24T02:00:00Z</time></trkpt><trkpt lat="-19.889226695254504" lon="120.54522285749186"><ele>27.0</ele><time>2026-04-24T02:00:01Z</time></trkpt><trkpt lat="-19.889118514419366" lon="120.54547114654427"><ele>27.0</ele><time>2026-04-24T02:00:02Z</time></trkpt><trkpt lat="-19.889006808237458" lon="120.545732049997"><ele>27.0</ele><time>2026-04-24T02:00:03Z</time></trkpt><trkpt lat="-19.88889454372454" lon="120.54599596555128"><ele>27.0</ele><time>2026-04-24T02:00:04Z</time></trkpt><trkpt lat="-19.8887785601401" lon="120.5462650924845"><ele>27.0</ele><time>2026-04-24T02:00:05Z</time></trkpt><trkpt lat="-19.888660693949703" lon="120.54654019781266"><ele>27.0</ele><time>2026-04-24T02:00:06Z</time></trkpt><trkpt lat="-19.888538825099623" lon="120.54681855118895"><ele>26.5</ele><time>2026-04-24T02:00:07Z</time></trkpt><trkpt lat="-19.888417229774703" lon="120.54709650941608"><ele>26.0</ele><time>2026-04-24T02:00:08Z</time></trkpt><trkpt lat="-19.888296965813574" lon="120.5473698989115"><ele>26.0</ele><time>2026-04-24T02:00:09Z</time></trkpt><trkpt lat="-19.88817817591645" lon="120.54763924225772"><ele>26.0</ele><time>2026-04-24T02:00:10Z</time></trkpt><trkpt lat="-19.88805980394542" lon="120.54791059070146"><ele>26.5</ele><time>2026-04-24T02:00:11Z</time></trkpt><trkpt lat="-19.887941173919245" lon="120.5481870036117"><ele>27.0</ele><time>2026-04-24T02:00:12Z</time></trkpt><trkpt lat="-19.887826743773214" lon="120.5484640095633"><ele>26.5</ele><time>2026-04-24T02:00:13Z</time></trkpt><trkpt lat="-19.887709974260684" lon="120.54874767923215"><ele>26.0</ele><time>2026-04-24T02:00:14Z</time></trkpt><trkpt lat="-19.88759155917591" lon="120.54903318600167"><ele>26.0</ele><time>2026-04-24T02:00:15Z</time></trkpt><trkpt lat="-19.88746980101693" lon="120.54931756039761"><ele>26.0</ele><time>2026-04-24T02:00:16Z</time></trkpt><trkpt lat="-19.887346068261504" lon="120.54960246851478"><ele>26.0</ele><time>2026-04-24T02:00:17Z</time></trkpt><trkpt lat="-19.88722384331469" lon="120.54988399552525"><ele>26.0</ele><time>2026-04-24T02:00:18Z</time></trkpt><trkpt lat="-19.887102227137003" lon="120.55016674037306"><ele>26.5</ele><time>2026-04-24T02:00:19Z</time></trkpt><trkpt lat="-19.88698057598826" lon="120.55044835720652"><ele>27.0</ele><time>2026-04-24T02:00:20Z</time></trkpt><trkpt lat="-19.886862274993664" lon="120.55072648527174"><ele>26.5</ele><time>2026-04-24T02:00:21Z</time></trkpt><trkpt lat="-19.886742220681864" lon="120.55100276054755"><ele>26.0</ele><time>2026-04-24T02:00:22Z</time></trkpt><trkpt lat="-19.886622020504486" lon="120.55127535210917"><ele>27.0</ele><time>2026-04-24T02:00:23Z</time></trkpt><trkpt lat="-19.886503221223272" lon="120.55154528924491"><ele>28.0</ele><time>2026-04-24T02:00:24Z</time></trkpt><trkpt lat="-19.886385770962875" lon="120.55181301512944"><ele>27.0</ele><time>2026-04-24T02:00:25Z</time></trkpt><trkpt lat="-19.886268662919196" lon="120.55207898965031"><ele>26.0</ele><time>2026-04-24T02:00:26Z</time></trkpt><trkpt lat="-19.88615206521439" lon="120.55234539891005"><ele>26.0</ele><time>2026-04-24T02:00:27Z</time></trkpt><trkpt lat="-19.88603972079508" lon="120.55261024836788"><ele>26.0</ele><time>2026-04-24T02:00:28Z</time></trkpt><trkpt lat="-19.885929542634365" lon="120.55287299368372"><ele>25.5</ele><time>2026-04-24T02:00:29Z</time></trkpt><trkpt lat="-19.88581911587217" lon="120.55313536111338"><ele>25.0</ele><time>2026-04-24T02:00:30Z</time></trkpt><trkpt lat="-19.885709360060282" lon="120.5533960058024"><ele>25.0</ele><time>2026-04-24T02:00:31Z</time></trkpt><trkpt lat="-19.885598949722063" lon="120.55365996812456"><ele>25.0</ele><time>2026-04-24T02:00:32Z</time></trkpt><trkpt lat="-19.885486368378466" lon="120.55392538517286"><ele>25.5</ele><time>2026-04-24T02:00:33Z</time></trkpt><trkpt lat="-19.885368050392728" lon="120.55419932042246"><ele>26.0</ele><time>2026-04-24T02:00:34Z</time></trkpt><trkpt lat="-19.885250393626613" lon="120.55447302401582"><ele>26.5</ele><time>2026-04-24T02:00:35Z</time></trkpt><trkpt lat="-19.885133492289622" lon="120.5547480426648"><ele>27.0</ele><time>2026-04-24T02:00:36Z</time></trkpt><trkpt lat="-19.885015052900165" lon="120.55502290066416"><ele>27.0</ele><time>2026-04-24T02:00:37Z</time></trkpt><trkpt lat="-19.88489546298536" lon="120.55529739390072"><ele>27.0</ele><time>2026-04-24T02:00:38Z</time></trkpt><trkpt lat="-19.884777284902064" lon="120.55557156119569"><ele>27.0</ele><time>2026-04-24T02:00:39Z</time></trkpt><trkpt lat="-19.884661850813522" lon="120.55584202577101"><ele>27.0</ele><time>2026-04-24T02:00:40Z</time></trkpt><trkpt lat="-19.88454510472996" lon="120.55611206710144"><ele>27.0</ele><time>2026-04-24T02:00:41.001Z</time></trkpt><trkpt lat="-19.88442396048414" lon="120.55638518127286"><ele>27.0</ele><time>2026-04-24T02:00:42.001Z</time></trkpt><trkpt lat="-19.884305918862367" lon="120.55665836318667"><ele>27.0</ele><time>2026-04-24T02:00:43.001Z</time></trkpt><trkpt lat="-19.884186669186203" lon="120.5569361020079"><ele>27.0</ele><time>2026-04-24T02:00:44.001Z</time></trkpt><trkpt lat="-19.884069026900697" lon="120.55721215147318"><ele>27.0</ele><time>2026-04-24T02:00:45.001Z</time></trkpt><trkpt lat="-19.88394954724464" lon="120.55748674302149"><ele>27.0</ele><time>2026-04-24T02:00:46.001Z</time></trkpt><trkpt lat="-19.88383196431622" lon="120.55775917320159"><ele>26.5</ele><time>2026-04-24T02:00:47.001Z</time></trkpt><trkpt lat="-19.883715887644094" lon="120.55803190400567"><ele>26.0</ele><time>2026-04-24T02:00:48.001Z</time></trkpt><trkpt lat="-19.883599594479215" lon="120.55830360267763"><ele>26.0</ele><time>2026-04-24T02:00:49.001Z</time></trkpt><trkpt lat="-19.88348192488068" lon="120.5585726639926"><ele>26.0</ele><time>2026-04-24T02:00:50.001Z</time></trkpt><trkpt lat="-19.883366087944623" lon="120.55884448549601"><ele>25.5</ele><time>2026-04-24T02:00:51.001Z</time></trkpt><trkpt lat="-19.883250252659657" lon="120.55911446290291"><ele>25.0</ele><time>2026-04-24T02:00:52.001Z</time></trkpt><trkpt lat="-19.88313257744029" lon="120.55938453745559"><ele>25.5</ele><time>2026-04-24T02:00:53.001Z</time></trkpt><trkpt lat="-19.883014053798394" lon="120.5596541870348"><ele>26.0</ele><time>2026-04-24T02:00:54.001Z</time></trkpt><trkpt lat="-19.88289788261799" lon="120.55992214868036"><ele>26.0</ele><time>2026-04-24T02:00:55.001Z</time></trkpt><trkpt lat="-19.882780882933265" lon="120.5601915811723"><ele>26.0</ele><time>2026-04-24T02:00:56.001Z</time></trkpt><trkpt lat="-19.882663726476896" lon="120.56046518216056"><ele>25.5</ele><time>2026-04-24T02:00:57.001Z</time></trkpt><trkpt lat="-19.88254821130324" lon="120.56073937895877"><ele>25.0</ele><time>2026-04-24T02:00:58.001Z</time></trkpt><trkpt lat="-19.882432288171763" lon="120.56101289461961"><ele>24.5</ele><time>2026-04-24T02:00:59.001Z</time></trkpt><trkpt lat="-19.882318323354482" lon="120.56128435940548"><ele>24.0</ele><time>2026-04-24T02:01:00.001Z</time></trkpt><trkpt lat="-19.882203077619902" lon="120.56155581987166"><ele>24.0</ele><time>2026-04-24T02:01:01.001Z</time></trkpt><trkpt lat="-19.882086958594158" lon="120.56182790736155"><ele>24.0</ele><time>2026-04-24T02:01:02.001Z</time></trkpt><trkpt lat="-19.881970178532267" lon="120.56210227136981"><ele>24.0</ele><time>2026-04-24T02:01:03.001Z</time></trkpt><trkpt lat="-19.881852565842223" lon="120.56237731223003"><ele>24.0</ele><time>2026-04-24T02:01:04.001Z</time></trkpt><trkpt lat="-19.881734447002444" lon="120.56265158565411"><ele>24.0</ele><time>2026-04-24T02:01:05.001Z</time></trkpt><trkpt lat="-19.881616107392777" lon="120.56292470616046"><ele>24.0</ele><time>2026-04-24T02:01:06.001Z</time></trkpt><trkpt lat="-19.881496908057986" lon="120.56319855186922"><ele>24.0</ele><time>2026-04-24T02:01:07.001Z</time></trkpt><trkpt lat="-19.881375425048454" lon="120.56347692063584"><ele>24.0</ele><time>2026-04-24T02:01:08.001Z</time></trkpt><trkpt lat="-19.881254403043176" lon="120.56375606341308"><ele>23.5</ele><time>2026-04-24T02:01:09.001Z</time></trkpt><trkpt lat="-19.88113555362896" lon="120.56403505695705"><ele>23.0</ele><time>2026-04-24T02:01:10.001Z</time></trkpt><trkpt lat="-19.881016218176846" lon="120.56431395760256"><ele>22.5</ele><time>2026-04-24T02:01:11.001Z</time></trkpt><trkpt lat="-19.88089720040672" lon="120.56459059629516"><ele>22.0</ele><time>2026-04-24T02:01:12.001Z</time></trkpt><trkpt lat="-19.880777826195164" lon="120.56486695506578"><ele>22.0</ele><time>2026-04-24T02:01:13.001Z</time></trkpt><trkpt lat="-19.880658716462847" lon="120.56514121366237"><ele>22.0</ele><time>2026-04-24T02:01:14.001Z</time></trkpt><trkpt lat="-19.880536820910653" lon="120.5654157884728"><ele>22.5</ele><time>2026-04-24T02:01:15.001Z</time></trkpt><trkpt lat="-19.880415237802453" lon="120.56568773777605"><ele>23.0</ele><time>2026-04-24T02:01:16.001Z</time></trkpt><trkpt lat="-19.88029509311951" lon="120.56596144703235"><ele>23.5</ele><time>2026-04-24T02:01:17.001Z</time></trkpt><trkpt lat="-19.8801756746858" lon="120.5662349490542"><ele>24.0</ele><time>2026-04-24T02:01:18.001Z</time></trkpt><trkpt lat="-19.880058331758125" lon="120.56650729799634"><ele>24.0</ele><time>2026-04-24T02:01:19.001Z</time></trkpt><trkpt lat="-19.87994445896427" lon="120.56678039839447"><ele>24.0</ele><time>2026-04-24T02:01:20.001Z</time></trkpt><trkpt lat="-19.879831614993954" lon="120.56705398451763"><ele>24.0</ele><time>2026-04-24T02:01:21.001Z</time></trkpt><trkpt lat="-19.87971805051991" lon="120.56732735368915"><ele>24.0</ele><time>2026-04-24T02:01:22.001Z</time></trkpt><trkpt lat="-19.879603354477766" lon="120.56759985923041"><ele>24.5</ele><time>2026-04-24T02:01:23.001Z</time></trkpt><trkpt lat="-19.879488452440174" lon="120.56786594611896"><ele>25.0</ele><time>2026-04-24T02:01:24.001Z</time></trkpt><trkpt lat="-19.87937375067918" lon="120.56813482372885"><ele>24.5</ele><time>2026-04-24T02:01:25.001Z</time></trkpt><trkpt lat="-19.879260649064506" lon="120.56840310687153"><ele>24.0</ele><time>2026-04-24T02:01:26.001Z</time></trkpt><trkpt lat="-19.879149633954555" lon="120.56866972171912"><ele>24.0</ele><time>2026-04-24T02:01:27.001Z</time></trkpt><trkpt lat="-19.879041332554106" lon="120.56893936366684"><ele>24.0</ele><time>2026-04-24T02:01:28.001Z</time></trkpt><trkpt lat="-19.878933661475386" lon="120.56920904226179"><ele>24.0</ele><time>2026-04-24T02:01:29.001Z</time></trkpt><trkpt lat="-19.878826956721436" lon="120.56947844149619"><ele>24.0</ele><time>2026-04-24T02:01:30.001Z</time></trkpt><trkpt lat="-19.878721028474306" lon="120.56974711360961"><ele>24.5</ele><time>2026-04-24T02:01:31.001Z</time></trkpt><trkpt lat="-19.87861780257811" lon="120.57001484906377"><ele>25.0</ele><time>2026-04-24T02:01:32Z</time></trkpt><trkpt lat="-19.878516717080092" lon="120.57028292411556"><ele>24.0</ele><time>2026-04-24T02:01:33Z</time></trkpt><trkpt lat="-19.878417468425457" lon="120.5705498049424"><ele>23.0</ele><time>2026-04-24T02:01:34Z</time></trkpt><trkpt lat="-19.878318839851417" lon="120.57081578690284"><ele>23.0</ele><time>2026-04-24T02:01:35Z</time></trkpt><trkpt lat="-19.87822156542301" lon="120.57108254369176"><ele>23.0</ele><time>2026-04-24T02:01:36Z</time></trkpt><trkpt lat="-19.87812653022235" lon="120.57134979763194"><ele>23.5</ele><time>2026-04-24T02:01:37Z</time></trkpt><trkpt lat="-19.87803346119972" lon="120.57161934510927"><ele>24.0</ele><time>2026-04-24T02:01:38Z</time></trkpt><trkpt lat="-19.87794271542359" lon="120.5718896100615"><ele>24.0</ele><time>2026-04-24T02:01:39Z</time></trkpt><trkpt lat="-19.877852603989272" lon="120.5721629847576"><ele>24.0</ele><time>2026-04-24T02:01:40Z</time></trkpt><trkpt lat="-19.877761755453285" lon="120.57243551593845"><ele>24.0</ele><time>2026-04-24T02:01:41Z</time></trkpt><trkpt lat="-19.87767012890531" lon="120.57270969862034"><ele>24.0</ele><time>2026-04-24T02:01:42Z</time></trkpt><trkpt lat="-19.877576662528337" lon="120.5729816852159"><ele>23.5</ele><time>2026-04-24T02:01:43Z</time></trkpt><trkpt lat="-19.877479847368917" lon="120.57325683168101"><ele>23.0</ele><time>2026-04-24T02:01:44Z</time></trkpt><trkpt lat="-19.877383218724752" lon="120.57353400997914"><ele>23.0</ele><time>2026-04-24T02:01:45Z</time></trkpt><trkpt lat="-19.877287705897682" lon="120.57381306019757"><ele>23.0</ele><time>2026-04-24T02:01:46Z</time></trkpt><trkpt lat="-19.87719228772992" lon="120.57409545216505"><ele>23.0</ele><time>2026-04-24T02:01:47Z</time></trkpt><trkpt lat="-19.877096805839063" lon="120.57437669282427"><ele>23.0</ele><time>2026-04-24T02:01:48Z</time></trkpt><trkpt lat="-19.876999356275892" lon="120.57466556303187"><ele>23.0</ele><time>2026-04-24T02:01:49Z</time></trkpt><trkpt lat="-19.876902921267476" lon="120.57495392198291"><ele>23.0</ele><time>2026-04-24T02:01:50Z</time></trkpt><trkpt lat="-19.87680791093373" lon="120.57524089412806"><ele>22.0</ele><time>2026-04-24T02:01:51Z</time></trkpt><trkpt lat="-19.87671280463562" lon="120.57552499783208"><ele>21.0</ele><time>2026-04-24T02:01:52Z</time></trkpt><trkpt lat="-19.876617268113897" lon="120.57580890534784"><ele>21.0</ele><time>2026-04-24T02:01:53Z</time></trkpt><trkpt lat="-19.876521701389528" lon="120.57609228412099"><ele>21.0</ele><time>2026-04-24T02:01:54Z</time></trkpt><trkpt lat="-19.876425920486167" lon="120.57637405557324"><ele>21.0</ele><time>2026-04-24T02:01:55Z</time></trkpt><trkpt lat="-19.876330319308444" lon="120.5766543366979"><ele>21.0</ele><time>2026-04-24T02:01:56Z</time></trkpt><trkpt lat="-19.87623265458605" lon="120.576933558782"><ele>21.5</ele><time>2026-04-24T02:01:57Z</time></trkpt><trkpt lat="-19.876135024063654" lon="120.57721306280901"><ele>22.0</ele><time>2026-04-24T02:01:58Z</time></trkpt><trkpt lat="-19.87603878504542" lon="120.57749577303385"><ele>22.0</ele><time>2026-04-24T02:01:59Z</time></trkpt><trkpt lat="-19.87594486962001" lon="120.57777816778729"><ele>22.0</ele><time>2026-04-24T02:02:00Z</time></trkpt><trkpt lat="-19.875850258610026" lon="120.57806417169996"><ele>21.0</ele><time>2026-04-24T02:02:01Z</time></trkpt><trkpt lat="-19.875753408038307" lon="120.57834723609783"><ele>20.0</ele><time>2026-04-24T02:02:02Z</time></trkpt><trkpt lat="-19.875654024653887" lon="120.57863021519506"><ele>20.0</ele><time>2026-04-24T02:02:03Z</time></trkpt><trkpt lat="-19.875554055595824" lon="120.57891512488602"><ele>20.0</ele><time>2026-04-24T02:02:04Z</time></trkpt><trkpt lat="-19.87545780078904" lon="120.5792000275837"><ele>20.0</ele><time>2026-04-24T02:02:05Z</time></trkpt><trkpt lat="-19.875363550038067" lon="120.57948737668899"><ele>20.0</ele><time>2026-04-24T02:02:06Z</time></trkpt><trkpt lat="-19.875268856201682" lon="120.57977458099936"><ele>20.0</ele><time>2026-04-24T02:02:07Z</time></trkpt><trkpt lat="-19.8751738230378" lon="120.58006403508242"><ele>20.0</ele><time>2026-04-24T02:02:08Z</time></trkpt><trkpt lat="-19.875077624426858" lon="120.58035136750891"><ele>20.0</ele><time>2026-04-24T02:02:09Z</time></trkpt><trkpt lat="-19.874979629537552" lon="120.5806388597459"><ele>20.0</ele><time>2026-04-24T02:02:10Z</time></trkpt><trkpt lat="-19.87488048046601" lon="120.58092609370415"><ele>20.0</ele><time>2026-04-24T02:02:11Z</time></trkpt><trkpt lat="-19.87478144906306" lon="120.58121301352573"><ele>20.0</ele><time>2026-04-24T02:02:12Z</time></trkpt><trkpt lat="-19.874683143873643" lon="120.58149944335824"><ele>20.0</ele><time>2026-04-24T02:02:13Z</time></trkpt><trkpt lat="-19.874585384393384" lon="120.58178758137687"><ele>20.0</ele><time>2026-04-24T02:02:14Z</time></trkpt><trkpt lat="-19.87448812723052" lon="120.58207518940623"><ele>21.0</ele><time>2026-04-24T02:02:15Z</time></trkpt><trkpt lat="-19.8743908466291" lon="120.5823644012448"><ele>22.0</ele><time>2026-04-24T02:02:16Z</time></trkpt><trkpt lat="-19.87429412737602" lon="120.58265010294608"><ele>21.0</ele><time>2026-04-24T02:02:17Z</time></trkpt><trkpt lat="-19.874194650526622" lon="120.58293618843503"><ele>20.0</ele><time>2026-04-24T02:02:18Z</time></trkpt><trkpt lat="-19.874096270645307" lon="120.58322268693703"><ele>20.0</ele><time>2026-04-24T02:02:19Z</time></trkpt><trkpt lat="-19.873999027613976" lon="120.58350948966445"><ele>20.0</ele><time>2026-04-24T02:02:20Z</time></trkpt><trkpt lat="-19.873902166636523" lon="120.58379777208755"><ele>20.5</ele><time>2026-04-24T02:02:21Z</time></trkpt><trkpt lat="-19.87380421027381" lon="120.58408561556061"><ele>21.0</ele><time>2026-04-24T02:02:22Z</time></trkpt><trkpt lat="-19.87370715639904" lon="120.58437432471482"><ele>21.5</ele><time>2026-04-24T02:02:23Z</time></trkpt><trkpt lat="-19.873611620769683" lon="120.58466189796538"><ele>22.0</ele><time>2026-04-24T02:02:24Z</time></trkpt><trkpt lat="-19.873514475927877" lon="120.58495036785703"><ele>22.0</ele><time>2026-04-24T02:02:25Z</time></trkpt><trkpt lat="-19.873417404924425" lon="120.5852366033387"><ele>22.0</ele><time>2026-04-24T02:02:26Z</time></trkpt><trkpt lat="-19.873320356129312" lon="120.58552007059951"><ele>22.0</ele><time>2026-04-24T02:02:27Z</time></trkpt><trkpt lat="-19.87322157808913" lon="120.58580357757474"><ele>22.0</ele><time>2026-04-24T02:02:28Z</time></trkpt><trkpt lat="-19.873125682155173" lon="120.58608245432706"><ele>21.0</ele><time>2026-04-24T02:02:29Z</time></trkpt><trkpt lat="-19.873029163023183" lon="120.58636389492263"><ele>20.0</ele><time>2026-04-24T02:02:30Z</time></trkpt><trkpt lat="-19.872934722864553" lon="120.5866423597845"><ele>20.0</ele><time>2026-04-24T02:02:31Z</time></trkpt><trkpt lat="-19.872841910263418" lon="120.58691876356528"><ele>20.0</ele><time>2026-04-24T02:02:32Z</time></trkpt><trkpt lat="-19.872751215323536" lon="120.58719121672871"><ele>20.5</ele><time>2026-04-24T02:02:33Z</time></trkpt><trkpt lat="-19.872663927805274" lon="120.58745911421856"><ele>21.0</ele><time>2026-04-24T02:02:34Z</time></trkpt><trkpt lat="-19.8725764275486" lon="120.5877210297587"><ele>22.0</ele><time>2026-04-24T02:02:35Z</time></trkpt><trkpt lat="-19.872487170670237" lon="120.58798056457407"><ele>23.0</ele><time>2026-04-24T02:02:36Z</time></trkpt><trkpt lat="-19.872398029022648" lon="120.58824245865958"><ele>23.0</ele><time>2026-04-24T02:02:37Z</time></trkpt><trkpt lat="-19.87230768547751" lon="120.58850419288353"><ele>23.0</ele><time>2026-04-24T02:02:38Z</time></trkpt><trkpt lat="-19.872219111514056" lon="120.58876494763983"><ele>23.5</ele><time>2026-04-24T02:02:39Z</time></trkpt><trkpt lat="-19.872133093580672" lon="120.58901878621992"><ele>24.0</ele><time>2026-04-24T02:02:40Z</time></trkpt><trkpt lat="-19.87204870787304" lon="120.58926943836263"><ele>23.0</ele><time>2026-04-24T02:02:41Z</time></trkpt><trkpt lat="-19.87196581211366" lon="120.58951801549343"><ele>22.0</ele><time>2026-04-24T02:02:42Z</time></trkpt><trkpt lat="-19.871881085443" lon="120.58976742668565"><ele>22.0</ele><time>2026-04-24T02:02:43Z</time></trkpt><trkpt lat="-19.87179787733175" lon="120.59001483508324"><ele>22.0</ele><time>2026-04-24T02:02:44Z</time></trkpt><trkpt lat="-19.871716707676484" lon="120.59025898802008"><ele>22.5</ele><time>2026-04-24T02:02:45Z</time></trkpt><trkpt lat="-19.87163177243328" lon="120.59050432525048"><ele>23.0</ele><time>2026-04-24T02:02:46Z</time></trkpt><trkpt lat="-19.871545694313898" lon="120.59074924321723"><ele>23.0</ele><time>2026-04-24T02:02:47Z</time></trkpt><trkpt lat="-19.871459069901434" lon="120.59099634151504"><ele>23.0</ele><time>2026-04-24T02:02:48Z</time></trkpt><trkpt lat="-19.87137213526455" lon="120.59124592958422"><ele>22.0</ele><time>2026-04-24T02:02:49Z</time></trkpt><trkpt lat="-19.871284889228267" lon="120.5914996720283"><ele>21.0</ele><time>2026-04-24T02:02:50Z</time></trkpt><trkpt lat="-19.87119893482318" lon="120.59175533349564"><ele>21.5</ele><time>2026-04-24T02:02:51Z</time></trkpt><trkpt lat="-19.87111258308389" lon="120.59201521583573"><ele>22.0</ele><time>2026-04-24T02:02:52Z</time></trkpt><trkpt lat="-19.871026356280815" lon="120.59227714531934"><ele>22.0</ele><time>2026-04-24T02:02:53Z</time></trkpt><trkpt lat="-19.870941011392507" lon="120.59254011166436"><ele>22.0</ele><time>2026-04-24T02:02:54Z</time></trkpt><trkpt lat="-19.87085370658713" lon="120.59280910795079"><ele>21.5</ele><time>2026-04-24T02:02:55Z</time></trkpt><trkpt lat="-19.87076629627388" lon="120.5930788178798"><ele>21.0</ele><time>2026-04-24T02:02:56Z</time></trkpt><trkpt lat="-19.870676740559077" lon="120.59334433320502"><ele>21.0</ele><time>2026-04-24T02:02:57.001Z</time></trkpt><trkpt lat="-19.87058581107034" lon="120.59360933765488"><ele>21.0</ele><time>2026-04-24T02:02:58.001Z</time></trkpt><trkpt lat="-19.870492196795713" lon="120.5938708874089"><ele>22.0</ele><time>2026-04-24T02:02:59.001Z</time></trkpt><trkpt lat="-19.87039693910378" lon="120.59413287031855"><ele>23.0</ele><time>2026-04-24T02:03:00.001Z</time></trkpt><trkpt lat="-19.870301669241798" lon="120.59439753996159"><ele>23.0</ele><time>2026-04-24T02:03:01.001Z</time></trkpt><trkpt lat="-19.870206200832268" lon="120.59466639720343"><ele>23.0</ele><time>2026-04-24T02:03:02.001Z</time></trkpt><trkpt lat="-19.870110997806467" lon="120.59493718838027"><ele>23.0</ele><time>2026-04-24T02:03:03.001Z</time></trkpt><trkpt lat="-19.870018137887893" lon="120.59520832255645"><ele>23.0</ele><time>2026-04-24T02:03:04.001Z</time></trkpt><trkpt lat="-19.869928768966158" lon="120.5954841696932"><ele>22.5</ele><time>2026-04-24T02:03:05.001Z</time></trkpt><trkpt lat="-19.869840207810014" lon="120.59575992028543"><ele>22.0</ele><time>2026-04-24T02:03:06.001Z</time></trkpt><trkpt lat="-19.869749725548587" lon="120.59603594447823"><ele>21.5</ele><time>2026-04-24T02:03:07.001Z</time></trkpt><trkpt lat="-19.86965498333935" lon="120.59631283120902"><ele>21.0</ele><time>2026-04-24T02:03:08.001Z</time></trkpt><trkpt lat="-19.869560285987017" lon="120.59658790384763"><ele>21.0</ele><time>2026-04-24T02:03:09.001Z</time></trkpt><trkpt lat="-19.869466567640497" lon="120.5968655574693"><ele>21.0</ele><time>2026-04-24T02:03:10.001Z</time></trkpt><trkpt lat="-19.869373318094606" lon="120.59713869533873"><ele>21.5</ele><time>2026-04-24T02:03:11.001Z</time></trkpt><trkpt lat="-19.869278658081615" lon="120.59741101286846"><ele>22.0</ele><time>2026-04-24T02:03:12.001Z</time></trkpt><trkpt lat="-19.86918400167412" lon="120.59768530701115"><ele>21.5</ele><time>2026-04-24T02:03:13.001Z</time></trkpt><trkpt lat="-19.86909238268897" lon="120.59796225896024"><ele>21.0</ele><time>2026-04-24T02:03:14.001Z</time></trkpt><trkpt lat="-19.86900148711782" lon="120.59824064154193"><ele>21.0</ele><time>2026-04-24T02:03:15.001Z</time></trkpt><trkpt lat="-19.86890876910007" lon="120.59851846895447"><ele>21.0</ele><time>2026-04-24T02:03:16.001Z</time></trkpt><trkpt lat="-19.86881348811791" lon="120.59879838722608"><ele>21.5</ele><time>2026-04-24T02:03:17.001Z</time></trkpt><trkpt lat="-19.868716726877878" lon="120.59907940679032"><ele>22.0</ele><time>2026-04-24T02:03:18.001Z</time></trkpt><trkpt lat="-19.868622728200428" lon="120.59935150615219"><ele>22.5</ele><time>2026-04-24T02:03:19.001Z</time></trkpt><trkpt lat="-19.86853247292544" lon="120.59960953136263"><ele>23.0</ele><time>2026-04-24T02:03:20.001Z</time></trkpt><trkpt lat="-19.868442045083516" lon="120.59987212584169"><ele>21.5</ele><time>2026-04-24T02:03:21.001Z</time></trkpt><trkpt lat="-19.86835006546453" lon="120.60014114307532"><ele>20.0</ele><time>2026-04-24T02:03:22.001Z</time></trkpt><trkpt lat="-19.86825744415993" lon="120.6004123742358"><ele>20.0</ele><time>2026-04-24T02:03:23.001Z</time></trkpt><trkpt lat="-19.86816399129573" lon="120.60068783381462"><ele>20.0</ele><time>2026-04-24T02:03:24.001Z</time></trkpt><trkpt lat="-19.86807049850382" lon="120.60096607179818"><ele>20.0</ele><time>2026-04-24T02:03:25.001Z</time></trkpt><trkpt lat="-19.867976797181857" lon="120.60124199071757"><ele>20.0</ele><time>2026-04-24T02:03:26.001Z</time></trkpt><trkpt lat="-19.867884324016202" lon="120.60152031088234"><ele>20.0</ele><time>2026-04-24T02:03:27.001Z</time></trkpt><trkpt lat="-19.86779398492734" lon="120.60179996367829"><ele>20.0</ele><time>2026-04-24T02:03:28.001Z</time></trkpt><trkpt lat="-19.867702089203615" lon="120.60207591420473"><ele>19.0</ele><time>2026-04-24T02:03:29.001Z</time></trkpt><trkpt lat="-19.86760666179069" lon="120.60235140638254"><ele>18.0</ele><time>2026-04-24T02:03:30.001Z</time></trkpt><trkpt lat="-19.867509015660858" lon="120.60262635469083"><ele>18.5</ele><time>2026-04-24T02:03:31.001Z</time></trkpt><trkpt lat="-19.86741148940416" lon="120.60290314592535"><ele>19.0</ele><time>2026-04-24T02:03:32.001Z</time></trkpt><trkpt lat="-19.867315174659062" lon="120.60318073636577"><ele>19.0</ele><time>2026-04-24T02:03:33.001Z</time></trkpt><trkpt lat="-19.867222942499982" lon="120.60345800693513"><ele>19.0</ele><time>2026-04-24T02:03:34.001Z</time></trkpt><trkpt lat="-19.867133258764657" lon="120.60373603600993"><ele>19.5</ele><time>2026-04-24T02:03:35.001Z</time></trkpt><trkpt lat="-19.867044008668458" lon="120.60401108490777"><ele>20.0</ele><time>2026-04-24T02:03:36.001Z</time></trkpt><trkpt lat="-19.86695264404287" lon="120.60428461495034"><ele>19.5</ele><time>2026-04-24T02:03:37Z</time></trkpt><trkpt lat="-19.86686178353562" lon="120.60455635387412"><ele>19.0</ele><time>2026-04-24T02:03:38Z</time></trkpt><trkpt lat="-19.8667726545477" lon="120.60482634731856"><ele>19.0</ele><time>2026-04-24T02:03:39Z</time></trkpt><trkpt lat="-19.866682824049974" lon="120.60509661777456"><ele>19.0</ele><time>2026-04-24T02:03:40Z</time></trkpt><trkpt lat="-19.8665905559816" lon="120.60537068861746"><ele>18.5</ele><time>2026-04-24T02:03:41Z</time></trkpt><trkpt lat="-19.866493708099753" lon="120.60564883938072"><ele>18.0</ele><time>2026-04-24T02:03:42Z</time></trkpt><trkpt lat="-19.866395816463555" lon="120.60592857791555"><ele>17.5</ele><time>2026-04-24T02:03:43Z</time></trkpt><trkpt lat="-19.866297736712923" lon="120.60620636941594"><ele>17.0</ele><time>2026-04-24T02:03:44Z</time></trkpt><trkpt lat="-19.86620286292837" lon="120.6064787773795"><ele>17.0</ele><time>2026-04-24T02:03:45Z</time></trkpt><trkpt lat="-19.866110464317746" lon="120.60675248971347"><ele>17.0</ele><time>2026-04-24T02:03:46Z</time></trkpt><trkpt lat="-19.866017713343634" lon="120.60702488855077"><ele>18.0</ele><time>2026-04-24T02:03:47Z</time></trkpt><trkpt lat="-19.865829210331626" lon="120.6075703437889"><ele>18.0</ele><time>2026-04-24T02:03:49Z</time></trkpt><trkpt lat="-19.865736141018285" lon="120.60784245418255"><ele>18.0</ele><time>2026-04-24T02:03:50Z</time></trkpt><trkpt lat="-19.86564525613664" lon="120.60811286950128"><ele>18.0</ele><time>2026-04-24T02:03:51Z</time></trkpt><trkpt lat="-19.86555502655146" lon="120.60838047026868"><ele>18.0</ele><time>2026-04-24T02:03:52Z</time></trkpt><trkpt lat="-19.865463593964176" lon="120.6086510290427"><ele>18.0</ele><time>2026-04-24T02:03:53Z</time></trkpt><trkpt lat="-19.86537272649803" lon="120.60892259378454"><ele>18.0</ele><time>2026-04-24T02:03:54Z</time></trkpt><trkpt lat="-19.86528109444207" lon="120.60919754672484"><ele>18.0</ele><time>2026-04-24T02:03:55Z</time></trkpt><trkpt lat="-19.865190155294407" lon="120.60947076373898"><ele>18.0</ele><time>2026-04-24T02:03:56Z</time></trkpt><trkpt lat="-19.865099350363273" lon="120.6097483608087"><ele>17.5</ele><time>2026-04-24T02:03:57Z</time></trkpt><trkpt lat="-19.86500708406241" lon="120.61002665807209"><ele>17.0</ele><time>2026-04-24T02:03:58Z</time></trkpt><trkpt lat="-19.864911735025707" lon="120.61030326694589"><ele>17.5</ele><time>2026-04-24T02:03:59Z</time></trkpt><trkpt lat="-19.86481434080755" lon="120.61057880316768"><ele>18.0</ele><time>2026-04-24T02:04:00Z</time></trkpt><trkpt lat="-19.864715093636605" lon="120.6108529243541"><ele>18.0</ele><time>2026-04-24T02:04:01Z</time></trkpt><trkpt lat="-19.864618371962095" lon="120.61112596252028"><ele>18.0</ele><time>2026-04-24T02:04:02Z</time></trkpt><trkpt lat="-19.864528013671073" lon="120.61139843025217"><ele>18.0</ele><time>2026-04-24T02:04:03Z</time></trkpt><trkpt lat="-19.864441229540503" lon="120.61165905238457"><ele>18.0</ele><time>2026-04-24T02:04:04Z</time></trkpt><trkpt lat="-19.86435944311179" lon="120.61190540242028"><ele>18.0</ele><time>2026-04-24T02:04:05Z</time></trkpt><trkpt lat="-19.864279955834114" lon="120.61214141209938"><ele>18.0</ele><time>2026-04-24T02:04:06Z</time></trkpt><trkpt lat="-19.864203538447306" lon="120.6123718011336"><ele>18.0</ele><time>2026-04-24T02:04:07Z</time></trkpt><trkpt lat="-19.86412679358961" lon="120.61260463027214"><ele>18.0</ele><time>2026-04-24T02:04:08Z</time></trkpt><trkpt lat="-19.8640496273725" lon="120.61284224650616"><ele>18.5</ele><time>2026-04-24T02:04:09Z</time></trkpt><trkpt lat="-19.86397145155746" lon="120.61308205042103"><ele>19.0</ele><time>2026-04-24T02:04:10Z</time></trkpt><trkpt lat="-19.863888115128844" lon="120.61332863879711"><ele>19.0</ele><time>2026-04-24T02:04:11Z</time></trkpt><trkpt lat="-19.863802447846883" lon="120.61358220859698"><ele>19.0</ele><time>2026-04-24T02:04:12Z</time></trkpt><trkpt lat="-19.86371760200275" lon="120.61383656580213"><ele>19.0</ele><time>2026-04-24T02:04:13Z</time></trkpt><trkpt lat="-19.863632646809233" lon="120.61409457860738"><ele>19.0</ele><time>2026-04-24T02:04:14Z</time></trkpt><trkpt lat="-19.863535318123308" lon="120.61434273973435"><ele>19.5</ele><time>2026-04-24T02:04:15Z</time></trkpt><trkpt lat="-19.863448896183908" lon="120.61459729165337"><ele>20.0</ele><time>2026-04-24T02:04:16Z</time></trkpt><trkpt lat="-19.863376878138585" lon="120.6148554329215"><ele>19.5</ele><time>2026-04-24T02:04:17Z</time></trkpt><trkpt lat="-19.86328584572334" lon="120.61511146224343"><ele>19.0</ele><time>2026-04-24T02:04:18Z</time></trkpt><trkpt lat="-19.863194574256152" lon="120.61537006914088"><ele>19.0</ele><time>2026-04-24T02:04:19Z</time></trkpt><trkpt lat="-19.863104226361607" lon="120.6156268401276"><ele>19.0</ele><time>2026-04-24T02:04:20Z</time></trkpt><trkpt lat="-19.86301292889615" lon="120.61588640823052"><ele>19.0</ele><time>2026-04-24T02:04:21Z</time></trkpt><trkpt lat="-19.862921739768183" lon="120.6161516101817"><ele>19.0</ele><time>2026-04-24T02:04:22Z</time></trkpt><trkpt lat="-19.8628307074314" lon="120.61641852467274"><ele>19.5</ele><time>2026-04-24T02:04:23Z</time></trkpt><trkpt lat="-19.86274093254298" lon="120.61668524265009"><ele>20.0</ele><time>2026-04-24T02:04:24Z</time></trkpt><trkpt lat="-19.86265145401491" lon="120.61695442883817"><ele>20.0</ele><time>2026-04-24T02:04:25Z</time></trkpt><trkpt lat="-19.862560874019305" lon="120.61722310521198"><ele>20.0</ele><time>2026-04-24T02:04:26Z</time></trkpt><trkpt lat="-19.862470429668818" lon="120.61749265489894"><ele>20.0</ele><time>2026-04-24T02:04:27Z</time></trkpt><trkpt lat="-19.862380277245574" lon="120.61776013571571"><ele>20.0</ele><time>2026-04-24T02:04:28Z</time></trkpt><trkpt lat="-19.862290773557497" lon="120.61802548559956"><ele>20.0</ele><time>2026-04-24T02:04:29Z</time></trkpt><trkpt lat="-19.862199545764163" lon="120.61828739567693"><ele>20.0</ele><time>2026-04-24T02:04:30Z</time></trkpt><trkpt lat="-19.862105815791733" lon="120.61854779547357"><ele>18.5</ele><time>2026-04-24T02:04:31Z</time></trkpt><trkpt lat="-19.862012677866204" lon="120.61880601559189"><ele>17.0</ele><time>2026-04-24T02:04:32Z</time></trkpt><trkpt lat="-19.861920565299865" lon="120.61906495514567"><ele>17.0</ele><time>2026-04-24T02:04:33Z</time></trkpt><trkpt lat="-19.86183111727803" lon="120.61932631168895"><ele>17.0</ele><time>2026-04-24T02:04:34Z</time></trkpt><trkpt lat="-19.861743750544836" lon="120.61959062450586"><ele>19.0</ele><time>2026-04-24T02:04:35Z</time></trkpt><trkpt lat="-19.861655142444764" lon="120.61985556248291"><ele>21.0</ele><time>2026-04-24T02:04:36Z</time></trkpt><trkpt lat="-19.861568338974067" lon="120.62011995322226"><ele>21.5</ele><time>2026-04-24T02:04:37Z</time></trkpt><trkpt lat="-19.861483221078025" lon="120.62038325319998"><ele>22.0</ele><time>2026-04-24T02:04:38Z</time></trkpt><trkpt lat="-19.861394873655424" lon="120.62064696978896"><ele>22.0</ele><time>2026-04-24T02:04:39Z</time></trkpt><trkpt lat="-19.861303438262926" lon="120.62090967257186"><ele>22.0</ele><time>2026-04-24T02:04:40Z</time></trkpt><trkpt lat="-19.86121039679865" lon="120.62117198613328"><ele>21.0</ele><time>2026-04-24T02:04:41Z</time></trkpt><trkpt lat="-19.861119564516063" lon="120.62143385450634"><ele>20.0</ele><time>2026-04-24T02:04:42Z</time></trkpt><trkpt lat="-19.861028825364322" lon="120.62169725037603"><ele>20.5</ele><time>2026-04-24T02:04:43Z</time></trkpt><trkpt lat="-19.860937263317645" lon="120.62196135045616"><ele>21.0</ele><time>2026-04-24T02:04:44Z</time></trkpt><trkpt lat="-19.86084731814023" lon="120.62222235667335"><ele>21.0</ele><time>2026-04-24T02:04:45Z</time></trkpt><trkpt lat="-19.860759529453755" lon="120.62248367123527"><ele>21.0</ele><time>2026-04-24T02:04:46Z</time></trkpt><trkpt lat="-19.86067721523311" lon="120.62274417270345"><ele>21.5</ele><time>2026-04-24T02:04:47Z</time></trkpt><trkpt lat="-19.860595130522476" lon="120.62300438953947"><ele>22.0</ele><time>2026-04-24T02:04:48Z</time></trkpt><trkpt lat="-19.86051094412773" lon="120.62326304542924"><ele>22.0</ele><time>2026-04-24T02:04:49Z</time></trkpt><trkpt lat="-19.860424199204772" lon="120.62351826114369"><ele>22.0</ele><time>2026-04-24T02:04:50Z</time></trkpt><trkpt lat="-19.860333619976537" lon="120.62377285181242"><ele>22.5</ele><time>2026-04-24T02:04:51Z</time></trkpt><trkpt lat="-19.86024115157008" lon="120.62402579858211"><ele>23.0</ele><time>2026-04-24T02:04:52Z</time></trkpt><trkpt lat="-19.86014974558121" lon="120.62427689560322"><ele>22.0</ele><time>2026-04-24T02:04:53Z</time></trkpt><trkpt lat="-19.860058988763896" lon="120.62452600531726"><ele>21.0</ele><time>2026-04-24T02:04:54Z</time></trkpt><trkpt lat="-19.859973141160793" lon="120.62477992808847"><ele>21.0</ele><time>2026-04-24T02:04:55Z</time></trkpt><trkpt lat="-19.85988845201135" lon="120.6250422551848"><ele>21.0</ele><time>2026-04-24T02:04:56Z</time></trkpt><trkpt lat="-19.859804032845762" lon="120.62530861030359"><ele>22.0</ele><time>2026-04-24T02:04:57Z</time></trkpt><trkpt lat="-19.85971669932539" lon="120.62557800806576"><ele>23.0</ele><time>2026-04-24T02:04:58Z</time></trkpt><trkpt lat="-19.859624209201886" lon="120.6258489472881"><ele>23.0</ele><time>2026-04-24T02:04:59Z</time></trkpt><trkpt lat="-19.85952925746522" lon="120.62612218749575"><ele>23.0</ele><time>2026-04-24T02:05:00Z</time></trkpt><trkpt lat="-19.85943583102233" lon="120.62639724821841"><ele>22.5</ele><time>2026-04-24T02:05:01Z</time></trkpt><trkpt lat="-19.859343769577254" lon="120.62667214763911"><ele>22.0</ele><time>2026-04-24T02:05:02Z</time></trkpt><trkpt lat="-19.85925137720201" lon="120.62694621051043"><ele>23.0</ele><time>2026-04-24T02:05:03Z</time></trkpt><trkpt lat="-19.859157781046367" lon="120.62721903164565"><ele>24.0</ele><time>2026-04-24T02:05:04Z</time></trkpt><trkpt lat="-19.85906375092183" lon="120.62749464211268"><ele>24.0</ele><time>2026-04-24T02:05:05Z</time></trkpt><trkpt lat="-19.85896850079273" lon="120.62777488773838"><ele>24.0</ele><time>2026-04-24T02:05:06.001Z</time></trkpt><trkpt lat="-19.85887494245056" lon="120.6280541834956"><ele>24.5</ele><time>2026-04-24T02:05:07.001Z</time></trkpt><trkpt lat="-19.858784039479318" lon="120.62832989781734"><ele>25.0</ele><time>2026-04-24T02:05:08.001Z</time></trkpt><trkpt lat="-19.858693926376105" lon="120.62860376356193"><ele>25.0</ele><time>2026-04-24T02:05:09.001Z</time></trkpt><trkpt lat="-19.858606546641624" lon="120.62887687458357"><ele>25.0</ele><time>2026-04-24T02:05:10.001Z</time></trkpt><trkpt lat="-19.85851959881247" lon="120.62915075743022"><ele>25.0</ele><time>2026-04-24T02:05:11.001Z</time></trkpt><trkpt lat="-19.85843136092135" lon="120.62942407789572"><ele>25.0</ele><time>2026-04-24T02:05:12.001Z</time></trkpt><trkpt lat="-19.858338433631353" lon="120.62969167365713"><ele>25.0</ele><time>2026-04-24T02:05:13.001Z</time></trkpt><trkpt lat="-19.85823722891268" lon="120.62995724594022"><ele>25.0</ele><time>2026-04-24T02:05:14.001Z</time></trkpt><trkpt lat="-19.85813636940915" lon="120.63022511739099"><ele>25.5</ele><time>2026-04-24T02:05:15.001Z</time></trkpt><trkpt lat="-19.85804020212031" lon="120.63049212088478"><ele>26.0</ele><time>2026-04-24T02:05:16.001Z</time></trkpt><trkpt lat="-19.857948952750917" lon="120.63075922650839"><ele>26.0</ele><time>2026-04-24T02:05:17.001Z</time></trkpt><trkpt lat="-19.85786274769587" lon="120.63103004849516"><ele>26.0</ele><time>2026-04-24T02:05:18.001Z</time></trkpt><trkpt lat="-19.857776637490872" lon="120.63130184867664"><ele>26.0</ele><time>2026-04-24T02:05:19.001Z</time></trkpt><trkpt lat="-19.85768828786839" lon="120.63157316639612"><ele>26.0</ele><time>2026-04-24T02:05:20.001Z</time></trkpt><trkpt lat="-19.857598452684137" lon="120.63184477395619"><ele>26.0</ele><time>2026-04-24T02:05:21.001Z</time></trkpt><trkpt lat="-19.857509745861115" lon="120.63211593469651"><ele>26.0</ele><time>2026-04-24T02:05:22.001Z</time></trkpt><trkpt lat="-19.857414190266223" lon="120.6323860473449"><ele>26.0</ele><time>2026-04-24T02:05:23.001Z</time></trkpt><trkpt lat="-19.85731571068841" lon="120.63265757598"><ele>26.0</ele><time>2026-04-24T02:05:24.001Z</time></trkpt><trkpt lat="-19.857218914309954" lon="120.63292462969875"><ele>27.0</ele><time>2026-04-24T02:05:25.001Z</time></trkpt><trkpt lat="-19.85712905126924" lon="120.6331742553303"><ele>28.0</ele><time>2026-04-24T02:05:26.001Z</time></trkpt><trkpt lat="-19.857040974802395" lon="120.63341748038508"><ele>27.5</ele><time>2026-04-24T02:05:27.001Z</time></trkpt><trkpt lat="-19.856949913281074" lon="120.6336669041032"><ele>27.0</ele><time>2026-04-24T02:05:28.001Z</time></trkpt><trkpt lat="-19.85685601945933" lon="120.6339199739862"><ele>27.5</ele><time>2026-04-24T02:05:29.001Z</time></trkpt><trkpt lat="-19.85675999382878" lon="120.63417894109207"><ele>28.0</ele><time>2026-04-24T02:05:30.001Z</time></trkpt><trkpt lat="-19.85666097861144" lon="120.63444000399578"><ele>28.0</ele><time>2026-04-24T02:05:31.001Z</time></trkpt><trkpt lat="-19.856557586248996" lon="120.63470501322274"><ele>28.0</ele><time>2026-04-24T02:05:32.001Z</time></trkpt><trkpt lat="-19.856451390096595" lon="120.63496948117903"><ele>28.0</ele><time>2026-04-24T02:05:33.001Z</time></trkpt><trkpt lat="-19.85634322352912" lon="120.63523607130739"><ele>28.0</ele><time>2026-04-24T02:05:34.001Z</time></trkpt><trkpt lat="-19.85623402161595" lon="120.6355025008274"><ele>28.5</ele><time>2026-04-24T02:05:35.001Z</time></trkpt><trkpt lat="-19.85612455515797" lon="120.63576812875014"><ele>29.0</ele><time>2026-04-24T02:05:36.001Z</time></trkpt><trkpt lat="-19.85601201060087" lon="120.63603436539782"><ele>29.0</ele><time>2026-04-24T02:05:37.001Z</time></trkpt><trkpt lat="-19.85589613513736" lon="120.63630312606321"><ele>29.0</ele><time>2026-04-24T02:05:38.001Z</time></trkpt><trkpt lat="-19.85577779730765" lon="120.63657181229797"><ele>29.0</ele><time>2026-04-24T02:05:39.001Z</time></trkpt><trkpt lat="-19.855656839628146" lon="120.63683867943621"><ele>29.0</ele><time>2026-04-24T02:05:40.001Z</time></trkpt><trkpt lat="-19.855534142809482" lon="120.63710678602926"><ele>28.5</ele><time>2026-04-24T02:05:41.001Z</time></trkpt><trkpt lat="-19.85541246593982" lon="120.6373755861588"><ele>28.0</ele><time>2026-04-24T02:05:42.001Z</time></trkpt><trkpt lat="-19.855291409076056" lon="120.6376461345335"><ele>28.0</ele><time>2026-04-24T02:05:43Z</time></trkpt><trkpt lat="-19.85517001582746" lon="120.6379149750757"><ele>28.0</ele><time>2026-04-24T02:05:44Z</time></trkpt><trkpt lat="-19.855046248465463" lon="120.63818586177834"><ele>28.0</ele><time>2026-04-24T02:05:45Z</time></trkpt><trkpt lat="-19.854923062260337" lon="120.63845835104873"><ele>28.0</ele><time>2026-04-24T02:05:46Z</time></trkpt><trkpt lat="-19.854800382299484" lon="120.6387281023993"><ele>28.5</ele><time>2026-04-24T02:05:47Z</time></trkpt><trkpt lat="-19.854678276650827" lon="120.63899440356343"><ele>29.0</ele><time>2026-04-24T02:05:48Z</time></trkpt><trkpt lat="-19.85455566877432" lon="120.6392583582048"><ele>28.0</ele><time>2026-04-24T02:05:49Z</time></trkpt><trkpt lat="-19.85443516433441" lon="120.63952327455421"><ele>27.0</ele><time>2026-04-24T02:05:50Z</time></trkpt><trkpt lat="-19.854315027075838" lon="120.63978750103846"><ele>27.5</ele><time>2026-04-24T02:05:51Z</time></trkpt><trkpt lat="-19.85419511000149" lon="120.64005117984745"><ele>28.0</ele><time>2026-04-24T02:05:52Z</time></trkpt><trkpt lat="-19.854073958488517" lon="120.64031398691509"><ele>28.0</ele><time>2026-04-24T02:05:53Z</time></trkpt><trkpt lat="-19.853952510631956" lon="120.64057732149578"><ele>28.0</ele><time>2026-04-24T02:05:54Z</time></trkpt><trkpt lat="-19.853831277554715" lon="120.64084136780832"><ele>28.0</ele><time>2026-04-24T02:05:55Z</time></trkpt><trkpt lat="-19.85371497258411" lon="120.64110432094424"><ele>28.0</ele><time>2026-04-24T02:05:56Z</time></trkpt><trkpt lat="-19.8535990962397" lon="120.641366322531"><ele>28.5</ele><time>2026-04-24T02:05:57Z</time></trkpt><trkpt lat="-19.8534801597006" lon="120.64162959278345"><ele>29.0</ele><time>2026-04-24T02:05:58Z</time></trkpt><trkpt lat="-19.853359195183568" lon="120.64189413248779"><ele>28.5</ele><time>2026-04-24T02:05:59Z</time></trkpt><trkpt lat="-19.853240869011344" lon="120.6421564686468"><ele>28.0</ele><time>2026-04-24T02:06:00Z</time></trkpt><trkpt lat="-19.85312357228654" lon="120.6424166742614"><ele>28.0</ele><time>2026-04-24T02:06:01Z</time></trkpt><trkpt lat="-19.85300532610748" lon="120.64267946137862"><ele>28.0</ele><time>2026-04-24T02:06:02Z</time></trkpt><trkpt lat="-19.85288592434271" lon="120.64294012148638"><ele>28.0</ele><time>2026-04-24T02:06:03Z</time></trkpt><trkpt lat="-19.852764373687823" lon="120.6432026783086"><ele>28.0</ele><time>2026-04-24T02:06:04Z</time></trkpt><trkpt lat="-19.852643182330784" lon="120.64346520516358"><ele>29.0</ele><time>2026-04-24T02:06:05Z</time></trkpt><trkpt lat="-19.85252098038578" lon="120.64372625820941"><ele>30.0</ele><time>2026-04-24T02:06:06Z</time></trkpt><trkpt lat="-19.85240036162105" lon="120.64398987178218"><ele>30.0</ele><time>2026-04-24T02:06:07Z</time></trkpt><trkpt lat="-19.852282183537934" lon="120.64425392658076"><ele>30.0</ele><time>2026-04-24T02:06:08Z</time></trkpt><trkpt lat="-19.85216475398559" lon="120.64451946466752"><ele>30.0</ele><time>2026-04-24T02:06:09Z</time></trkpt><trkpt lat="-19.852046213706874" lon="120.64478357908465"><ele>30.0</ele><time>2026-04-24T02:06:10Z</time></trkpt><trkpt lat="-19.85192621218914" lon="120.64504707314124"><ele>30.5</ele><time>2026-04-24T02:06:11Z</time></trkpt><trkpt lat="-19.851802673249864" lon="120.64531662950516"><ele>31.0</ele><time>2026-04-24T02:06:12Z</time></trkpt><trkpt lat="-19.85167847682032" lon="120.64558490875505"><ele>31.0</ele><time>2026-04-24T02:06:13Z</time></trkpt><trkpt lat="-19.851554972540065" lon="120.64585467389497"><ele>31.0</ele><time>2026-04-24T02:06:14Z</time></trkpt><trkpt lat="-19.851432600417738" lon="120.64612386106248"><ele>31.5</ele><time>2026-04-24T02:06:15Z</time></trkpt><trkpt lat="-19.851311566240177" lon="120.64638994908614"><ele>32.0</ele><time>2026-04-24T02:06:16Z</time></trkpt><trkpt lat="-19.85118886275114" lon="120.64665008336019"><ele>32.0</ele><time>2026-04-24T02:06:17Z</time></trkpt><trkpt lat="-19.851066246100796" lon="120.64691103162784"><ele>32.0</ele><time>2026-04-24T02:06:18Z</time></trkpt><trkpt lat="-19.85094699920194" lon="120.64717409368014"><ele>32.5</ele><time>2026-04-24T02:06:19Z</time></trkpt><trkpt lat="-19.850828403302838" lon="120.64743703939017"><ele>33.0</ele><time>2026-04-24T02:06:20Z</time></trkpt><trkpt lat="-19.850708837286735" lon="120.64770304852621"><ele>33.0</ele><time>2026-04-24T02:06:21Z</time></trkpt><trkpt lat="-19.85058911288436" lon="120.64796902401477"><ele>33.0</ele><time>2026-04-24T02:06:22Z</time></trkpt><trkpt lat="-19.85046913375751" lon="120.64823563720164"><ele>33.0</ele><time>2026-04-24T02:06:23Z</time></trkpt><trkpt lat="-19.85034912109214" lon="120.64850012212071"><ele>33.0</ele><time>2026-04-24T02:06:24Z</time></trkpt><trkpt lat="-19.850227540020974" lon="120.64876491116031"><ele>34.5</ele><time>2026-04-24T02:06:25Z</time></trkpt><trkpt lat="-19.8501062936649" lon="120.6490319414516"><ele>36.0</ele><time>2026-04-24T02:06:26Z</time></trkpt><trkpt lat="-19.849986331251408" lon="120.6492970928099"><ele>36.5</ele><time>2026-04-24T02:06:27Z</time></trkpt><trkpt lat="-19.849866812590264" lon="120.64956308251776"><ele>37.0</ele><time>2026-04-24T02:06:28Z</time></trkpt><trkpt lat="-19.84974670295268" lon="120.64982877253664"><ele>37.0</ele><time>2026-04-24T02:06:29Z</time></trkpt><trkpt lat="-19.849624745691607" lon="120.6500940482639"><ele>37.0</ele><time>2026-04-24T02:06:30Z</time></trkpt><trkpt lat="-19.84950022437428" lon="120.6503651107367"><ele>36.5</ele><time>2026-04-24T02:06:31Z</time></trkpt><trkpt lat="-19.84937547392229" lon="120.65063514399726"><ele>36.0</ele><time>2026-04-24T02:06:32Z</time></trkpt><trkpt lat="-19.849252496987436" lon="120.65090587746099"><ele>36.5</ele><time>2026-04-24T02:06:33Z</time></trkpt><trkpt lat="-19.84913043663733" lon="120.65117308529464"><ele>37.0</ele><time>2026-04-24T02:06:34Z</time></trkpt><trkpt lat="-19.849009938412607" lon="120.65143855664518"><ele>37.0</ele><time>2026-04-24T02:06:35Z</time></trkpt><trkpt lat="-19.848889344709047" lon="120.65170252392628"><ele>37.0</ele><time>2026-04-24T02:06:36Z</time></trkpt><trkpt lat="-19.848769282134217" lon="120.65196501992408"><ele>36.0</ele><time>2026-04-24T02:06:37Z</time></trkpt><trkpt lat="-19.848649995608163" lon="120.65222781101656"><ele>35.0</ele><time>2026-04-24T02:06:38Z</time></trkpt><trkpt lat="-19.84852671692671" lon="120.65249405173917"><ele>35.0</ele><time>2026-04-24T02:06:39Z</time></trkpt><trkpt lat="-19.84840042242374" lon="120.65275731999304"><ele>35.0</ele><time>2026-04-24T02:06:40Z</time></trkpt><trkpt lat="-19.848276976010283" lon="120.65302459283681"><ele>34.5</ele><time>2026-04-24T02:06:41Z</time></trkpt><trkpt lat="-19.848156697082363" lon="120.65329330307777"><ele>34.0</ele><time>2026-04-24T02:06:42Z</time></trkpt><trkpt lat="-19.84803468820979" lon="120.65356131246376"><ele>35.0</ele><time>2026-04-24T02:06:43Z</time></trkpt><trkpt lat="-19.847912053732138" lon="120.65383194727832"><ele>36.0</ele><time>2026-04-24T02:06:44Z</time></trkpt><trkpt lat="-19.847789060856275" lon="120.65410268580123"><ele>36.0</ele><time>2026-04-24T02:06:45Z</time></trkpt><trkpt lat="-19.847665121188392" lon="120.65437532301723"><ele>36.0</ele><time>2026-04-24T02:06:46Z</time></trkpt><trkpt lat="-19.84754090715109" lon="120.65464557161033"><ele>35.5</ele><time>2026-04-24T02:06:47Z</time></trkpt><trkpt lat="-19.84741643184238" lon="120.65491928761121"><ele>35.0</ele><time>2026-04-24T02:06:48Z</time></trkpt><trkpt lat="-19.84729304065202" lon="120.65519032773635"><ele>35.0</ele><time>2026-04-24T02:06:49Z</time></trkpt><trkpt lat="-19.84716748800675" lon="120.65546569901211"><ele>35.0</ele><time>2026-04-24T02:06:50Z</time></trkpt><trkpt lat="-19.8470405618464" lon="120.65574052092094"><ele>35.0</ele><time>2026-04-24T02:06:51Z</time></trkpt><trkpt lat="-19.846915303847346" lon="120.65601161411784"><ele>35.0</ele><time>2026-04-24T02:06:52Z</time></trkpt><trkpt lat="-19.84679152973691" lon="120.65628323755203"><ele>35.0</ele><time>2026-04-24T02:06:53Z</time></trkpt><trkpt lat="-19.846668909736888" lon="120.65655303264364"><ele>35.0</ele><time>2026-04-24T02:06:54Z</time></trkpt><trkpt lat="-19.846548220961683" lon="120.6568236703101"><ele>36.0</ele><time>2026-04-24T02:06:55Z</time></trkpt><trkpt lat="-19.84642920155344" lon="120.65709298228758"><ele>37.0</ele><time>2026-04-24T02:06:56Z</time></trkpt><trkpt lat="-19.846308774928254" lon="120.65736085646444"><ele>37.0</ele><time>2026-04-24T02:06:57Z</time></trkpt><trkpt lat="-19.846188957011478" lon="120.65762792972103"><ele>37.0</ele><time>2026-04-24T02:06:58Z</time></trkpt><trkpt lat="-19.846067814244858" lon="120.65789613352045"><ele>36.5</ele><time>2026-04-24T02:06:59Z</time></trkpt><trkpt lat="-19.84594667114369" lon="120.65816090613151"><ele>36.0</ele><time>2026-04-24T02:07:00Z</time></trkpt><trkpt lat="-19.845825665302225" lon="120.65842401892573"><ele>35.5</ele><time>2026-04-24T02:07:01Z</time></trkpt><trkpt lat="-19.84570391942382" lon="120.65868254532242"><ele>35.0</ele><time>2026-04-24T02:07:02Z</time></trkpt><trkpt lat="-19.845583331430106" lon="120.6589433026668"><ele>35.0</ele><time>2026-04-24T02:07:03Z</time></trkpt><trkpt lat="-19.84546472759334" lon="120.65920360936943"><ele>35.0</ele><time>2026-04-24T02:07:04Z</time></trkpt><trkpt lat="-19.8453449268698" lon="120.65946674527518"><ele>35.0</ele><time>2026-04-24T02:07:05Z</time></trkpt><trkpt lat="-19.84522613974973" lon="120.65973043997684"><ele>35.0</ele><time>2026-04-24T02:07:06Z</time></trkpt><trkpt lat="-19.845106090737318" lon="120.65999461954732"><ele>35.5</ele><time>2026-04-24T02:07:07Z</time></trkpt><trkpt lat="-19.844986854067553" lon="120.66025448533439"><ele>36.0</ele><time>2026-04-24T02:07:08Z</time></trkpt><trkpt lat="-19.844864584607468" lon="120.66052121688806"><ele>35.0</ele><time>2026-04-24T02:07:09Z</time></trkpt><trkpt lat="-19.844742666605455" lon="120.66078757685472"><ele>34.0</ele><time>2026-04-24T02:07:10Z</time></trkpt><trkpt lat="-19.844622011094316" lon="120.66105648743837"><ele>33.0</ele><time>2026-04-24T02:07:11Z</time></trkpt><trkpt lat="-19.844497697889338" lon="120.66133117907383"><ele>32.0</ele><time>2026-04-24T02:07:12Z</time></trkpt><trkpt lat="-19.84437281532299" lon="120.66160779215525"><ele>32.0</ele><time>2026-04-24T02:07:13Z</time></trkpt><trkpt lat="-19.84424753290167" lon="120.66188589861117"><ele>32.0</ele><time>2026-04-24T02:07:14Z</time></trkpt><trkpt lat="-19.844122236340745" lon="120.66216317776754"><ele>32.5</ele><time>2026-04-24T02:07:15Z</time></trkpt><trkpt lat="-19.843997861733406" lon="120.66243717364016"><ele>33.0</ele><time>2026-04-24T02:07:16Z</time></trkpt><trkpt lat="-19.84387537910501" lon="120.66270679527977"><ele>31.5</ele><time>2026-04-24T02:07:17Z</time></trkpt><trkpt lat="-19.84375509819919" lon="120.66297549828077"><ele>30.0</ele><time>2026-04-24T02:07:18Z</time></trkpt><trkpt lat="-19.843634910302942" lon="120.66323928440234"><ele>30.0</ele><time>2026-04-24T02:07:19Z</time></trkpt><trkpt lat="-19.843516107601875" lon="120.66350181426175"><ele>30.0</ele><time>2026-04-24T02:07:20Z</time></trkpt><trkpt lat="-19.84339505598871" lon="120.66376866279661"><ele>30.0</ele><time>2026-04-24T02:07:21Z</time></trkpt><trkpt lat="-19.843273106832275" lon="120.66403605654835"><ele>30.0</ele><time>2026-04-24T02:07:22Z</time></trkpt><trkpt lat="-19.843151511668633" lon="120.66430401207423"><ele>30.0</ele><time>2026-04-24T02:07:23Z</time></trkpt><trkpt lat="-19.843026535820144" lon="120.6645722254298"><ele>30.0</ele><time>2026-04-24T02:07:24.001Z</time></trkpt><trkpt lat="-19.8429000965682" lon="120.66484230150901"><ele>30.0</ele><time>2026-04-24T02:07:25.001Z</time></trkpt><trkpt lat="-19.842775126161023" lon="120.665114457964"><ele>30.0</ele><time>2026-04-24T02:07:26.001Z</time></trkpt><trkpt lat="-19.842650666083053" lon="120.66538899327294"><ele>29.5</ele><time>2026-04-24T02:07:27.001Z</time></trkpt><trkpt lat="-19.842525511277533" lon="120.66566267371962"><ele>29.0</ele><time>2026-04-24T02:07:28.001Z</time></trkpt><trkpt lat="-19.842400763714323" lon="120.66593504031374"><ele>29.0</ele><time>2026-04-24T02:07:29.001Z</time></trkpt><trkpt lat="-19.84227604991766" lon="120.66620709410891"><ele>29.0</ele><time>2026-04-24T02:07:30.001Z</time></trkpt><trkpt lat="-19.8421516437217" lon="120.66648091049953"><ele>29.0</ele><time>2026-04-24T02:07:31.001Z</time></trkpt><trkpt lat="-19.842028983919857" lon="120.666754697283"><ele>29.0</ele><time>2026-04-24T02:07:32.001Z</time></trkpt><trkpt lat="-19.84190779927507" lon="120.66702611998953"><ele>28.0</ele><time>2026-04-24T02:07:33.001Z</time></trkpt><trkpt lat="-19.841787718174256" lon="120.66729517760626"><ele>27.0</ele><time>2026-04-24T02:07:34.001Z</time></trkpt><trkpt lat="-19.841666461578242" lon="120.66756265780154"><ele>27.5</ele><time>2026-04-24T02:07:35.001Z</time></trkpt><trkpt lat="-19.841546195734413" lon="120.66782417130001"><ele>28.0</ele><time>2026-04-24T02:07:36.001Z</time></trkpt><trkpt lat="-19.841425879134636" lon="120.66808238078433"><ele>28.0</ele><time>2026-04-24T02:07:37.001Z</time></trkpt><trkpt lat="-19.841305934326414" lon="120.66834106779923"><ele>28.0</ele><time>2026-04-24T02:07:38.001Z</time></trkpt><trkpt lat="-19.841186940473484" lon="120.66860141870332"><ele>28.0</ele><time>2026-04-24T02:07:39.001Z</time></trkpt><trkpt lat="-19.84106683824576" lon="120.66886564577806"><ele>28.0</ele><time>2026-04-24T02:07:40.001Z</time></trkpt><trkpt lat="-19.840945360655386" lon="120.66913156463782"><ele>27.5</ele><time>2026-04-24T02:07:41.001Z</time></trkpt><trkpt lat="-19.840822359631815" lon="120.66939634880283"><ele>27.0</ele><time>2026-04-24T02:07:42.001Z</time></trkpt><trkpt lat="-19.840698826855842" lon="120.66966015617456"><ele>27.0</ele><time>2026-04-24T02:07:43.001Z</time></trkpt><trkpt lat="-19.84057772466348" lon="120.66992325218534"><ele>27.0</ele><time>2026-04-24T02:07:44.001Z</time></trkpt><trkpt lat="-19.840455330175637" lon="120.6701875689277"><ele>27.0</ele><time>2026-04-24T02:07:45.001Z</time></trkpt><trkpt lat="-19.84033353017059" lon="120.6704544796182"><ele>27.0</ele><time>2026-04-24T02:07:46.001Z</time></trkpt><trkpt lat="-19.840214911528246" lon="120.67072251192285"><ele>27.0</ele><time>2026-04-24T02:07:47.001Z</time></trkpt><trkpt lat="-19.840097583822786" lon="120.67099207021123"><ele>27.0</ele><time>2026-04-24T02:07:48.001Z</time></trkpt><trkpt lat="-19.83997776840857" lon="120.67126354893044"><ele>26.5</ele><time>2026-04-24T02:07:49Z</time></trkpt><trkpt lat="-19.83985662792697" lon="120.6715366974332"><ele>26.0</ele><time>2026-04-24T02:07:50Z</time></trkpt><trkpt lat="-19.839734266948216" lon="120.67180114058071"><ele>26.5</ele><time>2026-04-24T02:07:51Z</time></trkpt><trkpt lat="-19.839611208946323" lon="120.67206309418033"><ele>27.0</ele><time>2026-04-24T02:07:52Z</time></trkpt><trkpt lat="-19.839488643441754" lon="120.67232369739499"><ele>27.0</ele><time>2026-04-24T02:07:53Z</time></trkpt><trkpt lat="-19.83936826690392" lon="120.67258497903534"><ele>27.0</ele><time>2026-04-24T02:07:54Z</time></trkpt><trkpt lat="-19.839248430772226" lon="120.67284797483704"><ele>27.0</ele><time>2026-04-24T02:07:55Z</time></trkpt><trkpt lat="-19.839127060500903" lon="120.67311339644039"><ele>27.0</ele><time>2026-04-24T02:07:56Z</time></trkpt><trkpt lat="-19.839005073566295" lon="120.67338083333192"><ele>26.5</ele><time>2026-04-24T02:07:57Z</time></trkpt><trkpt lat="-19.838886990020008" lon="120.67364789516569"><ele>26.0</ele><time>2026-04-24T02:07:58Z</time></trkpt><trkpt lat="-19.8386598162255" lon="120.6741808890866"><ele>26.0</ele><time>2026-04-24T02:08:00Z</time></trkpt><trkpt lat="-19.838551651366377" lon="120.67444174840162"><ele>26.0</ele><time>2026-04-24T02:08:01Z</time></trkpt><trkpt lat="-19.838451756307197" lon="120.67470220381732"><ele>26.5</ele><time>2026-04-24T02:08:02Z</time></trkpt><trkpt lat="-19.83835984191857" lon="120.67495998526746"><ele>27.0</ele><time>2026-04-24T02:08:03Z</time></trkpt><trkpt lat="-19.838267717774904" lon="120.67521687617072"><ele>27.0</ele><time>2026-04-24T02:08:04Z</time></trkpt><trkpt lat="-19.8381786700845" lon="120.67547029398754"><ele>27.0</ele><time>2026-04-24T02:08:05Z</time></trkpt><trkpt lat="-19.83809163330563" lon="120.67572595751435"><ele>27.0</ele><time>2026-04-24T02:08:06Z</time></trkpt><trkpt lat="-19.838008031335107" lon="120.67597864286071"><ele>27.0</ele><time>2026-04-24T02:08:07Z</time></trkpt><trkpt lat="-19.83792613654452" lon="120.67623271496402"><ele>26.5</ele><time>2026-04-24T02:08:08Z</time></trkpt><trkpt lat="-19.83784627622012" lon="120.67648724961447"><ele>26.0</ele><time>2026-04-24T02:08:09Z</time></trkpt><trkpt lat="-19.837767954546752" lon="120.67674149715825"><ele>26.0</ele><time>2026-04-24T02:08:10Z</time></trkpt><trkpt lat="-19.837694364314885" lon="120.67699434822636"><ele>26.0</ele><time>2026-04-24T02:08:11Z</time></trkpt><trkpt lat="-19.837628343799217" lon="120.67724018301382"><ele>25.0</ele><time>2026-04-24T02:08:12Z</time></trkpt><trkpt lat="-19.837567081098072" lon="120.67747422258365"><ele>24.0</ele><time>2026-04-24T02:08:13Z</time></trkpt><trkpt lat="-19.83751033900838" lon="120.67770298835497"><ele>24.666666666666664</ele><time>2026-04-24T02:08:14Z</time></trkpt><trkpt lat="-19.837457326098342" lon="120.67792078247102"><ele>25.333333333333332</ele><time>2026-04-24T02:08:15Z</time></trkpt><trkpt lat="-19.83740899658743" lon="120.67812446699986"><ele>26.0</ele><time>2026-04-24T02:08:16Z</time></trkpt><trkpt lat="-19.837360920185297" lon="120.67831506147016"><ele>26.0</ele><time>2026-04-24T02:08:17Z</time></trkpt><trkpt lat="-19.83731348129632" lon="120.67848766081572"><ele>26.0</ele><time>2026-04-24T02:08:18Z</time></trkpt><trkpt lat="-19.83726670313442" lon="120.67864859587439"><ele>26.0</ele><time>2026-04-24T02:08:19Z</time></trkpt><trkpt lat="-19.83722206825091" lon="120.67878863787074"><ele>26.200000000000003</ele><time>2026-04-24T02:08:20Z</time></trkpt><trkpt lat="-19.837182726198566" lon="120.67891848643976"><ele>26.400000000000002</ele><time>2026-04-24T02:08:21Z</time></trkpt><trkpt lat="-19.837150921427703" lon="120.67903820458774"><ele>26.6</ele><time>2026-04-24T02:08:22Z</time></trkpt><trkpt lat="-19.83712548589545" lon="120.6791455931021"><ele>26.8</ele><time>2026-04-24T02:08:23Z</time></trkpt><trkpt lat="-19.83710342286197" lon="120.67924208697545"><ele>27.0</ele><time>2026-04-24T02:08:24Z</time></trkpt><trkpt lat="-19.83708432528351" lon="120.67932494302408"><ele>27.0</ele><time>2026-04-24T02:08:25Z</time></trkpt><trkpt lat="-19.837061125220195" lon="120.67939120315297"><ele>27.000000000000004</ele><time>2026-04-24T02:08:26Z</time></trkpt><trkpt lat="-19.836985016081474" lon="120.6794895860265"><ele>27.000000000000004</ele><time>2026-04-24T02:08:28Z</time></trkpt><trkpt lat="-19.836836880586304" lon="120.67948195963868"><ele>27.0</ele><time>2026-04-24T02:08:30Z</time></trkpt><trkpt lat="-19.836739829225035" lon="120.67946651384163"><ele>27.0</ele><time>2026-04-24T02:08:31Z</time></trkpt><trkpt lat="-19.836622848031894" lon="120.67944828790573"><ele>26.75</ele><time>2026-04-24T02:08:32Z</time></trkpt><trkpt lat="-19.836491476041108" lon="120.67944454370111"><ele>26.5</ele><time>2026-04-24T02:08:33Z</time></trkpt><trkpt lat="-19.836350830676615" lon="120.67941355496083"><ele>26.25</ele><time>2026-04-24T02:08:34Z</time></trkpt><trkpt lat="-19.836180098825626" lon="120.679390632065"><ele>26.0</ele><time>2026-04-24T02:08:35Z</time></trkpt><trkpt lat="-19.836010475952175" lon="120.67936457310601"><ele>25.666666666666664</ele><time>2026-04-24T02:08:36Z</time></trkpt><trkpt lat="-19.835831542282133" lon="120.67934216101717"><ele>25.333333333333336</ele><time>2026-04-24T02:08:37Z</time></trkpt><trkpt lat="-19.83564354352671" lon="120.6792942736885"><ele>25.0</ele><time>2026-04-24T02:08:38Z</time></trkpt><trkpt lat="-19.835443870436944" lon="120.67926089911502"><ele>25.0</ele><time>2026-04-24T02:08:39Z</time></trkpt><trkpt lat="-19.83524104092444" lon="120.6792289783357"><ele>25.0</ele><time>2026-04-24T02:08:40Z</time></trkpt><trkpt lat="-19.8350256516479" lon="120.67919613012887"><ele>25.0</ele><time>2026-04-24T02:08:41Z</time></trkpt><trkpt lat="-19.83480558120607" lon="120.67916558610625"><ele>24.5</ele><time>2026-04-24T02:08:42Z</time></trkpt><trkpt lat="-19.834571736647206" lon="120.67913444001996"><ele>24.0</ele><time>2026-04-24T02:08:43Z</time></trkpt><trkpt lat="-19.834327695356077" lon="120.6791144179201"><ele>23.5</ele><time>2026-04-24T02:08:44Z</time></trkpt><trkpt lat="-19.834090108712957" lon="120.67907719912291"><ele>23.0</ele><time>2026-04-24T02:08:45Z</time></trkpt><trkpt lat="-19.8338509437943" lon="120.6790385225948"><ele>23.0</ele><time>2026-04-24T02:08:46Z</time></trkpt><trkpt lat="-19.833607805809553" lon="120.6789998954901"><ele>23.0</ele><time>2026-04-24T02:08:47Z</time></trkpt><trkpt lat="-19.833356697502808" lon="120.67896273741101"><ele>22.0</ele><time>2026-04-24T02:08:48Z</time></trkpt><trkpt lat="-19.83311029354354" lon="120.67892776020558"><ele>21.0</ele><time>2026-04-24T02:08:49Z</time></trkpt><trkpt lat="-19.832870681235164" lon="120.67889467334116"><ele>21.5</ele><time>2026-04-24T02:08:50Z</time></trkpt><trkpt lat="-19.832634059252456" lon="120.67886369170301"><ele>22.0</ele><time>2026-04-24T02:08:51Z</time></trkpt><trkpt lat="-19.83239905186145" lon="120.67883364302611"><ele>22.0</ele><time>2026-04-24T02:08:52Z</time></trkpt><trkpt lat="-19.832165425363442" lon="120.67880009651753"><ele>22.0</ele><time>2026-04-24T02:08:53Z</time></trkpt><trkpt lat="-19.831930817579263" lon="120.67876511023996"><ele>22.5</ele><time>2026-04-24T02:08:54Z</time></trkpt><trkpt lat="-19.831688828294237" lon="120.67872686765077"><ele>23.0</ele><time>2026-04-24T02:08:55Z</time></trkpt><trkpt lat="-19.83145039414599" lon="120.67868751699433"><ele>23.0</ele><time>2026-04-24T02:08:56Z</time></trkpt><trkpt lat="-19.831206663415493" lon="120.67864827686495"><ele>23.0</ele><time>2026-04-24T02:08:57Z</time></trkpt><trkpt lat="-19.830960560004492" lon="120.67861105866864"><ele>21.0</ele><time>2026-04-24T02:08:58Z</time></trkpt><trkpt lat="-19.830711215055622" lon="120.67857350170966"><ele>19.0</ele><time>2026-04-24T02:08:59Z</time></trkpt><trkpt lat="-19.830461661052087" lon="120.67853740033603"><ele>19.0</ele><time>2026-04-24T02:09:00Z</time></trkpt><trkpt lat="-19.830208610901423" lon="120.6785004686744"><ele>19.0</ele><time>2026-04-24T02:09:01Z</time></trkpt><trkpt lat="-19.82995332954736" lon="120.6784618517462"><ele>19.5</ele><time>2026-04-24T02:09:02Z</time></trkpt><trkpt lat="-19.829696925025363" lon="120.6784236854576"><ele>20.0</ele><time>2026-04-24T02:09:03Z</time></trkpt><trkpt lat="-19.829441326114473" lon="120.67838736313139"><ele>20.0</ele><time>2026-04-24T02:09:04Z</time></trkpt><trkpt lat="-19.829183657927018" lon="120.67835220476589"><ele>20.0</ele><time>2026-04-24T02:09:05Z</time></trkpt><trkpt lat="-19.828923447985318" lon="120.6783158237338"><ele>20.0</ele><time>2026-04-24T02:09:06Z</time></trkpt><trkpt lat="-19.828666972131277" lon="120.67828115531468"><ele>20.0</ele><time>2026-04-24T02:09:07Z</time></trkpt><trkpt lat="-19.82840979419877" lon="120.6782489125752"><ele>21.0</ele><time>2026-04-24T02:09:08Z</time></trkpt><trkpt lat="-19.82815312249166" lon="120.67821590315066"><ele>22.0</ele><time>2026-04-24T02:09:09Z</time></trkpt><trkpt lat="-19.827650906194926" lon="120.67814542444454"><ele>21.0</ele><time>2026-04-24T02:09:11Z</time></trkpt><trkpt lat="-19.82740103400682" lon="120.67810978467254"><ele>20.0</ele><time>2026-04-24T02:09:12Z</time></trkpt><trkpt lat="-19.82714928626508" lon="120.6780735020813"><ele>20.0</ele><time>2026-04-24T02:09:13Z</time></trkpt><trkpt lat="-19.82689573346694" lon="120.67803311213642"><ele>20.0</ele><time>2026-04-24T02:09:14Z</time></trkpt><trkpt lat="-19.826632439658848" lon="120.677993944482"><ele>19.5</ele><time>2026-04-24T02:09:15Z</time></trkpt><trkpt lat="-19.826367787740317" lon="120.67795513893671"><ele>19.0</ele><time>2026-04-24T02:09:16Z</time></trkpt><trkpt lat="-19.826106241744338" lon="120.67791704271224"><ele>19.0</ele><time>2026-04-24T02:09:17Z</time></trkpt><trkpt lat="-19.82584869492769" lon="120.67787897221568"><ele>19.0</ele><time>2026-04-24T02:09:18Z</time></trkpt><trkpt lat="-19.825594215249623" lon="120.6778420524409"><ele>19.0</ele><time>2026-04-24T02:09:19.001Z</time></trkpt><trkpt lat="-19.825342804038016" lon="120.6778069669408"><ele>19.0</ele><time>2026-04-24T02:09:20.001Z</time></trkpt><trkpt lat="-19.825087118219365" lon="120.67777007233221"><ele>19.0</ele><time>2026-04-24T02:09:21.001Z</time></trkpt><trkpt lat="-19.82483767110233" lon="120.67773207163609"><ele>19.0</ele><time>2026-04-24T02:09:22.001Z</time></trkpt><trkpt lat="-19.824586528739445" lon="120.6776943676972"><ele>19.0</ele><time>2026-04-24T02:09:23.001Z</time></trkpt><trkpt lat="-19.824336021343576" lon="120.67765560431728"><ele>19.0</ele><time>2026-04-24T02:09:24.001Z</time></trkpt><trkpt lat="-19.824084939750918" lon="120.67761399750634"><ele>19.5</ele><time>2026-04-24T02:09:25.001Z</time></trkpt><trkpt lat="-19.823834534006256" lon="120.67757440611108"><ele>20.0</ele><time>2026-04-24T02:09:26.001Z</time></trkpt><trkpt lat="-19.823582368082697" lon="120.67753632787432"><ele>19.0</ele><time>2026-04-24T02:09:27.001Z</time></trkpt><trkpt lat="-19.823331295753384" lon="120.67750075214245"><ele>18.0</ele><time>2026-04-24T02:09:28.001Z</time></trkpt><trkpt lat="-19.823075165848405" lon="120.67746477772732"><ele>18.0</ele><time>2026-04-24T02:09:29.001Z</time></trkpt><trkpt lat="-19.8228160153314" lon="120.67742949076161"><ele>18.0</ele><time>2026-04-24T02:09:30.001Z</time></trkpt><trkpt lat="-19.822563701544272" lon="120.67739366820913"><ele>17.0</ele><time>2026-04-24T02:09:31.001Z</time></trkpt><trkpt lat="-19.82230773350282" lon="120.67735642751467"><ele>16.0</ele><time>2026-04-24T02:09:32.001Z</time></trkpt><trkpt lat="-19.822059798115305" lon="120.67732089881449"><ele>16.0</ele><time>2026-04-24T02:09:33.001Z</time></trkpt><trkpt lat="-19.82181048204563" lon="120.67728662809819"><ele>16.0</ele><time>2026-04-24T02:09:34.001Z</time></trkpt><trkpt lat="-19.821563332888417" lon="120.6772516041489"><ele>16.0</ele><time>2026-04-24T02:09:35.001Z</time></trkpt><trkpt lat="-19.82132261208399" lon="120.67721655005742"><ele>16.0</ele><time>2026-04-24T02:09:36.001Z</time></trkpt><trkpt lat="-19.821084337511905" lon="120.67718104853233"><ele>16.5</ele><time>2026-04-24T02:09:37.001Z</time></trkpt><trkpt lat="-19.82085761456947" lon="120.6771472672238"><ele>17.0</ele><time>2026-04-24T02:09:38.001Z</time></trkpt><trkpt lat="-19.82062950080163" lon="120.67711213774878"><ele>17.0</ele><time>2026-04-24T02:09:39.001Z</time></trkpt><trkpt lat="-19.820397216726818" lon="120.67707489890867"><ele>17.0</ele><time>2026-04-24T02:09:40.001Z</time></trkpt><trkpt lat="-19.82015402025935" lon="120.67703770142417"><ele>18.0</ele><time>2026-04-24T02:09:41.001Z</time></trkpt><trkpt lat="-19.8199081572126" lon="120.67700145134928"><ele>19.0</ele><time>2026-04-24T02:09:42.001Z</time></trkpt><trkpt lat="-19.819666100914453" lon="120.67696327642312"><ele>17.5</ele><time>2026-04-24T02:09:43.001Z</time></trkpt><trkpt lat="-19.819429044198447" lon="120.67692845827075"><ele>16.0</ele><time>2026-04-24T02:09:44.001Z</time></trkpt><trkpt lat="-19.819206628873186" lon="120.67690195393864"><ele>16.0</ele><time>2026-04-24T02:09:45.001Z</time></trkpt><trkpt lat="-19.81901510741847" lon="120.67687942432534"><ele>16.0</ele><time>2026-04-24T02:09:46.001Z</time></trkpt><trkpt lat="-19.818849179071442" lon="120.676862095066"><ele>16.0</ele><time>2026-04-24T02:09:47.001Z</time></trkpt><trkpt lat="-19.81868938122024" lon="120.67684894393322"><ele>16.0</ele><time>2026-04-24T02:09:48.001Z</time></trkpt><trkpt lat="-19.818513085235963" lon="120.67684034828557"><ele>16.0</ele><time>2026-04-24T02:09:49.001Z</time></trkpt><trkpt lat="-19.81833386113886" lon="120.67683776823719"><ele>16.0</ele><time>2026-04-24T02:09:50.001Z</time></trkpt><trkpt lat="-19.818145500893596" lon="120.67683638823304"><ele>16.0</ele><time>2026-04-24T02:09:51.001Z</time></trkpt><trkpt lat="-19.81796827387832" lon="120.67680788784737"><ele>16.0</ele><time>2026-04-24T02:09:52.001Z</time></trkpt><trkpt lat="-19.817800299438794" lon="120.67679549938124"><ele>16.0</ele><time>2026-04-24T02:09:53.001Z</time></trkpt><trkpt lat="-19.817652542245746" lon="120.67681926825095"><ele>16.25</ele><time>2026-04-24T02:09:54.001Z</time></trkpt><trkpt lat="-19.817516008004674" lon="120.67680541346363"><ele>16.5</ele><time>2026-04-24T02:09:55Z</time></trkpt><trkpt lat="-19.817389885758384" lon="120.67678913227932"><ele>16.75</ele><time>2026-04-24T02:09:56Z</time></trkpt><trkpt lat="-19.817274565209747" lon="120.67677633246672"><ele>17.0</ele><time>2026-04-24T02:09:57Z</time></trkpt><trkpt lat="-19.817174249238665" lon="120.67676934876688"><ele>17.0</ele><time>2026-04-24T02:09:58Z</time></trkpt><trkpt lat="-19.817096081021585" lon="120.6767690648109"><ele>17.0</ele><time>2026-04-24T02:09:59Z</time></trkpt><trkpt lat="-19.81701864604752" lon="120.6767703374153"><ele>17.0</ele><time>2026-04-24T02:10:01Z</time></trkpt><trkpt lat="-19.816944741025964" lon="120.67676653020575"><ele>17.0</ele><time>2026-04-24T02:10:18Z</time></trkpt><trkpt lat="-19.816870541145843" lon="120.67676580624062"><ele>17.0</ele><time>2026-04-24T02:10:19Z</time></trkpt><trkpt lat="-19.816774957591186" lon="120.67676266764613"><ele>17.0</ele><time>2026-04-24T02:10:20Z</time></trkpt><trkpt lat="-19.816669484352325" lon="120.67676059899833"><ele>17.25</ele><time>2026-04-24T02:10:21Z</time></trkpt><trkpt lat="-19.816545975461597" lon="120.6767589136319"><ele>17.5</ele><time>2026-04-24T02:10:22Z</time></trkpt><trkpt lat="-19.816400759865285" lon="120.6767526906185"><ele>17.75</ele><time>2026-04-24T02:10:23Z</time></trkpt><trkpt lat="-19.816241567367538" lon="120.67674012169559"><ele>18.0</ele><time>2026-04-24T02:10:24Z</time></trkpt><trkpt lat="-19.81606227544825" lon="120.67672526475965"><ele>17.666666666666668</ele><time>2026-04-24T02:10:25Z</time></trkpt><trkpt lat="-19.815859582042876" lon="120.67670514457555"><ele>17.333333333333336</ele><time>2026-04-24T02:10:26Z</time></trkpt><trkpt lat="-19.81566121069153" lon="120.6766927150364"><ele>17.0</ele><time>2026-04-24T02:10:27Z</time></trkpt><trkpt lat="-19.815445337936843" lon="120.67668134578011"><ele>17.0</ele><time>2026-04-24T02:10:28Z</time></trkpt><trkpt lat="-19.815222074023886" lon="120.6766739521158"><ele>17.0</ele><time>2026-04-24T02:10:29Z</time></trkpt><trkpt lat="-19.81498701793778" lon="120.67666127047178"><ele>18.0</ele><time>2026-04-24T02:10:30Z</time></trkpt><trkpt lat="-19.814749429838642" lon="120.6766495935109"><ele>19.0</ele><time>2026-04-24T02:10:31Z</time></trkpt><trkpt lat="-19.81449774929407" lon="120.67663769370286"><ele>19.0</ele><time>2026-04-24T02:10:32Z</time></trkpt><trkpt lat="-19.814249844746314" lon="120.67662797156454"><ele>19.0</ele><time>2026-04-24T02:10:33Z</time></trkpt><trkpt lat="-19.814002822709803" lon="120.67661572686826"><ele>19.0</ele><time>2026-04-24T02:10:34Z</time></trkpt><trkpt lat="-19.813755377531166" lon="120.67660333433169"><ele>19.0</ele><time>2026-04-24T02:10:35Z</time></trkpt><trkpt lat="-19.813509368953813" lon="120.67659316870586"><ele>19.5</ele><time>2026-04-24T02:10:36Z</time></trkpt><trkpt lat="-19.813258614438652" lon="120.67658049914527"><ele>20.0</ele><time>2026-04-24T02:10:37Z</time></trkpt><trkpt lat="-19.813007370037692" lon="120.6765656998877"><ele>20.0</ele><time>2026-04-24T02:10:38Z</time></trkpt><trkpt lat="-19.812757668192145" lon="120.67655244124212"><ele>20.0</ele><time>2026-04-24T02:10:39Z</time></trkpt><trkpt lat="-19.812495511839177" lon="120.67653762787418"><ele>19.0</ele><time>2026-04-24T02:10:40Z</time></trkpt><trkpt lat="-19.81224678796184" lon="120.67652463284988"><ele>18.0</ele><time>2026-04-24T02:10:41Z</time></trkpt><trkpt lat="-19.811994409069683" lon="120.67651158570133"><ele>18.5</ele><time>2026-04-24T02:10:42Z</time></trkpt><trkpt lat="-19.811736609933956" lon="120.67649917457746"><ele>19.0</ele><time>2026-04-24T02:10:43Z</time></trkpt><trkpt lat="-19.81147847201256" lon="120.67648678942601"><ele>19.0</ele><time>2026-04-24T02:10:44Z</time></trkpt><trkpt lat="-19.811222834342768" lon="120.67647514395959"><ele>19.0</ele><time>2026-04-24T02:10:45Z</time></trkpt><trkpt lat="-19.810971306220274" lon="120.67646689868297"><ele>18.5</ele><time>2026-04-24T02:10:46Z</time></trkpt><trkpt lat="-19.810715020493223" lon="120.67645676271552"><ele>18.0</ele><time>2026-04-24T02:10:47Z</time></trkpt><trkpt lat="-19.810463307453187" lon="120.67644546798645"><ele>18.0</ele><time>2026-04-24T02:10:48Z</time></trkpt><trkpt lat="-19.810216965502015" lon="120.67643439411641"><ele>18.0</ele><time>2026-04-24T02:10:49Z</time></trkpt><trkpt lat="-19.80997792580281" lon="120.67642355586628"><ele>18.5</ele><time>2026-04-24T02:10:50Z</time></trkpt><trkpt lat="-19.80973451125187" lon="120.67640966238224"><ele>19.0</ele><time>2026-04-24T02:10:51Z</time></trkpt><trkpt lat="-19.809491254714867" lon="120.6763953274628"><ele>18.5</ele><time>2026-04-24T02:10:52Z</time></trkpt><trkpt lat="-19.809243186338364" lon="120.67637734785444"><ele>18.0</ele><time>2026-04-24T02:10:53Z</time></trkpt><trkpt lat="-19.80899216545688" lon="120.67636333370733"><ele>18.0</ele><time>2026-04-24T02:10:54Z</time></trkpt><trkpt lat="-19.808739377661894" lon="120.67635245186507"><ele>18.0</ele><time>2026-04-24T02:10:55Z</time></trkpt><trkpt lat="-19.80848969098318" lon="120.67634601961413"><ele>17.0</ele><time>2026-04-24T02:10:56Z</time></trkpt><trkpt lat="-19.80823917056492" lon="120.67633873437374"><ele>16.0</ele><time>2026-04-24T02:10:57Z</time></trkpt><trkpt lat="-19.807988284283525" lon="120.67632740424288"><ele>16.0</ele><time>2026-04-24T02:10:58Z</time></trkpt><trkpt lat="-19.807742365737862" lon="120.67628799433464"><ele>16.0</ele><time>2026-04-24T02:10:59Z</time></trkpt><trkpt lat="-19.80749038142506" lon="120.67627579137827"><ele>16.0</ele><time>2026-04-24T02:11:00Z</time></trkpt><trkpt lat="-19.807241662457333" lon="120.67626168403933"><ele>16.0</ele><time>2026-04-24T02:11:01Z</time></trkpt><trkpt lat="-19.806984722844515" lon="120.67624690432724"><ele>15.5</ele><time>2026-04-24T02:11:02Z</time></trkpt><trkpt lat="-19.806722252750053" lon="120.67623180649097"><ele>15.0</ele><time>2026-04-24T02:11:03Z</time></trkpt><trkpt lat="-19.806457599904657" lon="120.67621822891688"><ele>15.0</ele><time>2026-04-24T02:11:04Z</time></trkpt><trkpt lat="-19.806192126572512" lon="120.67620652687988"><ele>15.0</ele><time>2026-04-24T02:11:05Z</time></trkpt><trkpt lat="-19.805923581230672" lon="120.6761942891781"><ele>14.0</ele><time>2026-04-24T02:11:06Z</time></trkpt><trkpt lat="-19.805659220540598" lon="120.67618215380514"><ele>13.0</ele><time>2026-04-24T02:11:07Z</time></trkpt><trkpt lat="-19.805390634978867" lon="120.67616785563126"><ele>14.0</ele><time>2026-04-24T02:11:08Z</time></trkpt><trkpt lat="-19.805126401777766" lon="120.67615307516805"><ele>15.0</ele><time>2026-04-24T02:11:09Z</time></trkpt><trkpt lat="-19.80486055058893" lon="120.67615049460848"><ele>15.0</ele><time>2026-04-24T02:11:10Z</time></trkpt><trkpt lat="-19.80459931638352" lon="120.67613170549109"><ele>15.0</ele><time>2026-04-24T02:11:11Z</time></trkpt><trkpt lat="-19.804336506951266" lon="120.6761109076691"><ele>16.5</ele><time>2026-04-24T02:11:12Z</time></trkpt><trkpt lat="-19.804073039053044" lon="120.67608911973588"><ele>18.0</ele><time>2026-04-24T02:11:13Z</time></trkpt><trkpt lat="-19.80380800097073" lon="120.67606599584568"><ele>18.0</ele><time>2026-04-24T02:11:14Z</time></trkpt><trkpt lat="-19.80354788529887" lon="120.67604997021047"><ele>18.0</ele><time>2026-04-24T02:11:15Z</time></trkpt><trkpt lat="-19.803291532921246" lon="120.67603494793634"><ele>17.0</ele><time>2026-04-24T02:11:16Z</time></trkpt><trkpt lat="-19.80303514650853" lon="120.67601991384988"><ele>16.0</ele><time>2026-04-24T02:11:17Z</time></trkpt><trkpt lat="-19.802781299589856" lon="120.67600851339508"><ele>15.5</ele><time>2026-04-24T02:11:18Z</time></trkpt><trkpt lat="-19.802525421325477" lon="120.67599889283453"><ele>15.0</ele><time>2026-04-24T02:11:19Z</time></trkpt><trkpt lat="-19.802272234732172" lon="120.67599056219117"><ele>15.0</ele><time>2026-04-24T02:11:20Z</time></trkpt><trkpt lat="-19.802019471358083" lon="120.67598076080945"><ele>15.0</ele><time>2026-04-24T02:11:21Z</time></trkpt><trkpt lat="-19.80176283508848" lon="120.67596875809436"><ele>15.5</ele><time>2026-04-24T02:11:22Z</time></trkpt><trkpt lat="-19.801506605888083" lon="120.67595336518849"><ele>16.0</ele><time>2026-04-24T02:11:23Z</time></trkpt><trkpt lat="-19.80124371073033" lon="120.67593535706703"><ele>14.5</ele><time>2026-04-24T02:11:24Z</time></trkpt><trkpt lat="-19.80098466337625" lon="120.67591857816845"><ele>13.0</ele><time>2026-04-24T02:11:25Z</time></trkpt><trkpt lat="-19.800730196197538" lon="120.67590582102288"><ele>13.0</ele><time>2026-04-24T02:11:26Z</time></trkpt><trkpt lat="-19.80046810512337" lon="120.67589212562184"><ele>13.0</ele><time>2026-04-24T02:11:27Z</time></trkpt><trkpt lat="-19.800205168950622" lon="120.6758780667939"><ele>12.5</ele><time>2026-04-24T02:11:28Z</time></trkpt><trkpt lat="-19.799943056866596" lon="120.67586222249211"><ele>12.0</ele><time>2026-04-24T02:11:29Z</time></trkpt><trkpt lat="-19.799679195233892" lon="120.67584693718526"><ele>12.0</ele><time>2026-04-24T02:11:30Z</time></trkpt><trkpt lat="-19.799420318703095" lon="120.67583256897485"><ele>12.0</ele><time>2026-04-24T02:11:31Z</time></trkpt><trkpt lat="-19.799154658720553" lon="120.67581781599087"><ele>12.0</ele><time>2026-04-24T02:11:32Z</time></trkpt><trkpt lat="-19.79889164746896" lon="120.6758039791496"><ele>12.0</ele><time>2026-04-24T02:11:33Z</time></trkpt><trkpt lat="-19.798630875688218" lon="120.67579085046164"><ele>12.5</ele><time>2026-04-24T02:11:34Z</time></trkpt><trkpt lat="-19.798369439538263" lon="120.67577629363005"><ele>13.0</ele><time>2026-04-24T02:11:35Z</time></trkpt><trkpt lat="-19.79810424372108" lon="120.67576403685761"><ele>13.0</ele><time>2026-04-24T02:11:36Z</time></trkpt><trkpt lat="-19.797832663737218" lon="120.67575160271856"><ele>13.0</ele><time>2026-04-24T02:11:37Z</time></trkpt><trkpt lat="-19.79756420900967" lon="120.6757423552084"><ele>13.0</ele><time>2026-04-24T02:11:38Z</time></trkpt><trkpt lat="-19.797287884495695" lon="120.67573179142789"><ele>13.0</ele><time>2026-04-24T02:11:39Z</time></trkpt><trkpt lat="-19.797011983491547" lon="120.67572005215064"><ele>12.5</ele><time>2026-04-24T02:11:40Z</time></trkpt><trkpt lat="-19.796737150254728" lon="120.67570576714995"><ele>12.0</ele><time>2026-04-24T02:11:41Z</time></trkpt><trkpt lat="-19.796454758479648" lon="120.67568933181404"><ele>12.0</ele><time>2026-04-24T02:11:42.001Z</time></trkpt><trkpt lat="-19.796189784891006" lon="120.67567518057749"><ele>12.0</ele><time>2026-04-24T02:11:43.001Z</time></trkpt><trkpt lat="-19.795901569137634" lon="120.67565385364506"><ele>12.0</ele><time>2026-04-24T02:11:44.001Z</time></trkpt><trkpt lat="-19.79562281308257" lon="120.67564360692532"><ele>12.0</ele><time>2026-04-24T02:11:45.001Z</time></trkpt><trkpt lat="-19.795333081975258" lon="120.67562140852361"><ele>11.5</ele><time>2026-04-24T02:11:46.001Z</time></trkpt><trkpt lat="-19.795055416733963" lon="120.67561247801707"><ele>11.0</ele><time>2026-04-24T02:11:47.001Z</time></trkpt><trkpt lat="-19.794775607843327" lon="120.67560264624817"><ele>11.0</ele><time>2026-04-24T02:11:48.001Z</time></trkpt><trkpt lat="-19.794485724281518" lon="120.67558853040725"><ele>11.0</ele><time>2026-04-24T02:11:49.001Z</time></trkpt><trkpt lat="-19.79420535917118" lon="120.67557133363876"><ele>11.5</ele><time>2026-04-24T02:11:50.001Z</time></trkpt><trkpt lat="-19.793931957137445" lon="120.67555217371144"><ele>12.0</ele><time>2026-04-24T02:11:51.001Z</time></trkpt><trkpt lat="-19.793654701655196" lon="120.67552981425818"><ele>12.0</ele><time>2026-04-24T02:11:52.001Z</time></trkpt><trkpt lat="-19.79337497154032" lon="120.6755172516919"><ele>12.0</ele><time>2026-04-24T02:11:53.001Z</time></trkpt><trkpt lat="-19.79309265716791" lon="120.67550560643409"><ele>12.0</ele><time>2026-04-24T02:11:54.001Z</time></trkpt><trkpt lat="-19.792813465077195" lon="120.67549494276325"><ele>12.0</ele><time>2026-04-24T02:11:55.001Z</time></trkpt><trkpt lat="-19.792532136458288" lon="120.67548025887474"><ele>11.5</ele><time>2026-04-24T02:11:56.001Z</time></trkpt><trkpt lat="-19.79225396509726" lon="120.67546777851227"><ele>11.0</ele><time>2026-04-24T02:11:57.001Z</time></trkpt><trkpt lat="-19.791983356950762" lon="120.67544754032257"><ele>10.5</ele><time>2026-04-24T02:11:58.001Z</time></trkpt><trkpt lat="-19.791702409566604" lon="120.67542914350568"><ele>10.0</ele><time>2026-04-24T02:11:59.001Z</time></trkpt><trkpt lat="-19.791423997250106" lon="120.6754140237777"><ele>10.0</ele><time>2026-04-24T02:12:00.001Z</time></trkpt><trkpt lat="-19.791152754694497" lon="120.67540335430675"><ele>10.0</ele><time>2026-04-24T02:12:01Z</time></trkpt><trkpt lat="-19.790885931731527" lon="120.67539331621266"><ele>11.0</ele><time>2026-04-24T02:12:02Z</time></trkpt><trkpt lat="-19.790609133375007" lon="120.67537835062714"><ele>12.0</ele><time>2026-04-24T02:12:03Z</time></trkpt><trkpt lat="-19.79033604399626" lon="120.67536020032489"><ele>12.0</ele><time>2026-04-24T02:12:04Z</time></trkpt><trkpt lat="-19.79005941059609" lon="120.6753426477835"><ele>12.0</ele><time>2026-04-24T02:12:05Z</time></trkpt><trkpt lat="-19.78978351938684" lon="120.67532880981884"><ele>12.0</ele><time>2026-04-24T02:12:06Z</time></trkpt><trkpt lat="-19.789508378321166" lon="120.67531554346354"><ele>12.0</ele><time>2026-04-24T02:12:07Z</time></trkpt><trkpt lat="-19.78923683825609" lon="120.67530507839962"><ele>12.5</ele><time>2026-04-24T02:12:08Z</time></trkpt><trkpt lat="-19.788961885254313" lon="120.67529542972578"><ele>13.0</ele><time>2026-04-24T02:12:09Z</time></trkpt><trkpt lat="-19.788680085335443" lon="120.67528280273217"><ele>12.0</ele><time>2026-04-24T02:12:10Z</time></trkpt><trkpt lat="-19.788397757982427" lon="120.67526901965732"><ele>11.0</ele><time>2026-04-24T02:12:11Z</time></trkpt><trkpt lat="-19.788117182660248" lon="120.67525462630377"><ele>11.0</ele><time>2026-04-24T02:12:12Z</time></trkpt><trkpt lat="-19.787840167662047" lon="120.67524189681605"><ele>11.0</ele><time>2026-04-24T02:12:13Z</time></trkpt><trkpt lat="-19.787559242582727" lon="120.67522895041033"><ele>11.0</ele><time>2026-04-24T02:12:14Z</time></trkpt><trkpt lat="-19.78728837954175" lon="120.6752196188718"><ele>11.0</ele><time>2026-04-24T02:12:15Z</time></trkpt><trkpt lat="-19.787014290839814" lon="120.67520897090463"><ele>11.5</ele><time>2026-04-24T02:12:16Z</time></trkpt><trkpt lat="-19.78674501039761" lon="120.6751929407064"><ele>12.0</ele><time>2026-04-24T02:12:17Z</time></trkpt><trkpt lat="-19.786467467898085" lon="120.67517205303683"><ele>12.0</ele><time>2026-04-24T02:12:18Z</time></trkpt><trkpt lat="-19.786195746696592" lon="120.67515553375834"><ele>12.0</ele><time>2026-04-24T02:12:19Z</time></trkpt><trkpt lat="-19.78592095794973" lon="120.6751396763598"><ele>12.5</ele><time>2026-04-24T02:12:20Z</time></trkpt><trkpt lat="-19.785645705340936" lon="120.67512504857983"><ele>13.0</ele><time>2026-04-24T02:12:21Z</time></trkpt><trkpt lat="-19.785377380171195" lon="120.67511262127819"><ele>13.5</ele><time>2026-04-24T02:12:22Z</time></trkpt><trkpt lat="-19.785106861343838" lon="120.67510121381349"><ele>14.0</ele><time>2026-04-24T02:12:23Z</time></trkpt><trkpt lat="-19.784838164298694" lon="120.67508849348646"><ele>14.0</ele><time>2026-04-24T02:12:24Z</time></trkpt><trkpt lat="-19.784572911969136" lon="120.67507495731293"><ele>14.0</ele><time>2026-04-24T02:12:25Z</time></trkpt><trkpt lat="-19.78429736875923" lon="120.67505649863395"><ele>13.5</ele><time>2026-04-24T02:12:26Z</time></trkpt><trkpt lat="-19.784029796917057" lon="120.67503934765226"><ele>13.0</ele><time>2026-04-24T02:12:27Z</time></trkpt><trkpt lat="-19.783757910583677" lon="120.67502034452168"><ele>13.5</ele><time>2026-04-24T02:12:28Z</time></trkpt><trkpt lat="-19.783487625372217" lon="120.67500596202436"><ele>14.0</ele><time>2026-04-24T02:12:29Z</time></trkpt><trkpt lat="-19.783218182567563" lon="120.67499340721588"><ele>14.0</ele><time>2026-04-24T02:12:30Z</time></trkpt><trkpt lat="-19.782945271004948" lon="120.67498067586253"><ele>14.0</ele><time>2026-04-24T02:12:31Z</time></trkpt><trkpt lat="-19.782675561188636" lon="120.6749685947723"><ele>14.0</ele><time>2026-04-24T02:12:32Z</time></trkpt><trkpt lat="-19.78239909438203" lon="120.6749534355964"><ele>14.0</ele><time>2026-04-24T02:12:33Z</time></trkpt><trkpt lat="-19.78212894946356" lon="120.67494143897758"><ele>14.0</ele><time>2026-04-24T02:12:34Z</time></trkpt><trkpt lat="-19.78184872431518" lon="120.6749275270017"><ele>14.0</ele><time>2026-04-24T02:12:35Z</time></trkpt><trkpt lat="-19.78157370749201" lon="120.67491378316443"><ele>14.0</ele><time>2026-04-24T02:12:36Z</time></trkpt><trkpt lat="-19.781296225686674" lon="120.67489995191555"><ele>14.0</ele><time>2026-04-24T02:12:37Z</time></trkpt><trkpt lat="-19.781017617052992" lon="120.67488555293211"><ele>15.0</ele><time>2026-04-24T02:12:38Z</time></trkpt><trkpt lat="-19.780741165253488" lon="120.67487180668347"><ele>16.0</ele><time>2026-04-24T02:12:39Z</time></trkpt><trkpt lat="-19.780461414603078" lon="120.6748571662543"><ele>16.0</ele><time>2026-04-24T02:12:40Z</time></trkpt><trkpt lat="-19.780182593925662" lon="120.67484421247295"><ele>16.0</ele><time>2026-04-24T02:12:41Z</time></trkpt><trkpt lat="-19.779910759610193" lon="120.67483120087367"><ele>16.0</ele><time>2026-04-24T02:12:42Z</time></trkpt><trkpt lat="-19.77963435704073" lon="120.67481471770196"><ele>16.0</ele><time>2026-04-24T02:12:43Z</time></trkpt><trkpt lat="-19.77936378212974" lon="120.67479888608874"><ele>15.0</ele><time>2026-04-24T02:12:44Z</time></trkpt><trkpt lat="-19.779088987968702" lon="120.67478397835247"><ele>14.0</ele><time>2026-04-24T02:12:45Z</time></trkpt><trkpt lat="-19.778815592976567" lon="120.67476937311172"><ele>14.0</ele><time>2026-04-24T02:12:46Z</time></trkpt><trkpt lat="-19.778544748280705" lon="120.67475428304162"><ele>14.0</ele><time>2026-04-24T02:12:47Z</time></trkpt><trkpt lat="-19.77827348406396" lon="120.67473899811756"><ele>14.5</ele><time>2026-04-24T02:12:48Z</time></trkpt><trkpt lat="-19.77800206472897" lon="120.67472363020256"><ele>15.0</ele><time>2026-04-24T02:12:49Z</time></trkpt><trkpt lat="-19.777734827364053" lon="120.67471036332358"><ele>15.5</ele><time>2026-04-24T02:12:50Z</time></trkpt><trkpt lat="-19.7774726451921" lon="120.67469546196722"><ele>16.0</ele><time>2026-04-24T02:12:51Z</time></trkpt><trkpt lat="-19.777214367715167" lon="120.67468080581914"><ele>16.0</ele><time>2026-04-24T02:12:52Z</time></trkpt><trkpt lat="-19.776948498692818" lon="120.6746657795356"><ele>16.0</ele><time>2026-04-24T02:12:53Z</time></trkpt><trkpt lat="-19.776687359108518" lon="120.6746533760708"><ele>16.0</ele><time>2026-04-24T02:12:54Z</time></trkpt><trkpt lat="-19.776422427757986" lon="120.67463714746155"><ele>16.0</ele><time>2026-04-24T02:12:55Z</time></trkpt><trkpt lat="-19.776171680454926" lon="120.67462153489791"><ele>15.0</ele><time>2026-04-24T02:12:56Z</time></trkpt><trkpt lat="-19.775922318905813" lon="120.67460787156027"><ele>14.0</ele><time>2026-04-24T02:12:57Z</time></trkpt><trkpt lat="-19.77569026803751" lon="120.67459708815456"><ele>14.0</ele><time>2026-04-24T02:12:58Z</time></trkpt><trkpt lat="-19.775480670599578" lon="120.67458785051426"><ele>14.0</ele><time>2026-04-24T02:12:59Z</time></trkpt><trkpt lat="-19.775285606993794" lon="120.67457900063629"><ele>14.0</ele><time>2026-04-24T02:13:00Z</time></trkpt><trkpt lat="-19.775094483772634" lon="120.67456931172357"><ele>14.333333333333334</ele><time>2026-04-24T02:13:01Z</time></trkpt><trkpt lat="-19.774919290173695" lon="120.67456208291057"><ele>14.666666666666668</ele><time>2026-04-24T02:13:02Z</time></trkpt><trkpt lat="-19.77476000545508" lon="120.67455717332464"><ele>15.0</ele><time>2026-04-24T02:13:03Z</time></trkpt><trkpt lat="-19.774613738964945" lon="120.67455519317843"><ele>15.0</ele><time>2026-04-24T02:13:04Z</time></trkpt><trkpt lat="-19.77447594648927" lon="120.67455105791369"><ele>15.0</ele><time>2026-04-24T02:13:05Z</time></trkpt><trkpt lat="-19.77434520585757" lon="120.67454570042788"><ele>15.0</ele><time>2026-04-24T02:13:06Z</time></trkpt><trkpt lat="-19.774222079147222" lon="120.67453962203867"><ele>15.0</ele><time>2026-04-24T02:13:07Z</time></trkpt><trkpt lat="-19.774106079220854" lon="120.67453276207493"><ele>14.75</ele><time>2026-04-24T02:13:08Z</time></trkpt><trkpt lat="-19.773992909436636" lon="120.6745233417011"><ele>14.5</ele><time>2026-04-24T02:13:09Z</time></trkpt><trkpt lat="-19.773866818658185" lon="120.67451038808942"><ele>14.25</ele><time>2026-04-24T02:13:10Z</time></trkpt><trkpt lat="-19.7737257863103" lon="120.67449841511343"><ele>14.0</ele><time>2026-04-24T02:13:11Z</time></trkpt><trkpt lat="-19.773567258976637" lon="120.67448751607785"><ele>14.0</ele><time>2026-04-24T02:13:12Z</time></trkpt><trkpt lat="-19.77340489117164" lon="120.67447680358639"><ele>14.0</ele><time>2026-04-24T02:13:13Z</time></trkpt><trkpt lat="-19.773229291623473" lon="120.67446574516971"><ele>14.0</ele><time>2026-04-24T02:13:14Z</time></trkpt><trkpt lat="-19.773049315615435" lon="120.67445617615654"><ele>14.0</ele><time>2026-04-24T02:13:15Z</time></trkpt><trkpt lat="-19.77285410309328" lon="120.67444502909164"><ele>14.0</ele><time>2026-04-24T02:13:16Z</time></trkpt><trkpt lat="-19.772641196388264" lon="120.67443435523326"><ele>14.0</ele><time>2026-04-24T02:13:17Z</time></trkpt><trkpt lat="-19.772424571526546" lon="120.67442474000481"><ele>14.0</ele><time>2026-04-24T02:13:18Z</time></trkpt><trkpt lat="-19.7722106172495" lon="120.67441473362918"><ele>14.0</ele><time>2026-04-24T02:13:19Z</time></trkpt><trkpt lat="-19.77198047392549" lon="120.67440107509822"><ele>14.0</ele><time>2026-04-24T02:13:20Z</time></trkpt><trkpt lat="-19.771741641717245" lon="120.67438519285454"><ele>14.0</ele><time>2026-04-24T02:13:21Z</time></trkpt><trkpt lat="-19.771507214453525" lon="120.67436925388165"><ele>14.0</ele><time>2026-04-24T02:13:22Z</time></trkpt><trkpt lat="-19.77128063353119" lon="120.67435423636444"><ele>14.0</ele><time>2026-04-24T02:13:23Z</time></trkpt><trkpt lat="-19.7710501879559" lon="120.67433767200825"><ele>14.0</ele><time>2026-04-24T02:13:24Z</time></trkpt><trkpt lat="-19.77081462927783" lon="120.67432032737537"><ele>13.5</ele><time>2026-04-24T02:13:25Z</time></trkpt><trkpt lat="-19.77058947205029" lon="120.67430684008492"><ele>13.0</ele><time>2026-04-24T02:13:26Z</time></trkpt><trkpt lat="-19.77036553977838" lon="120.67429267522614"><ele>12.666666666666666</ele><time>2026-04-24T02:13:27Z</time></trkpt><trkpt lat="-19.770140979724655" lon="120.67426992330552"><ele>12.333333333333332</ele><time>2026-04-24T02:13:28Z</time></trkpt><trkpt lat="-19.76992105932685" lon="120.67425472594616"><ele>12.0</ele><time>2026-04-24T02:13:29Z</time></trkpt><trkpt lat="-19.76970731533132" lon="120.67423246059873"><ele>12.0</ele><time>2026-04-24T02:13:30Z</time></trkpt><trkpt lat="-19.76949066752109" lon="120.67421281330118"><ele>12.0</ele><time>2026-04-24T02:13:31Z</time></trkpt><trkpt lat="-19.76928028585462" lon="120.67419729919399"><ele>12.0</ele><time>2026-04-24T02:13:32Z</time></trkpt><trkpt lat="-19.76906630539541" lon="120.6741827218601"><ele>12.333333333333332</ele><time>2026-04-24T02:13:33Z</time></trkpt><trkpt lat="-19.768850228800897" lon="120.67416852969237"><ele>12.666666666666666</ele><time>2026-04-24T02:13:34Z</time></trkpt><trkpt lat="-19.768628591288756" lon="120.67414550787554"><ele>13.0</ele><time>2026-04-24T02:13:35Z</time></trkpt><trkpt lat="-19.768407635714567" lon="120.67412328678574"><ele>12.0</ele><time>2026-04-24T02:13:36Z</time></trkpt><trkpt lat="-19.76818026073532" lon="120.67410510785017"><ele>11.0</ele><time>2026-04-24T02:13:37Z</time></trkpt><trkpt lat="-19.767948158630638" lon="120.67409149518694"><ele>11.0</ele><time>2026-04-24T02:13:38Z</time></trkpt><trkpt lat="-19.767716165511622" lon="120.67407954044268"><ele>11.0</ele><time>2026-04-24T02:13:39Z</time></trkpt><trkpt lat="-19.767479464467343" lon="120.67406462201046"><ele>11.0</ele><time>2026-04-24T02:13:40Z</time></trkpt><trkpt lat="-19.76724455956909" lon="120.67404977629423"><ele>11.0</ele><time>2026-04-24T02:13:41Z</time></trkpt><trkpt lat="-19.767026385019857" lon="120.67403019149586"><ele>10.666666666666666</ele><time>2026-04-24T02:13:42Z</time></trkpt><trkpt lat="-19.7668147603312" lon="120.6740109698915"><ele>10.333333333333334</ele><time>2026-04-24T02:13:43Z</time></trkpt><trkpt lat="-19.766615953481605" lon="120.67399385681551"><ele>10.0</ele><time>2026-04-24T02:13:44Z</time></trkpt><trkpt lat="-19.766421849078128" lon="120.67397496203053"><ele>10.0</ele><time>2026-04-24T02:13:45Z</time></trkpt><trkpt lat="-19.766221065770623" lon="120.67394819110677"><ele>10.0</ele><time>2026-04-24T02:13:46Z</time></trkpt><trkpt lat="-19.766011109452975" lon="120.67391018834503"><ele>10.0</ele><time>2026-04-24T02:13:47Z</time></trkpt><trkpt lat="-19.765803401534235" lon="120.67386496928934"><ele>10.0</ele><time>2026-04-24T02:13:48Z</time></trkpt><trkpt lat="-19.765592636601035" lon="120.67380948042273"><ele>10.0</ele><time>2026-04-24T02:13:49Z</time></trkpt><trkpt lat="-19.765372212238947" lon="120.6737432345275"><ele>10.0</ele><time>2026-04-24T02:13:50Z</time></trkpt><trkpt lat="-19.76515092212065" lon="120.6736750199033"><ele>10.5</ele><time>2026-04-24T02:13:51Z</time></trkpt><trkpt lat="-19.764924078694943" lon="120.67360186207198"><ele>11.0</ele><time>2026-04-24T02:13:52Z</time></trkpt><trkpt lat="-19.764696677070237" lon="120.67352878218061"><ele>11.0</ele><time>2026-04-24T02:13:53Z</time></trkpt><trkpt lat="-19.76446669571519" lon="120.67346055230453"><ele>11.0</ele><time>2026-04-24T02:13:54Z</time></trkpt><trkpt lat="-19.764236548681478" lon="120.67339368015251"><ele>10.5</ele><time>2026-04-24T02:13:55Z</time></trkpt><trkpt lat="-19.764005166894854" lon="120.67332533703213"><ele>10.0</ele><time>2026-04-24T02:13:56Z</time></trkpt><trkpt lat="-19.76377525723351" lon="120.67325904640613"><ele>10.0</ele><time>2026-04-24T02:13:57Z</time></trkpt><trkpt lat="-19.763549016760937" lon="120.67319941824701"><ele>10.0</ele><time>2026-04-24T02:13:58Z</time></trkpt><trkpt lat="-19.763319816322134" lon="120.67314226785227"><ele>11.0</ele><time>2026-04-24T02:13:59Z</time></trkpt><trkpt lat="-19.763089127827463" lon="120.67307822756435"><ele>12.0</ele><time>2026-04-24T02:14:00Z</time></trkpt><trkpt lat="-19.762860383568096" lon="120.67301519518841"><ele>12.0</ele><time>2026-04-24T02:14:01Z</time></trkpt><trkpt lat="-19.762631203960982" lon="120.67295366650596"><ele>12.0</ele><time>2026-04-24T02:14:02Z</time></trkpt><trkpt lat="-19.762391541632987" lon="120.67288554297181"><ele>12.0</ele><time>2026-04-24T02:14:03Z</time></trkpt><trkpt lat="-19.762158922323025" lon="120.67282106895362"><ele>12.0</ele><time>2026-04-24T02:14:04Z</time></trkpt><trkpt lat="-19.76193210857699" lon="120.6727611519994"><ele>11.5</ele><time>2026-04-24T02:14:05Z</time></trkpt><trkpt lat="-19.761700267691" lon="120.67270092165786"><ele>11.0</ele><time>2026-04-24T02:14:06Z</time></trkpt><trkpt lat="-19.761468746269763" lon="120.67264387999337"><ele>11.0</ele><time>2026-04-24T02:14:07Z</time></trkpt><trkpt lat="-19.761244750358372" lon="120.67258832345254"><ele>11.0</ele><time>2026-04-24T02:14:08Z</time></trkpt><trkpt lat="-19.761022611598392" lon="120.6725085601584"><ele>10.5</ele><time>2026-04-24T02:14:09Z</time></trkpt><trkpt lat="-19.760798775779815" lon="120.67244560106747"><ele>10.0</ele><time>2026-04-24T02:14:10Z</time></trkpt><trkpt lat="-19.760572407458994" lon="120.67238193022273"><ele>10.0</ele><time>2026-04-24T02:14:11Z</time></trkpt><trkpt lat="-19.760344201047094" lon="120.6723213930647"><ele>10.0</ele><time>2026-04-24T02:14:12Z</time></trkpt><trkpt lat="-19.760123970436638" lon="120.67226408678131"><ele>10.0</ele><time>2026-04-24T02:14:13Z</time></trkpt><trkpt lat="-19.759910142299706" lon="120.67220844648905"><ele>10.0</ele><time>2026-04-24T02:14:14Z</time></trkpt><trkpt lat="-19.75970590732087" lon="120.67215387048051"><ele>10.0</ele><time>2026-04-24T02:14:15Z</time></trkpt><trkpt lat="-19.75950775153449" lon="120.67211239109753"><ele>9.666666666666668</ele><time>2026-04-24T02:14:16Z</time></trkpt><trkpt lat="-19.75932217008676" lon="120.67205566726811"><ele>9.333333333333334</ele><time>2026-04-24T02:14:17Z</time></trkpt><trkpt lat="-19.759136224430193" lon="120.67200256089986"><ele>9.0</ele><time>2026-04-24T02:14:18Z</time></trkpt><trkpt lat="-19.758956363701934" lon="120.67195386954816"><ele>9.333333333333334</ele><time>2026-04-24T02:14:19Z</time></trkpt><trkpt lat="-19.758788072182494" lon="120.6719135783646"><ele>9.666666666666668</ele><time>2026-04-24T02:14:20Z</time></trkpt><trkpt lat="-19.758615141424986" lon="120.67187005218534"><ele>10.0</ele><time>2026-04-24T02:14:21Z</time></trkpt><trkpt lat="-19.758446973306977" lon="120.67182631649236"><ele>10.0</ele><time>2026-04-24T02:14:22Z</time></trkpt><trkpt lat="-19.7582947228136" lon="120.67178612988329"><ele>10.0</ele><time>2026-04-24T02:14:23Z</time></trkpt><trkpt lat="-19.758154827025944" lon="120.67173473648795"><ele>10.0</ele><time>2026-04-24T02:14:24Z</time></trkpt><trkpt lat="-19.758022999602375" lon="120.67170152394428"><ele>10.0</ele><time>2026-04-24T02:14:25Z</time></trkpt><trkpt lat="-19.7579006937873" lon="120.67167053027475"><ele>10.0</ele><time>2026-04-24T02:14:26Z</time></trkpt><trkpt lat="-19.757791653879764" lon="120.67164036775118"><ele>10.0</ele><time>2026-04-24T02:14:27Z</time></trkpt><trkpt lat="-19.757696295351163" lon="120.6716068176806"><ele>10.0</ele><time>2026-04-24T02:14:28Z</time></trkpt><trkpt lat="-19.757616315089496" lon="120.67156987310925"><ele>10.0</ele><time>2026-04-24T02:14:29Z</time></trkpt><trkpt lat="-19.75754164399235" lon="120.67153216799919"><ele>10.0</ele><time>2026-04-24T02:14:30Z</time></trkpt><trkpt lat="-19.757467866261315" lon="120.67151088052748"><ele>10.6</ele><time>2026-04-24T02:14:31Z</time></trkpt><trkpt lat="-19.757417046051305" lon="120.67146923089958"><ele>11.2</ele><time>2026-04-24T02:14:32Z</time></trkpt><trkpt lat="-19.757324787943634" lon="120.67140243797694"><ele>11.8</ele><time>2026-04-24T02:14:34Z</time></trkpt><trkpt lat="-19.75722828800423" lon="120.6713156058855"><ele>12.4</ele><time>2026-04-24T02:14:36Z</time></trkpt><trkpt lat="-19.757174212889616" lon="120.67126594120701"><ele>13.0</ele><time>2026-04-24T02:14:37Z</time></trkpt><trkpt lat="-19.757095104282975" lon="120.67120798559114"><ele>13.0</ele><time>2026-04-24T02:14:38Z</time></trkpt><trkpt lat="-19.757015053301867" lon="120.67115455524056"><ele>13.0</ele><time>2026-04-24T02:14:39Z</time></trkpt><trkpt lat="-19.756934394712637" lon="120.67110276772456"><ele>13.0</ele><time>2026-04-24T02:14:40Z</time></trkpt><trkpt lat="-19.756846674423038" lon="120.67104374708676"><ele>13.0</ele><time>2026-04-24T02:14:41Z</time></trkpt><trkpt lat="-19.756770168368387" lon="120.67099917778866"><ele>13.0</ele><time>2026-04-24T02:14:42Z</time></trkpt><trkpt lat="-19.75669493204399" lon="120.67097381727488"><ele>13.499999999999998</ele><time>2026-04-24T02:14:43Z</time></trkpt><trkpt lat="-19.756622520561443" lon="120.67096483910022"><ele>14.0</ele><time>2026-04-24T02:14:44Z</time></trkpt><trkpt lat="-19.756554080564538" lon="120.6709680067277"><ele>14.5</ele><time>2026-04-24T02:14:45Z</time></trkpt><trkpt lat="-19.756482129094223" lon="120.67098011147695"><ele>15.0</ele><time>2026-04-24T02:14:46Z</time></trkpt><trkpt lat="-19.756407330962205" lon="120.67099535285632"><ele>15.499999999999998</ele><time>2026-04-24T02:14:47Z</time></trkpt><trkpt lat="-19.756324614425136" lon="120.67100585958032"><ele>16.0</ele><time>2026-04-24T02:14:48Z</time></trkpt><trkpt lat="-19.756247531514376" lon="120.67101537771559"><ele>16.0</ele><time>2026-04-24T02:14:49Z</time></trkpt><trkpt lat="-19.756176646983118" lon="120.67101863165071"><ele>16.0</ele><time>2026-04-24T02:14:50Z</time></trkpt><trkpt lat="-19.756052281752616" lon="120.67101619037419"><ele>16.0</ele><time>2026-04-24T02:14:52Z</time></trkpt><trkpt lat="-19.755988699143156" lon="120.6710124029886"><ele>16.0</ele><time>2026-04-24T02:14:53Z</time></trkpt><trkpt lat="-19.75588262847355" lon="120.67101306224252"><ele>16.0</ele><time>2026-04-24T02:14:55Z</time></trkpt><trkpt lat="-19.755795513612654" lon="120.67101619268172"><ele>15.499999999999998</ele><time>2026-04-24T02:14:57Z</time></trkpt><trkpt lat="-19.755712604044373" lon="120.67100873449299"><ele>15.0</ele><time>2026-04-24T02:14:59Z</time></trkpt><trkpt lat="-19.755607519250177" lon="120.67099314668363"><ele>14.5</ele><time>2026-04-24T02:15:01Z</time></trkpt><trkpt lat="-19.755538337633993" lon="120.67098526450987"><ele>14.0</ele><time>2026-04-24T02:15:02Z</time></trkpt><trkpt lat="-19.755466403703803" lon="120.67098428058932"><ele>13.499999999999998</ele><time>2026-04-24T02:15:03Z</time></trkpt><trkpt lat="-19.755399999751763" lon="120.67099018337811"><ele>13.0</ele><time>2026-04-24T02:15:04Z</time></trkpt><trkpt lat="-19.755326104445185" lon="120.6709981206612"><ele>12.999999999999998</ele><time>2026-04-24T02:15:05Z</time></trkpt><trkpt lat="-19.755250351088574" lon="120.67100375758771"><ele>13.0</ele><time>2026-04-24T02:15:06Z</time></trkpt><trkpt lat="-19.755181958310022" lon="120.67100800517058"><ele>13.0</ele><time>2026-04-24T02:15:07Z</time></trkpt><trkpt lat="-19.75505867157896" lon="120.67102328614305"><ele>13.0</ele><time>2026-04-24T02:15:09Z</time></trkpt><trkpt lat="-19.75499100108628" lon="120.67103120509486"><ele>12.999999999999998</ele><time>2026-04-24T02:15:10Z</time></trkpt><trkpt lat="-19.754921350929923" lon="120.67104172757915"><ele>13.0</ele><time>2026-04-24T02:15:11Z</time></trkpt><trkpt lat="-19.75481175658301" lon="120.67107701068272"><ele>12.833333333333332</ele><time>2026-04-24T02:15:13Z</time></trkpt><trkpt lat="-19.754711892945604" lon="120.67113317107507"><ele>12.666666666666666</ele><time>2026-04-24T02:15:15Z</time></trkpt><trkpt lat="-19.754640852886613" lon="120.67115342841372"><ele>12.5</ele><time>2026-04-24T02:15:17Z</time></trkpt><trkpt lat="-19.75456882350799" lon="120.67115616098239"><ele>12.333333333333332</ele><time>2026-04-24T02:15:20Z</time></trkpt><trkpt lat="-19.754511378277424" lon="120.67112542390215"><ele>12.166666666666666</ele><time>2026-04-24T02:16:12Z</time></trkpt><trkpt lat="-19.75445092659127" lon="120.6710896413495"><ele>12.0</ele><time>2026-04-24T02:16:18Z</time></trkpt><trkpt lat="-19.754404382139676" lon="120.67104039353681"><ele>11.999999999999998</ele><time>2026-04-24T02:16:41Z</time></trkpt><trkpt lat="-19.754450160287362" lon="120.67108995834734"><ele>12.0</ele><time>2026-04-24T02:17:32Z</time></trkpt><trkpt lat="-19.75451601235245" lon="120.67111746362272"><ele>12.0</ele><time>2026-04-24T02:17:38Z</time></trkpt><trkpt lat="-19.754566884000557" lon="120.67117062958982"><ele>12.0</ele><time>2026-04-24T02:17:43Z</time></trkpt><trkpt lat="-19.754529161309886" lon="120.67122422075259"><ele>12.0</ele><time>2026-04-24T02:18:30.999Z</time></trkpt><trkpt lat="-19.754528412566284" lon="120.67129381546287"><ele>11.999999999999998</ele><time>2026-04-24T02:18:42.999Z</time></trkpt><trkpt lat="-19.75460548674198" lon="120.67131509595042"><ele>12.0</ele><time>2026-04-24T02:18:46Z</time></trkpt><trkpt lat="-19.75466730424345" lon="120.67128551334328"><ele>12.0</ele><time>2026-04-24T02:18:48Z</time></trkpt><trkpt lat="-19.754692505648933" lon="120.67122053237085"><ele>12.0</ele><time>2026-04-24T02:18:50Z</time></trkpt><trkpt lat="-19.754638181467726" lon="120.67114553127975"><ele>12.0</ele><time>2026-04-24T02:18:53Z</time></trkpt><trkpt lat="-19.75456311130238" lon="120.67112100675423"><ele>12.0</ele><time>2026-04-24T02:18:55Z</time></trkpt><trkpt lat="-19.754478466829486" lon="120.6710993634218"><ele>12.0</ele><time>2026-04-24T02:18:57Z</time></trkpt><trkpt lat="-19.754417186853768" lon="120.67105331711254"><ele>12.0</ele><time>2026-04-24T02:18:59Z</time></trkpt><trkpt lat="-19.754353022863743" lon="120.67104609660166"><ele>12.0</ele><time>2026-04-24T02:19:17Z</time></trkpt><trkpt lat="-19.75441853343387" lon="120.67104815209868"><ele>12.0</ele><time>2026-04-24T02:28:15Z</time></trkpt><trkpt lat="-19.75448289967213" lon="120.67109247968932"><ele>12.0</ele><time>2026-04-24T02:28:17Z</time></trkpt><trkpt lat="-19.754580222105727" lon="120.67115003232567"><ele>12.0</ele><time>2026-04-24T02:28:19Z</time></trkpt><trkpt lat="-19.7546602985809" lon="120.67116496660115"><ele>12.0</ele><time>2026-04-24T02:28:21Z</time></trkpt><trkpt lat="-19.754788484659063" lon="120.67114691893084"><ele>12.0</ele><time>2026-04-24T02:28:23Z</time></trkpt><trkpt lat="-19.754853949073024" lon="120.67111209137418"><ele>12.0</ele><time>2026-04-24T02:28:24Z</time></trkpt><trkpt lat="-19.754917357477513" lon="120.6710939282612"><ele>12.0</ele><time>2026-04-24T02:28:25Z</time></trkpt><trkpt lat="-19.75499381143976" lon="120.67107179540047"><ele>12.0</ele><time>2026-04-24T02:28:26Z</time></trkpt><trkpt lat="-19.755086585092076" lon="120.6710505509812"><ele>12.0</ele><time>2026-04-24T02:28:27Z</time></trkpt><trkpt lat="-19.755192837511704" lon="120.67104839872931"><ele>12.0</ele><time>2026-04-24T02:28:28Z</time></trkpt><trkpt lat="-19.755282706712382" lon="120.67102932228188"><ele>12.166666666666666</ele><time>2026-04-24T02:28:29Z</time></trkpt><trkpt lat="-19.75537039651425" lon="120.67102042116454"><ele>12.333333333333332</ele><time>2026-04-24T02:28:30Z</time></trkpt><trkpt lat="-19.75545646003379" lon="120.6710102300426"><ele>12.5</ele><time>2026-04-24T02:28:31Z</time></trkpt><trkpt lat="-19.75554390325507" lon="120.67101628653676"><ele>12.666666666666666</ele><time>2026-04-24T02:28:32Z</time></trkpt><trkpt lat="-19.755620646624834" lon="120.67101752221146"><ele>12.833333333333332</ele><time>2026-04-24T02:28:33.001Z</time></trkpt><trkpt lat="-19.755729476313544" lon="120.6710176406778"><ele>13.0</ele><time>2026-04-24T02:28:35.001Z</time></trkpt><trkpt lat="-19.755807624300694" lon="120.67103490936913"><ele>13.0</ele><time>2026-04-24T02:29:34.001Z</time></trkpt><trkpt lat="-19.75590240153888" lon="120.67107493850436"><ele>13.0</ele><time>2026-04-24T02:29:36.001Z</time></trkpt><trkpt lat="-19.756039313805427" lon="120.67107658029761"><ele>13.0</ele><time>2026-04-24T02:29:38.001Z</time></trkpt><trkpt lat="-19.756121483932688" lon="120.67106558254315"><ele>13.0</ele><time>2026-04-24T02:29:39.001Z</time></trkpt><trkpt lat="-19.756208216303264" lon="120.67105077102748"><ele>13.0</ele><time>2026-04-24T02:29:40.001Z</time></trkpt><trkpt lat="-19.756300338026993" lon="120.67104015732"><ele>13.499999999999998</ele><time>2026-04-24T02:29:41.001Z</time></trkpt><trkpt lat="-19.756392099524938" lon="120.67103105414834"><ele>14.0</ele><time>2026-04-24T02:29:42.001Z</time></trkpt><trkpt lat="-19.756482467237312" lon="120.6710214991993"><ele>14.5</ele><time>2026-04-24T02:29:43.001Z</time></trkpt><trkpt lat="-19.756572088821958" lon="120.67101104186241"><ele>15.0</ele><time>2026-04-24T02:29:44.001Z</time></trkpt><trkpt lat="-19.75665270472714" lon="120.67100711030534"><ele>15.499999999999998</ele><time>2026-04-24T02:29:45.001Z</time></trkpt><trkpt lat="-19.756724064677663" lon="120.67101587651592"><ele>16.0</ele><time>2026-04-24T02:29:46.001Z</time></trkpt><trkpt lat="-19.75679137857153" lon="120.67103649397727"><ele>15.999999999999998</ele><time>2026-04-24T02:29:47.001Z</time></trkpt><trkpt lat="-19.756853164713867" lon="120.67106883698673"><ele>16.0</ele><time>2026-04-24T02:29:48.001Z</time></trkpt><trkpt lat="-19.756919363298955" lon="120.67110822199582"><ele>16.0</ele><time>2026-04-24T02:29:49.001Z</time></trkpt><trkpt lat="-19.75698699413423" lon="120.67115709006102"><ele>16.0</ele><time>2026-04-24T02:29:50.001Z</time></trkpt><trkpt lat="-19.757062227421436" lon="120.6712077208063"><ele>15.999999999999998</ele><time>2026-04-24T02:29:51.001Z</time></trkpt><trkpt lat="-19.75714725147114" lon="120.67126718570444"><ele>16.0</ele><time>2026-04-24T02:29:52.001Z</time></trkpt><trkpt lat="-19.757227280016693" lon="120.67132478772272"><ele>15.4</ele><time>2026-04-24T02:29:53.001Z</time></trkpt><trkpt lat="-19.757309240124027" lon="120.67138847531051"><ele>14.8</ele><time>2026-04-24T02:29:54.001Z</time></trkpt><trkpt lat="-19.7573894353188" lon="120.67145827414764"><ele>14.200000000000001</ele><time>2026-04-24T02:29:55.001Z</time></trkpt><trkpt lat="-19.757486564543907" lon="120.67154071809995"><ele>13.600000000000001</ele><time>2026-04-24T02:29:56.001Z</time></trkpt><trkpt lat="-19.757586300616055" lon="120.67161004771802"><ele>13.0</ele><time>2026-04-24T02:29:57.001Z</time></trkpt><trkpt lat="-19.757687376157687" lon="120.67166526320275"><ele>12.25</ele><time>2026-04-24T02:29:58.001Z</time></trkpt><trkpt lat="-19.75779624957678" lon="120.67170337189329"><ele>11.5</ele><time>2026-04-24T02:29:59.001Z</time></trkpt><trkpt lat="-19.75791225272309" lon="120.67173074802244"><ele>10.75</ele><time>2026-04-24T02:30:00.001Z</time></trkpt><trkpt lat="-19.75804733669694" lon="120.671761853943"><ele>10.0</ele><time>2026-04-24T02:30:01.001Z</time></trkpt><trkpt lat="-19.758191168593243" lon="120.67179790534578"><ele>10.0</ele><time>2026-04-24T02:30:02.001Z</time></trkpt><trkpt lat="-19.758338624532456" lon="120.67183995829303"><ele>10.0</ele><time>2026-04-24T02:30:03.001Z</time></trkpt><trkpt lat="-19.75849589762602" lon="120.67188185232574"><ele>10.0</ele><time>2026-04-24T02:30:04.001Z</time></trkpt><trkpt lat="-19.758653831980535" lon="120.67192115791165"><ele>9.666666666666668</ele><time>2026-04-24T02:30:05.001Z</time></trkpt><trkpt lat="-19.75882744939633" lon="120.67196293056483"><ele>9.333333333333334</ele><time>2026-04-24T02:30:06.001Z</time></trkpt><trkpt lat="-19.759014716323684" lon="120.67200747960469"><ele>9.0</ele><time>2026-04-24T02:30:07.001Z</time></trkpt><trkpt lat="-19.759207777005983" lon="120.67205542856566"><ele>9.333333333333334</ele><time>2026-04-24T02:30:08.001Z</time></trkpt><trkpt lat="-19.759401175336894" lon="120.6721068627261"><ele>9.666666666666668</ele><time>2026-04-24T02:30:09.001Z</time></trkpt><trkpt lat="-19.75959843225552" lon="120.67216080437996"><ele>10.0</ele><time>2026-04-24T02:30:10.002Z</time></trkpt><trkpt lat="-19.75979995278428" lon="120.67221723375452"><ele>10.0</ele><time>2026-04-24T02:30:11.002Z</time></trkpt><trkpt lat="-19.760001428445012" lon="120.67227483410744"><ele>10.0</ele><time>2026-04-24T02:30:12.002Z</time></trkpt><trkpt lat="-19.760208511369036" lon="120.67233344888048"><ele>10.0</ele><time>2026-04-24T02:30:13.002Z</time></trkpt><trkpt lat="-19.760428700076645" lon="120.6723934258211"><ele>10.0</ele><time>2026-04-24T02:30:14.002Z</time></trkpt><trkpt lat="-19.760651616200228" lon="120.67245492103305"><ele>10.0</ele><time>2026-04-24T02:30:15.002Z</time></trkpt><trkpt lat="-19.76087915839269" lon="120.6725175984088"><ele>10.5</ele><time>2026-04-24T02:30:16.002Z</time></trkpt><trkpt lat="-19.76111629732924" lon="120.6725790044277"><ele>11.0</ele><time>2026-04-24T02:30:17.002Z</time></trkpt><trkpt lat="-19.76136402667554" lon="120.67264316700863"><ele>11.0</ele><time>2026-04-24T02:30:18.002Z</time></trkpt><trkpt lat="-19.761617350870974" lon="120.67271371499858"><ele>11.0</ele><time>2026-04-24T02:30:19.002Z</time></trkpt><trkpt lat="-19.761877799674604" lon="120.67278729438235"><ele>11.5</ele><time>2026-04-24T02:30:20.002Z</time></trkpt><trkpt lat="-19.762136527314993" lon="120.67285711256652"><ele>12.0</ele><time>2026-04-24T02:30:21.002Z</time></trkpt><trkpt lat="-19.76238785252756" lon="120.67292276371406"><ele>12.0</ele><time>2026-04-24T02:30:22.002Z</time></trkpt><trkpt lat="-19.762639291704634" lon="120.67298894752366"><ele>12.0</ele><time>2026-04-24T02:30:23.002Z</time></trkpt><trkpt lat="-19.762888678596628" lon="120.67305620810514"><ele>12.0</ele><time>2026-04-24T02:30:24.002Z</time></trkpt><trkpt lat="-19.76314217029204" lon="120.67312828084796"><ele>12.0</ele><time>2026-04-24T02:30:25.002Z</time></trkpt><trkpt lat="-19.76339635496926" lon="120.67319888809534"><ele>11.0</ele><time>2026-04-24T02:30:26.002Z</time></trkpt><trkpt lat="-19.76365279102022" lon="120.67326814875604"><ele>10.0</ele><time>2026-04-24T02:30:27.002Z</time></trkpt><trkpt lat="-19.763905927371887" lon="120.67333772020494"><ele>10.0</ele><time>2026-04-24T02:30:28.002Z</time></trkpt><trkpt lat="-19.764162951901547" lon="120.6734114406887"><ele>10.0</ele><time>2026-04-24T02:30:29.002Z</time></trkpt><trkpt lat="-19.764410407107" lon="120.67348347986967"><ele>10.0</ele><time>2026-04-24T02:30:30.002Z</time></trkpt><trkpt lat="-19.764666800230675" lon="120.67355880740057"><ele>10.0</ele><time>2026-04-24T02:30:31.002Z</time></trkpt><trkpt lat="-19.764913319237483" lon="120.6736281388924"><ele>10.0</ele><time>2026-04-24T02:30:32.002Z</time></trkpt><trkpt lat="-19.76514330494154" lon="120.67369565011772"><ele>10.0</ele><time>2026-04-24T02:30:33.002Z</time></trkpt><trkpt lat="-19.7653541093153" lon="120.67376022559573"><ele>10.333333333333334</ele><time>2026-04-24T02:30:34.002Z</time></trkpt><trkpt lat="-19.76555728300734" lon="120.6738265217581"><ele>10.666666666666666</ele><time>2026-04-24T02:30:35.002Z</time></trkpt><trkpt lat="-19.765756550816423" lon="120.67388824051518"><ele>11.0</ele><time>2026-04-24T02:30:36.002Z</time></trkpt><trkpt lat="-19.76595401703718" lon="120.67393591539197"><ele>10.666666666666666</ele><time>2026-04-24T02:30:37.002Z</time></trkpt><trkpt lat="-19.766159296770926" lon="120.6739716750955"><ele>10.333333333333334</ele><time>2026-04-24T02:30:38.002Z</time></trkpt><trkpt lat="-19.766371573216315" lon="120.67400043539513"><ele>10.0</ele><time>2026-04-24T02:30:39.002Z</time></trkpt><trkpt lat="-19.76658807339281" lon="120.67402526669265"><ele>10.0</ele><time>2026-04-24T02:30:40.002Z</time></trkpt><trkpt lat="-19.766806554192467" lon="120.67404524906915"><ele>10.0</ele><time>2026-04-24T02:30:41.002Z</time></trkpt><trkpt lat="-19.767030232819447" lon="120.6740643137596"><ele>10.0</ele><time>2026-04-24T02:30:42.002Z</time></trkpt><trkpt lat="-19.767252328219804" lon="120.67407987498764"><ele>10.5</ele><time>2026-04-24T02:30:43.002Z</time></trkpt><trkpt lat="-19.767489777308707" lon="120.67409834362377"><ele>11.0</ele><time>2026-04-24T02:30:44.002Z</time></trkpt><trkpt lat="-19.76773337432305" lon="120.67411804699127"><ele>11.0</ele><time>2026-04-24T02:30:45.002Z</time></trkpt><trkpt lat="-19.76799359193771" lon="120.67413934237013"><ele>11.0</ele><time>2026-04-24T02:30:46.002Z</time></trkpt><trkpt lat="-19.76825859090759" lon="120.67415865208702"><ele>11.0</ele><time>2026-04-24T02:30:47.002Z</time></trkpt><trkpt lat="-19.76852399102839" lon="120.67417781620962"><ele>11.0</ele><time>2026-04-24T02:30:48.002Z</time></trkpt><trkpt lat="-19.7687884823142" lon="120.67419876296579"><ele>12.0</ele><time>2026-04-24T02:30:49.002Z</time></trkpt><trkpt lat="-19.769050563284484" lon="120.67422117708547"><ele>13.0</ele><time>2026-04-24T02:30:50.002Z</time></trkpt><trkpt lat="-19.769314685127895" lon="120.67424388144751"><ele>12.5</ele><time>2026-04-24T02:30:51.002Z</time></trkpt><trkpt lat="-19.76957517804399" lon="120.67426379732906"><ele>12.0</ele><time>2026-04-24T02:30:52.002Z</time></trkpt><trkpt lat="-19.76983721543962" lon="120.6742808987515"><ele>12.0</ele><time>2026-04-24T02:30:53.001Z</time></trkpt><trkpt lat="-19.770081547879187" lon="120.67429684575762"><ele>12.0</ele><time>2026-04-24T02:30:54.001Z</time></trkpt><trkpt lat="-19.770315056605174" lon="120.67431370625197"><ele>12.5</ele><time>2026-04-24T02:30:55.001Z</time></trkpt><trkpt lat="-19.770543301696364" lon="120.67433385987223"><ele>13.0</ele><time>2026-04-24T02:30:56.001Z</time></trkpt><trkpt lat="-19.770771083240177" lon="120.67435728321006"><ele>13.0</ele><time>2026-04-24T02:30:57.001Z</time></trkpt><trkpt lat="-19.770997679203553" lon="120.67437838724186"><ele>13.0</ele><time>2026-04-24T02:30:58.001Z</time></trkpt><trkpt lat="-19.771223741389512" lon="120.6743957100653"><ele>13.5</ele><time>2026-04-24T02:30:59.001Z</time></trkpt><trkpt lat="-19.771448252910844" lon="120.67441107191978"><ele>14.0</ele><time>2026-04-24T02:31:00.001Z</time></trkpt><trkpt lat="-19.771675448782602" lon="120.67442348736432"><ele>14.0</ele><time>2026-04-24T02:31:01.001Z</time></trkpt><trkpt lat="-19.77191024369622" lon="120.67443506099025"><ele>14.0</ele><time>2026-04-24T02:31:02.001Z</time></trkpt><trkpt lat="-19.77214181757796" lon="120.67444783716238"><ele>14.0</ele><time>2026-04-24T02:31:03.001Z</time></trkpt><trkpt lat="-19.772373120839084" lon="120.67446226344106"><ele>14.0</ele><time>2026-04-24T02:31:04.001Z</time></trkpt><trkpt lat="-19.772602091147675" lon="120.67447634411964"><ele>14.0</ele><time>2026-04-24T02:31:05.001Z</time></trkpt><trkpt lat="-19.772833510152275" lon="120.67449404276519"><ele>14.0</ele><time>2026-04-24T02:31:06.001Z</time></trkpt><trkpt lat="-19.773064694219357" lon="120.67450620301376"><ele>14.0</ele><time>2026-04-24T02:31:07.001Z</time></trkpt><trkpt lat="-19.773288548935735" lon="120.67451105450542"><ele>14.0</ele><time>2026-04-24T02:31:08.001Z</time></trkpt><trkpt lat="-19.77350835190051" lon="120.67450955581235"><ele>14.0</ele><time>2026-04-24T02:31:09.001Z</time></trkpt><trkpt lat="-19.77372687546231" lon="120.67451036096446"><ele>14.0</ele><time>2026-04-24T02:31:10.001Z</time></trkpt><trkpt lat="-19.773947114185344" lon="120.67452234500686"><ele>14.0</ele><time>2026-04-24T02:31:11.001Z</time></trkpt><trkpt lat="-19.774165949277997" lon="120.67454375742503"><ele>14.0</ele><time>2026-04-24T02:31:12.001Z</time></trkpt><trkpt lat="-19.774392209180803" lon="120.6745653990915"><ele>14.5</ele><time>2026-04-24T02:31:13.001Z</time></trkpt><trkpt lat="-19.774626525035966" lon="120.67458150854921"><ele>15.0</ele><time>2026-04-24T02:31:14.001Z</time></trkpt><trkpt lat="-19.774852125092536" lon="120.67459567560796"><ele>15.0</ele><time>2026-04-24T02:31:15.001Z</time></trkpt><trkpt lat="-19.77506792659967" lon="120.67460962337111"><ele>15.0</ele><time>2026-04-24T02:31:16.001Z</time></trkpt><trkpt lat="-19.775286865477725" lon="120.67462330300039"><ele>15.0</ele><time>2026-04-24T02:31:17.001Z</time></trkpt><trkpt lat="-19.77551427657902" lon="120.67463696905017"><ele>14.5</ele><time>2026-04-24T02:31:18.001Z</time></trkpt><trkpt lat="-19.775752234884525" lon="120.67464989884247"><ele>14.0</ele><time>2026-04-24T02:31:19.001Z</time></trkpt><trkpt lat="-19.77600756587004" lon="120.67466449373765"><ele>15.0</ele><time>2026-04-24T02:31:20.001Z</time></trkpt><trkpt lat="-19.776265728490905" lon="120.67467704333396"><ele>16.0</ele><time>2026-04-24T02:31:21.001Z</time></trkpt><trkpt lat="-19.776531334930134" lon="120.67469170693683"><ele>16.0</ele><time>2026-04-24T02:31:22.001Z</time></trkpt><trkpt lat="-19.776797929132435" lon="120.67470509783602"><ele>16.0</ele><time>2026-04-24T02:31:23.001Z</time></trkpt><trkpt lat="-19.77706627433754" lon="120.67471866735758"><ele>16.0</ele><time>2026-04-24T02:31:24.001Z</time></trkpt><trkpt lat="-19.777335697313035" lon="120.67473305859703"><ele>16.0</ele><time>2026-04-24T02:31:25.001Z</time></trkpt><trkpt lat="-19.77761331544461" lon="120.67474832829159"><ele>15.5</ele><time>2026-04-24T02:31:26.001Z</time></trkpt><trkpt lat="-19.777886327740095" lon="120.67476002746947"><ele>15.0</ele><time>2026-04-24T02:31:27.001Z</time></trkpt><trkpt lat="-19.77816249920667" lon="120.67477258293884"><ele>15.0</ele><time>2026-04-24T02:31:28.001Z</time></trkpt><trkpt lat="-19.77843376768291" lon="120.6747870333156"><ele>15.0</ele><time>2026-04-24T02:31:29.001Z</time></trkpt><trkpt lat="-19.778709199758197" lon="120.67480035571155"><ele>14.5</ele><time>2026-04-24T02:31:30.001Z</time></trkpt><trkpt lat="-19.77898216625052" lon="120.67481261725953"><ele>14.0</ele><time>2026-04-24T02:31:31.001Z</time></trkpt><trkpt lat="-19.77925699174455" lon="120.67482603984513"><ele>15.0</ele><time>2026-04-24T02:31:32.001Z</time></trkpt><trkpt lat="-19.77952927601291" lon="120.67484091350521"><ele>16.0</ele><time>2026-04-24T02:31:33.001Z</time></trkpt><trkpt lat="-19.77979887220826" lon="120.67485745961707"><ele>16.0</ele><time>2026-04-24T02:31:34.001Z</time></trkpt><trkpt lat="-19.780063015431278" lon="120.6748711244634"><ele>16.0</ele><time>2026-04-24T02:31:35.001Z</time></trkpt><trkpt lat="-19.780327839015946" lon="120.67488205950646"><ele>16.0</ele><time>2026-04-24T02:31:36.001Z</time></trkpt><trkpt lat="-19.780596283852784" lon="120.67489322456646"><ele>16.0</ele><time>2026-04-24T02:31:37.001Z</time></trkpt><trkpt lat="-19.78086156030356" lon="120.67490808011185"><ele>15.0</ele><time>2026-04-24T02:31:38.001Z</time></trkpt><trkpt lat="-19.781127737218917" lon="120.67492408096733"><ele>14.0</ele><time>2026-04-24T02:31:39.001Z</time></trkpt><trkpt lat="-19.78139488228149" lon="120.674936836699"><ele>14.0</ele><time>2026-04-24T02:31:40.001Z</time></trkpt><trkpt lat="-19.781669611808308" lon="120.67495166074141"><ele>14.0</ele><time>2026-04-24T02:31:41.001Z</time></trkpt><trkpt lat="-19.781936752486203" lon="120.67496705226905"><ele>14.0</ele><time>2026-04-24T02:31:42.001Z</time></trkpt><trkpt lat="-19.78220610469849" lon="120.6749829678185"><ele>14.0</ele><time>2026-04-24T02:31:43.001Z</time></trkpt><trkpt lat="-19.782472422565498" lon="120.67499592230605"><ele>14.0</ele><time>2026-04-24T02:31:44.001Z</time></trkpt><trkpt lat="-19.78274464711993" lon="120.67501206135668"><ele>14.0</ele><time>2026-04-24T02:31:45.001Z</time></trkpt><trkpt lat="-19.783012701257285" lon="120.67502808079081"><ele>14.0</ele><time>2026-04-24T02:31:46.001Z</time></trkpt><trkpt lat="-19.783288407334087" lon="120.67504495229193"><ele>14.0</ele><time>2026-04-24T02:31:47.001Z</time></trkpt><trkpt lat="-19.78356022037957" lon="120.67505890728938"><ele>13.5</ele><time>2026-04-24T02:31:48.001Z</time></trkpt><trkpt lat="-19.783831707461108" lon="120.67507458288955"><ele>13.0</ele><time>2026-04-24T02:31:49.001Z</time></trkpt><trkpt lat="-19.78410617843208" lon="120.67509065561329"><ele>13.5</ele><time>2026-04-24T02:31:50.001Z</time></trkpt><trkpt lat="-19.784379973983455" lon="120.67510698872684"><ele>14.0</ele><time>2026-04-24T02:31:51.001Z</time></trkpt><trkpt lat="-19.784653581427076" lon="120.67512259534799"><ele>14.0</ele><time>2026-04-24T02:31:52.001Z</time></trkpt><trkpt lat="-19.784928933069526" lon="120.67513666029774"><ele>14.0</ele><time>2026-04-24T02:31:53.001Z</time></trkpt><trkpt lat="-19.78520569651818" lon="120.67514802676139"><ele>13.5</ele><time>2026-04-24T02:31:54.001Z</time></trkpt><trkpt lat="-19.785478148549515" lon="120.67516033560365"><ele>13.0</ele><time>2026-04-24T02:31:55.001Z</time></trkpt><trkpt lat="-19.78574735273909" lon="120.67517350624082"><ele>12.5</ele><time>2026-04-24T02:31:56.001Z</time></trkpt><trkpt lat="-19.786021081847764" lon="120.67518840749067"><ele>12.0</ele><time>2026-04-24T02:31:57.001Z</time></trkpt><trkpt lat="-19.786284379356243" lon="120.67520235473886"><ele>12.0</ele><time>2026-04-24T02:31:58.001Z</time></trkpt><trkpt lat="-19.78654201716618" lon="120.67521681754356"><ele>12.0</ele><time>2026-04-24T02:31:59.001Z</time></trkpt><trkpt lat="-19.786797207282" lon="120.67523068444132"><ele>11.5</ele><time>2026-04-24T02:32:00.001Z</time></trkpt><trkpt lat="-19.787049526403482" lon="120.67524962022334"><ele>11.0</ele><time>2026-04-24T02:32:01.001Z</time></trkpt><trkpt lat="-19.787300200990824" lon="120.67526431040967"><ele>11.5</ele><time>2026-04-24T02:32:02.001Z</time></trkpt><trkpt lat="-19.7875521980094" lon="120.67527842977569"><ele>12.0</ele><time>2026-04-24T02:32:03.001Z</time></trkpt><trkpt lat="-19.787800887388862" lon="120.67529216638887"><ele>12.0</ele><time>2026-04-24T02:32:04.001Z</time></trkpt><trkpt lat="-19.788059671922326" lon="120.6753064182124"><ele>12.0</ele><time>2026-04-24T02:32:05.001Z</time></trkpt><trkpt lat="-19.78832145805685" lon="120.67531981907393"><ele>12.5</ele><time>2026-04-24T02:32:06.001Z</time></trkpt><trkpt lat="-19.788585280903025" lon="120.67533344071457"><ele>13.0</ele><time>2026-04-24T02:32:07.001Z</time></trkpt><trkpt lat="-19.788853458356964" lon="120.67534813359927"><ele>13.0</ele><time>2026-04-24T02:32:08.001Z</time></trkpt><trkpt lat="-19.78912069472977" lon="120.67536161950557"><ele>13.0</ele><time>2026-04-24T02:32:09.001Z</time></trkpt><trkpt lat="-19.78939007630232" lon="120.6753776388891"><ele>12.5</ele><time>2026-04-24T02:32:10.001Z</time></trkpt><trkpt lat="-19.789655005317627" lon="120.67539087161362"><ele>12.0</ele><time>2026-04-24T02:32:11.001Z</time></trkpt><trkpt lat="-19.789919783293325" lon="120.67540279997644"><ele>12.0</ele><time>2026-04-24T02:32:12.001Z</time></trkpt><trkpt lat="-19.790182773313497" lon="120.67541556622297"><ele>12.0</ele><time>2026-04-24T02:32:13.001Z</time></trkpt><trkpt lat="-19.790446612379796" lon="120.67542654815328"><ele>12.0</ele><time>2026-04-24T02:32:14.001Z</time></trkpt><trkpt lat="-19.790716186865417" lon="120.67543758327393"><ele>12.0</ele><time>2026-04-24T02:32:15.001Z</time></trkpt><trkpt lat="-19.790974230418787" lon="120.67544420655578"><ele>11.0</ele><time>2026-04-24T02:32:16.001Z</time></trkpt><trkpt lat="-19.79124482828909" lon="120.67545504722378"><ele>10.0</ele><time>2026-04-24T02:32:17.001Z</time></trkpt><trkpt lat="-19.791510531451095" lon="120.67546303480216"><ele>10.0</ele><time>2026-04-24T02:32:18.001Z</time></trkpt><trkpt lat="-19.79176526317365" lon="120.67547046451187"><ele>10.0</ele><time>2026-04-24T02:32:19.001Z</time></trkpt><trkpt lat="-19.792016071217983" lon="120.67548216419054"><ele>10.5</ele><time>2026-04-24T02:32:20.001Z</time></trkpt><trkpt lat="-19.79226911256189" lon="120.67549896653559"><ele>11.0</ele><time>2026-04-24T02:32:21.001Z</time></trkpt><trkpt lat="-19.792520793920062" lon="120.67551255917705"><ele>11.5</ele><time>2026-04-24T02:32:22.001Z</time></trkpt><trkpt lat="-19.79277643074259" lon="120.67552848004405"><ele>12.0</ele><time>2026-04-24T02:32:23.001Z</time></trkpt><trkpt lat="-19.793022911906256" lon="120.67554381322586"><ele>12.0</ele><time>2026-04-24T02:32:24.001Z</time></trkpt><trkpt lat="-19.79326560184156" lon="120.67555650452815"><ele>12.0</ele><time>2026-04-24T02:32:25.001Z</time></trkpt><trkpt lat="-19.793517796227437" lon="120.675569538735"><ele>12.0</ele><time>2026-04-24T02:32:26.001Z</time></trkpt><trkpt lat="-19.79375623272465" lon="120.67557588296773"><ele>12.0</ele><time>2026-04-24T02:32:27.001Z</time></trkpt><trkpt lat="-19.794011076535764" lon="120.67558726170836"><ele>12.0</ele><time>2026-04-24T02:32:28.001Z</time></trkpt><trkpt lat="-19.794258963560214" lon="120.67559854518518"><ele>12.0</ele><time>2026-04-24T02:32:29.001Z</time></trkpt><trkpt lat="-19.794516789365144" lon="120.67561167501022"><ele>11.5</ele><time>2026-04-24T02:32:30.001Z</time></trkpt><trkpt lat="-19.794777677754542" lon="120.67562783986939"><ele>11.0</ele><time>2026-04-24T02:32:31.001Z</time></trkpt><trkpt lat="-19.795038634049245" lon="120.67564730252397"><ele>11.5</ele><time>2026-04-24T02:32:32.001Z</time></trkpt><trkpt lat="-19.795305081903695" lon="120.67566671962481"><ele>12.0</ele><time>2026-04-24T02:32:33.002Z</time></trkpt><trkpt lat="-19.79557316797352" lon="120.67568140394779"><ele>12.0</ele><time>2026-04-24T02:32:34.002Z</time></trkpt><trkpt lat="-19.795832671185142" lon="120.67569162070367"><ele>12.0</ele><time>2026-04-24T02:32:35.002Z</time></trkpt><trkpt lat="-19.796095361104843" lon="120.67570072717275"><ele>12.0</ele><time>2026-04-24T02:32:36.002Z</time></trkpt><trkpt lat="-19.79634281631453" lon="120.67571067591882"><ele>12.0</ele><time>2026-04-24T02:32:37.002Z</time></trkpt><trkpt lat="-19.796624614193682" lon="120.6757274056628"><ele>12.5</ele><time>2026-04-24T02:32:38.002Z</time></trkpt><trkpt lat="-19.79688508314883" lon="120.6757423699279"><ele>13.0</ele><time>2026-04-24T02:32:39.002Z</time></trkpt><trkpt lat="-19.797141901407933" lon="120.67575782617988"><ele>13.0</ele><time>2026-04-24T02:32:40.002Z</time></trkpt><trkpt lat="-19.797400099643045" lon="120.6757705069501"><ele>13.0</ele><time>2026-04-24T02:32:41.002Z</time></trkpt><trkpt lat="-19.797658320993648" lon="120.67578089329777"><ele>13.0</ele><time>2026-04-24T02:32:42.002Z</time></trkpt><trkpt lat="-19.79791120452651" lon="120.67579122590716"><ele>13.0</ele><time>2026-04-24T02:32:43.002Z</time></trkpt><trkpt lat="-19.79815941957463" lon="120.67580220004078"><ele>13.0</ele><time>2026-04-24T02:32:44.002Z</time></trkpt><trkpt lat="-19.79840598281198" lon="120.67581451167582"><ele>13.0</ele><time>2026-04-24T02:32:45.002Z</time></trkpt><trkpt lat="-19.79864749878779" lon="120.67582730001405"><ele>12.5</ele><time>2026-04-24T02:32:46.002Z</time></trkpt><trkpt lat="-19.798899308353327" lon="120.67583937638092"><ele>12.0</ele><time>2026-04-24T02:32:47.002Z</time></trkpt><trkpt lat="-19.79915064842845" lon="120.6758515176692"><ele>12.0</ele><time>2026-04-24T02:32:48.002Z</time></trkpt><trkpt lat="-19.79940894389456" lon="120.67586272440593"><ele>12.0</ele><time>2026-04-24T02:32:49.002Z</time></trkpt><trkpt lat="-19.799658386754565" lon="120.67587087428767"><ele>12.0</ele><time>2026-04-24T02:32:50.002Z</time></trkpt><trkpt lat="-19.799908724483387" lon="120.67588058163932"><ele>12.0</ele><time>2026-04-24T02:32:51.002Z</time></trkpt><trkpt lat="-19.80015293204102" lon="120.67589254253964"><ele>12.5</ele><time>2026-04-24T02:32:52.002Z</time></trkpt><trkpt lat="-19.800417732072543" lon="120.67590822181052"><ele>13.0</ele><time>2026-04-24T02:32:53.002Z</time></trkpt><trkpt lat="-19.800682863149554" lon="120.67592333667724"><ele>13.0</ele><time>2026-04-24T02:32:54.002Z</time></trkpt><trkpt lat="-19.80095633740617" lon="120.67594076799432"><ele>13.0</ele><time>2026-04-24T02:32:55.002Z</time></trkpt><trkpt lat="-19.801224046534475" lon="120.67595730601872"><ele>14.5</ele><time>2026-04-24T02:32:56.002Z</time></trkpt><trkpt lat="-19.801504158486004" lon="120.67597760024219"><ele>16.0</ele><time>2026-04-24T02:32:57.002Z</time></trkpt><trkpt lat="-19.80178357354044" lon="120.67599790882052"><ele>15.5</ele><time>2026-04-24T02:32:58.002Z</time></trkpt><trkpt lat="-19.80206021075005" lon="120.6760171666244"><ele>15.0</ele><time>2026-04-24T02:32:59.001Z</time></trkpt><trkpt lat="-19.802329950818308" lon="120.67603325934702"><ele>15.0</ele><time>2026-04-24T02:33:00.001Z</time></trkpt><trkpt lat="-19.802593970739384" lon="120.67605060556016"><ele>15.0</ele><time>2026-04-24T02:33:01.001Z</time></trkpt><trkpt lat="-19.80285100173986" lon="120.6760665367405"><ele>15.5</ele><time>2026-04-24T02:33:02.001Z</time></trkpt><trkpt lat="-19.803110035192226" lon="120.67608079909205"><ele>16.0</ele><time>2026-04-24T02:33:03.001Z</time></trkpt><trkpt lat="-19.803368189624855" lon="120.67609451630689"><ele>16.5</ele><time>2026-04-24T02:33:04.001Z</time></trkpt><trkpt lat="-19.80362610182617" lon="120.67611295035884"><ele>17.0</ele><time>2026-04-24T02:33:05.001Z</time></trkpt><trkpt lat="-19.80388155637489" lon="120.67612583405469"><ele>17.0</ele><time>2026-04-24T02:33:06.001Z</time></trkpt><trkpt lat="-19.80414350795105" lon="120.67614280435728"><ele>17.0</ele><time>2026-04-24T02:33:07.001Z</time></trkpt><trkpt lat="-19.804403130929575" lon="120.6761642453068"><ele>16.0</ele><time>2026-04-24T02:33:08.001Z</time></trkpt><trkpt lat="-19.804663147832837" lon="120.67619195350537"><ele>15.0</ele><time>2026-04-24T02:33:09.001Z</time></trkpt><trkpt lat="-19.804920658877514" lon="120.67621573109291"><ele>14.0</ele><time>2026-04-24T02:33:10.001Z</time></trkpt><trkpt lat="-19.805184806718614" lon="120.67623401599515"><ele>13.0</ele><time>2026-04-24T02:33:11.001Z</time></trkpt><trkpt lat="-19.805443205999108" lon="120.67624637394394"><ele>13.0</ele><time>2026-04-24T02:33:12.001Z</time></trkpt><trkpt lat="-19.80571016752463" lon="120.67626179448956"><ele>13.0</ele><time>2026-04-24T02:33:13.001Z</time></trkpt><trkpt lat="-19.80596893347279" lon="120.67627447269851"><ele>14.0</ele><time>2026-04-24T02:33:14.001Z</time></trkpt><trkpt lat="-19.806229168086173" lon="120.6762887488292"><ele>15.0</ele><time>2026-04-24T02:33:15.001Z</time></trkpt><trkpt lat="-19.806489218002405" lon="120.67630510202764"><ele>15.0</ele><time>2026-04-24T02:33:16.001Z</time></trkpt><trkpt lat="-19.80674314246682" lon="120.67632126000508"><ele>15.0</ele><time>2026-04-24T02:33:17.001Z</time></trkpt><trkpt lat="-19.80698815489992" lon="120.67633295788939"><ele>15.5</ele><time>2026-04-24T02:33:18.001Z</time></trkpt><trkpt lat="-19.807240023099375" lon="120.67634672407486"><ele>16.0</ele><time>2026-04-24T02:33:19.001Z</time></trkpt><trkpt lat="-19.807493096317106" lon="120.67636099387296"><ele>16.0</ele><time>2026-04-24T02:33:20.001Z</time></trkpt><trkpt lat="-19.807745721578776" lon="120.67637436888373"><ele>16.0</ele><time>2026-04-24T02:33:21.001Z</time></trkpt><trkpt lat="-19.807998275871707" lon="120.67638404457253"><ele>16.0</ele><time>2026-04-24T02:33:22.001Z</time></trkpt><trkpt lat="-19.808246421822968" lon="120.67639232313482"><ele>16.0</ele><time>2026-04-24T02:33:23.001Z</time></trkpt><trkpt lat="-19.808495028937088" lon="120.6764025604082"><ele>17.0</ele><time>2026-04-24T02:33:24.001Z</time></trkpt><trkpt lat="-19.80874116050171" lon="120.67641308103154"><ele>18.0</ele><time>2026-04-24T02:33:25.001Z</time></trkpt><trkpt lat="-19.808980249033166" lon="120.67642303798428"><ele>18.0</ele><time>2026-04-24T02:33:26.001Z</time></trkpt><trkpt lat="-19.809204127359894" lon="120.67643211262215"><ele>18.0</ele><time>2026-04-24T02:33:27.001Z</time></trkpt><trkpt lat="-19.80941019388789" lon="120.67643997537051"><ele>18.0</ele><time>2026-04-24T02:33:28.001Z</time></trkpt><trkpt lat="-19.80960781226761" lon="120.67644792014512"><ele>18.0</ele><time>2026-04-24T02:33:29.001Z</time></trkpt><trkpt lat="-19.80981268626756" lon="120.6764572243086"><ele>18.0</ele><time>2026-04-24T02:33:30.001Z</time></trkpt><trkpt lat="-19.810022394413974" lon="120.67646917786128"><ele>18.0</ele><time>2026-04-24T02:33:31.001Z</time></trkpt><trkpt lat="-19.810243780888964" lon="120.67647877594587"><ele>18.0</ele><time>2026-04-24T02:33:32.001Z</time></trkpt><trkpt lat="-19.81046976054611" lon="120.67648876968885"><ele>18.0</ele><time>2026-04-24T02:33:33.001Z</time></trkpt><trkpt lat="-19.81070379336584" lon="120.67650159566227"><ele>18.0</ele><time>2026-04-24T02:33:34.001Z</time></trkpt><trkpt lat="-19.810936471949777" lon="120.67651482831471"><ele>18.0</ele><time>2026-04-24T02:33:35.001Z</time></trkpt><trkpt lat="-19.811180367138796" lon="120.6765277785228"><ele>18.5</ele><time>2026-04-24T02:33:36.001Z</time></trkpt><trkpt lat="-19.81142657713582" lon="120.67653669306672"><ele>19.0</ele><time>2026-04-24T02:33:37.001Z</time></trkpt><trkpt lat="-19.811671825221836" lon="120.67654603593729"><ele>18.5</ele><time>2026-04-24T02:33:38.001Z</time></trkpt><trkpt lat="-19.81191392097914" lon="120.67655887193953"><ele>18.0</ele><time>2026-04-24T02:33:39.001Z</time></trkpt><trkpt lat="-19.812148681455025" lon="120.67656675108617"><ele>18.0</ele><time>2026-04-24T02:33:40.001Z</time></trkpt><trkpt lat="-19.812382592771645" lon="120.67658101399046"><ele>18.0</ele><time>2026-04-24T02:33:41.001Z</time></trkpt><trkpt lat="-19.812622851962164" lon="120.67659468083869"><ele>19.0</ele><time>2026-04-24T02:33:42.001Z</time></trkpt><trkpt lat="-19.812860033719062" lon="120.67660775434057"><ele>20.0</ele><time>2026-04-24T02:33:43.001Z</time></trkpt><trkpt lat="-19.813096416351183" lon="120.67662067403892"><ele>20.0</ele><time>2026-04-24T02:33:44.001Z</time></trkpt><trkpt lat="-19.813332707875606" lon="120.67663229583668"><ele>20.0</ele><time>2026-04-24T02:33:45.001Z</time></trkpt><trkpt lat="-19.8135622608475" lon="120.6766410009405"><ele>19.5</ele><time>2026-04-24T02:33:46.001Z</time></trkpt><trkpt lat="-19.813792629765466" lon="120.67665022755463"><ele>19.0</ele><time>2026-04-24T02:33:47.001Z</time></trkpt><trkpt lat="-19.81402183072526" lon="120.67666355713706"><ele>19.0</ele><time>2026-04-24T02:33:48.001Z</time></trkpt><trkpt lat="-19.81425374447038" lon="120.6766779056837"><ele>19.0</ele><time>2026-04-24T02:33:49.001Z</time></trkpt><trkpt lat="-19.814488949472718" lon="120.67669348360106"><ele>19.0</ele><time>2026-04-24T02:33:50.001Z</time></trkpt><trkpt lat="-19.814728396054" lon="120.67671027373478"><ele>19.0</ele><time>2026-04-24T02:33:51.001Z</time></trkpt><trkpt lat="-19.814967305346222" lon="120.67672791095977"><ele>18.0</ele><time>2026-04-24T02:33:52.001Z</time></trkpt><trkpt lat="-19.81520261366869" lon="120.67674205931266"><ele>17.0</ele><time>2026-04-24T02:33:53.001Z</time></trkpt><trkpt lat="-19.815433787632823" lon="120.67675578500895"><ele>17.0</ele><time>2026-04-24T02:33:54.001Z</time></trkpt><trkpt lat="-19.815671751009077" lon="120.67676821117831"><ele>17.0</ele><time>2026-04-24T02:33:55.001Z</time></trkpt><trkpt lat="-19.815908818566992" lon="120.67678184116173"><ele>17.5</ele><time>2026-04-24T02:33:56.001Z</time></trkpt><trkpt lat="-19.816142846738323" lon="120.67679419470174"><ele>18.0</ele><time>2026-04-24T02:33:57.001Z</time></trkpt><trkpt lat="-19.816384990945565" lon="120.67680838120694"><ele>18.0</ele><time>2026-04-24T02:33:58.001Z</time></trkpt><trkpt lat="-19.8166270947954" lon="120.67682005498146"><ele>18.0</ele><time>2026-04-24T02:33:59.001Z</time></trkpt><trkpt lat="-19.816863829998702" lon="120.67682442551316"><ele>17.5</ele><time>2026-04-24T02:34:00.001Z</time></trkpt><trkpt lat="-19.817105267541145" lon="120.67682811359451"><ele>17.0</ele><time>2026-04-24T02:34:01.001Z</time></trkpt><trkpt lat="-19.81734763239575" lon="120.67683434585804"><ele>17.0</ele><time>2026-04-24T02:34:02.001Z</time></trkpt><trkpt lat="-19.817597181043855" lon="120.67684713453703"><ele>17.0</ele><time>2026-04-24T02:34:03.001Z</time></trkpt><trkpt lat="-19.817844516632746" lon="120.67686404055057"><ele>16.666666666666668</ele><time>2026-04-24T02:34:04.001Z</time></trkpt><trkpt lat="-19.818067898299976" lon="120.67687910879815"><ele>16.333333333333332</ele><time>2026-04-24T02:34:05.001Z</time></trkpt><trkpt lat="-19.81828276443731" lon="120.67689407930828"><ele>16.0</ele><time>2026-04-24T02:34:06.001Z</time></trkpt><trkpt lat="-19.81849680485201" lon="120.6769020463894"><ele>16.0</ele><time>2026-04-24T02:34:07.001Z</time></trkpt><trkpt lat="-19.8186986260366" lon="120.67691145330845"><ele>16.0</ele><time>2026-04-24T02:34:08.001Z</time></trkpt><trkpt lat="-19.81890188481462" lon="120.67692185205927"><ele>16.0</ele><time>2026-04-24T02:34:09.001Z</time></trkpt><trkpt lat="-19.81911242713378" lon="120.67694098989516"><ele>17.0</ele><time>2026-04-24T02:34:10.001Z</time></trkpt><trkpt lat="-19.819336181639816" lon="120.676969677926"><ele>18.0</ele><time>2026-04-24T02:34:11.001Z</time></trkpt><trkpt lat="-19.819554568746423" lon="120.67700228467028"><ele>19.0</ele><time>2026-04-24T02:34:12.001Z</time></trkpt><trkpt lat="-19.81980881478345" lon="120.67704287694086"><ele>19.0</ele><time>2026-04-24T02:34:13.001Z</time></trkpt><trkpt lat="-19.82005090147709" lon="120.67708290418851"><ele>19.0</ele><time>2026-04-24T02:34:14.001Z</time></trkpt><trkpt lat="-19.820300008127123" lon="120.67712143557566"><ele>18.0</ele><time>2026-04-24T02:34:15.001Z</time></trkpt><trkpt lat="-19.820551778315046" lon="120.67716059014406"><ele>17.0</ele><time>2026-04-24T02:34:16.001Z</time></trkpt><trkpt lat="-19.820802863790256" lon="120.67720110511254"><ele>16.5</ele><time>2026-04-24T02:34:17.001Z</time></trkpt><trkpt lat="-19.821057386810345" lon="120.67724231643635"><ele>16.0</ele><time>2026-04-24T02:34:18.001Z</time></trkpt><trkpt lat="-19.821308603654863" lon="120.67728162779092"><ele>16.0</ele><time>2026-04-24T02:34:19.001Z</time></trkpt><trkpt lat="-19.82156219938742" lon="120.67731869506619"><ele>16.0</ele><time>2026-04-24T02:34:20.001Z</time></trkpt><trkpt lat="-19.821807462864356" lon="120.6773564730736"><ele>16.0</ele><time>2026-04-24T02:34:21.001Z</time></trkpt><trkpt lat="-19.82205883163141" lon="120.67739461703873"><ele>16.0</ele><time>2026-04-24T02:34:22.001Z</time></trkpt><trkpt lat="-19.822301550444962" lon="120.67742739858969"><ele>16.0</ele><time>2026-04-24T02:34:23.001Z</time></trkpt><trkpt lat="-19.822542019995577" lon="120.67745965038799"><ele>16.0</ele><time>2026-04-24T02:34:24.001Z</time></trkpt><trkpt lat="-19.822793208352877" lon="120.6774976038431"><ele>17.0</ele><time>2026-04-24T02:34:25.001Z</time></trkpt><trkpt lat="-19.823044600597544" lon="120.67753056808084"><ele>18.0</ele><time>2026-04-24T02:34:26.001Z</time></trkpt><trkpt lat="-19.823291389648336" lon="120.67756392776646"><ele>19.0</ele><time>2026-04-24T02:34:27.001Z</time></trkpt><trkpt lat="-19.823541806931388" lon="120.6776011533652"><ele>20.0</ele><time>2026-04-24T02:34:28.001Z</time></trkpt><trkpt lat="-19.823808559358728" lon="120.67764124692344"><ele>20.0</ele><time>2026-04-24T02:34:29.001Z</time></trkpt><trkpt lat="-19.82406420717109" lon="120.67767794230991"><ele>20.0</ele><time>2026-04-24T02:34:30.001Z</time></trkpt><trkpt lat="-19.824323244327722" lon="120.67771586630653"><ele>19.5</ele><time>2026-04-24T02:34:31.001Z</time></trkpt><trkpt lat="-19.824576329010828" lon="120.67775285370688"><ele>19.0</ele><time>2026-04-24T02:34:32.001Z</time></trkpt><trkpt lat="-19.824827416582043" lon="120.6777898395476"><ele>19.0</ele><time>2026-04-24T02:34:33.001Z</time></trkpt><trkpt lat="-19.825076904297333" lon="120.67782730945802"><ele>19.0</ele><time>2026-04-24T02:34:34.001Z</time></trkpt><trkpt lat="-19.825323304644005" lon="120.67786385488034"><ele>19.0</ele><time>2026-04-24T02:34:35.001Z</time></trkpt><trkpt lat="-19.825567871863246" lon="120.67789749026622"><ele>19.0</ele><time>2026-04-24T02:34:36.001Z</time></trkpt><trkpt lat="-19.82579224730907" lon="120.67793010002367"><ele>19.0</ele><time>2026-04-24T02:34:37.001Z</time></trkpt><trkpt lat="-19.82600696214764" lon="120.67795452270218"><ele>19.0</ele><time>2026-04-24T02:34:38.001Z</time></trkpt><trkpt lat="-19.82621093844112" lon="120.67798103833032"><ele>19.0</ele><time>2026-04-24T02:34:39.001Z</time></trkpt><trkpt lat="-19.826408445191948" lon="120.67800743027573"><ele>19.0</ele><time>2026-04-24T02:34:40.001Z</time></trkpt><trkpt lat="-19.826607797177484" lon="120.6780336788894"><ele>19.0</ele><time>2026-04-24T02:34:41.001Z</time></trkpt><trkpt lat="-19.826804866145796" lon="120.67806170373841"><ele>19.0</ele><time>2026-04-24T02:34:42.001Z</time></trkpt><trkpt lat="-19.826995786241415" lon="120.67808864155683"><ele>19.333333333333332</ele><time>2026-04-24T02:34:43.001Z</time></trkpt><trkpt lat="-19.827174010119126" lon="120.67811420208376"><ele>19.666666666666668</ele><time>2026-04-24T02:34:44.001Z</time></trkpt><trkpt lat="-19.827339569313644" lon="120.67813976681597"><ele>20.0</ele><time>2026-04-24T02:34:45.001Z</time></trkpt><trkpt lat="-19.827505477367623" lon="120.67817013182297"><ele>20.666666666666668</ele><time>2026-04-24T02:34:46.001Z</time></trkpt><trkpt lat="-19.827679014783616" lon="120.67820318410747"><ele>21.333333333333332</ele><time>2026-04-24T02:34:47.001Z</time></trkpt><trkpt lat="-19.82785661936765" lon="120.67823519735104"><ele>22.0</ele><time>2026-04-24T02:34:48.001Z</time></trkpt><trkpt lat="-19.82804292727245" lon="120.67826318348496"><ele>22.0</ele><time>2026-04-24T02:34:49.001Z</time></trkpt><trkpt lat="-19.828238473158727" lon="120.67828945427087"><ele>22.0</ele><time>2026-04-24T02:34:50.001Z</time></trkpt><trkpt lat="-19.828435940901393" lon="120.67831707425879"><ele>22.0</ele><time>2026-04-24T02:34:51.002Z</time></trkpt><trkpt lat="-19.828629277654308" lon="120.67834472081543"><ele>21.333333333333332</ele><time>2026-04-24T02:34:52.002Z</time></trkpt><trkpt lat="-19.82881436582115" lon="120.6783701609813"><ele>20.666666666666668</ele><time>2026-04-24T02:34:53.002Z</time></trkpt><trkpt lat="-19.82898400217564" lon="120.67839638835943"><ele>20.0</ele><time>2026-04-24T02:34:54.002Z</time></trkpt><trkpt lat="-19.829142445880752" lon="120.67841744588031"><ele>20.0</ele><time>2026-04-24T02:34:55.002Z</time></trkpt><trkpt lat="-19.829289390816328" lon="120.67843665144976"><ele>20.0</ele><time>2026-04-24T02:34:56.002Z</time></trkpt><trkpt lat="-19.829442051181363" lon="120.6784567423059"><ele>20.0</ele><time>2026-04-24T02:34:57.002Z</time></trkpt><trkpt lat="-19.829611825582596" lon="120.67846992495654"><ele>20.0</ele><time>2026-04-24T02:34:58.002Z</time></trkpt><trkpt lat="-19.829796155776123" lon="120.67847522265534"><ele>20.0</ele><time>2026-04-24T02:34:59.002Z</time></trkpt><trkpt lat="-19.830010847971653" lon="120.67848817594775"><ele>20.0</ele><time>2026-04-24T02:35:00.002Z</time></trkpt><trkpt lat="-19.830237127451262" lon="120.6785085253653"><ele>19.5</ele><time>2026-04-24T02:35:01.002Z</time></trkpt><trkpt lat="-19.83048264226671" lon="120.6785413391564"><ele>19.0</ele><time>2026-04-24T02:35:02.002Z</time></trkpt><trkpt lat="-19.83072635509048" lon="120.67857517500312"><ele>20.5</ele><time>2026-04-24T02:35:03.002Z</time></trkpt><trkpt lat="-19.830967578424378" lon="120.67861144817738"><ele>22.0</ele><time>2026-04-24T02:35:04.002Z</time></trkpt><trkpt lat="-19.831217249089267" lon="120.67865434557896"><ele>22.5</ele><time>2026-04-24T02:35:05.001Z</time></trkpt><trkpt lat="-19.8314831674345" lon="120.67870434630662"><ele>23.0</ele><time>2026-04-24T02:35:06Z</time></trkpt><trkpt lat="-19.831752079740124" lon="120.67875289924909"><ele>22.5</ele><time>2026-04-24T02:35:07.001Z</time></trkpt><trkpt lat="-19.832013456336785" lon="120.6787978784379"><ele>22.0</ele><time>2026-04-24T02:35:08Z</time></trkpt><trkpt lat="-19.832281779619287" lon="120.67884386181127"><ele>22.0</ele><time>2026-04-24T02:35:09Z</time></trkpt><trkpt lat="-19.83253734680044" lon="120.67888619115259"><ele>22.0</ele><time>2026-04-24T02:35:10Z</time></trkpt><trkpt lat="-19.832793528971827" lon="120.67892795601806"><ele>21.5</ele><time>2026-04-24T02:35:11Z</time></trkpt><trkpt lat="-19.83304645665618" lon="120.6789669417181"><ele>21.0</ele><time>2026-04-24T02:35:12Z</time></trkpt><trkpt lat="-19.833298067139342" lon="120.67900245050994"><ele>22.0</ele><time>2026-04-24T02:35:13Z</time></trkpt><trkpt lat="-19.833549044989777" lon="120.67903815254142"><ele>23.0</ele><time>2026-04-24T02:35:14Z</time></trkpt><trkpt lat="-19.83379954739564" lon="120.67907454913231"><ele>23.0</ele><time>2026-04-24T02:35:15Z</time></trkpt><trkpt lat="-19.834049479853594" lon="120.6791129904527"><ele>23.0</ele><time>2026-04-24T02:35:16Z</time></trkpt><trkpt lat="-19.834298896773074" lon="120.67914992949305"><ele>23.5</ele><time>2026-04-24T02:35:17Z</time></trkpt><trkpt lat="-19.83453748407952" lon="120.67917942066735"><ele>24.0</ele><time>2026-04-24T02:35:18Z</time></trkpt><trkpt lat="-19.83476047408922" lon="120.67921016709022"><ele>24.0</ele><time>2026-04-24T02:35:19Z</time></trkpt><trkpt lat="-19.83497709563765" lon="120.67923831458542"><ele>24.0</ele><time>2026-04-24T02:35:20Z</time></trkpt><trkpt lat="-19.83518383140103" lon="120.67926177802164"><ele>24.0</ele><time>2026-04-24T02:35:21.001Z</time></trkpt><trkpt lat="-19.835383310862888" lon="120.67928826632526"><ele>24.333333333333336</ele><time>2026-04-24T02:35:22.001Z</time></trkpt><trkpt lat="-19.835571881311203" lon="120.6793135459955"><ele>24.666666666666668</ele><time>2026-04-24T02:35:23.001Z</time></trkpt><trkpt lat="-19.835749920226732" lon="120.67934133056394"><ele>25.0</ele><time>2026-04-24T02:35:24.001Z</time></trkpt><trkpt lat="-19.83591516057412" lon="120.67936734749101"><ele>25.25</ele><time>2026-04-24T02:35:25.001Z</time></trkpt><trkpt lat="-19.836069721257495" lon="120.67938876252421"><ele>25.5</ele><time>2026-04-24T02:35:26.001Z</time></trkpt><trkpt lat="-19.836211607154294" lon="120.67940582779306"><ele>25.75</ele><time>2026-04-24T02:35:27.001Z</time></trkpt><trkpt lat="-19.836338823876428" lon="120.67942062659566"><ele>26.0</ele><time>2026-04-24T02:35:28.001Z</time></trkpt><trkpt lat="-19.836446791495252" lon="120.6794333783359"><ele>25.999999999999996</ele><time>2026-04-24T02:35:29.001Z</time></trkpt><trkpt lat="-19.836539696047204" lon="120.67944895573466"><ele>26.0</ele><time>2026-04-24T02:35:30.001Z</time></trkpt><trkpt lat="-19.836629469192644" lon="120.67946961319963"><ele>26.0</ele><time>2026-04-24T02:35:31.001Z</time></trkpt><trkpt lat="-19.83671166537709" lon="120.67948991534304"><ele>26.0</ele><time>2026-04-24T02:35:32.001Z</time></trkpt><trkpt lat="-19.83678651445306" lon="120.67950642512281"><ele>25.999999999999996</ele><time>2026-04-24T02:35:33.001Z</time></trkpt><trkpt lat="-19.836855896446114" lon="120.67952015050419"><ele>26.0</ele><time>2026-04-24T02:35:34.001Z</time></trkpt><trkpt lat="-19.836919883613586" lon="120.67953004750815"><ele>26.200000000000003</ele><time>2026-04-24T02:35:35.001Z</time></trkpt><trkpt lat="-19.837004185506245" lon="120.6795540925097"><ele>26.400000000000002</ele><time>2026-04-24T02:35:37.001Z</time></trkpt><trkpt lat="-19.837049369582836" lon="120.67967974076686"><ele>26.6</ele><time>2026-04-24T02:35:39.001Z</time></trkpt><trkpt lat="-19.837035928714062" lon="120.6797687546495"><ele>26.8</ele><time>2026-04-24T02:35:40.001Z</time></trkpt><trkpt lat="-19.83700703389591" lon="120.67986907124585"><ele>27.0</ele><time>2026-04-24T02:35:41.001Z</time></trkpt><trkpt lat="-19.836974351920567" lon="120.6799728649567"><ele>27.0</ele><time>2026-04-24T02:35:42.001Z</time></trkpt><trkpt lat="-19.83694474952269" lon="120.68009072475681"><ele>27.0</ele><time>2026-04-24T02:35:43.001Z</time></trkpt><trkpt lat="-19.83690602669507" lon="120.68023028481039"><ele>27.0</ele><time>2026-04-24T02:35:44.001Z</time></trkpt><trkpt lat="-19.83686985307204" lon="120.68038669355961"><ele>27.0</ele><time>2026-04-24T02:35:45.001Z</time></trkpt><trkpt lat="-19.836831804369968" lon="120.68054527420468"><ele>26.666666666666664</ele><time>2026-04-24T02:35:46.001Z</time></trkpt><trkpt lat="-19.83678633175434" lon="120.68072503705093"><ele>26.333333333333332</ele><time>2026-04-24T02:35:47.001Z</time></trkpt><trkpt lat="-19.836740068108455" lon="120.6809125610145"><ele>26.0</ele><time>2026-04-24T02:35:48.001Z</time></trkpt><trkpt lat="-19.836690334883897" lon="120.68111928755873"><ele>25.666666666666664</ele><time>2026-04-24T02:35:49.001Z</time></trkpt><trkpt lat="-19.836637903277296" lon="120.68134462487193"><ele>25.333333333333336</ele><time>2026-04-24T02:35:50.001Z</time></trkpt><trkpt lat="-19.836580608122162" lon="120.68157351701605"><ele>25.0</ele><time>2026-04-24T02:35:51.001Z</time></trkpt><trkpt lat="-19.836520818801596" lon="120.68180952758624"><ele>25.5</ele><time>2026-04-24T02:35:52.001Z</time></trkpt><trkpt lat="-19.8364616063788" lon="120.68205821066343"><ele>26.0</ele><time>2026-04-24T02:35:53.001Z</time></trkpt><trkpt lat="-19.836401507765203" lon="120.68231745198344"><ele>26.0</ele><time>2026-04-24T02:35:54.001Z</time></trkpt><trkpt lat="-19.83634159489694" lon="120.68256830978534"><ele>26.0</ele><time>2026-04-24T02:35:55.001Z</time></trkpt><trkpt lat="-19.836280357887755" lon="120.68281915431426"><ele>27.0</ele><time>2026-04-24T02:35:56.001Z</time></trkpt><trkpt lat="-19.83621817404595" lon="120.68307232282713"><ele>28.0</ele><time>2026-04-24T02:35:57.001Z</time></trkpt><trkpt lat="-19.83615771794994" lon="120.68333129587809"><ele>28.0</ele><time>2026-04-24T02:35:58.001Z</time></trkpt><trkpt lat="-19.836095704396268" lon="120.68359130789624"><ele>28.0</ele><time>2026-04-24T02:35:59.001Z</time></trkpt><trkpt lat="-19.836031518619123" lon="120.68385366121484"><ele>27.5</ele><time>2026-04-24T02:36:00.001Z</time></trkpt><trkpt lat="-19.835964553925653" lon="120.68412161675694"><ele>27.0</ele><time>2026-04-24T02:36:01.001Z</time></trkpt><trkpt lat="-19.83589625886649" lon="120.68438953977423"><ele>27.5</ele><time>2026-04-24T02:36:02.001Z</time></trkpt><trkpt lat="-19.835829797504356" lon="120.6846601629089"><ele>28.0</ele><time>2026-04-24T02:36:03.001Z</time></trkpt><trkpt lat="-19.835764898945644" lon="120.68493560740396"><ele>28.0</ele><time>2026-04-24T02:36:04.001Z</time></trkpt><trkpt lat="-19.835700152971423" lon="120.68521268911198"><ele>28.0</ele><time>2026-04-24T02:36:05.001Z</time></trkpt><trkpt lat="-19.83563539601828" lon="120.68549338439381"><ele>27.5</ele><time>2026-04-24T02:36:06.001Z</time></trkpt><trkpt lat="-19.835569056915304" lon="120.68577717066958"><ele>27.0</ele><time>2026-04-24T02:36:07.001Z</time></trkpt><trkpt lat="-19.835501748073536" lon="120.68606355432901"><ele>27.0</ele><time>2026-04-24T02:36:08.001Z</time></trkpt><trkpt lat="-19.835432472325113" lon="120.68634868392748"><ele>27.0</ele><time>2026-04-24T02:36:09.001Z</time></trkpt><trkpt lat="-19.835362271737296" lon="120.68663023472054"><ele>27.0</ele><time>2026-04-24T02:36:10.001Z</time></trkpt><trkpt lat="-19.835294049852152" lon="120.6869097844801"><ele>27.0</ele><time>2026-04-24T02:36:11.001Z</time></trkpt><trkpt lat="-19.83522579271693" lon="120.6871905816516"><ele>27.0</ele><time>2026-04-24T02:36:12.001Z</time></trkpt><trkpt lat="-19.835156052470683" lon="120.68747378350385"><ele>27.0</ele><time>2026-04-24T02:36:13.001Z</time></trkpt><trkpt lat="-19.83508906470012" lon="120.68776128240198"><ele>27.5</ele><time>2026-04-24T02:36:14.001Z</time></trkpt><trkpt lat="-19.83502309398262" lon="120.68805051160743"><ele>28.0</ele><time>2026-04-24T02:36:15.001Z</time></trkpt><trkpt lat="-19.834956250071833" lon="120.68834206395076"><ele>28.0</ele><time>2026-04-24T02:36:16.001Z</time></trkpt><trkpt lat="-19.834887586701814" lon="120.68863414263166"><ele>28.0</ele><time>2026-04-24T02:36:17.001Z</time></trkpt><trkpt lat="-19.83481535275893" lon="120.68892573611986"><ele>28.0</ele><time>2026-04-24T02:36:18.001Z</time></trkpt><trkpt lat="-19.834741287692324" lon="120.68921691408491"><ele>28.0</ele><time>2026-04-24T02:36:19.001Z</time></trkpt><trkpt lat="-19.834668516530648" lon="120.68950527504371"><ele>28.5</ele><time>2026-04-24T02:36:20.001Z</time></trkpt><trkpt lat="-19.83459755496112" lon="120.68979494250102"><ele>29.0</ele><time>2026-04-24T02:36:21.001Z</time></trkpt><trkpt lat="-19.83452888938168" lon="120.69008635868904"><ele>29.0</ele><time>2026-04-24T02:36:22.001Z</time></trkpt><trkpt lat="-19.834457890549245" lon="120.69037833021864"><ele>29.0</ele><time>2026-04-24T02:36:23.001Z</time></trkpt><trkpt lat="-19.834386157078374" lon="120.69067089445849"><ele>29.0</ele><time>2026-04-24T02:36:24.001Z</time></trkpt><trkpt lat="-19.834314701375245" lon="120.69096551572174"><ele>29.0</ele><time>2026-04-24T02:36:25.001Z</time></trkpt><trkpt lat="-19.83424375349209" lon="120.6912613146784"><ele>30.0</ele><time>2026-04-24T02:36:26.001Z</time></trkpt><trkpt lat="-19.834173533704128" lon="120.69155148214573"><ele>31.0</ele><time>2026-04-24T02:36:27.001Z</time></trkpt><trkpt lat="-19.83410561222676" lon="120.69183969584127"><ele>31.5</ele><time>2026-04-24T02:36:28.001Z</time></trkpt><trkpt lat="-19.834036712435257" lon="120.69212739999794"><ele>32.0</ele><time>2026-04-24T02:36:29.001Z</time></trkpt><trkpt lat="-19.83397005409705" lon="120.69241548989153"><ele>32.0</ele><time>2026-04-24T02:36:30.001Z</time></trkpt><trkpt lat="-19.833903075944665" lon="120.69270105954203"><ele>32.0</ele><time>2026-04-24T02:36:31.001Z</time></trkpt><trkpt lat="-19.833833626341693" lon="120.69298817364755"><ele>32.0</ele><time>2026-04-24T02:36:32.001Z</time></trkpt><trkpt lat="-19.83376504960699" lon="120.69327313620768"><ele>32.0</ele><time>2026-04-24T02:36:33.001Z</time></trkpt><trkpt lat="-19.833702130029195" lon="120.69356273535145"><ele>33.0</ele><time>2026-04-24T02:36:34.001Z</time></trkpt><trkpt lat="-19.833641025252334" lon="120.69385931436803"><ele>34.0</ele><time>2026-04-24T02:36:35.001Z</time></trkpt><trkpt lat="-19.83357119686694" lon="120.69415326148012"><ele>33.5</ele><time>2026-04-24T02:36:36.001Z</time></trkpt><trkpt lat="-19.83349535574091" lon="120.69445253262957"><ele>33.0</ele><time>2026-04-24T02:36:37.001Z</time></trkpt><trkpt lat="-19.8334227159428" lon="120.69476278470098"><ele>33.0</ele><time>2026-04-24T02:36:38.001Z</time></trkpt><trkpt lat="-19.833333432080128" lon="120.69507527701066"><ele>33.0</ele><time>2026-04-24T02:36:39.001Z</time></trkpt><trkpt lat="-19.833257294675082" lon="120.69539257255235"><ele>33.0</ele><time>2026-04-24T02:36:40.001Z</time></trkpt><trkpt lat="-19.833182897259523" lon="120.69570332926862"><ele>33.0</ele><time>2026-04-24T02:36:41.001Z</time></trkpt><trkpt lat="-19.83310833441546" lon="120.69601477630758"><ele>33.5</ele><time>2026-04-24T02:36:42.001Z</time></trkpt><trkpt lat="-19.83303392687507" lon="120.69632557436152"><ele>34.0</ele><time>2026-04-24T02:36:43.001Z</time></trkpt><trkpt lat="-19.832962079088286" lon="120.6966320786167"><ele>34.5</ele><time>2026-04-24T02:36:44.001Z</time></trkpt><trkpt lat="-19.832911507934153" lon="120.696937285873"><ele>35.0</ele><time>2026-04-24T02:36:45.001Z</time></trkpt><trkpt lat="-19.832827073335924" lon="120.69723079599375"><ele>35.0</ele><time>2026-04-24T02:36:46.001Z</time></trkpt><trkpt lat="-19.83274451146902" lon="120.69752408920354"><ele>35.0</ele><time>2026-04-24T02:36:47.001Z</time></trkpt><trkpt lat="-19.83266514556868" lon="120.69781619281753"><ele>35.5</ele><time>2026-04-24T02:36:48.001Z</time></trkpt><trkpt lat="-19.832591109284625" lon="120.69811249868995"><ele>36.0</ele><time>2026-04-24T02:36:49.001Z</time></trkpt><trkpt lat="-19.832523897412486" lon="120.69840383634777"><ele>36.0</ele><time>2026-04-24T02:36:50.001Z</time></trkpt><trkpt lat="-19.832457619055276" lon="120.69869326842228"><ele>36.0</ele><time>2026-04-24T02:36:51.001Z</time></trkpt><trkpt lat="-19.83238991385057" lon="120.69898400381737"><ele>36.0</ele><time>2026-04-24T02:36:52.001Z</time></trkpt><trkpt lat="-19.83231977545606" lon="120.69927748601167"><ele>36.0</ele><time>2026-04-24T02:36:53.001Z</time></trkpt><trkpt lat="-19.83224808749002" lon="120.69957128531694"><ele>36.0</ele><time>2026-04-24T02:36:54.001Z</time></trkpt><trkpt lat="-19.832178973289352" lon="120.69986374643325"><ele>36.0</ele><time>2026-04-24T02:36:55.001Z</time></trkpt><trkpt lat="-19.832109153999824" lon="120.70015756756587"><ele>36.0</ele><time>2026-04-24T02:36:56.001Z</time></trkpt><trkpt lat="-19.832038221196825" lon="120.70045038751387"><ele>36.0</ele><time>2026-04-24T02:36:57.001Z</time></trkpt><trkpt lat="-19.83196563465317" lon="120.70074016044997"><ele>36.0</ele><time>2026-04-24T02:36:58.001Z</time></trkpt><trkpt lat="-19.831893801937312" lon="120.70102925203602"><ele>36.0</ele><time>2026-04-24T02:36:59.001Z</time></trkpt><trkpt lat="-19.831820563345758" lon="120.70131872391254"><ele>36.0</ele><time>2026-04-24T02:37:00.002Z</time></trkpt><trkpt lat="-19.83174856956644" lon="120.70160870489057"><ele>36.0</ele><time>2026-04-24T02:37:01.002Z</time></trkpt><trkpt lat="-19.83167922676191" lon="120.70189683843776"><ele>35.5</ele><time>2026-04-24T02:37:02.002Z</time></trkpt><trkpt lat="-19.831611132003207" lon="120.70218605191918"><ele>35.0</ele><time>2026-04-24T02:37:03.002Z</time></trkpt><trkpt lat="-19.83154369574037" lon="120.70247560686755"><ele>34.5</ele><time>2026-04-24T02:37:04.002Z</time></trkpt><trkpt lat="-19.83147532683458" lon="120.70276351563794"><ele>34.0</ele><time>2026-04-24T02:37:05.002Z</time></trkpt><trkpt lat="-19.831405973300235" lon="120.7030513678896"><ele>34.0</ele><time>2026-04-24T02:37:06.002Z</time></trkpt><trkpt lat="-19.831334461537647" lon="120.70333763387748"><ele>34.0</ele><time>2026-04-24T02:37:07.002Z</time></trkpt><trkpt lat="-19.831264196251297" lon="120.70362258778827"><ele>34.5</ele><time>2026-04-24T02:37:08.002Z</time></trkpt><trkpt lat="-19.83119390175892" lon="120.7039090951592"><ele>35.0</ele><time>2026-04-24T02:37:09.002Z</time></trkpt><trkpt lat="-19.83112548587421" lon="120.70419601347372"><ele>36.0</ele><time>2026-04-24T02:37:10.002Z</time></trkpt><trkpt lat="-19.831057348146107" lon="120.70448326145204"><ele>37.0</ele><time>2026-04-24T02:37:11Z</time></trkpt><trkpt lat="-19.830989806686755" lon="120.70476868255928"><ele>35.5</ele><time>2026-04-24T02:37:12Z</time></trkpt><trkpt lat="-19.830921347278018" lon="120.7050506945383"><ele>34.0</ele><time>2026-04-24T02:37:13Z</time></trkpt><trkpt lat="-19.83085369324099" lon="120.70533178891301"><ele>34.0</ele><time>2026-04-24T02:37:14Z</time></trkpt><trkpt lat="-19.830788050134235" lon="120.70561034791344"><ele>34.0</ele><time>2026-04-24T02:37:15Z</time></trkpt><trkpt lat="-19.830719831569635" lon="120.70588768654244"><ele>33.5</ele><time>2026-04-24T02:37:16Z</time></trkpt><trkpt lat="-19.830652144776288" lon="120.70616293446243"><ele>33.0</ele><time>2026-04-24T02:37:17Z</time></trkpt><trkpt lat="-19.83058707289076" lon="120.70643959844367"><ele>33.0</ele><time>2026-04-24T02:37:18Z</time></trkpt><trkpt lat="-19.830519083100068" lon="120.70672030184976"><ele>33.0</ele><time>2026-04-24T02:37:19Z</time></trkpt><trkpt lat="-19.830450978048983" lon="120.70700309278361"><ele>33.0</ele><time>2026-04-24T02:37:20Z</time></trkpt><trkpt lat="-19.83038322209494" lon="120.70728416595507"><ele>33.0</ele><time>2026-04-24T02:37:21Z</time></trkpt><trkpt lat="-19.830315851348622" lon="120.70756701251719"><ele>33.5</ele><time>2026-04-24T02:37:22Z</time></trkpt><trkpt lat="-19.830247000696417" lon="120.70784841682367"><ele>34.0</ele><time>2026-04-24T02:37:23Z</time></trkpt><trkpt lat="-19.83017904313827" lon="120.7081341004346"><ele>33.5</ele><time>2026-04-24T02:37:24Z</time></trkpt><trkpt lat="-19.830111546386807" lon="120.7084223229975"><ele>33.0</ele><time>2026-04-24T02:37:25Z</time></trkpt><trkpt lat="-19.830041779277256" lon="120.70871073279615"><ele>33.0</ele><time>2026-04-24T02:37:26Z</time></trkpt><trkpt lat="-19.829971109533115" lon="120.70899888921274"><ele>33.0</ele><time>2026-04-24T02:37:27Z</time></trkpt><trkpt lat="-19.82990014659523" lon="120.70928488034318"><ele>32.5</ele><time>2026-04-24T02:37:28Z</time></trkpt><trkpt lat="-19.829828971962268" lon="120.70957128186885"><ele>32.0</ele><time>2026-04-24T02:37:29Z</time></trkpt><trkpt lat="-19.829759282722584" lon="120.70985853858998"><ele>32.0</ele><time>2026-04-24T02:37:30Z</time></trkpt><trkpt lat="-19.82969173697514" lon="120.7101421252017"><ele>32.0</ele><time>2026-04-24T02:37:31Z</time></trkpt><trkpt lat="-19.82962439340668" lon="120.71042600818416"><ele>32.5</ele><time>2026-04-24T02:37:32.001Z</time></trkpt><trkpt lat="-19.82955543900504" lon="120.710710216557"><ele>33.0</ele><time>2026-04-24T02:37:33.001Z</time></trkpt><trkpt lat="-19.829484457236806" lon="120.71099400337513"><ele>33.0</ele><time>2026-04-24T02:37:34.001Z</time></trkpt><trkpt lat="-19.82941479080858" lon="120.71127820375548"><ele>33.0</ele><time>2026-04-24T02:37:35.001Z</time></trkpt><trkpt lat="-19.829345618041003" lon="120.71156433272925"><ele>31.5</ele><time>2026-04-24T02:37:36.001Z</time></trkpt><trkpt lat="-19.829274139470822" lon="120.71185005739656"><ele>30.0</ele><time>2026-04-24T02:37:37.001Z</time></trkpt><trkpt lat="-19.829203808428527" lon="120.71213469392585"><ele>29.5</ele><time>2026-04-24T02:37:38.001Z</time></trkpt><trkpt lat="-19.82913539878555" lon="120.71242179444857"><ele>29.0</ele><time>2026-04-24T02:37:39.001Z</time></trkpt><trkpt lat="-19.829067813387873" lon="120.71271131300195"><ele>30.0</ele><time>2026-04-24T02:37:40.001Z</time></trkpt><trkpt lat="-19.829000147892902" lon="120.71300075813704"><ele>31.0</ele><time>2026-04-24T02:37:41.001Z</time></trkpt><trkpt lat="-19.828933382601207" lon="120.71329153585951"><ele>31.0</ele><time>2026-04-24T02:37:42.001Z</time></trkpt><trkpt lat="-19.82886415572207" lon="120.71358247721501"><ele>31.0</ele><time>2026-04-24T02:37:43.001Z</time></trkpt><trkpt lat="-19.828794259950755" lon="120.71387768099302"><ele>31.0</ele><time>2026-04-24T02:37:44.001Z</time></trkpt><trkpt lat="-19.828725172357785" lon="120.71417142762897"><ele>31.0</ele><time>2026-04-24T02:37:45.001Z</time></trkpt><trkpt lat="-19.828655475676957" lon="120.7144672981297"><ele>31.0</ele><time>2026-04-24T02:37:46.001Z</time></trkpt><trkpt lat="-19.828583606232772" lon="120.71476429433238"><ele>31.0</ele><time>2026-04-24T02:37:47.001Z</time></trkpt><trkpt lat="-19.82851145063942" lon="120.7150616607432"><ele>31.0</ele><time>2026-04-24T02:37:48.001Z</time></trkpt><trkpt lat="-19.828439789305616" lon="120.71536082584133"><ele>31.0</ele><time>2026-04-24T02:37:49.001Z</time></trkpt><trkpt lat="-19.82836957625659" lon="120.7156597244764"><ele>31.0</ele><time>2026-04-24T02:37:50.001Z</time></trkpt><trkpt lat="-19.828296961680998" lon="120.71595685601235"><ele>31.0</ele><time>2026-04-24T02:37:51.001Z</time></trkpt><trkpt lat="-19.82822380901274" lon="120.71625067174914"><ele>30.5</ele><time>2026-04-24T02:37:52.001Z</time></trkpt><trkpt lat="-19.828154181251058" lon="120.71654580117666"><ele>30.0</ele><time>2026-04-24T02:37:53.001Z</time></trkpt><trkpt lat="-19.82808546263697" lon="120.71683942547946"><ele>30.5</ele><time>2026-04-24T02:37:54.001Z</time></trkpt><trkpt lat="-19.828013722680645" lon="120.71713019123037"><ele>31.0</ele><time>2026-04-24T02:37:55.001Z</time></trkpt><trkpt lat="-19.82794102725664" lon="120.71742123591058"><ele>31.0</ele><time>2026-04-24T02:37:56.001Z</time></trkpt><trkpt lat="-19.82787121016982" lon="120.71771149838705"><ele>31.0</ele><time>2026-04-24T02:37:57.001Z</time></trkpt><trkpt lat="-19.827799248800673" lon="120.7179994557884"><ele>31.0</ele><time>2026-04-24T02:37:58.001Z</time></trkpt><trkpt lat="-19.82772489778705" lon="120.7182890425678"><ele>31.0</ele><time>2026-04-24T02:37:59.001Z</time></trkpt><trkpt lat="-19.82765334954615" lon="120.71857105336838"><ele>30.0</ele><time>2026-04-24T02:38:00.001Z</time></trkpt><trkpt lat="-19.827585319969845" lon="120.71885609852812"><ele>29.0</ele><time>2026-04-24T02:38:01.001Z</time></trkpt><trkpt lat="-19.827519353099486" lon="120.71914192042992"><ele>28.5</ele><time>2026-04-24T02:38:02.001Z</time></trkpt><trkpt lat="-19.827451473682245" lon="120.71942827265379"><ele>28.0</ele><time>2026-04-24T02:38:03.001Z</time></trkpt><trkpt lat="-19.827381652319897" lon="120.7197145880278"><ele>28.0</ele><time>2026-04-24T02:38:04.001Z</time></trkpt><trkpt lat="-19.827311488088807" lon="120.7199990579427"><ele>28.0</ele><time>2026-04-24T02:38:05.001Z</time></trkpt><trkpt lat="-19.827241863120914" lon="120.72027740180602"><ele>28.0</ele><time>2026-04-24T02:38:06.001Z</time></trkpt><trkpt lat="-19.827171680997964" lon="120.72055747074253"><ele>28.0</ele><time>2026-04-24T02:38:07.001Z</time></trkpt><trkpt lat="-19.827103875410714" lon="120.72083620968827"><ele>28.5</ele><time>2026-04-24T02:38:08.001Z</time></trkpt><trkpt lat="-19.827037606703342" lon="120.72112078911505"><ele>29.0</ele><time>2026-04-24T02:38:09.001Z</time></trkpt><trkpt lat="-19.826970670260966" lon="120.72141042779145"><ele>29.0</ele><time>2026-04-24T02:38:10.001Z</time></trkpt><trkpt lat="-19.82690302777828" lon="120.72169986063865"><ele>29.0</ele><time>2026-04-24T02:38:11.001Z</time></trkpt><trkpt lat="-19.82683573837133" lon="120.72198593549712"><ele>28.5</ele><time>2026-04-24T02:38:12.001Z</time></trkpt><trkpt lat="-19.826767982731308" lon="120.72227541589453"><ele>28.0</ele><time>2026-04-24T02:38:13.001Z</time></trkpt><trkpt lat="-19.826699454358383" lon="120.72256056655247"><ele>27.5</ele><time>2026-04-24T02:38:14.001Z</time></trkpt><trkpt lat="-19.82662949447211" lon="120.72284362217465"><ele>27.0</ele><time>2026-04-24T02:38:15.001Z</time></trkpt><trkpt lat="-19.826559231000687" lon="120.72312586245818"><ele>27.0</ele><time>2026-04-24T02:38:16.001Z</time></trkpt><trkpt lat="-19.826490094785527" lon="120.72340867762698"><ele>27.0</ele><time>2026-04-24T02:38:17.001Z</time></trkpt><trkpt lat="-19.826422420917538" lon="120.72369185368147"><ele>27.0</ele><time>2026-04-24T02:38:18.001Z</time></trkpt><trkpt lat="-19.82635531939724" lon="120.72397792119901"><ele>27.0</ele><time>2026-04-24T02:38:19.001Z</time></trkpt><trkpt lat="-19.82628548022542" lon="120.72426474407322"><ele>27.0</ele><time>2026-04-24T02:38:20.001Z</time></trkpt><trkpt lat="-19.826215699343805" lon="120.72454822646237"><ele>27.0</ele><time>2026-04-24T02:38:21.001Z</time></trkpt><trkpt lat="-19.826146622772843" lon="120.72483364082129"><ele>27.0</ele><time>2026-04-24T02:38:22.001Z</time></trkpt><trkpt lat="-19.826077987738056" lon="120.72511590220357"><ele>27.0</ele><time>2026-04-24T02:38:23.001Z</time></trkpt><trkpt lat="-19.82600938285457" lon="120.72539848360888"><ele>26.5</ele><time>2026-04-24T02:38:24.001Z</time></trkpt><trkpt lat="-19.825940825240004" lon="120.72568026884667"><ele>26.0</ele><time>2026-04-24T02:38:25.001Z</time></trkpt><trkpt lat="-19.825870770162943" lon="120.72596079568835"><ele>26.0</ele><time>2026-04-24T02:38:26.001Z</time></trkpt><trkpt lat="-19.825802156287466" lon="120.72624172331462"><ele>26.0</ele><time>2026-04-24T02:38:27.001Z</time></trkpt><trkpt lat="-19.825733994004377" lon="120.72652185596874"><ele>26.0</ele><time>2026-04-24T02:38:28.001Z</time></trkpt><trkpt lat="-19.825666275716515" lon="120.7268027728551"><ele>26.0</ele><time>2026-04-24T02:38:29.001Z</time></trkpt><trkpt lat="-19.825599932188645" lon="120.72707970925077"><ele>25.5</ele><time>2026-04-24T02:38:30.001Z</time></trkpt><trkpt lat="-19.82553267412343" lon="120.72735664232694"><ele>25.0</ele><time>2026-04-24T02:38:31.001Z</time></trkpt><trkpt lat="-19.82546482633018" lon="120.72763366751654"><ele>26.0</ele><time>2026-04-24T02:38:32.001Z</time></trkpt><trkpt lat="-19.825400553005" lon="120.72790933803299"><ele>27.0</ele><time>2026-04-24T02:38:33.001Z</time></trkpt><trkpt lat="-19.825334926870998" lon="120.72818549804111"><ele>27.0</ele><time>2026-04-24T02:38:34.001Z</time></trkpt><trkpt lat="-19.825266442506187" lon="120.7284609249278"><ele>27.0</ele><time>2026-04-24T02:38:35.001Z</time></trkpt><trkpt lat="-19.825197223467736" lon="120.72873888240494"><ele>26.0</ele><time>2026-04-24T02:38:36.001Z</time></trkpt><trkpt lat="-19.825129422734804" lon="120.72901970665913"><ele>25.0</ele><time>2026-04-24T02:38:37.001Z</time></trkpt><trkpt lat="-19.82506410659709" lon="120.72930464314996"><ele>25.0</ele><time>2026-04-24T02:38:38.001Z</time></trkpt><trkpt lat="-19.8250000231425" lon="120.7295888618958"><ele>25.0</ele><time>2026-04-24T02:38:39.001Z</time></trkpt><trkpt lat="-19.824934387827515" lon="120.72986978565974"><ele>25.0</ele><time>2026-04-24T02:38:40.001Z</time></trkpt><trkpt lat="-19.82486716201169" lon="120.7301496854952"><ele>25.0</ele><time>2026-04-24T02:38:41.001Z</time></trkpt><trkpt lat="-19.82479996026883" lon="120.73043078547049"><ele>26.0</ele><time>2026-04-24T02:38:42.001Z</time></trkpt><trkpt lat="-19.824734395055692" lon="120.73071221381626"><ele>27.0</ele><time>2026-04-24T02:38:43.001Z</time></trkpt><trkpt lat="-19.824666764722373" lon="120.73099140767907"><ele>26.5</ele><time>2026-04-24T02:38:44.001Z</time></trkpt><trkpt lat="-19.824597915335033" lon="120.7312720072893"><ele>26.0</ele><time>2026-04-24T02:38:45.001Z</time></trkpt><trkpt lat="-19.824531304403358" lon="120.73155285357367"><ele>26.0</ele><time>2026-04-24T02:38:46.001Z</time></trkpt><trkpt lat="-19.824464475579447" lon="120.7318321212538"><ele>26.0</ele><time>2026-04-24T02:38:47.001Z</time></trkpt><trkpt lat="-19.824394620149302" lon="120.73210891538278"><ele>25.0</ele><time>2026-04-24T02:38:48.001Z</time></trkpt><trkpt lat="-19.824324552583306" lon="120.73238354184373"><ele>24.0</ele><time>2026-04-24T02:38:49.001Z</time></trkpt><trkpt lat="-19.82425555450447" lon="120.73265542649958"><ele>24.5</ele><time>2026-04-24T02:38:50.001Z</time></trkpt><trkpt lat="-19.824188126531254" lon="120.73292966534916"><ele>25.0</ele><time>2026-04-24T02:38:51.001Z</time></trkpt><trkpt lat="-19.824123418933592" lon="120.73320542118147"><ele>25.0</ele><time>2026-04-24T02:38:52.001Z</time></trkpt><trkpt lat="-19.824060591549216" lon="120.73347956824425"><ele>25.0</ele><time>2026-04-24T02:38:53.001Z</time></trkpt><trkpt lat="-19.823997316574044" lon="120.73375146794109"><ele>25.5</ele><time>2026-04-24T02:38:54.001Z</time></trkpt><trkpt lat="-19.823930271838247" lon="120.734023744525"><ele>26.0</ele><time>2026-04-24T02:38:55.001Z</time></trkpt><trkpt lat="-19.82386207419149" lon="120.73429455174912"><ele>25.5</ele><time>2026-04-24T02:38:56.001Z</time></trkpt><trkpt lat="-19.823793090111817" lon="120.73456232041775"><ele>25.0</ele><time>2026-04-24T02:38:57.001Z</time></trkpt><trkpt lat="-19.82372989982389" lon="120.73482966373696"><ele>25.0</ele><time>2026-04-24T02:38:58.001Z</time></trkpt><trkpt lat="-19.82366997733575" lon="120.73509183187237"><ele>25.0</ele><time>2026-04-24T02:38:59.001Z</time></trkpt><trkpt lat="-19.8236099242855" lon="120.73535204064662"><ele>26.0</ele><time>2026-04-24T02:39:00.001Z</time></trkpt><trkpt lat="-19.823550176002584" lon="120.73560618367537"><ele>27.0</ele><time>2026-04-24T02:39:01.001Z</time></trkpt><trkpt lat="-19.823487985346" lon="120.73585926485228"><ele>27.0</ele><time>2026-04-24T02:39:02.001Z</time></trkpt><trkpt lat="-19.823426044818703" lon="120.73610974324558"><ele>27.0</ele><time>2026-04-24T02:39:03.001Z</time></trkpt><trkpt lat="-19.82336398326786" lon="120.73636022244256"><ele>27.0</ele><time>2026-04-24T02:39:04.001Z</time></trkpt><trkpt lat="-19.823303221790493" lon="120.7366123119091"><ele>27.0</ele><time>2026-04-24T02:39:05.001Z</time></trkpt><trkpt lat="-19.823242130692247" lon="120.73686963250425"><ele>27.0</ele><time>2026-04-24T02:39:06.001Z</time></trkpt><trkpt lat="-19.82318242111121" lon="120.73713058904616"><ele>27.0</ele><time>2026-04-24T02:39:07.001Z</time></trkpt><trkpt lat="-19.82312101071293" lon="120.73740137093618"><ele>27.0</ele><time>2026-04-24T02:39:08.001Z</time></trkpt><trkpt lat="-19.823061877438608" lon="120.7376746050239"><ele>27.0</ele><time>2026-04-24T02:39:09.001Z</time></trkpt><trkpt lat="-19.82301278202822" lon="120.7379550886893"><ele>27.5</ele><time>2026-04-24T02:39:10.001Z</time></trkpt><trkpt lat="-19.822974613523723" lon="120.7382350136994"><ele>28.0</ele><time>2026-04-24T02:39:11.001Z</time></trkpt><trkpt lat="-19.822945714300058" lon="120.73850202879926"><ele>28.5</ele><time>2026-04-24T02:39:12.002Z</time></trkpt><trkpt lat="-19.822926211673806" lon="120.73875577949762"><ele>29.0</ele><time>2026-04-24T02:39:13.002Z</time></trkpt><trkpt lat="-19.822912856028335" lon="120.73901684891146"><ele>29.0</ele><time>2026-04-24T02:39:14.002Z</time></trkpt><trkpt lat="-19.82290269862526" lon="120.73928728516431"><ele>29.0</ele><time>2026-04-24T02:39:15.002Z</time></trkpt><trkpt lat="-19.82289747198147" lon="120.73955902095541"><ele>29.0</ele><time>2026-04-24T02:39:16.002Z</time></trkpt><trkpt lat="-19.822897927144098" lon="120.7398332405795"><ele>29.0</ele><time>2026-04-24T02:39:17.001Z</time></trkpt><trkpt lat="-19.822902467684216" lon="120.7401072287728"><ele>29.0</ele><time>2026-04-24T02:39:18.001Z</time></trkpt><trkpt lat="-19.82291277628562" lon="120.74038365046866"><ele>29.0</ele><time>2026-04-24T02:39:19.001Z</time></trkpt><trkpt lat="-19.82293041794749" lon="120.74066143285107"><ele>29.0</ele><time>2026-04-24T02:39:20.001Z</time></trkpt><trkpt lat="-19.822953304103375" lon="120.7409389488593"><ele>29.0</ele><time>2026-04-24T02:39:21.001Z</time></trkpt><trkpt lat="-19.82298546862649" lon="120.74121346091421"><ele>29.5</ele><time>2026-04-24T02:39:22.001Z</time></trkpt><trkpt lat="-19.82302572047555" lon="120.74148302206204"><ele>30.0</ele><time>2026-04-24T02:39:23.001Z</time></trkpt><trkpt lat="-19.823071583868632" lon="120.74175724859894"><ele>30.0</ele><time>2026-04-24T02:39:24.001Z</time></trkpt><trkpt lat="-19.82312091328967" lon="120.74203366523852"><ele>30.0</ele><time>2026-04-24T02:39:25.001Z</time></trkpt><trkpt lat="-19.823167675254755" lon="120.74231472808009"><ele>30.0</ele><time>2026-04-24T02:39:26.001Z</time></trkpt><trkpt lat="-19.823214109065955" lon="120.74259704504598"><ele>30.0</ele><time>2026-04-24T02:39:27.001Z</time></trkpt><trkpt lat="-19.823257855083025" lon="120.74287774031333"><ele>30.5</ele><time>2026-04-24T02:39:28.001Z</time></trkpt><trkpt lat="-19.823301772050733" lon="120.7431589137893"><ele>31.0</ele><time>2026-04-24T02:39:29.001Z</time></trkpt><trkpt lat="-19.823347827941156" lon="120.74344064094687"><ele>30.0</ele><time>2026-04-24T02:39:30.001Z</time></trkpt><trkpt lat="-19.823393390681538" lon="120.74372316138978"><ele>29.0</ele><time>2026-04-24T02:39:31.001Z</time></trkpt><trkpt lat="-19.82344023705377" lon="120.74400363718367"><ele>30.0</ele><time>2026-04-24T02:39:32.001Z</time></trkpt><trkpt lat="-19.823485656389547" lon="120.74428574767181"><ele>31.0</ele><time>2026-04-24T02:39:33.001Z</time></trkpt><trkpt lat="-19.823529794511128" lon="120.7445695527272"><ele>31.0</ele><time>2026-04-24T02:39:34.001Z</time></trkpt><trkpt lat="-19.823573288658427" lon="120.74485367101083"><ele>31.0</ele><time>2026-04-24T02:39:35.001Z</time></trkpt><trkpt lat="-19.823619601177928" lon="120.74513760184543"><ele>30.5</ele><time>2026-04-24T02:39:36.001Z</time></trkpt><trkpt lat="-19.823666877855906" lon="120.74542298474272"><ele>30.0</ele><time>2026-04-24T02:39:37.001Z</time></trkpt><trkpt lat="-19.823714420635767" lon="120.74571105880644"><ele>30.0</ele><time>2026-04-24T02:39:38.001Z</time></trkpt><trkpt lat="-19.823759653690264" lon="120.74600124975319"><ele>30.0</ele><time>2026-04-24T02:39:39.001Z</time></trkpt><trkpt lat="-19.82380634879409" lon="120.74629166754913"><ele>30.5</ele><time>2026-04-24T02:39:40.001Z</time></trkpt><trkpt lat="-19.823854585866727" lon="120.74658546137906"><ele>31.0</ele><time>2026-04-24T02:39:41.001Z</time></trkpt><trkpt lat="-19.82390070312487" lon="120.74687912638778"><ele>32.0</ele><time>2026-04-24T02:39:42.001Z</time></trkpt><trkpt lat="-19.823947786491413" lon="120.74717661941573"><ele>33.0</ele><time>2026-04-24T02:39:43.001Z</time></trkpt><trkpt lat="-19.823994789849852" lon="120.7474726368384"><ele>32.5</ele><time>2026-04-24T02:39:44.001Z</time></trkpt><trkpt lat="-19.82404152575734" lon="120.74777012673171"><ele>32.0</ele><time>2026-04-24T02:39:45.001Z</time></trkpt><trkpt lat="-19.824089681072905" lon="120.7480683098824"><ele>32.0</ele><time>2026-04-24T02:39:46.001Z</time></trkpt><trkpt lat="-19.824133511825973" lon="120.7483653218205"><ele>32.0</ele><time>2026-04-24T02:39:47.001Z</time></trkpt><trkpt lat="-19.824178465311746" lon="120.748659720963"><ele>32.5</ele><time>2026-04-24T02:39:48.001Z</time></trkpt><trkpt lat="-19.82422589448325" lon="120.74895330341899"><ele>33.0</ele><time>2026-04-24T02:39:49.001Z</time></trkpt><trkpt lat="-19.82427471217444" lon="120.74924698859402"><ele>32.5</ele><time>2026-04-24T02:39:50.001Z</time></trkpt><trkpt lat="-19.824323543906377" lon="120.74953762197042"><ele>32.0</ele><time>2026-04-24T02:39:51.001Z</time></trkpt><trkpt lat="-19.82436875761265" lon="120.74982902838083"><ele>32.0</ele><time>2026-04-24T02:39:52.001Z</time></trkpt><trkpt lat="-19.82441204835503" lon="120.75011257231631"><ele>32.0</ele><time>2026-04-24T02:39:53.001Z</time></trkpt><trkpt lat="-19.824454182001332" lon="120.75039399900123"><ele>32.0</ele><time>2026-04-24T02:39:54.001Z</time></trkpt><trkpt lat="-19.824498966392223" lon="120.75067303566082"><ele>32.0</ele><time>2026-04-24T02:39:55.001Z</time></trkpt><trkpt lat="-19.824545031017276" lon="120.7509477516014"><ele>31.5</ele><time>2026-04-24T02:39:56.001Z</time></trkpt><trkpt lat="-19.82458862230536" lon="120.75122391720278"><ele>31.0</ele><time>2026-04-24T02:39:57.001Z</time></trkpt><trkpt lat="-19.824635448359846" lon="120.75149700263967"><ele>31.0</ele><time>2026-04-24T02:39:58.001Z</time></trkpt><trkpt lat="-19.824679658428558" lon="120.75177744531122"><ele>31.0</ele><time>2026-04-24T02:39:59.001Z</time></trkpt><trkpt lat="-19.824722605083835" lon="120.75205339652898"><ele>31.5</ele><time>2026-04-24T02:40:00.001Z</time></trkpt><trkpt lat="-19.824767322844966" lon="120.75233192887438"><ele>32.0</ele><time>2026-04-24T02:40:01.001Z</time></trkpt><trkpt lat="-19.82481355520066" lon="120.75260923162337"><ele>33.0</ele><time>2026-04-24T02:40:02.001Z</time></trkpt><trkpt lat="-19.824857893430675" lon="120.75289105899812"><ele>34.0</ele><time>2026-04-24T02:40:03.001Z</time></trkpt><trkpt lat="-19.824902684948448" lon="120.75317286206048"><ele>34.0</ele><time>2026-04-24T02:40:04.001Z</time></trkpt><trkpt lat="-19.824949467010637" lon="120.75345690233782"><ele>34.0</ele><time>2026-04-24T02:40:05.001Z</time></trkpt><trkpt lat="-19.82499563247521" lon="120.75374441304399"><ele>34.5</ele><time>2026-04-24T02:40:06.001Z</time></trkpt><trkpt lat="-19.82504105530342" lon="120.75403165076409"><ele>35.0</ele><time>2026-04-24T02:40:07.001Z</time></trkpt><trkpt lat="-19.82508645190921" lon="120.75431718951678"><ele>34.5</ele><time>2026-04-24T02:40:08.001Z</time></trkpt><trkpt lat="-19.82513254755942" lon="120.7546056201423"><ele>34.0</ele><time>2026-04-24T02:40:09.001Z</time></trkpt><trkpt lat="-19.8251786368402" lon="120.75489352640723"><ele>33.5</ele><time>2026-04-24T02:40:10.001Z</time></trkpt><trkpt lat="-19.825226418354674" lon="120.75518329346976"><ele>33.0</ele><time>2026-04-24T02:40:11.001Z</time></trkpt><trkpt lat="-19.82527471610134" lon="120.75547843787353"><ele>33.0</ele><time>2026-04-24T02:40:12.001Z</time></trkpt><trkpt lat="-19.82532335727582" lon="120.75577502956372"><ele>33.0</ele><time>2026-04-24T02:40:13.001Z</time></trkpt><trkpt lat="-19.825371045168808" lon="120.7560814117026"><ele>33.0</ele><time>2026-04-24T02:40:14.001Z</time></trkpt><trkpt lat="-19.82541669836088" lon="120.75638950490155"><ele>33.0</ele><time>2026-04-24T02:40:15.001Z</time></trkpt><trkpt lat="-19.825464175352455" lon="120.7566953284971"><ele>33.5</ele><time>2026-04-24T02:40:16.001Z</time></trkpt><trkpt lat="-19.825512898503366" lon="120.75700045436515"><ele>34.0</ele><time>2026-04-24T02:40:17.001Z</time></trkpt><trkpt lat="-19.82555955408732" lon="120.75730451564412"><ele>34.0</ele><time>2026-04-24T02:40:18.001Z</time></trkpt><trkpt lat="-19.825604726544224" lon="120.75760539949326"><ele>34.0</ele><time>2026-04-24T02:40:19.001Z</time></trkpt><trkpt lat="-19.825650751539474" lon="120.75790456193076"><ele>35.0</ele><time>2026-04-24T02:40:20.001Z</time></trkpt><trkpt lat="-19.82569907248782" lon="120.7581996808365"><ele>36.0</ele><time>2026-04-24T02:40:21.001Z</time></trkpt><trkpt lat="-19.825748011459748" lon="120.75849400040528"><ele>35.5</ele><time>2026-04-24T02:40:22.001Z</time></trkpt><trkpt lat="-19.82579611912326" lon="120.75878982581801"><ele>35.0</ele><time>2026-04-24T02:40:23.001Z</time></trkpt><trkpt lat="-19.825844697731377" lon="120.75908344050329"><ele>35.0</ele><time>2026-04-24T02:40:24.001Z</time></trkpt><trkpt lat="-19.825893239580434" lon="120.75938113820834"><ele>35.0</ele><time>2026-04-24T02:40:25.001Z</time></trkpt><trkpt lat="-19.82594362537673" lon="120.7596777650433"><ele>35.5</ele><time>2026-04-24T02:40:26.001Z</time></trkpt><trkpt lat="-19.825994274927513" lon="120.7599736183874"><ele>36.0</ele><time>2026-04-24T02:40:27.001Z</time></trkpt><trkpt lat="-19.826042458860012" lon="120.76026820290632"><ele>36.5</ele><time>2026-04-24T02:40:28.001Z</time></trkpt><trkpt lat="-19.826089210935095" lon="120.76056426152059"><ele>37.0</ele><time>2026-04-24T02:40:29.001Z</time></trkpt><trkpt lat="-19.826135227707876" lon="120.7608599371618"><ele>37.5</ele><time>2026-04-24T02:40:30.001Z</time></trkpt><trkpt lat="-19.826181021753918" lon="120.76115820843341"><ele>38.0</ele><time>2026-04-24T02:40:31.001Z</time></trkpt><trkpt lat="-19.826225145991703" lon="120.76145549834789"><ele>38.0</ele><time>2026-04-24T02:40:32.001Z</time></trkpt><trkpt lat="-19.826267893912984" lon="120.76175156612665"><ele>38.0</ele><time>2026-04-24T02:40:33.001Z</time></trkpt><trkpt lat="-19.826312209434903" lon="120.76204819577706"><ele>37.0</ele><time>2026-04-24T02:40:34.001Z</time></trkpt><trkpt lat="-19.826358281714235" lon="120.76234404683629"><ele>36.0</ele><time>2026-04-24T02:40:35.001Z</time></trkpt><trkpt lat="-19.826406211583638" lon="120.76264141626059"><ele>36.0</ele><time>2026-04-24T02:40:36.001Z</time></trkpt><trkpt lat="-19.82645338916247" lon="120.76293607253677"><ele>36.0</ele><time>2026-04-24T02:40:37.001Z</time></trkpt><trkpt lat="-19.8265010569004" lon="120.76322957109477"><ele>36.0</ele><time>2026-04-24T02:40:38.001Z</time></trkpt><trkpt lat="-19.826548824805005" lon="120.76352326646347"><ele>36.0</ele><time>2026-04-24T02:40:39.001Z</time></trkpt><trkpt lat="-19.82659778457864" lon="120.76381439255941"><ele>36.0</ele><time>2026-04-24T02:40:40.001Z</time></trkpt><trkpt lat="-19.826644711017476" lon="120.7641072013032"><ele>36.0</ele><time>2026-04-24T02:40:41.001Z</time></trkpt><trkpt lat="-19.82669026144811" lon="120.76439947324911"><ele>37.0</ele><time>2026-04-24T02:40:42.001Z</time></trkpt><trkpt lat="-19.82673450272196" lon="120.7646923020177"><ele>38.0</ele><time>2026-04-24T02:40:43.001Z</time></trkpt><trkpt lat="-19.826779926031723" lon="120.76498183979535"><ele>38.0</ele><time>2026-04-24T02:40:44.001Z</time></trkpt><trkpt lat="-19.826827110799357" lon="120.7652740428919"><ele>38.0</ele><time>2026-04-24T02:40:45.001Z</time></trkpt><trkpt lat="-19.82687518556954" lon="120.76556647492754"><ele>38.0</ele><time>2026-04-24T02:40:46.001Z</time></trkpt><trkpt lat="-19.82692438149781" lon="120.7658588700872"><ele>38.0</ele><time>2026-04-24T02:40:47.001Z</time></trkpt><trkpt lat="-19.82697402891228" lon="120.76615454768844"><ele>37.5</ele><time>2026-04-24T02:40:48.001Z</time></trkpt><trkpt lat="-19.827023742265354" lon="120.76645221199948"><ele>37.0</ele><time>2026-04-24T02:40:49.001Z</time></trkpt><trkpt lat="-19.827069618169148" lon="120.76675292453712"><ele>37.0</ele><time>2026-04-24T02:40:50.001Z</time></trkpt><trkpt lat="-19.82711441908045" lon="120.76705157397448"><ele>37.0</ele><time>2026-04-24T02:40:51.001Z</time></trkpt><trkpt lat="-19.827160561188016" lon="120.76734896813562"><ele>37.0</ele><time>2026-04-24T02:40:52.001Z</time></trkpt><trkpt lat="-19.8272065865039" lon="120.7676484198185"><ele>37.0</ele><time>2026-04-24T02:40:53.001Z</time></trkpt><trkpt lat="-19.82725525422705" lon="120.76794469028897"><ele>37.0</ele><time>2026-04-24T02:40:54.001Z</time></trkpt><trkpt lat="-19.827302254499468" lon="120.76824289335678"><ele>37.0</ele><time>2026-04-24T02:40:55.001Z</time></trkpt><trkpt lat="-19.827352023863792" lon="120.76854108158588"><ele>37.0</ele><time>2026-04-24T02:40:56.001Z</time></trkpt><trkpt lat="-19.827401553226544" lon="120.7688380575488"><ele>37.0</ele><time>2026-04-24T02:40:57.001Z</time></trkpt><trkpt lat="-19.827449672664834" lon="120.7691370520903"><ele>37.0</ele><time>2026-04-24T02:40:58.001Z</time></trkpt><trkpt lat="-19.827497675888868" lon="120.76943619640076"><ele>37.0</ele><time>2026-04-24T02:40:59.001Z</time></trkpt><trkpt lat="-19.82754475109843" lon="120.76973450218313"><ele>37.0</ele><time>2026-04-24T02:41:00.001Z</time></trkpt><trkpt lat="-19.82759058209913" lon="120.77003177321787"><ele>37.0</ele><time>2026-04-24T02:41:01.001Z</time></trkpt><trkpt lat="-19.827638560432483" lon="120.77032609599017"><ele>38.5</ele><time>2026-04-24T02:41:02.001Z</time></trkpt><trkpt lat="-19.82768564504208" lon="120.77061940670552"><ele>40.0</ele><time>2026-04-24T02:41:03.001Z</time></trkpt><trkpt lat="-19.827731725255408" lon="120.77091097229781"><ele>40.5</ele><time>2026-04-24T02:41:04.001Z</time></trkpt><trkpt lat="-19.827775888836904" lon="120.77120387753462"><ele>41.0</ele><time>2026-04-24T02:41:05.001Z</time></trkpt><trkpt lat="-19.82782123427635" lon="120.77149778856099"><ele>41.0</ele><time>2026-04-24T02:41:06.001Z</time></trkpt><trkpt lat="-19.827868637634122" lon="120.77179106355173"><ele>41.0</ele><time>2026-04-24T02:41:07.001Z</time></trkpt><trkpt lat="-19.827916255139286" lon="120.77208319260507"><ele>40.5</ele><time>2026-04-24T02:41:08.002Z</time></trkpt><trkpt lat="-19.827965171324575" lon="120.77237190362152"><ele>40.0</ele><time>2026-04-24T02:41:09.002Z</time></trkpt><trkpt lat="-19.828010467017318" lon="120.77265915429462"><ele>39.5</ele><time>2026-04-24T02:41:10.002Z</time></trkpt><trkpt lat="-19.8280547236294" lon="120.7729490579804"><ele>39.0</ele><time>2026-04-24T02:41:11.002Z</time></trkpt><trkpt lat="-19.828099341395692" lon="120.7732366875018"><ele>40.0</ele><time>2026-04-24T02:41:12.002Z</time></trkpt><trkpt lat="-19.828143942819224" lon="120.77352302546778"><ele>41.0</ele><time>2026-04-24T02:41:13.002Z</time></trkpt><trkpt lat="-19.828189018107896" lon="120.77381103424429"><ele>41.0</ele><time>2026-04-24T02:41:14.002Z</time></trkpt><trkpt lat="-19.82823483030078" lon="120.77409978398683"><ele>41.0</ele><time>2026-04-24T02:41:15.002Z</time></trkpt><trkpt lat="-19.828282434629795" lon="120.77438380001888"><ele>42.0</ele><time>2026-04-24T02:41:16.002Z</time></trkpt><trkpt lat="-19.8283323054167" lon="120.77467229415892"><ele>43.0</ele><time>2026-04-24T02:41:17.002Z</time></trkpt><trkpt lat="-19.82837835947398" lon="120.77496228813227"><ele>42.5</ele><time>2026-04-24T02:41:18.002Z</time></trkpt><trkpt lat="-19.828422736260027" lon="120.77525167119538"><ele>42.0</ele><time>2026-04-24T02:41:19.002Z</time></trkpt><trkpt lat="-19.828469497099096" lon="120.77553936267637"><ele>42.0</ele><time>2026-04-24T02:41:20.002Z</time></trkpt><trkpt lat="-19.82851626540428" lon="120.77582421019098"><ele>42.0</ele><time>2026-04-24T02:41:21.002Z</time></trkpt><trkpt lat="-19.82856131218538" lon="120.77611205876954"><ele>42.0</ele><time>2026-04-24T02:41:22.002Z</time></trkpt><trkpt lat="-19.828606827588768" lon="120.77640044077835"><ele>42.0</ele><time>2026-04-24T02:41:23.001Z</time></trkpt><trkpt lat="-19.8286541664399" lon="120.77669249463752"><ele>42.0</ele><time>2026-04-24T02:41:24.001Z</time></trkpt><trkpt lat="-19.828701791771575" lon="120.77698650569006"><ele>42.0</ele><time>2026-04-24T02:41:25.001Z</time></trkpt><trkpt lat="-19.828748463509445" lon="120.77728110730892"><ele>42.0</ele><time>2026-04-24T02:41:26.001Z</time></trkpt><trkpt lat="-19.828793188239057" lon="120.77757843946712"><ele>42.0</ele><time>2026-04-24T02:41:27.001Z</time></trkpt><trkpt lat="-19.828836946518578" lon="120.77787624630368"><ele>42.0</ele><time>2026-04-24T02:41:28.001Z</time></trkpt><trkpt lat="-19.82888462576874" lon="120.77817295137626"><ele>42.0</ele><time>2026-04-24T02:41:29.001Z</time></trkpt><trkpt lat="-19.828931345757088" lon="120.77846936116188"><ele>42.5</ele><time>2026-04-24T02:41:30.001Z</time></trkpt><trkpt lat="-19.828977375662788" lon="120.77876391339517"><ele>43.0</ele><time>2026-04-24T02:41:31.001Z</time></trkpt><trkpt lat="-19.829023597701067" lon="120.77905522661803"><ele>43.0</ele><time>2026-04-24T02:41:32.001Z</time></trkpt><trkpt lat="-19.829070175094724" lon="120.77934676065446"><ele>43.0</ele><time>2026-04-24T02:41:33.001Z</time></trkpt><trkpt lat="-19.829115984168958" lon="120.7796397791339"><ele>43.0</ele><time>2026-04-24T02:41:34.001Z</time></trkpt><trkpt lat="-19.829161723417187" lon="120.77993568960261"><ele>43.0</ele><time>2026-04-24T02:41:35.001Z</time></trkpt><trkpt lat="-19.829204424535607" lon="120.78023211450818"><ele>43.0</ele><time>2026-04-24T02:41:36.001Z</time></trkpt><trkpt lat="-19.82924469069753" lon="120.78053256883044"><ele>43.0</ele><time>2026-04-24T02:41:37.001Z</time></trkpt><trkpt lat="-19.829280337461515" lon="120.78082615699043"><ele>43.5</ele><time>2026-04-24T02:41:38.001Z</time></trkpt><trkpt lat="-19.829306195614027" lon="120.78110201577698"><ele>44.0</ele><time>2026-04-24T02:41:39.001Z</time></trkpt><trkpt lat="-19.829325889853557" lon="120.7813828981012"><ele>44.0</ele><time>2026-04-24T02:41:40.001Z</time></trkpt><trkpt lat="-19.829344150267946" lon="120.78167455894037"><ele>44.0</ele><time>2026-04-24T02:41:41.001Z</time></trkpt><trkpt lat="-19.82935911942804" lon="120.78196766128247"><ele>44.5</ele><time>2026-04-24T02:41:42.001Z</time></trkpt><trkpt lat="-19.829369969731435" lon="120.78226117126616"><ele>45.0</ele><time>2026-04-24T02:41:43.001Z</time></trkpt><trkpt lat="-19.829376115692966" lon="120.78255621834562"><ele>45.5</ele><time>2026-04-24T02:41:44.001Z</time></trkpt><trkpt lat="-19.829377235876542" lon="120.78285613033717"><ele>46.0</ele><time>2026-04-24T02:41:45.001Z</time></trkpt><trkpt lat="-19.82937356654518" lon="120.78315870576576"><ele>46.0</ele><time>2026-04-24T02:41:46.001Z</time></trkpt><trkpt lat="-19.82936456089933" lon="120.78346190946826"><ele>46.0</ele><time>2026-04-24T02:41:47.001Z</time></trkpt><trkpt lat="-19.829350882160345" lon="120.78376840691718"><ele>45.0</ele><time>2026-04-24T02:41:48.001Z</time></trkpt><trkpt lat="-19.829330728124656" lon="120.78407126171862"><ele>44.0</ele><time>2026-04-24T02:41:49.001Z</time></trkpt><trkpt lat="-19.82930274981611" lon="120.78437085543702"><ele>43.5</ele><time>2026-04-24T02:41:50.001Z</time></trkpt><trkpt lat="-19.82926906776717" lon="120.78466909051659"><ele>43.0</ele><time>2026-04-24T02:41:51.001Z</time></trkpt><trkpt lat="-19.82923285712228" lon="120.7849655987704"><ele>43.5</ele><time>2026-04-24T02:41:52.001Z</time></trkpt><trkpt lat="-19.829194006831564" lon="120.7852612548345"><ele>44.0</ele><time>2026-04-24T02:41:53.001Z</time></trkpt><trkpt lat="-19.82915447068726" lon="120.78555965196894"><ele>44.0</ele><time>2026-04-24T02:41:54.001Z</time></trkpt><trkpt lat="-19.829115987601465" lon="120.78586324459394"><ele>44.0</ele><time>2026-04-24T02:41:55.001Z</time></trkpt><trkpt lat="-19.829080532285918" lon="120.78616630383829"><ele>45.0</ele><time>2026-04-24T02:41:56.001Z</time></trkpt><trkpt lat="-19.829043272048104" lon="120.78646674114653"><ele>46.0</ele><time>2026-04-24T02:41:57.001Z</time></trkpt><trkpt lat="-19.829002191203514" lon="120.786769336527"><ele>45.5</ele><time>2026-04-24T02:41:58.001Z</time></trkpt><trkpt lat="-19.828960570978662" lon="120.78707312292067"><ele>45.0</ele><time>2026-04-24T02:41:59.001Z</time></trkpt><trkpt lat="-19.828921797186375" lon="120.78737918877502"><ele>45.5</ele><time>2026-04-24T02:42:00.001Z</time></trkpt><trkpt lat="-19.828885197713863" lon="120.78768446280762"><ele>46.0</ele><time>2026-04-24T02:42:01.001Z</time></trkpt><trkpt lat="-19.828849163599582" lon="120.78799210046515"><ele>46.0</ele><time>2026-04-24T02:42:02.001Z</time></trkpt><trkpt lat="-19.82881318896376" lon="120.7882995579684"><ele>46.0</ele><time>2026-04-24T02:42:03.001Z</time></trkpt><trkpt lat="-19.82877331604671" lon="120.78860810763871"><ele>45.5</ele><time>2026-04-24T02:42:04.001Z</time></trkpt><trkpt lat="-19.82873445657159" lon="120.78891565383559"><ele>45.0</ele><time>2026-04-24T02:42:05.001Z</time></trkpt><trkpt lat="-19.82869625831617" lon="120.78922252494708"><ele>46.0</ele><time>2026-04-24T02:42:06.001Z</time></trkpt><trkpt lat="-19.82865737934677" lon="120.78952696599242"><ele>47.0</ele><time>2026-04-24T02:42:07.001Z</time></trkpt><trkpt lat="-19.82861743374648" lon="120.78983290714734"><ele>47.0</ele><time>2026-04-24T02:42:08.001Z</time></trkpt><trkpt lat="-19.828578099029336" lon="120.79013567927426"><ele>47.0</ele><time>2026-04-24T02:42:09.001Z</time></trkpt><trkpt lat="-19.82853971908058" lon="120.7904366034378"><ele>47.0</ele><time>2026-04-24T02:42:10.001Z</time></trkpt><trkpt lat="-19.828503174085803" lon="120.79073813188494"><ele>47.0</ele><time>2026-04-24T02:42:11.001Z</time></trkpt><trkpt lat="-19.82846524284845" lon="120.79103911413708"><ele>47.5</ele><time>2026-04-24T02:42:12.001Z</time></trkpt><trkpt lat="-19.8284282132702" lon="120.79133398323177"><ele>48.0</ele><time>2026-04-24T02:42:13.001Z</time></trkpt><trkpt lat="-19.828391722274027" lon="120.79163275330525"><ele>47.0</ele><time>2026-04-24T02:42:14.001Z</time></trkpt><trkpt lat="-19.828353874506757" lon="120.79193256829043"><ele>46.0</ele><time>2026-04-24T02:42:15.001Z</time></trkpt><trkpt lat="-19.828316686450595" lon="120.79223402520452"><ele>46.0</ele><time>2026-04-24T02:42:16.001Z</time></trkpt><trkpt lat="-19.828278597136094" lon="120.79253468300166"><ele>46.0</ele><time>2026-04-24T02:42:17.001Z</time></trkpt><trkpt lat="-19.82824023265325" lon="120.79283648333863"><ele>45.5</ele><time>2026-04-24T02:42:18.001Z</time></trkpt><trkpt lat="-19.82820297700303" lon="120.79314087382416"><ele>45.0</ele><time>2026-04-24T02:42:19.001Z</time></trkpt><trkpt lat="-19.828167006732215" lon="120.79344455307431"><ele>45.5</ele><time>2026-04-24T02:42:20.001Z</time></trkpt><trkpt lat="-19.828133665975034" lon="120.79374650974462"><ele>46.0</ele><time>2026-04-24T02:42:21.001Z</time></trkpt><trkpt lat="-19.8280986247682" lon="120.79404839526121"><ele>45.5</ele><time>2026-04-24T02:42:22.001Z</time></trkpt><trkpt lat="-19.82806226318062" lon="120.79434878388778"><ele>45.0</ele><time>2026-04-24T02:42:23.001Z</time></trkpt><trkpt lat="-19.828024505976025" lon="120.79464952391723"><ele>45.0</ele><time>2026-04-24T02:42:24.001Z</time></trkpt><trkpt lat="-19.827986250884717" lon="120.79494976757834"><ele>45.0</ele><time>2026-04-24T02:42:25.001Z</time></trkpt><trkpt lat="-19.827948722834037" lon="120.7952481662188"><ele>44.0</ele><time>2026-04-24T02:42:26.001Z</time></trkpt><trkpt lat="-19.82791182970027" lon="120.79554613562632"><ele>43.0</ele><time>2026-04-24T02:42:27.001Z</time></trkpt><trkpt lat="-19.82787504048145" lon="120.79584260519573"><ele>43.5</ele><time>2026-04-24T02:42:28.001Z</time></trkpt><trkpt lat="-19.827837197916672" lon="120.79614117566895"><ele>44.0</ele><time>2026-04-24T02:42:29.001Z</time></trkpt><trkpt lat="-19.827800100385037" lon="120.79643631780786"><ele>44.0</ele><time>2026-04-24T02:42:30.001Z</time></trkpt><trkpt lat="-19.827764784521044" lon="120.79673160093026"><ele>44.0</ele><time>2026-04-24T02:42:31.001Z</time></trkpt><trkpt lat="-19.82772801732498" lon="120.79702765465031"><ele>44.0</ele><time>2026-04-24T02:42:32.001Z</time></trkpt><trkpt lat="-19.827691075002807" lon="120.79732296991523"><ele>44.0</ele><time>2026-04-24T02:42:33.001Z</time></trkpt><trkpt lat="-19.827654207070495" lon="120.79761885956087"><ele>42.0</ele><time>2026-04-24T02:42:34.001Z</time></trkpt><trkpt lat="-19.82761548348951" lon="120.7979165370064"><ele>40.0</ele><time>2026-04-24T02:42:35.001Z</time></trkpt><trkpt lat="-19.82757659837447" lon="120.79820983542697"><ele>40.0</ele><time>2026-04-24T02:42:36.001Z</time></trkpt><trkpt lat="-19.827539905699926" lon="120.79850872474167"><ele>40.0</ele><time>2026-04-24T02:42:37.001Z</time></trkpt><trkpt lat="-19.82750467680063" lon="120.7988082456643"><ele>40.0</ele><time>2026-04-24T02:42:38.001Z</time></trkpt><trkpt lat="-19.827467451154824" lon="120.79910643495117"><ele>40.0</ele><time>2026-04-24T02:42:39.001Z</time></trkpt><trkpt lat="-19.827429897611182" lon="120.79940523886162"><ele>41.5</ele><time>2026-04-24T02:42:40.001Z</time></trkpt><trkpt lat="-19.827392506804067" lon="120.79970561792396"><ele>43.0</ele><time>2026-04-24T02:42:41.001Z</time></trkpt><trkpt lat="-19.827354266877762" lon="120.80000493309878"><ele>42.0</ele><time>2026-04-24T02:42:42.001Z</time></trkpt><trkpt lat="-19.827314891218403" lon="120.80030548764127"><ele>41.0</ele><time>2026-04-24T02:42:43.001Z</time></trkpt><trkpt lat="-19.827275902275137" lon="120.80060964222423"><ele>41.0</ele><time>2026-04-24T02:42:44.001Z</time></trkpt><trkpt lat="-19.827239311070414" lon="120.8009142483686"><ele>41.0</ele><time>2026-04-24T02:42:45.001Z</time></trkpt><trkpt lat="-19.82720402088323" lon="120.80121524945896"><ele>39.0</ele><time>2026-04-24T02:42:46.001Z</time></trkpt><trkpt lat="-19.82716567552233" lon="120.80152174312563"><ele>37.0</ele><time>2026-04-24T02:42:47.001Z</time></trkpt><trkpt lat="-19.827126535184757" lon="120.80182696922779"><ele>38.5</ele><time>2026-04-24T02:42:48.001Z</time></trkpt><trkpt lat="-19.82708579106149" lon="120.80213537135407"><ele>40.0</ele><time>2026-04-24T02:42:49.001Z</time></trkpt><trkpt lat="-19.827047173870334" lon="120.8024419451019"><ele>39.0</ele><time>2026-04-24T02:42:50.001Z</time></trkpt><trkpt lat="-19.827010676973664" lon="120.80274797326811"><ele>38.0</ele><time>2026-04-24T02:42:51.001Z</time></trkpt><trkpt lat="-19.82697312126701" lon="120.80305289699986"><ele>38.0</ele><time>2026-04-24T02:42:52.001Z</time></trkpt><trkpt lat="-19.826934824755217" lon="120.80335492932895"><ele>38.0</ele><time>2026-04-24T02:42:53.001Z</time></trkpt><trkpt lat="-19.826897814447072" lon="120.80365622099511"><ele>37.5</ele><time>2026-04-24T02:42:54.001Z</time></trkpt><trkpt lat="-19.826861788976924" lon="120.80395670066717"><ele>37.0</ele><time>2026-04-24T02:42:55.001Z</time></trkpt><trkpt lat="-19.826827189192628" lon="120.80425538074091"><ele>36.0</ele><time>2026-04-24T02:42:56.001Z</time></trkpt><trkpt lat="-19.826791059988885" lon="120.80455593547381"><ele>35.0</ele><time>2026-04-24T02:42:57.001Z</time></trkpt><trkpt lat="-19.82675376575127" lon="120.80485626019164"><ele>35.0</ele><time>2026-04-24T02:42:58.001Z</time></trkpt><trkpt lat="-19.8267140107077" lon="120.80516172469113"><ele>35.0</ele><time>2026-04-24T02:42:59.001Z</time></trkpt><trkpt lat="-19.826673197304853" lon="120.80547096432099"><ele>35.0</ele><time>2026-04-24T02:43:00.001Z</time></trkpt><trkpt lat="-19.826636253859693" lon="120.80578330288327"><ele>35.0</ele><time>2026-04-24T02:43:01.001Z</time></trkpt><trkpt lat="-19.826597817351125" lon="120.80609465762815"><ele>36.0</ele><time>2026-04-24T02:43:02.001Z</time></trkpt><trkpt lat="-19.82655786575887" lon="120.80640358839027"><ele>37.0</ele><time>2026-04-24T02:43:03.001Z</time></trkpt><trkpt lat="-19.826521856069757" lon="120.8067101940818"><ele>36.0</ele><time>2026-04-24T02:43:04.001Z</time></trkpt><trkpt lat="-19.826483562747654" lon="120.80701643493666"><ele>35.0</ele><time>2026-04-24T02:43:05.001Z</time></trkpt><trkpt lat="-19.82644454875083" lon="120.80731759552107"><ele>35.0</ele><time>2026-04-24T02:43:06.001Z</time></trkpt><trkpt lat="-19.826408973474347" lon="120.80761655975384"><ele>35.0</ele><time>2026-04-24T02:43:07.001Z</time></trkpt><trkpt lat="-19.826374602131054" lon="120.80791120701743"><ele>35.0</ele><time>2026-04-24T02:43:08.001Z</time></trkpt><trkpt lat="-19.8263392441132" lon="120.80820647624776"><ele>35.0</ele><time>2026-04-24T02:43:09.001Z</time></trkpt><trkpt lat="-19.82630065641949" lon="120.80850235834956"><ele>35.0</ele><time>2026-04-24T02:43:10.001Z</time></trkpt><trkpt lat="-19.826263933941085" lon="120.80879949732184"><ele>35.0</ele><time>2026-04-24T02:43:11.001Z</time></trkpt><trkpt lat="-19.82622751593222" lon="120.8091006253793"><ele>35.0</ele><time>2026-04-24T02:43:12.001Z</time></trkpt><trkpt lat="-19.826191631333025" lon="120.80940185711196"><ele>35.0</ele><time>2026-04-24T02:43:13.001Z</time></trkpt><trkpt lat="-19.826154401513342" lon="120.80970251193672"><ele>35.0</ele><time>2026-04-24T02:43:14.001Z</time></trkpt><trkpt lat="-19.826117324886475" lon="120.81000415308795"><ele>35.0</ele><time>2026-04-24T02:43:15.001Z</time></trkpt><trkpt lat="-19.826079668774632" lon="120.8103062996236"><ele>35.5</ele><time>2026-04-24T02:43:16.001Z</time></trkpt><trkpt lat="-19.8260419222332" lon="120.81060786327836"><ele>36.0</ele><time>2026-04-24T02:43:17.001Z</time></trkpt><trkpt lat="-19.82600238427572" lon="120.81091249342455"><ele>35.0</ele><time>2026-04-24T02:43:18.001Z</time></trkpt><trkpt lat="-19.825962661532042" lon="120.81121575476165"><ele>34.0</ele><time>2026-04-24T02:43:19.001Z</time></trkpt><trkpt lat="-19.825923058835656" lon="120.81151635979906"><ele>34.0</ele><time>2026-04-24T02:43:20.001Z</time></trkpt><trkpt lat="-19.825885553839612" lon="120.81181335761609"><ele>34.0</ele><time>2026-04-24T02:43:21.001Z</time></trkpt><trkpt lat="-19.825848273959593" lon="120.81211566527602"><ele>34.0</ele><time>2026-04-24T02:43:22.001Z</time></trkpt><trkpt lat="-19.825809967453473" lon="120.81241771782945"><ele>34.0</ele><time>2026-04-24T02:43:23.002Z</time></trkpt><trkpt lat="-19.825771968511393" lon="120.81272003317049"><ele>34.0</ele><time>2026-04-24T02:43:24.002Z</time></trkpt><trkpt lat="-19.825734718592358" lon="120.81302619824562"><ele>34.0</ele><time>2026-04-24T02:43:25.002Z</time></trkpt><trkpt lat="-19.825697157332815" lon="120.81333306657487"><ele>34.5</ele><time>2026-04-24T02:43:26.002Z</time></trkpt><trkpt lat="-19.825659794314607" lon="120.8136395963148"><ele>35.0</ele><time>2026-04-24T02:43:27.002Z</time></trkpt><trkpt lat="-19.825621633933483" lon="120.81394496154788"><ele>35.0</ele><time>2026-04-24T02:43:28.002Z</time></trkpt><trkpt lat="-19.825581422617606" lon="120.81424722126935"><ele>35.0</ele><time>2026-04-24T02:43:29.001Z</time></trkpt><trkpt lat="-19.82554276753483" lon="120.81454819455266"><ele>34.5</ele><time>2026-04-24T02:43:30.001Z</time></trkpt><trkpt lat="-19.825504181294505" lon="120.81485126347576"><ele>34.0</ele><time>2026-04-24T02:43:31.001Z</time></trkpt><trkpt lat="-19.82546489983164" lon="120.81515483268221"><ele>34.0</ele><time>2026-04-24T02:43:32.001Z</time></trkpt><trkpt lat="-19.825425930590292" lon="120.81545823442084"><ele>34.0</ele><time>2026-04-24T02:43:33.001Z</time></trkpt><trkpt lat="-19.825390335044524" lon="120.81576301941818"><ele>32.0</ele><time>2026-04-24T02:43:34.001Z</time></trkpt><trkpt lat="-19.82535545716165" lon="120.81607055409908"><ele>30.0</ele><time>2026-04-24T02:43:35.001Z</time></trkpt><trkpt lat="-19.82531825958492" lon="120.81638133902413"><ele>30.0</ele><time>2026-04-24T02:43:36.001Z</time></trkpt><trkpt lat="-19.825279979472267" lon="120.81669335750793"><ele>30.0</ele><time>2026-04-24T02:43:37.001Z</time></trkpt><trkpt lat="-19.825241128112424" lon="120.81700810776405"><ele>31.5</ele><time>2026-04-24T02:43:38.001Z</time></trkpt><trkpt lat="-19.825202461661316" lon="120.81732134579121"><ele>33.0</ele><time>2026-04-24T02:43:39.001Z</time></trkpt><trkpt lat="-19.825163328069888" lon="120.817634419752"><ele>34.0</ele><time>2026-04-24T02:43:40.001Z</time></trkpt><trkpt lat="-19.82512474517468" lon="120.817947181864"><ele>35.0</ele><time>2026-04-24T02:43:41.001Z</time></trkpt><trkpt lat="-19.825084290575766" lon="120.81826256709854"><ele>34.5</ele><time>2026-04-24T02:43:42.001Z</time></trkpt><trkpt lat="-19.825044259546623" lon="120.81857854822418"><ele>34.0</ele><time>2026-04-24T02:43:43.001Z</time></trkpt><trkpt lat="-19.825007673708487" lon="120.81888948868976"><ele>34.0</ele><time>2026-04-24T02:43:44.001Z</time></trkpt><trkpt lat="-19.82497308321913" lon="120.81919678610245"><ele>34.0</ele><time>2026-04-24T02:43:45.001Z</time></trkpt><trkpt lat="-19.82493537738763" lon="120.81949985800149"><ele>34.5</ele><time>2026-04-24T02:43:46.001Z</time></trkpt><trkpt lat="-19.824894456213947" lon="120.81979714696809"><ele>35.0</ele><time>2026-04-24T02:43:47.001Z</time></trkpt><trkpt lat="-19.824854076985257" lon="120.82009141117213"><ele>34.0</ele><time>2026-04-24T02:43:48.001Z</time></trkpt><trkpt lat="-19.824817085974328" lon="120.82038644372518"><ele>33.0</ele><time>2026-04-24T02:43:49.001Z</time></trkpt><trkpt lat="-19.82478146987818" lon="120.82067700486331"><ele>33.0</ele><time>2026-04-24T02:43:50.001Z</time></trkpt><trkpt lat="-19.82474552394261" lon="120.82096967722865"><ele>33.0</ele><time>2026-04-24T02:43:51.001Z</time></trkpt><trkpt lat="-19.824708331223665" lon="120.82126565319793"><ele>33.0</ele><time>2026-04-24T02:43:52.001Z</time></trkpt><trkpt lat="-19.824671687438936" lon="120.82156204408777"><ele>33.0</ele><time>2026-04-24T02:43:53.001Z</time></trkpt><trkpt lat="-19.82463395553744" lon="120.82186137389458"><ele>33.0</ele><time>2026-04-24T02:43:54.001Z</time></trkpt><trkpt lat="-19.824592934807637" lon="120.82216372689986"><ele>33.0</ele><time>2026-04-24T02:43:55.001Z</time></trkpt><trkpt lat="-19.824553415302734" lon="120.82246832851402"><ele>31.5</ele><time>2026-04-24T02:43:56.001Z</time></trkpt><trkpt lat="-19.824514590740147" lon="120.82277043569842"><ele>30.0</ele><time>2026-04-24T02:43:57.001Z</time></trkpt><trkpt lat="-19.824476405876595" lon="120.82307392864918"><ele>30.0</ele><time>2026-04-24T02:43:58.001Z</time></trkpt><trkpt lat="-19.82443959408729" lon="120.82337710737119"><ele>30.0</ele><time>2026-04-24T02:43:59.001Z</time></trkpt><trkpt lat="-19.824403296057078" lon="120.82367605742962"><ele>29.0</ele><time>2026-04-24T02:44:00.001Z</time></trkpt><trkpt lat="-19.82436499978738" lon="120.82397521038796"><ele>28.0</ele><time>2026-04-24T02:44:01.001Z</time></trkpt><trkpt lat="-19.824327169455657" lon="120.82426999433096"><ele>30.5</ele><time>2026-04-24T02:44:02.001Z</time></trkpt><trkpt lat="-19.82428865508244" lon="120.82456607483189"><ele>33.0</ele><time>2026-04-24T02:44:03.001Z</time></trkpt><trkpt lat="-19.82425155551162" lon="120.82485901665515"><ele>32.0</ele><time>2026-04-24T02:44:04.001Z</time></trkpt><trkpt lat="-19.824219531987726" lon="120.82515347749552"><ele>31.0</ele><time>2026-04-24T02:44:05.001Z</time></trkpt><trkpt lat="-19.824188410134894" lon="120.82545189590321"><ele>31.0</ele><time>2026-04-24T02:44:06.001Z</time></trkpt><trkpt lat="-19.82415442963074" lon="120.82575030239215"><ele>31.0</ele><time>2026-04-24T02:44:07.001Z</time></trkpt><trkpt lat="-19.82411464439876" lon="120.8260487627043"><ele>30.5</ele><time>2026-04-24T02:44:08.001Z</time></trkpt><trkpt lat="-19.824074831171956" lon="120.82634998939677"><ele>30.0</ele><time>2026-04-24T02:44:09.001Z</time></trkpt><trkpt lat="-19.824039488777537" lon="120.82665107790838"><ele>30.5</ele><time>2026-04-24T02:44:10.001Z</time></trkpt><trkpt lat="-19.8240063204231" lon="120.82695258443196"><ele>31.0</ele><time>2026-04-24T02:44:11.001Z</time></trkpt><trkpt lat="-19.823970997637165" lon="120.82724493545537"><ele>31.0</ele><time>2026-04-24T02:44:12.001Z</time></trkpt><trkpt lat="-19.823935909963783" lon="120.82753989376018"><ele>31.0</ele><time>2026-04-24T02:44:13.001Z</time></trkpt><trkpt lat="-19.82389836951949" lon="120.82782788552169"><ele>30.0</ele><time>2026-04-24T02:44:14.001Z</time></trkpt><trkpt lat="-19.823858511212585" lon="120.82811440393199"><ele>29.0</ele><time>2026-04-24T02:44:15.001Z</time></trkpt><trkpt lat="-19.82382064045195" lon="120.82839906539233"><ele>29.5</ele><time>2026-04-24T02:44:16.001Z</time></trkpt><trkpt lat="-19.823783150773735" lon="120.82868094502744"><ele>30.0</ele><time>2026-04-24T02:44:17.001Z</time></trkpt><trkpt lat="-19.823746753551127" lon="120.82896079816841"><ele>30.0</ele><time>2026-04-24T02:44:18.001Z</time></trkpt><trkpt lat="-19.82371054762844" lon="120.82924230194611"><ele>30.0</ele><time>2026-04-24T02:44:19.001Z</time></trkpt><trkpt lat="-19.82367731736308" lon="120.82951923161797"><ele>31.0</ele><time>2026-04-24T02:44:20.001Z</time></trkpt><trkpt lat="-19.823643035925883" lon="120.82979636133744"><ele>32.0</ele><time>2026-04-24T02:44:21.001Z</time></trkpt><trkpt lat="-19.82360911621692" lon="120.83007794840027"><ele>31.0</ele><time>2026-04-24T02:44:22.001Z</time></trkpt><trkpt lat="-19.823574996158037" lon="120.83036482294321"><ele>30.0</ele><time>2026-04-24T02:44:23.001Z</time></trkpt><trkpt lat="-19.823540505072437" lon="120.83065420529626"><ele>30.0</ele><time>2026-04-24T02:44:24.001Z</time></trkpt><trkpt lat="-19.82350458254002" lon="120.83094202398983"><ele>30.0</ele><time>2026-04-24T02:44:25.001Z</time></trkpt><trkpt lat="-19.82346849522698" lon="120.83123140064019"><ele>31.0</ele><time>2026-04-24T02:44:26.001Z</time></trkpt><trkpt lat="-19.82343431137695" lon="120.83152201494418"><ele>32.0</ele><time>2026-04-24T02:44:27.001Z</time></trkpt><trkpt lat="-19.823399040731463" lon="120.83181741619065"><ele>32.0</ele><time>2026-04-24T02:44:28.001Z</time></trkpt><trkpt lat="-19.823360405828932" lon="120.8321145569808"><ele>32.0</ele><time>2026-04-24T02:44:29.001Z</time></trkpt><trkpt lat="-19.823322617155693" lon="120.8324125150826"><ele>32.0</ele><time>2026-04-24T02:44:30.001Z</time></trkpt><trkpt lat="-19.82328499005154" lon="120.83271034371688"><ele>32.0</ele><time>2026-04-24T02:44:31.001Z</time></trkpt><trkpt lat="-19.82324782786794" lon="120.8330064850352"><ele>32.0</ele><time>2026-04-24T02:44:32.001Z</time></trkpt><trkpt lat="-19.823211259598764" lon="120.83330248235475"><ele>32.0</ele><time>2026-04-24T02:44:33.001Z</time></trkpt><trkpt lat="-19.823174385405594" lon="120.83359765027612"><ele>32.0</ele><time>2026-04-24T02:44:34.001Z</time></trkpt><trkpt lat="-19.82313974113243" lon="120.8338958843229"><ele>32.0</ele><time>2026-04-24T02:44:35.001Z</time></trkpt><trkpt lat="-19.82310472089218" lon="120.83419224607033"><ele>32.0</ele><time>2026-04-24T02:44:36.001Z</time></trkpt><trkpt lat="-19.82306531183248" lon="120.83449306365755"><ele>32.0</ele><time>2026-04-24T02:44:37.001Z</time></trkpt><trkpt lat="-19.823028174742987" lon="120.83478575177512"><ele>32.0</ele><time>2026-04-24T02:44:38.001Z</time></trkpt><trkpt lat="-19.822992657176307" lon="120.83507424787621"><ele>32.0</ele><time>2026-04-24T02:44:39.001Z</time></trkpt><trkpt lat="-19.8229549004529" lon="120.83536354028948"><ele>33.0</ele><time>2026-04-24T02:44:40.001Z</time></trkpt><trkpt lat="-19.822916704272185" lon="120.835648156546"><ele>34.0</ele><time>2026-04-24T02:44:41.001Z</time></trkpt><trkpt lat="-19.822878097598213" lon="120.83593178832102"><ele>33.0</ele><time>2026-04-24T02:44:42.001Z</time></trkpt><trkpt lat="-19.822841263891917" lon="120.83621814164223"><ele>32.0</ele><time>2026-04-24T02:44:43.001Z</time></trkpt><trkpt lat="-19.822808928721006" lon="120.83649252766668"><ele>32.0</ele><time>2026-04-24T02:44:44.001Z</time></trkpt><trkpt lat="-19.822787744892473" lon="120.83674506499099"><ele>32.0</ele><time>2026-04-24T02:44:45.001Z</time></trkpt><trkpt lat="-19.82277213234112" lon="120.83697434337255"><ele>32.5</ele><time>2026-04-24T02:44:46.001Z</time></trkpt><trkpt lat="-19.822751483680403" lon="120.83720695108973"><ele>33.0</ele><time>2026-04-24T02:44:47.001Z</time></trkpt><trkpt lat="-19.822728128906295" lon="120.8374645341985"><ele>32.5</ele><time>2026-04-24T02:44:48.001Z</time></trkpt><trkpt lat="-19.82269949192824" lon="120.8377336289594"><ele>32.0</ele><time>2026-04-24T02:44:49.001Z</time></trkpt><trkpt lat="-19.822664087840845" lon="120.83800324002405"><ele>31.5</ele><time>2026-04-24T02:44:50.001Z</time></trkpt><trkpt lat="-19.822623144679344" lon="120.8382670545711"><ele>31.0</ele><time>2026-04-24T02:44:51.001Z</time></trkpt><trkpt lat="-19.822570962252538" lon="120.83853623074762"><ele>31.0</ele><time>2026-04-24T02:44:52.001Z</time></trkpt><trkpt lat="-19.822514620826976" lon="120.83880517858206"><ele>31.0</ele><time>2026-04-24T02:44:53.001Z</time></trkpt><trkpt lat="-19.82247391345194" lon="120.8390856406584"><ele>29.5</ele><time>2026-04-24T02:44:54.001Z</time></trkpt><trkpt lat="-19.822445627001535" lon="120.83937930101403"><ele>28.0</ele><time>2026-04-24T02:44:55.001Z</time></trkpt><trkpt lat="-19.822412816997634" lon="120.83967551527228"><ele>28.0</ele><time>2026-04-24T02:44:56.001Z</time></trkpt><trkpt lat="-19.82237591350358" lon="120.83997089445215"><ele>28.0</ele><time>2026-04-24T02:44:57.001Z</time></trkpt><trkpt lat="-19.822341184518663" lon="120.84026925687601"><ele>28.5</ele><time>2026-04-24T02:44:58.001Z</time></trkpt><trkpt lat="-19.822303495917854" lon="120.84056408351294"><ele>29.0</ele><time>2026-04-24T02:44:59.001Z</time></trkpt><trkpt lat="-19.822265919546417" lon="120.8408586736911"><ele>28.0</ele><time>2026-04-24T02:45:00.001Z</time></trkpt><trkpt lat="-19.82222800684208" lon="120.84115423009814"><ele>27.0</ele><time>2026-04-24T02:45:01.001Z</time></trkpt><trkpt lat="-19.822191693259448" lon="120.84144818071715"><ele>27.0</ele><time>2026-04-24T02:45:02.001Z</time></trkpt><trkpt lat="-19.822154121583235" lon="120.84174615565597"><ele>27.0</ele><time>2026-04-24T02:45:03.001Z</time></trkpt><trkpt lat="-19.82211802785939" lon="120.84204582204721"><ele>27.5</ele><time>2026-04-24T02:45:04.001Z</time></trkpt><trkpt lat="-19.8220822832729" lon="120.84234712550118"><ele>28.0</ele><time>2026-04-24T02:45:05.001Z</time></trkpt><trkpt lat="-19.822044586465843" lon="120.84264522543654"><ele>28.0</ele><time>2026-04-24T02:45:06.001Z</time></trkpt><trkpt lat="-19.822008514099117" lon="120.84294582071199"><ele>28.0</ele><time>2026-04-24T02:45:07.001Z</time></trkpt><trkpt lat="-19.82197310443018" lon="120.84324635693525"><ele>29.0</ele><time>2026-04-24T02:45:08.001Z</time></trkpt><trkpt lat="-19.821936824137367" lon="120.84354557932393"><ele>30.0</ele><time>2026-04-24T02:45:09.001Z</time></trkpt><trkpt lat="-19.821897003978208" lon="120.84384749999735"><ele>30.0</ele><time>2026-04-24T02:45:10.001Z</time></trkpt><trkpt lat="-19.821859122754745" lon="120.84414714883778"><ele>30.0</ele><time>2026-04-24T02:45:11.001Z</time></trkpt><trkpt lat="-19.82182222511544" lon="120.84444861882143"><ele>29.5</ele><time>2026-04-24T02:45:12.001Z</time></trkpt><trkpt lat="-19.821784471750618" lon="120.84474827533445"><ele>29.0</ele><time>2026-04-24T02:45:13.001Z</time></trkpt><trkpt lat="-19.82174464367223" lon="120.84504823877646"><ele>28.5</ele><time>2026-04-24T02:45:14.001Z</time></trkpt><trkpt lat="-19.82170500519195" lon="120.84534618975604"><ele>28.0</ele><time>2026-04-24T02:45:15.001Z</time></trkpt><trkpt lat="-19.82166873233365" lon="120.84564445963763"><ele>28.0</ele><time>2026-04-24T02:45:16.001Z</time></trkpt><trkpt lat="-19.8216343377129" lon="120.84594138797826"><ele>28.0</ele><time>2026-04-24T02:45:17.001Z</time></trkpt><trkpt lat="-19.82159966037542" lon="120.84623721214159"><ele>28.0</ele><time>2026-04-24T02:45:18.001Z</time></trkpt><trkpt lat="-19.821566368826904" lon="120.84653331027043"><ele>28.0</ele><time>2026-04-24T02:45:19.001Z</time></trkpt><trkpt lat="-19.821534724086465" lon="120.84682943898048"><ele>28.0</ele><time>2026-04-24T02:45:20.001Z</time></trkpt><trkpt lat="-19.821502300321217" lon="120.84712384115042"><ele>28.0</ele><time>2026-04-24T02:45:21.001Z</time></trkpt><trkpt lat="-19.821472099806176" lon="120.84741436205269"><ele>28.0</ele><time>2026-04-24T02:45:22.001Z</time></trkpt><trkpt lat="-19.82144948321129" lon="120.84769888817381"><ele>28.0</ele><time>2026-04-24T02:45:23.001Z</time></trkpt><trkpt lat="-19.82143553542521" lon="120.84798011286735"><ele>28.0</ele><time>2026-04-24T02:45:24.001Z</time></trkpt><trkpt lat="-19.82142632115709" lon="120.84825893084243"><ele>28.0</ele><time>2026-04-24T02:45:25.001Z</time></trkpt><trkpt lat="-19.821420160786275" lon="120.84854519372281"><ele>28.0</ele><time>2026-04-24T02:45:26.001Z</time></trkpt><trkpt lat="-19.82141681189675" lon="120.8488353043021"><ele>28.0</ele><time>2026-04-24T02:45:27.001Z</time></trkpt><trkpt lat="-19.821413358876843" lon="120.84912532691025"><ele>27.5</ele><time>2026-04-24T02:45:28.001Z</time></trkpt><trkpt lat="-19.8214118239139" lon="120.84941796992493"><ele>27.0</ele><time>2026-04-24T02:45:29.001Z</time></trkpt><trkpt lat="-19.82140867361592" lon="120.8497055954399"><ele>27.0</ele><time>2026-04-24T02:45:30.001Z</time></trkpt><trkpt lat="-19.821405620311776" lon="120.84999315339664"><ele>27.0</ele><time>2026-04-24T02:45:31.001Z</time></trkpt><trkpt lat="-19.821403447271486" lon="120.85028020504372"><ele>27.0</ele><time>2026-04-24T02:45:32.001Z</time></trkpt><trkpt lat="-19.821401774666327" lon="120.85056262992681"><ele>27.0</ele><time>2026-04-24T02:45:33.001Z</time></trkpt><trkpt lat="-19.821397626388116" lon="120.85084188833501"><ele>28.0</ele><time>2026-04-24T02:45:34.001Z</time></trkpt><trkpt lat="-19.821391121096994" lon="120.85111874743224"><ele>29.0</ele><time>2026-04-24T02:45:35Z</time></trkpt><trkpt lat="-19.821384655958372" lon="120.85139988182975"><ele>29.0</ele><time>2026-04-24T02:45:36Z</time></trkpt><trkpt lat="-19.821381275382112" lon="120.85169086904344"><ele>29.0</ele><time>2026-04-24T02:45:37Z</time></trkpt><trkpt lat="-19.821379665910037" lon="120.85198472346953"><ele>26.5</ele><time>2026-04-24T02:45:38Z</time></trkpt><trkpt lat="-19.821376482560684" lon="120.8522794354189"><ele>24.0</ele><time>2026-04-24T02:45:39Z</time></trkpt><trkpt lat="-19.82137404391436" lon="120.85257385572095"><ele>24.0</ele><time>2026-04-24T02:45:40Z</time></trkpt><trkpt lat="-19.82137165759522" lon="120.85286693610851"><ele>24.0</ele><time>2026-04-24T02:45:41Z</time></trkpt><trkpt lat="-19.821370654771144" lon="120.85316046432064"><ele>23.0</ele><time>2026-04-24T02:45:42Z</time></trkpt><trkpt lat="-19.82136810029839" lon="120.85345658444358"><ele>22.0</ele><time>2026-04-24T02:45:43Z</time></trkpt><trkpt lat="-19.821363826468264" lon="120.85375583881194"><ele>22.0</ele><time>2026-04-24T02:45:44Z</time></trkpt><trkpt lat="-19.821358482454976" lon="120.85405417572989"><ele>22.0</ele><time>2026-04-24T02:45:45Z</time></trkpt><trkpt lat="-19.821355656575264" lon="120.85434905830778"><ele>22.5</ele><time>2026-04-24T02:45:46Z</time></trkpt><trkpt lat="-19.82135197830791" lon="120.85464251958834"><ele>23.0</ele><time>2026-04-24T02:45:47Z</time></trkpt><trkpt lat="-19.821349048634247" lon="120.85493666755262"><ele>24.0</ele><time>2026-04-24T02:45:48Z</time></trkpt><trkpt lat="-19.8213468387154" lon="120.85522867309965"><ele>25.0</ele><time>2026-04-24T02:45:49Z</time></trkpt><trkpt lat="-19.821342729163366" lon="120.85551727844773"><ele>25.0</ele><time>2026-04-24T02:45:50Z</time></trkpt><trkpt lat="-19.821338476580625" lon="120.85580663267339"><ele>25.0</ele><time>2026-04-24T02:45:51Z</time></trkpt><trkpt lat="-19.82133429582567" lon="120.856093707483"><ele>24.5</ele><time>2026-04-24T02:45:52Z</time></trkpt><trkpt lat="-19.821333166203157" lon="120.85638015824165"><ele>24.0</ele><time>2026-04-24T02:45:53Z</time></trkpt><trkpt lat="-19.821330935829952" lon="120.85666534560244"><ele>24.5</ele><time>2026-04-24T02:45:54Z</time></trkpt><trkpt lat="-19.821325138217603" lon="120.85695619140742"><ele>25.0</ele><time>2026-04-24T02:45:55Z</time></trkpt><trkpt lat="-19.8213196919219" lon="120.85724502220017"><ele>25.0</ele><time>2026-04-24T02:45:56Z</time></trkpt><trkpt lat="-19.8213124884855" lon="120.8575338130207"><ele>25.0</ele><time>2026-04-24T02:45:57Z</time></trkpt><trkpt lat="-19.821307277951256" lon="120.85781844688329"><ele>25.5</ele><time>2026-04-24T02:45:58Z</time></trkpt><trkpt lat="-19.821300875959054" lon="120.85810828995673"><ele>26.0</ele><time>2026-04-24T02:45:59Z</time></trkpt><trkpt lat="-19.821297976708493" lon="120.85840186250509"><ele>25.0</ele><time>2026-04-24T02:46:00Z</time></trkpt><trkpt lat="-19.82129699948126" lon="120.8586944566805"><ele>24.0</ele><time>2026-04-24T02:46:01Z</time></trkpt><trkpt lat="-19.82129748916839" lon="120.85898603348102"><ele>24.0</ele><time>2026-04-24T02:46:02Z</time></trkpt><trkpt lat="-19.82129684080104" lon="120.8592812495043"><ele>24.0</ele><time>2026-04-24T02:46:03Z</time></trkpt><trkpt lat="-19.82129491858394" lon="120.8595757001486"><ele>24.5</ele><time>2026-04-24T02:46:04Z</time></trkpt><trkpt lat="-19.82129391695338" lon="120.85987457263553"><ele>25.0</ele><time>2026-04-24T02:46:05Z</time></trkpt><trkpt lat="-19.82129233011872" lon="120.86017620288187"><ele>25.0</ele><time>2026-04-24T02:46:06Z</time></trkpt><trkpt lat="-19.821291433935816" lon="120.86047776371618"><ele>25.0</ele><time>2026-04-24T02:46:07Z</time></trkpt><trkpt lat="-19.82128984623535" lon="120.86077863116336"><ele>25.5</ele><time>2026-04-24T02:46:08Z</time></trkpt><trkpt lat="-19.821286752172483" lon="120.86107872948062"><ele>26.0</ele><time>2026-04-24T02:46:09Z</time></trkpt><trkpt lat="-19.821279216876025" lon="120.8613776092133"><ele>26.0</ele><time>2026-04-24T02:46:10Z</time></trkpt><trkpt lat="-19.821271298452196" lon="120.86167722655428"><ele>26.0</ele><time>2026-04-24T02:46:11Z</time></trkpt><trkpt lat="-19.821264493998374" lon="120.861974359902"><ele>25.5</ele><time>2026-04-24T02:46:12Z</time></trkpt><trkpt lat="-19.82125735256039" lon="120.8622684493185"><ele>25.0</ele><time>2026-04-24T02:46:13Z</time></trkpt><trkpt lat="-19.821251054070853" lon="120.86255994248978"><ele>26.0</ele><time>2026-04-24T02:46:14Z</time></trkpt><trkpt lat="-19.821247583958108" lon="120.86284939849646"><ele>27.0</ele><time>2026-04-24T02:46:15Z</time></trkpt><trkpt lat="-19.82124579958562" lon="120.86313847427908"><ele>27.0</ele><time>2026-04-24T02:46:16Z</time></trkpt><trkpt lat="-19.821243897214128" lon="120.86342809927407"><ele>27.0</ele><time>2026-04-24T02:46:17Z</time></trkpt><trkpt lat="-19.82124322564186" lon="120.86371733593398"><ele>26.5</ele><time>2026-04-24T02:46:18Z</time></trkpt><trkpt lat="-19.82124062590145" lon="120.86400738054736"><ele>26.0</ele><time>2026-04-24T02:46:19Z</time></trkpt><trkpt lat="-19.821237960580603" lon="120.8642954582204"><ele>26.0</ele><time>2026-04-24T02:46:20.001Z</time></trkpt><trkpt lat="-19.821233144724616" lon="120.86458236310943"><ele>26.0</ele><time>2026-04-24T02:46:21.001Z</time></trkpt><trkpt lat="-19.821225494287738" lon="120.86486828235593"><ele>26.0</ele><time>2026-04-24T02:46:22.001Z</time></trkpt><trkpt lat="-19.821218830818562" lon="120.8651492635144"><ele>26.0</ele><time>2026-04-24T02:46:23.001Z</time></trkpt><trkpt lat="-19.82121661673174" lon="120.865425485462"><ele>26.0</ele><time>2026-04-24T02:46:24.001Z</time></trkpt><trkpt lat="-19.821217725407564" lon="120.8656986445422"><ele>26.0</ele><time>2026-04-24T02:46:25.001Z</time></trkpt><trkpt lat="-19.821217962319864" lon="120.8659701723375"><ele>25.5</ele><time>2026-04-24T02:46:26.001Z</time></trkpt><trkpt lat="-19.821217891901227" lon="120.86624166973887"><ele>25.0</ele><time>2026-04-24T02:46:27.001Z</time></trkpt><trkpt lat="-19.821213877670502" lon="120.86651168395012"><ele>26.5</ele><time>2026-04-24T02:46:28.001Z</time></trkpt><trkpt lat="-19.821208498255736" lon="120.86678495223117"><ele>28.0</ele><time>2026-04-24T02:46:29.001Z</time></trkpt><trkpt lat="-19.821205563655376" lon="120.86705463401071"><ele>28.0</ele><time>2026-04-24T02:46:30.001Z</time></trkpt><trkpt lat="-19.821200569132937" lon="120.86732468959336"><ele>28.0</ele><time>2026-04-24T02:46:31.001Z</time></trkpt><trkpt lat="-19.821195088830287" lon="120.86759648205891"><ele>28.5</ele><time>2026-04-24T02:46:32.001Z</time></trkpt><trkpt lat="-19.821190915150297" lon="120.8678726897463"><ele>29.0</ele><time>2026-04-24T02:46:33.001Z</time></trkpt><trkpt lat="-19.821190623821277" lon="120.86815454129442"><ele>29.0</ele><time>2026-04-24T02:46:34.001Z</time></trkpt><trkpt lat="-19.821191646596525" lon="120.86843144333497"><ele>29.0</ele><time>2026-04-24T02:46:35.001Z</time></trkpt><trkpt lat="-19.82119086143639" lon="120.86870661256329"><ele>28.5</ele><time>2026-04-24T02:46:36.001Z</time></trkpt><trkpt lat="-19.82118657563045" lon="120.86898066362912"><ele>28.0</ele><time>2026-04-24T02:46:37.001Z</time></trkpt><trkpt lat="-19.821185945219582" lon="120.86925004996235"><ele>27.5</ele><time>2026-04-24T02:46:38.001Z</time></trkpt><trkpt lat="-19.821185860686604" lon="120.86951550889117"><ele>27.0</ele><time>2026-04-24T02:46:39.001Z</time></trkpt><trkpt lat="-19.8211804603248" lon="120.8697822220163"><ele>27.0</ele><time>2026-04-24T02:46:40.001Z</time></trkpt><trkpt lat="-19.82117312457788" lon="120.87005124834734"><ele>27.0</ele><time>2026-04-24T02:46:41.001Z</time></trkpt><trkpt lat="-19.821169302465897" lon="120.87031574579841"><ele>27.0</ele><time>2026-04-24T02:46:42.001Z</time></trkpt><trkpt lat="-19.821171881209985" lon="120.8705818389305"><ele>27.0</ele><time>2026-04-24T02:46:43.001Z</time></trkpt><trkpt lat="-19.821173882090033" lon="120.87084247209897"><ele>27.5</ele><time>2026-04-24T02:46:44.001Z</time></trkpt><trkpt lat="-19.821171537267634" lon="120.87110753783189"><ele>28.0</ele><time>2026-04-24T02:46:45.001Z</time></trkpt><trkpt lat="-19.821164646394674" lon="120.87136937292142"><ele>28.0</ele><time>2026-04-24T02:46:46.001Z</time></trkpt><trkpt lat="-19.821157503500448" lon="120.87162433120619"><ele>28.0</ele><time>2026-04-24T02:46:47.001Z</time></trkpt><trkpt lat="-19.821152084672708" lon="120.87188261075978"><ele>28.0</ele><time>2026-04-24T02:46:48.001Z</time></trkpt><trkpt lat="-19.821144144032214" lon="120.87214296037244"><ele>28.0</ele><time>2026-04-24T02:46:49.001Z</time></trkpt><trkpt lat="-19.821135841228234" lon="120.87240547450322"><ele>28.5</ele><time>2026-04-24T02:46:50.001Z</time></trkpt><trkpt lat="-19.82113121843384" lon="120.87266628547455"><ele>29.0</ele><time>2026-04-24T02:46:51.001Z</time></trkpt><trkpt lat="-19.82112831095024" lon="120.8729255256721"><ele>29.0</ele><time>2026-04-24T02:46:52.001Z</time></trkpt><trkpt lat="-19.821127573976316" lon="120.8731868645516"><ele>29.0</ele><time>2026-04-24T02:46:53.001Z</time></trkpt><trkpt lat="-19.821128870441964" lon="120.8734473967611"><ele>29.0</ele><time>2026-04-24T02:46:54.001Z</time></trkpt><trkpt lat="-19.821128461119578" lon="120.87371144103805"><ele>29.0</ele><time>2026-04-24T02:46:55.001Z</time></trkpt><trkpt lat="-19.82112571730743" lon="120.87396844357541"><ele>29.0</ele><time>2026-04-24T02:46:56.001Z</time></trkpt><trkpt lat="-19.82112283696272" lon="120.87422746865617"><ele>29.0</ele><time>2026-04-24T02:46:57.001Z</time></trkpt><trkpt lat="-19.821121123135867" lon="120.87448635454233"><ele>28.5</ele><time>2026-04-24T02:46:58.001Z</time></trkpt><trkpt lat="-19.82111828136653" lon="120.87474804732602"><ele>28.0</ele><time>2026-04-24T02:46:59.001Z</time></trkpt><trkpt lat="-19.821114212536393" lon="120.87500938930388"><ele>27.0</ele><time>2026-04-24T02:47:00.001Z</time></trkpt><trkpt lat="-19.82111088271398" lon="120.87526908141567"><ele>26.0</ele><time>2026-04-24T02:47:01.001Z</time></trkpt><trkpt lat="-19.821106965902658" lon="120.87552783134406"><ele>26.0</ele><time>2026-04-24T02:47:02.001Z</time></trkpt><trkpt lat="-19.82110355014625" lon="120.87578601302675"><ele>26.0</ele><time>2026-04-24T02:47:03.001Z</time></trkpt><trkpt lat="-19.821102912442612" lon="120.87604091510218"><ele>28.0</ele><time>2026-04-24T02:47:04.001Z</time></trkpt><trkpt lat="-19.821103697311987" lon="120.87629987049047"><ele>30.0</ele><time>2026-04-24T02:47:05.001Z</time></trkpt><trkpt lat="-19.8211036263943" lon="120.87655590830789"><ele>29.5</ele><time>2026-04-24T02:47:06.001Z</time></trkpt><trkpt lat="-19.821099727695557" lon="120.87681274449818"><ele>29.0</ele><time>2026-04-24T02:47:07.001Z</time></trkpt><trkpt lat="-19.82109267783942" lon="120.87707053226715"><ele>29.0</ele><time>2026-04-24T02:47:08.001Z</time></trkpt><trkpt lat="-19.821086699289886" lon="120.87732709406465"><ele>29.0</ele><time>2026-04-24T02:47:09.001Z</time></trkpt><trkpt lat="-19.82108012408981" lon="120.87758695812941"><ele>29.0</ele><time>2026-04-24T02:47:10.001Z</time></trkpt><trkpt lat="-19.82107265211696" lon="120.87784329012672"><ele>29.0</ele><time>2026-04-24T02:47:11.001Z</time></trkpt><trkpt lat="-19.821064287703383" lon="120.87809992792388"><ele>29.0</ele><time>2026-04-24T02:47:12.001Z</time></trkpt><trkpt lat="-19.821062052776814" lon="120.87835210230826"><ele>29.0</ele><time>2026-04-24T02:47:13.001Z</time></trkpt><trkpt lat="-19.821063094617394" lon="120.87860365036406"><ele>28.5</ele><time>2026-04-24T02:47:14.001Z</time></trkpt><trkpt lat="-19.821063764601988" lon="120.87885208334308"><ele>28.0</ele><time>2026-04-24T02:47:15.001Z</time></trkpt><trkpt lat="-19.821064786137452" lon="120.87909956180134"><ele>29.0</ele><time>2026-04-24T02:47:16.001Z</time></trkpt><trkpt lat="-19.821065579913995" lon="120.87934551311035"><ele>30.0</ele><time>2026-04-24T02:47:17.001Z</time></trkpt><trkpt lat="-19.821065147330426" lon="120.87959117659534"><ele>30.0</ele><time>2026-04-24T02:47:18.001Z</time></trkpt><trkpt lat="-19.821065724771422" lon="120.87983498691582"><ele>30.0</ele><time>2026-04-24T02:47:19.001Z</time></trkpt><trkpt lat="-19.82106065331953" lon="120.88008098250039"><ele>29.0</ele><time>2026-04-24T02:47:20.001Z</time></trkpt><trkpt lat="-19.82105337793268" lon="120.88033006933018"><ele>28.0</ele><time>2026-04-24T02:47:21.001Z</time></trkpt><trkpt lat="-19.821048857472892" lon="120.8805835389531"><ele>28.0</ele><time>2026-04-24T02:47:22.001Z</time></trkpt><trkpt lat="-19.821047294983558" lon="120.88083599631233"><ele>28.0</ele><time>2026-04-24T02:47:23.001Z</time></trkpt><trkpt lat="-19.821046275882573" lon="120.88108902111425"><ele>27.5</ele><time>2026-04-24T02:47:24.001Z</time></trkpt><trkpt lat="-19.82104450283796" lon="120.88134004060352"><ele>27.0</ele><time>2026-04-24T02:47:25.001Z</time></trkpt><trkpt lat="-19.821039688757633" lon="120.8815891467863"><ele>28.0</ele><time>2026-04-24T02:47:26.001Z</time></trkpt><trkpt lat="-19.821033985321623" lon="120.88183856683803"><ele>29.0</ele><time>2026-04-24T02:47:27.001Z</time></trkpt><trkpt lat="-19.821030287656296" lon="120.88208529040396"><ele>29.0</ele><time>2026-04-24T02:47:28.001Z</time></trkpt><trkpt lat="-19.821026944474085" lon="120.88232901643478"><ele>29.0</ele><time>2026-04-24T02:47:29.001Z</time></trkpt><trkpt lat="-19.821023221847415" lon="120.88257664049175"><ele>29.0</ele><time>2026-04-24T02:47:30.001Z</time></trkpt><trkpt lat="-19.82102005477597" lon="120.88282197238709"><ele>29.0</ele><time>2026-04-24T02:47:31.001Z</time></trkpt><trkpt lat="-19.821018077404254" lon="120.88306592891043"><ele>29.0</ele><time>2026-04-24T02:47:32.001Z</time></trkpt><trkpt lat="-19.82101738859176" lon="120.88331027936361"><ele>29.0</ele><time>2026-04-24T02:47:33.001Z</time></trkpt><trkpt lat="-19.82101532847912" lon="120.88355365249286"><ele>29.5</ele><time>2026-04-24T02:47:34.001Z</time></trkpt><trkpt lat="-19.82101230340992" lon="120.88379596391565"><ele>30.0</ele><time>2026-04-24T02:47:35.001Z</time></trkpt><trkpt lat="-19.82100693326595" lon="120.88403685234422"><ele>29.0</ele><time>2026-04-24T02:47:36.001Z</time></trkpt><trkpt lat="-19.82100189483924" lon="120.88427952385513"><ele>28.0</ele><time>2026-04-24T02:47:37.001Z</time></trkpt><trkpt lat="-19.820998226543832" lon="120.88452330944493"><ele>28.0</ele><time>2026-04-24T02:47:38.001Z</time></trkpt><trkpt lat="-19.82099487798088" lon="120.88476231784004"><ele>28.0</ele><time>2026-04-24T02:47:39.001Z</time></trkpt><trkpt lat="-19.820990630330925" lon="120.88500197968995"><ele>27.5</ele><time>2026-04-24T02:47:40.001Z</time></trkpt><trkpt lat="-19.820984169632542" lon="120.88524420558613"><ele>27.0</ele><time>2026-04-24T02:47:41Z</time></trkpt><trkpt lat="-19.820978218382525" lon="120.88548302321293"><ele>28.0</ele><time>2026-04-24T02:47:42Z</time></trkpt><trkpt lat="-19.820972242704585" lon="120.88572530898522"><ele>29.0</ele><time>2026-04-24T02:47:43Z</time></trkpt><trkpt lat="-19.820969231657244" lon="120.88597074942649"><ele>29.0</ele><time>2026-04-24T02:47:44Z</time></trkpt><trkpt lat="-19.820969256392367" lon="120.88621538229596"><ele>29.0</ele><time>2026-04-24T02:47:45Z</time></trkpt><trkpt lat="-19.820970527629147" lon="120.8864661423987"><ele>29.0</ele><time>2026-04-24T02:47:46Z</time></trkpt><trkpt lat="-19.820971542608977" lon="120.88671706175182"><ele>29.0</ele><time>2026-04-24T02:47:47Z</time></trkpt><trkpt lat="-19.820970140999794" lon="120.88696837383034"><ele>29.5</ele><time>2026-04-24T02:47:48Z</time></trkpt><trkpt lat="-19.820971129482214" lon="120.88722375410491"><ele>30.0</ele><time>2026-04-24T02:47:49Z</time></trkpt><trkpt lat="-19.820967551653702" lon="120.88747920058378"><ele>29.5</ele><time>2026-04-24T02:47:50Z</time></trkpt><trkpt lat="-19.820962580401396" lon="120.88773494908305"><ele>29.0</ele><time>2026-04-24T02:47:51Z</time></trkpt><trkpt lat="-19.820958715119527" lon="120.88799026874096"><ele>29.0</ele><time>2026-04-24T02:47:52Z</time></trkpt><trkpt lat="-19.82095319224613" lon="120.88824218653211"><ele>29.0</ele><time>2026-04-24T02:47:53Z</time></trkpt><trkpt lat="-19.82094954299316" lon="120.88849400865843"><ele>28.5</ele><time>2026-04-24T02:47:54Z</time></trkpt><trkpt lat="-19.820944607083014" lon="120.88874393307385"><ele>28.0</ele><time>2026-04-24T02:47:55Z</time></trkpt><trkpt lat="-19.820942438315488" lon="120.88899721241593"><ele>28.0</ele><time>2026-04-24T02:47:56Z</time></trkpt><trkpt lat="-19.820943018780543" lon="120.88925674234845"><ele>28.0</ele><time>2026-04-24T02:47:57Z</time></trkpt><trkpt lat="-19.820940350356718" lon="120.88951724743035"><ele>28.0</ele><time>2026-04-24T02:47:58Z</time></trkpt><trkpt lat="-19.82093554203748" lon="120.88978494469575"><ele>28.0</ele><time>2026-04-24T02:47:59Z</time></trkpt><trkpt lat="-19.820931605741368" lon="120.89004878824147"><ele>28.5</ele><time>2026-04-24T02:48:00Z</time></trkpt><trkpt lat="-19.820926462034024" lon="120.89031738556397"><ele>29.0</ele><time>2026-04-24T02:48:01Z</time></trkpt><trkpt lat="-19.820922490449632" lon="120.89058384926442"><ele>29.0</ele><time>2026-04-24T02:48:02Z</time></trkpt><trkpt lat="-19.820920731459452" lon="120.89085113328173"><ele>29.0</ele><time>2026-04-24T02:48:03Z</time></trkpt><trkpt lat="-19.820919114872964" lon="120.89112908408507"><ele>29.0</ele><time>2026-04-24T02:48:04Z</time></trkpt><trkpt lat="-19.820916684963752" lon="120.89140709791376"><ele>29.0</ele><time>2026-04-24T02:48:05Z</time></trkpt><trkpt lat="-19.820916179357848" lon="120.89166952822146"><ele>28.5</ele><time>2026-04-24T02:48:06Z</time></trkpt><trkpt lat="-19.820914610286383" lon="120.89192779392316"><ele>28.0</ele><time>2026-04-24T02:48:07Z</time></trkpt><trkpt lat="-19.820915485958185" lon="120.89219561669789"><ele>28.0</ele><time>2026-04-24T02:48:08Z</time></trkpt><trkpt lat="-19.820912957148117" lon="120.8924756958365"><ele>28.0</ele><time>2026-04-24T02:48:09Z</time></trkpt><trkpt lat="-19.820908010948276" lon="120.892762722981"><ele>27.5</ele><time>2026-04-24T02:48:10Z</time></trkpt><trkpt lat="-19.820900904551117" lon="120.89305148156608"><ele>27.0</ele><time>2026-04-24T02:48:11Z</time></trkpt><trkpt lat="-19.820893075298336" lon="120.89334274149083"><ele>29.0</ele><time>2026-04-24T02:48:12Z</time></trkpt><trkpt lat="-19.820886174347258" lon="120.89363583251036"><ele>31.0</ele><time>2026-04-24T02:48:13Z</time></trkpt><trkpt lat="-19.82088150688341" lon="120.89392603461185"><ele>31.0</ele><time>2026-04-24T02:48:14Z</time></trkpt><trkpt lat="-19.82087934913545" lon="120.89421255873944"><ele>31.0</ele><time>2026-04-24T02:48:15Z</time></trkpt><trkpt lat="-19.82087989251822" lon="120.89449292293813"><ele>31.0</ele><time>2026-04-24T02:48:16Z</time></trkpt><trkpt lat="-19.820881346137533" lon="120.89476954667225"><ele>31.0</ele><time>2026-04-24T02:48:17Z</time></trkpt><trkpt lat="-19.820884202708047" lon="120.89504449745914"><ele>31.0</ele><time>2026-04-24T02:48:18Z</time></trkpt><trkpt lat="-19.82088605808106" lon="120.89531652386539"><ele>31.0</ele><time>2026-04-24T02:48:19Z</time></trkpt><trkpt lat="-19.820892390769774" lon="120.8955886427217"><ele>31.0</ele><time>2026-04-24T02:48:20Z</time></trkpt><trkpt lat="-19.82090704017435" lon="120.89586275575772"><ele>31.0</ele><time>2026-04-24T02:48:21Z</time></trkpt><trkpt lat="-19.820926399561074" lon="120.89613905640995"><ele>31.5</ele><time>2026-04-24T02:48:22Z</time></trkpt><trkpt lat="-19.82095223510555" lon="120.89641542661037"><ele>32.0</ele><time>2026-04-24T02:48:23Z</time></trkpt><trkpt lat="-19.820980249670395" lon="120.89669508871798"><ele>32.0</ele><time>2026-04-24T02:48:24Z</time></trkpt><trkpt lat="-19.821011095530146" lon="120.89697517804207"><ele>32.0</ele><time>2026-04-24T02:48:25Z</time></trkpt><trkpt lat="-19.8210439893417" lon="120.89725369855802"><ele>32.0</ele><time>2026-04-24T02:48:26Z</time></trkpt><trkpt lat="-19.8210776991824" lon="120.8975332802257"><ele>32.0</ele><time>2026-04-24T02:48:27Z</time></trkpt><trkpt lat="-19.82110992044961" lon="120.89781453370216"><ele>30.5</ele><time>2026-04-24T02:48:28Z</time></trkpt><trkpt lat="-19.821144744047885" lon="120.89809792215452"><ele>29.0</ele><time>2026-04-24T02:48:29Z</time></trkpt><trkpt lat="-19.821180110925052" lon="120.89837813995673"><ele>30.0</ele><time>2026-04-24T02:48:30Z</time></trkpt><trkpt lat="-19.821215894505176" lon="120.89865776846915"><ele>31.0</ele><time>2026-04-24T02:48:31Z</time></trkpt><trkpt lat="-19.821247365141545" lon="120.89893854325557"><ele>31.0</ele><time>2026-04-24T02:48:32Z</time></trkpt><trkpt lat="-19.821280991272896" lon="120.89921760332112"><ele>31.0</ele><time>2026-04-24T02:48:33Z</time></trkpt><trkpt lat="-19.821319173502115" lon="120.89949437555724"><ele>31.0</ele><time>2026-04-24T02:48:34Z</time></trkpt><trkpt lat="-19.821355573236392" lon="120.89977061211522"><ele>31.0</ele><time>2026-04-24T02:48:35Z</time></trkpt><trkpt lat="-19.821391243795606" lon="120.9000417876634"><ele>32.0</ele><time>2026-04-24T02:48:36Z</time></trkpt><trkpt lat="-19.821423710904263" lon="120.90031692061338"><ele>33.0</ele><time>2026-04-24T02:48:37Z</time></trkpt><trkpt lat="-19.821452132185787" lon="120.90058485794175"><ele>33.0</ele><time>2026-04-24T02:48:38Z</time></trkpt><trkpt lat="-19.82148294222455" lon="120.90085396888357"><ele>33.0</ele><time>2026-04-24T02:48:39Z</time></trkpt><trkpt lat="-19.821515254075614" lon="120.9011164504806"><ele>33.5</ele><time>2026-04-24T02:48:40Z</time></trkpt><trkpt lat="-19.821546452569102" lon="120.90138409627419"><ele>34.0</ele><time>2026-04-24T02:48:41Z</time></trkpt><trkpt lat="-19.82157910971872" lon="120.90165396781732"><ele>33.5</ele><time>2026-04-24T02:48:42Z</time></trkpt><trkpt lat="-19.821614444024092" lon="120.9019261603341"><ele>33.0</ele><time>2026-04-24T02:48:43.001Z</time></trkpt><trkpt lat="-19.821650164972535" lon="120.902199729991"><ele>33.0</ele><time>2026-04-24T02:48:44.001Z</time></trkpt><trkpt lat="-19.821686292196233" lon="120.90247138098428"><ele>33.0</ele><time>2026-04-24T02:48:45.001Z</time></trkpt><trkpt lat="-19.821720824486313" lon="120.90274176704536"><ele>33.5</ele><time>2026-04-24T02:48:46.001Z</time></trkpt><trkpt lat="-19.821752070084393" lon="120.90301134121083"><ele>34.0</ele><time>2026-04-24T02:48:47.001Z</time></trkpt><trkpt lat="-19.821784990652134" lon="120.90328314573713"><ele>34.0</ele><time>2026-04-24T02:48:48.001Z</time></trkpt><trkpt lat="-19.82181842306678" lon="120.9035513145454"><ele>34.0</ele><time>2026-04-24T02:48:49.001Z</time></trkpt><trkpt lat="-19.82185103441336" lon="120.90382251000673"><ele>34.0</ele><time>2026-04-24T02:48:50.001Z</time></trkpt><trkpt lat="-19.821883032218857" lon="120.90409615485686"><ele>34.0</ele><time>2026-04-24T02:48:51.001Z</time></trkpt><trkpt lat="-19.821914394645454" lon="120.90437105478672"><ele>34.5</ele><time>2026-04-24T02:48:52.001Z</time></trkpt><trkpt lat="-19.82194444457493" lon="120.90464132351848"><ele>35.0</ele><time>2026-04-24T02:48:53.001Z</time></trkpt><trkpt lat="-19.821977420375553" lon="120.90491270837893"><ele>34.5</ele><time>2026-04-24T02:48:54.001Z</time></trkpt><trkpt lat="-19.822013463821172" lon="120.90518260246107"><ele>34.0</ele><time>2026-04-24T02:48:55.001Z</time></trkpt><trkpt lat="-19.822050602091608" lon="120.90545358477401"><ele>34.0</ele><time>2026-04-24T02:48:56.001Z</time></trkpt><trkpt lat="-19.822089361974754" lon="120.90572783794994"><ele>34.0</ele><time>2026-04-24T02:48:57.001Z</time></trkpt><trkpt lat="-19.822128103225552" lon="120.90600121630318"><ele>33.5</ele><time>2026-04-24T02:48:58.001Z</time></trkpt><trkpt lat="-19.822164379796334" lon="120.90627404640409"><ele>33.0</ele><time>2026-04-24T02:48:59.001Z</time></trkpt><trkpt lat="-19.822195332916365" lon="120.90654461330347"><ele>33.0</ele><time>2026-04-24T02:49:00.001Z</time></trkpt><trkpt lat="-19.822229796281434" lon="120.90681634016876"><ele>33.0</ele><time>2026-04-24T02:49:01.001Z</time></trkpt><trkpt lat="-19.82226176092096" lon="120.90708549830642"><ele>33.0</ele><time>2026-04-24T02:49:02.001Z</time></trkpt><trkpt lat="-19.822294942375773" lon="120.90735351468281"><ele>33.0</ele><time>2026-04-24T02:49:03.001Z</time></trkpt><trkpt lat="-19.82232493442362" lon="120.90762306181708"><ele>33.5</ele><time>2026-04-24T02:49:04.001Z</time></trkpt><trkpt lat="-19.822354771255945" lon="120.90789380692581"><ele>34.0</ele><time>2026-04-24T02:49:05.001Z</time></trkpt><trkpt lat="-19.82238693551754" lon="120.90816107890095"><ele>33.0</ele><time>2026-04-24T02:49:06.001Z</time></trkpt><trkpt lat="-19.822421927911304" lon="120.90842560411608"><ele>32.0</ele><time>2026-04-24T02:49:07.001Z</time></trkpt><trkpt lat="-19.822456449078768" lon="120.90868774956415"><ele>32.0</ele><time>2026-04-24T02:49:08.001Z</time></trkpt><trkpt lat="-19.822490156672277" lon="120.90895057184252"><ele>32.0</ele><time>2026-04-24T02:49:09.001Z</time></trkpt><trkpt lat="-19.822521678245003" lon="120.90921137002226"><ele>31.5</ele><time>2026-04-24T02:49:10.001Z</time></trkpt><trkpt lat="-19.82255264179767" lon="120.90947208933774"><ele>31.0</ele><time>2026-04-24T02:49:11.001Z</time></trkpt><trkpt lat="-19.822584277037688" lon="120.90972944071729"><ele>31.0</ele><time>2026-04-24T02:49:12.001Z</time></trkpt><trkpt lat="-19.82261664383449" lon="120.90998618132961"><ele>31.0</ele><time>2026-04-24T02:49:13.001Z</time></trkpt><trkpt lat="-19.822647464556976" lon="120.910242636561"><ele>31.5</ele><time>2026-04-24T02:49:14.001Z</time></trkpt><trkpt lat="-19.822675560501764" lon="120.91050240114804"><ele>32.0</ele><time>2026-04-24T02:49:15.001Z</time></trkpt><trkpt lat="-19.822705454271915" lon="120.91076395832332"><ele>32.5</ele><time>2026-04-24T02:49:16.001Z</time></trkpt><trkpt lat="-19.822739229136843" lon="120.91102804898202"><ele>33.0</ele><time>2026-04-24T02:49:17.001Z</time></trkpt><trkpt lat="-19.82277250020379" lon="120.91129338668024"><ele>33.0</ele><time>2026-04-24T02:49:18.001Z</time></trkpt><trkpt lat="-19.822804515716214" lon="120.91155861398913"><ele>33.0</ele><time>2026-04-24T02:49:19.001Z</time></trkpt><trkpt lat="-19.822837324658977" lon="120.91182253753955"><ele>33.0</ele><time>2026-04-24T02:49:20.001Z</time></trkpt><trkpt lat="-19.82287257125931" lon="120.91208379816331"><ele>33.0</ele><time>2026-04-24T02:49:21.001Z</time></trkpt><trkpt lat="-19.822903750903663" lon="120.91234651417489"><ele>33.5</ele><time>2026-04-24T02:49:22.001Z</time></trkpt><trkpt lat="-19.822930231545953" lon="120.91261044539436"><ele>34.0</ele><time>2026-04-24T02:49:23.001Z</time></trkpt><trkpt lat="-19.822958500969616" lon="120.91287356111677"><ele>34.0</ele><time>2026-04-24T02:49:24.001Z</time></trkpt><trkpt lat="-19.82299010980035" lon="120.91314017261334"><ele>34.0</ele><time>2026-04-24T02:49:25.001Z</time></trkpt><trkpt lat="-19.823025203345416" lon="120.9134075753574"><ele>33.0</ele><time>2026-04-24T02:49:26.001Z</time></trkpt><trkpt lat="-19.823060635608734" lon="120.91367881351009"><ele>32.0</ele><time>2026-04-24T02:49:27.001Z</time></trkpt><trkpt lat="-19.8230944197485" lon="120.91394924529695"><ele>32.0</ele><time>2026-04-24T02:49:28.001Z</time></trkpt><trkpt lat="-19.82312650513554" lon="120.91422186564863"><ele>32.0</ele><time>2026-04-24T02:49:29.001Z</time></trkpt><trkpt lat="-19.823159464942638" lon="120.91449502420822"><ele>32.0</ele><time>2026-04-24T02:49:30.001Z</time></trkpt><trkpt lat="-19.823195446856474" lon="120.91476668973674"><ele>32.0</ele><time>2026-04-24T02:49:31.001Z</time></trkpt><trkpt lat="-19.82323374442178" lon="120.91503999473862"><ele>32.0</ele><time>2026-04-24T02:49:32.001Z</time></trkpt><trkpt lat="-19.82326951984605" lon="120.9153145397194"><ele>32.0</ele><time>2026-04-24T02:49:33.001Z</time></trkpt><trkpt lat="-19.823305400406802" lon="120.91559188885621"><ele>32.0</ele><time>2026-04-24T02:49:34.001Z</time></trkpt><trkpt lat="-19.823339078774804" lon="120.91586946453852"><ele>32.0</ele><time>2026-04-24T02:49:35.001Z</time></trkpt><trkpt lat="-19.823372374158993" lon="120.91614291851086"><ele>32.5</ele><time>2026-04-24T02:49:36.001Z</time></trkpt><trkpt lat="-19.82340662737913" lon="120.91641900719574"><ele>33.0</ele><time>2026-04-24T02:49:37.001Z</time></trkpt><trkpt lat="-19.823440863137588" lon="120.91669066203926"><ele>32.0</ele><time>2026-04-24T02:49:38.001Z</time></trkpt><trkpt lat="-19.823472979252745" lon="120.91696581001837"><ele>31.0</ele><time>2026-04-24T02:49:39.001Z</time></trkpt><trkpt lat="-19.823505775779953" lon="120.9172425615"><ele>31.0</ele><time>2026-04-24T02:49:40.001Z</time></trkpt><trkpt lat="-19.823538515661163" lon="120.91752191016565"><ele>31.0</ele><time>2026-04-24T02:49:41.001Z</time></trkpt><trkpt lat="-19.82357177758646" lon="120.91780035051714"><ele>32.0</ele><time>2026-04-24T02:49:42.001Z</time></trkpt><trkpt lat="-19.823605832988026" lon="120.91807443252728"><ele>33.0</ele><time>2026-04-24T02:49:43.001Z</time></trkpt><trkpt lat="-19.823639653292354" lon="120.91835180638068"><ele>32.5</ele><time>2026-04-24T02:49:44.001Z</time></trkpt><trkpt lat="-19.82367465006923" lon="120.91862665672075"><ele>32.0</ele><time>2026-04-24T02:49:45.001Z</time></trkpt><trkpt lat="-19.823710046942278" lon="120.91890068450266"><ele>32.0</ele><time>2026-04-24T02:49:46.001Z</time></trkpt><trkpt lat="-19.823746612799706" lon="120.91917262705726"><ele>32.0</ele><time>2026-04-24T02:49:47Z</time></trkpt><trkpt lat="-19.823781421366157" lon="120.91944445073123"><ele>31.5</ele><time>2026-04-24T02:49:48Z</time></trkpt><trkpt lat="-19.823812439134276" lon="120.91971579152295"><ele>31.0</ele><time>2026-04-24T02:49:49Z</time></trkpt><trkpt lat="-19.823841797605347" lon="120.91998761686813"><ele>31.0</ele><time>2026-04-24T02:49:50Z</time></trkpt><trkpt lat="-19.823871961260707" lon="120.92026013279958"><ele>31.0</ele><time>2026-04-24T02:49:51Z</time></trkpt><trkpt lat="-19.82390499274525" lon="120.92053237267979"><ele>31.0</ele><time>2026-04-24T02:49:52Z</time></trkpt><trkpt lat="-19.823937607127405" lon="120.92080529767996"><ele>31.0</ele><time>2026-04-24T02:49:53Z</time></trkpt><trkpt lat="-19.823971403414777" lon="120.92108667603566"><ele>31.0</ele><time>2026-04-24T02:49:54Z</time></trkpt><trkpt lat="-19.824006805703746" lon="120.92136805309791"><ele>31.0</ele><time>2026-04-24T02:49:55Z</time></trkpt><trkpt lat="-19.8240426359821" lon="120.92164856690452"><ele>31.0</ele><time>2026-04-24T02:49:56Z</time></trkpt><trkpt lat="-19.824077942339848" lon="120.92192953193658"><ele>31.0</ele><time>2026-04-24T02:49:57Z</time></trkpt><trkpt lat="-19.82411239650274" lon="120.92221355136957"><ele>31.0</ele><time>2026-04-24T02:49:58Z</time></trkpt><trkpt lat="-19.8241468314675" lon="120.92249658431142"><ele>31.0</ele><time>2026-04-24T02:49:59Z</time></trkpt><trkpt lat="-19.824181695676284" lon="120.92278014145856"><ele>31.0</ele><time>2026-04-24T02:50:00Z</time></trkpt><trkpt lat="-19.82421609660759" lon="120.92305983533258"><ele>31.0</ele><time>2026-04-24T02:50:01Z</time></trkpt><trkpt lat="-19.824251279593135" lon="120.92333731090494"><ele>31.0</ele><time>2026-04-24T02:50:02Z</time></trkpt><trkpt lat="-19.82428485748207" lon="120.92360718889981"><ele>31.0</ele><time>2026-04-24T02:50:03Z</time></trkpt><trkpt lat="-19.824319356463732" lon="120.92387980290236"><ele>31.0</ele><time>2026-04-24T02:50:04Z</time></trkpt><trkpt lat="-19.824349868998734" lon="120.92414943322434"><ele>31.0</ele><time>2026-04-24T02:50:05Z</time></trkpt><trkpt lat="-19.824381021840008" lon="120.92441872763962"><ele>32.0</ele><time>2026-04-24T02:50:06Z</time></trkpt><trkpt lat="-19.82441234802083" lon="120.9246869373177"><ele>33.0</ele><time>2026-04-24T02:50:07Z</time></trkpt><trkpt lat="-19.824445322145053" lon="120.92495256430266"><ele>31.5</ele><time>2026-04-24T02:50:08Z</time></trkpt><trkpt lat="-19.824479730071058" lon="120.92521648880934"><ele>30.0</ele><time>2026-04-24T02:50:09Z</time></trkpt><trkpt lat="-19.824510374783227" lon="120.92548013626268"><ele>30.0</ele><time>2026-04-24T02:50:10Z</time></trkpt><trkpt lat="-19.82454047160377" lon="120.9257486381043"><ele>30.0</ele><time>2026-04-24T02:50:11Z</time></trkpt><trkpt lat="-19.824572264453927" lon="120.92602099624202"><ele>29.5</ele><time>2026-04-24T02:50:12Z</time></trkpt><trkpt lat="-19.82460799234451" lon="120.92629660584569"><ele>29.0</ele><time>2026-04-24T02:50:13Z</time></trkpt><trkpt lat="-19.82464422164335" lon="120.9265707321755"><ele>29.0</ele><time>2026-04-24T02:50:14Z</time></trkpt><trkpt lat="-19.824675382337176" lon="120.92684381109993"><ele>29.0</ele><time>2026-04-24T02:50:15Z</time></trkpt><trkpt lat="-19.824707331060175" lon="120.92711758148637"><ele>29.0</ele><time>2026-04-24T02:50:16Z</time></trkpt><trkpt lat="-19.82474283851948" lon="120.92738992089104"><ele>29.0</ele><time>2026-04-24T02:50:17Z</time></trkpt><trkpt lat="-19.82477740435096" lon="120.92766062875815"><ele>29.5</ele><time>2026-04-24T02:50:18Z</time></trkpt><trkpt lat="-19.824811153699702" lon="120.9279348284146"><ele>30.0</ele><time>2026-04-24T02:50:19Z</time></trkpt><trkpt lat="-19.824844920447628" lon="120.92820970984334"><ele>29.0</ele><time>2026-04-24T02:50:20Z</time></trkpt><trkpt lat="-19.82487886984345" lon="120.9284851233511"><ele>28.0</ele><time>2026-04-24T02:50:21Z</time></trkpt><trkpt lat="-19.82491285847171" lon="120.92876071724757"><ele>28.0</ele><time>2026-04-24T02:50:22Z</time></trkpt><trkpt lat="-19.82494891270508" lon="120.92903651726189"><ele>28.0</ele><time>2026-04-24T02:50:23Z</time></trkpt><trkpt lat="-19.824984935759844" lon="120.92931494915715"><ele>28.0</ele><time>2026-04-24T02:50:24Z</time></trkpt><trkpt lat="-19.825021908538336" lon="120.92959659015476"><ele>28.0</ele><time>2026-04-24T02:50:25Z</time></trkpt><trkpt lat="-19.82505642816346" lon="120.9298823282929"><ele>27.0</ele><time>2026-04-24T02:50:26Z</time></trkpt><trkpt lat="-19.82509101925081" lon="120.9301666706456"><ele>26.0</ele><time>2026-04-24T02:50:27Z</time></trkpt><trkpt lat="-19.825127441088835" lon="120.9304512725434"><ele>27.0</ele><time>2026-04-24T02:50:28Z</time></trkpt><trkpt lat="-19.82516502510304" lon="120.9307342032593"><ele>28.0</ele><time>2026-04-24T02:50:29Z</time></trkpt><trkpt lat="-19.825201795833298" lon="120.93102070494164"><ele>28.5</ele><time>2026-04-24T02:50:30Z</time></trkpt><trkpt lat="-19.825235223002014" lon="120.93130647652852"><ele>29.0</ele><time>2026-04-24T02:50:31Z</time></trkpt><trkpt lat="-19.825265488422318" lon="120.9315954761514"><ele>29.0</ele><time>2026-04-24T02:50:32Z</time></trkpt><trkpt lat="-19.825298207446867" lon="120.93188308196908"><ele>29.0</ele><time>2026-04-24T02:50:33Z</time></trkpt><trkpt lat="-19.825333509505292" lon="120.93217263261215"><ele>28.0</ele><time>2026-04-24T02:50:34Z</time></trkpt><trkpt lat="-19.825400543351705" lon="120.93274384743604"><ele>28.0</ele><time>2026-04-24T02:50:36Z</time></trkpt><trkpt lat="-19.82543686566695" lon="120.93302586045104"><ele>28.0</ele><time>2026-04-24T02:50:37Z</time></trkpt><trkpt lat="-19.82547239121906" lon="120.93331056347881"><ele>28.5</ele><time>2026-04-24T02:50:38.001Z</time></trkpt><trkpt lat="-19.825508456813438" lon="120.93359641704792"><ele>29.0</ele><time>2026-04-24T02:50:39.001Z</time></trkpt><trkpt lat="-19.82554342812456" lon="120.93387981554154"><ele>29.0</ele><time>2026-04-24T02:50:40.001Z</time></trkpt><trkpt lat="-19.82557814452807" lon="120.93416554756246"><ele>29.0</ele><time>2026-04-24T02:50:41.001Z</time></trkpt><trkpt lat="-19.82561191202034" lon="120.93444846849529"><ele>29.0</ele><time>2026-04-24T02:50:42.001Z</time></trkpt><trkpt lat="-19.82564781434455" lon="120.93473164272241"><ele>29.0</ele><time>2026-04-24T02:50:43.001Z</time></trkpt><trkpt lat="-19.825683907012206" lon="120.93501575571749"><ele>28.5</ele><time>2026-04-24T02:50:44.001Z</time></trkpt><trkpt lat="-19.825717562808254" lon="120.93529867418023"><ele>28.0</ele><time>2026-04-24T02:50:45.001Z</time></trkpt><trkpt lat="-19.82575129712815" lon="120.93557843264136"><ele>28.0</ele><time>2026-04-24T02:50:46.001Z</time></trkpt><trkpt lat="-19.825785596914994" lon="120.93585438428511"><ele>28.0</ele><time>2026-04-24T02:50:47.001Z</time></trkpt><trkpt lat="-19.82582050154158" lon="120.93612752771286"><ele>26.5</ele><time>2026-04-24T02:50:48.001Z</time></trkpt><trkpt lat="-19.825855212371167" lon="120.93639975396191"><ele>25.0</ele><time>2026-04-24T02:50:49.001Z</time></trkpt><trkpt lat="-19.82588858758012" lon="120.93666948485998"><ele>25.5</ele><time>2026-04-24T02:50:50.001Z</time></trkpt><trkpt lat="-19.82592227369823" lon="120.93694492570333"><ele>26.0</ele><time>2026-04-24T02:50:51.001Z</time></trkpt><trkpt lat="-19.82595369625979" lon="120.93721948605366"><ele>26.0</ele><time>2026-04-24T02:50:52.001Z</time></trkpt><trkpt lat="-19.82598377420191" lon="120.93749445822758"><ele>26.0</ele><time>2026-04-24T02:50:53.001Z</time></trkpt><trkpt lat="-19.82601578366062" lon="120.9377731758134"><ele>27.5</ele><time>2026-04-24T02:50:54.001Z</time></trkpt><trkpt lat="-19.826047588386107" lon="120.93804763596796"><ele>29.0</ele><time>2026-04-24T02:50:55.001Z</time></trkpt><trkpt lat="-19.82607797722017" lon="120.9383238038846"><ele>29.0</ele><time>2026-04-24T02:50:56.001Z</time></trkpt><trkpt lat="-19.826108782449225" lon="120.93859675558097"><ele>29.0</ele><time>2026-04-24T02:50:57.001Z</time></trkpt><trkpt lat="-19.82613530491617" lon="120.93887141754745"><ele>29.0</ele><time>2026-04-24T02:50:58.001Z</time></trkpt><trkpt lat="-19.826151808301287" lon="120.93914124667911"><ele>29.0</ele><time>2026-04-24T02:50:59.001Z</time></trkpt><trkpt lat="-19.826159562741662" lon="120.93941317395225"><ele>28.5</ele><time>2026-04-24T02:51:00.001Z</time></trkpt><trkpt lat="-19.82616274797975" lon="120.9396890144415"><ele>28.0</ele><time>2026-04-24T02:51:01.001Z</time></trkpt><trkpt lat="-19.826160814062632" lon="120.93996058703226"><ele>28.0</ele><time>2026-04-24T02:51:02.001Z</time></trkpt><trkpt lat="-19.826153963194457" lon="120.94023048628384"><ele>28.0</ele><time>2026-04-24T02:51:03.001Z</time></trkpt><trkpt lat="-19.82614671298143" lon="120.9404999513249"><ele>28.0</ele><time>2026-04-24T02:51:04.001Z</time></trkpt><trkpt lat="-19.82613815650424" lon="120.94076489205574"><ele>28.0</ele><time>2026-04-24T02:51:05.001Z</time></trkpt><trkpt lat="-19.82612624988022" lon="120.94102446274601"><ele>28.5</ele><time>2026-04-24T02:51:06.001Z</time></trkpt><trkpt lat="-19.826110001868102" lon="120.9412814715891"><ele>29.0</ele><time>2026-04-24T02:51:07.001Z</time></trkpt><trkpt lat="-19.826091327278736" lon="120.94153538478123"><ele>30.0</ele><time>2026-04-24T02:51:08.001Z</time></trkpt><trkpt lat="-19.826068041799942" lon="120.94178817887625"><ele>31.0</ele><time>2026-04-24T02:51:09.001Z</time></trkpt><trkpt lat="-19.82603857465015" lon="120.94204532349555"><ele>31.0</ele><time>2026-04-24T02:51:10.001Z</time></trkpt><trkpt lat="-19.826004879298523" lon="120.94231105153722"><ele>31.0</ele><time>2026-04-24T02:51:11.001Z</time></trkpt><trkpt lat="-19.82596714481056" lon="120.94257513321861"><ele>30.5</ele><time>2026-04-24T02:51:12.001Z</time></trkpt><trkpt lat="-19.825930414818014" lon="120.94284482168517"><ele>30.0</ele><time>2026-04-24T02:51:13.001Z</time></trkpt><trkpt lat="-19.825891030709705" lon="120.94311531234814"><ele>29.5</ele><time>2026-04-24T02:51:14.001Z</time></trkpt><trkpt lat="-19.825847057865253" lon="120.94338238099117"><ele>29.0</ele><time>2026-04-24T02:51:15.001Z</time></trkpt><trkpt lat="-19.825795779095337" lon="120.94365379527378"><ele>29.0</ele><time>2026-04-24T02:51:16.001Z</time></trkpt><trkpt lat="-19.82573834764255" lon="120.94392299547326"><ele>29.0</ele><time>2026-04-24T02:51:17.001Z</time></trkpt><trkpt lat="-19.82567339731107" lon="120.94418919523106"><ele>28.5</ele><time>2026-04-24T02:51:18.001Z</time></trkpt><trkpt lat="-19.825602274522836" lon="120.94445252099746"><ele>28.0</ele><time>2026-04-24T02:51:19.001Z</time></trkpt><trkpt lat="-19.825529747239642" lon="120.94471998867606"><ele>28.0</ele><time>2026-04-24T02:51:20.001Z</time></trkpt><trkpt lat="-19.82545927444726" lon="120.94497491949478"><ele>28.0</ele><time>2026-04-24T02:51:21.001Z</time></trkpt><trkpt lat="-19.82538649367116" lon="120.94523118229453"><ele>28.0</ele><time>2026-04-24T02:51:22.001Z</time></trkpt><trkpt lat="-19.825306866874207" lon="120.94548995907223"><ele>28.0</ele><time>2026-04-24T02:51:23.001Z</time></trkpt><trkpt lat="-19.825218625309205" lon="120.94574485621511"><ele>27.5</ele><time>2026-04-24T02:51:24.001Z</time></trkpt><trkpt lat="-19.825123790113164" lon="120.94600400128202"><ele>27.0</ele><time>2026-04-24T02:51:25.001Z</time></trkpt><trkpt lat="-19.825028100031545" lon="120.94626790921103"><ele>27.0</ele><time>2026-04-24T02:51:26.001Z</time></trkpt><trkpt lat="-19.824934352846263" lon="120.94653417516298"><ele>27.0</ele><time>2026-04-24T02:51:27.001Z</time></trkpt><trkpt lat="-19.82483712206847" lon="120.94679963704021"><ele>29.0</ele><time>2026-04-24T02:51:28.001Z</time></trkpt><trkpt lat="-19.824741693395595" lon="120.94706295630714"><ele>31.0</ele><time>2026-04-24T02:51:29.001Z</time></trkpt><trkpt lat="-19.824649933247542" lon="120.94732623012982"><ele>30.5</ele><time>2026-04-24T02:51:30.001Z</time></trkpt><trkpt lat="-19.82456130465043" lon="120.94758950747202"><ele>30.0</ele><time>2026-04-24T02:51:31.001Z</time></trkpt><trkpt lat="-19.82447315801691" lon="120.94785089297216"><ele>30.0</ele><time>2026-04-24T02:51:32.001Z</time></trkpt><trkpt lat="-19.824382393718913" lon="120.9481130427034"><ele>30.0</ele><time>2026-04-24T02:51:33.001Z</time></trkpt><trkpt lat="-19.82429033523992" lon="120.94836894872836"><ele>29.5</ele><time>2026-04-24T02:51:34.001Z</time></trkpt><trkpt lat="-19.824198121034655" lon="120.94862321470279"><ele>29.0</ele><time>2026-04-24T02:51:35.001Z</time></trkpt><trkpt lat="-19.82410601425355" lon="120.94887634378533"><ele>29.0</ele><time>2026-04-24T02:51:36.001Z</time></trkpt><trkpt lat="-19.824013931965933" lon="120.94912621587783"><ele>29.0</ele><time>2026-04-24T02:51:37.001Z</time></trkpt><trkpt lat="-19.823923217391087" lon="120.94937080812082"><ele>30.0</ele><time>2026-04-24T02:51:38.001Z</time></trkpt><trkpt lat="-19.82382725544142" lon="120.9496186360358"><ele>31.0</ele><time>2026-04-24T02:51:39.001Z</time></trkpt><trkpt lat="-19.82373894591556" lon="120.94986170222069"><ele>30.5</ele><time>2026-04-24T02:51:40.001Z</time></trkpt><trkpt lat="-19.823652396646086" lon="120.9501075365157"><ele>30.0</ele><time>2026-04-24T02:51:41.001Z</time></trkpt><trkpt lat="-19.823568451970267" lon="120.95034927970143"><ele>30.0</ele><time>2026-04-24T02:51:42.001Z</time></trkpt><trkpt lat="-19.82348124264824" lon="120.95059394140036"><ele>30.0</ele><time>2026-04-24T02:51:43.001Z</time></trkpt><trkpt lat="-19.82339356974667" lon="120.95083610228858"><ele>29.0</ele><time>2026-04-24T02:51:44.001Z</time></trkpt><trkpt lat="-19.823307611588575" lon="120.95107461763124"><ele>28.0</ele><time>2026-04-24T02:51:45.001Z</time></trkpt><trkpt lat="-19.823225171185424" lon="120.95131467540645"><ele>28.0</ele><time>2026-04-24T02:51:46.001Z</time></trkpt><trkpt lat="-19.82314258384124" lon="120.9515575158855"><ele>28.0</ele><time>2026-04-24T02:51:47.001Z</time></trkpt><trkpt lat="-19.823059414396056" lon="120.95179514692869"><ele>28.0</ele><time>2026-04-24T02:51:48.001Z</time></trkpt><trkpt lat="-19.82297265973988" lon="120.95203149742045"><ele>28.0</ele><time>2026-04-24T02:51:49.001Z</time></trkpt><trkpt lat="-19.822884638081327" lon="120.9522671552249"><ele>32.0</ele><time>2026-04-24T02:51:50.001Z</time></trkpt><trkpt lat="-19.822711229904062" lon="120.95274177268765"><ele>30.5</ele><time>2026-04-24T02:51:52.001Z</time></trkpt><trkpt lat="-19.822632069437446" lon="120.95297665910329"><ele>29.0</ele><time>2026-04-24T02:51:53Z</time></trkpt><trkpt lat="-19.822552177545738" lon="120.95321560355407"><ele>29.0</ele><time>2026-04-24T02:51:54Z</time></trkpt><trkpt lat="-19.822471262350735" lon="120.9534557009096"><ele>29.0</ele><time>2026-04-24T02:51:55Z</time></trkpt><trkpt lat="-19.82238894714943" lon="120.95369655327458"><ele>29.0</ele><time>2026-04-24T02:51:56Z</time></trkpt><trkpt lat="-19.822307057204977" lon="120.95394180535763"><ele>29.0</ele><time>2026-04-24T02:51:57Z</time></trkpt><trkpt lat="-19.822217487362522" lon="120.95419253349377"><ele>30.5</ele><time>2026-04-24T02:51:58Z</time></trkpt><trkpt lat="-19.82211867053028" lon="120.95444498011108"><ele>32.0</ele><time>2026-04-24T02:51:59Z</time></trkpt><trkpt lat="-19.822019690780763" lon="120.95470633289032"><ele>32.0</ele><time>2026-04-24T02:52:00Z</time></trkpt><trkpt lat="-19.821922029299095" lon="120.95496819387581"><ele>32.0</ele><time>2026-04-24T02:52:01Z</time></trkpt><trkpt lat="-19.821826405878973" lon="120.95523503781612"><ele>30.5</ele><time>2026-04-24T02:52:02Z</time></trkpt><trkpt lat="-19.82173293420276" lon="120.95550288567141"><ele>29.0</ele><time>2026-04-24T02:52:03Z</time></trkpt><trkpt lat="-19.82163865042289" lon="120.95577563888135"><ele>28.5</ele><time>2026-04-24T02:52:04Z</time></trkpt><trkpt lat="-19.82153814325466" lon="120.9560548513162"><ele>28.0</ele><time>2026-04-24T02:52:05Z</time></trkpt><trkpt lat="-19.82143756147572" lon="120.95633480158646"><ele>28.0</ele><time>2026-04-24T02:52:06Z</time></trkpt><trkpt lat="-19.82134054260049" lon="120.9565989197077"><ele>28.0</ele><time>2026-04-24T02:52:07Z</time></trkpt><trkpt lat="-19.821247530441354" lon="120.95684611057682"><ele>29.0</ele><time>2026-04-24T02:52:08Z</time></trkpt><trkpt lat="-19.821152160968715" lon="120.95710733587977"><ele>30.0</ele><time>2026-04-24T02:52:09Z</time></trkpt><trkpt lat="-19.821056045605424" lon="120.95737610445205"><ele>30.5</ele><time>2026-04-24T02:52:10Z</time></trkpt><trkpt lat="-19.820957013595898" lon="120.95764966763436"><ele>31.0</ele><time>2026-04-24T02:52:11Z</time></trkpt><trkpt lat="-19.820856278501125" lon="120.9579253002019"><ele>31.0</ele><time>2026-04-24T02:52:12Z</time></trkpt><trkpt lat="-19.82075822269145" lon="120.95820408654717"><ele>31.0</ele><time>2026-04-24T02:52:13Z</time></trkpt><trkpt lat="-19.82066251256727" lon="120.95848034946901"><ele>30.5</ele><time>2026-04-24T02:52:14Z</time></trkpt><trkpt lat="-19.820566041862655" lon="120.95875497392899"><ele>30.0</ele><time>2026-04-24T02:52:15Z</time></trkpt><trkpt lat="-19.82046941070166" lon="120.95902463123066"><ele>30.5</ele><time>2026-04-24T02:52:16Z</time></trkpt><trkpt lat="-19.82036981368103" lon="120.95929540716502"><ele>31.0</ele><time>2026-04-24T02:52:17Z</time></trkpt><trkpt lat="-19.820269156286393" lon="120.95955802643475"><ele>31.0</ele><time>2026-04-24T02:52:18Z</time></trkpt><trkpt lat="-19.82016426561415" lon="120.95982122294028"><ele>31.0</ele><time>2026-04-24T02:52:19Z</time></trkpt><trkpt lat="-19.82005218223179" lon="120.96008112429898"><ele>30.0</ele><time>2026-04-24T02:52:20Z</time></trkpt><trkpt lat="-19.81992960547246" lon="120.96034017055801"><ele>29.0</ele><time>2026-04-24T02:52:21Z</time></trkpt><trkpt lat="-19.81979799356258" lon="120.96060191467826"><ele>29.0</ele><time>2026-04-24T02:52:22Z</time></trkpt><trkpt lat="-19.819664788085692" lon="120.96086207419313"><ele>29.0</ele><time>2026-04-24T02:52:23Z</time></trkpt><trkpt lat="-19.819531912665425" lon="120.96111786238697"><ele>28.5</ele><time>2026-04-24T02:52:24Z</time></trkpt><trkpt lat="-19.81940015089892" lon="120.9613676674687"><ele>28.0</ele><time>2026-04-24T02:52:25Z</time></trkpt><trkpt lat="-19.81926612446068" lon="120.96161815738886"><ele>29.0</ele><time>2026-04-24T02:52:26Z</time></trkpt><trkpt lat="-19.819127162840385" lon="120.96186691806943"><ele>30.0</ele><time>2026-04-24T02:52:27Z</time></trkpt><trkpt lat="-19.81898540331701" lon="120.96211101100906"><ele>30.0</ele><time>2026-04-24T02:52:28Z</time></trkpt><trkpt lat="-19.818845600407755" lon="120.96235673217515"><ele>30.0</ele><time>2026-04-24T02:52:29Z</time></trkpt><trkpt lat="-19.818706947755413" lon="120.96260306421412"><ele>30.0</ele><time>2026-04-24T02:52:30Z</time></trkpt><trkpt lat="-19.818569156461702" lon="120.96285082217697"><ele>30.0</ele><time>2026-04-24T02:52:31Z</time></trkpt><trkpt lat="-19.818432781113273" lon="120.96309463002643"><ele>30.5</ele><time>2026-04-24T02:52:32Z</time></trkpt><trkpt lat="-19.81829834066687" lon="120.96333809923891"><ele>31.0</ele><time>2026-04-24T02:52:33Z</time></trkpt><trkpt lat="-19.818165529000108" lon="120.96357926914965"><ele>30.0</ele><time>2026-04-24T02:52:34Z</time></trkpt><trkpt lat="-19.818031684677596" lon="120.96381695478763"><ele>29.0</ele><time>2026-04-24T02:52:35Z</time></trkpt><trkpt lat="-19.81790050698487" lon="120.96405069020263"><ele>29.0</ele><time>2026-04-24T02:52:36Z</time></trkpt><trkpt lat="-19.81777467072663" lon="120.96428275412124"><ele>29.0</ele><time>2026-04-24T02:52:37Z</time></trkpt><trkpt lat="-19.817646769091755" lon="120.96451762089252"><ele>27.5</ele><time>2026-04-24T02:52:38Z</time></trkpt><trkpt lat="-19.81751825544723" lon="120.96475164494431"><ele>26.0</ele><time>2026-04-24T02:52:39Z</time></trkpt><trkpt lat="-19.81738684234267" lon="120.96498846801917"><ele>26.0</ele><time>2026-04-24T02:52:40Z</time></trkpt><trkpt lat="-19.817251682095325" lon="120.96523127142197"><ele>26.0</ele><time>2026-04-24T02:52:41Z</time></trkpt><trkpt lat="-19.817115573194364" lon="120.96547947256035"><ele>26.0</ele><time>2026-04-24T02:52:42Z</time></trkpt><trkpt lat="-19.816979931231703" lon="120.96572660419723"><ele>26.0</ele><time>2026-04-24T02:52:43Z</time></trkpt><trkpt lat="-19.81684153134734" lon="120.96597768163689"><ele>25.5</ele><time>2026-04-24T02:52:44Z</time></trkpt><trkpt lat="-19.816705146443873" lon="120.96622550193159"><ele>25.0</ele><time>2026-04-24T02:52:45Z</time></trkpt><trkpt lat="-19.816563711574375" lon="120.9664760304995"><ele>25.0</ele><time>2026-04-24T02:52:46Z</time></trkpt><trkpt lat="-19.8164214743502" lon="120.96672999828057"><ele>25.0</ele><time>2026-04-24T02:52:47Z</time></trkpt><trkpt lat="-19.816278819192505" lon="120.96698585725716"><ele>25.0</ele><time>2026-04-24T02:52:48Z</time></trkpt><trkpt lat="-19.816135300399772" lon="120.96724286179285"><ele>25.0</ele><time>2026-04-24T02:52:49Z</time></trkpt><trkpt lat="-19.81599227337162" lon="120.9674995951995"><ele>25.0</ele><time>2026-04-24T02:52:50Z</time></trkpt><trkpt lat="-19.815851334505656" lon="120.96775902952527"><ele>25.0</ele><time>2026-04-24T02:52:51Z</time></trkpt><trkpt lat="-19.815711121483123" lon="120.96801676746827"><ele>25.0</ele><time>2026-04-24T02:52:52Z</time></trkpt><trkpt lat="-19.815569767509533" lon="120.96827245871593"><ele>25.0</ele><time>2026-04-24T02:52:53Z</time></trkpt><trkpt lat="-19.81542842073475" lon="120.96852432972213"><ele>26.0</ele><time>2026-04-24T02:52:54.001Z</time></trkpt><trkpt lat="-19.815149579389125" lon="120.96902393938284"><ele>25.5</ele><time>2026-04-24T02:52:56.001Z</time></trkpt><trkpt lat="-19.81501270381651" lon="120.96927305572063"><ele>25.0</ele><time>2026-04-24T02:52:57.001Z</time></trkpt><trkpt lat="-19.814876022433957" lon="120.96952126117985"><ele>25.0</ele><time>2026-04-24T02:52:58.001Z</time></trkpt><trkpt lat="-19.814732811062925" lon="120.96977407082544"><ele>25.0</ele><time>2026-04-24T02:52:59.001Z</time></trkpt><trkpt lat="-19.81459457762068" lon="120.97002071432829"><ele>25.0</ele><time>2026-04-24T02:53:00.001Z</time></trkpt><trkpt lat="-19.814454066303043" lon="120.97027207456603"><ele>25.0</ele><time>2026-04-24T02:53:01.001Z</time></trkpt><trkpt lat="-19.81431293057959" lon="120.97052626193242"><ele>25.0</ele><time>2026-04-24T02:53:02.001Z</time></trkpt><trkpt lat="-19.814173875770557" lon="120.97077827691055"><ele>25.0</ele><time>2026-04-24T02:53:03.001Z</time></trkpt><trkpt lat="-19.814033368787815" lon="120.97103189567854"><ele>25.5</ele><time>2026-04-24T02:53:04.001Z</time></trkpt><trkpt lat="-19.813892018012805" lon="120.97128476779142"><ele>26.0</ele><time>2026-04-24T02:53:05.001Z</time></trkpt><trkpt lat="-19.813747990183572" lon="120.97153947196784"><ele>26.0</ele><time>2026-04-24T02:53:06.001Z</time></trkpt><trkpt lat="-19.813603521241568" lon="120.97179717058835"><ele>26.0</ele><time>2026-04-24T02:53:07.001Z</time></trkpt><trkpt lat="-19.81346173984254" lon="120.97205824571508"><ele>26.0</ele><time>2026-04-24T02:53:08.001Z</time></trkpt><trkpt lat="-19.813320765674955" lon="120.97231988195269"><ele>26.0</ele><time>2026-04-24T02:53:09.001Z</time></trkpt><trkpt lat="-19.81318281273376" lon="120.97258085435544"><ele>26.0</ele><time>2026-04-24T02:53:10.001Z</time></trkpt><trkpt lat="-19.813042130191853" lon="120.97283870126142"><ele>26.0</ele><time>2026-04-24T02:53:11.001Z</time></trkpt><trkpt lat="-19.81289852643904" lon="120.97309202512233"><ele>26.0</ele><time>2026-04-24T02:53:12.001Z</time></trkpt><trkpt lat="-19.8127541154037" lon="120.97334396433544"><ele>26.0</ele><time>2026-04-24T02:53:13.001Z</time></trkpt><trkpt lat="-19.8126127173802" lon="120.97359401490061"><ele>26.0</ele><time>2026-04-24T02:53:14.001Z</time></trkpt><trkpt lat="-19.812475737053113" lon="120.97384210455313"><ele>26.0</ele><time>2026-04-24T02:53:15.001Z</time></trkpt><trkpt lat="-19.812341698443912" lon="120.9740859317934"><ele>27.0</ele><time>2026-04-24T02:53:16.001Z</time></trkpt><trkpt lat="-19.812207314238663" lon="120.97433277182232"><ele>28.0</ele><time>2026-04-24T02:53:17.001Z</time></trkpt><trkpt lat="-19.81207410008683" lon="120.97457738319457"><ele>28.0</ele><time>2026-04-24T02:53:18.001Z</time></trkpt><trkpt lat="-19.811940359014613" lon="120.97482440116758"><ele>28.0</ele><time>2026-04-24T02:53:19.001Z</time></trkpt><trkpt lat="-19.811803600845046" lon="120.9750694652237"><ele>27.0</ele><time>2026-04-24T02:53:20.001Z</time></trkpt><trkpt lat="-19.811663194762062" lon="120.97531703896911"><ele>26.0</ele><time>2026-04-24T02:53:21.001Z</time></trkpt><trkpt lat="-19.811523253892595" lon="120.97556382119188"><ele>26.0</ele><time>2026-04-24T02:53:22.001Z</time></trkpt><trkpt lat="-19.811385408757037" lon="120.97581414170317"><ele>26.0</ele><time>2026-04-24T02:53:23.001Z</time></trkpt><trkpt lat="-19.811248593415517" lon="120.97606131474515"><ele>26.0</ele><time>2026-04-24T02:53:24.001Z</time></trkpt><trkpt lat="-19.811112282266023" lon="120.97630912541605"><ele>26.0</ele><time>2026-04-24T02:53:25.001Z</time></trkpt><trkpt lat="-19.810971804301047" lon="120.97656132716908"><ele>26.0</ele><time>2026-04-24T02:53:26.001Z</time></trkpt><trkpt lat="-19.810832934960754" lon="120.9768145876724"><ele>26.0</ele><time>2026-04-24T02:53:27.001Z</time></trkpt><trkpt lat="-19.810694351806458" lon="120.97706763677306"><ele>26.0</ele><time>2026-04-24T02:53:28.001Z</time></trkpt><trkpt lat="-19.81055829259291" lon="120.9773205307332"><ele>26.0</ele><time>2026-04-24T02:53:29.001Z</time></trkpt><trkpt lat="-19.810420995969423" lon="120.97757419911107"><ele>25.5</ele><time>2026-04-24T02:53:30.001Z</time></trkpt><trkpt lat="-19.81028516515632" lon="120.9778198080815"><ele>25.0</ele><time>2026-04-24T02:53:31.001Z</time></trkpt><trkpt lat="-19.810146155564382" lon="120.97806575278537"><ele>25.0</ele><time>2026-04-24T02:53:32.001Z</time></trkpt><trkpt lat="-19.81000640272103" lon="120.9783091914959"><ele>25.0</ele><time>2026-04-24T02:53:33.001Z</time></trkpt><trkpt lat="-19.80986884248694" lon="120.97855284493171"><ele>24.5</ele><time>2026-04-24T02:53:34.001Z</time></trkpt><trkpt lat="-19.809730973072753" lon="120.9787969053641"><ele>24.0</ele><time>2026-04-24T02:53:35.001Z</time></trkpt><trkpt lat="-19.809591976183807" lon="120.97904329833635"><ele>25.5</ele><time>2026-04-24T02:53:36.001Z</time></trkpt><trkpt lat="-19.809452320592765" lon="120.97929059287087"><ele>27.0</ele><time>2026-04-24T02:53:37.001Z</time></trkpt><trkpt lat="-19.80931500437366" lon="120.97953661648233"><ele>27.0</ele><time>2026-04-24T02:53:38.001Z</time></trkpt><trkpt lat="-19.809177672719745" lon="120.97978342458335"><ele>27.0</ele><time>2026-04-24T02:53:39.001Z</time></trkpt><trkpt lat="-19.809043107209785" lon="120.98002905591092"><ele>27.0</ele><time>2026-04-24T02:53:40.001Z</time></trkpt><trkpt lat="-19.808908391835313" lon="120.98027315646264"><ele>27.0</ele><time>2026-04-24T02:53:41.001Z</time></trkpt><trkpt lat="-19.80877224604608" lon="120.98051928252671"><ele>27.0</ele><time>2026-04-24T02:53:42.001Z</time></trkpt><trkpt lat="-19.808636361364815" lon="120.98076700568423"><ele>27.0</ele><time>2026-04-24T02:53:43.001Z</time></trkpt><trkpt lat="-19.808502546483165" lon="120.98101194942107"><ele>28.0</ele><time>2026-04-24T02:53:44.001Z</time></trkpt><trkpt lat="-19.808369528525557" lon="120.98125784775837"><ele>29.0</ele><time>2026-04-24T02:53:45.001Z</time></trkpt><trkpt lat="-19.80823643457013" lon="120.98150459301799"><ele>28.0</ele><time>2026-04-24T02:53:46.001Z</time></trkpt><trkpt lat="-19.80810120559651" lon="120.98175137220112"><ele>27.0</ele><time>2026-04-24T02:53:47.001Z</time></trkpt><trkpt lat="-19.807962814632685" lon="120.98200124049136"><ele>27.0</ele><time>2026-04-24T02:53:48.001Z</time></trkpt><trkpt lat="-19.807826678362993" lon="120.98225179609683"><ele>27.0</ele><time>2026-04-24T02:53:49.001Z</time></trkpt><trkpt lat="-19.807695895294582" lon="120.98249582404928"><ele>26.0</ele><time>2026-04-24T02:53:50.001Z</time></trkpt><trkpt lat="-19.807563670480047" lon="120.98273920786367"><ele>25.0</ele><time>2026-04-24T02:53:51.001Z</time></trkpt><trkpt lat="-19.807427642412858" lon="120.98297941138391"><ele>25.0</ele><time>2026-04-24T02:53:52.001Z</time></trkpt><trkpt lat="-19.807295287064676" lon="120.98321934899269"><ele>25.0</ele><time>2026-04-24T02:53:53.001Z</time></trkpt><trkpt lat="-19.807166654558632" lon="120.98345385383242"><ele>26.5</ele><time>2026-04-24T02:53:54.001Z</time></trkpt><trkpt lat="-19.807040170467843" lon="120.98368600647837"><ele>28.0</ele><time>2026-04-24T02:53:55.001Z</time></trkpt><trkpt lat="-19.80691371635905" lon="120.98391357134719"><ele>28.0</ele><time>2026-04-24T02:53:56.001Z</time></trkpt><trkpt lat="-19.806785045373918" lon="120.98414082930306"><ele>28.0</ele><time>2026-04-24T02:53:57.001Z</time></trkpt><trkpt lat="-19.806660482389255" lon="120.98436513456659"><ele>28.0</ele><time>2026-04-24T02:53:58Z</time></trkpt><trkpt lat="-19.80653583755528" lon="120.9845908636788"><ele>28.0</ele><time>2026-04-24T02:53:59Z</time></trkpt><trkpt lat="-19.806407762572157" lon="120.98481719361142"><ele>28.5</ele><time>2026-04-24T02:54:00Z</time></trkpt><trkpt lat="-19.80628382405415" lon="120.98504521950336"><ele>29.0</ele><time>2026-04-24T02:54:01Z</time></trkpt><trkpt lat="-19.806169870811665" lon="120.98527746552413"><ele>29.0</ele><time>2026-04-24T02:54:02Z</time></trkpt><trkpt lat="-19.806064031834666" lon="120.98551468406271"><ele>29.0</ele><time>2026-04-24T02:54:03Z</time></trkpt><trkpt lat="-19.80595509194758" lon="120.98575217310251"><ele>29.5</ele><time>2026-04-24T02:54:04Z</time></trkpt><trkpt lat="-19.805839860524777" lon="120.98599630438214"><ele>30.0</ele><time>2026-04-24T02:54:05Z</time></trkpt><trkpt lat="-19.805731353825575" lon="120.98623329490856"><ele>30.0</ele><time>2026-04-24T02:54:06Z</time></trkpt><trkpt lat="-19.80562555256269" lon="120.98646851445238"><ele>30.0</ele><time>2026-04-24T02:54:07Z</time></trkpt><trkpt lat="-19.80551980802438" lon="120.9867023568911"><ele>29.5</ele><time>2026-04-24T02:54:08Z</time></trkpt><trkpt lat="-19.805410116212705" lon="120.98693852216554"><ele>29.0</ele><time>2026-04-24T02:54:09Z</time></trkpt><trkpt lat="-19.80529673675832" lon="120.98717288970266"><ele>29.0</ele><time>2026-04-24T02:54:10Z</time></trkpt><trkpt lat="-19.80518545579892" lon="120.98740347709227"><ele>29.0</ele><time>2026-04-24T02:54:11Z</time></trkpt><trkpt lat="-19.80507609533051" lon="120.9876405042677"><ele>28.5</ele><time>2026-04-24T02:54:12Z</time></trkpt><trkpt lat="-19.804971207099353" lon="120.98787552007"><ele>28.0</ele><time>2026-04-24T02:54:13Z</time></trkpt><trkpt lat="-19.804864445057365" lon="120.98811368292165"><ele>27.0</ele><time>2026-04-24T02:54:14Z</time></trkpt><trkpt lat="-19.80475404595501" lon="120.98834825787142"><ele>26.0</ele><time>2026-04-24T02:54:15Z</time></trkpt><trkpt lat="-19.804642555504405" lon="120.98858520067174"><ele>26.0</ele><time>2026-04-24T02:54:16Z</time></trkpt><trkpt lat="-19.804527883974483" lon="120.98882144873545"><ele>26.0</ele><time>2026-04-24T02:54:17Z</time></trkpt><trkpt lat="-19.804415683255552" lon="120.98905478861498"><ele>26.5</ele><time>2026-04-24T02:54:18Z</time></trkpt><trkpt lat="-19.804305306155964" lon="120.98928843267227"><ele>27.0</ele><time>2026-04-24T02:54:19Z</time></trkpt><trkpt lat="-19.804197210158534" lon="120.989525529705"><ele>27.0</ele><time>2026-04-24T02:54:20Z</time></trkpt><trkpt lat="-19.80408626528679" lon="120.98975974988662"><ele>27.0</ele><time>2026-04-24T02:54:21Z</time></trkpt><trkpt lat="-19.803972180560066" lon="120.98999925393399"><ele>27.0</ele><time>2026-04-24T02:54:22Z</time></trkpt><trkpt lat="-19.80385805840631" lon="120.99023926952756"><ele>27.0</ele><time>2026-04-24T02:54:23Z</time></trkpt><trkpt lat="-19.80374387893605" lon="120.99047863910927"><ele>27.0</ele><time>2026-04-24T02:54:24Z</time></trkpt><trkpt lat="-19.803632298562427" lon="120.99071754918441"><ele>27.0</ele><time>2026-04-24T02:54:25Z</time></trkpt><trkpt lat="-19.8035210759014" lon="120.99095683649223"><ele>28.0</ele><time>2026-04-24T02:54:26Z</time></trkpt><trkpt lat="-19.80340934752243" lon="120.99119882674569"><ele>29.0</ele><time>2026-04-24T02:54:27Z</time></trkpt><trkpt lat="-19.803295318888658" lon="120.99144658608921"><ele>28.0</ele><time>2026-04-24T02:54:28Z</time></trkpt><trkpt lat="-19.803181715900372" lon="120.9916934079392"><ele>27.0</ele><time>2026-04-24T02:54:29Z</time></trkpt><trkpt lat="-19.803069654578294" lon="120.99193638677735"><ele>27.0</ele><time>2026-04-24T02:54:30Z</time></trkpt><trkpt lat="-19.80295499183368" lon="120.99217784554364"><ele>27.0</ele><time>2026-04-24T02:54:31Z</time></trkpt><trkpt lat="-19.802843209614" lon="120.99241489017139"><ele>27.0</ele><time>2026-04-24T02:54:32Z</time></trkpt><trkpt lat="-19.80273559139573" lon="120.9926577081178"><ele>27.0</ele><time>2026-04-24T02:54:33Z</time></trkpt><trkpt lat="-19.802626197850643" lon="120.9928967836612"><ele>27.0</ele><time>2026-04-24T02:54:34Z</time></trkpt><trkpt lat="-19.802515870544454" lon="120.9931339376765"><ele>27.0</ele><time>2026-04-24T02:54:35Z</time></trkpt><trkpt lat="-19.802405694185744" lon="120.99336786735478"><ele>27.0</ele><time>2026-04-24T02:54:36Z</time></trkpt><trkpt lat="-19.802296958005034" lon="120.99359930118915"><ele>27.0</ele><time>2026-04-24T02:54:37Z</time></trkpt><trkpt lat="-19.802188700323367" lon="120.99383469434002"><ele>27.0</ele><time>2026-04-24T02:54:38Z</time></trkpt><trkpt lat="-19.802081485529957" lon="120.99406522455234"><ele>27.0</ele><time>2026-04-24T02:54:39Z</time></trkpt><trkpt lat="-19.801972597807573" lon="120.99429569794063"><ele>27.5</ele><time>2026-04-24T02:54:40Z</time></trkpt><trkpt lat="-19.801862534387944" lon="120.99452335792131"><ele>28.0</ele><time>2026-04-24T02:54:41Z</time></trkpt><trkpt lat="-19.801751385027472" lon="120.99475432880719"><ele>26.5</ele><time>2026-04-24T02:54:42Z</time></trkpt><trkpt lat="-19.80164475217866" lon="120.99498258690095"><ele>25.0</ele><time>2026-04-24T02:54:43Z</time></trkpt><trkpt lat="-19.80154006274741" lon="120.99521189849678"><ele>24.0</ele><time>2026-04-24T02:54:44Z</time></trkpt><trkpt lat="-19.801437079209684" lon="120.99544133448005"><ele>23.0</ele><time>2026-04-24T02:54:45Z</time></trkpt><trkpt lat="-19.80133389481224" lon="120.99567000632965"><ele>22.5</ele><time>2026-04-24T02:54:46Z</time></trkpt><trkpt lat="-19.801229510538246" lon="120.99590046529892"><ele>22.0</ele><time>2026-04-24T02:54:47Z</time></trkpt><trkpt lat="-19.80112612015007" lon="120.99612409399955"><ele>22.0</ele><time>2026-04-24T02:54:48Z</time></trkpt><trkpt lat="-19.80102004024087" lon="120.99634708624956"><ele>22.0</ele><time>2026-04-24T02:54:49Z</time></trkpt><trkpt lat="-19.80091026764337" lon="120.9965716025904"><ele>22.5</ele><time>2026-04-24T02:54:50Z</time></trkpt><trkpt lat="-19.800799939362268" lon="120.99679895310915"><ele>23.0</ele><time>2026-04-24T02:54:51Z</time></trkpt><trkpt lat="-19.80069351798464" lon="120.99702992792675"><ele>23.0</ele><time>2026-04-24T02:54:52Z</time></trkpt><trkpt lat="-19.800590417433796" lon="120.99726449015857"><ele>23.0</ele><time>2026-04-24T02:54:53Z</time></trkpt><trkpt lat="-19.80048576316949" lon="120.99749721952199"><ele>23.5</ele><time>2026-04-24T02:54:54Z</time></trkpt><trkpt lat="-19.800377940440164" lon="120.99772649143908"><ele>24.0</ele><time>2026-04-24T02:54:55Z</time></trkpt><trkpt lat="-19.800266228426718" lon="120.99795280251783"><ele>24.0</ele><time>2026-04-24T02:54:56Z</time></trkpt><trkpt lat="-19.800156373065462" lon="120.99817975926688"><ele>24.0</ele><time>2026-04-24T02:54:57.001Z</time></trkpt><trkpt lat="-19.800051374596592" lon="120.99840816702077"><ele>23.0</ele><time>2026-04-24T02:54:58.001Z</time></trkpt><trkpt lat="-19.799949534632788" lon="120.99863702101776"><ele>22.0</ele><time>2026-04-24T02:54:59.001Z</time></trkpt><trkpt lat="-19.799845844014673" lon="120.99886563220066"><ele>22.0</ele><time>2026-04-24T02:55:00.001Z</time></trkpt><trkpt lat="-19.799740803166877" lon="120.99909674062711"><ele>22.0</ele><time>2026-04-24T02:55:01.001Z</time></trkpt><trkpt lat="-19.799633208081328" lon="120.99932570596437"><ele>22.0</ele><time>2026-04-24T02:55:02.001Z</time></trkpt><trkpt lat="-19.799517509207956" lon="120.99956529480201"><ele>22.0</ele><time>2026-04-24T02:55:03.001Z</time></trkpt><trkpt lat="-19.799403698067504" lon="120.99980973059589"><ele>20.5</ele><time>2026-04-24T02:55:04.001Z</time></trkpt><trkpt lat="-19.799289585879926" lon="121.00006048608421"><ele>19.0</ele><time>2026-04-24T02:55:05.001Z</time></trkpt><trkpt lat="-19.79917343687094" lon="121.00031320492644"><ele>19.0</ele><time>2026-04-24T02:55:06.001Z</time></trkpt><trkpt lat="-19.799055414503435" lon="121.00056928694144"><ele>19.0</ele><time>2026-04-24T02:55:07.001Z</time></trkpt><trkpt lat="-19.798935139199855" lon="121.00082765582309"><ele>19.5</ele><time>2026-04-24T02:55:08.001Z</time></trkpt><trkpt lat="-19.798813326060923" lon="121.00108648253625"><ele>20.0</ele><time>2026-04-24T02:55:09.001Z</time></trkpt><trkpt lat="-19.7986864752941" lon="121.00134626140158"><ele>20.0</ele><time>2026-04-24T02:55:10.001Z</time></trkpt><trkpt lat="-19.798562855346326" lon="121.00160434467784"><ele>20.0</ele><time>2026-04-24T02:55:11.001Z</time></trkpt><trkpt lat="-19.798439557775744" lon="121.00186985072335"><ele>22.0</ele><time>2026-04-24T02:55:12.001Z</time></trkpt><trkpt lat="-19.798315863430293" lon="121.0021355568868"><ele>24.0</ele><time>2026-04-24T02:55:13.001Z</time></trkpt><trkpt lat="-19.79819305196362" lon="121.00240049594545"><ele>23.0</ele><time>2026-04-24T02:55:14.001Z</time></trkpt><trkpt lat="-19.798070702011557" lon="121.00265953407609"><ele>22.0</ele><time>2026-04-24T02:55:15.001Z</time></trkpt><trkpt lat="-19.79795043195454" lon="121.00291628441279"><ele>22.0</ele><time>2026-04-24T02:55:16.001Z</time></trkpt><trkpt lat="-19.79783047432898" lon="121.00317625511185"><ele>22.0</ele><time>2026-04-24T02:55:17.001Z</time></trkpt><trkpt lat="-19.79759119980312" lon="121.00369300724137"><ele>21.0</ele><time>2026-04-24T02:55:19.001Z</time></trkpt><trkpt lat="-19.79747190166814" lon="121.00394827938658"><ele>20.0</ele><time>2026-04-24T02:55:20.001Z</time></trkpt><trkpt lat="-19.79735009593866" lon="121.004204754525"><ele>20.0</ele><time>2026-04-24T02:55:21.001Z</time></trkpt><trkpt lat="-19.797228082677623" lon="121.00446321605742"><ele>20.0</ele><time>2026-04-24T02:55:22.001Z</time></trkpt><trkpt lat="-19.797106560565126" lon="121.00472174450572"><ele>20.0</ele><time>2026-04-24T02:55:23.001Z</time></trkpt><trkpt lat="-19.7969863452563" lon="121.00498201206565"><ele>20.0</ele><time>2026-04-24T02:55:24.001Z</time></trkpt><trkpt lat="-19.796867135547288" lon="121.00524028067791"><ele>20.0</ele><time>2026-04-24T02:55:25.001Z</time></trkpt><trkpt lat="-19.796747550591785" lon="121.00549883468112"><ele>20.0</ele><time>2026-04-24T02:55:26.001Z</time></trkpt><trkpt lat="-19.79662750853077" lon="121.00575667977091"><ele>20.5</ele><time>2026-04-24T02:55:27.001Z</time></trkpt><trkpt lat="-19.796507025890552" lon="121.00601010479116"><ele>21.0</ele><time>2026-04-24T02:55:28.001Z</time></trkpt><trkpt lat="-19.796387292828904" lon="121.00626492498336"><ele>21.0</ele><time>2026-04-24T02:55:29.001Z</time></trkpt><trkpt lat="-19.79626823221495" lon="121.00651776250126"><ele>21.0</ele><time>2026-04-24T02:55:30.001Z</time></trkpt><trkpt lat="-19.796151327806534" lon="121.00676592961719"><ele>21.0</ele><time>2026-04-24T02:55:31.001Z</time></trkpt><trkpt lat="-19.796036406745458" lon="121.00701452836392"><ele>21.0</ele><time>2026-04-24T02:55:32.001Z</time></trkpt><trkpt lat="-19.79592037342318" lon="121.00726442353941"><ele>21.0</ele><time>2026-04-24T02:55:33.001Z</time></trkpt><trkpt lat="-19.795804796177666" lon="121.00751170786727"><ele>21.0</ele><time>2026-04-24T02:55:34.001Z</time></trkpt><trkpt lat="-19.795689475397264" lon="121.0077601490682"><ele>21.0</ele><time>2026-04-24T02:55:35.001Z</time></trkpt><trkpt lat="-19.79557593357338" lon="121.00800563158644"><ele>21.0</ele><time>2026-04-24T02:55:36.001Z</time></trkpt><trkpt lat="-19.79546264772373" lon="121.00825298651999"><ele>21.0</ele><time>2026-04-24T02:55:37.001Z</time></trkpt><trkpt lat="-19.79534995620835" lon="121.00849701328262"><ele>21.0</ele><time>2026-04-24T02:55:38.001Z</time></trkpt><trkpt lat="-19.795233503663177" lon="121.00874610610613"><ele>20.0</ele><time>2026-04-24T02:55:39.001Z</time></trkpt><trkpt lat="-19.795118058089415" lon="121.00898985808574"><ele>19.0</ele><time>2026-04-24T02:55:40.001Z</time></trkpt><trkpt lat="-19.795006041062905" lon="121.00923313893011"><ele>19.0</ele><time>2026-04-24T02:55:41.001Z</time></trkpt><trkpt lat="-19.794897653814175" lon="121.00946836743651"><ele>19.0</ele><time>2026-04-24T02:55:42.001Z</time></trkpt><trkpt lat="-19.794789317124767" lon="121.00970671131222"><ele>19.0</ele><time>2026-04-24T02:55:43.001Z</time></trkpt><trkpt lat="-19.794682938929554" lon="121.00994150606131"><ele>19.0</ele><time>2026-04-24T02:55:44.001Z</time></trkpt><trkpt lat="-19.794570441397198" lon="121.01018213312213"><ele>19.5</ele><time>2026-04-24T02:55:45.001Z</time></trkpt><trkpt lat="-19.794456706481338" lon="121.01042247325022"><ele>20.0</ele><time>2026-04-24T02:55:46.001Z</time></trkpt><trkpt lat="-19.7943491673619" lon="121.01067220389594"><ele>19.0</ele><time>2026-04-24T02:55:47.001Z</time></trkpt><trkpt lat="-19.79424949961784" lon="121.01092633941275"><ele>18.0</ele><time>2026-04-24T02:55:48.001Z</time></trkpt><trkpt lat="-19.794152036822364" lon="121.01118997296219"><ele>18.0</ele><time>2026-04-24T02:55:49.001Z</time></trkpt><trkpt lat="-19.794060459293267" lon="121.01144579051409"><ele>18.0</ele><time>2026-04-24T02:55:50.001Z</time></trkpt><trkpt lat="-19.79397022897926" lon="121.01170394059834"><ele>18.0</ele><time>2026-04-24T02:55:51.001Z</time></trkpt><trkpt lat="-19.793883227549937" lon="121.01196107047276"><ele>18.0</ele><time>2026-04-24T02:55:52.001Z</time></trkpt><trkpt lat="-19.793801809611374" lon="121.01221980629245"><ele>18.0</ele><time>2026-04-24T02:55:53.001Z</time></trkpt><trkpt lat="-19.793721362175106" lon="121.0124788510958"><ele>18.0</ele><time>2026-04-24T02:55:54.001Z</time></trkpt><trkpt lat="-19.7936431312495" lon="121.01273857964695"><ele>18.5</ele><time>2026-04-24T02:55:55.001Z</time></trkpt><trkpt lat="-19.793569789507114" lon="121.0130027183095"><ele>19.0</ele><time>2026-04-24T02:55:56.001Z</time></trkpt><trkpt lat="-19.793502105252582" lon="121.01326474303926"><ele>17.0</ele><time>2026-04-24T02:55:57.001Z</time></trkpt><trkpt lat="-19.793437645646765" lon="121.01352945620924"><ele>15.0</ele><time>2026-04-24T02:55:58.001Z</time></trkpt><trkpt lat="-19.793377460613186" lon="121.01379462495795"><ele>15.0</ele><time>2026-04-24T02:55:59.001Z</time></trkpt><trkpt lat="-19.793323349851867" lon="121.01405769672327"><ele>15.0</ele><time>2026-04-24T02:56:00.001Z</time></trkpt><trkpt lat="-19.793273501650805" lon="121.01432308071112"><ele>16.5</ele><time>2026-04-24T02:56:01.001Z</time></trkpt><trkpt lat="-19.793220850414798" lon="121.01458370584143"><ele>18.0</ele><time>2026-04-24T02:56:02.001Z</time></trkpt><trkpt lat="-19.79316189700386" lon="121.01484132125042"><ele>18.0</ele><time>2026-04-24T02:56:03.001Z</time></trkpt><trkpt lat="-19.793094915168616" lon="121.01509799896274"><ele>18.0</ele><time>2026-04-24T02:56:04Z</time></trkpt><trkpt lat="-19.793028507195434" lon="121.01535343997769"><ele>18.0</ele><time>2026-04-24T02:56:05Z</time></trkpt><trkpt lat="-19.79296783753888" lon="121.01560500260732"><ele>18.0</ele><time>2026-04-24T02:56:06Z</time></trkpt><trkpt lat="-19.792912310006194" lon="121.01585492601369"><ele>19.0</ele><time>2026-04-24T02:56:07Z</time></trkpt><trkpt lat="-19.792858036292937" lon="121.01609969436888"><ele>20.0</ele><time>2026-04-24T02:56:08Z</time></trkpt><trkpt lat="-19.792803974120357" lon="121.0163448206671"><ele>20.0</ele><time>2026-04-24T02:56:09Z</time></trkpt><trkpt lat="-19.792745993647934" lon="121.01659946545587"><ele>20.0</ele><time>2026-04-24T02:56:10Z</time></trkpt><trkpt lat="-19.792687029571496" lon="121.0168618586994"><ele>17.0</ele><time>2026-04-24T02:56:11Z</time></trkpt><trkpt lat="-19.792624912108117" lon="121.01713239511551"><ele>14.0</ele><time>2026-04-24T02:56:12Z</time></trkpt><trkpt lat="-19.792561759271532" lon="121.01740985929831"><ele>13.0</ele><time>2026-04-24T02:56:13Z</time></trkpt><trkpt lat="-19.792497093026057" lon="121.01769189844177"><ele>12.0</ele><time>2026-04-24T02:56:14Z</time></trkpt><trkpt lat="-19.792432358220385" lon="121.01797815824796"><ele>12.0</ele><time>2026-04-24T02:56:15Z</time></trkpt><trkpt lat="-19.79236417675905" lon="121.01826724320198"><ele>12.0</ele><time>2026-04-24T02:56:16Z</time></trkpt><trkpt lat="-19.792293133841376" lon="121.01855822673933"><ele>13.5</ele><time>2026-04-24T02:56:17Z</time></trkpt><trkpt lat="-19.792225500223854" lon="121.01884194649709"><ele>15.0</ele><time>2026-04-24T02:56:18Z</time></trkpt><trkpt lat="-19.792163790171916" lon="121.01911014779157"><ele>15.5</ele><time>2026-04-24T02:56:19Z</time></trkpt><trkpt lat="-19.79210623660958" lon="121.01936707021812"><ele>16.0</ele><time>2026-04-24T02:56:20Z</time></trkpt><trkpt lat="-19.792049297944104" lon="121.01962962620523"><ele>16.0</ele><time>2026-04-24T02:56:21Z</time></trkpt><trkpt lat="-19.791991225832504" lon="121.01989693040802"><ele>16.0</ele><time>2026-04-24T02:56:22Z</time></trkpt><trkpt lat="-19.791929520815405" lon="121.02016555472018"><ele>16.5</ele><time>2026-04-24T02:56:23Z</time></trkpt><trkpt lat="-19.791866094436653" lon="121.02043662313991"><ele>17.0</ele><time>2026-04-24T02:56:24Z</time></trkpt><trkpt lat="-19.791802402275387" lon="121.02070936872583"><ele>18.5</ele><time>2026-04-24T02:56:25Z</time></trkpt><trkpt lat="-19.791741505695246" lon="121.02098318142555"><ele>20.0</ele><time>2026-04-24T02:56:26Z</time></trkpt><trkpt lat="-19.791683955952667" lon="121.0212564674762"><ele>20.0</ele><time>2026-04-24T02:56:27Z</time></trkpt><trkpt lat="-19.79162388215994" lon="121.02153182325259"><ele>20.0</ele><time>2026-04-24T02:56:28Z</time></trkpt><trkpt lat="-19.791558787000728" lon="121.02181166316879"><ele>18.0</ele><time>2026-04-24T02:56:29Z</time></trkpt><trkpt lat="-19.79149423091001" lon="121.0220956206342"><ele>16.0</ele><time>2026-04-24T02:56:30Z</time></trkpt><trkpt lat="-19.791433008219023" lon="121.02237959950318"><ele>17.5</ele><time>2026-04-24T02:56:31Z</time></trkpt><trkpt lat="-19.791371187549327" lon="121.02265836996943"><ele>19.0</ele><time>2026-04-24T02:56:32Z</time></trkpt><trkpt lat="-19.79130798838534" lon="121.022944037198"><ele>19.0</ele><time>2026-04-24T02:56:33Z</time></trkpt><trkpt lat="-19.79124321623416" lon="121.02322433924944"><ele>19.0</ele><time>2026-04-24T02:56:34Z</time></trkpt><trkpt lat="-19.791171028321806" lon="121.02351489984933"><ele>17.0</ele><time>2026-04-24T02:56:35Z</time></trkpt><trkpt lat="-19.791098838497664" lon="121.02380076117625"><ele>15.0</ele><time>2026-04-24T02:56:36Z</time></trkpt><trkpt lat="-19.791031074948148" lon="121.02408785892"><ele>15.5</ele><time>2026-04-24T02:56:37Z</time></trkpt><trkpt lat="-19.790967728985272" lon="121.02437550472784"><ele>16.0</ele><time>2026-04-24T02:56:38Z</time></trkpt><trkpt lat="-19.79090472864526" lon="121.02466160641461"><ele>16.0</ele><time>2026-04-24T02:56:39Z</time></trkpt><trkpt lat="-19.79083806066006" lon="121.02494417833336"><ele>16.0</ele><time>2026-04-24T02:56:40Z</time></trkpt><trkpt lat="-19.7907714887332" lon="121.0252279914536"><ele>18.0</ele><time>2026-04-24T02:56:41Z</time></trkpt><trkpt lat="-19.79070807725652" lon="121.02550943389423"><ele>20.0</ele><time>2026-04-24T02:56:42Z</time></trkpt><trkpt lat="-19.79064617866478" lon="121.02578865182814"><ele>18.5</ele><time>2026-04-24T02:56:43Z</time></trkpt><trkpt lat="-19.79065715437739" lon="121.02607049349258"><ele>17.0</ele><time>2026-04-24T02:56:44Z</time></trkpt><trkpt lat="-19.790521365107097" lon="121.02635417117475"><ele>17.0</ele><time>2026-04-24T02:56:45Z</time></trkpt><trkpt lat="-19.79045483957644" lon="121.0266383005036"><ele>17.0</ele><time>2026-04-24T02:56:46Z</time></trkpt><trkpt lat="-19.790389231961257" lon="121.02692572125412"><ele>18.0</ele><time>2026-04-24T02:56:47Z</time></trkpt><trkpt lat="-19.790321626478434" lon="121.02721449064026"><ele>19.0</ele><time>2026-04-24T02:56:48Z</time></trkpt><trkpt lat="-19.790252778993448" lon="121.02750608996885"><ele>19.0</ele><time>2026-04-24T02:56:49Z</time></trkpt><trkpt lat="-19.790185660369268" lon="121.0277984561893"><ele>19.0</ele><time>2026-04-24T02:56:50Z</time></trkpt><trkpt lat="-19.79011986542673" lon="121.0280917710644"><ele>19.0</ele><time>2026-04-24T02:56:51Z</time></trkpt><trkpt lat="-19.790053488847878" lon="121.02838715598243"><ele>19.0</ele><time>2026-04-24T02:56:52Z</time></trkpt><trkpt lat="-19.789985986671603" lon="121.02868029219029"><ele>19.0</ele><time>2026-04-24T02:56:53Z</time></trkpt><trkpt lat="-19.789920790245247" lon="121.02897127952546"><ele>19.0</ele><time>2026-04-24T02:56:54Z</time></trkpt><trkpt lat="-19.78985441832351" lon="121.02926256482858"><ele>20.0</ele><time>2026-04-24T02:56:55.001Z</time></trkpt><trkpt lat="-19.789789569012505" lon="121.02955223651463"><ele>21.0</ele><time>2026-04-24T02:56:56.001Z</time></trkpt><trkpt lat="-19.78972292830427" lon="121.0298360332145"><ele>20.5</ele><time>2026-04-24T02:56:57.001Z</time></trkpt><trkpt lat="-19.78965638294676" lon="121.03011740535666"><ele>20.0</ele><time>2026-04-24T02:56:58.001Z</time></trkpt><trkpt lat="-19.789590609134102" lon="121.0303965172909"><ele>20.0</ele><time>2026-04-24T02:56:59.001Z</time></trkpt><trkpt lat="-19.789527331062736" lon="121.03067452785267"><ele>20.0</ele><time>2026-04-24T02:57:00.001Z</time></trkpt><trkpt lat="-19.789465171798085" lon="121.0309477163837"><ele>20.0</ele><time>2026-04-24T02:57:01.001Z</time></trkpt><trkpt lat="-19.789405067118615" lon="121.03122029271151"><ele>20.0</ele><time>2026-04-24T02:57:02.001Z</time></trkpt><trkpt lat="-19.78934303253908" lon="121.031497638167"><ele>20.0</ele><time>2026-04-24T02:57:03.001Z</time></trkpt><trkpt lat="-19.78927746442254" lon="121.03178332347936"><ele>20.0</ele><time>2026-04-24T02:57:04.001Z</time></trkpt><trkpt lat="-19.78921154345111" lon="121.0320701675648"><ele>20.0</ele><time>2026-04-24T02:57:05.001Z</time></trkpt><trkpt lat="-19.78914838387162" lon="121.03235253703541"><ele>20.0</ele><time>2026-04-24T02:57:06.001Z</time></trkpt><trkpt lat="-19.789084504341346" lon="121.03263939820313"><ele>20.0</ele><time>2026-04-24T02:57:07.001Z</time></trkpt><trkpt lat="-19.789018838040878" lon="121.0329256160244"><ele>20.0</ele><time>2026-04-24T02:57:08.001Z</time></trkpt><trkpt lat="-19.788956665757496" lon="121.03321253792134"><ele>19.5</ele><time>2026-04-24T02:57:09.001Z</time></trkpt><trkpt lat="-19.78889310862189" lon="121.03350157656217"><ele>19.0</ele><time>2026-04-24T02:57:10.001Z</time></trkpt><trkpt lat="-19.788828812950886" lon="121.03379424540144"><ele>19.0</ele><time>2026-04-24T02:57:11.001Z</time></trkpt><trkpt lat="-19.788762717723024" lon="121.03408698078572"><ele>19.0</ele><time>2026-04-24T02:57:12.001Z</time></trkpt><trkpt lat="-19.78869546933821" lon="121.03437791421246"><ele>20.5</ele><time>2026-04-24T02:57:13.001Z</time></trkpt><trkpt lat="-19.788625519228624" lon="121.03467208725417"><ele>22.0</ele><time>2026-04-24T02:57:14.001Z</time></trkpt><trkpt lat="-19.78855566860857" lon="121.03496586696635"><ele>20.5</ele><time>2026-04-24T02:57:15.001Z</time></trkpt><trkpt lat="-19.78848709351173" lon="121.03525849519964"><ele>19.0</ele><time>2026-04-24T02:57:16.001Z</time></trkpt><trkpt lat="-19.78841902655374" lon="121.03554730440106"><ele>19.0</ele><time>2026-04-24T02:57:17.001Z</time></trkpt><trkpt lat="-19.78835251465818" lon="121.03583805632101"><ele>19.0</ele><time>2026-04-24T02:57:18.001Z</time></trkpt><trkpt lat="-19.788285108989193" lon="121.03613035586454"><ele>19.0</ele><time>2026-04-24T02:57:19.001Z</time></trkpt><trkpt lat="-19.78821890281113" lon="121.03642195933487"><ele>19.0</ele><time>2026-04-24T02:57:20.001Z</time></trkpt><trkpt lat="-19.788154059701515" lon="121.03671010248146"><ele>18.0</ele><time>2026-04-24T02:57:21.001Z</time></trkpt><trkpt lat="-19.78809036375686" lon="121.0369987608532"><ele>17.0</ele><time>2026-04-24T02:57:22.001Z</time></trkpt><trkpt lat="-19.788024468711562" lon="121.03728732438474"><ele>17.0</ele><time>2026-04-24T02:57:23.001Z</time></trkpt><trkpt lat="-19.787955770460286" lon="121.03757616411393"><ele>17.0</ele><time>2026-04-24T02:57:24.001Z</time></trkpt><trkpt lat="-19.78788713923029" lon="121.03786200486853"><ele>17.0</ele><time>2026-04-24T02:57:25.001Z</time></trkpt><trkpt lat="-19.78782138653836" lon="121.03814761647251"><ele>17.0</ele><time>2026-04-24T02:57:26.001Z</time></trkpt><trkpt lat="-19.787758408443576" lon="121.0384285090666"><ele>18.0</ele><time>2026-04-24T02:57:27.001Z</time></trkpt><trkpt lat="-19.78769712008288" lon="121.0387069110287"><ele>19.0</ele><time>2026-04-24T02:57:28.001Z</time></trkpt><trkpt lat="-19.787636386605406" lon="121.03898156056505"><ele>20.0</ele><time>2026-04-24T02:57:29.001Z</time></trkpt><trkpt lat="-19.787576179104025" lon="121.0392524859699"><ele>21.0</ele><time>2026-04-24T02:57:30.001Z</time></trkpt><trkpt lat="-19.78751481966277" lon="121.03951917819924"><ele>21.0</ele><time>2026-04-24T02:57:31.001Z</time></trkpt><trkpt lat="-19.787454774037514" lon="121.03978404686045"><ele>21.0</ele><time>2026-04-24T02:57:32.001Z</time></trkpt><trkpt lat="-19.787394099234255" lon="121.04005081136013"><ele>21.5</ele><time>2026-04-24T02:57:33.001Z</time></trkpt><trkpt lat="-19.78733075933595" lon="121.04032020598515"><ele>22.0</ele><time>2026-04-24T02:57:34.001Z</time></trkpt><trkpt lat="-19.787266264939706" lon="121.04059033884995"><ele>22.5</ele><time>2026-04-24T02:57:35.001Z</time></trkpt><trkpt lat="-19.787206631649596" lon="121.04085787978782"><ele>23.0</ele><time>2026-04-24T02:57:36.001Z</time></trkpt><trkpt lat="-19.7871477102322" lon="121.04113114125255"><ele>23.0</ele><time>2026-04-24T02:57:37.001Z</time></trkpt><trkpt lat="-19.787085155133983" lon="121.04140872449496"><ele>23.0</ele><time>2026-04-24T02:57:38.001Z</time></trkpt><trkpt lat="-19.787020327531152" lon="121.04168795272213"><ele>23.0</ele><time>2026-04-24T02:57:39.001Z</time></trkpt><trkpt lat="-19.786953424678714" lon="121.04197041503059"><ele>23.0</ele><time>2026-04-24T02:57:40.001Z</time></trkpt><trkpt lat="-19.78688769665269" lon="121.04225362016005"><ele>21.0</ele><time>2026-04-24T02:57:41.001Z</time></trkpt><trkpt lat="-19.786821201434996" lon="121.04253962901636"><ele>19.0</ele><time>2026-04-24T02:57:42.001Z</time></trkpt><trkpt lat="-19.78675524147241" lon="121.04282787783053"><ele>19.0</ele><time>2026-04-24T02:57:43.001Z</time></trkpt><trkpt lat="-19.786688936996715" lon="121.04311715259344"><ele>19.0</ele><time>2026-04-24T02:57:44.001Z</time></trkpt><trkpt lat="-19.786556563833205" lon="121.04370021014228"><ele>19.5</ele><time>2026-04-24T02:57:46.001Z</time></trkpt><trkpt lat="-19.786492428054373" lon="121.04398887508049"><ele>20.0</ele><time>2026-04-24T02:57:47.001Z</time></trkpt><trkpt lat="-19.78642585629339" lon="121.04428243660483"><ele>20.0</ele><time>2026-04-24T02:57:48.001Z</time></trkpt><trkpt lat="-19.786357715375445" lon="121.04457712428764"><ele>20.0</ele><time>2026-04-24T02:57:49.001Z</time></trkpt><trkpt lat="-19.786291221006753" lon="121.04486890206609"><ele>20.5</ele><time>2026-04-24T02:57:50.001Z</time></trkpt><trkpt lat="-19.7862276076474" lon="121.04515796734124"><ele>21.0</ele><time>2026-04-24T02:57:51.001Z</time></trkpt><trkpt lat="-19.786160610672173" lon="121.04545322300275"><ele>21.0</ele><time>2026-04-24T02:57:52.001Z</time></trkpt><trkpt lat="-19.78609232740445" lon="121.04574976540154"><ele>21.0</ele><time>2026-04-24T02:57:53.001Z</time></trkpt><trkpt lat="-19.78602383100677" lon="121.04605032562387"><ele>21.0</ele><time>2026-04-24T02:57:54.001Z</time></trkpt><trkpt lat="-19.78595527743219" lon="121.04635052226453"><ele>21.0</ele><time>2026-04-24T02:57:55.001Z</time></trkpt><trkpt lat="-19.78588557517335" lon="121.04665112447174"><ele>20.5</ele><time>2026-04-24T02:57:56.001Z</time></trkpt><trkpt lat="-19.785817042196445" lon="121.04694931294986"><ele>20.0</ele><time>2026-04-24T02:57:57.001Z</time></trkpt><trkpt lat="-19.785746339090107" lon="121.04725261147217"><ele>20.5</ele><time>2026-04-24T02:57:58.001Z</time></trkpt><trkpt lat="-19.785678154966632" lon="121.04755187472591"><ele>21.0</ele><time>2026-04-24T02:57:59.001Z</time></trkpt><trkpt lat="-19.78560735501061" lon="121.04785175402614"><ele>21.0</ele><time>2026-04-24T02:58:00.001Z</time></trkpt><trkpt lat="-19.78554078271006" lon="121.04814361969756"><ele>21.0</ele><time>2026-04-24T02:58:01.001Z</time></trkpt><trkpt lat="-19.785474608139964" lon="121.04843311726312"><ele>21.0</ele><time>2026-04-24T02:58:02.001Z</time></trkpt><trkpt lat="-19.785411395082114" lon="121.04871793076641"><ele>21.0</ele><time>2026-04-24T02:58:03.001Z</time></trkpt><trkpt lat="-19.785346393646787" lon="121.04900336203585"><ele>20.5</ele><time>2026-04-24T02:58:04.001Z</time></trkpt><trkpt lat="-19.785282341929566" lon="121.04928662190608"><ele>20.0</ele><time>2026-04-24T02:58:05.001Z</time></trkpt><trkpt lat="-19.785220163742668" lon="121.04957102337279"><ele>19.5</ele><time>2026-04-24T02:58:06.001Z</time></trkpt><trkpt lat="-19.785156289264595" lon="121.04985791450932"><ele>19.0</ele><time>2026-04-24T02:58:07.001Z</time></trkpt><trkpt lat="-19.785089685025902" lon="121.0501445590459"><ele>20.0</ele><time>2026-04-24T02:58:08.001Z</time></trkpt><trkpt lat="-19.785021848642224" lon="121.0504305425237"><ele>21.0</ele><time>2026-04-24T02:58:09.001Z</time></trkpt><trkpt lat="-19.7849539314891" lon="121.0507182722925"><ele>21.5</ele><time>2026-04-24T02:58:10Z</time></trkpt><trkpt lat="-19.784886912813413" lon="121.05100609147574"><ele>22.0</ele><time>2026-04-24T02:58:11Z</time></trkpt><trkpt lat="-19.784819025890652" lon="121.05129563897766"><ele>22.0</ele><time>2026-04-24T02:58:12Z</time></trkpt><trkpt lat="-19.78474819296713" lon="121.05158487240521"><ele>22.0</ele><time>2026-04-24T02:58:13Z</time></trkpt><trkpt lat="-19.784672291040657" lon="121.05187586633052"><ele>22.5</ele><time>2026-04-24T02:58:14Z</time></trkpt><trkpt lat="-19.78459051949039" lon="121.0521655548079"><ele>23.0</ele><time>2026-04-24T02:58:15Z</time></trkpt><trkpt lat="-19.7845037388409" lon="121.05245488852303"><ele>23.0</ele><time>2026-04-24T02:58:16Z</time></trkpt><trkpt lat="-19.784414813328105" lon="121.05273940933853"><ele>23.0</ele><time>2026-04-24T02:58:17Z</time></trkpt><trkpt lat="-19.784321719617196" lon="121.0530252568646"><ele>23.5</ele><time>2026-04-24T02:58:18Z</time></trkpt><trkpt lat="-19.784223476016845" lon="121.05330943629352"><ele>24.0</ele><time>2026-04-24T02:58:19Z</time></trkpt><trkpt lat="-19.784120716034018" lon="121.05358927644222"><ele>24.0</ele><time>2026-04-24T02:58:20Z</time></trkpt><trkpt lat="-19.78401089677294" lon="121.05387093452545"><ele>24.0</ele><time>2026-04-24T02:58:21Z</time></trkpt><trkpt lat="-19.78389467635282" lon="121.05415010329757"><ele>24.5</ele><time>2026-04-24T02:58:22Z</time></trkpt><trkpt lat="-19.78377314060652" lon="121.05442787463724"><ele>25.0</ele><time>2026-04-24T02:58:23Z</time></trkpt><trkpt lat="-19.783648188350107" lon="121.05470569130229"><ele>25.0</ele><time>2026-04-24T02:58:24Z</time></trkpt><trkpt lat="-19.78351903884293" lon="121.0549772603678"><ele>25.0</ele><time>2026-04-24T02:58:25Z</time></trkpt><trkpt lat="-19.78338213797464" lon="121.05525069839983"><ele>25.5</ele><time>2026-04-24T02:58:26Z</time></trkpt><trkpt lat="-19.783240505814685" lon="121.05551793767239"><ele>26.0</ele><time>2026-04-24T02:58:27Z</time></trkpt><trkpt lat="-19.783095179461867" lon="121.05578298037315"><ele>26.5</ele><time>2026-04-24T02:58:28Z</time></trkpt><trkpt lat="-19.782951641470667" lon="121.05604091197107"><ele>27.0</ele><time>2026-04-24T02:58:29Z</time></trkpt><trkpt lat="-19.7828049909126" lon="121.0562974837673"><ele>27.0</ele><time>2026-04-24T02:58:30Z</time></trkpt><trkpt lat="-19.782655913953683" lon="121.05655466549663"><ele>27.0</ele><time>2026-04-24T02:58:31Z</time></trkpt><trkpt lat="-19.782507022235723" lon="121.05680676393084"><ele>27.0</ele><time>2026-04-24T02:58:32Z</time></trkpt><trkpt lat="-19.782353325625053" lon="121.05705874657086"><ele>27.0</ele><time>2026-04-24T02:58:33Z</time></trkpt><trkpt lat="-19.7821980432237" lon="121.05730843003492"><ele>26.0</ele><time>2026-04-24T02:58:34Z</time></trkpt><trkpt lat="-19.78204217877402" lon="121.05756001291549"><ele>25.0</ele><time>2026-04-24T02:58:35Z</time></trkpt><trkpt lat="-19.78188938253552" lon="121.0578118193716"><ele>25.5</ele><time>2026-04-24T02:58:36Z</time></trkpt><trkpt lat="-19.781739743640653" lon="121.0580653579581"><ele>26.0</ele><time>2026-04-24T02:58:37Z</time></trkpt><trkpt lat="-19.78158721514444" lon="121.05831542533728"><ele>26.5</ele><time>2026-04-24T02:58:38Z</time></trkpt><trkpt lat="-19.781435622206295" lon="121.05856382489547"><ele>27.0</ele><time>2026-04-24T02:58:39Z</time></trkpt><trkpt lat="-19.78128685451368" lon="121.05881300040033"><ele>27.0</ele><time>2026-04-24T02:58:40Z</time></trkpt><trkpt lat="-19.78113809804307" lon="121.05906330277497"><ele>27.0</ele><time>2026-04-24T02:58:41Z</time></trkpt><trkpt lat="-19.780991125132104" lon="121.05931028175556"><ele>26.0</ele><time>2026-04-24T02:58:42Z</time></trkpt><trkpt lat="-19.780841303730373" lon="121.05955866438967"><ele>25.0</ele><time>2026-04-24T02:58:43Z</time></trkpt><trkpt lat="-19.780690720385635" lon="121.05980639012928"><ele>26.0</ele><time>2026-04-24T02:58:44Z</time></trkpt><trkpt lat="-19.78053859806474" lon="121.06005526776165"><ele>27.0</ele><time>2026-04-24T02:58:45Z</time></trkpt><trkpt lat="-19.780387171235347" lon="121.06030330728967"><ele>27.0</ele><time>2026-04-24T02:58:46Z</time></trkpt><trkpt lat="-19.780235627636106" lon="121.06055411593348"><ele>27.0</ele><time>2026-04-24T02:58:47Z</time></trkpt><trkpt lat="-19.78008210395037" lon="121.06080941448894"><ele>26.0</ele><time>2026-04-24T02:58:48Z</time></trkpt><trkpt lat="-19.77993138421604" lon="121.06106556930867"><ele>25.0</ele><time>2026-04-24T02:58:49Z</time></trkpt><trkpt lat="-19.779777579602627" lon="121.0613286689745"><ele>25.0</ele><time>2026-04-24T02:58:50Z</time></trkpt><trkpt lat="-19.779625679073536" lon="121.06158501389727"><ele>25.0</ele><time>2026-04-24T02:58:51Z</time></trkpt><trkpt lat="-19.77946648107889" lon="121.06184512496633"><ele>22.5</ele><time>2026-04-24T02:58:52Z</time></trkpt><trkpt lat="-19.779309035579235" lon="121.06210075113908"><ele>20.0</ele><time>2026-04-24T02:58:53Z</time></trkpt><trkpt lat="-19.779153088668536" lon="121.06235605030254"><ele>22.0</ele><time>2026-04-24T02:58:54Z</time></trkpt><trkpt lat="-19.778996318033474" lon="121.06261559010463"><ele>24.0</ele><time>2026-04-24T02:58:55Z</time></trkpt><trkpt lat="-19.778843513865144" lon="121.06287042449517"><ele>24.0</ele><time>2026-04-24T02:58:56Z</time></trkpt><trkpt lat="-19.778691887531263" lon="121.06312191602002"><ele>24.0</ele><time>2026-04-24T02:58:57Z</time></trkpt><trkpt lat="-19.778543487053362" lon="121.0633683593105"><ele>24.5</ele><time>2026-04-24T02:58:58Z</time></trkpt><trkpt lat="-19.778391085999452" lon="121.06361854024277"><ele>25.0</ele><time>2026-04-24T02:58:59Z</time></trkpt><trkpt lat="-19.77824013080199" lon="121.06386432260362"><ele>25.0</ele><time>2026-04-24T02:59:00Z</time></trkpt><trkpt lat="-19.7780899554579" lon="121.0641121551201"><ele>25.0</ele><time>2026-04-24T02:59:01Z</time></trkpt><trkpt lat="-19.777944100813396" lon="121.06435866524386"><ele>23.5</ele><time>2026-04-24T02:59:02Z</time></trkpt><trkpt lat="-19.77779783327833" lon="121.06460503960729"><ele>22.0</ele><time>2026-04-24T02:59:03Z</time></trkpt><trkpt lat="-19.777650684526098" lon="121.06484912115823"><ele>22.0</ele><time>2026-04-24T02:59:04Z</time></trkpt><trkpt lat="-19.777504318737275" lon="121.0650910708221"><ele>22.0</ele><time>2026-04-24T02:59:05Z</time></trkpt><trkpt lat="-19.77735633954072" lon="121.06533496720489"><ele>22.0</ele><time>2026-04-24T02:59:06Z</time></trkpt><trkpt lat="-19.777207942436014" lon="121.06557599571293"><ele>22.0</ele><time>2026-04-24T02:59:07Z</time></trkpt><trkpt lat="-19.777060301811755" lon="121.06581863380745"><ele>22.0</ele><time>2026-04-24T02:59:08Z</time></trkpt><trkpt lat="-19.776915110957155" lon="121.06606163139102"><ele>22.0</ele><time>2026-04-24T02:59:09Z</time></trkpt><trkpt lat="-19.77676740881917" lon="121.06630711327124"><ele>22.0</ele><time>2026-04-24T02:59:10Z</time></trkpt><trkpt lat="-19.776622302305523" lon="121.06655090955964"><ele>22.0</ele><time>2026-04-24T02:59:11.001Z</time></trkpt><trkpt lat="-19.776476300282607" lon="121.06679495469763"><ele>21.5</ele><time>2026-04-24T02:59:12.001Z</time></trkpt><trkpt lat="-19.776328828378965" lon="121.06703818220967"><ele>21.0</ele><time>2026-04-24T02:59:13.001Z</time></trkpt><trkpt lat="-19.776179961005788" lon="121.06727941219819"><ele>21.5</ele><time>2026-04-24T02:59:14.001Z</time></trkpt><trkpt lat="-19.776029909293445" lon="121.0675247885718"><ele>22.0</ele><time>2026-04-24T02:59:15.001Z</time></trkpt><trkpt lat="-19.775878863631892" lon="121.06777363596713"><ele>22.5</ele><time>2026-04-24T02:59:16.001Z</time></trkpt><trkpt lat="-19.77572962649264" lon="121.06802404498673"><ele>23.0</ele><time>2026-04-24T02:59:17.001Z</time></trkpt><trkpt lat="-19.775580293052062" lon="121.06827494854755"><ele>22.0</ele><time>2026-04-24T02:59:18.001Z</time></trkpt><trkpt lat="-19.775428711309395" lon="121.06853018562077"><ele>21.0</ele><time>2026-04-24T02:59:19.001Z</time></trkpt><trkpt lat="-19.775278233904853" lon="121.0687818330018"><ele>20.5</ele><time>2026-04-24T02:59:20.001Z</time></trkpt><trkpt lat="-19.77513055143612" lon="121.06903356624765"><ele>20.0</ele><time>2026-04-24T02:59:21.001Z</time></trkpt><trkpt lat="-19.774983631517514" lon="121.06928087626704"><ele>20.0</ele><time>2026-04-24T02:59:22.001Z</time></trkpt><trkpt lat="-19.774830613809748" lon="121.06953027138971"><ele>20.0</ele><time>2026-04-24T02:59:23.001Z</time></trkpt><trkpt lat="-19.77467735022216" lon="121.06977938270641"><ele>20.5</ele><time>2026-04-24T02:59:24.001Z</time></trkpt><trkpt lat="-19.77452452982783" lon="121.07003237820584"><ele>21.0</ele><time>2026-04-24T02:59:25.001Z</time></trkpt><trkpt lat="-19.77437400204869" lon="121.07028577590462"><ele>21.0</ele><time>2026-04-24T02:59:26.001Z</time></trkpt><trkpt lat="-19.774223833787" lon="121.0705389642014"><ele>21.0</ele><time>2026-04-24T02:59:27.001Z</time></trkpt><trkpt lat="-19.77407104105289" lon="121.07078993979161"><ele>22.0</ele><time>2026-04-24T02:59:28.001Z</time></trkpt><trkpt lat="-19.773920104471156" lon="121.07104113627776"><ele>23.0</ele><time>2026-04-24T02:59:29.001Z</time></trkpt><trkpt lat="-19.773769776472676" lon="121.07129288971834"><ele>23.0</ele><time>2026-04-24T02:59:30.001Z</time></trkpt><trkpt lat="-19.773619188254784" lon="121.07154601624063"><ele>23.0</ele><time>2026-04-24T02:59:31.001Z</time></trkpt><trkpt lat="-19.77347358298678" lon="121.0717930194456"><ele>23.0</ele><time>2026-04-24T02:59:32.001Z</time></trkpt><trkpt lat="-19.773331738276656" lon="121.07203693704274"><ele>23.0</ele><time>2026-04-24T02:59:33.001Z</time></trkpt><trkpt lat="-19.773187346807244" lon="121.07227446113181"><ele>22.0</ele><time>2026-04-24T02:59:34.001Z</time></trkpt><trkpt lat="-19.77304276877662" lon="121.07250815002503"><ele>21.0</ele><time>2026-04-24T02:59:35.001Z</time></trkpt><trkpt lat="-19.77289514063999" lon="121.07274545531659"><ele>21.0</ele><time>2026-04-24T02:59:36.001Z</time></trkpt><trkpt lat="-19.772746445993764" lon="121.07298929830793"><ele>21.0</ele><time>2026-04-24T02:59:37.001Z</time></trkpt><trkpt lat="-19.772602181629185" lon="121.07322976422678"><ele>21.5</ele><time>2026-04-24T02:59:38.001Z</time></trkpt><trkpt lat="-19.77246605535324" lon="121.07346084782732"><ele>22.0</ele><time>2026-04-24T02:59:39.001Z</time></trkpt><trkpt lat="-19.772325984264953" lon="121.07369361813238"><ele>22.0</ele><time>2026-04-24T02:59:40.001Z</time></trkpt><trkpt lat="-19.772179240541345" lon="121.0739334679955"><ele>22.0</ele><time>2026-04-24T02:59:41.001Z</time></trkpt><trkpt lat="-19.77203083778107" lon="121.07417702415846"><ele>22.0</ele><time>2026-04-24T02:59:42.001Z</time></trkpt><trkpt lat="-19.77188269214716" lon="121.07442203024655"><ele>22.0</ele><time>2026-04-24T02:59:43.001Z</time></trkpt><trkpt lat="-19.771734828917143" lon="121.0746674835983"><ele>22.0</ele><time>2026-04-24T02:59:44.001Z</time></trkpt><trkpt lat="-19.77159011759666" lon="121.07491312749137"><ele>22.0</ele><time>2026-04-24T02:59:45.001Z</time></trkpt><trkpt lat="-19.771446283205602" lon="121.07515597100128"><ele>23.0</ele><time>2026-04-24T02:59:46.001Z</time></trkpt><trkpt lat="-19.7712987088186" lon="121.07540203140252"><ele>24.0</ele><time>2026-04-24T02:59:47.001Z</time></trkpt><trkpt lat="-19.771149403590858" lon="121.07564624602722"><ele>23.5</ele><time>2026-04-24T02:59:48.001Z</time></trkpt><trkpt lat="-19.770995416428754" lon="121.07589646464241"><ele>23.0</ele><time>2026-04-24T02:59:49.001Z</time></trkpt><trkpt lat="-19.770844917384505" lon="121.07614564037843"><ele>23.0</ele><time>2026-04-24T02:59:50.001Z</time></trkpt><trkpt lat="-19.770696806002665" lon="121.07639274119386"><ele>23.0</ele><time>2026-04-24T02:59:51.001Z</time></trkpt><trkpt lat="-19.770548477950328" lon="121.0766410124835"><ele>23.5</ele><time>2026-04-24T02:59:52.001Z</time></trkpt><trkpt lat="-19.770401190439173" lon="121.07688863825825"><ele>24.0</ele><time>2026-04-24T02:59:53.001Z</time></trkpt><trkpt lat="-19.77025233803648" lon="121.07713878658468"><ele>23.0</ele><time>2026-04-24T02:59:54.001Z</time></trkpt><trkpt lat="-19.7701082992412" lon="121.07738889045102"><ele>22.0</ele><time>2026-04-24T02:59:55.001Z</time></trkpt><trkpt lat="-19.76996749396212" lon="121.07764366954834"><ele>21.5</ele><time>2026-04-24T02:59:56.001Z</time></trkpt><trkpt lat="-19.769830807234204" lon="121.077900877287"><ele>21.0</ele><time>2026-04-24T02:59:57.001Z</time></trkpt><trkpt lat="-19.769699692104776" lon="121.07815836534775"><ele>22.0</ele><time>2026-04-24T02:59:58.001Z</time></trkpt><trkpt lat="-19.76956906225079" lon="121.07842090737367"><ele>23.0</ele><time>2026-04-24T02:59:59.001Z</time></trkpt><trkpt lat="-19.76944139086383" lon="121.07868579209568"><ele>23.0</ele><time>2026-04-24T03:00:00.001Z</time></trkpt><trkpt lat="-19.769323916975335" lon="121.07895103581572"><ele>23.0</ele><time>2026-04-24T03:00:01.001Z</time></trkpt><trkpt lat="-19.76921038638491" lon="121.07921837459442"><ele>23.5</ele><time>2026-04-24T03:00:02.001Z</time></trkpt><trkpt lat="-19.769101454905208" lon="121.07948838603669"><ele>24.0</ele><time>2026-04-24T03:00:03.001Z</time></trkpt><trkpt lat="-19.768996579210036" lon="121.07976417908895"><ele>24.0</ele><time>2026-04-24T03:00:04.001Z</time></trkpt><trkpt lat="-19.768895499516045" lon="121.08004071587898"><ele>24.0</ele><time>2026-04-24T03:00:05.001Z</time></trkpt><trkpt lat="-19.76879686887135" lon="121.08032276107221"><ele>24.0</ele><time>2026-04-24T03:00:06.001Z</time></trkpt><trkpt lat="-19.768703834387296" lon="121.08060346444245"><ele>24.0</ele><time>2026-04-24T03:00:07.001Z</time></trkpt><trkpt lat="-19.768615590143032" lon="121.08088957356419"><ele>23.5</ele><time>2026-04-24T03:00:08.001Z</time></trkpt><trkpt lat="-19.76853060130009" lon="121.08117548040391"><ele>23.0</ele><time>2026-04-24T03:00:09.001Z</time></trkpt><trkpt lat="-19.76844781457468" lon="121.0814617377463"><ele>25.5</ele><time>2026-04-24T03:00:10.001Z</time></trkpt><trkpt lat="-19.76836846318388" lon="121.08174781533755"><ele>28.0</ele><time>2026-04-24T03:00:11.001Z</time></trkpt><trkpt lat="-19.768295651716493" lon="121.08203402026831"><ele>28.0</ele><time>2026-04-24T03:00:12.001Z</time></trkpt><trkpt lat="-19.768229616450327" lon="121.08232336228302"><ele>28.0</ele><time>2026-04-24T03:00:13.001Z</time></trkpt><trkpt lat="-19.768170986606744" lon="121.08261056528218"><ele>28.0</ele><time>2026-04-24T03:00:14.001Z</time></trkpt><trkpt lat="-19.76812087322505" lon="121.08289697997562"><ele>28.0</ele><time>2026-04-24T03:00:15.001Z</time></trkpt><trkpt lat="-19.768072963047878" lon="121.08318710307621"><ele>27.0</ele><time>2026-04-24T03:00:16Z</time></trkpt><trkpt lat="-19.768027574168432" lon="121.08347546452966"><ele>26.0</ele><time>2026-04-24T03:00:17Z</time></trkpt><trkpt lat="-19.76798549986973" lon="121.08376498296879"><ele>26.0</ele><time>2026-04-24T03:00:18Z</time></trkpt><trkpt lat="-19.767947958150355" lon="121.0840606366608"><ele>26.0</ele><time>2026-04-24T03:00:19Z</time></trkpt><trkpt lat="-19.767916078607367" lon="121.0843567466531"><ele>26.0</ele><time>2026-04-24T03:00:20Z</time></trkpt><trkpt lat="-19.76788737619865" lon="121.08465324699623"><ele>26.0</ele><time>2026-04-24T03:00:21Z</time></trkpt><trkpt lat="-19.76786388096547" lon="121.08495485850138"><ele>26.0</ele><time>2026-04-24T03:00:22Z</time></trkpt><trkpt lat="-19.76784736681729" lon="121.08525596248836"><ele>26.0</ele><time>2026-04-24T03:00:23Z</time></trkpt><trkpt lat="-19.76783681758963" lon="121.085557047462"><ele>26.0</ele><time>2026-04-24T03:00:24Z</time></trkpt><trkpt lat="-19.76782882088435" lon="121.08585713112568"><ele>26.0</ele><time>2026-04-24T03:00:25Z</time></trkpt><trkpt lat="-19.767825165993965" lon="121.08615862295414"><ele>26.0</ele><time>2026-04-24T03:00:26Z</time></trkpt><trkpt lat="-19.767828581834642" lon="121.08645572435286"><ele>26.0</ele><time>2026-04-24T03:00:27Z</time></trkpt><trkpt lat="-19.767839407180244" lon="121.08675183484385"><ele>27.0</ele><time>2026-04-24T03:00:28Z</time></trkpt><trkpt lat="-19.767851489326855" lon="121.08704433496352"><ele>28.0</ele><time>2026-04-24T03:00:29Z</time></trkpt><trkpt lat="-19.76786384496305" lon="121.08733208321271"><ele>29.0</ele><time>2026-04-24T03:00:30Z</time></trkpt><trkpt lat="-19.76787903251393" lon="121.08761107861737"><ele>30.0</ele><time>2026-04-24T03:00:31Z</time></trkpt><trkpt lat="-19.767900766262752" lon="121.08788742196421"><ele>30.0</ele><time>2026-04-24T03:00:32Z</time></trkpt><trkpt lat="-19.76792603310915" lon="121.08815902514011"><ele>30.0</ele><time>2026-04-24T03:00:33Z</time></trkpt><trkpt lat="-19.767950936200705" lon="121.0884300886943"><ele>29.5</ele><time>2026-04-24T03:00:34Z</time></trkpt><trkpt lat="-19.76797480611416" lon="121.08870379893034"><ele>29.0</ele><time>2026-04-24T03:00:35Z</time></trkpt><trkpt lat="-19.76799764836663" lon="121.08897203079296"><ele>29.5</ele><time>2026-04-24T03:00:36Z</time></trkpt><trkpt lat="-19.76801737560115" lon="121.08923030979038"><ele>30.0</ele><time>2026-04-24T03:00:37Z</time></trkpt><trkpt lat="-19.768035992756246" lon="121.08946673075208"><ele>30.0</ele><time>2026-04-24T03:00:38Z</time></trkpt><trkpt lat="-19.76805224725733" lon="121.08968341758741"><ele>30.0</ele><time>2026-04-24T03:00:39Z</time></trkpt><trkpt lat="-19.768075491611636" lon="121.08988609696156"><ele>30.0</ele><time>2026-04-24T03:00:40Z</time></trkpt><trkpt lat="-19.768083420582958" lon="121.09006292061895"><ele>30.0</ele><time>2026-04-24T03:00:41Z</time></trkpt><trkpt lat="-19.768095486826052" lon="121.0902204074084"><ele>30.0</ele><time>2026-04-24T03:00:42Z</time></trkpt><trkpt lat="-19.76822455458326" lon="121.09035779783963"><ele>30.0</ele><time>2026-04-24T03:00:43Z</time></trkpt><trkpt lat="-19.76830243937902" lon="121.09049611619096"><ele>30.0</ele><time>2026-04-24T03:00:44Z</time></trkpt><trkpt lat="-19.768375679330305" lon="121.09061941061165"><ele>30.0</ele><time>2026-04-24T03:00:45Z</time></trkpt><trkpt lat="-19.768449134729" lon="121.09072838662912"><ele>30.0</ele><time>2026-04-24T03:00:46Z</time></trkpt><trkpt lat="-19.76851741387889" lon="121.0908276028584"><ele>30.0</ele><time>2026-04-24T03:00:47Z</time></trkpt><trkpt lat="-19.768610430331357" lon="121.09089523903846"><ele>30.5</ele><time>2026-04-24T03:00:48Z</time></trkpt><trkpt lat="-19.768653303170943" lon="121.09097621473475"><ele>31.0</ele><time>2026-04-24T03:00:49Z</time></trkpt><trkpt lat="-19.768689109009006" lon="121.09105291994807"><ele>31.5</ele><time>2026-04-24T03:00:50Z</time></trkpt><trkpt lat="-19.76870626555671" lon="121.09112567169782"><ele>32.0</ele><time>2026-04-24T03:00:51Z</time></trkpt><trkpt lat="-19.768734168752374" lon="121.09118629905767"><ele>32.5</ele><time>2026-04-24T03:00:52Z</time></trkpt><trkpt lat="-19.768749928842173" lon="121.09129355127187"><ele>33.0</ele><time>2026-04-24T03:00:54Z</time></trkpt><trkpt lat="-19.768757066029575" lon="121.0913777933503"><ele>33.0</ele><time>2026-04-24T03:00:56Z</time></trkpt><trkpt lat="-19.768938043203264" lon="121.09147401274797"><ele>33.0</ele><time>2026-04-24T03:07:22.001Z</time></trkpt><trkpt lat="-19.76887831612073" lon="121.09155885484196"><ele>33.0</ele><time>2026-04-24T03:07:29.001Z</time></trkpt><trkpt lat="-19.768970188319035" lon="121.09154864660235"><ele>33.0</ele><time>2026-04-24T03:07:31.001Z</time></trkpt><trkpt lat="-19.76903392196512" lon="121.09152916649373"><ele>33.0</ele><time>2026-04-24T03:07:35.001Z</time></trkpt><trkpt lat="-19.768918523912404" lon="121.09149674215804"><ele>33.0</ele><time>2026-04-24T03:07:41.001Z</time></trkpt><trkpt lat="-19.768822535292742" lon="121.09147374240105"><ele>33.0</ele><time>2026-04-24T03:07:42.001Z</time></trkpt><trkpt lat="-19.768812234171453" lon="121.09154549858157"><ele>33.0</ele><time>2026-04-24T03:07:52.001Z</time></trkpt><trkpt lat="-19.768761032383185" lon="121.09150309111288"><ele>33.0</ele><time>2026-04-24T03:07:58.001Z</time></trkpt><trkpt lat="-19.768829819372964" lon="121.09151547012671"><ele>33.0</ele><time>2026-04-24T03:08:02.001Z</time></trkpt><trkpt lat="-19.76892133238282" lon="121.09154309593957"><ele>33.0</ele><time>2026-04-24T03:08:04.001Z</time></trkpt><trkpt lat="-19.768981595504435" lon="121.09158082806205"><ele>33.0</ele><time>2026-04-24T03:08:06.001Z</time></trkpt><trkpt lat="-19.76924040560029" lon="121.09163530998833"><ele>33.0</ele><time>2026-04-24T03:08:08.001Z</time></trkpt><trkpt lat="-19.769307271657066" lon="121.09169740685891"><ele>33.0</ele><time>2026-04-24T03:08:10.079Z</time></trkpt><trkpt lat="-19.769371360497342" lon="121.09177725567591"><ele>33.199999999999996</ele><time>2026-04-24T03:08:12.037Z</time></trkpt><trkpt lat="-19.769478593921992" lon="121.09187925897768"><ele>33.4</ele><time>2026-04-24T03:08:14.035Z</time></trkpt><trkpt lat="-19.769544069285814" lon="121.09190025428474"><ele>33.599999999999994</ele><time>2026-04-24T03:08:15.033Z</time></trkpt><trkpt lat="-19.76963398293147" lon="121.09192234185377"><ele>33.8</ele><time>2026-04-24T03:08:18.038Z</time></trkpt><trkpt lat="-19.769664391663106" lon="121.09184742012081"><ele>34.0</ele><time>2026-04-24T03:08:19.04Z</time></trkpt><trkpt lat="-19.769734794008208" lon="121.09183875074497"><ele>34.0</ele><time>2026-04-24T03:08:21.037Z</time></trkpt><trkpt lat="-19.769799435559307" lon="121.09182243668548"><ele>34.0</ele><time>2026-04-24T03:08:23.033Z</time></trkpt><trkpt lat="-19.769680184286422" lon="121.09184307965583"><ele>34.0</ele><time>2026-04-24T03:08:26.031Z</time></trkpt><trkpt lat="-19.769589756097584" lon="121.0916186410673"><ele>34.0</ele><time>2026-04-24T03:08:29.032Z</time></trkpt><trkpt lat="-19.7694300579075" lon="121.09157844730998"><ele>34.0</ele><time>2026-04-24T03:08:46.033Z</time></trkpt><trkpt lat="-19.769366394782818" lon="121.09153200450729"><ele>34.0</ele><time>2026-04-24T03:08:58.022Z</time></trkpt><trkpt lat="-19.769310578763385" lon="121.09149692551468"><ele>34.0</ele><time>2026-04-24T03:09:02.027Z</time></trkpt><trkpt lat="-19.76922338553633" lon="121.09149081549538"><ele>34.0</ele><time>2026-04-24T03:09:03.03Z</time></trkpt><trkpt lat="-19.769153487821402" lon="121.0914759806971"><ele>34.0</ele><time>2026-04-24T03:09:04.001Z</time></trkpt><trkpt lat="-19.76908982965457" lon="121.09146150617408"><ele>34.0</ele><time>2026-04-24T03:09:06.001Z</time></trkpt><trkpt lat="-19.768894135563517" lon="121.09142084505339"><ele>33.833333333333336</ele><time>2026-04-24T03:09:07.001Z</time></trkpt><trkpt lat="-19.768830876201957" lon="121.09137658703648"><ele>33.66666666666667</ele><time>2026-04-24T03:15:18Z</time></trkpt><trkpt lat="-19.768795673856197" lon="121.09144661754519"><ele>33.5</ele><time>2026-04-24T03:21:58Z</time></trkpt><trkpt lat="-19.768801124157132" lon="121.09152719111445"><ele>33.333333333333336</ele><time>2026-04-24T03:22:00Z</time></trkpt><trkpt lat="-19.768769355245755" lon="121.0916079630929"><ele>33.166666666666664</ele><time>2026-04-24T03:22:02Z</time></trkpt><trkpt lat="-19.7687314203334" lon="121.0916749824434"><ele>33.0</ele><time>2026-04-24T03:22:04Z</time></trkpt><trkpt lat="-19.768673645588255" lon="121.091736919175"><ele>32.8</ele><time>2026-04-24T03:22:06Z</time></trkpt><trkpt lat="-19.768609930077734" lon="121.09180717935061"><ele>32.599999999999994</ele><time>2026-04-24T03:22:08Z</time></trkpt><trkpt lat="-19.76856515590467" lon="121.09188845797401"><ele>32.400000000000006</ele><time>2026-04-24T03:22:52Z</time></trkpt><trkpt lat="-19.768521459051193" lon="121.09203630200459"><ele>32.2</ele><time>2026-04-24T03:22:54Z</time></trkpt><trkpt lat="-19.76848204797823" lon="121.09214847271474"><ele>32.0</ele><time>2026-04-24T03:22:55Z</time></trkpt><trkpt lat="-19.76847183368757" lon="121.09225925677916"><ele>31.999999999999996</ele><time>2026-04-24T03:22:56Z</time></trkpt><trkpt lat="-19.768442474346184" lon="121.0923496300627"><ele>32.0</ele><time>2026-04-24T03:22:57Z</time></trkpt><trkpt lat="-19.7684160157084" lon="121.09243196174256"><ele>32.0</ele><time>2026-04-24T03:22:58Z</time></trkpt><trkpt lat="-19.76838656253121" lon="121.09250472831961"><ele>32.0</ele><time>2026-04-24T03:22:59Z</time></trkpt><trkpt lat="-19.768343205992952" lon="121.09257645666774"><ele>31.999999999999996</ele><time>2026-04-24T03:23:00Z</time></trkpt><trkpt lat="-19.76829935705696" lon="121.09268076508906"><ele>32.0</ele><time>2026-04-24T03:23:01Z</time></trkpt><trkpt lat="-19.768300388118078" lon="121.09282586923572"><ele>31.666666666666664</ele><time>2026-04-24T03:23:02Z</time></trkpt><trkpt lat="-19.768300141249956" lon="121.09297704458233"><ele>31.333333333333336</ele><time>2026-04-24T03:23:03Z</time></trkpt><trkpt lat="-19.76831541479449" lon="121.09315230245126"><ele>31.0</ele><time>2026-04-24T03:23:04Z</time></trkpt><trkpt lat="-19.768337446209294" lon="121.09334334685482"><ele>31.0</ele><time>2026-04-24T03:23:05Z</time></trkpt><trkpt lat="-19.768356602719454" lon="121.09355855131699"><ele>31.0</ele><time>2026-04-24T03:23:06Z</time></trkpt><trkpt lat="-19.768373322788168" lon="121.09377897172475"><ele>31.0</ele><time>2026-04-24T03:23:07Z</time></trkpt><trkpt lat="-19.768392403008676" lon="121.09401515720097"><ele>30.5</ele><time>2026-04-24T03:23:08Z</time></trkpt><trkpt lat="-19.768411627627795" lon="121.09426458535769"><ele>30.0</ele><time>2026-04-24T03:23:09Z</time></trkpt><trkpt lat="-19.76843208313508" lon="121.09452155687374"><ele>30.0</ele><time>2026-04-24T03:23:10.001Z</time></trkpt><trkpt lat="-19.768451765108075" lon="121.09478038692363"><ele>30.0</ele><time>2026-04-24T03:23:11.001Z</time></trkpt><trkpt lat="-19.76847164687287" lon="121.09503285846586"><ele>30.0</ele><time>2026-04-24T03:23:12.001Z</time></trkpt><trkpt lat="-19.76849288338545" lon="121.0952942987098"><ele>30.0</ele><time>2026-04-24T03:23:13.001Z</time></trkpt><trkpt lat="-19.76851585968498" lon="121.09555455498649"><ele>30.5</ele><time>2026-04-24T03:23:14.001Z</time></trkpt><trkpt lat="-19.76853739493535" lon="121.09581950782301"><ele>31.0</ele><time>2026-04-24T03:23:15.001Z</time></trkpt><trkpt lat="-19.768558252251353" lon="121.09608245996574"><ele>31.0</ele><time>2026-04-24T03:23:16.001Z</time></trkpt><trkpt lat="-19.768575584561102" lon="121.09634336852105"><ele>31.0</ele><time>2026-04-24T03:23:17.001Z</time></trkpt><trkpt lat="-19.768593380115913" lon="121.09660624340744"><ele>31.0</ele><time>2026-04-24T03:23:18.001Z</time></trkpt><trkpt lat="-19.768611876998918" lon="121.0968726544491"><ele>31.0</ele><time>2026-04-24T03:23:19.001Z</time></trkpt><trkpt lat="-19.768631837808282" lon="121.09713669271285"><ele>31.0</ele><time>2026-04-24T03:23:20.001Z</time></trkpt><trkpt lat="-19.768652408328474" lon="121.09739943937319"><ele>31.0</ele><time>2026-04-24T03:23:21.001Z</time></trkpt><trkpt lat="-19.768673736418354" lon="121.0976669043602"><ele>30.0</ele><time>2026-04-24T03:23:22.001Z</time></trkpt><trkpt lat="-19.768694393840917" lon="121.09793398335104"><ele>29.0</ele><time>2026-04-24T03:23:23.001Z</time></trkpt><trkpt lat="-19.768712583070727" lon="121.09820148444584"><ele>30.5</ele><time>2026-04-24T03:23:24.001Z</time></trkpt><trkpt lat="-19.768732828888233" lon="121.09847268319461"><ele>32.0</ele><time>2026-04-24T03:23:25.001Z</time></trkpt><trkpt lat="-19.76875405744881" lon="121.09874686697425"><ele>32.0</ele><time>2026-04-24T03:23:26.001Z</time></trkpt><trkpt lat="-19.768777096336326" lon="121.0990225502712"><ele>32.0</ele><time>2026-04-24T03:23:27.001Z</time></trkpt><trkpt lat="-19.768798608162452" lon="121.09930422137266"><ele>31.0</ele><time>2026-04-24T03:23:28.001Z</time></trkpt><trkpt lat="-19.76882219585725" lon="121.09958943957908"><ele>30.0</ele><time>2026-04-24T03:23:29.001Z</time></trkpt><trkpt lat="-19.768848899778238" lon="121.0998719594495"><ele>30.5</ele><time>2026-04-24T03:23:30.001Z</time></trkpt><trkpt lat="-19.768877189504835" lon="121.10015540157521"><ele>31.0</ele><time>2026-04-24T03:23:31.001Z</time></trkpt><trkpt lat="-19.768900498541562" lon="121.1004406131907"><ele>31.0</ele><time>2026-04-24T03:23:32.001Z</time></trkpt><trkpt lat="-19.76891996196099" lon="121.10072578988733"><ele>31.0</ele><time>2026-04-24T03:23:33.001Z</time></trkpt><trkpt lat="-19.768940334222997" lon="121.10101047003671"><ele>30.5</ele><time>2026-04-24T03:23:34.001Z</time></trkpt><trkpt lat="-19.76896166245449" lon="121.10129465269503"><ele>30.0</ele><time>2026-04-24T03:23:35.001Z</time></trkpt><trkpt lat="-19.768982085124374" lon="121.10158033723503"><ele>30.0</ele><time>2026-04-24T03:23:36.001Z</time></trkpt><trkpt lat="-19.769002761243847" lon="121.10186538052353"><ele>30.0</ele><time>2026-04-24T03:23:37.001Z</time></trkpt><trkpt lat="-19.76902591333883" lon="121.10215303203273"><ele>30.5</ele><time>2026-04-24T03:23:38.001Z</time></trkpt><trkpt lat="-19.769047190894415" lon="121.10244114507572"><ele>31.0</ele><time>2026-04-24T03:23:39.001Z</time></trkpt><trkpt lat="-19.76906815132951" lon="121.10272818950129"><ele>31.0</ele><time>2026-04-24T03:23:40.001Z</time></trkpt><trkpt lat="-19.769090372875368" lon="121.10301437202831"><ele>31.0</ele><time>2026-04-24T03:23:41.001Z</time></trkpt><trkpt lat="-19.769111203360946" lon="121.10330233246644"><ele>29.0</ele><time>2026-04-24T03:23:42.001Z</time></trkpt><trkpt lat="-19.769129865742336" lon="121.10358800486847"><ele>27.0</ele><time>2026-04-24T03:23:43.001Z</time></trkpt><trkpt lat="-19.769149956121584" lon="121.10387209545745"><ele>27.5</ele><time>2026-04-24T03:23:44.001Z</time></trkpt><trkpt lat="-19.769172940289966" lon="121.10415400817539"><ele>28.0</ele><time>2026-04-24T03:23:45.001Z</time></trkpt><trkpt lat="-19.76919810177752" lon="121.10443587625173"><ele>28.0</ele><time>2026-04-24T03:23:46.001Z</time></trkpt><trkpt lat="-19.76921955077395" lon="121.10472029817844"><ele>28.0</ele><time>2026-04-24T03:23:47.001Z</time></trkpt><trkpt lat="-19.769240408308125" lon="121.10500690807531"><ele>28.0</ele><time>2026-04-24T03:23:48.001Z</time></trkpt><trkpt lat="-19.769262830394563" lon="121.10529587684285"><ele>28.0</ele><time>2026-04-24T03:23:49.001Z</time></trkpt><trkpt lat="-19.769283366845187" lon="121.10558550214854"><ele>29.0</ele><time>2026-04-24T03:23:50.001Z</time></trkpt><trkpt lat="-19.769307306408457" lon="121.10587299790103"><ele>30.0</ele><time>2026-04-24T03:23:51Z</time></trkpt><trkpt lat="-19.769330632116876" lon="121.10616452281252"><ele>30.0</ele><time>2026-04-24T03:23:52Z</time></trkpt><trkpt lat="-19.76935264844464" lon="121.1064539613043"><ele>30.0</ele><time>2026-04-24T03:23:53Z</time></trkpt><trkpt lat="-19.769375638559527" lon="121.10674767227937"><ele>30.5</ele><time>2026-04-24T03:23:54Z</time></trkpt><trkpt lat="-19.769396797918734" lon="121.10703615919454"><ele>31.0</ele><time>2026-04-24T03:23:55Z</time></trkpt><trkpt lat="-19.76941902148997" lon="121.10732605278297"><ele>30.0</ele><time>2026-04-24T03:23:56Z</time></trkpt><trkpt lat="-19.769444006643226" lon="121.10761499394296"><ele>29.0</ele><time>2026-04-24T03:23:57Z</time></trkpt><trkpt lat="-19.769466688803803" lon="121.10790697172921"><ele>29.0</ele><time>2026-04-24T03:23:58Z</time></trkpt><trkpt lat="-19.769487542593033" lon="121.1081978906824"><ele>29.0</ele><time>2026-04-24T03:23:59Z</time></trkpt><trkpt lat="-19.769510562638956" lon="121.10849068634852"><ele>29.0</ele><time>2026-04-24T03:24:00Z</time></trkpt><trkpt lat="-19.76953609116669" lon="121.10878603204951"><ele>29.0</ele><time>2026-04-24T03:24:01Z</time></trkpt><trkpt lat="-19.769561278249775" lon="121.10908433226946"><ele>29.0</ele><time>2026-04-24T03:24:02Z</time></trkpt><trkpt lat="-19.76958653916932" lon="121.10938058521289"><ele>29.0</ele><time>2026-04-24T03:24:03Z</time></trkpt><trkpt lat="-19.76961196519617" lon="121.10967858806626"><ele>29.5</ele><time>2026-04-24T03:24:04Z</time></trkpt><trkpt lat="-19.769633050102335" lon="121.10997569436014"><ele>30.0</ele><time>2026-04-24T03:24:05Z</time></trkpt><trkpt lat="-19.769653463613164" lon="121.11027632825703"><ele>30.0</ele><time>2026-04-24T03:24:06Z</time></trkpt><trkpt lat="-19.769671937202794" lon="121.11057300013857"><ele>30.0</ele><time>2026-04-24T03:24:07Z</time></trkpt><trkpt lat="-19.769693993463093" lon="121.1108711176956"><ele>29.5</ele><time>2026-04-24T03:24:08Z</time></trkpt><trkpt lat="-19.76971696462988" lon="121.11116786435431"><ele>29.0</ele><time>2026-04-24T03:24:09Z</time></trkpt><trkpt lat="-19.769739630641325" lon="121.1114684060056"><ele>28.5</ele><time>2026-04-24T03:24:10Z</time></trkpt><trkpt lat="-19.76975951338443" lon="121.11177091333427"><ele>28.0</ele><time>2026-04-24T03:24:11Z</time></trkpt><trkpt lat="-19.769781296857648" lon="121.11207340504062"><ele>28.0</ele><time>2026-04-24T03:24:12Z</time></trkpt><trkpt lat="-19.769802143726597" lon="121.11237768822296"><ele>28.0</ele><time>2026-04-24T03:24:13Z</time></trkpt><trkpt lat="-19.76982825170543" lon="121.11267858873538"><ele>29.0</ele><time>2026-04-24T03:24:14Z</time></trkpt><trkpt lat="-19.769858958907946" lon="121.11297983195296"><ele>30.0</ele><time>2026-04-24T03:24:15Z</time></trkpt><trkpt lat="-19.769886409284258" lon="121.113291150126"><ele>30.5</ele><time>2026-04-24T03:24:16Z</time></trkpt><trkpt lat="-19.769906934416" lon="121.11359648425484"><ele>31.0</ele><time>2026-04-24T03:24:17Z</time></trkpt><trkpt lat="-19.769925008732123" lon="121.11390606685974"><ele>31.0</ele><time>2026-04-24T03:24:18Z</time></trkpt><trkpt lat="-19.769950597134287" lon="121.11421780801122"><ele>31.0</ele><time>2026-04-24T03:24:19Z</time></trkpt><trkpt lat="-19.769975140463824" lon="121.11453037188636"><ele>31.0</ele><time>2026-04-24T03:24:20Z</time></trkpt><trkpt lat="-19.770000717843587" lon="121.11484390020996"><ele>31.0</ele><time>2026-04-24T03:24:21Z</time></trkpt><trkpt lat="-19.77002624259251" lon="121.11515341556134"><ele>30.5</ele><time>2026-04-24T03:24:22Z</time></trkpt><trkpt lat="-19.770051177437526" lon="121.11546426823477"><ele>30.0</ele><time>2026-04-24T03:24:23Z</time></trkpt><trkpt lat="-19.770078026470262" lon="121.11577437002146"><ele>30.0</ele><time>2026-04-24T03:24:24Z</time></trkpt><trkpt lat="-19.770101360574508" lon="121.11607742089902"><ele>30.0</ele><time>2026-04-24T03:24:25Z</time></trkpt><trkpt lat="-19.770124712870935" lon="121.11637706011551"><ele>29.5</ele><time>2026-04-24T03:24:26Z</time></trkpt><trkpt lat="-19.770148223967034" lon="121.11668438444424"><ele>29.0</ele><time>2026-04-24T03:24:27Z</time></trkpt><trkpt lat="-19.770171801287788" lon="121.11699407589963"><ele>29.5</ele><time>2026-04-24T03:24:28Z</time></trkpt><trkpt lat="-19.77019850165367" lon="121.11730381996101"><ele>30.0</ele><time>2026-04-24T03:24:29Z</time></trkpt><trkpt lat="-19.770222675944172" lon="121.11761244388475"><ele>30.0</ele><time>2026-04-24T03:24:30Z</time></trkpt><trkpt lat="-19.770243554204207" lon="121.1179190958888"><ele>30.0</ele><time>2026-04-24T03:24:31Z</time></trkpt><trkpt lat="-19.770268640137484" lon="121.1182309859761"><ele>29.5</ele><time>2026-04-24T03:24:32Z</time></trkpt><trkpt lat="-19.770291253786755" lon="121.11853784810421"><ele>29.0</ele><time>2026-04-24T03:24:33Z</time></trkpt><trkpt lat="-19.77031468477877" lon="121.11885077152463"><ele>29.0</ele><time>2026-04-24T03:24:34Z</time></trkpt><trkpt lat="-19.770339047942617" lon="121.11916512830315"><ele>29.0</ele><time>2026-04-24T03:24:35Z</time></trkpt><trkpt lat="-19.77036225637445" lon="121.11947843158063"><ele>29.0</ele><time>2026-04-24T03:24:36Z</time></trkpt><trkpt lat="-19.77038507521857" lon="121.1197935900052"><ele>29.0</ele><time>2026-04-24T03:24:37Z</time></trkpt><trkpt lat="-19.770409992322044" lon="121.12010620409613"><ele>29.5</ele><time>2026-04-24T03:24:38Z</time></trkpt><trkpt lat="-19.770433807363954" lon="121.12042173635862"><ele>30.0</ele><time>2026-04-24T03:24:39Z</time></trkpt><trkpt lat="-19.77045697139534" lon="121.12073938245828"><ele>30.0</ele><time>2026-04-24T03:24:40Z</time></trkpt><trkpt lat="-19.770482778803558" lon="121.12105274400625"><ele>30.0</ele><time>2026-04-24T03:24:41Z</time></trkpt><trkpt lat="-19.770508583939986" lon="121.12136335032143"><ele>30.0</ele><time>2026-04-24T03:24:42Z</time></trkpt><trkpt lat="-19.770531980271954" lon="121.12167763138294"><ele>30.0</ele><time>2026-04-24T03:24:43Z</time></trkpt><trkpt lat="-19.770556345415685" lon="121.12198643580186"><ele>30.0</ele><time>2026-04-24T03:24:44Z</time></trkpt><trkpt lat="-19.77057971679723" lon="121.12229253502171"><ele>30.0</ele><time>2026-04-24T03:24:45Z</time></trkpt><trkpt lat="-19.770604851349834" lon="121.12259412509577"><ele>29.5</ele><time>2026-04-24T03:24:46Z</time></trkpt><trkpt lat="-19.770631114771593" lon="121.1228966780997"><ele>29.0</ele><time>2026-04-24T03:24:47Z</time></trkpt><trkpt lat="-19.770656418247462" lon="121.123197106873"><ele>29.0</ele><time>2026-04-24T03:24:48Z</time></trkpt><trkpt lat="-19.770696921967147" lon="121.12380486411014"><ele>29.5</ele><time>2026-04-24T03:24:50Z</time></trkpt><trkpt lat="-19.77071662174599" lon="121.1241064372854"><ele>30.0</ele><time>2026-04-24T03:24:51Z</time></trkpt><trkpt lat="-19.770738439958038" lon="121.12441157249364"><ele>30.0</ele><time>2026-04-24T03:24:52Z</time></trkpt><trkpt lat="-19.770762852655828" lon="121.12471622642637"><ele>30.0</ele><time>2026-04-24T03:24:53Z</time></trkpt><trkpt lat="-19.770787246171103" lon="121.12501820115514"><ele>28.5</ele><time>2026-04-24T03:24:54Z</time></trkpt><trkpt lat="-19.77081103720448" lon="121.12532200789721"><ele>27.0</ele><time>2026-04-24T03:24:55Z</time></trkpt><trkpt lat="-19.770833385174875" lon="121.12562401854309"><ele>27.5</ele><time>2026-04-24T03:24:56Z</time></trkpt><trkpt lat="-19.77085819885198" lon="121.12592299986149"><ele>28.0</ele><time>2026-04-24T03:24:57Z</time></trkpt><trkpt lat="-19.770884646522777" lon="121.12622260116363"><ele>28.0</ele><time>2026-04-24T03:24:58Z</time></trkpt><trkpt lat="-19.77091096289875" lon="121.12652049100195"><ele>28.0</ele><time>2026-04-24T03:24:59Z</time></trkpt><trkpt lat="-19.770932563734924" lon="121.12681934515602"><ele>28.0</ele><time>2026-04-24T03:25:00Z</time></trkpt><trkpt lat="-19.770954663473567" lon="121.12711824713101"><ele>28.0</ele><time>2026-04-24T03:25:01Z</time></trkpt><trkpt lat="-19.770977201942404" lon="121.12741666893673"><ele>27.5</ele><time>2026-04-24T03:25:02Z</time></trkpt><trkpt lat="-19.770999286472673" lon="121.12771480729833"><ele>27.0</ele><time>2026-04-24T03:25:03Z</time></trkpt><trkpt lat="-19.77102015897791" lon="121.12801503349166"><ele>27.5</ele><time>2026-04-24T03:25:04Z</time></trkpt><trkpt lat="-19.77104418463978" lon="121.12831400550256"><ele>28.0</ele><time>2026-04-24T03:25:05Z</time></trkpt><trkpt lat="-19.771071397975746" lon="121.12861144574583"><ele>28.0</ele><time>2026-04-24T03:25:06Z</time></trkpt><trkpt lat="-19.771097319641417" lon="121.12890675807724"><ele>28.0</ele><time>2026-04-24T03:25:07Z</time></trkpt><trkpt lat="-19.771122252716363" lon="121.12919996516065"><ele>27.0</ele><time>2026-04-24T03:25:08Z</time></trkpt><trkpt lat="-19.77114314561205" lon="121.12949171403656"><ele>26.0</ele><time>2026-04-24T03:25:09Z</time></trkpt><trkpt lat="-19.771163006990374" lon="121.12978450671753"><ele>25.5</ele><time>2026-04-24T03:25:10Z</time></trkpt><trkpt lat="-19.77118135839678" lon="121.13007597437526"><ele>25.0</ele><time>2026-04-24T03:25:11Z</time></trkpt><trkpt lat="-19.771199761937567" lon="121.1303694383597"><ele>25.0</ele><time>2026-04-24T03:25:12Z</time></trkpt><trkpt lat="-19.771219685150996" lon="121.13066203332824"><ele>25.0</ele><time>2026-04-24T03:25:13Z</time></trkpt><trkpt lat="-19.771242224898035" lon="121.13095549198611"><ele>25.0</ele><time>2026-04-24T03:25:14Z</time></trkpt><trkpt lat="-19.77126347915998" lon="121.13124838634187"><ele>25.0</ele><time>2026-04-24T03:25:15Z</time></trkpt><trkpt lat="-19.771286497359913" lon="121.13153933362636"><ele>24.5</ele><time>2026-04-24T03:25:16Z</time></trkpt><trkpt lat="-19.771312205337278" lon="121.13182843593407"><ele>24.0</ele><time>2026-04-24T03:25:17Z</time></trkpt><trkpt lat="-19.771336398047875" lon="121.13211431229718"><ele>23.0</ele><time>2026-04-24T03:25:18Z</time></trkpt><trkpt lat="-19.771357447225522" lon="121.13240382290418"><ele>22.0</ele><time>2026-04-24T03:25:19Z</time></trkpt><trkpt lat="-19.77137370970459" lon="121.13269251384169"><ele>22.0</ele><time>2026-04-24T03:25:20Z</time></trkpt><trkpt lat="-19.77138910707428" lon="121.1329799494122"><ele>22.0</ele><time>2026-04-24T03:25:21Z</time></trkpt><trkpt lat="-19.771397745908867" lon="121.13327076910333"><ele>22.0</ele><time>2026-04-24T03:25:22Z</time></trkpt><trkpt lat="-19.771398850668724" lon="121.13356799780352"><ele>22.0</ele><time>2026-04-24T03:25:23Z</time></trkpt><trkpt lat="-19.771393707144775" lon="121.13387323163178"><ele>22.0</ele><time>2026-04-24T03:25:24Z</time></trkpt><trkpt lat="-19.77138611398261" lon="121.13417850528575"><ele>22.0</ele><time>2026-04-24T03:25:25Z</time></trkpt><trkpt lat="-19.77137650991608" lon="121.13448110210355"><ele>22.0</ele><time>2026-04-24T03:25:26Z</time></trkpt><trkpt lat="-19.771359935774882" lon="121.13478063471176"><ele>22.0</ele><time>2026-04-24T03:25:27Z</time></trkpt><trkpt lat="-19.771339734991752" lon="121.13508154162311"><ele>21.5</ele><time>2026-04-24T03:25:28Z</time></trkpt><trkpt lat="-19.771314502208575" lon="121.1353811593074"><ele>21.0</ele><time>2026-04-24T03:25:29Z</time></trkpt><trkpt lat="-19.771283673931272" lon="121.13568372582945"><ele>21.0</ele><time>2026-04-24T03:25:30Z</time></trkpt><trkpt lat="-19.771245681527418" lon="121.1359833489092"><ele>21.0</ele><time>2026-04-24T03:25:31Z</time></trkpt><trkpt lat="-19.77120237838385" lon="121.13628467825704"><ele>20.0</ele><time>2026-04-24T03:25:32Z</time></trkpt><trkpt lat="-19.77115343609609" lon="121.13658106744633"><ele>19.0</ele><time>2026-04-24T03:25:33Z</time></trkpt><trkpt lat="-19.77110103478242" lon="121.1368764706674"><ele>19.0</ele><time>2026-04-24T03:25:34Z</time></trkpt><trkpt lat="-19.771044014152302" lon="121.1371720970095"><ele>19.0</ele><time>2026-04-24T03:25:35Z</time></trkpt><trkpt lat="-19.770983132760612" lon="121.13746693873202"><ele>20.5</ele><time>2026-04-24T03:25:36Z</time></trkpt><trkpt lat="-19.770918254843288" lon="121.13776407566647"><ele>22.0</ele><time>2026-04-24T03:25:37Z</time></trkpt><trkpt lat="-19.77084715467705" lon="121.1380591759121"><ele>22.0</ele><time>2026-04-24T03:25:38Z</time></trkpt><trkpt lat="-19.77076802642456" lon="121.13835097225014"><ele>22.0</ele><time>2026-04-24T03:25:39Z</time></trkpt><trkpt lat="-19.77068545907887" lon="121.13863684614363"><ele>22.0</ele><time>2026-04-24T03:25:40Z</time></trkpt><trkpt lat="-19.770600856479675" lon="121.13891919181299"><ele>22.0</ele><time>2026-04-24T03:25:41Z</time></trkpt><trkpt lat="-19.770515373795757" lon="121.13920039595612"><ele>21.0</ele><time>2026-04-24T03:25:42Z</time></trkpt><trkpt lat="-19.770422645203062" lon="121.13947603587039"><ele>20.0</ele><time>2026-04-24T03:25:43Z</time></trkpt><trkpt lat="-19.770325786780035" lon="121.13974568852788"><ele>19.5</ele><time>2026-04-24T03:25:44Z</time></trkpt><trkpt lat="-19.77022534129312" lon="121.14001693181302"><ele>19.0</ele><time>2026-04-24T03:25:45Z</time></trkpt><trkpt lat="-19.770124537239628" lon="121.14028798076463"><ele>19.0</ele><time>2026-04-24T03:25:46.001Z</time></trkpt><trkpt lat="-19.770021972738764" lon="121.140559333849"><ele>19.0</ele><time>2026-04-24T03:25:47.001Z</time></trkpt><trkpt lat="-19.769918448106633" lon="121.14083452558438"><ele>18.5</ele><time>2026-04-24T03:25:48.001Z</time></trkpt><trkpt lat="-19.769815132081" lon="121.14110982315196"><ele>18.0</ele><time>2026-04-24T03:25:49.001Z</time></trkpt><trkpt lat="-19.76971402791922" lon="121.14138170875013"><ele>17.5</ele><time>2026-04-24T03:25:50.001Z</time></trkpt><trkpt lat="-19.76961543241886" lon="121.14165172228292"><ele>17.0</ele><time>2026-04-24T03:25:51.001Z</time></trkpt><trkpt lat="-19.76951796927959" lon="121.1419201865461"><ele>17.0</ele><time>2026-04-24T03:25:52.001Z</time></trkpt><trkpt lat="-19.769420134935526" lon="121.14218926968832"><ele>17.0</ele><time>2026-04-24T03:25:53.001Z</time></trkpt><trkpt lat="-19.769322628788228" lon="121.14245675677964"><ele>17.0</ele><time>2026-04-24T03:25:54.001Z</time></trkpt><trkpt lat="-19.769223882632858" lon="121.14272694656515"><ele>17.0</ele><time>2026-04-24T03:25:55.001Z</time></trkpt><trkpt lat="-19.769126797461325" lon="121.14299915914165"><ele>16.0</ele><time>2026-04-24T03:25:56.001Z</time></trkpt><trkpt lat="-19.76902741868324" lon="121.14327630586646"><ele>15.0</ele><time>2026-04-24T03:25:56.999Z</time></trkpt><trkpt lat="-19.76892526453072" lon="121.14355519867956"><ele>15.0</ele><time>2026-04-24T03:25:57.999Z</time></trkpt><trkpt lat="-19.76882228478569" lon="121.14383743374486"><ele>15.0</ele><time>2026-04-24T03:25:58.999Z</time></trkpt><trkpt lat="-19.76871677380795" lon="121.14412431295555"><ele>15.5</ele><time>2026-04-24T03:25:59.999Z</time></trkpt><trkpt lat="-19.76861094578913" lon="121.14441072395213"><ele>16.0</ele><time>2026-04-24T03:26:00.999Z</time></trkpt><trkpt lat="-19.768505265478385" lon="121.1446987495416"><ele>15.0</ele><time>2026-04-24T03:26:01.999Z</time></trkpt><trkpt lat="-19.768400409752577" lon="121.14498787105167"><ele>14.0</ele><time>2026-04-24T03:26:02.999Z</time></trkpt><trkpt lat="-19.768293907815245" lon="121.14527487430689"><ele>14.0</ele><time>2026-04-24T03:26:03.999Z</time></trkpt><trkpt lat="-19.76818796807558" lon="121.14555895662878"><ele>14.0</ele><time>2026-04-24T03:26:04.999Z</time></trkpt><trkpt lat="-19.76808241992972" lon="121.14584422562456"><ele>13.5</ele><time>2026-04-24T03:26:05.999Z</time></trkpt><trkpt lat="-19.767978601652324" lon="121.14612693344473"><ele>13.0</ele><time>2026-04-24T03:26:06.999Z</time></trkpt><trkpt lat="-19.767876927122686" lon="121.14641083575654"><ele>13.0</ele><time>2026-04-24T03:26:07.999Z</time></trkpt><trkpt lat="-19.767773556231127" lon="121.14669251011445"><ele>13.0</ele><time>2026-04-24T03:26:08.999Z</time></trkpt><trkpt lat="-19.767667696218123" lon="121.14697436084366"><ele>13.0</ele><time>2026-04-24T03:26:09.999Z</time></trkpt><trkpt lat="-19.767564797429163" lon="121.14725247254549"><ele>13.0</ele><time>2026-04-24T03:26:10.999Z</time></trkpt><trkpt lat="-19.76746566923143" lon="121.14753279584153"><ele>13.5</ele><time>2026-04-24T03:26:11.999Z</time></trkpt><trkpt lat="-19.767368330325127" lon="121.1478046311158"><ele>14.0</ele><time>2026-04-24T03:26:12.999Z</time></trkpt><trkpt lat="-19.767267595187846" lon="121.14807667564062"><ele>13.5</ele><time>2026-04-24T03:26:13.999Z</time></trkpt><trkpt lat="-19.76716794708139" lon="121.14834117472815"><ele>13.0</ele><time>2026-04-24T03:26:14.999Z</time></trkpt><trkpt lat="-19.767070507928" lon="121.14860077054759"><ele>13.0</ele><time>2026-04-24T03:26:15.999Z</time></trkpt><trkpt lat="-19.766979146269936" lon="121.14885845526229"><ele>13.0</ele><time>2026-04-24T03:26:16.999Z</time></trkpt><trkpt lat="-19.766890311356995" lon="121.1491127017573"><ele>13.5</ele><time>2026-04-24T03:26:18Z</time></trkpt><trkpt lat="-19.76679644526776" lon="121.14935925427774"><ele>14.0</ele><time>2026-04-24T03:26:19Z</time></trkpt><trkpt lat="-19.766699289214714" lon="121.14960917297529"><ele>14.0</ele><time>2026-04-24T03:26:20Z</time></trkpt><trkpt lat="-19.766604788658448" lon="121.14985789707684"><ele>14.0</ele><time>2026-04-24T03:26:21Z</time></trkpt><trkpt lat="-19.766513036043584" lon="121.15011115496151"><ele>13.5</ele><time>2026-04-24T03:26:22Z</time></trkpt><trkpt lat="-19.76642334022836" lon="121.15036311383768"><ele>13.0</ele><time>2026-04-24T03:26:23Z</time></trkpt><trkpt lat="-19.766332771348445" lon="121.15061402846966"><ele>13.0</ele><time>2026-04-24T03:26:24Z</time></trkpt><trkpt lat="-19.76624031252003" lon="121.15086701349371"><ele>13.0</ele><time>2026-04-24T03:26:25Z</time></trkpt><trkpt lat="-19.766142045695457" lon="121.15112514732687"><ele>13.0</ele><time>2026-04-24T03:26:26Z</time></trkpt><trkpt lat="-19.766042597313252" lon="121.15138673939691"><ele>13.0</ele><time>2026-04-24T03:26:27Z</time></trkpt><trkpt lat="-19.765944477523693" lon="121.15164974946188"><ele>13.0</ele><time>2026-04-24T03:26:28Z</time></trkpt><trkpt lat="-19.76584705612994" lon="121.15191237222018"><ele>13.0</ele><time>2026-04-24T03:26:29Z</time></trkpt><trkpt lat="-19.765753930717256" lon="121.15217578298167"><ele>13.0</ele><time>2026-04-24T03:26:30Z</time></trkpt><trkpt lat="-19.76565909949186" lon="121.1524431537936"><ele>13.0</ele><time>2026-04-24T03:26:31Z</time></trkpt><trkpt lat="-19.765561646157156" lon="121.15270845507098"><ele>13.0</ele><time>2026-04-24T03:26:32Z</time></trkpt><trkpt lat="-19.765461814750722" lon="121.15297754967986"><ele>13.0</ele><time>2026-04-24T03:26:33Z</time></trkpt><trkpt lat="-19.765361186087553" lon="121.1532479360813"><ele>13.5</ele><time>2026-04-24T03:26:34Z</time></trkpt><trkpt lat="-19.765261330914484" lon="121.15351790161904"><ele>14.0</ele><time>2026-04-24T03:26:35Z</time></trkpt><trkpt lat="-19.76516299675182" lon="121.1537858757009"><ele>13.5</ele><time>2026-04-24T03:26:36Z</time></trkpt><trkpt lat="-19.765062091592675" lon="121.15405677477358"><ele>13.0</ele><time>2026-04-24T03:26:37Z</time></trkpt><trkpt lat="-19.7649633691702" lon="121.15432916373275"><ele>13.0</ele><time>2026-04-24T03:26:38Z</time></trkpt><trkpt lat="-19.764862710640045" lon="121.1546056215853"><ele>13.0</ele><time>2026-04-24T03:26:39Z</time></trkpt><trkpt lat="-19.76476050427952" lon="121.15488442567244"><ele>12.5</ele><time>2026-04-24T03:26:40Z</time></trkpt><trkpt lat="-19.764657060263737" lon="121.15516561726074"><ele>12.0</ele><time>2026-04-24T03:26:41Z</time></trkpt><trkpt lat="-19.764554356236147" lon="121.15544595095338"><ele>12.0</ele><time>2026-04-24T03:26:42Z</time></trkpt><trkpt lat="-19.764453604226656" lon="121.15572282566023"><ele>12.0</ele><time>2026-04-24T03:26:43Z</time></trkpt><trkpt lat="-19.76435430144982" lon="121.15599434821385"><ele>11.5</ele><time>2026-04-24T03:26:44Z</time></trkpt><trkpt lat="-19.76425613854494" lon="121.15626628667117"><ele>11.0</ele><time>2026-04-24T03:26:45Z</time></trkpt><trkpt lat="-19.764157807476735" lon="121.15653659243789"><ele>11.0</ele><time>2026-04-24T03:26:46Z</time></trkpt><trkpt lat="-19.764058527572388" lon="121.15680395222351"><ele>11.0</ele><time>2026-04-24T03:26:47Z</time></trkpt><trkpt lat="-19.76395548340155" lon="121.15707477306677"><ele>11.0</ele><time>2026-04-24T03:26:48Z</time></trkpt><trkpt lat="-19.76385451590763" lon="121.15734778045292"><ele>11.0</ele><time>2026-04-24T03:26:49Z</time></trkpt><trkpt lat="-19.763754031689206" lon="121.15762517186167"><ele>10.5</ele><time>2026-04-24T03:26:50Z</time></trkpt><trkpt lat="-19.7636535344815" lon="121.1579025651038"><ele>10.0</ele><time>2026-04-24T03:26:51Z</time></trkpt><trkpt lat="-19.763551205319818" lon="121.15818084386848"><ele>9.0</ele><time>2026-04-24T03:26:52Z</time></trkpt><trkpt lat="-19.763446435193345" lon="121.15846185072348"><ele>8.0</ele><time>2026-04-24T03:26:53Z</time></trkpt><trkpt lat="-19.76334388718247" lon="121.15874194968549"><ele>8.0</ele><time>2026-04-24T03:26:54Z</time></trkpt><trkpt lat="-19.76324057086315" lon="121.1590197547034"><ele>8.0</ele><time>2026-04-24T03:26:55Z</time></trkpt><trkpt lat="-19.763137503113462" lon="121.1592993662011"><ele>10.5</ele><time>2026-04-24T03:26:56Z</time></trkpt><trkpt lat="-19.763034872067752" lon="121.15957855501382"><ele>13.0</ele><time>2026-04-24T03:26:57Z</time></trkpt><trkpt lat="-19.762934468088293" lon="121.15985692502238"><ele>13.0</ele><time>2026-04-24T03:26:58Z</time></trkpt><trkpt lat="-19.76283333992632" lon="121.16013654392756"><ele>13.0</ele><time>2026-04-24T03:26:59Z</time></trkpt><trkpt lat="-19.762729086575973" lon="121.16041732121174"><ele>12.5</ele><time>2026-04-24T03:27:00Z</time></trkpt><trkpt lat="-19.762624756635535" lon="121.16069982337743"><ele>12.0</ele><time>2026-04-24T03:27:01Z</time></trkpt><trkpt lat="-19.762520532204796" lon="121.16098727479641"><ele>12.0</ele><time>2026-04-24T03:27:02Z</time></trkpt><trkpt lat="-19.76241669029427" lon="121.16127487534104"><ele>12.0</ele><time>2026-04-24T03:27:03Z</time></trkpt><trkpt lat="-19.762310377873707" lon="121.1615634724719"><ele>11.5</ele><time>2026-04-24T03:27:04Z</time></trkpt><trkpt lat="-19.762203870587882" lon="121.16185134054142"><ele>11.0</ele><time>2026-04-24T03:27:05Z</time></trkpt><trkpt lat="-19.762098742435704" lon="121.16213828848633"><ele>11.5</ele><time>2026-04-24T03:27:06Z</time></trkpt><trkpt lat="-19.76199332494448" lon="121.16242340376773"><ele>12.0</ele><time>2026-04-24T03:27:07Z</time></trkpt><trkpt lat="-19.76188785889862" lon="121.16270473014511"><ele>12.0</ele><time>2026-04-24T03:27:08Z</time></trkpt><trkpt lat="-19.761784367373014" lon="121.16298339390227"><ele>12.0</ele><time>2026-04-24T03:27:09Z</time></trkpt><trkpt lat="-19.76168198257388" lon="121.16325835408658"><ele>11.5</ele><time>2026-04-24T03:27:10Z</time></trkpt><trkpt lat="-19.761580563237363" lon="121.16353581314692"><ele>11.0</ele><time>2026-04-24T03:27:11Z</time></trkpt><trkpt lat="-19.761476214812134" lon="121.16381549756422"><ele>11.0</ele><time>2026-04-24T03:27:12Z</time></trkpt><trkpt lat="-19.761374961364407" lon="121.16409079417046"><ele>11.0</ele><time>2026-04-24T03:27:13Z</time></trkpt><trkpt lat="-19.761274044223157" lon="121.16436854103873"><ele>11.0</ele><time>2026-04-24T03:27:14Z</time></trkpt><trkpt lat="-19.761172199424234" lon="121.16464275869961"><ele>11.0</ele><time>2026-04-24T03:27:15Z</time></trkpt><trkpt lat="-19.761069369662344" lon="121.16491848437978"><ele>10.5</ele><time>2026-04-24T03:27:16Z</time></trkpt><trkpt lat="-19.760968035398722" lon="121.16519102873134"><ele>10.0</ele><time>2026-04-24T03:27:17Z</time></trkpt><trkpt lat="-19.760866943030855" lon="121.16546503533134"><ele>9.5</ele><time>2026-04-24T03:27:18Z</time></trkpt><trkpt lat="-19.76076613002677" lon="121.16573644883505"><ele>9.0</ele><time>2026-04-24T03:27:19Z</time></trkpt><trkpt lat="-19.7606649363654" lon="121.16600917607883"><ele>9.0</ele><time>2026-04-24T03:27:20Z</time></trkpt><trkpt lat="-19.760564500481824" lon="121.16628552594676"><ele>9.0</ele><time>2026-04-24T03:27:21Z</time></trkpt><trkpt lat="-19.760466906723032" lon="121.16656214780906"><ele>9.0</ele><time>2026-04-24T03:27:22Z</time></trkpt><trkpt lat="-19.76036892455631" lon="121.1668415524657"><ele>9.0</ele><time>2026-04-24T03:27:23Z</time></trkpt><trkpt lat="-19.760269709755775" lon="121.1671183304864"><ele>9.5</ele><time>2026-04-24T03:27:24Z</time></trkpt><trkpt lat="-19.760171697627424" lon="121.16739136087261"><ele>10.0</ele><time>2026-04-24T03:27:25Z</time></trkpt><trkpt lat="-19.760073263252725" lon="121.16766334708201"><ele>10.0</ele><time>2026-04-24T03:27:26Z</time></trkpt><trkpt lat="-19.75997361057807" lon="121.16793456517206"><ele>10.0</ele><time>2026-04-24T03:27:27Z</time></trkpt><trkpt lat="-19.759871987095515" lon="121.16820416106918"><ele>9.5</ele><time>2026-04-24T03:27:28Z</time></trkpt><trkpt lat="-19.75977123372042" lon="121.1684727361656"><ele>9.0</ele><time>2026-04-24T03:27:29Z</time></trkpt><trkpt lat="-19.75967145180649" lon="121.16874159110897"><ele>9.0</ele><time>2026-04-24T03:27:30Z</time></trkpt><trkpt lat="-19.759573950948422" lon="121.16900551885428"><ele>9.0</ele><time>2026-04-24T03:27:31Z</time></trkpt><trkpt lat="-19.75947636891924" lon="121.16927112007822"><ele>9.5</ele><time>2026-04-24T03:27:32Z</time></trkpt><trkpt lat="-19.759378665204245" lon="121.16953261666322"><ele>10.0</ele><time>2026-04-24T03:27:33Z</time></trkpt><trkpt lat="-19.759282915018886" lon="121.16979766854546"><ele>9.5</ele><time>2026-04-24T03:27:34Z</time></trkpt><trkpt lat="-19.759183192467226" lon="121.17006422428335"><ele>9.0</ele><time>2026-04-24T03:27:35Z</time></trkpt><trkpt lat="-19.75908415116737" lon="121.17033417063695"><ele>9.0</ele><time>2026-04-24T03:27:36Z</time></trkpt><trkpt lat="-19.75898617033332" lon="121.17060662285428"><ele>9.0</ele><time>2026-04-24T03:27:37Z</time></trkpt><trkpt lat="-19.75888715305307" lon="121.1708830831284"><ele>9.0</ele><time>2026-04-24T03:27:38Z</time></trkpt><trkpt lat="-19.758785819234195" lon="121.17115869561039"><ele>9.0</ele><time>2026-04-24T03:27:39Z</time></trkpt><trkpt lat="-19.75868114253007" lon="121.17143519298409"><ele>10.5</ele><time>2026-04-24T03:27:40Z</time></trkpt><trkpt lat="-19.758578232367327" lon="121.17171371019268"><ele>12.0</ele><time>2026-04-24T03:27:41Z</time></trkpt><trkpt lat="-19.758475851575614" lon="121.17199095200803"><ele>12.0</ele><time>2026-04-24T03:27:42Z</time></trkpt><trkpt lat="-19.758374110765462" lon="121.172266101261"><ele>12.0</ele><time>2026-04-24T03:27:43Z</time></trkpt><trkpt lat="-19.75827423607528" lon="121.17254054895275"><ele>10.5</ele><time>2026-04-24T03:27:44Z</time></trkpt><trkpt lat="-19.758174226195944" lon="121.1728144751665"><ele>9.0</ele><time>2026-04-24T03:27:45Z</time></trkpt><trkpt lat="-19.758072890442918" lon="121.17308773485271"><ele>9.0</ele><time>2026-04-24T03:27:46Z</time></trkpt><trkpt lat="-19.75797019331953" lon="121.17336289482782"><ele>9.0</ele><time>2026-04-24T03:27:47Z</time></trkpt><trkpt lat="-19.757865894399895" lon="121.173642030117"><ele>9.0</ele><time>2026-04-24T03:27:48Z</time></trkpt><trkpt lat="-19.757764414229527" lon="121.17392223487697"><ele>9.0</ele><time>2026-04-24T03:27:49Z</time></trkpt><trkpt lat="-19.757661118492273" lon="121.17420480091054"><ele>8.5</ele><time>2026-04-24T03:27:50Z</time></trkpt><trkpt lat="-19.757557620887507" lon="121.17448807867258"><ele>8.0</ele><time>2026-04-24T03:27:51Z</time></trkpt><trkpt lat="-19.75745324137763" lon="121.17477394830892"><ele>8.5</ele><time>2026-04-24T03:27:52Z</time></trkpt><trkpt lat="-19.757347349738083" lon="121.17506231711617"><ele>9.0</ele><time>2026-04-24T03:27:53Z</time></trkpt><trkpt lat="-19.757241014275234" lon="121.17535206232228"><ele>9.0</ele><time>2026-04-24T03:27:54Z</time></trkpt><trkpt lat="-19.757134796667575" lon="121.17564317312157"><ele>9.0</ele><time>2026-04-24T03:27:55Z</time></trkpt><trkpt lat="-19.757028517839004" lon="121.17593265502937"><ele>8.5</ele><time>2026-04-24T03:27:56Z</time></trkpt><trkpt lat="-19.756922203795515" lon="121.17622378629461"><ele>8.0</ele><time>2026-04-24T03:27:57Z</time></trkpt><trkpt lat="-19.756816735307687" lon="121.17651744903984"><ele>9.5</ele><time>2026-04-24T03:27:58Z</time></trkpt><trkpt lat="-19.756709755655706" lon="121.17680838708736"><ele>11.0</ele><time>2026-04-24T03:27:59Z</time></trkpt><trkpt lat="-19.75659991663624" lon="121.17710154412711"><ele>10.5</ele><time>2026-04-24T03:28:00Z</time></trkpt><trkpt lat="-19.756491587466392" lon="121.1773941356365"><ele>10.0</ele><time>2026-04-24T03:28:01Z</time></trkpt><trkpt lat="-19.756381659388378" lon="121.17768978619476"><ele>10.0</ele><time>2026-04-24T03:28:02Z</time></trkpt><trkpt lat="-19.756274230972764" lon="121.1779843037071"><ele>10.0</ele><time>2026-04-24T03:28:03Z</time></trkpt><trkpt lat="-19.75616550537553" lon="121.17827628646472"><ele>10.5</ele><time>2026-04-24T03:28:04Z</time></trkpt><trkpt lat="-19.756059641650076" lon="121.1785624864546"><ele>11.0</ele><time>2026-04-24T03:28:05Z</time></trkpt><trkpt lat="-19.755954672097808" lon="121.1788492460459"><ele>11.0</ele><time>2026-04-24T03:28:06Z</time></trkpt><trkpt lat="-19.75585078254631" lon="121.1791340339836"><ele>11.0</ele><time>2026-04-24T03:28:07Z</time></trkpt><trkpt lat="-19.755744186428917" lon="121.17942326720234"><ele>11.0</ele><time>2026-04-24T03:28:08Z</time></trkpt><trkpt lat="-19.755638584301952" lon="121.1797123006012"><ele>11.0</ele><time>2026-04-24T03:28:09Z</time></trkpt><trkpt lat="-19.755531309760443" lon="121.18000318660482"><ele>10.0</ele><time>2026-04-24T03:28:10Z</time></trkpt><trkpt lat="-19.755422048198326" lon="121.18029528843968"><ele>9.0</ele><time>2026-04-24T03:28:11Z</time></trkpt><trkpt lat="-19.755316574513426" lon="121.18058721539701"><ele>9.0</ele><time>2026-04-24T03:28:12Z</time></trkpt><trkpt lat="-19.755208913775064" lon="121.1808788041298"><ele>9.0</ele><time>2026-04-24T03:28:13Z</time></trkpt><trkpt lat="-19.75510125932445" lon="121.18116995712064"><ele>9.5</ele><time>2026-04-24T03:28:14Z</time></trkpt><trkpt lat="-19.754993240412055" lon="121.18146383439107"><ele>10.0</ele><time>2026-04-24T03:28:15Z</time></trkpt><trkpt lat="-19.754885212342156" lon="121.18175725222918"><ele>10.5</ele><time>2026-04-24T03:28:16Z</time></trkpt><trkpt lat="-19.754777504336552" lon="121.18204863981582"><ele>11.0</ele><time>2026-04-24T03:28:17Z</time></trkpt><trkpt lat="-19.75466930675241" lon="121.18233991504658"><ele>11.0</ele><time>2026-04-24T03:28:18Z</time></trkpt><trkpt lat="-19.75456082985068" lon="121.18263095608346"><ele>11.0</ele><time>2026-04-24T03:28:19Z</time></trkpt><trkpt lat="-19.75445558623488" lon="121.18291800990465"><ele>11.0</ele><time>2026-04-24T03:28:20Z</time></trkpt><trkpt lat="-19.754349458056147" lon="121.18320485840877"><ele>11.0</ele><time>2026-04-24T03:28:21Z</time></trkpt><trkpt lat="-19.75424499633528" lon="121.18348806743111"><ele>11.0</ele><time>2026-04-24T03:28:22Z</time></trkpt><trkpt lat="-19.754141969755437" lon="121.18376968770013"><ele>11.0</ele><time>2026-04-24T03:28:23Z</time></trkpt><trkpt lat="-19.754038901083206" lon="121.1840506813115"><ele>11.0</ele><time>2026-04-24T03:28:24Z</time></trkpt><trkpt lat="-19.753936462630538" lon="121.18433136353006"><ele>11.0</ele><time>2026-04-24T03:28:25Z</time></trkpt><trkpt lat="-19.75383513491168" lon="121.18461291507356"><ele>10.0</ele><time>2026-04-24T03:28:26Z</time></trkpt><trkpt lat="-19.753732096274884" lon="121.18489439733845"><ele>9.0</ele><time>2026-04-24T03:28:27Z</time></trkpt><trkpt lat="-19.753626583503177" lon="121.18517456055042"><ele>9.0</ele><time>2026-04-24T03:28:28Z</time></trkpt><trkpt lat="-19.7535144384028" lon="121.18545980190746"><ele>9.0</ele><time>2026-04-24T03:28:29Z</time></trkpt><trkpt lat="-19.753397736719517" lon="121.18574282098663"><ele>9.0</ele><time>2026-04-24T03:28:30Z</time></trkpt><trkpt lat="-19.753274353534696" lon="121.1860262893286"><ele>9.0</ele><time>2026-04-24T03:28:31Z</time></trkpt><trkpt lat="-19.75314553963412" lon="121.18630511171554"><ele>10.0</ele><time>2026-04-24T03:28:32Z</time></trkpt><trkpt lat="-19.753013270166054" lon="121.1865786151061"><ele>11.0</ele><time>2026-04-24T03:28:33Z</time></trkpt><trkpt lat="-19.752881076788135" lon="121.1868498968966"><ele>11.0</ele><time>2026-04-24T03:28:34Z</time></trkpt><trkpt lat="-19.75274317009154" lon="121.1871182365126"><ele>11.0</ele><time>2026-04-24T03:28:35Z</time></trkpt><trkpt lat="-19.75259938203628" lon="121.18738279872437"><ele>9.0</ele><time>2026-04-24T03:28:36Z</time></trkpt><trkpt lat="-19.75244878590266" lon="121.18764055787662"><ele>7.0</ele><time>2026-04-24T03:28:37Z</time></trkpt><trkpt lat="-19.752293132617" lon="121.18789671979908"><ele>7.0</ele><time>2026-04-24T03:28:38Z</time></trkpt><trkpt lat="-19.752134853068643" lon="121.18814815448786"><ele>7.0</ele><time>2026-04-24T03:28:39Z</time></trkpt><trkpt lat="-19.751973539313735" lon="121.18839876823934"><ele>8.0</ele><time>2026-04-24T03:28:40Z</time></trkpt><trkpt lat="-19.75181055151667" lon="121.18864518146925"><ele>9.0</ele><time>2026-04-24T03:28:41Z</time></trkpt><trkpt lat="-19.75164294650116" lon="121.18888970296847"><ele>9.5</ele><time>2026-04-24T03:28:42Z</time></trkpt><trkpt lat="-19.75146985642707" lon="121.1891344149072"><ele>10.0</ele><time>2026-04-24T03:28:43Z</time></trkpt><trkpt lat="-19.75129499984738" lon="121.18937178082413"><ele>10.0</ele><time>2026-04-24T03:28:44Z</time></trkpt><trkpt lat="-19.751115007383294" lon="121.18960556521803"><ele>10.0</ele><time>2026-04-24T03:28:45Z</time></trkpt><trkpt lat="-19.750934925689762" lon="121.18983735648882"><ele>10.0</ele><time>2026-04-24T03:28:46Z</time></trkpt><trkpt lat="-19.750747438079696" lon="121.19006695182959"><ele>10.0</ele><time>2026-04-24T03:28:47Z</time></trkpt><trkpt lat="-19.750560863039976" lon="121.19028718845671"><ele>10.0</ele><time>2026-04-24T03:28:48Z</time></trkpt><trkpt lat="-19.750368792556568" lon="121.19050077814656"><ele>10.0</ele><time>2026-04-24T03:28:49Z</time></trkpt><trkpt lat="-19.750170885682046" lon="121.19071154964273"><ele>9.5</ele><time>2026-04-24T03:28:50Z</time></trkpt><trkpt lat="-19.74996812875399" lon="121.19092155656973"><ele>9.0</ele><time>2026-04-24T03:28:51Z</time></trkpt><trkpt lat="-19.749764825194145" lon="121.1911312335863"><ele>9.0</ele><time>2026-04-24T03:28:52Z</time></trkpt><trkpt lat="-19.749560646856327" lon="121.19133771517585"><ele>9.0</ele><time>2026-04-24T03:28:53Z</time></trkpt><trkpt lat="-19.749352529906083" lon="121.19153943119088"><ele>10.0</ele><time>2026-04-24T03:28:54Z</time></trkpt><trkpt lat="-19.749145231000778" lon="121.19173885296652"><ele>11.0</ele><time>2026-04-24T03:28:55Z</time></trkpt><trkpt lat="-19.748939665976984" lon="121.19193930941296"><ele>11.0</ele><time>2026-04-24T03:28:56Z</time></trkpt><trkpt lat="-19.74873448627854" lon="121.19214143177395"><ele>11.0</ele><time>2026-04-24T03:28:57Z</time></trkpt><trkpt lat="-19.748530909734285" lon="121.19234515152975"><ele>10.5</ele><time>2026-04-24T03:28:58Z</time></trkpt><trkpt lat="-19.748325706763463" lon="121.19255133876612"><ele>10.0</ele><time>2026-04-24T03:28:59Z</time></trkpt><trkpt lat="-19.748119440018563" lon="121.19275885126264"><ele>10.0</ele><time>2026-04-24T03:29:00Z</time></trkpt><trkpt lat="-19.747912262348652" lon="121.19296666313144"><ele>10.0</ele><time>2026-04-24T03:29:01Z</time></trkpt><trkpt lat="-19.74770188590109" lon="121.19317450180519"><ele>10.0</ele><time>2026-04-24T03:29:02Z</time></trkpt><trkpt lat="-19.74749308118205" lon="121.19337950376327"><ele>10.0</ele><time>2026-04-24T03:29:03Z</time></trkpt><trkpt lat="-19.74728385079501" lon="121.19358692823013"><ele>10.0</ele><time>2026-04-24T03:29:04Z</time></trkpt><trkpt lat="-19.74707384158769" lon="121.19379502108393"><ele>10.0</ele><time>2026-04-24T03:29:05Z</time></trkpt><trkpt lat="-19.746862666117323" lon="121.19400283436597"><ele>9.0</ele><time>2026-04-24T03:29:06Z</time></trkpt><trkpt lat="-19.746651416337368" lon="121.19420870973835"><ele>8.0</ele><time>2026-04-24T03:29:07Z</time></trkpt><trkpt lat="-19.746443223492474" lon="121.19441663059501"><ele>8.0</ele><time>2026-04-24T03:29:08Z</time></trkpt><trkpt lat="-19.74623290726816" lon="121.19462376163389"><ele>8.0</ele><time>2026-04-24T03:29:09Z</time></trkpt><trkpt lat="-19.746024435870858" lon="121.19482899871434"><ele>8.5</ele><time>2026-04-24T03:29:10Z</time></trkpt><trkpt lat="-19.74582053561447" lon="121.19503472040955"><ele>9.0</ele><time>2026-04-24T03:29:11Z</time></trkpt><trkpt lat="-19.745617973769264" lon="121.19524303706312"><ele>9.0</ele><time>2026-04-24T03:29:12Z</time></trkpt><trkpt lat="-19.745407040002856" lon="121.19545187958217"><ele>9.0</ele><time>2026-04-24T03:29:13Z</time></trkpt><trkpt lat="-19.745197551769685" lon="121.19565727105139"><ele>9.5</ele><time>2026-04-24T03:29:14Z</time></trkpt><trkpt lat="-19.744987781779223" lon="121.19586109521231"><ele>10.0</ele><time>2026-04-24T03:29:15Z</time></trkpt><trkpt lat="-19.74477741887255" lon="121.19606827651106"><ele>10.0</ele><time>2026-04-24T03:29:16Z</time></trkpt><trkpt lat="-19.744571907031684" lon="121.19627238798272"><ele>10.0</ele><time>2026-04-24T03:29:17Z</time></trkpt><trkpt lat="-19.744367509052168" lon="121.19647724100422"><ele>10.0</ele><time>2026-04-24T03:29:18Z</time></trkpt><trkpt lat="-19.744163087916967" lon="121.19668147307128"><ele>10.0</ele><time>2026-04-24T03:29:19Z</time></trkpt><trkpt lat="-19.74395791550201" lon="121.1968865634695"><ele>10.0</ele><time>2026-04-24T03:29:20Z</time></trkpt><trkpt lat="-19.743553062726107" lon="121.19729002333435"><ele>9.5</ele><time>2026-04-24T03:29:22Z</time></trkpt><trkpt lat="-19.7433528939734" lon="121.19749019282939"><ele>9.0</ele><time>2026-04-24T03:29:23Z</time></trkpt><trkpt lat="-19.74315392359867" lon="121.19769212282674"><ele>9.0</ele><time>2026-04-24T03:29:24Z</time></trkpt><trkpt lat="-19.742956084253457" lon="121.19789457114095"><ele>9.0</ele><time>2026-04-24T03:29:25Z</time></trkpt><trkpt lat="-19.742758371348057" lon="121.19809747530624"><ele>9.5</ele><time>2026-04-24T03:29:26Z</time></trkpt><trkpt lat="-19.742559888602155" lon="121.19829885254153"><ele>10.0</ele><time>2026-04-24T03:29:27Z</time></trkpt><trkpt lat="-19.742356016132053" lon="121.19850329513189"><ele>10.0</ele><time>2026-04-24T03:29:28Z</time></trkpt><trkpt lat="-19.742150462939897" lon="121.19870583326798"><ele>10.0</ele><time>2026-04-24T03:29:29Z</time></trkpt><trkpt lat="-19.74194489270251" lon="121.1989063506748"><ele>10.5</ele><time>2026-04-24T03:29:30Z</time></trkpt><trkpt lat="-19.74173614751891" lon="121.19910873541139"><ele>11.0</ele><time>2026-04-24T03:29:31Z</time></trkpt><trkpt lat="-19.74152829964671" lon="121.19930894399994"><ele>11.0</ele><time>2026-04-24T03:29:32Z</time></trkpt><trkpt lat="-19.741321102825598" lon="121.19950774522208"><ele>11.0</ele><time>2026-04-24T03:29:33Z</time></trkpt><trkpt lat="-19.741110631214486" lon="121.19971438574923"><ele>10.0</ele><time>2026-04-24T03:29:34Z</time></trkpt><trkpt lat="-19.74090113085242" lon="121.19992512716927"><ele>9.0</ele><time>2026-04-24T03:29:35Z</time></trkpt><trkpt lat="-19.74069005376927" lon="121.20013736482606"><ele>9.0</ele><time>2026-04-24T03:29:36Z</time></trkpt><trkpt lat="-19.74047696715407" lon="121.20034600462095"><ele>9.0</ele><time>2026-04-24T03:29:37Z</time></trkpt><trkpt lat="-19.74026579301876" lon="121.20055014458507"><ele>9.5</ele><time>2026-04-24T03:29:38Z</time></trkpt><trkpt lat="-19.740058160428763" lon="121.20075172027549"><ele>10.0</ele><time>2026-04-24T03:29:39Z</time></trkpt><trkpt lat="-19.739852081152872" lon="121.20095426136477"><ele>10.0</ele><time>2026-04-24T03:29:40Z</time></trkpt><trkpt lat="-19.73964559100105" lon="121.20115931337634"><ele>10.0</ele><time>2026-04-24T03:29:41Z</time></trkpt><trkpt lat="-19.739435704994868" lon="121.20136681642083"><ele>10.5</ele><time>2026-04-24T03:29:42Z</time></trkpt><trkpt lat="-19.739224292363755" lon="121.20157641069537"><ele>11.0</ele><time>2026-04-24T03:29:43Z</time></trkpt><trkpt lat="-19.739013823017373" lon="121.201786271681"><ele>11.0</ele><time>2026-04-24T03:29:44Z</time></trkpt><trkpt lat="-19.738802811147476" lon="121.20199421581076"><ele>11.0</ele><time>2026-04-24T03:29:45Z</time></trkpt><trkpt lat="-19.738590752538915" lon="121.20220454603171"><ele>10.5</ele><time>2026-04-24T03:29:46Z</time></trkpt><trkpt lat="-19.738380203980093" lon="121.20241102152922"><ele>10.0</ele><time>2026-04-24T03:29:47Z</time></trkpt><trkpt lat="-19.738170403350882" lon="121.20261511332241"><ele>10.0</ele><time>2026-04-24T03:29:48Z</time></trkpt><trkpt lat="-19.73795659716044" lon="121.20282094220254"><ele>10.0</ele><time>2026-04-24T03:29:49Z</time></trkpt><trkpt lat="-19.73774135640131" lon="121.2030157413031"><ele>8.5</ele><time>2026-04-24T03:29:50Z</time></trkpt><trkpt lat="-19.737518589655192" lon="121.20320725574115"><ele>7.0</ele><time>2026-04-24T03:29:51Z</time></trkpt><trkpt lat="-19.737293466151332" lon="121.2033938051825"><ele>7.0</ele><time>2026-04-24T03:29:52Z</time></trkpt><trkpt lat="-19.737070381408458" lon="121.20357709020485"><ele>7.0</ele><time>2026-04-24T03:29:53Z</time></trkpt><trkpt lat="-19.736847541125407" lon="121.20376086247411"><ele>8.5</ele><time>2026-04-24T03:29:54Z</time></trkpt><trkpt lat="-19.73662645507145" lon="121.20393865722599"><ele>10.0</ele><time>2026-04-24T03:29:55Z</time></trkpt><trkpt lat="-19.736406448120245" lon="121.20411257371873"><ele>10.0</ele><time>2026-04-24T03:29:56Z</time></trkpt><trkpt lat="-19.736187481739517" lon="121.20428859851856"><ele>10.0</ele><time>2026-04-24T03:29:57Z</time></trkpt><trkpt lat="-19.735971297351547" lon="121.2044629230533"><ele>10.5</ele><time>2026-04-24T03:29:58Z</time></trkpt><trkpt lat="-19.735753437514088" lon="121.20464007336855"><ele>11.0</ele><time>2026-04-24T03:29:59Z</time></trkpt><trkpt lat="-19.735534592698418" lon="121.20481914963325"><ele>10.5</ele><time>2026-04-24T03:30:00Z</time></trkpt><trkpt lat="-19.73531600335452" lon="121.2049962982868"><ele>10.0</ele><time>2026-04-24T03:30:01Z</time></trkpt><trkpt lat="-19.735099765481035" lon="121.20517343233882"><ele>10.0</ele><time>2026-04-24T03:30:02Z</time></trkpt><trkpt lat="-19.734882453547886" lon="121.20535203162058"><ele>10.0</ele><time>2026-04-24T03:30:03Z</time></trkpt><trkpt lat="-19.73466248728456" lon="121.20553165483194"><ele>10.0</ele><time>2026-04-24T03:30:04Z</time></trkpt><trkpt lat="-19.734438580443555" lon="121.20571114901469"><ele>10.0</ele><time>2026-04-24T03:30:05Z</time></trkpt><trkpt lat="-19.734211197640604" lon="121.20588867798206"><ele>10.5</ele><time>2026-04-24T03:30:06Z</time></trkpt><trkpt lat="-19.733980080117842" lon="121.20606719308344"><ele>11.0</ele><time>2026-04-24T03:30:07Z</time></trkpt><trkpt lat="-19.73374850338689" lon="121.20624965153576"><ele>11.0</ele><time>2026-04-24T03:30:08Z</time></trkpt><trkpt lat="-19.73352164062839" lon="121.20643199597123"><ele>11.0</ele><time>2026-04-24T03:30:09Z</time></trkpt><trkpt lat="-19.733297744282787" lon="121.20661448645971"><ele>10.5</ele><time>2026-04-24T03:30:10Z</time></trkpt><trkpt lat="-19.73307342055722" lon="121.20679232549634"><ele>10.0</ele><time>2026-04-24T03:30:11Z</time></trkpt><trkpt lat="-19.732852802138567" lon="121.20697038528473"><ele>10.5</ele><time>2026-04-24T03:30:12Z</time></trkpt><trkpt lat="-19.73263366632937" lon="121.2071493841207"><ele>11.0</ele><time>2026-04-24T03:30:13Z</time></trkpt><trkpt lat="-19.732413685948156" lon="121.20732832876585"><ele>11.0</ele><time>2026-04-24T03:30:14Z</time></trkpt><trkpt lat="-19.73219239323278" lon="121.20750595833545"><ele>11.0</ele><time>2026-04-24T03:30:15Z</time></trkpt><trkpt lat="-19.73197139688067" lon="121.20768364132816"><ele>11.5</ele><time>2026-04-24T03:30:16Z</time></trkpt><trkpt lat="-19.731751513018533" lon="121.20786309014258"><ele>12.0</ele><time>2026-04-24T03:30:17Z</time></trkpt><trkpt lat="-19.731528426946532" lon="121.20804457874681"><ele>12.0</ele><time>2026-04-24T03:30:18Z</time></trkpt><trkpt lat="-19.731300847708322" lon="121.20822934964686"><ele>12.0</ele><time>2026-04-24T03:30:19Z</time></trkpt><trkpt lat="-19.73107356362714" lon="121.20841392191264"><ele>11.5</ele><time>2026-04-24T03:30:20Z</time></trkpt><trkpt lat="-19.730844502260233" lon="121.2086003280988"><ele>11.0</ele><time>2026-04-24T03:30:21Z</time></trkpt><trkpt lat="-19.730618416607268" lon="121.20878504502708"><ele>11.0</ele><time>2026-04-24T03:30:22Z</time></trkpt><trkpt lat="-19.730389253734106" lon="121.20897134167457"><ele>11.0</ele><time>2026-04-24T03:30:23Z</time></trkpt><trkpt lat="-19.730162139693135" lon="121.20915272124051"><ele>11.5</ele><time>2026-04-24T03:30:24Z</time></trkpt><trkpt lat="-19.729938301655434" lon="121.20932937375406"><ele>12.0</ele><time>2026-04-24T03:30:25Z</time></trkpt><trkpt lat="-19.72971162270541" lon="121.20951254221234"><ele>12.0</ele><time>2026-04-24T03:30:26Z</time></trkpt><trkpt lat="-19.72948622252632" lon="121.20969307679549"><ele>12.0</ele><time>2026-04-24T03:30:27Z</time></trkpt><trkpt lat="-19.729260026503326" lon="121.20987638064175"><ele>11.5</ele><time>2026-04-24T03:30:28Z</time></trkpt><trkpt lat="-19.729032418512322" lon="121.21006275406994"><ele>11.0</ele><time>2026-04-24T03:30:29Z</time></trkpt><trkpt lat="-19.72880530440994" lon="121.2102469627799"><ele>11.0</ele><time>2026-04-24T03:30:30Z</time></trkpt><trkpt lat="-19.728577283270173" lon="121.2104341785369"><ele>11.0</ele><time>2026-04-24T03:30:31Z</time></trkpt><trkpt lat="-19.728351054481283" lon="121.21061922202216"><ele>10.5</ele><time>2026-04-24T03:30:32Z</time></trkpt><trkpt lat="-19.728123851498367" lon="121.21080074780808"><ele>10.0</ele><time>2026-04-24T03:30:33Z</time></trkpt><trkpt lat="-19.727893396537993" lon="121.21098209551442"><ele>10.0</ele><time>2026-04-24T03:30:34Z</time></trkpt><trkpt lat="-19.727665223739297" lon="121.21116569959236"><ele>10.0</ele><time>2026-04-24T03:30:35Z</time></trkpt><trkpt lat="-19.72743683150478" lon="121.21135142912114"><ele>10.5</ele><time>2026-04-24T03:30:36Z</time></trkpt><trkpt lat="-19.72720931036597" lon="121.21153560881919"><ele>11.0</ele><time>2026-04-24T03:30:37Z</time></trkpt><trkpt lat="-19.72698013840901" lon="121.21172119062062"><ele>12.0</ele><time>2026-04-24T03:30:38Z</time></trkpt><trkpt lat="-19.7267501291704" lon="121.21190678366342"><ele>13.0</ele><time>2026-04-24T03:30:39Z</time></trkpt><trkpt lat="-19.72651985288758" lon="121.21209348726543"><ele>13.0</ele><time>2026-04-24T03:30:40Z</time></trkpt><trkpt lat="-19.726284983527812" lon="121.21228330595278"><ele>13.0</ele><time>2026-04-24T03:30:41Z</time></trkpt><trkpt lat="-19.726052116091072" lon="121.21247192057969"><ele>10.5</ele><time>2026-04-24T03:30:42Z</time></trkpt><trkpt lat="-19.725819809631698" lon="121.21266025750603"><ele>8.0</ele><time>2026-04-24T03:30:43Z</time></trkpt><trkpt lat="-19.725580462252708" lon="121.21285413582672"><ele>8.0</ele><time>2026-04-24T03:30:44Z</time></trkpt><trkpt lat="-19.725344585922333" lon="121.21304615752318"><ele>8.0</ele><time>2026-04-24T03:30:45Z</time></trkpt><trkpt lat="-19.725109189884083" lon="121.21323365635237"><ele>9.5</ele><time>2026-04-24T03:30:46Z</time></trkpt><trkpt lat="-19.72487479083214" lon="121.21342194621428"><ele>11.0</ele><time>2026-04-24T03:30:47Z</time></trkpt><trkpt lat="-19.724642027065638" lon="121.21361095063232"><ele>11.0</ele><time>2026-04-24T03:30:48Z</time></trkpt><trkpt lat="-19.72441086790249" lon="121.21379941537296"><ele>11.0</ele><time>2026-04-24T03:30:49Z</time></trkpt><trkpt lat="-19.724183166732313" lon="121.21398723711621"><ele>11.5</ele><time>2026-04-24T03:30:50Z</time></trkpt><trkpt lat="-19.723954928229727" lon="121.21417203761453"><ele>12.0</ele><time>2026-04-24T03:30:51Z</time></trkpt><trkpt lat="-19.72372531068669" lon="121.21435831822396"><ele>12.0</ele><time>2026-04-24T03:30:52Z</time></trkpt><trkpt lat="-19.723493465597" lon="121.2145458068278"><ele>12.0</ele><time>2026-04-24T03:30:53Z</time></trkpt><trkpt lat="-19.723260336450405" lon="121.21473314606845"><ele>11.5</ele><time>2026-04-24T03:30:54Z</time></trkpt><trkpt lat="-19.7230281681309" lon="121.21492028640104"><ele>11.0</ele><time>2026-04-24T03:30:55Z</time></trkpt><trkpt lat="-19.72279559700119" lon="121.21510829343256"><ele>11.5</ele><time>2026-04-24T03:30:56Z</time></trkpt><trkpt lat="-19.722559539867785" lon="121.21529590281328"><ele>12.0</ele><time>2026-04-24T03:30:57Z</time></trkpt><trkpt lat="-19.72232328282729" lon="121.21548515538144"><ele>11.5</ele><time>2026-04-24T03:30:58Z</time></trkpt><trkpt lat="-19.722084605133592" lon="121.21567983873021"><ele>11.0</ele><time>2026-04-24T03:30:59Z</time></trkpt><trkpt lat="-19.721844582854537" lon="121.21587568627535"><ele>11.0</ele><time>2026-04-24T03:31:00Z</time></trkpt><trkpt lat="-19.721603956834482" lon="121.21607136712642"><ele>11.0</ele><time>2026-04-24T03:31:01Z</time></trkpt><trkpt lat="-19.721364330236323" lon="121.21626754729857"><ele>11.0</ele><time>2026-04-24T03:31:02Z</time></trkpt><trkpt lat="-19.721126561646354" lon="121.21646340345985"><ele>11.0</ele><time>2026-04-24T03:31:03Z</time></trkpt><trkpt lat="-19.72088788544662" lon="121.21665936434344"><ele>11.5</ele><time>2026-04-24T03:31:04Z</time></trkpt><trkpt lat="-19.72064872861729" lon="121.2168553750618"><ele>12.0</ele><time>2026-04-24T03:31:05Z</time></trkpt><trkpt lat="-19.720408519069483" lon="121.21704939472386"><ele>12.5</ele><time>2026-04-24T03:31:06Z</time></trkpt><trkpt lat="-19.720168461406008" lon="121.21723992538962"><ele>13.0</ele><time>2026-04-24T03:31:07Z</time></trkpt><trkpt lat="-19.719926849556916" lon="121.21743632480901"><ele>13.5</ele><time>2026-04-24T03:31:08Z</time></trkpt><trkpt lat="-19.71968599539329" lon="121.21763210300689"><ele>14.0</ele><time>2026-04-24T03:31:09Z</time></trkpt><trkpt lat="-19.719455306740922" lon="121.21781951992094"><ele>14.0</ele><time>2026-04-24T03:31:10Z</time></trkpt><trkpt lat="-19.719233208894757" lon="121.21799725659555"><ele>14.0</ele><time>2026-04-24T03:31:11Z</time></trkpt><trkpt lat="-19.719006730893128" lon="121.21818104005308"><ele>13.5</ele><time>2026-04-24T03:31:12Z</time></trkpt><trkpt lat="-19.71877684705533" lon="121.21836826191351"><ele>13.0</ele><time>2026-04-24T03:31:13Z</time></trkpt><trkpt lat="-19.718545482701426" lon="121.21855766226564"><ele>13.0</ele><time>2026-04-24T03:31:14Z</time></trkpt><trkpt lat="-19.718311431543697" lon="121.21874980172274"><ele>13.0</ele><time>2026-04-24T03:31:15Z</time></trkpt><trkpt lat="-19.71807371327808" lon="121.2189447539002"><ele>13.0</ele><time>2026-04-24T03:31:16Z</time></trkpt><trkpt lat="-19.71783702234601" lon="121.21913743860955"><ele>13.0</ele><time>2026-04-24T03:31:17Z</time></trkpt><trkpt lat="-19.717596742470885" lon="121.219330349693"><ele>12.0</ele><time>2026-04-24T03:31:18Z</time></trkpt><trkpt lat="-19.71735708195093" lon="121.21952075386021"><ele>11.0</ele><time>2026-04-24T03:31:19Z</time></trkpt><trkpt lat="-19.7171177000071" lon="121.21971249281634"><ele>11.5</ele><time>2026-04-24T03:31:20Z</time></trkpt><trkpt lat="-19.716879151603745" lon="121.21990393267086"><ele>12.0</ele><time>2026-04-24T03:31:21Z</time></trkpt><trkpt lat="-19.716640902873433" lon="121.22009349494122"><ele>12.0</ele><time>2026-04-24T03:31:22Z</time></trkpt><trkpt lat="-19.716403629026388" lon="121.22028155266482"><ele>12.0</ele><time>2026-04-24T03:31:23Z</time></trkpt><trkpt lat="-19.716167702720867" lon="121.22046849096287"><ele>12.0</ele><time>2026-04-24T03:31:24Z</time></trkpt><trkpt lat="-19.715934247704286" lon="121.22065647132611"><ele>12.0</ele><time>2026-04-24T03:31:25Z</time></trkpt><trkpt lat="-19.715699038249436" lon="121.22084745960976"><ele>12.0</ele><time>2026-04-24T03:31:26Z</time></trkpt><trkpt lat="-19.715463062230995" lon="121.22103659938486"><ele>12.0</ele><time>2026-04-24T03:31:27Z</time></trkpt><trkpt lat="-19.7152315182007" lon="121.2212237087214"><ele>11.5</ele><time>2026-04-24T03:31:28Z</time></trkpt><trkpt lat="-19.71500037593467" lon="121.22141305300639"><ele>11.0</ele><time>2026-04-24T03:31:29Z</time></trkpt><trkpt lat="-19.714767375939985" lon="121.22160484480428"><ele>11.0</ele><time>2026-04-24T03:31:30Z</time></trkpt><trkpt lat="-19.714538098882585" lon="121.22179415364238"><ele>11.0</ele><time>2026-04-24T03:31:31Z</time></trkpt><trkpt lat="-19.714309249981138" lon="121.22198412557557"><ele>11.0</ele><time>2026-04-24T03:31:32Z</time></trkpt><trkpt lat="-19.714080053353985" lon="121.22216817660957"><ele>11.0</ele><time>2026-04-24T03:31:33Z</time></trkpt><trkpt lat="-19.713853651808304" lon="121.2223461452265"><ele>11.5</ele><time>2026-04-24T03:31:34Z</time></trkpt><trkpt lat="-19.713628501238084" lon="121.22252706911931"><ele>12.0</ele><time>2026-04-24T03:31:35Z</time></trkpt><trkpt lat="-19.71340691725017" lon="121.2227088068498"><ele>12.0</ele><time>2026-04-24T03:31:36Z</time></trkpt><trkpt lat="-19.713185703676388" lon="121.2228909852983"><ele>12.0</ele><time>2026-04-24T03:31:37Z</time></trkpt><trkpt lat="-19.712963214289683" lon="121.2230734043868"><ele>11.5</ele><time>2026-04-24T03:31:38Z</time></trkpt><trkpt lat="-19.712743567521642" lon="121.22325567240703"><ele>11.0</ele><time>2026-04-24T03:31:39Z</time></trkpt><trkpt lat="-19.712521952285403" lon="121.22343732770659"><ele>10.5</ele><time>2026-04-24T03:31:40Z</time></trkpt><trkpt lat="-19.71230138307566" lon="121.22361636471554"><ele>10.0</ele><time>2026-04-24T03:31:41Z</time></trkpt><trkpt lat="-19.712079463376398" lon="121.22379184063224"><ele>10.5</ele><time>2026-04-24T03:31:42Z</time></trkpt><trkpt lat="-19.711856671385526" lon="121.2239676774491"><ele>11.0</ele><time>2026-04-24T03:31:43Z</time></trkpt><trkpt lat="-19.711636395940655" lon="121.2241447102749"><ele>12.0</ele><time>2026-04-24T03:31:44Z</time></trkpt><trkpt lat="-19.711413426326384" lon="121.22432510176118"><ele>13.0</ele><time>2026-04-24T03:31:45Z</time></trkpt><trkpt lat="-19.7111912774893" lon="121.22450723589513"><ele>13.5</ele><time>2026-04-24T03:31:46Z</time></trkpt><trkpt lat="-19.710964195771616" lon="121.22469223923225"><ele>14.0</ele><time>2026-04-24T03:31:47Z</time></trkpt><trkpt lat="-19.710743263321383" lon="121.22487093626043"><ele>12.5</ele><time>2026-04-24T03:31:48Z</time></trkpt><trkpt lat="-19.71051896969699" lon="121.22504849575525"><ele>11.0</ele><time>2026-04-24T03:31:49Z</time></trkpt><trkpt lat="-19.71029619074313" lon="121.2252238000291"><ele>10.5</ele><time>2026-04-24T03:31:50Z</time></trkpt><trkpt lat="-19.710069108432606" lon="121.2254017438288"><ele>10.0</ele><time>2026-04-24T03:31:51Z</time></trkpt><trkpt lat="-19.70984665215304" lon="121.22558094848975"><ele>10.0</ele><time>2026-04-24T03:31:52Z</time></trkpt><trkpt lat="-19.709624665061497" lon="121.22576328276361"><ele>10.0</ele><time>2026-04-24T03:31:53Z</time></trkpt><trkpt lat="-19.709403005544527" lon="121.22594447216004"><ele>10.5</ele><time>2026-04-24T03:31:54Z</time></trkpt><trkpt lat="-19.70917696972941" lon="121.22612736366528"><ele>11.0</ele><time>2026-04-24T03:31:55Z</time></trkpt><trkpt lat="-19.708954498498205" lon="121.22631043197296"><ele>11.5</ele><time>2026-04-24T03:31:56Z</time></trkpt><trkpt lat="-19.70873266359421" lon="121.22649556337076"><ele>12.0</ele><time>2026-04-24T03:31:57Z</time></trkpt><trkpt lat="-19.708510736221164" lon="121.22667805557768"><ele>12.0</ele><time>2026-04-24T03:31:58Z</time></trkpt><trkpt lat="-19.70828565801578" lon="121.22685990745941"><ele>12.0</ele><time>2026-04-24T03:31:59Z</time></trkpt><trkpt lat="-19.70805974401357" lon="121.22704331026424"><ele>12.0</ele><time>2026-04-24T03:32:00Z</time></trkpt><trkpt lat="-19.707833670733493" lon="121.22722769965951"><ele>12.0</ele><time>2026-04-24T03:32:01Z</time></trkpt><trkpt lat="-19.70760711169033" lon="121.22740984618464"><ele>12.0</ele><time>2026-04-24T03:32:02Z</time></trkpt><trkpt lat="-19.707379571781924" lon="121.22759023953765"><ele>12.0</ele><time>2026-04-24T03:32:03Z</time></trkpt><trkpt lat="-19.707152052980227" lon="121.22777238373536"><ele>12.0</ele><time>2026-04-24T03:32:04Z</time></trkpt><trkpt lat="-19.7069249359913" lon="121.22795545098774"><ele>12.0</ele><time>2026-04-24T03:32:05Z</time></trkpt><trkpt lat="-19.706697570574903" lon="121.22814073625507"><ele>12.0</ele><time>2026-04-24T03:32:06Z</time></trkpt><trkpt lat="-19.70646870060827" lon="121.22832855548297"><ele>12.0</ele><time>2026-04-24T03:32:07Z</time></trkpt><trkpt lat="-19.706232202482653" lon="121.22852187110219"><ele>12.0</ele><time>2026-04-24T03:32:08Z</time></trkpt><trkpt lat="-19.705995818135502" lon="121.22871460746444"><ele>12.0</ele><time>2026-04-24T03:32:09Z</time></trkpt><trkpt lat="-19.70575688766806" lon="121.22890800160751"><ele>11.0</ele><time>2026-04-24T03:32:10Z</time></trkpt><trkpt lat="-19.70551788527241" lon="121.22909761883218"><ele>10.0</ele><time>2026-04-24T03:32:11.001Z</time></trkpt><trkpt lat="-19.705279697589898" lon="121.22928660126665"><ele>10.0</ele><time>2026-04-24T03:32:12.001Z</time></trkpt><trkpt lat="-19.705044760569848" lon="121.22947342301552"><ele>10.0</ele><time>2026-04-24T03:32:13.001Z</time></trkpt><trkpt lat="-19.704815492339534" lon="121.22965873003939"><ele>10.5</ele><time>2026-04-24T03:32:14.001Z</time></trkpt><trkpt lat="-19.704593569144972" lon="121.22983939535922"><ele>11.0</ele><time>2026-04-24T03:32:15Z</time></trkpt><trkpt lat="-19.704374651926063" lon="121.23001804109535"><ele>11.0</ele><time>2026-04-24T03:32:16Z</time></trkpt><trkpt lat="-19.704155317581247" lon="121.23020160458981"><ele>11.0</ele><time>2026-04-24T03:32:17Z</time></trkpt><trkpt lat="-19.70392964673332" lon="121.23039214207976"><ele>11.0</ele><time>2026-04-24T03:32:18Z</time></trkpt><trkpt lat="-19.703701086307717" lon="121.23058127172717"><ele>11.0</ele><time>2026-04-24T03:32:19Z</time></trkpt><trkpt lat="-19.70346757160203" lon="121.23076959064527"><ele>11.5</ele><time>2026-04-24T03:32:20Z</time></trkpt><trkpt lat="-19.70325099293373" lon="121.23094216690271"><ele>12.0</ele><time>2026-04-24T03:32:21Z</time></trkpt><trkpt lat="-19.703042478485706" lon="121.23110722233325"><ele>12.0</ele><time>2026-04-24T03:32:22Z</time></trkpt><trkpt lat="-19.70283887915574" lon="121.23127010004433"><ele>12.0</ele><time>2026-04-24T03:32:23Z</time></trkpt><trkpt lat="-19.70263582496231" lon="121.23143386674884"><ele>12.0</ele><time>2026-04-24T03:32:24Z</time></trkpt><trkpt lat="-19.702435152058246" lon="121.23159856491951"><ele>12.0</ele><time>2026-04-24T03:32:25Z</time></trkpt><trkpt lat="-19.70223682075546" lon="121.23176575910495"><ele>12.0</ele><time>2026-04-24T03:32:26Z</time></trkpt><trkpt lat="-19.702037279594904" lon="121.2319404000845"><ele>12.0</ele><time>2026-04-24T03:32:27Z</time></trkpt><trkpt lat="-19.70184035641394" lon="121.2321216988353"><ele>11.0</ele><time>2026-04-24T03:32:28Z</time></trkpt><trkpt lat="-19.701646157927684" lon="121.23230746144394"><ele>10.0</ele><time>2026-04-24T03:32:29Z</time></trkpt><trkpt lat="-19.701451052573038" lon="121.232498813428"><ele>10.0</ele><time>2026-04-24T03:32:30Z</time></trkpt><trkpt lat="-19.701258058279322" lon="121.23268961344927"><ele>10.0</ele><time>2026-04-24T03:32:31Z</time></trkpt><trkpt lat="-19.70106824441879" lon="121.23288267179367"><ele>11.0</ele><time>2026-04-24T03:32:32Z</time></trkpt><trkpt lat="-19.700885750849817" lon="121.2330772256763"><ele>12.0</ele><time>2026-04-24T03:32:33Z</time></trkpt><trkpt lat="-19.700704082744732" lon="121.23327794222922"><ele>13.0</ele><time>2026-04-24T03:32:34Z</time></trkpt><trkpt lat="-19.70052337819371" lon="121.23348416373508"><ele>14.0</ele><time>2026-04-24T03:32:35Z</time></trkpt><trkpt lat="-19.70034596954407" lon="121.2336935669564"><ele>14.0</ele><time>2026-04-24T03:32:36Z</time></trkpt><trkpt lat="-19.700168354803502" lon="121.23391498907688"><ele>14.0</ele><time>2026-04-24T03:32:37Z</time></trkpt><trkpt lat="-19.699972735370352" lon="121.23414431845721"><ele>13.5</ele><time>2026-04-24T03:32:38Z</time></trkpt><trkpt lat="-19.69978747274908" lon="121.23438880593434"><ele>13.0</ele><time>2026-04-24T03:32:39Z</time></trkpt><trkpt lat="-19.69960827667326" lon="121.23463816929272"><ele>13.0</ele><time>2026-04-24T03:32:40Z</time></trkpt><trkpt lat="-19.699425899185837" lon="121.23489386899428"><ele>13.0</ele><time>2026-04-24T03:32:41Z</time></trkpt><trkpt lat="-19.69924333816345" lon="121.23514982592722"><ele>12.0</ele><time>2026-04-24T03:32:42Z</time></trkpt><trkpt lat="-19.699062337060333" lon="121.23540635678224"><ele>11.0</ele><time>2026-04-24T03:32:43Z</time></trkpt><trkpt lat="-19.698886976343076" lon="121.23567416023079"><ele>10.5</ele><time>2026-04-24T03:32:44Z</time></trkpt><trkpt lat="-19.69868758965625" lon="121.23594331427127"><ele>10.0</ele><time>2026-04-24T03:32:45Z</time></trkpt><trkpt lat="-19.698487519198803" lon="121.23622057633527"><ele>10.0</ele><time>2026-04-24T03:32:46Z</time></trkpt><trkpt lat="-19.698288527492952" lon="121.23650006965907"><ele>10.0</ele><time>2026-04-24T03:32:47Z</time></trkpt><trkpt lat="-19.69809544257791" lon="121.23677042697778"><ele>10.0</ele><time>2026-04-24T03:32:48Z</time></trkpt><trkpt lat="-19.69790372075405" lon="121.23703709076263"><ele>10.0</ele><time>2026-04-24T03:32:49Z</time></trkpt><trkpt lat="-19.697716379323133" lon="121.23730081318908"><ele>10.0</ele><time>2026-04-24T03:32:50Z</time></trkpt><trkpt lat="-19.69753666841155" lon="121.23755643922738"><ele>10.0</ele><time>2026-04-24T03:32:51Z</time></trkpt><trkpt lat="-19.697358006723796" lon="121.2378096255436"><ele>10.0</ele><time>2026-04-24T03:32:52Z</time></trkpt><trkpt lat="-19.697177654186056" lon="121.23805894560475"><ele>10.0</ele><time>2026-04-24T03:32:53Z</time></trkpt><trkpt lat="-19.69699767564641" lon="121.23830575794433"><ele>10.0</ele><time>2026-04-24T03:32:54Z</time></trkpt><trkpt lat="-19.696818932814335" lon="121.23855673662652"><ele>10.0</ele><time>2026-04-24T03:32:55Z</time></trkpt><trkpt lat="-19.696641032755323" lon="121.23881054722776"><ele>10.0</ele><time>2026-04-24T03:32:56Z</time></trkpt><trkpt lat="-19.69646313344296" lon="121.23906108747695"><ele>10.0</ele><time>2026-04-24T03:32:57Z</time></trkpt><trkpt lat="-19.69628519922486" lon="121.23931169772753"><ele>10.0</ele><time>2026-04-24T03:32:58Z</time></trkpt><trkpt lat="-19.696108190447106" lon="121.2395640593195"><ele>10.0</ele><time>2026-04-24T03:32:59Z</time></trkpt><trkpt lat="-19.69593125984254" lon="121.23981504318422"><ele>11.0</ele><time>2026-04-24T03:33:00Z</time></trkpt><trkpt lat="-19.695757433814265" lon="121.24006283954039"><ele>12.0</ele><time>2026-04-24T03:33:01Z</time></trkpt><trkpt lat="-19.69558229808291" lon="121.24031234251477"><ele>12.0</ele><time>2026-04-24T03:33:02Z</time></trkpt><trkpt lat="-19.695407953133547" lon="121.24056292980804"><ele>12.0</ele><time>2026-04-24T03:33:03Z</time></trkpt><trkpt lat="-19.695232075067466" lon="121.24081017494966"><ele>11.5</ele><time>2026-04-24T03:33:04Z</time></trkpt><trkpt lat="-19.69505506458926" lon="121.24105500033876"><ele>11.0</ele><time>2026-04-24T03:33:05Z</time></trkpt><trkpt lat="-19.694880488054057" lon="121.24130372510612"><ele>10.5</ele><time>2026-04-24T03:33:06Z</time></trkpt><trkpt lat="-19.694702428164092" lon="121.24155342114518"><ele>10.0</ele><time>2026-04-24T03:33:07Z</time></trkpt><trkpt lat="-19.69452155548408" lon="121.24180777881053"><ele>11.0</ele><time>2026-04-24T03:33:08Z</time></trkpt><trkpt lat="-19.694339192769423" lon="121.24206575962614"><ele>12.0</ele><time>2026-04-24T03:33:09Z</time></trkpt><trkpt lat="-19.694160344430585" lon="121.24232030281254"><ele>12.0</ele><time>2026-04-24T03:33:10Z</time></trkpt><trkpt lat="-19.69398065691377" lon="121.24257259129996"><ele>12.0</ele><time>2026-04-24T03:33:11Z</time></trkpt><trkpt lat="-19.693802338043668" lon="121.24282176869524"><ele>12.0</ele><time>2026-04-24T03:33:12Z</time></trkpt><trkpt lat="-19.693623783917637" lon="121.2430746388506"><ele>12.0</ele><time>2026-04-24T03:33:13Z</time></trkpt><trkpt lat="-19.69344475481414" lon="121.24333034487597"><ele>11.5</ele><time>2026-04-24T03:33:14Z</time></trkpt><trkpt lat="-19.693262596869385" lon="121.24359092983113"><ele>11.0</ele><time>2026-04-24T03:33:15Z</time></trkpt><trkpt lat="-19.693079296629097" lon="121.2438510942217"><ele>11.0</ele><time>2026-04-24T03:33:16Z</time></trkpt><trkpt lat="-19.692897693709227" lon="121.24410626295527"><ele>11.0</ele><time>2026-04-24T03:33:17Z</time></trkpt><trkpt lat="-19.692716228233284" lon="121.24436186001512"><ele>11.5</ele><time>2026-04-24T03:33:18Z</time></trkpt><trkpt lat="-19.692534562782242" lon="121.24461600948722"><ele>12.0</ele><time>2026-04-24T03:33:19Z</time></trkpt><trkpt lat="-19.692355336850994" lon="121.24487034339758"><ele>12.5</ele><time>2026-04-24T03:33:20Z</time></trkpt><trkpt lat="-19.692175889543364" lon="121.24512485466558"><ele>13.0</ele><time>2026-04-24T03:33:21Z</time></trkpt><trkpt lat="-19.6919984145345" lon="121.24537772468481"><ele>12.5</ele><time>2026-04-24T03:33:22Z</time></trkpt><trkpt lat="-19.691822619593875" lon="121.24563215754091"><ele>12.0</ele><time>2026-04-24T03:33:23Z</time></trkpt><trkpt lat="-19.691647785438168" lon="121.24588415994872"><ele>12.0</ele><time>2026-04-24T03:33:24Z</time></trkpt><trkpt lat="-19.691473393441026" lon="121.24613737297014"><ele>12.0</ele><time>2026-04-24T03:33:25Z</time></trkpt><trkpt lat="-19.691298685473082" lon="121.24638755681256"><ele>12.0</ele><time>2026-04-24T03:33:26Z</time></trkpt><trkpt lat="-19.691121416854756" lon="121.24663500933441"><ele>12.0</ele><time>2026-04-24T03:33:27Z</time></trkpt><trkpt lat="-19.690941642218178" lon="121.24688228843048"><ele>12.5</ele><time>2026-04-24T03:33:28Z</time></trkpt><trkpt lat="-19.690761520934476" lon="121.2471316132852"><ele>13.0</ele><time>2026-04-24T03:33:29Z</time></trkpt><trkpt lat="-19.69058588044842" lon="121.2473815530532"><ele>13.5</ele><time>2026-04-24T03:33:30Z</time></trkpt><trkpt lat="-19.6904101830786" lon="121.24763441734045"><ele>14.0</ele><time>2026-04-24T03:33:31Z</time></trkpt><trkpt lat="-19.690234078808768" lon="121.24788402585557"><ele>14.0</ele><time>2026-04-24T03:33:32Z</time></trkpt><trkpt lat="-19.690060569043244" lon="121.24812872902363"><ele>14.0</ele><time>2026-04-24T03:33:33Z</time></trkpt><trkpt lat="-19.689886522929605" lon="121.2483692276487"><ele>14.0</ele><time>2026-04-24T03:33:34Z</time></trkpt><trkpt lat="-19.68971574415391" lon="121.24860745027021"><ele>14.0</ele><time>2026-04-24T03:33:35Z</time></trkpt><trkpt lat="-19.689548289864472" lon="121.2488433340293"><ele>13.0</ele><time>2026-04-24T03:33:36Z</time></trkpt><trkpt lat="-19.68938295124836" lon="121.2490783383403"><ele>12.0</ele><time>2026-04-24T03:33:37Z</time></trkpt><trkpt lat="-19.689215231008028" lon="121.2493133701983"><ele>12.0</ele><time>2026-04-24T03:33:38Z</time></trkpt><trkpt lat="-19.68904855748185" lon="121.2495512432802"><ele>12.0</ele><time>2026-04-24T03:33:39Z</time></trkpt><trkpt lat="-19.688879814154483" lon="121.24979187026"><ele>12.0</ele><time>2026-04-24T03:33:40Z</time></trkpt><trkpt lat="-19.688709008686676" lon="121.25003057172611"><ele>12.0</ele><time>2026-04-24T03:33:41Z</time></trkpt><trkpt lat="-19.688539720129" lon="121.25026756493625"><ele>12.0</ele><time>2026-04-24T03:33:42Z</time></trkpt><trkpt lat="-19.68837083385218" lon="121.25050643537595"><ele>12.0</ele><time>2026-04-24T03:33:43Z</time></trkpt><trkpt lat="-19.6882004572754" lon="121.2507489943461"><ele>12.5</ele><time>2026-04-24T03:33:44Z</time></trkpt><trkpt lat="-19.688025443982124" lon="121.25099807558233"><ele>13.0</ele><time>2026-04-24T03:33:45Z</time></trkpt><trkpt lat="-19.687848459368826" lon="121.25125004040436"><ele>13.0</ele><time>2026-04-24T03:33:46Z</time></trkpt><trkpt lat="-19.687668223902357" lon="121.25150513474775"><ele>13.0</ele><time>2026-04-24T03:33:47Z</time></trkpt><trkpt lat="-19.687486854369883" lon="121.25176364349923"><ele>13.0</ele><time>2026-04-24T03:33:48Z</time></trkpt><trkpt lat="-19.687303782415025" lon="121.25202105203478"><ele>13.0</ele><time>2026-04-24T03:33:49Z</time></trkpt><trkpt lat="-19.687121751908936" lon="121.25227712853187"><ele>13.0</ele><time>2026-04-24T03:33:50Z</time></trkpt><trkpt lat="-19.686937822820553" lon="121.25253256234011"><ele>13.0</ele><time>2026-04-24T03:33:51Z</time></trkpt><trkpt lat="-19.686754363590357" lon="121.25278845578433"><ele>13.5</ele><time>2026-04-24T03:33:52Z</time></trkpt><trkpt lat="-19.686571825559774" lon="121.2530461588824"><ele>14.0</ele><time>2026-04-24T03:33:53Z</time></trkpt><trkpt lat="-19.6863908906409" lon="121.25329983354308"><ele>14.0</ele><time>2026-04-24T03:33:54Z</time></trkpt><trkpt lat="-19.686211350616897" lon="121.25355305776655"><ele>14.0</ele><time>2026-04-24T03:33:55Z</time></trkpt><trkpt lat="-19.686034460461762" lon="121.25380407539735"><ele>14.5</ele><time>2026-04-24T03:33:56Z</time></trkpt><trkpt lat="-19.685858087759193" lon="121.2540531980029"><ele>15.0</ele><time>2026-04-24T03:33:57Z</time></trkpt><trkpt lat="-19.685681203627375" lon="121.25430139219384"><ele>15.0</ele><time>2026-04-24T03:33:58Z</time></trkpt><trkpt lat="-19.68550451371034" lon="121.25454842808384"><ele>15.0</ele><time>2026-04-24T03:33:59Z</time></trkpt><trkpt lat="-19.685327028446515" lon="121.25479879954968"><ele>14.5</ele><time>2026-04-24T03:34:00Z</time></trkpt><trkpt lat="-19.68515049437441" lon="121.25504943142451"><ele>14.0</ele><time>2026-04-24T03:34:01Z</time></trkpt><trkpt lat="-19.68497062800839" lon="121.25530139898945"><ele>14.0</ele><time>2026-04-24T03:34:02Z</time></trkpt><trkpt lat="-19.68479400650164" lon="121.25555206569854"><ele>14.0</ele><time>2026-04-24T03:34:03Z</time></trkpt><trkpt lat="-19.68461786005929" lon="121.25580581974404"><ele>14.0</ele><time>2026-04-24T03:34:04Z</time></trkpt><trkpt lat="-19.684439888049443" lon="121.25606091237955"><ele>14.0</ele><time>2026-04-24T03:34:05Z</time></trkpt><trkpt lat="-19.684258768750478" lon="121.25631469740516"><ele>15.0</ele><time>2026-04-24T03:34:06Z</time></trkpt><trkpt lat="-19.684074511935716" lon="121.25656897590405"><ele>16.0</ele><time>2026-04-24T03:34:07Z</time></trkpt><trkpt lat="-19.683891165184516" lon="121.25682391836793"><ele>16.0</ele><time>2026-04-24T03:34:08Z</time></trkpt><trkpt lat="-19.68370952802333" lon="121.25708072341658"><ele>16.0</ele><time>2026-04-24T03:34:09Z</time></trkpt><trkpt lat="-19.683530067909814" lon="121.25733912997123"><ele>14.0</ele><time>2026-04-24T03:34:10Z</time></trkpt><trkpt lat="-19.683347578575436" lon="121.25760095520265"><ele>12.0</ele><time>2026-04-24T03:34:11Z</time></trkpt><trkpt lat="-19.683161472218615" lon="121.25786294225226"><ele>12.0</ele><time>2026-04-24T03:34:12.001Z</time></trkpt><trkpt lat="-19.682974929306774" lon="121.25812519665709"><ele>12.0</ele><time>2026-04-24T03:34:13.001Z</time></trkpt><trkpt lat="-19.682791099322916" lon="121.25838437056618"><ele>13.0</ele><time>2026-04-24T03:34:14.001Z</time></trkpt><trkpt lat="-19.68260895608262" lon="121.25864383252329"><ele>14.0</ele><time>2026-04-24T03:34:15.001Z</time></trkpt><trkpt lat="-19.68242787538325" lon="121.25890227094338"><ele>13.0</ele><time>2026-04-24T03:34:16.001Z</time></trkpt><trkpt lat="-19.682244708951114" lon="121.25915933245979"><ele>12.0</ele><time>2026-04-24T03:34:17.001Z</time></trkpt><trkpt lat="-19.68206256726148" lon="121.25941416230135"><ele>13.0</ele><time>2026-04-24T03:34:18.001Z</time></trkpt><trkpt lat="-19.68188183983263" lon="121.25966760767548"><ele>14.0</ele><time>2026-04-24T03:34:19.001Z</time></trkpt><trkpt lat="-19.68170260906823" lon="121.2599191600788"><ele>14.0</ele><time>2026-04-24T03:34:20.001Z</time></trkpt><trkpt lat="-19.68152469617098" lon="121.26017283427204"><ele>14.0</ele><time>2026-04-24T03:34:21Z</time></trkpt><trkpt lat="-19.681344913743196" lon="121.26043003978339"><ele>14.5</ele><time>2026-04-24T03:34:22Z</time></trkpt><trkpt lat="-19.681165270415914" lon="121.26068717912088"><ele>15.0</ele><time>2026-04-24T03:34:23Z</time></trkpt><trkpt lat="-19.68098413707756" lon="121.2609443207476"><ele>15.0</ele><time>2026-04-24T03:34:24Z</time></trkpt><trkpt lat="-19.680803982203646" lon="121.26119865494832"><ele>15.0</ele><time>2026-04-24T03:34:25Z</time></trkpt><trkpt lat="-19.680626561220826" lon="121.26145315458146"><ele>15.5</ele><time>2026-04-24T03:34:26Z</time></trkpt><trkpt lat="-19.68044476272548" lon="121.26170627986595"><ele>16.0</ele><time>2026-04-24T03:34:27Z</time></trkpt><trkpt lat="-19.68026023832958" lon="121.26196265572212"><ele>17.5</ele><time>2026-04-24T03:34:28Z</time></trkpt><trkpt lat="-19.68007498049816" lon="121.26222312882241"><ele>19.0</ele><time>2026-04-24T03:34:29Z</time></trkpt><trkpt lat="-19.679890640289507" lon="121.26248251493723"><ele>19.0</ele><time>2026-04-24T03:34:30Z</time></trkpt><trkpt lat="-19.67970905895559" lon="121.26274072169596"><ele>19.0</ele><time>2026-04-24T03:34:31Z</time></trkpt><trkpt lat="-19.679527822527774" lon="121.26299903062146"><ele>19.5</ele><time>2026-04-24T03:34:32Z</time></trkpt><trkpt lat="-19.67934572315062" lon="121.263257422107"><ele>20.0</ele><time>2026-04-24T03:34:33Z</time></trkpt><trkpt lat="-19.679163343691933" lon="121.26351712961412"><ele>20.0</ele><time>2026-04-24T03:34:34Z</time></trkpt><trkpt lat="-19.67898199241317" lon="121.26377613926991"><ele>20.0</ele><time>2026-04-24T03:34:35Z</time></trkpt><trkpt lat="-19.67880301720868" lon="121.26403376901393"><ele>19.0</ele><time>2026-04-24T03:34:36Z</time></trkpt><trkpt lat="-19.678624314497334" lon="121.26429035301496"><ele>18.0</ele><time>2026-04-24T03:34:37Z</time></trkpt><trkpt lat="-19.678443683571107" lon="121.26454020010645"><ele>17.5</ele><time>2026-04-24T03:34:38Z</time></trkpt><trkpt lat="-19.678260199132655" lon="121.26478736615108"><ele>17.0</ele><time>2026-04-24T03:34:39Z</time></trkpt><trkpt lat="-19.6780800802327" lon="121.26503374849507"><ele>17.0</ele><time>2026-04-24T03:34:40Z</time></trkpt><trkpt lat="-19.677902393147985" lon="121.26528207242808"><ele>17.0</ele><time>2026-04-24T03:34:41Z</time></trkpt><trkpt lat="-19.677727511248573" lon="121.26552824139449"><ele>18.5</ele><time>2026-04-24T03:34:42Z</time></trkpt><trkpt lat="-19.677553592538924" lon="121.26577748092265"><ele>20.0</ele><time>2026-04-24T03:34:43Z</time></trkpt><trkpt lat="-19.677378958332632" lon="121.26602614329063"><ele>20.0</ele><time>2026-04-24T03:34:44Z</time></trkpt><trkpt lat="-19.677205818148447" lon="121.26627372760319"><ele>20.0</ele><time>2026-04-24T03:34:45Z</time></trkpt><trkpt lat="-19.677034478841236" lon="121.26651786523783"><ele>19.0</ele><time>2026-04-24T03:34:46Z</time></trkpt><trkpt lat="-19.67686249934232" lon="121.26675944866382"><ele>18.0</ele><time>2026-04-24T03:34:47Z</time></trkpt><trkpt lat="-19.676684667700187" lon="121.26699846982581"><ele>18.0</ele><time>2026-04-24T03:34:48Z</time></trkpt><trkpt lat="-19.676499819931305" lon="121.26723556076836"><ele>18.0</ele><time>2026-04-24T03:34:49Z</time></trkpt><trkpt lat="-19.676311378805625" lon="121.26746744914304"><ele>18.5</ele><time>2026-04-24T03:34:50Z</time></trkpt><trkpt lat="-19.67611886067357" lon="121.26769838319679"><ele>19.0</ele><time>2026-04-24T03:34:51Z</time></trkpt><trkpt lat="-19.67592481770248" lon="121.26792795584366"><ele>18.5</ele><time>2026-04-24T03:34:52Z</time></trkpt><trkpt lat="-19.675725871573423" lon="121.26815074461899"><ele>18.0</ele><time>2026-04-24T03:34:53Z</time></trkpt><trkpt lat="-19.6755228040639" lon="121.26837076672284"><ele>18.0</ele><time>2026-04-24T03:34:54Z</time></trkpt><trkpt lat="-19.67531752137869" lon="121.26858473105975"><ele>18.0</ele><time>2026-04-24T03:34:55Z</time></trkpt><trkpt lat="-19.67510452978769" lon="121.26879314300176"><ele>18.5</ele><time>2026-04-24T03:34:56Z</time></trkpt><trkpt lat="-19.674891971776663" lon="121.2689981282791"><ele>19.0</ele><time>2026-04-24T03:34:57Z</time></trkpt><trkpt lat="-19.674677623219655" lon="121.26919975799173"><ele>19.0</ele><time>2026-04-24T03:34:58Z</time></trkpt><trkpt lat="-19.674458639366833" lon="121.26939347436841"><ele>19.0</ele><time>2026-04-24T03:34:59Z</time></trkpt><trkpt lat="-19.67423558492975" lon="121.26958396410438"><ele>19.5</ele><time>2026-04-24T03:35:00Z</time></trkpt><trkpt lat="-19.674012227280826" lon="121.26977166755438"><ele>20.0</ele><time>2026-04-24T03:35:01Z</time></trkpt><trkpt lat="-19.673782522199154" lon="121.26995507398705"><ele>20.5</ele><time>2026-04-24T03:35:02Z</time></trkpt><trkpt lat="-19.673549328084086" lon="121.27013576171738"><ele>21.0</ele><time>2026-04-24T03:35:03Z</time></trkpt><trkpt lat="-19.673315347220342" lon="121.27031324325895"><ele>21.0</ele><time>2026-04-24T03:35:04Z</time></trkpt><trkpt lat="-19.673077037967015" lon="121.27048334265076"><ele>21.0</ele><time>2026-04-24T03:35:05Z</time></trkpt><trkpt lat="-19.672836949616745" lon="121.27064636596671"><ele>20.5</ele><time>2026-04-24T03:35:06Z</time></trkpt><trkpt lat="-19.672594417910886" lon="121.27080628909754"><ele>20.0</ele><time>2026-04-24T03:35:07Z</time></trkpt><trkpt lat="-19.67235202627622" lon="121.27096519709684"><ele>20.0</ele><time>2026-04-24T03:35:08Z</time></trkpt><trkpt lat="-19.672104654757387" lon="121.27112533135079"><ele>20.0</ele><time>2026-04-24T03:35:09Z</time></trkpt><trkpt lat="-19.671857216969887" lon="121.27128567369607"><ele>22.0</ele><time>2026-04-24T03:35:10Z</time></trkpt><trkpt lat="-19.67160964359661" lon="121.2714491492451"><ele>24.0</ele><time>2026-04-24T03:35:11Z</time></trkpt><trkpt lat="-19.671360127572683" lon="121.27160990201698"><ele>24.0</ele><time>2026-04-24T03:35:12Z</time></trkpt><trkpt lat="-19.671109841402036" lon="121.27177330631233"><ele>24.0</ele><time>2026-04-24T03:35:13Z</time></trkpt><trkpt lat="-19.670857083360225" lon="121.27193878005151"><ele>25.0</ele><time>2026-04-24T03:35:14Z</time></trkpt><trkpt lat="-19.67060450715472" lon="121.27210225012124"><ele>26.0</ele><time>2026-04-24T03:35:15Z</time></trkpt><trkpt lat="-19.67035225357119" lon="121.2722652127129"><ele>26.0</ele><time>2026-04-24T03:35:16Z</time></trkpt><trkpt lat="-19.670101884008417" lon="121.2724299291847"><ele>26.0</ele><time>2026-04-24T03:35:17Z</time></trkpt><trkpt lat="-19.669851506887813" lon="121.27259512828508"><ele>26.0</ele><time>2026-04-24T03:35:18Z</time></trkpt><trkpt lat="-19.669599437019922" lon="121.27275991446899"><ele>26.0</ele><time>2026-04-24T03:35:19Z</time></trkpt><trkpt lat="-19.66934356432785" lon="121.27292527186557"><ele>27.5</ele><time>2026-04-24T03:35:20Z</time></trkpt><trkpt lat="-19.669092195353976" lon="121.27308689366235"><ele>29.0</ele><time>2026-04-24T03:35:21Z</time></trkpt><trkpt lat="-19.66884172310415" lon="121.27324878668982"><ele>28.5</ele><time>2026-04-24T03:35:22Z</time></trkpt><trkpt lat="-19.668591519798987" lon="121.27341397857627"><ele>28.0</ele><time>2026-04-24T03:35:23Z</time></trkpt><trkpt lat="-19.66833781751344" lon="121.27358150344641"><ele>28.0</ele><time>2026-04-24T03:35:24Z</time></trkpt><trkpt lat="-19.668082736714748" lon="121.27374992199891"><ele>28.0</ele><time>2026-04-24T03:35:25Z</time></trkpt><trkpt lat="-19.66782715555093" lon="121.27391830018712"><ele>29.0</ele><time>2026-04-24T03:35:26Z</time></trkpt><trkpt lat="-19.667570866038027" lon="121.2740846846383"><ele>30.0</ele><time>2026-04-24T03:35:27Z</time></trkpt><trkpt lat="-19.667313266788327" lon="121.27424950413824"><ele>30.0</ele><time>2026-04-24T03:35:28Z</time></trkpt><trkpt lat="-19.667058655781922" lon="121.27441366374465"><ele>30.0</ele><time>2026-04-24T03:35:29Z</time></trkpt><trkpt lat="-19.666804475157534" lon="121.27457824294407"><ele>31.0</ele><time>2026-04-24T03:35:30Z</time></trkpt><trkpt lat="-19.666551714409664" lon="121.2747406553724"><ele>32.0</ele><time>2026-04-24T03:35:31Z</time></trkpt><trkpt lat="-19.666299238226923" lon="121.27490639592486"><ele>30.5</ele><time>2026-04-24T03:35:32Z</time></trkpt><trkpt lat="-19.666046326773365" lon="121.2750714446466"><ele>29.0</ele><time>2026-04-24T03:35:33Z</time></trkpt><trkpt lat="-19.66579064745865" lon="121.27523651625395"><ele>29.0</ele><time>2026-04-24T03:35:34Z</time></trkpt><trkpt lat="-19.665535103561428" lon="121.27540151767496"><ele>29.0</ele><time>2026-04-24T03:35:35Z</time></trkpt><trkpt lat="-19.6652940156028" lon="121.27555777595342"><ele>29.5</ele><time>2026-04-24T03:35:36Z</time></trkpt><trkpt lat="-19.66506174220591" lon="121.27571146825788"><ele>30.0</ele><time>2026-04-24T03:35:37Z</time></trkpt><trkpt lat="-19.66482285708467" lon="121.27586753246102"><ele>30.0</ele><time>2026-04-24T03:35:38Z</time></trkpt><trkpt lat="-19.664573581906176" lon="121.27602654542557"><ele>30.0</ele><time>2026-04-24T03:35:39Z</time></trkpt><trkpt lat="-19.664321380342738" lon="121.27618906565279"><ele>29.0</ele><time>2026-04-24T03:35:40Z</time></trkpt><trkpt lat="-19.664070101474696" lon="121.27635119353346"><ele>28.0</ele><time>2026-04-24T03:35:41Z</time></trkpt><trkpt lat="-19.663816132627094" lon="121.27651510503482"><ele>27.0</ele><time>2026-04-24T03:35:42Z</time></trkpt><trkpt lat="-19.66356260450562" lon="121.27667755266489"><ele>26.0</ele><time>2026-04-24T03:35:43Z</time></trkpt><trkpt lat="-19.663311451258657" lon="121.2768418956417"><ele>26.0</ele><time>2026-04-24T03:35:44Z</time></trkpt><trkpt lat="-19.663060159017586" lon="121.27700890282286"><ele>26.0</ele><time>2026-04-24T03:35:45Z</time></trkpt><trkpt lat="-19.662807242573127" lon="121.27717607484738"><ele>24.5</ele><time>2026-04-24T03:35:46Z</time></trkpt><trkpt lat="-19.662551626365577" lon="121.27734338399006"><ele>23.0</ele><time>2026-04-24T03:35:47Z</time></trkpt><trkpt lat="-19.662293543989836" lon="121.27750984570378"><ele>23.0</ele><time>2026-04-24T03:35:48Z</time></trkpt><trkpt lat="-19.6620292682001" lon="121.27767899934992"><ele>23.0</ele><time>2026-04-24T03:35:49Z</time></trkpt><trkpt lat="-19.661764482643186" lon="121.2778487916732"><ele>23.5</ele><time>2026-04-24T03:35:50Z</time></trkpt><trkpt lat="-19.661499168972227" lon="121.27802053062224"><ele>24.0</ele><time>2026-04-24T03:35:51Z</time></trkpt><trkpt lat="-19.66123363990748" lon="121.2781938069644"><ele>24.0</ele><time>2026-04-24T03:35:52Z</time></trkpt><trkpt lat="-19.660969997229184" lon="121.27836471534123"><ele>24.0</ele><time>2026-04-24T03:35:53Z</time></trkpt><trkpt lat="-19.660706589287305" lon="121.27853667117762"><ele>24.0</ele><time>2026-04-24T03:35:54Z</time></trkpt><trkpt lat="-19.660443891766825" lon="121.27870869578496"><ele>24.0</ele><time>2026-04-24T03:35:55Z</time></trkpt><trkpt lat="-19.660182070768727" lon="121.27887940171075"><ele>22.5</ele><time>2026-04-24T03:35:56Z</time></trkpt><trkpt lat="-19.659921569351532" lon="121.2790481496414"><ele>21.0</ele><time>2026-04-24T03:35:57Z</time></trkpt><trkpt lat="-19.65966283740381" lon="121.2792160180262"><ele>20.5</ele><time>2026-04-24T03:35:58Z</time></trkpt><trkpt lat="-19.65940627006657" lon="121.27938032932776"><ele>20.0</ele><time>2026-04-24T03:35:59Z</time></trkpt><trkpt lat="-19.659150442528134" lon="121.27954522978939"><ele>20.0</ele><time>2026-04-24T03:36:00Z</time></trkpt><trkpt lat="-19.658896363806928" lon="121.2797104858779"><ele>20.0</ele><time>2026-04-24T03:36:01Z</time></trkpt><trkpt lat="-19.658641620603508" lon="121.27987801680996"><ele>20.0</ele><time>2026-04-24T03:36:02Z</time></trkpt><trkpt lat="-19.658388439034347" lon="121.2800463815931"><ele>20.0</ele><time>2026-04-24T03:36:03Z</time></trkpt><trkpt lat="-19.65813322188257" lon="121.28021379020987"><ele>20.0</ele><time>2026-04-24T03:36:04Z</time></trkpt><trkpt lat="-19.657877127061493" lon="121.28037945326052"><ele>20.0</ele><time>2026-04-24T03:36:05Z</time></trkpt><trkpt lat="-19.657618347841993" lon="121.28054769349741"><ele>19.5</ele><time>2026-04-24T03:36:06Z</time></trkpt><trkpt lat="-19.657358481602444" lon="121.28071605863795"><ele>19.0</ele><time>2026-04-24T03:36:07Z</time></trkpt><trkpt lat="-19.657099610934008" lon="121.28088343813288"><ele>18.0</ele><time>2026-04-24T03:36:08Z</time></trkpt><trkpt lat="-19.656841858397673" lon="121.281050282048"><ele>17.0</ele><time>2026-04-24T03:36:09Z</time></trkpt><trkpt lat="-19.65658535914307" lon="121.28121714828752"><ele>17.0</ele><time>2026-04-24T03:36:10Z</time></trkpt><trkpt lat="-19.656330993142184" lon="121.2813842069702"><ele>17.0</ele><time>2026-04-24T03:36:11Z</time></trkpt><trkpt lat="-19.656076574507296" lon="121.28155008936716"><ele>16.5</ele><time>2026-04-24T03:36:12Z</time></trkpt><trkpt lat="-19.655822370030556" lon="121.2817138023612"><ele>16.0</ele><time>2026-04-24T03:36:13Z</time></trkpt><trkpt lat="-19.65556858741439" lon="121.28187976559825"><ele>16.0</ele><time>2026-04-24T03:36:14Z</time></trkpt><trkpt lat="-19.655314218796423" lon="121.28204719571586"><ele>16.0</ele><time>2026-04-24T03:36:15Z</time></trkpt><trkpt lat="-19.655061203626314" lon="121.2822137496169"><ele>17.0</ele><time>2026-04-24T03:36:16Z</time></trkpt><trkpt lat="-19.65480888603412" lon="121.28238090073309"><ele>18.0</ele><time>2026-04-24T03:36:17Z</time></trkpt><trkpt lat="-19.654555342742107" lon="121.2825448549271"><ele>17.5</ele><time>2026-04-24T03:36:18Z</time></trkpt><trkpt lat="-19.65430157060137" lon="121.28270801651627"><ele>17.0</ele><time>2026-04-24T03:36:19Z</time></trkpt><trkpt lat="-19.654050716881162" lon="121.28287369703723"><ele>17.0</ele><time>2026-04-24T03:36:20Z</time></trkpt><trkpt lat="-19.653799453341854" lon="121.28304266363452"><ele>17.0</ele><time>2026-04-24T03:36:21Z</time></trkpt><trkpt lat="-19.653545344410684" lon="121.28320985490654"><ele>18.0</ele><time>2026-04-24T03:36:22Z</time></trkpt><trkpt lat="-19.653293005545844" lon="121.28337347031281"><ele>19.0</ele><time>2026-04-24T03:36:23Z</time></trkpt><trkpt lat="-19.653040641191186" lon="121.28353609503047"><ele>18.5</ele><time>2026-04-24T03:36:24Z</time></trkpt><trkpt lat="-19.652787061786437" lon="121.28369896572978"><ele>18.0</ele><time>2026-04-24T03:36:25Z</time></trkpt><trkpt lat="-19.652532674556923" lon="121.28386333064104"><ele>16.5</ele><time>2026-04-24T03:36:26Z</time></trkpt><trkpt lat="-19.652278427388918" lon="121.28402961109032"><ele>15.0</ele><time>2026-04-24T03:36:27Z</time></trkpt><trkpt lat="-19.652027294745746" lon="121.2841943108857"><ele>16.5</ele><time>2026-04-24T03:36:28Z</time></trkpt><trkpt lat="-19.651775716147633" lon="121.2843578890053"><ele>18.0</ele><time>2026-04-24T03:36:29Z</time></trkpt><trkpt lat="-19.651521911593516" lon="121.28452204826749"><ele>18.0</ele><time>2026-04-24T03:36:30Z</time></trkpt><trkpt lat="-19.651269646513807" lon="121.28468430397801"><ele>18.0</ele><time>2026-04-24T03:36:31Z</time></trkpt><trkpt lat="-19.651016011277793" lon="121.28484723373613"><ele>18.0</ele><time>2026-04-24T03:36:32Z</time></trkpt><trkpt lat="-19.650760843459" lon="121.28501296367953"><ele>18.0</ele><time>2026-04-24T03:36:33Z</time></trkpt><trkpt lat="-19.65050487642568" lon="121.28518253411154"><ele>19.0</ele><time>2026-04-24T03:36:34Z</time></trkpt><trkpt lat="-19.65024690602044" lon="121.28535219281699"><ele>20.0</ele><time>2026-04-24T03:36:35Z</time></trkpt><trkpt lat="-19.64998819980613" lon="121.28551969599442"><ele>19.0</ele><time>2026-04-24T03:36:36Z</time></trkpt><trkpt lat="-19.64972953709486" lon="121.28568723936448"><ele>18.0</ele><time>2026-04-24T03:36:37Z</time></trkpt><trkpt lat="-19.649471180425657" lon="121.28585189414852"><ele>18.5</ele><time>2026-04-24T03:36:38Z</time></trkpt><trkpt lat="-19.649218609906786" lon="121.28601452476387"><ele>19.0</ele><time>2026-04-24T03:36:39Z</time></trkpt><trkpt lat="-19.648967017456236" lon="121.2861792473686"><ele>19.0</ele><time>2026-04-24T03:36:40Z</time></trkpt><trkpt lat="-19.648713677075897" lon="121.28634518291949"><ele>19.0</ele><time>2026-04-24T03:36:41Z</time></trkpt><trkpt lat="-19.64845961792279" lon="121.28651315945157"><ele>17.5</ele><time>2026-04-24T03:36:42Z</time></trkpt><trkpt lat="-19.6482054222906" lon="121.28668034847395"><ele>16.0</ele><time>2026-04-24T03:36:43Z</time></trkpt><trkpt lat="-19.64794615144814" lon="121.28684906952259"><ele>15.5</ele><time>2026-04-24T03:36:44Z</time></trkpt><trkpt lat="-19.64768427579309" lon="121.28701958748177"><ele>15.0</ele><time>2026-04-24T03:36:45Z</time></trkpt><trkpt lat="-19.647422521632826" lon="121.28719196167371"><ele>15.0</ele><time>2026-04-24T03:36:46Z</time></trkpt><trkpt lat="-19.647159440174647" lon="121.28736586470305"><ele>15.0</ele><time>2026-04-24T03:36:47Z</time></trkpt><trkpt lat="-19.6468990852097" lon="121.28753718779903"><ele>15.0</ele><time>2026-04-24T03:36:48Z</time></trkpt><trkpt lat="-19.646640302608485" lon="121.28770682873258"><ele>15.0</ele><time>2026-04-24T03:36:49Z</time></trkpt><trkpt lat="-19.646379100933153" lon="121.28787847853253"><ele>15.5</ele><time>2026-04-24T03:36:50Z</time></trkpt><trkpt lat="-19.646118181995586" lon="121.28805008270403"><ele>16.0</ele><time>2026-04-24T03:36:51Z</time></trkpt><trkpt lat="-19.645857331834634" lon="121.28822009032294"><ele>16.0</ele><time>2026-04-24T03:36:52Z</time></trkpt><trkpt lat="-19.645595571575182" lon="121.28838890832125"><ele>16.0</ele><time>2026-04-24T03:36:53Z</time></trkpt><trkpt lat="-19.645332915214947" lon="121.28855769317066"><ele>15.0</ele><time>2026-04-24T03:36:54Z</time></trkpt><trkpt lat="-19.64507129977666" lon="121.28872785362084"><ele>14.0</ele><time>2026-04-24T03:36:55Z</time></trkpt><trkpt lat="-19.64480895911718" lon="121.28889917966886"><ele>14.0</ele><time>2026-04-24T03:36:56Z</time></trkpt><trkpt lat="-19.64454801606608" lon="121.28906736954632"><ele>14.0</ele><time>2026-04-24T03:36:57Z</time></trkpt><trkpt lat="-19.644287150350173" lon="121.28923404273151"><ele>14.0</ele><time>2026-04-24T03:36:58Z</time></trkpt><trkpt lat="-19.644029942587753" lon="121.2894033407324"><ele>14.0</ele><time>2026-04-24T03:36:59Z</time></trkpt><trkpt lat="-19.643774409182733" lon="121.28957390263949"><ele>13.5</ele><time>2026-04-24T03:37:00Z</time></trkpt><trkpt lat="-19.64351855358205" lon="121.28974233915831"><ele>13.0</ele><time>2026-04-24T03:37:01Z</time></trkpt><trkpt lat="-19.643263354658128" lon="121.28990898614686"><ele>13.0</ele><time>2026-04-24T03:37:02Z</time></trkpt><trkpt lat="-19.643007227897513" lon="121.29007461476944"><ele>13.0</ele><time>2026-04-24T03:37:03Z</time></trkpt><trkpt lat="-19.642752657126103" lon="121.29023630758503"><ele>14.0</ele><time>2026-04-24T03:37:04Z</time></trkpt><trkpt lat="-19.642497017787015" lon="121.2904014521145"><ele>15.0</ele><time>2026-04-24T03:37:05Z</time></trkpt><trkpt lat="-19.642241293032352" lon="121.29057067724713"><ele>15.5</ele><time>2026-04-24T03:37:06Z</time></trkpt><trkpt lat="-19.641986110704195" lon="121.29073861730633"><ele>16.0</ele><time>2026-04-24T03:37:07Z</time></trkpt><trkpt lat="-19.641729039151965" lon="121.2909043527007"><ele>16.0</ele><time>2026-04-24T03:37:08Z</time></trkpt><trkpt lat="-19.641471409643597" lon="121.29107097378144"><ele>16.0</ele><time>2026-04-24T03:37:09Z</time></trkpt><trkpt lat="-19.641214150438195" lon="121.29124011485327"><ele>16.0</ele><time>2026-04-24T03:37:10Z</time></trkpt><trkpt lat="-19.64095736899608" lon="121.29141252727725"><ele>16.0</ele><time>2026-04-24T03:37:11Z</time></trkpt><trkpt lat="-19.640693949800934" lon="121.29156765219786"><ele>16.0</ele><time>2026-04-24T03:37:12Z</time></trkpt><trkpt lat="-19.64044134495823" lon="121.2917516419923"><ele>16.0</ele><time>2026-04-24T03:37:13Z</time></trkpt><trkpt lat="-19.640180734987602" lon="121.29191656282372"><ele>14.0</ele><time>2026-04-24T03:37:14Z</time></trkpt><trkpt lat="-19.639921968326814" lon="121.29208267089662"><ele>12.0</ele><time>2026-04-24T03:37:15Z</time></trkpt><trkpt lat="-19.639667250352918" lon="121.2922483230689"><ele>13.5</ele><time>2026-04-24T03:37:16Z</time></trkpt><trkpt lat="-19.639414766862405" lon="121.29241309353104"><ele>15.0</ele><time>2026-04-24T03:37:17Z</time></trkpt><trkpt lat="-19.6391617413438" lon="121.29258208498092"><ele>15.0</ele><time>2026-04-24T03:37:18Z</time></trkpt><trkpt lat="-19.63891000820202" lon="121.29274886058735"><ele>15.0</ele><time>2026-04-24T03:37:19Z</time></trkpt><trkpt lat="-19.638655286253908" lon="121.29291394828462"><ele>15.0</ele><time>2026-04-24T03:37:20Z</time></trkpt><trkpt lat="-19.63839852515714" lon="121.29308078655745"><ele>15.0</ele><time>2026-04-24T03:37:21Z</time></trkpt><trkpt lat="-19.63814167641213" lon="121.29324735645346"><ele>15.0</ele><time>2026-04-24T03:37:22Z</time></trkpt><trkpt lat="-19.63788472333802" lon="121.29341548836082"><ele>15.0</ele><time>2026-04-24T03:37:23Z</time></trkpt><trkpt lat="-19.637627015972544" lon="121.29358484453857"><ele>15.0</ele><time>2026-04-24T03:37:24Z</time></trkpt><trkpt lat="-19.637369045031285" lon="121.29375112626569"><ele>15.0</ele><time>2026-04-24T03:37:25Z</time></trkpt><trkpt lat="-19.63711187419532" lon="121.29391603476891"><ele>16.0</ele><time>2026-04-24T03:37:26Z</time></trkpt><trkpt lat="-19.636856057347693" lon="121.29408193107406"><ele>17.0</ele><time>2026-04-24T03:37:27Z</time></trkpt><trkpt lat="-19.636602001422727" lon="121.29424824754075"><ele>17.0</ele><time>2026-04-24T03:37:28Z</time></trkpt><trkpt lat="-19.63635209111216" lon="121.29441746180228"><ele>17.0</ele><time>2026-04-24T03:37:29Z</time></trkpt><trkpt lat="-19.636107672384934" lon="121.2945882589667"><ele>15.5</ele><time>2026-04-24T03:37:30Z</time></trkpt><trkpt lat="-19.635866583973133" lon="121.29476327296489"><ele>14.0</ele><time>2026-04-24T03:37:31Z</time></trkpt><trkpt lat="-19.63562737673824" lon="121.2949433751903"><ele>14.0</ele><time>2026-04-24T03:37:32Z</time></trkpt><trkpt lat="-19.63539157183759" lon="121.2951309520847"><ele>14.0</ele><time>2026-04-24T03:37:33Z</time></trkpt><trkpt lat="-19.635157455684684" lon="121.29532385903786"><ele>14.5</ele><time>2026-04-24T03:37:34Z</time></trkpt><trkpt lat="-19.634926348361045" lon="121.29552124468619"><ele>15.0</ele><time>2026-04-24T03:37:35Z</time></trkpt><trkpt lat="-19.634698837020114" lon="121.2957218022089"><ele>14.5</ele><time>2026-04-24T03:37:36Z</time></trkpt><trkpt lat="-19.634475495110813" lon="121.2959261087678"><ele>14.0</ele><time>2026-04-24T03:37:37Z</time></trkpt><trkpt lat="-19.63425645054053" lon="121.29613288802858"><ele>14.0</ele><time>2026-04-24T03:37:38Z</time></trkpt><trkpt lat="-19.634038897355406" lon="121.29634328121088"><ele>14.0</ele><time>2026-04-24T03:37:39Z</time></trkpt><trkpt lat="-19.633821685016866" lon="121.2965578391029"><ele>15.0</ele><time>2026-04-24T03:37:40Z</time></trkpt><trkpt lat="-19.63360858620869" lon="121.29677490353916"><ele>16.0</ele><time>2026-04-24T03:37:41Z</time></trkpt><trkpt lat="-19.6333990115328" lon="121.29699614738402"><ele>16.0</ele><time>2026-04-24T03:37:42Z</time></trkpt><trkpt lat="-19.633186919077865" lon="121.297223270934"><ele>16.0</ele><time>2026-04-24T03:37:43Z</time></trkpt><trkpt lat="-19.6329763146236" lon="121.29745081741825"><ele>16.0</ele><time>2026-04-24T03:37:44Z</time></trkpt><trkpt lat="-19.632765548452426" lon="121.2976781096304"><ele>16.0</ele><time>2026-04-24T03:37:45Z</time></trkpt><trkpt lat="-19.632553370074916" lon="121.29790578923411"><ele>16.0</ele><time>2026-04-24T03:37:46Z</time></trkpt><trkpt lat="-19.63234191155028" lon="121.29813067302305"><ele>16.0</ele><time>2026-04-24T03:37:47Z</time></trkpt><trkpt lat="-19.632130251081385" lon="121.29835539958023"><ele>16.5</ele><time>2026-04-24T03:37:48Z</time></trkpt><trkpt lat="-19.63191945491929" lon="121.29858099501017"><ele>17.0</ele><time>2026-04-24T03:37:49Z</time></trkpt><trkpt lat="-19.631708838523988" lon="121.2988070987333"><ele>17.0</ele><time>2026-04-24T03:37:50Z</time></trkpt><trkpt lat="-19.631493624136432" lon="121.2990353841989"><ele>17.0</ele><time>2026-04-24T03:37:51Z</time></trkpt><trkpt lat="-19.631275722607395" lon="121.29926732143305"><ele>16.5</ele><time>2026-04-24T03:37:52Z</time></trkpt><trkpt lat="-19.631063703185525" lon="121.29949423944306"><ele>16.0</ele><time>2026-04-24T03:37:53Z</time></trkpt><trkpt lat="-19.63086610316496" lon="121.29970544535536"><ele>15.0</ele><time>2026-04-24T03:37:54Z</time></trkpt><trkpt lat="-19.630671827814993" lon="121.29991298126099"><ele>14.0</ele><time>2026-04-24T03:37:55Z</time></trkpt><trkpt lat="-19.630473505080644" lon="121.3001298966446"><ele>15.5</ele><time>2026-04-24T03:37:56Z</time></trkpt><trkpt lat="-19.630268249797727" lon="121.30034979939485"><ele>17.0</ele><time>2026-04-24T03:37:57Z</time></trkpt><trkpt lat="-19.63006261708399" lon="121.30056802034885"><ele>17.5</ele><time>2026-04-24T03:37:58Z</time></trkpt><trkpt lat="-19.629856139103573" lon="121.30078394875204"><ele>18.0</ele><time>2026-04-24T03:37:59Z</time></trkpt><trkpt lat="-19.629650826024736" lon="121.30100167202212"><ele>18.0</ele><time>2026-04-24T03:38:00Z</time></trkpt><trkpt lat="-19.629446925760522" lon="121.30121993828826"><ele>18.0</ele><time>2026-04-24T03:38:01Z</time></trkpt><trkpt lat="-19.629243410552824" lon="121.30143994731195"><ele>17.0</ele><time>2026-04-24T03:38:02Z</time></trkpt><trkpt lat="-19.62903884435764" lon="121.30165911658344"><ele>16.0</ele><time>2026-04-24T03:38:03Z</time></trkpt><trkpt lat="-19.62883205531494" lon="121.30187749519025"><ele>16.5</ele><time>2026-04-24T03:38:04Z</time></trkpt><trkpt lat="-19.628627996006205" lon="121.30209586267658"><ele>17.0</ele><time>2026-04-24T03:38:05Z</time></trkpt><trkpt lat="-19.628423737673085" lon="121.3023143651277"><ele>17.0</ele><time>2026-04-24T03:38:06Z</time></trkpt><trkpt lat="-19.62821598365684" lon="121.30253433255488"><ele>17.0</ele><time>2026-04-24T03:38:07Z</time></trkpt><trkpt lat="-19.628007670853687" lon="121.30275515665744"><ele>17.0</ele><time>2026-04-24T03:38:08Z</time></trkpt><trkpt lat="-19.62779795825856" lon="121.30297840855266"><ele>17.0</ele><time>2026-04-24T03:38:09Z</time></trkpt><trkpt lat="-19.627588044581195" lon="121.30320604950937"><ele>17.0</ele><time>2026-04-24T03:38:10Z</time></trkpt><trkpt lat="-19.627376457133607" lon="121.3034342091763"><ele>17.0</ele><time>2026-04-24T03:38:11Z</time></trkpt><trkpt lat="-19.627164841019663" lon="121.30366027823885"><ele>17.5</ele><time>2026-04-24T03:38:12Z</time></trkpt><trkpt lat="-19.62695226836425" lon="121.30388776548762"><ele>18.0</ele><time>2026-04-24T03:38:13Z</time></trkpt><trkpt lat="-19.62673987887866" lon="121.30411622553962"><ele>16.5</ele><time>2026-04-24T03:38:14Z</time></trkpt><trkpt lat="-19.626527941522202" lon="121.30434325866345"><ele>15.0</ele><time>2026-04-24T03:38:15Z</time></trkpt><trkpt lat="-19.6263141643997" lon="121.30456895211127"><ele>17.0</ele><time>2026-04-24T03:38:16Z</time></trkpt><trkpt lat="-19.62609905701503" lon="121.304796170983"><ele>19.0</ele><time>2026-04-24T03:38:17Z</time></trkpt><trkpt lat="-19.62588475093318" lon="121.3050273916125"><ele>19.0</ele><time>2026-04-24T03:38:18Z</time></trkpt><trkpt lat="-19.62545450283286" lon="121.30549529034755"><ele>18.5</ele><time>2026-04-24T03:38:20Z</time></trkpt><trkpt lat="-19.625237688561413" lon="121.30572967504034"><ele>18.0</ele><time>2026-04-24T03:38:21Z</time></trkpt><trkpt lat="-19.625017126756738" lon="121.30596462978016"><ele>18.0</ele><time>2026-04-24T03:38:22Z</time></trkpt><trkpt lat="-19.624794894245532" lon="121.30619725649427"><ele>18.0</ele><time>2026-04-24T03:38:23Z</time></trkpt><trkpt lat="-19.624573987552104" lon="121.30642965368443"><ele>18.5</ele><time>2026-04-24T03:38:24Z</time></trkpt><trkpt lat="-19.624352470774955" lon="121.30666235677518"><ele>19.0</ele><time>2026-04-24T03:38:25Z</time></trkpt><trkpt lat="-19.624134500905903" lon="121.30689511426107"><ele>19.0</ele><time>2026-04-24T03:38:26Z</time></trkpt><trkpt lat="-19.623918493725363" lon="121.30712628021355"><ele>19.0</ele><time>2026-04-24T03:38:27Z</time></trkpt><trkpt lat="-19.623707045363044" lon="121.30735629790784"><ele>19.5</ele><time>2026-04-24T03:38:28Z</time></trkpt><trkpt lat="-19.623496781949093" lon="121.30758460341791"><ele>20.0</ele><time>2026-04-24T03:38:29Z</time></trkpt><trkpt lat="-19.62328749859107" lon="121.30781025351428"><ele>20.0</ele><time>2026-04-24T03:38:30Z</time></trkpt><trkpt lat="-19.623076247152195" lon="121.30803211679866"><ele>20.0</ele><time>2026-04-24T03:38:31Z</time></trkpt><trkpt lat="-19.622865448008284" lon="121.30825514286315"><ele>22.0</ele><time>2026-04-24T03:38:32Z</time></trkpt><trkpt lat="-19.62265802040215" lon="121.30848003620332"><ele>24.0</ele><time>2026-04-24T03:38:33Z</time></trkpt><trkpt lat="-19.62244879405759" lon="121.30870565859739"><ele>23.5</ele><time>2026-04-24T03:38:34Z</time></trkpt><trkpt lat="-19.622237947516314" lon="121.30893022348654"><ele>23.0</ele><time>2026-04-24T03:38:35Z</time></trkpt><trkpt lat="-19.622028489593564" lon="121.30915567415897"><ele>23.0</ele><time>2026-04-24T03:38:36Z</time></trkpt><trkpt lat="-19.62181943241905" lon="121.309377301187"><ele>23.0</ele><time>2026-04-24T03:38:37Z</time></trkpt><trkpt lat="-19.621610885726618" lon="121.30959588697603"><ele>23.5</ele><time>2026-04-24T03:38:38Z</time></trkpt><trkpt lat="-19.621404967293476" lon="121.30981509828689"><ele>24.0</ele><time>2026-04-24T03:38:39Z</time></trkpt><trkpt lat="-19.621197942063386" lon="121.3100352842603"><ele>23.5</ele><time>2026-04-24T03:38:40Z</time></trkpt><trkpt lat="-19.620989597973338" lon="121.31025775666488"><ele>23.0</ele><time>2026-04-24T03:38:41Z</time></trkpt><trkpt lat="-19.620781689696578" lon="121.31047847406515"><ele>23.0</ele><time>2026-04-24T03:38:42Z</time></trkpt><trkpt lat="-19.62057482848697" lon="121.3107004442668"><ele>23.0</ele><time>2026-04-24T03:38:43Z</time></trkpt><trkpt lat="-19.62036646492697" lon="121.31092240250305"><ele>22.5</ele><time>2026-04-24T03:38:44Z</time></trkpt><trkpt lat="-19.620157672089626" lon="121.31114209574362"><ele>22.0</ele><time>2026-04-24T03:38:45Z</time></trkpt><trkpt lat="-19.619946807195532" lon="121.31136498324129"><ele>23.0</ele><time>2026-04-24T03:38:46Z</time></trkpt><trkpt lat="-19.619735513891104" lon="121.31158967684769"><ele>24.0</ele><time>2026-04-24T03:38:47Z</time></trkpt><trkpt lat="-19.619523174604307" lon="121.3118143880558"><ele>24.0</ele><time>2026-04-24T03:38:48Z</time></trkpt><trkpt lat="-19.61930929953272" lon="121.31203959501545"><ele>24.0</ele><time>2026-04-24T03:38:49Z</time></trkpt><trkpt lat="-19.619100505656295" lon="121.31226392006056"><ele>24.0</ele><time>2026-04-24T03:38:50Z</time></trkpt><trkpt lat="-19.618892360767795" lon="121.31248975168569"><ele>24.0</ele><time>2026-04-24T03:38:51Z</time></trkpt><trkpt lat="-19.61868493625708" lon="121.31271293681729"><ele>24.5</ele><time>2026-04-24T03:38:52Z</time></trkpt><trkpt lat="-19.618476351850273" lon="121.31293815461235"><ele>25.0</ele><time>2026-04-24T03:38:53Z</time></trkpt><trkpt lat="-19.618267894150446" lon="121.31316294507002"><ele>25.0</ele><time>2026-04-24T03:38:54Z</time></trkpt><trkpt lat="-19.618058148457433" lon="121.31338957601118"><ele>25.0</ele><time>2026-04-24T03:38:55Z</time></trkpt><trkpt lat="-19.617846528568858" lon="121.31361658765641"><ele>24.5</ele><time>2026-04-24T03:38:56Z</time></trkpt><trkpt lat="-19.61763092595174" lon="121.3138433084381"><ele>24.0</ele><time>2026-04-24T03:38:57Z</time></trkpt><trkpt lat="-19.61741460751285" lon="121.31407282568617"><ele>24.0</ele><time>2026-04-24T03:38:58Z</time></trkpt><trkpt lat="-19.617199611643315" lon="121.31430289461252"><ele>24.0</ele><time>2026-04-24T03:38:59Z</time></trkpt><trkpt lat="-19.616985720179432" lon="121.31453117940109"><ele>23.0</ele><time>2026-04-24T03:39:00Z</time></trkpt><trkpt lat="-19.61677133623777" lon="121.31475751450094"><ele>22.0</ele><time>2026-04-24T03:39:01Z</time></trkpt><trkpt lat="-19.61655858903639" lon="121.31498259413796"><ele>22.0</ele><time>2026-04-24T03:39:02Z</time></trkpt><trkpt lat="-19.6163464792332" lon="121.3152077566842"><ele>22.0</ele><time>2026-04-24T03:39:03Z</time></trkpt><trkpt lat="-19.616130814520982" lon="121.31543588308605"><ele>23.0</ele><time>2026-04-24T03:39:04Z</time></trkpt><trkpt lat="-19.61591509507589" lon="121.31566393058955"><ele>24.0</ele><time>2026-04-24T03:39:05Z</time></trkpt><trkpt lat="-19.615699587657303" lon="121.315894990265"><ele>24.0</ele><time>2026-04-24T03:39:06Z</time></trkpt><trkpt lat="-19.61548340164534" lon="121.3161278355111"><ele>24.0</ele><time>2026-04-24T03:39:07Z</time></trkpt><trkpt lat="-19.615268313963366" lon="121.31636132160946"><ele>24.5</ele><time>2026-04-24T03:39:08Z</time></trkpt><trkpt lat="-19.6150537567211" lon="121.31659492696114"><ele>25.0</ele><time>2026-04-24T03:39:09Z</time></trkpt><trkpt lat="-19.61483954311346" lon="121.3168264496882"><ele>25.0</ele><time>2026-04-24T03:39:10Z</time></trkpt><trkpt lat="-19.614622540536434" lon="121.31705920793134"><ele>25.0</ele><time>2026-04-24T03:39:11Z</time></trkpt><trkpt lat="-19.61440205845692" lon="121.317291950175"><ele>26.0</ele><time>2026-04-24T03:39:12Z</time></trkpt><trkpt lat="-19.61418106789351" lon="121.31752365896959"><ele>27.0</ele><time>2026-04-24T03:39:13Z</time></trkpt><trkpt lat="-19.61396061806611" lon="121.31775475318062"><ele>27.0</ele><time>2026-04-24T03:39:14Z</time></trkpt><trkpt lat="-19.613745373473666" lon="121.31798745420244"><ele>27.0</ele><time>2026-04-24T03:39:15Z</time></trkpt><trkpt lat="-19.61353242724036" lon="121.31822016827566"><ele>26.0</ele><time>2026-04-24T03:39:16Z</time></trkpt><trkpt lat="-19.613320041075877" lon="121.3184498520947"><ele>25.0</ele><time>2026-04-24T03:39:17Z</time></trkpt><trkpt lat="-19.613106748340982" lon="121.31867802969526"><ele>24.5</ele><time>2026-04-24T03:39:18Z</time></trkpt><trkpt lat="-19.61288977146712" lon="121.31890410350456"><ele>24.0</ele><time>2026-04-24T03:39:19Z</time></trkpt><trkpt lat="-19.612673351277206" lon="121.31912638155335"><ele>25.0</ele><time>2026-04-24T03:39:20Z</time></trkpt><trkpt lat="-19.61245837092346" lon="121.31935004916477"><ele>26.0</ele><time>2026-04-24T03:39:21Z</time></trkpt><trkpt lat="-19.61224773203915" lon="121.31957409673632"><ele>26.0</ele><time>2026-04-24T03:39:22Z</time></trkpt><trkpt lat="-19.612038719983637" lon="121.31980231802424"><ele>26.0</ele><time>2026-04-24T03:39:23Z</time></trkpt><trkpt lat="-19.6118276191267" lon="121.32003220725669"><ele>26.0</ele><time>2026-04-24T03:39:24Z</time></trkpt><trkpt lat="-19.611616747438017" lon="121.32026016197081"><ele>26.0</ele><time>2026-04-24T03:39:25Z</time></trkpt><trkpt lat="-19.611404002342447" lon="121.32048989271611"><ele>26.5</ele><time>2026-04-24T03:39:26Z</time></trkpt><trkpt lat="-19.611191891090105" lon="121.3207188249417"><ele>27.0</ele><time>2026-04-24T03:39:27Z</time></trkpt><trkpt lat="-19.61097671447833" lon="121.32094685004732"><ele>28.0</ele><time>2026-04-24T03:39:28Z</time></trkpt><trkpt lat="-19.61076138324405" lon="121.32117356929363"><ele>29.0</ele><time>2026-04-24T03:39:29Z</time></trkpt><trkpt lat="-19.61054536986978" lon="121.32140015100123"><ele>29.0</ele><time>2026-04-24T03:39:30Z</time></trkpt><trkpt lat="-19.61033060979304" lon="121.32162701604544"><ele>29.0</ele><time>2026-04-24T03:39:31Z</time></trkpt><trkpt lat="-19.610116092825493" lon="121.32185776556071"><ele>29.0</ele><time>2026-04-24T03:39:32Z</time></trkpt><trkpt lat="-19.609903278785115" lon="121.32208873102219"><ele>29.0</ele><time>2026-04-24T03:39:33Z</time></trkpt><trkpt lat="-19.609691688961526" lon="121.32231651401246"><ele>29.0</ele><time>2026-04-24T03:39:34Z</time></trkpt><trkpt lat="-19.609480951856803" lon="121.32254058687234"><ele>29.0</ele><time>2026-04-24T03:39:35Z</time></trkpt><trkpt lat="-19.60926941249511" lon="121.32276461311166"><ele>29.0</ele><time>2026-04-24T03:39:36Z</time></trkpt><trkpt lat="-19.609058215019516" lon="121.32298744616466"><ele>29.0</ele><time>2026-04-24T03:39:37Z</time></trkpt><trkpt lat="-19.6088449671949" lon="121.32321051758277"><ele>29.0</ele><time>2026-04-24T03:39:38Z</time></trkpt><trkpt lat="-19.608635526107367" lon="121.32343329780811"><ele>29.0</ele><time>2026-04-24T03:39:39Z</time></trkpt><trkpt lat="-19.60842529952718" lon="121.32365590744509"><ele>29.0</ele><time>2026-04-24T03:39:40Z</time></trkpt><trkpt lat="-19.608215054447726" lon="121.32387896459237"><ele>29.0</ele><time>2026-04-24T03:39:41Z</time></trkpt><trkpt lat="-19.608003218929884" lon="121.32410273130493"><ele>29.0</ele><time>2026-04-24T03:39:42Z</time></trkpt><trkpt lat="-19.607790523173293" lon="121.32432713158043"><ele>29.0</ele><time>2026-04-24T03:39:43Z</time></trkpt><trkpt lat="-19.607581261743903" lon="121.32455240721072"><ele>29.0</ele><time>2026-04-24T03:39:44Z</time></trkpt><trkpt lat="-19.60737014764665" lon="121.32477608267742"><ele>29.0</ele><time>2026-04-24T03:39:45Z</time></trkpt><trkpt lat="-19.607156108208248" lon="121.32499487298368"><ele>29.0</ele><time>2026-04-24T03:39:46Z</time></trkpt><trkpt lat="-19.606937419895377" lon="121.32520615780727"><ele>29.0</ele><time>2026-04-24T03:39:47Z</time></trkpt><trkpt lat="-19.606708743363892" lon="121.32541176789293"><ele>31.0</ele><time>2026-04-24T03:39:48Z</time></trkpt><trkpt lat="-19.606475768889506" lon="121.325612796368"><ele>33.0</ele><time>2026-04-24T03:39:49Z</time></trkpt><trkpt lat="-19.606237505692167" lon="121.32581481299985"><ele>32.0</ele><time>2026-04-24T03:39:50Z</time></trkpt><trkpt lat="-19.605997413200946" lon="121.32601313669905"><ele>31.0</ele><time>2026-04-24T03:39:51Z</time></trkpt><trkpt lat="-19.60575163360679" lon="121.32620775063569"><ele>31.0</ele><time>2026-04-24T03:39:52Z</time></trkpt><trkpt lat="-19.605504621278808" lon="121.32639823481713"><ele>31.0</ele><time>2026-04-24T03:39:53Z</time></trkpt><trkpt lat="-19.60525564032927" lon="121.32658417975837"><ele>32.0</ele><time>2026-04-24T03:39:54Z</time></trkpt><trkpt lat="-19.60500525808707" lon="121.32676603978639"><ele>33.0</ele><time>2026-04-24T03:39:55Z</time></trkpt><trkpt lat="-19.604753283702287" lon="121.32694453945263"><ele>33.0</ele><time>2026-04-24T03:39:56Z</time></trkpt><trkpt lat="-19.604500517945628" lon="121.3271204514737"><ele>33.0</ele><time>2026-04-24T03:39:57Z</time></trkpt><trkpt lat="-19.604251288358277" lon="121.32729633748355"><ele>33.5</ele><time>2026-04-24T03:39:58Z</time></trkpt><trkpt lat="-19.60400513606538" lon="121.32747236547506"><ele>34.0</ele><time>2026-04-24T03:39:59Z</time></trkpt><trkpt lat="-19.603759614399927" lon="121.32764741296232"><ele>33.5</ele><time>2026-04-24T03:40:00Z</time></trkpt><trkpt lat="-19.60351694972439" lon="121.32782056381704"><ele>33.0</ele><time>2026-04-24T03:40:01Z</time></trkpt><trkpt lat="-19.603274442931028" lon="121.32799523311209"><ele>33.0</ele><time>2026-04-24T03:40:02Z</time></trkpt><trkpt lat="-19.603032245054816" lon="121.32816949529715"><ele>33.0</ele><time>2026-04-24T03:40:03Z</time></trkpt><trkpt lat="-19.602787238580728" lon="121.32834344774713"><ele>33.0</ele><time>2026-04-24T03:40:04Z</time></trkpt><trkpt lat="-19.602539757266" lon="121.32852102749771"><ele>33.0</ele><time>2026-04-24T03:40:05Z</time></trkpt><trkpt lat="-19.602293100936187" lon="121.32870103679646"><ele>33.0</ele><time>2026-04-24T03:40:06Z</time></trkpt><trkpt lat="-19.60204460257218" lon="121.32888228537706"><ele>33.0</ele><time>2026-04-24T03:40:07Z</time></trkpt><trkpt lat="-19.601795420934067" lon="121.32906225906378"><ele>33.0</ele><time>2026-04-24T03:40:08Z</time></trkpt><trkpt lat="-19.60154372049126" lon="121.32924372240322"><ele>33.0</ele><time>2026-04-24T03:40:09Z</time></trkpt><trkpt lat="-19.60129176436552" lon="121.32942465594955"><ele>32.0</ele><time>2026-04-24T03:40:10Z</time></trkpt><trkpt lat="-19.601037522132543" lon="121.32960591561636"><ele>31.0</ele><time>2026-04-24T03:40:11Z</time></trkpt><trkpt lat="-19.60078161623426" lon="121.32978949623487"><ele>31.0</ele><time>2026-04-24T03:40:12Z</time></trkpt><trkpt lat="-19.600525975566303" lon="121.3299723638275"><ele>31.0</ele><time>2026-04-24T03:40:13Z</time></trkpt><trkpt lat="-19.600269704883754" lon="121.33015576679165"><ele>32.0</ele><time>2026-04-24T03:40:14Z</time></trkpt><trkpt lat="-19.600012370372667" lon="121.33033839211242"><ele>33.0</ele><time>2026-04-24T03:40:15Z</time></trkpt><trkpt lat="-19.59975473116531" lon="121.33052246281758"><ele>34.0</ele><time>2026-04-24T03:40:16Z</time></trkpt><trkpt lat="-19.599500798618692" lon="121.33070483145184"><ele>35.0</ele><time>2026-04-24T03:40:17Z</time></trkpt><trkpt lat="-19.599246500693805" lon="121.33088734467644"><ele>35.0</ele><time>2026-04-24T03:40:18Z</time></trkpt><trkpt lat="-19.598993499092128" lon="121.33107131997619"><ele>35.0</ele><time>2026-04-24T03:40:19Z</time></trkpt><trkpt lat="-19.598744386555" lon="121.33125101883341"><ele>34.0</ele><time>2026-04-24T03:40:20Z</time></trkpt><trkpt lat="-19.59849733035671" lon="121.33142734040139"><ele>33.0</ele><time>2026-04-24T03:40:21Z</time></trkpt><trkpt lat="-19.598267373355466" lon="121.33159439035946"><ele>33.0</ele><time>2026-04-24T03:40:22Z</time></trkpt><trkpt lat="-19.598045000027003" lon="121.33175728680712"><ele>33.0</ele><time>2026-04-24T03:40:23Z</time></trkpt><trkpt lat="-19.59781628348974" lon="121.33192365312755"><ele>33.0</ele><time>2026-04-24T03:40:24Z</time></trkpt><trkpt lat="-19.597583327784793" lon="121.33209256405243"><ele>33.0</ele><time>2026-04-24T03:40:25Z</time></trkpt><trkpt lat="-19.59734648533634" lon="121.33226357410155"><ele>32.5</ele><time>2026-04-24T03:40:26Z</time></trkpt><trkpt lat="-19.597109944217888" lon="121.33243074146628"><ele>32.0</ele><time>2026-04-24T03:40:27Z</time></trkpt><trkpt lat="-19.596871712132547" lon="121.33259781009266"><ele>32.0</ele><time>2026-04-24T03:40:28Z</time></trkpt><trkpt lat="-19.596632385924636" lon="121.33276511807125"><ele>32.0</ele><time>2026-04-24T03:40:29Z</time></trkpt><trkpt lat="-19.596396500912583" lon="121.3329340141574"><ele>34.0</ele><time>2026-04-24T03:40:30Z</time></trkpt><trkpt lat="-19.596161490376215" lon="121.33310402693328"><ele>36.0</ele><time>2026-04-24T03:40:31Z</time></trkpt><trkpt lat="-19.595925204011543" lon="121.33327439324677"><ele>36.0</ele><time>2026-04-24T03:40:32Z</time></trkpt><trkpt lat="-19.595686609880882" lon="121.33344641428295"><ele>36.0</ele><time>2026-04-24T03:40:33Z</time></trkpt><trkpt lat="-19.59544551771713" lon="121.33361862854136"><ele>35.5</ele><time>2026-04-24T03:40:34Z</time></trkpt><trkpt lat="-19.595204596065617" lon="121.3337898227764"><ele>35.0</ele><time>2026-04-24T03:40:35Z</time></trkpt><trkpt lat="-19.594965271647666" lon="121.33396259519928"><ele>35.0</ele><time>2026-04-24T03:40:36Z</time></trkpt><trkpt lat="-19.59472459444193" lon="121.33413655446664"><ele>35.0</ele><time>2026-04-24T03:40:37Z</time></trkpt><trkpt lat="-19.594480147258675" lon="121.33431215818638"><ele>35.0</ele><time>2026-04-24T03:40:38Z</time></trkpt><trkpt lat="-19.594234642119783" lon="121.33448898539952"><ele>35.0</ele><time>2026-04-24T03:40:39Z</time></trkpt><trkpt lat="-19.59399061548919" lon="121.33466919293268"><ele>34.5</ele><time>2026-04-24T03:40:40Z</time></trkpt><trkpt lat="-19.593744420983427" lon="121.33484700671669"><ele>34.0</ele><time>2026-04-24T03:40:41Z</time></trkpt><trkpt lat="-19.593497526048804" lon="121.33502309282507"><ele>34.0</ele><time>2026-04-24T03:40:42Z</time></trkpt><trkpt lat="-19.593250019306343" lon="121.3351994785653"><ele>34.0</ele><time>2026-04-24T03:40:43Z</time></trkpt><trkpt lat="-19.593003354953492" lon="121.33537783006265"><ele>34.5</ele><time>2026-04-24T03:40:44Z</time></trkpt><trkpt lat="-19.592754615995506" lon="121.33555649863789"><ele>35.0</ele><time>2026-04-24T03:40:45Z</time></trkpt><trkpt lat="-19.592505671529786" lon="121.3357336972248"><ele>35.0</ele><time>2026-04-24T03:40:46Z</time></trkpt><trkpt lat="-19.592257192466437" lon="121.33590947917439"><ele>35.0</ele><time>2026-04-24T03:40:47Z</time></trkpt><trkpt lat="-19.59200840092195" lon="121.33608674332879"><ele>34.5</ele><time>2026-04-24T03:40:48Z</time></trkpt><trkpt lat="-19.591760493004386" lon="121.33626710298161"><ele>34.0</ele><time>2026-04-24T03:40:49Z</time></trkpt><trkpt lat="-19.59151364692" lon="121.33644797865452"><ele>35.0</ele><time>2026-04-24T03:40:50Z</time></trkpt><trkpt lat="-19.591265434968623" lon="121.33662654468785"><ele>36.0</ele><time>2026-04-24T03:40:51Z</time></trkpt><trkpt lat="-19.591019556384353" lon="121.3368029774036"><ele>36.0</ele><time>2026-04-24T03:40:52Z</time></trkpt><trkpt lat="-19.590771207415354" lon="121.33698132179303"><ele>36.0</ele><time>2026-04-24T03:40:53Z</time></trkpt><trkpt lat="-19.590523737754758" lon="121.33715929386985"><ele>36.5</ele><time>2026-04-24T03:40:54Z</time></trkpt><trkpt lat="-19.590275418294194" lon="121.3373375872214"><ele>37.0</ele><time>2026-04-24T03:40:55Z</time></trkpt><trkpt lat="-19.590025736066945" lon="121.33751792585042"><ele>37.0</ele><time>2026-04-24T03:40:56Z</time></trkpt><trkpt lat="-19.589774198068028" lon="121.3376987244973"><ele>37.0</ele><time>2026-04-24T03:40:57Z</time></trkpt><trkpt lat="-19.58951876164791" lon="121.33788259460475"><ele>37.0</ele><time>2026-04-24T03:40:58Z</time></trkpt><trkpt lat="-19.5892600363383" lon="121.3380687087941"><ele>37.0</ele><time>2026-04-24T03:40:59Z</time></trkpt><trkpt lat="-19.58900334425092" lon="121.33825140698855"><ele>37.0</ele><time>2026-04-24T03:41:00Z</time></trkpt><trkpt lat="-19.588744328599404" lon="121.33843552802941"><ele>37.0</ele><time>2026-04-24T03:41:01Z</time></trkpt><trkpt lat="-19.58848890492161" lon="121.3386157660535"><ele>37.0</ele><time>2026-04-24T03:41:02Z</time></trkpt><trkpt lat="-19.588232958781425" lon="121.33879771423591"><ele>37.0</ele><time>2026-04-24T03:41:03Z</time></trkpt><trkpt lat="-19.587978138654925" lon="121.33897995225631"><ele>37.0</ele><time>2026-04-24T03:41:04Z</time></trkpt><trkpt lat="-19.587723319485356" lon="121.33916178909722"><ele>37.0</ele><time>2026-04-24T03:41:05Z</time></trkpt><trkpt lat="-19.5874690247432" lon="121.33934186043409"><ele>37.0</ele><time>2026-04-24T03:41:06Z</time></trkpt><trkpt lat="-19.587213183131123" lon="121.33952499524985"><ele>37.0</ele><time>2026-04-24T03:41:07Z</time></trkpt><trkpt lat="-19.586957839026358" lon="121.339711089024"><ele>38.5</ele><time>2026-04-24T03:41:08Z</time></trkpt><trkpt lat="-19.586700978798913" lon="121.33989743917836"><ele>40.0</ele><time>2026-04-24T03:41:09Z</time></trkpt><trkpt lat="-19.586445390559074" lon="121.34008015950774"><ele>40.0</ele><time>2026-04-24T03:41:10Z</time></trkpt><trkpt lat="-19.58618925808738" lon="121.34026280659526"><ele>40.0</ele><time>2026-04-24T03:41:11Z</time></trkpt><trkpt lat="-19.58593374331075" lon="121.3404452301448"><ele>38.0</ele><time>2026-04-24T03:41:12Z</time></trkpt><trkpt lat="-19.585677577508996" lon="121.34062989908233"><ele>36.0</ele><time>2026-04-24T03:41:13Z</time></trkpt><trkpt lat="-19.585419344687175" lon="121.34081641862934"><ele>38.0</ele><time>2026-04-24T03:41:14Z</time></trkpt><trkpt lat="-19.585162172504138" lon="121.34100377253766"><ele>40.0</ele><time>2026-04-24T03:41:15Z</time></trkpt><trkpt lat="-19.58490570786635" lon="121.34118964730224"><ele>40.0</ele><time>2026-04-24T03:41:16Z</time></trkpt><trkpt lat="-19.584652324437588" lon="121.34137445209554"><ele>40.0</ele><time>2026-04-24T03:41:17Z</time></trkpt><trkpt lat="-19.58439847215887" lon="121.34155546859802"><ele>39.0</ele><time>2026-04-24T03:41:18Z</time></trkpt><trkpt lat="-19.584146993846815" lon="121.34173418224286"><ele>38.0</ele><time>2026-04-24T03:41:19Z</time></trkpt><trkpt lat="-19.583902753718245" lon="121.34191091293415"><ele>37.5</ele><time>2026-04-24T03:41:20Z</time></trkpt><trkpt lat="-19.583659717111363" lon="121.34208489621678"><ele>37.0</ele><time>2026-04-24T03:41:21Z</time></trkpt><trkpt lat="-19.583419929523785" lon="121.34225930940785"><ele>37.0</ele><time>2026-04-24T03:41:22Z</time></trkpt><trkpt lat="-19.583179326186453" lon="121.34243479039986"><ele>37.0</ele><time>2026-04-24T03:41:23Z</time></trkpt><trkpt lat="-19.582942536942703" lon="121.34260643504368"><ele>36.5</ele><time>2026-04-24T03:41:24Z</time></trkpt><trkpt lat="-19.582706296600424" lon="121.3427772195041"><ele>36.0</ele><time>2026-04-24T03:41:25Z</time></trkpt><trkpt lat="-19.582472485586734" lon="121.34294510371053"><ele>35.5</ele><time>2026-04-24T03:41:26Z</time></trkpt><trkpt lat="-19.582237541955458" lon="121.34311435330721"><ele>35.0</ele><time>2026-04-24T03:41:27Z</time></trkpt><trkpt lat="-19.582004545142585" lon="121.34328080103172"><ele>36.5</ele><time>2026-04-24T03:41:28Z</time></trkpt><trkpt lat="-19.581771149781137" lon="121.34344696715051"><ele>38.0</ele><time>2026-04-24T03:41:29Z</time></trkpt><trkpt lat="-19.581537309220387" lon="121.34361135785836"><ele>38.0</ele><time>2026-04-24T03:41:30Z</time></trkpt><trkpt lat="-19.581301837692767" lon="121.34377743702208"><ele>38.0</ele><time>2026-04-24T03:41:31Z</time></trkpt><trkpt lat="-19.58106581861905" lon="121.34394686214513"><ele>37.5</ele><time>2026-04-24T03:41:32Z</time></trkpt><trkpt lat="-19.5808260927536" lon="121.34412020957916"><ele>37.0</ele><time>2026-04-24T03:41:33Z</time></trkpt><trkpt lat="-19.580585057430937" lon="121.34429236217028"><ele>36.0</ele><time>2026-04-24T03:41:34Z</time></trkpt><trkpt lat="-19.58034497655934" lon="121.34446348554636"><ele>35.0</ele><time>2026-04-24T03:41:35Z</time></trkpt><trkpt lat="-19.580103576839896" lon="121.34463555452584"><ele>35.0</ele><time>2026-04-24T03:41:36Z</time></trkpt><trkpt lat="-19.57986376297196" lon="121.34480718053244"><ele>35.0</ele><time>2026-04-24T03:41:37Z</time></trkpt><trkpt lat="-19.579626345675525" lon="121.34497866661331"><ele>34.0</ele><time>2026-04-24T03:41:38Z</time></trkpt><trkpt lat="-19.579391162853874" lon="121.34514773846229"><ele>33.0</ele><time>2026-04-24T03:41:39Z</time></trkpt><trkpt lat="-19.579156518784295" lon="121.34531408545207"><ele>33.0</ele><time>2026-04-24T03:41:40Z</time></trkpt><trkpt lat="-19.578922111434615" lon="121.34548311732095"><ele>33.0</ele><time>2026-04-24T03:41:41Z</time></trkpt><trkpt lat="-19.578688444085664" lon="121.34565425409917"><ele>33.0</ele><time>2026-04-24T03:41:42Z</time></trkpt><trkpt lat="-19.578452923586113" lon="121.34582542008516"><ele>33.0</ele><time>2026-04-24T03:41:43Z</time></trkpt><trkpt lat="-19.578214604993065" lon="121.34599526427183"><ele>33.0</ele><time>2026-04-24T03:41:44Z</time></trkpt><trkpt lat="-19.57797530922932" lon="121.34616337671727"><ele>33.0</ele><time>2026-04-24T03:41:45Z</time></trkpt><trkpt lat="-19.577737220964135" lon="121.34633372848164"><ele>34.0</ele><time>2026-04-24T03:41:46Z</time></trkpt><trkpt lat="-19.577496717634073" lon="121.34650754063298"><ele>35.0</ele><time>2026-04-24T03:41:47Z</time></trkpt><trkpt lat="-19.57725590625645" lon="121.34668351472018"><ele>35.0</ele><time>2026-04-24T03:41:48Z</time></trkpt><trkpt lat="-19.57701120859733" lon="121.34685985111975"><ele>35.0</ele><time>2026-04-24T03:41:49Z</time></trkpt><trkpt lat="-19.576766929177133" lon="121.34703497888172"><ele>35.5</ele><time>2026-04-24T03:41:50Z</time></trkpt><trkpt lat="-19.576522883459177" lon="121.34721109351352"><ele>36.0</ele><time>2026-04-24T03:41:51Z</time></trkpt><trkpt lat="-19.576279874417654" lon="121.34738534780664"><ele>35.5</ele><time>2026-04-24T03:41:52Z</time></trkpt><trkpt lat="-19.5760374526918" lon="121.34755970180134"><ele>35.0</ele><time>2026-04-24T03:41:53Z</time></trkpt><trkpt lat="-19.575795513034695" lon="121.34773317521625"><ele>35.0</ele><time>2026-04-24T03:41:54Z</time></trkpt><trkpt lat="-19.57555447176739" lon="121.34790581988965"><ele>35.0</ele><time>2026-04-24T03:41:55Z</time></trkpt><trkpt lat="-19.575314591564975" lon="121.3480767213018"><ele>35.0</ele><time>2026-04-24T03:41:56Z</time></trkpt><trkpt lat="-19.57507750073627" lon="121.34824719742451"><ele>35.0</ele><time>2026-04-24T03:41:57Z</time></trkpt><trkpt lat="-19.574839449086276" lon="121.34841679192711"><ele>35.0</ele><time>2026-04-24T03:41:58Z</time></trkpt><trkpt lat="-19.57460057521086" lon="121.3485877205516"><ele>35.0</ele><time>2026-04-24T03:41:59Z</time></trkpt><trkpt lat="-19.574361829610208" lon="121.34875859647971"><ele>35.5</ele><time>2026-04-24T03:42:00Z</time></trkpt><trkpt lat="-19.574123000830348" lon="121.3489309578529"><ele>36.0</ele><time>2026-04-24T03:42:01Z</time></trkpt><trkpt lat="-19.573884913831698" lon="121.34910215348374"><ele>36.5</ele><time>2026-04-24T03:42:02Z</time></trkpt><trkpt lat="-19.57364536476357" lon="121.34927469012811"><ele>37.0</ele><time>2026-04-24T03:42:03Z</time></trkpt><trkpt lat="-19.573400529859807" lon="121.34944991243472"><ele>37.0</ele><time>2026-04-24T03:42:04Z</time></trkpt><trkpt lat="-19.573162334050007" lon="121.34962024856637"><ele>37.0</ele><time>2026-04-24T03:42:05Z</time></trkpt><trkpt lat="-19.57293139755516" lon="121.34978481869452"><ele>38.5</ele><time>2026-04-24T03:42:06Z</time></trkpt><trkpt lat="-19.57269828007861" lon="121.34995165058928"><ele>40.0</ele><time>2026-04-24T03:42:07Z</time></trkpt><trkpt lat="-19.572462630490733" lon="121.35012067868696"><ele>40.0</ele><time>2026-04-24T03:42:08Z</time></trkpt><trkpt lat="-19.57222493947537" lon="121.35029183412081"><ele>40.0</ele><time>2026-04-24T03:42:09Z</time></trkpt><trkpt lat="-19.57198612616573" lon="121.35046148799856"><ele>39.0</ele><time>2026-04-24T03:42:10Z</time></trkpt><trkpt lat="-19.57174735056487" lon="121.35063296339025"><ele>38.0</ele><time>2026-04-24T03:42:11Z</time></trkpt><trkpt lat="-19.57150546082012" lon="121.35080580579191"><ele>38.0</ele><time>2026-04-24T03:42:12Z</time></trkpt><trkpt lat="-19.571263132836187" lon="121.35097790969213"><ele>38.0</ele><time>2026-04-24T03:42:13Z</time></trkpt><trkpt lat="-19.571021128315586" lon="121.3511503483857"><ele>37.0</ele><time>2026-04-24T03:42:14Z</time></trkpt><trkpt lat="-19.570781204296544" lon="121.35132260096219"><ele>36.0</ele><time>2026-04-24T03:42:15Z</time></trkpt><trkpt lat="-19.570542647119563" lon="121.35149469604626"><ele>36.5</ele><time>2026-04-24T03:42:16Z</time></trkpt><trkpt lat="-19.570305349449676" lon="121.35166776599215"><ele>37.0</ele><time>2026-04-24T03:42:17Z</time></trkpt><trkpt lat="-19.57006840167908" lon="121.35184690732343"><ele>37.0</ele><time>2026-04-24T03:42:18Z</time></trkpt><trkpt lat="-19.569833651519666" lon="121.35202482542468"><ele>37.0</ele><time>2026-04-24T03:42:19Z</time></trkpt><trkpt lat="-19.569592988425306" lon="121.35218377489686"><ele>36.5</ele><time>2026-04-24T03:42:20Z</time></trkpt><trkpt lat="-19.56937501781926" lon="121.35238207587832"><ele>36.0</ele><time>2026-04-24T03:42:21Z</time></trkpt><trkpt lat="-19.569149106810745" lon="121.35256943222625"><ele>36.0</ele><time>2026-04-24T03:42:22Z</time></trkpt><trkpt lat="-19.5689269480244" lon="121.3527604915142"><ele>36.0</ele><time>2026-04-24T03:42:23Z</time></trkpt><trkpt lat="-19.568706613854097" lon="121.35295297502782"><ele>37.5</ele><time>2026-04-24T03:42:24Z</time></trkpt><trkpt lat="-19.568488724716282" lon="121.35314654267115"><ele>39.0</ele><time>2026-04-24T03:42:25Z</time></trkpt><trkpt lat="-19.56827420211413" lon="121.35334153567553"><ele>39.0</ele><time>2026-04-24T03:42:26Z</time></trkpt><trkpt lat="-19.568065254337572" lon="121.35354303691034"><ele>39.0</ele><time>2026-04-24T03:42:27Z</time></trkpt><trkpt lat="-19.56786397003191" lon="121.35375231047357"><ele>38.5</ele><time>2026-04-24T03:42:28Z</time></trkpt><trkpt lat="-19.567667687023935" lon="121.35396478815355"><ele>38.0</ele><time>2026-04-24T03:42:29Z</time></trkpt><trkpt lat="-19.567472333315887" lon="121.3541791031648"><ele>38.0</ele><time>2026-04-24T03:42:30Z</time></trkpt><trkpt lat="-19.567277458337088" lon="121.35439897283733"><ele>38.0</ele><time>2026-04-24T03:42:31Z</time></trkpt><trkpt lat="-19.56708359519384" lon="121.35462458972191"><ele>38.0</ele><time>2026-04-24T03:42:32Z</time></trkpt><trkpt lat="-19.56689259227747" lon="121.3548539089178"><ele>38.0</ele><time>2026-04-24T03:42:33Z</time></trkpt><trkpt lat="-19.566703685213245" lon="121.35508587591788"><ele>38.0</ele><time>2026-04-24T03:42:34Z</time></trkpt><trkpt lat="-19.56651548718198" lon="121.35531662656737"><ele>38.0</ele><time>2026-04-24T03:42:35Z</time></trkpt><trkpt lat="-19.56632833810511" lon="121.35554843534223"><ele>38.5</ele><time>2026-04-24T03:42:36Z</time></trkpt><trkpt lat="-19.566138872531383" lon="121.35578358651698"><ele>39.0</ele><time>2026-04-24T03:42:37Z</time></trkpt><trkpt lat="-19.565947951501137" lon="121.35601672353879"><ele>39.0</ele><time>2026-04-24T03:42:38Z</time></trkpt><trkpt lat="-19.56575541369284" lon="121.3562503032801"><ele>39.0</ele><time>2026-04-24T03:42:39Z</time></trkpt><trkpt lat="-19.56556189975431" lon="121.3564838787722"><ele>38.0</ele><time>2026-04-24T03:42:40Z</time></trkpt><trkpt lat="-19.56536922482541" lon="121.35671852130554"><ele>37.0</ele><time>2026-04-24T03:42:41Z</time></trkpt><trkpt lat="-19.565178662327238" lon="121.35695339619421"><ele>37.0</ele><time>2026-04-24T03:42:42Z</time></trkpt><trkpt lat="-19.564985620814934" lon="121.3571904867918"><ele>37.0</ele><time>2026-04-24T03:42:43Z</time></trkpt><trkpt lat="-19.564791781995794" lon="121.35742910620263"><ele>37.0</ele><time>2026-04-24T03:42:44Z</time></trkpt><trkpt lat="-19.564598022007512" lon="121.35766779515431"><ele>37.0</ele><time>2026-04-24T03:42:45Z</time></trkpt><trkpt lat="-19.564403812030616" lon="121.35790723513395"><ele>37.0</ele><time>2026-04-24T03:42:46Z</time></trkpt><trkpt lat="-19.564208385763198" lon="121.35814750959571"><ele>37.0</ele><time>2026-04-24T03:42:47Z</time></trkpt><trkpt lat="-19.564011454589" lon="121.35838663572684"><ele>37.0</ele><time>2026-04-24T03:42:48Z</time></trkpt><trkpt lat="-19.56381321612042" lon="121.35862652666326"><ele>37.0</ele><time>2026-04-24T03:42:49Z</time></trkpt><trkpt lat="-19.56361631076127" lon="121.3588688362829"><ele>36.0</ele><time>2026-04-24T03:42:50Z</time></trkpt><trkpt lat="-19.56342031675892" lon="121.35911036582017"><ele>35.0</ele><time>2026-04-24T03:42:51Z</time></trkpt><trkpt lat="-19.56322107923753" lon="121.35935246836432"><ele>35.0</ele><time>2026-04-24T03:42:52Z</time></trkpt><trkpt lat="-19.563023562338543" lon="121.35959590781592"><ele>35.0</ele><time>2026-04-24T03:42:53Z</time></trkpt><trkpt lat="-19.562827089539027" lon="121.3598398423342"><ele>36.5</ele><time>2026-04-24T03:42:54Z</time></trkpt><trkpt lat="-19.562631154732244" lon="121.36008237572084"><ele>38.0</ele><time>2026-04-24T03:42:55Z</time></trkpt><trkpt lat="-19.56243427065939" lon="121.36032550849713"><ele>36.0</ele><time>2026-04-24T03:42:56Z</time></trkpt><trkpt lat="-19.562237124069206" lon="121.36056781466723"><ele>34.0</ele><time>2026-04-24T03:42:57Z</time></trkpt><trkpt lat="-19.562039035954832" lon="121.36081110837631"><ele>34.0</ele><time>2026-04-24T03:42:58Z</time></trkpt><trkpt lat="-19.561841212680314" lon="121.36105425694493"><ele>34.0</ele><time>2026-04-24T03:42:59Z</time></trkpt><trkpt lat="-19.561642648945412" lon="121.36129652933627"><ele>35.5</ele><time>2026-04-24T03:43:00Z</time></trkpt><trkpt lat="-19.561443985811295" lon="121.36153714532362"><ele>37.0</ele><time>2026-04-24T03:43:01Z</time></trkpt><trkpt lat="-19.561247086682823" lon="121.36177784197258"><ele>37.0</ele><time>2026-04-24T03:43:02Z</time></trkpt><trkpt lat="-19.56105091522381" lon="121.36202071627957"><ele>37.0</ele><time>2026-04-24T03:43:03Z</time></trkpt><trkpt lat="-19.560854412310704" lon="121.3622628647319"><ele>37.0</ele><time>2026-04-24T03:43:04Z</time></trkpt><trkpt lat="-19.560658249956514" lon="121.36250301723712"><ele>37.0</ele><time>2026-04-24T03:43:05Z</time></trkpt><trkpt lat="-19.56045830796603" lon="121.36274608162606"><ele>36.0</ele><time>2026-04-24T03:43:06Z</time></trkpt><trkpt lat="-19.56025742235669" lon="121.36298922503286"><ele>35.0</ele><time>2026-04-24T03:43:07Z</time></trkpt><trkpt lat="-19.56005735873143" lon="121.36323402502089"><ele>35.0</ele><time>2026-04-24T03:43:08Z</time></trkpt><trkpt lat="-19.5598581046523" lon="121.36348119872684"><ele>35.0</ele><time>2026-04-24T03:43:09Z</time></trkpt><trkpt lat="-19.559658079902352" lon="121.36373060926512"><ele>34.0</ele><time>2026-04-24T03:43:10Z</time></trkpt><trkpt lat="-19.559456819799717" lon="121.36398040245291"><ele>33.0</ele><time>2026-04-24T03:43:11Z</time></trkpt><trkpt lat="-19.55925516390577" lon="121.36422753117604"><ele>33.0</ele><time>2026-04-24T03:43:12Z</time></trkpt><trkpt lat="-19.559050476007112" lon="121.36447555040864"><ele>33.0</ele><time>2026-04-24T03:43:13Z</time></trkpt><trkpt lat="-19.558844556758938" lon="121.36472371810054"><ele>32.5</ele><time>2026-04-24T03:43:14Z</time></trkpt><trkpt lat="-19.558637456253425" lon="121.36497373061468"><ele>32.0</ele><time>2026-04-24T03:43:15Z</time></trkpt><trkpt lat="-19.558431776827508" lon="121.36522389224773"><ele>32.0</ele><time>2026-04-24T03:43:16Z</time></trkpt><trkpt lat="-19.55822518022622" lon="121.36547548071471"><ele>32.0</ele><time>2026-04-24T03:43:17Z</time></trkpt><trkpt lat="-19.55801992064485" lon="121.36572766325138"><ele>31.5</ele><time>2026-04-24T03:43:18Z</time></trkpt><trkpt lat="-19.557815833535415" lon="121.36597502906403"><ele>31.0</ele><time>2026-04-24T03:43:19Z</time></trkpt><trkpt lat="-19.55761186423456" lon="121.36622198091683"><ele>30.5</ele><time>2026-04-24T03:43:20Z</time></trkpt><trkpt lat="-19.557407176203146" lon="121.3664716436971"><ele>30.0</ele><time>2026-04-24T03:43:21Z</time></trkpt><trkpt lat="-19.55720653586498" lon="121.36671684717511"><ele>31.0</ele><time>2026-04-24T03:43:22Z</time></trkpt><trkpt lat="-19.557005399428437" lon="121.36696167767191"><ele>32.0</ele><time>2026-04-24T03:43:23Z</time></trkpt><trkpt lat="-19.556806922994607" lon="121.36720489499608"><ele>32.0</ele><time>2026-04-24T03:43:24Z</time></trkpt><trkpt lat="-19.556609882208875" lon="121.36744686510977"><ele>32.0</ele><time>2026-04-24T03:43:25Z</time></trkpt><trkpt lat="-19.556411473437386" lon="121.36768998077078"><ele>32.0</ele><time>2026-04-24T03:43:26Z</time></trkpt><trkpt lat="-19.556213918218656" lon="121.36793546772716"><ele>32.0</ele><time>2026-04-24T03:43:27Z</time></trkpt><trkpt lat="-19.556015962393605" lon="121.36818049949699"><ele>30.0</ele><time>2026-04-24T03:43:28Z</time></trkpt><trkpt lat="-19.555817371506844" lon="121.36842415460104"><ele>28.0</ele><time>2026-04-24T03:43:29Z</time></trkpt><trkpt lat="-19.55561870384081" lon="121.36866810889438"><ele>29.0</ele><time>2026-04-24T03:43:30Z</time></trkpt><trkpt lat="-19.555418633663336" lon="121.36891140085075"><ele>30.0</ele><time>2026-04-24T03:43:31Z</time></trkpt><trkpt lat="-19.5552167025343" lon="121.36915320177683"><ele>30.0</ele><time>2026-04-24T03:43:32Z</time></trkpt><trkpt lat="-19.55501667736074" lon="121.3693958263192"><ele>30.0</ele><time>2026-04-24T03:43:33Z</time></trkpt><trkpt lat="-19.554817480824155" lon="121.36964088098351"><ele>30.0</ele><time>2026-04-24T03:43:34Z</time></trkpt><trkpt lat="-19.55462204923194" lon="121.36988555546995"><ele>30.0</ele><time>2026-04-24T03:43:35Z</time></trkpt><trkpt lat="-19.554425275803105" lon="121.37012991185667"><ele>30.5</ele><time>2026-04-24T03:43:36Z</time></trkpt><trkpt lat="-19.55422871708386" lon="121.3703702637058"><ele>31.0</ele><time>2026-04-24T03:43:37Z</time></trkpt><trkpt lat="-19.554031540818393" lon="121.37060838158476"><ele>29.5</ele><time>2026-04-24T03:43:38Z</time></trkpt><trkpt lat="-19.553835397162786" lon="121.37084785094662"><ele>28.0</ele><time>2026-04-24T03:43:39Z</time></trkpt><trkpt lat="-19.553640844420027" lon="121.37108761677281"><ele>27.5</ele><time>2026-04-24T03:43:40Z</time></trkpt><trkpt lat="-19.55344662624523" lon="121.37132783075566"><ele>27.0</ele><time>2026-04-24T03:43:41Z</time></trkpt><trkpt lat="-19.553252496581017" lon="121.37156535968607"><ele>28.0</ele><time>2026-04-24T03:43:42Z</time></trkpt><trkpt lat="-19.55305786051369" lon="121.37180032666765"><ele>29.0</ele><time>2026-04-24T03:43:43Z</time></trkpt><trkpt lat="-19.55286546550822" lon="121.37203620268326"><ele>28.5</ele><time>2026-04-24T03:43:44Z</time></trkpt><trkpt lat="-19.552674026106335" lon="121.37227049829022"><ele>28.0</ele><time>2026-04-24T03:43:45Z</time></trkpt><trkpt lat="-19.552482423701175" lon="121.37250390844774"><ele>28.0</ele><time>2026-04-24T03:43:46Z</time></trkpt><trkpt lat="-19.552290159655556" lon="121.37273695803104"><ele>28.0</ele><time>2026-04-24T03:43:47Z</time></trkpt><trkpt lat="-19.552100058774624" lon="121.37296731235791"><ele>27.5</ele><time>2026-04-24T03:43:48Z</time></trkpt><trkpt lat="-19.55191388820657" lon="121.37319817798641"><ele>27.0</ele><time>2026-04-24T03:43:49Z</time></trkpt><trkpt lat="-19.55172764017825" lon="121.37343094266606"><ele>27.0</ele><time>2026-04-24T03:43:50Z</time></trkpt><trkpt lat="-19.551543663737796" lon="121.37366054541984"><ele>27.0</ele><time>2026-04-24T03:43:51Z</time></trkpt><trkpt lat="-19.551357453228054" lon="121.3738877329638"><ele>28.0</ele><time>2026-04-24T03:43:52Z</time></trkpt><trkpt lat="-19.551169681111272" lon="121.37411570685674"><ele>29.0</ele><time>2026-04-24T03:43:53Z</time></trkpt><trkpt lat="-19.550980528346592" lon="121.37434485677844"><ele>29.0</ele><time>2026-04-24T03:43:54Z</time></trkpt><trkpt lat="-19.550791233386416" lon="121.37457429872269"><ele>29.0</ele><time>2026-04-24T03:43:55Z</time></trkpt><trkpt lat="-19.550604206392915" lon="121.37480432905004"><ele>28.0</ele><time>2026-04-24T03:43:56Z</time></trkpt><trkpt lat="-19.550419078963152" lon="121.3750353012931"><ele>27.0</ele><time>2026-04-24T03:43:57Z</time></trkpt><trkpt lat="-19.550233029125277" lon="121.37526461568652"><ele>27.0</ele><time>2026-04-24T03:43:58Z</time></trkpt><trkpt lat="-19.550046004158506" lon="121.37549246849247"><ele>27.0</ele><time>2026-04-24T03:43:59Z</time></trkpt><trkpt lat="-19.549856779908694" lon="121.37571677497051"><ele>28.0</ele><time>2026-04-24T03:44:00Z</time></trkpt><trkpt lat="-19.549666993565015" lon="121.37594052416264"><ele>29.0</ele><time>2026-04-24T03:44:01Z</time></trkpt><trkpt lat="-19.54948153003049" lon="121.37616785346218"><ele>28.5</ele><time>2026-04-24T03:44:02Z</time></trkpt><trkpt lat="-19.54929803820527" lon="121.37639888065479"><ele>28.0</ele><time>2026-04-24T03:44:03Z</time></trkpt><trkpt lat="-19.549111498545837" lon="121.37662973334689"><ele>28.0</ele><time>2026-04-24T03:44:04Z</time></trkpt><trkpt lat="-19.54892529702664" lon="121.37686071245479"><ele>28.0</ele><time>2026-04-24T03:44:05Z</time></trkpt><trkpt lat="-19.548739778020686" lon="121.37708966074568"><ele>26.5</ele><time>2026-04-24T03:44:06Z</time></trkpt><trkpt lat="-19.548552764956984" lon="121.37731899432004"><ele>25.0</ele><time>2026-04-24T03:44:07Z</time></trkpt><trkpt lat="-19.548363094143628" lon="121.37754660201534"><ele>25.0</ele><time>2026-04-24T03:44:08Z</time></trkpt><trkpt lat="-19.548173414048975" lon="121.37777577109422"><ele>25.0</ele><time>2026-04-24T03:44:09Z</time></trkpt><trkpt lat="-19.547985252131525" lon="121.378006072562"><ele>25.0</ele><time>2026-04-24T03:44:10Z</time></trkpt><trkpt lat="-19.547796838251163" lon="121.37823789714378"><ele>25.0</ele><time>2026-04-24T03:44:11Z</time></trkpt><trkpt lat="-19.547608844365655" lon="121.37847045707959"><ele>25.0</ele><time>2026-04-24T03:44:12Z</time></trkpt><trkpt lat="-19.547422573788058" lon="121.37870326488985"><ele>25.0</ele><time>2026-04-24T03:44:13Z</time></trkpt><trkpt lat="-19.547238234765608" lon="121.37893693792962"><ele>25.5</ele><time>2026-04-24T03:44:14Z</time></trkpt><trkpt lat="-19.547052139354665" lon="121.37916835974883"><ele>26.0</ele><time>2026-04-24T03:44:15Z</time></trkpt><trkpt lat="-19.546864280027886" lon="121.3793952580081"><ele>26.0</ele><time>2026-04-24T03:44:16Z</time></trkpt><trkpt lat="-19.54667684599548" lon="121.37962330120641"><ele>26.0</ele><time>2026-04-24T03:44:17Z</time></trkpt><trkpt lat="-19.546488298015113" lon="121.3798551366664"><ele>25.5</ele><time>2026-04-24T03:44:18Z</time></trkpt><trkpt lat="-19.546298882141418" lon="121.38008680546508"><ele>25.0</ele><time>2026-04-24T03:44:19Z</time></trkpt><trkpt lat="-19.54611065118686" lon="121.38031846193745"><ele>26.0</ele><time>2026-04-24T03:44:20Z</time></trkpt><trkpt lat="-19.545920716630498" lon="121.38054756357555"><ele>27.0</ele><time>2026-04-24T03:44:21Z</time></trkpt><trkpt lat="-19.54573094060079" lon="121.38077873321595"><ele>27.0</ele><time>2026-04-24T03:44:22Z</time></trkpt><trkpt lat="-19.545539500354835" lon="121.38101104905684"><ele>27.0</ele><time>2026-04-24T03:44:23Z</time></trkpt><trkpt lat="-19.545346992586296" lon="121.38124600010964"><ele>25.5</ele><time>2026-04-24T03:44:24Z</time></trkpt><trkpt lat="-19.54515415449721" lon="121.38148064965763"><ele>24.0</ele><time>2026-04-24T03:44:25Z</time></trkpt><trkpt lat="-19.544961169299228" lon="121.381715245924"><ele>24.0</ele><time>2026-04-24T03:44:26Z</time></trkpt><trkpt lat="-19.54476954470374" lon="121.38195134912682"><ele>24.0</ele><time>2026-04-24T03:44:27Z</time></trkpt><trkpt lat="-19.544576973732937" lon="121.38219146825462"><ele>26.0</ele><time>2026-04-24T03:44:28Z</time></trkpt><trkpt lat="-19.544383079581156" lon="121.38242920073117"><ele>28.0</ele><time>2026-04-24T03:44:29Z</time></trkpt><trkpt lat="-19.544187993137918" lon="121.38266654742594"><ele>28.0</ele><time>2026-04-24T03:44:30Z</time></trkpt><trkpt lat="-19.543992613854357" lon="121.38290417375465"><ele>28.0</ele><time>2026-04-24T03:44:31Z</time></trkpt><trkpt lat="-19.54379718713602" lon="121.38314184707676"><ele>27.0</ele><time>2026-04-24T03:44:32Z</time></trkpt><trkpt lat="-19.543601192833485" lon="121.3833780063473"><ele>26.0</ele><time>2026-04-24T03:44:33Z</time></trkpt><trkpt lat="-19.543406077076785" lon="121.38361434045443"><ele>25.0</ele><time>2026-04-24T03:44:34Z</time></trkpt><trkpt lat="-19.543213752037303" lon="121.38384878681909"><ele>24.0</ele><time>2026-04-24T03:44:35Z</time></trkpt><trkpt lat="-19.543024310452957" lon="121.38408289654207"><ele>26.0</ele><time>2026-04-24T03:44:36Z</time></trkpt><trkpt lat="-19.542834983821333" lon="121.3843172018997"><ele>28.0</ele><time>2026-04-24T03:44:37Z</time></trkpt><trkpt lat="-19.542646909172863" lon="121.38454749320276"><ele>28.5</ele><time>2026-04-24T03:44:38Z</time></trkpt><trkpt lat="-19.54245716717582" lon="121.3847768209682"><ele>29.0</ele><time>2026-04-24T03:44:39Z</time></trkpt><trkpt lat="-19.542269333235495" lon="121.3850060400837"><ele>29.0</ele><time>2026-04-24T03:44:40Z</time></trkpt><trkpt lat="-19.542084963531146" lon="121.38523221444694"><ele>29.0</ele><time>2026-04-24T03:44:41Z</time></trkpt><trkpt lat="-19.54190135821406" lon="121.38545813143318"><ele>28.5</ele><time>2026-04-24T03:44:42Z</time></trkpt><trkpt lat="-19.54171764950584" lon="121.38568445020414"><ele>28.0</ele><time>2026-04-24T03:44:43Z</time></trkpt><trkpt lat="-19.541534411599816" lon="121.38591228400854"><ele>28.0</ele><time>2026-04-24T03:44:44Z</time></trkpt><trkpt lat="-19.541351031505613" lon="121.38614216333158"><ele>28.0</ele><time>2026-04-24T03:44:45Z</time></trkpt><trkpt lat="-19.541168969876292" lon="121.3863715614677"><ele>28.5</ele><time>2026-04-24T03:44:46Z</time></trkpt><trkpt lat="-19.540988052030077" lon="121.38660036095655"><ele>29.0</ele><time>2026-04-24T03:44:47Z</time></trkpt><trkpt lat="-19.54080581164594" lon="121.3868253672232"><ele>29.0</ele><time>2026-04-24T03:44:48Z</time></trkpt><trkpt lat="-19.540619377426214" lon="121.38705009399523"><ele>29.0</ele><time>2026-04-24T03:44:49Z</time></trkpt><trkpt lat="-19.540427564818152" lon="121.38727905561372"><ele>29.0</ele><time>2026-04-24T03:44:50Z</time></trkpt><trkpt lat="-19.54023699993189" lon="121.38750702286434"><ele>29.0</ele><time>2026-04-24T03:44:51Z</time></trkpt><trkpt lat="-19.5400457572481" lon="121.38773404830125"><ele>29.0</ele><time>2026-04-24T03:44:52Z</time></trkpt><trkpt lat="-19.53985749643344" lon="121.38795993573886"><ele>29.0</ele><time>2026-04-24T03:44:53Z</time></trkpt><trkpt lat="-19.539673017725875" lon="121.38818608668414"><ele>29.0</ele><time>2026-04-24T03:44:54Z</time></trkpt><trkpt lat="-19.539489498053513" lon="121.38841183598115"><ele>29.0</ele><time>2026-04-24T03:44:55Z</time></trkpt><trkpt lat="-19.539304280009834" lon="121.38863324586916"><ele>29.0</ele><time>2026-04-24T03:44:56Z</time></trkpt><trkpt lat="-19.53912089737176" lon="121.38884654351698"><ele>29.0</ele><time>2026-04-24T03:44:57Z</time></trkpt><trkpt lat="-19.53893519120431" lon="121.38905157321956"><ele>29.0</ele><time>2026-04-24T03:44:58Z</time></trkpt><trkpt lat="-19.538745172197142" lon="121.38924946349238"><ele>29.0</ele><time>2026-04-24T03:44:59Z</time></trkpt><trkpt lat="-19.538552439418403" lon="121.38944656644206"><ele>29.0</ele><time>2026-04-24T03:45:00Z</time></trkpt><trkpt lat="-19.5383580846437" lon="121.38964243082633"><ele>29.0</ele><time>2026-04-24T03:45:01Z</time></trkpt><trkpt lat="-19.53815935194321" lon="121.38983881826695"><ele>29.0</ele><time>2026-04-24T03:45:02Z</time></trkpt><trkpt lat="-19.537956464013934" lon="121.39003578560983"><ele>29.0</ele><time>2026-04-24T03:45:03Z</time></trkpt><trkpt lat="-19.537748974755015" lon="121.39023321068568"><ele>29.0</ele><time>2026-04-24T03:45:04Z</time></trkpt><trkpt lat="-19.53753754218426" lon="121.39042897285266"><ele>29.0</ele><time>2026-04-24T03:45:05Z</time></trkpt><trkpt lat="-19.53732221452039" lon="121.39062532936448"><ele>29.5</ele><time>2026-04-24T03:45:06Z</time></trkpt><trkpt lat="-19.53710830987944" lon="121.39082192451949"><ele>30.0</ele><time>2026-04-24T03:45:07Z</time></trkpt><trkpt lat="-19.536893039023802" lon="121.39102072844047"><ele>30.0</ele><time>2026-04-24T03:45:08Z</time></trkpt><trkpt lat="-19.53667673416062" lon="121.3912251311971"><ele>30.0</ele><time>2026-04-24T03:45:09Z</time></trkpt><trkpt lat="-19.53646035738599" lon="121.39142861618159"><ele>30.0</ele><time>2026-04-24T03:45:10Z</time></trkpt><trkpt lat="-19.536244054305847" lon="121.39162933619095"><ele>30.0</ele><time>2026-04-24T03:45:11Z</time></trkpt><trkpt lat="-19.536029696929138" lon="121.3918276754501"><ele>30.0</ele><time>2026-04-24T03:45:12Z</time></trkpt><trkpt lat="-19.535812666422608" lon="121.39202428378307"><ele>30.0</ele><time>2026-04-24T03:45:13.001Z</time></trkpt><trkpt lat="-19.53559598805653" lon="121.39222426199895"><ele>29.0</ele><time>2026-04-24T03:45:14.001Z</time></trkpt><trkpt lat="-19.5353787327531" lon="121.39242523518082"><ele>28.0</ele><time>2026-04-24T03:45:15.001Z</time></trkpt><trkpt lat="-19.535161549084457" lon="121.3926293721097"><ele>28.0</ele><time>2026-04-24T03:45:16.001Z</time></trkpt><trkpt lat="-19.534940565041072" lon="121.39283807130185"><ele>28.0</ele><time>2026-04-24T03:45:17.001Z</time></trkpt><trkpt lat="-19.53471947405103" lon="121.3930472031809"><ele>27.5</ele><time>2026-04-24T03:45:18.001Z</time></trkpt><trkpt lat="-19.53449642773485" lon="121.39325834040125"><ele>27.0</ele><time>2026-04-24T03:45:19.001Z</time></trkpt><trkpt lat="-19.53427045611313" lon="121.39346468710936"><ele>27.0</ele><time>2026-04-24T03:45:20.001Z</time></trkpt><trkpt lat="-19.534040935133362" lon="121.39366902434433"><ele>27.0</ele><time>2026-04-24T03:45:21.001Z</time></trkpt><trkpt lat="-19.53381588621725" lon="121.39387071288175"><ele>28.0</ele><time>2026-04-24T03:45:22.001Z</time></trkpt><trkpt lat="-19.533595459690336" lon="121.39407266712789"><ele>29.0</ele><time>2026-04-24T03:45:23.001Z</time></trkpt><trkpt lat="-19.53337794757095" lon="121.39427267067856"><ele>29.0</ele><time>2026-04-24T03:45:24.001Z</time></trkpt><trkpt lat="-19.533163247763287" lon="121.39447019464679"><ele>29.0</ele><time>2026-04-24T03:45:25.001Z</time></trkpt><trkpt lat="-19.53295257142339" lon="121.39466725370255"><ele>29.0</ele><time>2026-04-24T03:45:26.001Z</time></trkpt><trkpt lat="-19.532745845819253" lon="121.39485954412889"><ele>29.0</ele><time>2026-04-24T03:45:27.001Z</time></trkpt><trkpt lat="-19.5325382175734" lon="121.39504731198521"><ele>29.0</ele><time>2026-04-24T03:45:28.001Z</time></trkpt><trkpt lat="-19.532336855254464" lon="121.39523051132686"><ele>29.0</ele><time>2026-04-24T03:45:29.001Z</time></trkpt><trkpt lat="-19.53213876189393" lon="121.39541317725786"><ele>28.0</ele><time>2026-04-24T03:45:30.001Z</time></trkpt><trkpt lat="-19.531942614957554" lon="121.39560287987752"><ele>27.0</ele><time>2026-04-24T03:45:31.001Z</time></trkpt><trkpt lat="-19.531745873515227" lon="121.39579426198642"><ele>27.0</ele><time>2026-04-24T03:45:32.001Z</time></trkpt><trkpt lat="-19.53154835138519" lon="121.39598751674417"><ele>27.0</ele><time>2026-04-24T03:45:33.001Z</time></trkpt><trkpt lat="-19.531344065280976" lon="121.39617467005311"><ele>27.0</ele><time>2026-04-24T03:45:34.001Z</time></trkpt><trkpt lat="-19.531133601476377" lon="121.39636238967474"><ele>27.0</ele><time>2026-04-24T03:45:35.001Z</time></trkpt><trkpt lat="-19.5309191520334" lon="121.39655413927633"><ele>27.0</ele><time>2026-04-24T03:45:36.001Z</time></trkpt><trkpt lat="-19.53070452220039" lon="121.39674971078405"><ele>27.0</ele><time>2026-04-24T03:45:37.001Z</time></trkpt><trkpt lat="-19.53048867221385" lon="121.39694877861177"><ele>27.0</ele><time>2026-04-24T03:45:38.001Z</time></trkpt><trkpt lat="-19.53027224176441" lon="121.39714890415706"><ele>27.0</ele><time>2026-04-24T03:45:39.001Z</time></trkpt><trkpt lat="-19.53005492414439" lon="121.39734978631037"><ele>26.5</ele><time>2026-04-24T03:45:40.001Z</time></trkpt><trkpt lat="-19.52983670567258" lon="121.39755232777014"><ele>26.0</ele><time>2026-04-24T03:45:41.001Z</time></trkpt><trkpt lat="-19.529617553164144" lon="121.3977551247575"><ele>26.0</ele><time>2026-04-24T03:45:42.001Z</time></trkpt><trkpt lat="-19.529396996968206" lon="121.39795849575583"><ele>26.0</ele><time>2026-04-24T03:45:43.001Z</time></trkpt><trkpt lat="-19.529178093966046" lon="121.39816107498105"><ele>26.5</ele><time>2026-04-24T03:45:44.001Z</time></trkpt><trkpt lat="-19.528962115250348" lon="121.39836446740378"><ele>27.0</ele><time>2026-04-24T03:45:45.001Z</time></trkpt><trkpt lat="-19.528746043987994" lon="121.39856805896025"><ele>26.5</ele><time>2026-04-24T03:45:46.001Z</time></trkpt><trkpt lat="-19.528525221960237" lon="121.39877250709714"><ele>26.0</ele><time>2026-04-24T03:45:47.001Z</time></trkpt><trkpt lat="-19.528301699185928" lon="121.39897428792398"><ele>26.5</ele><time>2026-04-24T03:45:48.001Z</time></trkpt><trkpt lat="-19.52808245845699" lon="121.39917306624369"><ele>27.0</ele><time>2026-04-24T03:45:49.001Z</time></trkpt><trkpt lat="-19.52787842216958" lon="121.39935902313451"><ele>27.0</ele><time>2026-04-24T03:45:50.001Z</time></trkpt><trkpt lat="-19.527677926428254" lon="121.39954266871669"><ele>27.0</ele><time>2026-04-24T03:45:51.001Z</time></trkpt><trkpt lat="-19.527473054628263" lon="121.39973176777046"><ele>27.5</ele><time>2026-04-24T03:45:52.001Z</time></trkpt><trkpt lat="-19.527265016419626" lon="121.39992387457583"><ele>28.0</ele><time>2026-04-24T03:45:53.001Z</time></trkpt><trkpt lat="-19.527055355880226" lon="121.40011503535212"><ele>28.0</ele><time>2026-04-24T03:45:54.001Z</time></trkpt><trkpt lat="-19.52684766156662" lon="121.40030480443002"><ele>28.0</ele><time>2026-04-24T03:45:55.001Z</time></trkpt><trkpt lat="-19.526643842190637" lon="121.40049533392539"><ele>27.0</ele><time>2026-04-24T03:45:56.001Z</time></trkpt><trkpt lat="-19.526439939399054" lon="121.40068611264309"><ele>26.0</ele><time>2026-04-24T03:45:57.001Z</time></trkpt><trkpt lat="-19.52623323494129" lon="121.40088147181834"><ele>26.0</ele><time>2026-04-24T03:45:58.001Z</time></trkpt><trkpt lat="-19.526020622865154" lon="121.40107961687526"><ele>26.0</ele><time>2026-04-24T03:45:59.001Z</time></trkpt><trkpt lat="-19.525806142783914" lon="121.40128032858868"><ele>26.5</ele><time>2026-04-24T03:46:00.001Z</time></trkpt><trkpt lat="-19.52559115695001" lon="121.40148103637286"><ele>27.0</ele><time>2026-04-24T03:46:01.001Z</time></trkpt><trkpt lat="-19.525373329803262" lon="121.40168253857009"><ele>27.0</ele><time>2026-04-24T03:46:02.001Z</time></trkpt><trkpt lat="-19.525154650705407" lon="121.4018856956607"><ele>27.0</ele><time>2026-04-24T03:46:03.001Z</time></trkpt><trkpt lat="-19.524936689640107" lon="121.40209001251047"><ele>26.5</ele><time>2026-04-24T03:46:04.001Z</time></trkpt><trkpt lat="-19.524716850937484" lon="121.4022949335489"><ele>26.0</ele><time>2026-04-24T03:46:05.001Z</time></trkpt><trkpt lat="-19.524496593039096" lon="121.40249756315193"><ele>26.0</ele><time>2026-04-24T03:46:06.001Z</time></trkpt><trkpt lat="-19.524273233103738" lon="121.40270273758982"><ele>26.0</ele><time>2026-04-24T03:46:07.001Z</time></trkpt><trkpt lat="-19.52404819179354" lon="121.40290766540208"><ele>25.5</ele><time>2026-04-24T03:46:08.001Z</time></trkpt><trkpt lat="-19.523822572977963" lon="121.40311602354326"><ele>25.0</ele><time>2026-04-24T03:46:09.001Z</time></trkpt><trkpt lat="-19.52359658678948" lon="121.4033240144806"><ele>25.0</ele><time>2026-04-24T03:46:10.001Z</time></trkpt><trkpt lat="-19.523373144358445" lon="121.40353192506028"><ele>25.0</ele><time>2026-04-24T03:46:11.001Z</time></trkpt><trkpt lat="-19.523148619477748" lon="121.40374017060425"><ele>25.0</ele><time>2026-04-24T03:46:12.001Z</time></trkpt><trkpt lat="-19.522927266511058" lon="121.4039498827192"><ele>25.0</ele><time>2026-04-24T03:46:13.001Z</time></trkpt><trkpt lat="-19.52270523589289" lon="121.40415729590612"><ele>25.5</ele><time>2026-04-24T03:46:14.001Z</time></trkpt><trkpt lat="-19.522483128890887" lon="121.40436140179199"><ele>26.0</ele><time>2026-04-24T03:46:15.001Z</time></trkpt><trkpt lat="-19.522260191609554" lon="121.40456236427536"><ele>24.0</ele><time>2026-04-24T03:46:16.001Z</time></trkpt><trkpt lat="-19.522037762218158" lon="121.40476405869023"><ele>22.0</ele><time>2026-04-24T03:46:17.001Z</time></trkpt><trkpt lat="-19.52181851217672" lon="121.40496675384942"><ele>22.0</ele><time>2026-04-24T03:46:18.001Z</time></trkpt><trkpt lat="-19.5216017332945" lon="121.40516656359327"><ele>22.0</ele><time>2026-04-24T03:46:19.001Z</time></trkpt><trkpt lat="-19.521385179817802" lon="121.40536592057417"><ele>22.5</ele><time>2026-04-24T03:46:20.001Z</time></trkpt><trkpt lat="-19.52117096068326" lon="121.40556351329771"><ele>23.0</ele><time>2026-04-24T03:46:21.001Z</time></trkpt><trkpt lat="-19.520959013486" lon="121.4057616877614"><ele>23.0</ele><time>2026-04-24T03:46:22.001Z</time></trkpt><trkpt lat="-19.520743910825725" lon="121.4059583365395"><ele>23.0</ele><time>2026-04-24T03:46:23.001Z</time></trkpt><trkpt lat="-19.520529482813945" lon="121.4061570899104"><ele>23.0</ele><time>2026-04-24T03:46:24.001Z</time></trkpt><trkpt lat="-19.52031468864819" lon="121.4063560406299"><ele>23.0</ele><time>2026-04-24T03:46:25.001Z</time></trkpt><trkpt lat="-19.520099511031084" lon="121.406554980502"><ele>23.0</ele><time>2026-04-24T03:46:26.001Z</time></trkpt><trkpt lat="-19.519882680227006" lon="121.40675680896943"><ele>23.0</ele><time>2026-04-24T03:46:27.001Z</time></trkpt><trkpt lat="-19.51966474573537" lon="121.40695930075279"><ele>23.0</ele><time>2026-04-24T03:46:28.001Z</time></trkpt><trkpt lat="-19.519445468848318" lon="121.40716339516617"><ele>23.0</ele><time>2026-04-24T03:46:29.001Z</time></trkpt><trkpt lat="-19.519224896046566" lon="121.40736655894554"><ele>23.0</ele><time>2026-04-24T03:46:30.001Z</time></trkpt><trkpt lat="-19.519003374310472" lon="121.40756806312496"><ele>23.0</ele><time>2026-04-24T03:46:31.001Z</time></trkpt><trkpt lat="-19.518783463510054" lon="121.4077695957561"><ele>23.0</ele><time>2026-04-24T03:46:32.001Z</time></trkpt><trkpt lat="-19.518565786458424" lon="121.4079716531685"><ele>23.0</ele><time>2026-04-24T03:46:33.001Z</time></trkpt><trkpt lat="-19.5183469396583" lon="121.40817365502281"><ele>23.5</ele><time>2026-04-24T03:46:34.001Z</time></trkpt><trkpt lat="-19.51813150115691" lon="121.4083730769379"><ele>24.0</ele><time>2026-04-24T03:46:35.001Z</time></trkpt><trkpt lat="-19.517919846931647" lon="121.40856927146571"><ele>23.5</ele><time>2026-04-24T03:46:36.001Z</time></trkpt><trkpt lat="-19.5177062938525" lon="121.40876375486751"><ele>23.0</ele><time>2026-04-24T03:46:37.001Z</time></trkpt><trkpt lat="-19.517496312240745" lon="121.4089557509733"><ele>23.0</ele><time>2026-04-24T03:46:38.001Z</time></trkpt><trkpt lat="-19.51728883829127" lon="121.40914939113009"><ele>23.0</ele><time>2026-04-24T03:46:39.001Z</time></trkpt><trkpt lat="-19.517080099123852" lon="121.4093413489817"><ele>23.0</ele><time>2026-04-24T03:46:40.001Z</time></trkpt><trkpt lat="-19.516871217147024" lon="121.40953413408727"><ele>23.0</ele><time>2026-04-24T03:46:41.001Z</time></trkpt><trkpt lat="-19.516660628880896" lon="121.4097287931684"><ele>24.0</ele><time>2026-04-24T03:46:42.001Z</time></trkpt><trkpt lat="-19.516452914807786" lon="121.40992325413164"><ele>25.0</ele><time>2026-04-24T03:46:43.001Z</time></trkpt><trkpt lat="-19.516245061061724" lon="121.41011758402837"><ele>24.5</ele><time>2026-04-24T03:46:44.001Z</time></trkpt><trkpt lat="-19.516035429931303" lon="121.41031130169766"><ele>24.0</ele><time>2026-04-24T03:46:45.001Z</time></trkpt><trkpt lat="-19.515823440562812" lon="121.41050294104863"><ele>24.0</ele><time>2026-04-24T03:46:46.001Z</time></trkpt><trkpt lat="-19.515613384136905" lon="121.41069555405029"><ele>24.0</ele><time>2026-04-24T03:46:47.001Z</time></trkpt><trkpt lat="-19.515409854240396" lon="121.41088374530099"><ele>23.5</ele><time>2026-04-24T03:46:48.001Z</time></trkpt><trkpt lat="-19.515206923846442" lon="121.41107159472215"><ele>23.0</ele><time>2026-04-24T03:46:49.001Z</time></trkpt><trkpt lat="-19.51500490974881" lon="121.41125874300057"><ele>23.0</ele><time>2026-04-24T03:46:50.001Z</time></trkpt><trkpt lat="-19.514801257086834" lon="121.41144804685034"><ele>23.0</ele><time>2026-04-24T03:46:51.001Z</time></trkpt><trkpt lat="-19.514594912874543" lon="121.41164069187722"><ele>22.0</ele><time>2026-04-24T03:46:52.001Z</time></trkpt><trkpt lat="-19.514385982593954" lon="121.41183372952467"><ele>21.0</ele><time>2026-04-24T03:46:53.001Z</time></trkpt><trkpt lat="-19.51417628760925" lon="121.41202736661147"><ele>22.5</ele><time>2026-04-24T03:46:54.001Z</time></trkpt><trkpt lat="-19.513964658180495" lon="121.41222427813342"><ele>24.0</ele><time>2026-04-24T03:46:55.001Z</time></trkpt><trkpt lat="-19.51375292939076" lon="121.41242424544032"><ele>23.5</ele><time>2026-04-24T03:46:56.001Z</time></trkpt><trkpt lat="-19.513540636040066" lon="121.41262453680089"><ele>23.0</ele><time>2026-04-24T03:46:57Z</time></trkpt><trkpt lat="-19.51332512987647" lon="121.41282280234056"><ele>23.5</ele><time>2026-04-24T03:46:58Z</time></trkpt><trkpt lat="-19.513108115532653" lon="121.41302082107053"><ele>24.0</ele><time>2026-04-24T03:46:59Z</time></trkpt><trkpt lat="-19.512890077118207" lon="121.41321804512543"><ele>24.0</ele><time>2026-04-24T03:47:00Z</time></trkpt><trkpt lat="-19.51267386128335" lon="121.41341664914385"><ele>24.0</ele><time>2026-04-24T03:47:01Z</time></trkpt><trkpt lat="-19.512456208014882" lon="121.4136159638863"><ele>24.0</ele><time>2026-04-24T03:47:02Z</time></trkpt><trkpt lat="-19.512238879602737" lon="121.4138114217392"><ele>24.0</ele><time>2026-04-24T03:47:03Z</time></trkpt><trkpt lat="-19.51202311354336" lon="121.41400847001425"><ele>24.0</ele><time>2026-04-24T03:47:04Z</time></trkpt><trkpt lat="-19.511809162523203" lon="121.41420805891212"><ele>24.0</ele><time>2026-04-24T03:47:05Z</time></trkpt><trkpt lat="-19.51159537154049" lon="121.41440989599728"><ele>24.0</ele><time>2026-04-24T03:47:06Z</time></trkpt><trkpt lat="-19.51138232410716" lon="121.41461047793963"><ele>24.0</ele><time>2026-04-24T03:47:07Z</time></trkpt><trkpt lat="-19.51116860186984" lon="121.41481185127464"><ele>25.0</ele><time>2026-04-24T03:47:08Z</time></trkpt><trkpt lat="-19.510954562915877" lon="121.41501193537187"><ele>26.0</ele><time>2026-04-24T03:47:09Z</time></trkpt><trkpt lat="-19.51073896689063" lon="121.415210648938"><ele>22.0</ele><time>2026-04-24T03:47:10Z</time></trkpt><trkpt lat="-19.51030379579971" lon="121.41561233246351"><ele>22.0</ele><time>2026-04-24T03:47:12Z</time></trkpt><trkpt lat="-19.510088583338078" lon="121.4158134513893"><ele>22.0</ele><time>2026-04-24T03:47:13Z</time></trkpt><trkpt lat="-19.509873666423033" lon="121.41601405479861"><ele>22.0</ele><time>2026-04-24T03:47:14Z</time></trkpt><trkpt lat="-19.50965999896464" lon="121.41621398469815"><ele>22.0</ele><time>2026-04-24T03:47:15Z</time></trkpt><trkpt lat="-19.509445789440512" lon="121.41641033019731"><ele>24.0</ele><time>2026-04-24T03:47:16Z</time></trkpt><trkpt lat="-19.5092304652107" lon="121.41660596732044"><ele>26.0</ele><time>2026-04-24T03:47:17Z</time></trkpt><trkpt lat="-19.509016638939087" lon="121.41680069346027"><ele>26.0</ele><time>2026-04-24T03:47:18Z</time></trkpt><trkpt lat="-19.508802765641022" lon="121.41699661010912"><ele>26.0</ele><time>2026-04-24T03:47:19Z</time></trkpt><trkpt lat="-19.508590503823665" lon="121.41719435737983"><ele>25.0</ele><time>2026-04-24T03:47:20Z</time></trkpt><trkpt lat="-19.50837777387234" lon="121.41739161239076"><ele>24.0</ele><time>2026-04-24T03:47:21Z</time></trkpt><trkpt lat="-19.508164710649865" lon="121.41758804364368"><ele>24.0</ele><time>2026-04-24T03:47:22Z</time></trkpt><trkpt lat="-19.507952462332828" lon="121.41778303680503"><ele>24.0</ele><time>2026-04-24T03:47:23Z</time></trkpt><trkpt lat="-19.507739301977377" lon="121.41797616489002"><ele>24.0</ele><time>2026-04-24T03:47:24Z</time></trkpt><trkpt lat="-19.507526035629294" lon="121.41817037852259"><ele>24.0</ele><time>2026-04-24T03:47:25Z</time></trkpt><trkpt lat="-19.507315274472248" lon="121.4183670215154"><ele>24.0</ele><time>2026-04-24T03:47:26Z</time></trkpt><trkpt lat="-19.507106759048426" lon="121.4185651003295"><ele>24.0</ele><time>2026-04-24T03:47:27Z</time></trkpt><trkpt lat="-19.50689873517389" lon="121.41876298778232"><ele>24.0</ele><time>2026-04-24T03:47:28Z</time></trkpt><trkpt lat="-19.506692011062313" lon="121.41895837933367"><ele>24.0</ele><time>2026-04-24T03:47:29Z</time></trkpt><trkpt lat="-19.506481091992267" lon="121.41915656702692"><ele>24.0</ele><time>2026-04-24T03:47:30Z</time></trkpt><trkpt lat="-19.506267057976025" lon="121.41935427859687"><ele>24.0</ele><time>2026-04-24T03:47:31Z</time></trkpt><trkpt lat="-19.506055747057047" lon="121.41955291955178"><ele>25.5</ele><time>2026-04-24T03:47:32Z</time></trkpt><trkpt lat="-19.50584758595793" lon="121.41975525768956"><ele>27.0</ele><time>2026-04-24T03:47:33Z</time></trkpt><trkpt lat="-19.505641033332793" lon="121.41996366237306"><ele>27.0</ele><time>2026-04-24T03:47:34Z</time></trkpt><trkpt lat="-19.505437187841807" lon="121.42017590917159"><ele>27.0</ele><time>2026-04-24T03:47:35Z</time></trkpt><trkpt lat="-19.505238859106896" lon="121.42039532615355"><ele>27.0</ele><time>2026-04-24T03:47:36Z</time></trkpt><trkpt lat="-19.50504259220173" lon="121.42062068351704"><ele>27.0</ele><time>2026-04-24T03:47:37Z</time></trkpt><trkpt lat="-19.504847015097926" lon="121.42084738290951"><ele>27.0</ele><time>2026-04-24T03:47:38Z</time></trkpt><trkpt lat="-19.50465008481521" lon="121.42107601664658"><ele>27.0</ele><time>2026-04-24T03:47:39Z</time></trkpt><trkpt lat="-19.504454274101136" lon="121.4213079422903"><ele>27.0</ele><time>2026-04-24T03:47:40Z</time></trkpt><trkpt lat="-19.504258287650064" lon="121.4215429406538"><ele>27.0</ele><time>2026-04-24T03:47:41Z</time></trkpt><trkpt lat="-19.504066002489715" lon="121.42177765290832"><ele>27.0</ele><time>2026-04-24T03:47:42Z</time></trkpt><trkpt lat="-19.503876107348972" lon="121.42201066137895"><ele>27.0</ele><time>2026-04-24T03:47:43Z</time></trkpt><trkpt lat="-19.503683881409017" lon="121.4222433602631"><ele>27.5</ele><time>2026-04-24T03:47:44Z</time></trkpt><trkpt lat="-19.50349285288491" lon="121.42247400827134"><ele>28.0</ele><time>2026-04-24T03:47:45Z</time></trkpt><trkpt lat="-19.503300015262504" lon="121.4227095157876"><ele>28.0</ele><time>2026-04-24T03:47:46Z</time></trkpt><trkpt lat="-19.50311322947286" lon="121.42294384930437"><ele>28.0</ele><time>2026-04-24T03:47:47Z</time></trkpt><trkpt lat="-19.50292416121381" lon="121.42317579181734"><ele>27.5</ele><time>2026-04-24T03:47:48Z</time></trkpt><trkpt lat="-19.502733283114495" lon="121.42340643240772"><ele>27.0</ele><time>2026-04-24T03:47:49Z</time></trkpt><trkpt lat="-19.502542305717547" lon="121.42363930759699"><ele>28.0</ele><time>2026-04-24T03:47:50Z</time></trkpt><trkpt lat="-19.5023507305441" lon="121.42387301722232"><ele>29.0</ele><time>2026-04-24T03:47:51Z</time></trkpt><trkpt lat="-19.502160825683745" lon="121.42410486902148"><ele>28.5</ele><time>2026-04-24T03:47:52Z</time></trkpt><trkpt lat="-19.501970694925117" lon="121.42433659799143"><ele>28.0</ele><time>2026-04-24T03:47:53Z</time></trkpt><trkpt lat="-19.50178058518887" lon="121.42456990835322"><ele>28.0</ele><time>2026-04-24T03:47:54.001Z</time></trkpt><trkpt lat="-19.501589514053123" lon="121.4248058457738"><ele>28.0</ele><time>2026-04-24T03:47:55.001Z</time></trkpt><trkpt lat="-19.501397287828578" lon="121.42504226369518"><ele>28.0</ele><time>2026-04-24T03:47:56.001Z</time></trkpt><trkpt lat="-19.50120745334161" lon="121.4252790856581"><ele>28.0</ele><time>2026-04-24T03:47:57.001Z</time></trkpt><trkpt lat="-19.50101598396429" lon="121.42551718219848"><ele>29.0</ele><time>2026-04-24T03:47:58.001Z</time></trkpt><trkpt lat="-19.500823060069127" lon="121.42575338893666"><ele>30.0</ele><time>2026-04-24T03:47:59.001Z</time></trkpt><trkpt lat="-19.5006285232996" lon="121.42598785296035"><ele>30.0</ele><time>2026-04-24T03:48:00.001Z</time></trkpt><trkpt lat="-19.500435404680946" lon="121.42622159138686"><ele>30.0</ele><time>2026-04-24T03:48:01.001Z</time></trkpt><trkpt lat="-19.500244607146787" lon="121.42645302679124"><ele>31.5</ele><time>2026-04-24T03:48:02.001Z</time></trkpt><trkpt lat="-19.500056116543796" lon="121.42668408313608"><ele>33.0</ele><time>2026-04-24T03:48:03.001Z</time></trkpt><trkpt lat="-19.499869299190248" lon="121.42691487642222"><ele>33.0</ele><time>2026-04-24T03:48:04.001Z</time></trkpt><trkpt lat="-19.49968389700078" lon="121.42714385510116"><ele>33.0</ele><time>2026-04-24T03:48:05.001Z</time></trkpt><trkpt lat="-19.499498276967895" lon="121.42737090301233"><ele>32.5</ele><time>2026-04-24T03:48:06.001Z</time></trkpt><trkpt lat="-19.499310166486794" lon="121.4275992895905"><ele>32.0</ele><time>2026-04-24T03:48:07.001Z</time></trkpt><trkpt lat="-19.499122624709038" lon="121.42782752194624"><ele>32.0</ele><time>2026-04-24T03:48:08.001Z</time></trkpt><trkpt lat="-19.49893474939209" lon="121.42805388163578"><ele>32.0</ele><time>2026-04-24T03:48:09.001Z</time></trkpt><trkpt lat="-19.498748832689447" lon="121.42828387856613"><ele>31.5</ele><time>2026-04-24T03:48:10.001Z</time></trkpt><trkpt lat="-19.49856325639344" lon="121.42851480435986"><ele>31.0</ele><time>2026-04-24T03:48:11.001Z</time></trkpt><trkpt lat="-19.498375009529504" lon="121.4287443046335"><ele>31.0</ele><time>2026-04-24T03:48:12.001Z</time></trkpt><trkpt lat="-19.498188106925696" lon="121.42897137356583"><ele>31.0</ele><time>2026-04-24T03:48:13.001Z</time></trkpt><trkpt lat="-19.497999399586742" lon="121.42920030259074"><ele>31.0</ele><time>2026-04-24T03:48:14.001Z</time></trkpt><trkpt lat="-19.49781347888413" lon="121.42942863882006"><ele>31.0</ele><time>2026-04-24T03:48:15.001Z</time></trkpt><trkpt lat="-19.497628021895075" lon="121.42965650221271"><ele>30.5</ele><time>2026-04-24T03:48:16.001Z</time></trkpt><trkpt lat="-19.497440534103234" lon="121.4298873015697"><ele>30.0</ele><time>2026-04-24T03:48:17.001Z</time></trkpt><trkpt lat="-19.49725336488201" lon="121.43012036311026"><ele>30.0</ele><time>2026-04-24T03:48:18.001Z</time></trkpt><trkpt lat="-19.49706382045921" lon="121.43035367259218"><ele>30.0</ele><time>2026-04-24T03:48:19.001Z</time></trkpt><trkpt lat="-19.49687238482719" lon="121.43058335784079"><ele>30.0</ele><time>2026-04-24T03:48:20.001Z</time></trkpt><trkpt lat="-19.496682888450135" lon="121.43081399322278"><ele>30.0</ele><time>2026-04-24T03:48:21.001Z</time></trkpt><trkpt lat="-19.49649324197755" lon="121.43104631252274"><ele>30.0</ele><time>2026-04-24T03:48:22.001Z</time></trkpt><trkpt lat="-19.496301601412735" lon="121.43127410822044"><ele>30.0</ele><time>2026-04-24T03:48:23.001Z</time></trkpt><trkpt lat="-19.496112126528633" lon="121.43150145110202"><ele>31.0</ele><time>2026-04-24T03:48:24.001Z</time></trkpt><trkpt lat="-19.495923370605468" lon="121.43173206904804"><ele>32.0</ele><time>2026-04-24T03:48:25.001Z</time></trkpt><trkpt lat="-19.495732586287808" lon="121.43196797223197"><ele>31.5</ele><time>2026-04-24T03:48:26.001Z</time></trkpt><trkpt lat="-19.495539180736632" lon="121.43220700318875"><ele>31.0</ele><time>2026-04-24T03:48:27.001Z</time></trkpt><trkpt lat="-19.495346245781136" lon="121.43244301607821"><ele>31.0</ele><time>2026-04-24T03:48:28.001Z</time></trkpt><trkpt lat="-19.495155645094798" lon="121.43267669112014"><ele>31.0</ele><time>2026-04-24T03:48:29.001Z</time></trkpt><trkpt lat="-19.494965281285456" lon="121.4329119781826"><ele>31.0</ele><time>2026-04-24T03:48:30.001Z</time></trkpt><trkpt lat="-19.49477457010327" lon="121.43314731589481"><ele>31.0</ele><time>2026-04-24T03:48:31.001Z</time></trkpt><trkpt lat="-19.49458532344266" lon="121.43338031409075"><ele>30.5</ele><time>2026-04-24T03:48:32.001Z</time></trkpt><trkpt lat="-19.494394203103298" lon="121.43361355876871"><ele>30.0</ele><time>2026-04-24T03:48:33.001Z</time></trkpt><trkpt lat="-19.49420278697804" lon="121.4338460948077"><ele>29.5</ele><time>2026-04-24T03:48:34.001Z</time></trkpt><trkpt lat="-19.49401228241531" lon="121.43408256037415"><ele>29.0</ele><time>2026-04-24T03:48:35.001Z</time></trkpt><trkpt lat="-19.493821194167126" lon="121.43431683536866"><ele>29.0</ele><time>2026-04-24T03:48:36.001Z</time></trkpt><trkpt lat="-19.493639518718783" lon="121.43453836525244"><ele>29.0</ele><time>2026-04-24T03:48:37.001Z</time></trkpt><trkpt lat="-19.493460655140723" lon="121.43475492588647"><ele>29.5</ele><time>2026-04-24T03:48:38.001Z</time></trkpt><trkpt lat="-19.49327814432532" lon="121.4349785882704"><ele>30.0</ele><time>2026-04-24T03:48:39.001Z</time></trkpt><trkpt lat="-19.49308887451639" lon="121.43520674554833"><ele>30.0</ele><time>2026-04-24T03:48:40.001Z</time></trkpt><trkpt lat="-19.492898200319768" lon="121.43543715419588"><ele>30.0</ele><time>2026-04-24T03:48:41.001Z</time></trkpt><trkpt lat="-19.492709597549222" lon="121.43567068370977"><ele>30.0</ele><time>2026-04-24T03:48:42.001Z</time></trkpt><trkpt lat="-19.492523663566036" lon="121.43590462560083"><ele>30.0</ele><time>2026-04-24T03:48:43.001Z</time></trkpt><trkpt lat="-19.49233779345969" lon="121.43613205426537"><ele>30.5</ele><time>2026-04-24T03:48:44.001Z</time></trkpt><trkpt lat="-19.49215209193034" lon="121.43635746066464"><ele>31.0</ele><time>2026-04-24T03:48:45.001Z</time></trkpt><trkpt lat="-19.491967236323983" lon="121.43658471010421"><ele>31.0</ele><time>2026-04-24T03:48:46.001Z</time></trkpt><trkpt lat="-19.491784410302802" lon="121.4368140745137"><ele>31.0</ele><time>2026-04-24T03:48:47.001Z</time></trkpt><trkpt lat="-19.491597012424982" lon="121.43704275728112"><ele>31.5</ele><time>2026-04-24T03:48:48.001Z</time></trkpt><trkpt lat="-19.49140945856341" lon="121.43727141302101"><ele>32.0</ele><time>2026-04-24T03:48:49.001Z</time></trkpt><trkpt lat="-19.49122228974693" lon="121.43750185871376"><ele>30.5</ele><time>2026-04-24T03:48:50.001Z</time></trkpt><trkpt lat="-19.49103505868134" lon="121.43773406630481"><ele>29.0</ele><time>2026-04-24T03:48:51.001Z</time></trkpt><trkpt lat="-19.490845635705924" lon="121.43796103735005"><ele>31.0</ele><time>2026-04-24T03:48:52.001Z</time></trkpt><trkpt lat="-19.49065787491398" lon="121.43818631271492"><ele>33.0</ele><time>2026-04-24T03:48:53.001Z</time></trkpt><trkpt lat="-19.49047162742497" lon="121.43841188690985"><ele>33.0</ele><time>2026-04-24T03:48:54.001Z</time></trkpt><trkpt lat="-19.49028438371988" lon="121.4386394489735"><ele>33.0</ele><time>2026-04-24T03:48:55.001Z</time></trkpt><trkpt lat="-19.49009624956757" lon="121.43886997239761"><ele>33.0</ele><time>2026-04-24T03:48:56.001Z</time></trkpt><trkpt lat="-19.48990796625976" lon="121.43909856801595"><ele>33.0</ele><time>2026-04-24T03:48:57.001Z</time></trkpt><trkpt lat="-19.48971676971407" lon="121.43932818434955"><ele>33.0</ele><time>2026-04-24T03:48:58.001Z</time></trkpt><trkpt lat="-19.489525651838562" lon="121.4395584878871"><ele>33.0</ele><time>2026-04-24T03:48:59.001Z</time></trkpt><trkpt lat="-19.489337862289762" lon="121.43978975359826"><ele>33.0</ele><time>2026-04-24T03:49:00.001Z</time></trkpt><trkpt lat="-19.489152808940396" lon="121.44002200623008"><ele>33.0</ele><time>2026-04-24T03:49:01.001Z</time></trkpt><trkpt lat="-19.488964533229563" lon="121.44025617534179"><ele>32.0</ele><time>2026-04-24T03:49:02.001Z</time></trkpt><trkpt lat="-19.488772820766414" lon="121.44049159407926"><ele>31.0</ele><time>2026-04-24T03:49:02.999Z</time></trkpt><trkpt lat="-19.488583042277625" lon="121.44072650356622"><ele>31.0</ele><time>2026-04-24T03:49:03.999Z</time></trkpt><trkpt lat="-19.488391712285033" lon="121.44096215288991"><ele>31.0</ele><time>2026-04-24T03:49:04.999Z</time></trkpt><trkpt lat="-19.48819967889024" lon="121.44119621938695"><ele>31.0</ele><time>2026-04-24T03:49:05.999Z</time></trkpt><trkpt lat="-19.48800661516999" lon="121.44143130850865"><ele>31.0</ele><time>2026-04-24T03:49:06.999Z</time></trkpt><trkpt lat="-19.487816290435404" lon="121.44166707209686"><ele>31.0</ele><time>2026-04-24T03:49:07.999Z</time></trkpt><trkpt lat="-19.487625518893463" lon="121.44190281803392"><ele>31.0</ele><time>2026-04-24T03:49:08.999Z</time></trkpt><trkpt lat="-19.48743541227947" lon="121.44213887214899"><ele>31.0</ele><time>2026-04-24T03:49:09.999Z</time></trkpt><trkpt lat="-19.48724628547407" lon="121.44237190208202"><ele>31.0</ele><time>2026-04-24T03:49:10.999Z</time></trkpt><trkpt lat="-19.487056147521926" lon="121.44260357155113"><ele>31.0</ele><time>2026-04-24T03:49:11.999Z</time></trkpt><trkpt lat="-19.486862429603534" lon="121.44283273166916"><ele>31.0</ele><time>2026-04-24T03:49:12.999Z</time></trkpt><trkpt lat="-19.48666779209337" lon="121.4430604227586"><ele>30.0</ele><time>2026-04-24T03:49:13.999Z</time></trkpt><trkpt lat="-19.48647491012479" lon="121.44328904888579"><ele>29.0</ele><time>2026-04-24T03:49:14.999Z</time></trkpt><trkpt lat="-19.48628577733396" lon="121.44352083923302"><ele>29.5</ele><time>2026-04-24T03:49:15.999Z</time></trkpt><trkpt lat="-19.486097809842168" lon="121.44375397672154"><ele>30.0</ele><time>2026-04-24T03:49:16.999Z</time></trkpt><trkpt lat="-19.485911234516074" lon="121.44398642285998"><ele>30.0</ele><time>2026-04-24T03:49:17.999Z</time></trkpt><trkpt lat="-19.485726194172386" lon="121.44421969993132"><ele>30.0</ele><time>2026-04-24T03:49:18.999Z</time></trkpt><trkpt lat="-19.485541223940313" lon="121.44445392810469"><ele>30.0</ele><time>2026-04-24T03:49:19.999Z</time></trkpt><trkpt lat="-19.48535397709698" lon="121.44468237051105"><ele>30.0</ele><time>2026-04-24T03:49:20.999Z</time></trkpt><trkpt lat="-19.48516662807328" lon="121.44490793236288"><ele>30.0</ele><time>2026-04-24T03:49:21.999Z</time></trkpt><trkpt lat="-19.484980186809178" lon="121.44513115504651"><ele>30.0</ele><time>2026-04-24T03:49:22.999Z</time></trkpt><trkpt lat="-19.484795917841925" lon="121.44535630283683"><ele>30.0</ele><time>2026-04-24T03:49:23.999Z</time></trkpt><trkpt lat="-19.484611914459617" lon="121.44558420839562"><ele>30.0</ele><time>2026-04-24T03:49:25Z</time></trkpt><trkpt lat="-19.48442990205271" lon="121.44581246719336"><ele>29.5</ele><time>2026-04-24T03:49:26Z</time></trkpt><trkpt lat="-19.48424551079596" lon="121.44604027375763"><ele>29.0</ele><time>2026-04-24T03:49:27Z</time></trkpt><trkpt lat="-19.484060328589837" lon="121.44626832496162"><ele>29.5</ele><time>2026-04-24T03:49:28Z</time></trkpt><trkpt lat="-19.48387190456974" lon="121.44649831660605"><ele>30.0</ele><time>2026-04-24T03:49:29Z</time></trkpt><trkpt lat="-19.483679511432552" lon="121.4467282093479"><ele>30.0</ele><time>2026-04-24T03:49:30Z</time></trkpt><trkpt lat="-19.483489302307447" lon="121.4469567746186"><ele>30.0</ele><time>2026-04-24T03:49:31Z</time></trkpt><trkpt lat="-19.483299110983136" lon="121.44718721944497"><ele>30.0</ele><time>2026-04-24T03:49:32Z</time></trkpt><trkpt lat="-19.48311228040408" lon="121.44742064456305"><ele>30.0</ele><time>2026-04-24T03:49:33Z</time></trkpt><trkpt lat="-19.48292427337688" lon="121.44765386810356"><ele>30.5</ele><time>2026-04-24T03:49:34Z</time></trkpt><trkpt lat="-19.482734826711088" lon="121.44788571211656"><ele>31.0</ele><time>2026-04-24T03:49:35Z</time></trkpt><trkpt lat="-19.482541491697816" lon="121.44811760234649"><ele>31.5</ele><time>2026-04-24T03:49:36Z</time></trkpt><trkpt lat="-19.482348802624188" lon="121.44834964817895"><ele>32.0</ele><time>2026-04-24T03:49:37Z</time></trkpt><trkpt lat="-19.4821548710051" lon="121.44858410570289"><ele>32.0</ele><time>2026-04-24T03:49:38Z</time></trkpt><trkpt lat="-19.48195854774334" lon="121.44882007946498"><ele>32.0</ele><time>2026-04-24T03:49:39Z</time></trkpt><trkpt lat="-19.48176114510198" lon="121.44905919959635"><ele>32.0</ele><time>2026-04-24T03:49:40Z</time></trkpt><trkpt lat="-19.481566246767585" lon="121.44929965000706"><ele>32.0</ele><time>2026-04-24T03:49:41Z</time></trkpt><trkpt lat="-19.48137120134041" lon="121.44954352887638"><ele>30.5</ele><time>2026-04-24T03:49:42Z</time></trkpt><trkpt lat="-19.48117519661874" lon="121.44978760262494"><ele>29.0</ele><time>2026-04-24T03:49:43Z</time></trkpt><trkpt lat="-19.480975021685502" lon="121.45003080371227"><ele>29.0</ele><time>2026-04-24T03:49:44Z</time></trkpt><trkpt lat="-19.480772102067487" lon="121.45027501487408"><ele>29.0</ele><time>2026-04-24T03:49:45Z</time></trkpt><trkpt lat="-19.480570633710244" lon="121.4505159675631"><ele>30.0</ele><time>2026-04-24T03:49:46Z</time></trkpt><trkpt lat="-19.480373570505158" lon="121.45075689367184"><ele>31.0</ele><time>2026-04-24T03:49:47Z</time></trkpt><trkpt lat="-19.480178623146433" lon="121.45099922792136"><ele>31.0</ele><time>2026-04-24T03:49:48Z</time></trkpt><trkpt lat="-19.479983137839174" lon="121.45124217037056"><ele>31.0</ele><time>2026-04-24T03:49:49Z</time></trkpt><trkpt lat="-19.479787448727116" lon="121.45148373247463"><ele>31.0</ele><time>2026-04-24T03:49:50Z</time></trkpt><trkpt lat="-19.479592444623364" lon="121.45172503841879"><ele>31.0</ele><time>2026-04-24T03:49:51Z</time></trkpt><trkpt lat="-19.479399738701233" lon="121.4519653988591"><ele>31.5</ele><time>2026-04-24T03:49:52Z</time></trkpt><trkpt lat="-19.479206795866254" lon="121.45220683033568"><ele>32.0</ele><time>2026-04-24T03:49:53Z</time></trkpt><trkpt lat="-19.479012957575172" lon="121.45244679932465"><ele>32.0</ele><time>2026-04-24T03:49:54Z</time></trkpt><trkpt lat="-19.478818677997165" lon="121.45268394098015"><ele>32.0</ele><time>2026-04-24T03:49:55Z</time></trkpt><trkpt lat="-19.478623633638932" lon="121.4529221343823"><ele>30.5</ele><time>2026-04-24T03:49:56Z</time></trkpt><trkpt lat="-19.478425354453694" lon="121.45315947452708"><ele>29.0</ele><time>2026-04-24T03:49:57Z</time></trkpt><trkpt lat="-19.47822569318231" lon="121.45339628983483"><ele>29.0</ele><time>2026-04-24T03:49:58Z</time></trkpt><trkpt lat="-19.478026298391036" lon="121.45363868186139"><ele>29.0</ele><time>2026-04-24T03:49:59Z</time></trkpt><trkpt lat="-19.47782886852066" lon="121.45388472448954"><ele>29.5</ele><time>2026-04-24T03:50:00Z</time></trkpt><trkpt lat="-19.477631101302812" lon="121.454131930842"><ele>30.0</ele><time>2026-04-24T03:50:01Z</time></trkpt><trkpt lat="-19.477432252211848" lon="121.45438003457413"><ele>29.5</ele><time>2026-04-24T03:50:02Z</time></trkpt><trkpt lat="-19.477228658088013" lon="121.45462459966998"><ele>29.0</ele><time>2026-04-24T03:50:03Z</time></trkpt><trkpt lat="-19.47702160346117" lon="121.45486678523243"><ele>29.0</ele><time>2026-04-24T03:50:04Z</time></trkpt><trkpt lat="-19.476813436304063" lon="121.4551066409167"><ele>29.0</ele><time>2026-04-24T03:50:05Z</time></trkpt><trkpt lat="-19.476603349931562" lon="121.4553428957477"><ele>29.0</ele><time>2026-04-24T03:50:06Z</time></trkpt><trkpt lat="-19.476394081803583" lon="121.45557457579551"><ele>29.0</ele><time>2026-04-24T03:50:07Z</time></trkpt><trkpt lat="-19.47618421454235" lon="121.45580365466222"><ele>29.0</ele><time>2026-04-24T03:50:08Z</time></trkpt><trkpt lat="-19.47597175191969" lon="121.45602687960996"><ele>29.0</ele><time>2026-04-24T03:50:09Z</time></trkpt><trkpt lat="-19.475754851214436" lon="121.45624327600287"><ele>29.0</ele><time>2026-04-24T03:50:10Z</time></trkpt><trkpt lat="-19.47553554861502" lon="121.45645531626093"><ele>29.0</ele><time>2026-04-24T03:50:11Z</time></trkpt><trkpt lat="-19.475312164724055" lon="121.45666582606297"><ele>29.0</ele><time>2026-04-24T03:50:12Z</time></trkpt><trkpt lat="-19.4750837308764" lon="121.45687298629034"><ele>29.0</ele><time>2026-04-24T03:50:13Z</time></trkpt><trkpt lat="-19.47485706650791" lon="121.45708015568134"><ele>28.5</ele><time>2026-04-24T03:50:14Z</time></trkpt><trkpt lat="-19.474632177051557" lon="121.4572903179086"><ele>28.0</ele><time>2026-04-24T03:50:15Z</time></trkpt><trkpt lat="-19.47441071206839" lon="121.45749525188619"><ele>28.0</ele><time>2026-04-24T03:50:16Z</time></trkpt><trkpt lat="-19.474187379197854" lon="121.4577017883793"><ele>28.0</ele><time>2026-04-24T03:50:17Z</time></trkpt><trkpt lat="-19.473964283594086" lon="121.45790574750563"><ele>28.5</ele><time>2026-04-24T03:50:18Z</time></trkpt><trkpt lat="-19.473742044968624" lon="121.45811065164291"><ele>29.0</ele><time>2026-04-24T03:50:19Z</time></trkpt><trkpt lat="-19.47351983071718" lon="121.45831631252187"><ele>29.0</ele><time>2026-04-24T03:50:20Z</time></trkpt><trkpt lat="-19.473295844898804" lon="121.45852434932482"><ele>29.0</ele><time>2026-04-24T03:50:21Z</time></trkpt><trkpt lat="-19.473070840497456" lon="121.45872975553638"><ele>28.5</ele><time>2026-04-24T03:50:22Z</time></trkpt><trkpt lat="-19.472846289692303" lon="121.4589391882552"><ele>28.0</ele><time>2026-04-24T03:50:23Z</time></trkpt><trkpt lat="-19.472624096462003" lon="121.45914928552101"><ele>28.0</ele><time>2026-04-24T03:50:24Z</time></trkpt><trkpt lat="-19.47240280819263" lon="121.45935930998394"><ele>28.0</ele><time>2026-04-24T03:50:25Z</time></trkpt><trkpt lat="-19.47217773281179" lon="121.45957015252644"><ele>28.0</ele><time>2026-04-24T03:50:26Z</time></trkpt><trkpt lat="-19.471951252542013" lon="121.45977993945188"><ele>28.0</ele><time>2026-04-24T03:50:27Z</time></trkpt><trkpt lat="-19.471723631577365" lon="121.45998886475901"><ele>28.0</ele><time>2026-04-24T03:50:28Z</time></trkpt><trkpt lat="-19.471495439084485" lon="121.4601966698733"><ele>28.0</ele><time>2026-04-24T03:50:29Z</time></trkpt><trkpt lat="-19.471269746183882" lon="121.46040352504029"><ele>28.5</ele><time>2026-04-24T03:50:30Z</time></trkpt><trkpt lat="-19.471042268120616" lon="121.4606085618033"><ele>29.0</ele><time>2026-04-24T03:50:31Z</time></trkpt><trkpt lat="-19.47081750464103" lon="121.46081251221625"><ele>29.0</ele><time>2026-04-24T03:50:32Z</time></trkpt><trkpt lat="-19.47059542134464" lon="121.46101704312366"><ele>29.0</ele><time>2026-04-24T03:50:33Z</time></trkpt><trkpt lat="-19.470372781989152" lon="121.46122318804531"><ele>30.0</ele><time>2026-04-24T03:50:34Z</time></trkpt><trkpt lat="-19.47015084469545" lon="121.46142847873374"><ele>31.0</ele><time>2026-04-24T03:50:35Z</time></trkpt><trkpt lat="-19.469929055768457" lon="121.46163271642767"><ele>31.0</ele><time>2026-04-24T03:50:36Z</time></trkpt><trkpt lat="-19.469706843737118" lon="121.46183748224179"><ele>31.0</ele><time>2026-04-24T03:50:37Z</time></trkpt><trkpt lat="-19.469484251966172" lon="121.46204130252417"><ele>29.5</ele><time>2026-04-24T03:50:38Z</time></trkpt><trkpt lat="-19.469261335866218" lon="121.46224705374308"><ele>28.0</ele><time>2026-04-24T03:50:39Z</time></trkpt><trkpt lat="-19.46903873414321" lon="121.4624544873617"><ele>28.0</ele><time>2026-04-24T03:50:40Z</time></trkpt><trkpt lat="-19.468816145902228" lon="121.46265886995234"><ele>28.0</ele><time>2026-04-24T03:50:41Z</time></trkpt><trkpt lat="-19.468592453826698" lon="121.46286257121018"><ele>30.0</ele><time>2026-04-24T03:50:42Z</time></trkpt><trkpt lat="-19.468370710776803" lon="121.46306664813986"><ele>32.0</ele><time>2026-04-24T03:50:43Z</time></trkpt><trkpt lat="-19.46814766174434" lon="121.46327566622837"><ele>31.0</ele><time>2026-04-24T03:50:44Z</time></trkpt><trkpt lat="-19.46792549847783" lon="121.46348338732318"><ele>30.0</ele><time>2026-04-24T03:50:45Z</time></trkpt><trkpt lat="-19.46770279484985" lon="121.46369012505751"><ele>30.0</ele><time>2026-04-24T03:50:46Z</time></trkpt><trkpt lat="-19.467479628250356" lon="121.46389546267893"><ele>30.0</ele><time>2026-04-24T03:50:47Z</time></trkpt><trkpt lat="-19.467257045276497" lon="121.46410118049346"><ele>31.0</ele><time>2026-04-24T03:50:48Z</time></trkpt><trkpt lat="-19.467031273071427" lon="121.46430806979373"><ele>32.0</ele><time>2026-04-24T03:50:49Z</time></trkpt><trkpt lat="-19.466805649049245" lon="121.464515540578"><ele>31.5</ele><time>2026-04-24T03:50:50Z</time></trkpt><trkpt lat="-19.466581239117563" lon="121.46472180353523"><ele>31.0</ele><time>2026-04-24T03:50:51Z</time></trkpt><trkpt lat="-19.466359291156294" lon="121.4649293470176"><ele>31.0</ele><time>2026-04-24T03:50:52Z</time></trkpt><trkpt lat="-19.466140232812403" lon="121.46513526229327"><ele>31.0</ele><time>2026-04-24T03:50:53Z</time></trkpt><trkpt lat="-19.46592046803123" lon="121.46533984265197"><ele>30.5</ele><time>2026-04-24T03:50:54Z</time></trkpt><trkpt lat="-19.46569834135944" lon="121.46554465349604"><ele>30.0</ele><time>2026-04-24T03:50:55Z</time></trkpt><trkpt lat="-19.465476600359583" lon="121.4657481797433"><ele>30.5</ele><time>2026-04-24T03:50:56Z</time></trkpt><trkpt lat="-19.465254345934078" lon="121.46595155286938"><ele>31.0</ele><time>2026-04-24T03:50:57Z</time></trkpt><trkpt lat="-19.465032315180956" lon="121.46615506506441"><ele>31.0</ele><time>2026-04-24T03:50:58Z</time></trkpt><trkpt lat="-19.464813311768363" lon="121.46635637732594"><ele>31.0</ele><time>2026-04-24T03:50:59Z</time></trkpt><trkpt lat="-19.464593298966946" lon="121.46655792237101"><ele>29.5</ele><time>2026-04-24T03:51:00Z</time></trkpt><trkpt lat="-19.46437378679765" lon="121.46676206839714"><ele>28.0</ele><time>2026-04-24T03:51:01Z</time></trkpt><trkpt lat="-19.464154017945354" lon="121.46696540656724"><ele>29.0</ele><time>2026-04-24T03:51:02Z</time></trkpt><trkpt lat="-19.46393222344056" lon="121.46716838806685"><ele>30.0</ele><time>2026-04-24T03:51:03Z</time></trkpt><trkpt lat="-19.46370939083012" lon="121.46737032501125"><ele>30.0</ele><time>2026-04-24T03:51:04Z</time></trkpt><trkpt lat="-19.46348635273855" lon="121.46757371850109"><ele>30.0</ele><time>2026-04-24T03:51:05Z</time></trkpt><trkpt lat="-19.463264799744742" lon="121.46777978743216"><ele>30.0</ele><time>2026-04-24T03:51:06Z</time></trkpt><trkpt lat="-19.46304200838504" lon="121.46798884127112"><ele>30.0</ele><time>2026-04-24T03:51:07Z</time></trkpt><trkpt lat="-19.462820105315547" lon="121.46819835435694"><ele>29.5</ele><time>2026-04-24T03:51:08Z</time></trkpt><trkpt lat="-19.46259523800124" lon="121.4684067555649"><ele>29.0</ele><time>2026-04-24T03:51:09Z</time></trkpt><trkpt lat="-19.46237086786183" lon="121.46861138571926"><ele>29.5</ele><time>2026-04-24T03:51:10Z</time></trkpt><trkpt lat="-19.46214711071927" lon="121.46881696226448"><ele>30.0</ele><time>2026-04-24T03:51:11Z</time></trkpt><trkpt lat="-19.461924847805687" lon="121.46902324355871"><ele>30.0</ele><time>2026-04-24T03:51:12Z</time></trkpt><trkpt lat="-19.461704121372854" lon="121.46922844058871"><ele>30.0</ele><time>2026-04-24T03:51:13Z</time></trkpt><trkpt lat="-19.461486239052103" lon="121.46943006006573"><ele>30.0</ele><time>2026-04-24T03:51:14Z</time></trkpt><trkpt lat="-19.4612664514251" lon="121.46962998456155"><ele>30.0</ele><time>2026-04-24T03:51:15Z</time></trkpt><trkpt lat="-19.46104893808759" lon="121.46983069527629"><ele>30.0</ele><time>2026-04-24T03:51:16Z</time></trkpt><trkpt lat="-19.460833245842423" lon="121.4700302157999"><ele>30.0</ele><time>2026-04-24T03:51:17Z</time></trkpt><trkpt lat="-19.4606186025165" lon="121.47023040623817"><ele>30.0</ele><time>2026-04-24T03:51:18Z</time></trkpt><trkpt lat="-19.460403324330482" lon="121.47043255795481"><ele>30.0</ele><time>2026-04-24T03:51:19Z</time></trkpt><trkpt lat="-19.460186400945034" lon="121.47063245719123"><ele>30.0</ele><time>2026-04-24T03:51:20Z</time></trkpt><trkpt lat="-19.459969166063367" lon="121.47083334405133"><ele>30.0</ele><time>2026-04-24T03:51:21Z</time></trkpt><trkpt lat="-19.459753418772372" lon="121.47103282806427"><ele>30.0</ele><time>2026-04-24T03:51:22Z</time></trkpt><trkpt lat="-19.45953636237931" lon="121.47123193329271"><ele>30.0</ele><time>2026-04-24T03:51:23Z</time></trkpt><trkpt lat="-19.45931960990593" lon="121.47143048177503"><ele>30.0</ele><time>2026-04-24T03:51:24Z</time></trkpt><trkpt lat="-19.459103269226578" lon="121.47163112504036"><ele>30.0</ele><time>2026-04-24T03:51:25Z</time></trkpt><trkpt lat="-19.458887062493112" lon="121.47183501630964"><ele>29.5</ele><time>2026-04-24T03:51:26Z</time></trkpt><trkpt lat="-19.45866686959269" lon="121.47203963831127"><ele>29.0</ele><time>2026-04-24T03:51:27Z</time></trkpt><trkpt lat="-19.458445195944982" lon="121.47224154515617"><ele>29.0</ele><time>2026-04-24T03:51:28Z</time></trkpt><trkpt lat="-19.458224758465168" lon="121.4724431181295"><ele>29.0</ele><time>2026-04-24T03:51:29Z</time></trkpt><trkpt lat="-19.45800393118335" lon="121.47264474949885"><ele>29.5</ele><time>2026-04-24T03:51:30Z</time></trkpt><trkpt lat="-19.45778540168098" lon="121.47284734484865"><ele>30.0</ele><time>2026-04-24T03:51:31Z</time></trkpt><trkpt lat="-19.457563472278373" lon="121.47305301047815"><ele>30.0</ele><time>2026-04-24T03:51:32Z</time></trkpt><trkpt lat="-19.45734094298452" lon="121.47326071303004"><ele>30.0</ele><time>2026-04-24T03:51:33Z</time></trkpt><trkpt lat="-19.457116556217205" lon="121.47346888888771"><ele>29.5</ele><time>2026-04-24T03:51:34Z</time></trkpt><trkpt lat="-19.456892180059235" lon="121.47367634439642"><ele>29.0</ele><time>2026-04-24T03:51:35Z</time></trkpt><trkpt lat="-19.456667877849117" lon="121.47388517919008"><ele>29.0</ele><time>2026-04-24T03:51:36Z</time></trkpt><trkpt lat="-19.456445101262315" lon="121.47409025405723"><ele>29.0</ele><time>2026-04-24T03:51:37Z</time></trkpt><trkpt lat="-19.456221164048266" lon="121.47429242370222"><ele>29.5</ele><time>2026-04-24T03:51:38Z</time></trkpt><trkpt lat="-19.455995794471864" lon="121.47449738903921"><ele>30.0</ele><time>2026-04-24T03:51:39Z</time></trkpt><trkpt lat="-19.45577198175475" lon="121.47470467083745"><ele>30.0</ele><time>2026-04-24T03:51:40Z</time></trkpt><trkpt lat="-19.4555481110769" lon="121.47491257552294"><ele>30.0</ele><time>2026-04-24T03:51:41Z</time></trkpt><trkpt lat="-19.455323711062825" lon="121.47512195306665"><ele>29.5</ele><time>2026-04-24T03:51:42Z</time></trkpt><trkpt lat="-19.455094952029658" lon="121.47533479606261"><ele>29.0</ele><time>2026-04-24T03:51:43Z</time></trkpt><trkpt lat="-19.454865431227457" lon="121.4755479829247"><ele>29.0</ele><time>2026-04-24T03:51:44Z</time></trkpt><trkpt lat="-19.454635286285814" lon="121.47576144817988"><ele>29.0</ele><time>2026-04-24T03:51:45Z</time></trkpt><trkpt lat="-19.45440599519721" lon="121.47597694563221"><ele>29.5</ele><time>2026-04-24T03:51:46Z</time></trkpt><trkpt lat="-19.454174349671547" lon="121.47619209359806"><ele>30.0</ele><time>2026-04-24T03:51:47Z</time></trkpt><trkpt lat="-19.453941764921055" lon="121.4764079268664"><ele>30.5</ele><time>2026-04-24T03:51:48Z</time></trkpt><trkpt lat="-19.453709651026646" lon="121.47662207397873"><ele>31.0</ele><time>2026-04-24T03:51:49Z</time></trkpt><trkpt lat="-19.453488204325875" lon="121.47682313982664"><ele>31.0</ele><time>2026-04-24T03:51:50Z</time></trkpt><trkpt lat="-19.45327955488168" lon="121.47701363232096"><ele>31.0</ele><time>2026-04-24T03:51:51Z</time></trkpt><trkpt lat="-19.453065149163358" lon="121.47720747779448"><ele>31.0</ele><time>2026-04-24T03:51:52Z</time></trkpt><trkpt lat="-19.452849734308504" lon="121.47740228556953"><ele>31.0</ele><time>2026-04-24T03:51:53Z</time></trkpt><trkpt lat="-19.452634044898165" lon="121.47759823708508"><ele>31.0</ele><time>2026-04-24T03:51:54Z</time></trkpt><trkpt lat="-19.45241959597514" lon="121.47779572823327"><ele>31.0</ele><time>2026-04-24T03:51:55Z</time></trkpt><trkpt lat="-19.45220328772772" lon="121.47799542119934"><ele>31.5</ele><time>2026-04-24T03:51:56Z</time></trkpt><trkpt lat="-19.45198900872658" lon="121.4781951160546"><ele>32.0</ele><time>2026-04-24T03:51:57Z</time></trkpt><trkpt lat="-19.451773245798954" lon="121.47839670783394"><ele>32.0</ele><time>2026-04-24T03:51:58Z</time></trkpt><trkpt lat="-19.45155651041267" lon="121.47859925327974"><ele>32.0</ele><time>2026-04-24T03:51:59Z</time></trkpt><trkpt lat="-19.45133653176073" lon="121.47880365444668"><ele>31.0</ele><time>2026-04-24T03:52:00Z</time></trkpt><trkpt lat="-19.451115412742254" lon="121.47900594206924"><ele>30.0</ele><time>2026-04-24T03:52:01Z</time></trkpt><trkpt lat="-19.450895867119453" lon="121.47920719467956"><ele>30.0</ele><time>2026-04-24T03:52:02Z</time></trkpt><trkpt lat="-19.45067542819646" lon="121.47941107809304"><ele>30.0</ele><time>2026-04-24T03:52:03Z</time></trkpt><trkpt lat="-19.45045377843696" lon="121.47961851481742"><ele>30.0</ele><time>2026-04-24T03:52:04Z</time></trkpt><trkpt lat="-19.45023228154251" lon="121.47982442036961"><ele>30.0</ele><time>2026-04-24T03:52:05Z</time></trkpt><trkpt lat="-19.450009224189724" lon="121.48003317797445"><ele>30.0</ele><time>2026-04-24T03:52:06Z</time></trkpt><trkpt lat="-19.449785263906346" lon="121.48024212158076"><ele>30.0</ele><time>2026-04-24T03:52:07Z</time></trkpt><trkpt lat="-19.44955796838879" lon="121.48045221300836"><ele>30.5</ele><time>2026-04-24T03:52:08Z</time></trkpt><trkpt lat="-19.449328677886157" lon="121.48066231734259"><ele>31.0</ele><time>2026-04-24T03:52:09Z</time></trkpt><trkpt lat="-19.449099136256617" lon="121.48087139150945"><ele>31.0</ele><time>2026-04-24T03:52:10Z</time></trkpt><trkpt lat="-19.4488697993291" lon="121.48108175050695"><ele>31.0</ele><time>2026-04-24T03:52:11Z</time></trkpt><trkpt lat="-19.448642593349415" lon="121.48129461081311"><ele>31.5</ele><time>2026-04-24T03:52:12Z</time></trkpt><trkpt lat="-19.44841911693715" lon="121.48150804939807"><ele>32.0</ele><time>2026-04-24T03:52:13Z</time></trkpt><trkpt lat="-19.448194689628505" lon="121.48172055296199"><ele>32.0</ele><time>2026-04-24T03:52:14Z</time></trkpt><trkpt lat="-19.447965348589303" lon="121.48193231168223"><ele>32.0</ele><time>2026-04-24T03:52:15Z</time></trkpt><trkpt lat="-19.44773224454724" lon="121.4821418144027"><ele>31.5</ele><time>2026-04-24T03:52:16Z</time></trkpt><trkpt lat="-19.447502495561224" lon="121.48235192959297"><ele>31.0</ele><time>2026-04-24T03:52:17Z</time></trkpt><trkpt lat="-19.44727566665042" lon="121.48256406419529"><ele>30.5</ele><time>2026-04-24T03:52:18.001Z</time></trkpt><trkpt lat="-19.44704780360823" lon="121.48277508871713"><ele>30.0</ele><time>2026-04-24T03:52:19.001Z</time></trkpt><trkpt lat="-19.44681974185764" lon="121.48298605083725"><ele>31.0</ele><time>2026-04-24T03:52:20.001Z</time></trkpt><trkpt lat="-19.446592996362227" lon="121.4831944933392"><ele>32.0</ele><time>2026-04-24T03:52:21.001Z</time></trkpt><trkpt lat="-19.44636239497706" lon="121.48340278658789"><ele>31.5</ele><time>2026-04-24T03:52:22.001Z</time></trkpt><trkpt lat="-19.44612945241054" lon="121.48361165400627"><ele>31.0</ele><time>2026-04-24T03:52:23.001Z</time></trkpt><trkpt lat="-19.445897557871152" lon="121.48382149066396"><ele>30.5</ele><time>2026-04-24T03:52:24.001Z</time></trkpt><trkpt lat="-19.445664903076725" lon="121.48403410277079"><ele>30.0</ele><time>2026-04-24T03:52:25.001Z</time></trkpt><trkpt lat="-19.44543463986256" lon="121.48424569707122"><ele>30.0</ele><time>2026-04-24T03:52:26.001Z</time></trkpt><trkpt lat="-19.445203769453613" lon="121.4844584756805"><ele>30.0</ele><time>2026-04-24T03:52:27.001Z</time></trkpt><trkpt lat="-19.444974292984206" lon="121.48467030499845"><ele>30.5</ele><time>2026-04-24T03:52:28.001Z</time></trkpt><trkpt lat="-19.444746874861554" lon="121.4848799946252"><ele>31.0</ele><time>2026-04-24T03:52:29.001Z</time></trkpt><trkpt lat="-19.444519221973206" lon="121.48509039126372"><ele>31.5</ele><time>2026-04-24T03:52:30.001Z</time></trkpt><trkpt lat="-19.444291910890307" lon="121.48530005621255"><ele>32.0</ele><time>2026-04-24T03:52:31.001Z</time></trkpt><trkpt lat="-19.444066852237306" lon="121.48551079851659"><ele>32.0</ele><time>2026-04-24T03:52:32.001Z</time></trkpt><trkpt lat="-19.443844297994676" lon="121.48572227914119"><ele>32.0</ele><time>2026-04-24T03:52:33.001Z</time></trkpt><trkpt lat="-19.443622951254838" lon="121.48592907494827"><ele>31.0</ele><time>2026-04-24T03:52:34.001Z</time></trkpt><trkpt lat="-19.443400406070758" lon="121.4861330723236"><ele>30.0</ele><time>2026-04-24T03:52:35.001Z</time></trkpt><trkpt lat="-19.443182095104056" lon="121.48633358650616"><ele>31.0</ele><time>2026-04-24T03:52:36.001Z</time></trkpt><trkpt lat="-19.442960545480393" lon="121.48653574796452"><ele>32.0</ele><time>2026-04-24T03:52:37.001Z</time></trkpt><trkpt lat="-19.44274413418442" lon="121.48673747066222"><ele>32.0</ele><time>2026-04-24T03:52:38.001Z</time></trkpt><trkpt lat="-19.442524813517185" lon="121.48694117428953"><ele>32.0</ele><time>2026-04-24T03:52:39.001Z</time></trkpt><trkpt lat="-19.442306753471048" lon="121.48714345327586"><ele>32.0</ele><time>2026-04-24T03:52:40.001Z</time></trkpt><trkpt lat="-19.442085520118408" lon="121.48734697043608"><ele>32.0</ele><time>2026-04-24T03:52:41.001Z</time></trkpt><trkpt lat="-19.44186047497654" lon="121.48755263549056"><ele>32.0</ele><time>2026-04-24T03:52:42.001Z</time></trkpt><trkpt lat="-19.441634483889874" lon="121.48776143907763"><ele>32.0</ele><time>2026-04-24T03:52:43.001Z</time></trkpt><trkpt lat="-19.441408222417024" lon="121.4879716479168"><ele>31.0</ele><time>2026-04-24T03:52:44.001Z</time></trkpt><trkpt lat="-19.44118142147683" lon="121.48818186153284"><ele>30.0</ele><time>2026-04-24T03:52:45.001Z</time></trkpt><trkpt lat="-19.44095427570563" lon="121.48839100708825"><ele>30.0</ele><time>2026-04-24T03:52:46.001Z</time></trkpt><trkpt lat="-19.440723635777115" lon="121.48860444677202"><ele>30.0</ele><time>2026-04-24T03:52:47.001Z</time></trkpt><trkpt lat="-19.440494457870024" lon="121.48881896463614"><ele>29.5</ele><time>2026-04-24T03:52:48.001Z</time></trkpt><trkpt lat="-19.44026573075918" lon="121.4890332126601"><ele>29.0</ele><time>2026-04-24T03:52:49.001Z</time></trkpt><trkpt lat="-19.440036722315774" lon="121.48924492158153"><ele>29.0</ele><time>2026-04-24T03:52:50.001Z</time></trkpt><trkpt lat="-19.439806258213483" lon="121.48945387227216"><ele>29.0</ele><time>2026-04-24T03:52:51.001Z</time></trkpt><trkpt lat="-19.439573709352732" lon="121.48966434544624"><ele>29.0</ele><time>2026-04-24T03:52:52.001Z</time></trkpt><trkpt lat="-19.43934477129049" lon="121.48987484650385"><ele>29.0</ele><time>2026-04-24T03:52:53.001Z</time></trkpt><trkpt lat="-19.439117014610897" lon="121.49008418194849"><ele>29.0</ele><time>2026-04-24T03:52:54.001Z</time></trkpt><trkpt lat="-19.438891001422967" lon="121.49029577170681"><ele>29.0</ele><time>2026-04-24T03:52:55.001Z</time></trkpt><trkpt lat="-19.438666419713613" lon="121.49050803784125"><ele>28.5</ele><time>2026-04-24T03:52:56.001Z</time></trkpt><trkpt lat="-19.438442371329348" lon="121.4907216209428"><ele>28.0</ele><time>2026-04-24T03:52:57.001Z</time></trkpt><trkpt lat="-19.43821450323164" lon="121.49093246106733"><ele>28.0</ele><time>2026-04-24T03:52:58.001Z</time></trkpt><trkpt lat="-19.43798480977756" lon="121.49114032326669"><ele>28.0</ele><time>2026-04-24T03:52:59.001Z</time></trkpt><trkpt lat="-19.437754274996973" lon="121.4913464339155"><ele>29.5</ele><time>2026-04-24T03:53:00.001Z</time></trkpt><trkpt lat="-19.43752589687825" lon="121.49155341200168"><ele>31.0</ele><time>2026-04-24T03:53:01.001Z</time></trkpt><trkpt lat="-19.437300692715976" lon="121.4917623840049"><ele>31.0</ele><time>2026-04-24T03:53:02.001Z</time></trkpt><trkpt lat="-19.437077079428597" lon="121.4919703167062"><ele>31.0</ele><time>2026-04-24T03:53:03.001Z</time></trkpt><trkpt lat="-19.436853230926395" lon="121.4921753117736"><ele>31.0</ele><time>2026-04-24T03:53:04.001Z</time></trkpt><trkpt lat="-19.436630083839436" lon="121.49238105335566"><ele>31.0</ele><time>2026-04-24T03:53:05.001Z</time></trkpt><trkpt lat="-19.436407021526065" lon="121.49259166578794"><ele>31.0</ele><time>2026-04-24T03:53:06.001Z</time></trkpt><trkpt lat="-19.436181206145097" lon="121.4928006342037"><ele>31.0</ele><time>2026-04-24T03:53:07.001Z</time></trkpt><trkpt lat="-19.43595443449229" lon="121.49300940568341"><ele>31.0</ele><time>2026-04-24T03:53:08.001Z</time></trkpt><trkpt lat="-19.435729175835874" lon="121.4932198685427"><ele>31.0</ele><time>2026-04-24T03:53:09.001Z</time></trkpt><trkpt lat="-19.435505261189093" lon="121.4934259732286"><ele>31.0</ele><time>2026-04-24T03:53:10.001Z</time></trkpt><trkpt lat="-19.43527771802681" lon="121.49363315163384"><ele>31.0</ele><time>2026-04-24T03:53:11.001Z</time></trkpt><trkpt lat="-19.435050479788664" lon="121.49384018495157"><ele>31.5</ele><time>2026-04-24T03:53:12.001Z</time></trkpt><trkpt lat="-19.43482542680747" lon="121.49404787438615"><ele>32.0</ele><time>2026-04-24T03:53:13.001Z</time></trkpt><trkpt lat="-19.434600614009526" lon="121.49425600407163"><ele>32.0</ele><time>2026-04-24T03:53:14.001Z</time></trkpt><trkpt lat="-19.434378565990762" lon="121.49446333711869"><ele>32.0</ele><time>2026-04-24T03:53:15Z</time></trkpt><trkpt lat="-19.434153070026202" lon="121.4946710213653"><ele>32.0</ele><time>2026-04-24T03:53:16Z</time></trkpt><trkpt lat="-19.433925938687445" lon="121.4948812422073"><ele>32.0</ele><time>2026-04-24T03:53:17Z</time></trkpt><trkpt lat="-19.433699545536538" lon="121.49508803550363"><ele>32.0</ele><time>2026-04-24T03:53:18Z</time></trkpt><trkpt lat="-19.4334719171636" lon="121.4952964759289"><ele>32.0</ele><time>2026-04-24T03:53:19Z</time></trkpt><trkpt lat="-19.43324231677455" lon="121.49550780961258"><ele>32.5</ele><time>2026-04-24T03:53:20Z</time></trkpt><trkpt lat="-19.433012568980025" lon="121.4957199046919"><ele>33.0</ele><time>2026-04-24T03:53:21Z</time></trkpt><trkpt lat="-19.432782179256623" lon="121.49593379225568"><ele>33.5</ele><time>2026-04-24T03:53:22Z</time></trkpt><trkpt lat="-19.432549653436574" lon="121.49614752475405"><ele>34.0</ele><time>2026-04-24T03:53:23Z</time></trkpt><trkpt lat="-19.432318919861334" lon="121.49636357444204"><ele>32.5</ele><time>2026-04-24T03:53:24Z</time></trkpt><trkpt lat="-19.43208814263437" lon="121.49657891513121"><ele>31.0</ele><time>2026-04-24T03:53:25Z</time></trkpt><trkpt lat="-19.431859232308234" lon="121.49679377396748"><ele>31.0</ele><time>2026-04-24T03:53:26Z</time></trkpt><trkpt lat="-19.431630570033207" lon="121.4970109647691"><ele>31.0</ele><time>2026-04-24T03:53:27Z</time></trkpt><trkpt lat="-19.431402814310328" lon="121.49722693927863"><ele>31.0</ele><time>2026-04-24T03:53:28Z</time></trkpt><trkpt lat="-19.431173324650945" lon="121.49744174074634"><ele>31.0</ele><time>2026-04-24T03:53:29Z</time></trkpt><trkpt lat="-19.43094659966663" lon="121.49765033812243"><ele>31.0</ele><time>2026-04-24T03:53:30Z</time></trkpt><trkpt lat="-19.430720160253244" lon="121.4978569285978"><ele>31.0</ele><time>2026-04-24T03:53:31Z</time></trkpt><trkpt lat="-19.430494659140624" lon="121.49806158032675"><ele>31.5</ele><time>2026-04-24T03:53:32Z</time></trkpt><trkpt lat="-19.430269374050273" lon="121.49826784939704"><ele>32.0</ele><time>2026-04-24T03:53:33Z</time></trkpt><trkpt lat="-19.430045903016936" lon="121.49847257129787"><ele>32.0</ele><time>2026-04-24T03:53:34Z</time></trkpt><trkpt lat="-19.429821555755062" lon="121.49867536340132"><ele>32.0</ele><time>2026-04-24T03:53:35Z</time></trkpt><trkpt lat="-19.429596905698112" lon="121.49888119681677"><ele>32.5</ele><time>2026-04-24T03:53:36Z</time></trkpt><trkpt lat="-19.429372038838878" lon="121.49908634981684"><ele>33.0</ele><time>2026-04-24T03:53:37Z</time></trkpt><trkpt lat="-19.429148177531665" lon="121.49929277244999"><ele>33.0</ele><time>2026-04-24T03:53:38Z</time></trkpt><trkpt lat="-19.428927280097568" lon="121.49950053835262"><ele>33.0</ele><time>2026-04-24T03:53:39Z</time></trkpt><trkpt lat="-19.428703110519" lon="121.49971070320929"><ele>33.0</ele><time>2026-04-24T03:53:40Z</time></trkpt><trkpt lat="-19.428475581288605" lon="121.49991784182346"><ele>33.0</ele><time>2026-04-24T03:53:40.999Z</time></trkpt><trkpt lat="-19.428243868236123" lon="121.50012118876136"><ele>33.0</ele><time>2026-04-24T03:53:41.999Z</time></trkpt><trkpt lat="-19.428010126475318" lon="121.50032151635743"><ele>33.0</ele><time>2026-04-24T03:53:42.999Z</time></trkpt><trkpt lat="-19.427774373725693" lon="121.50051266773956"><ele>33.0</ele><time>2026-04-24T03:53:43.999Z</time></trkpt><trkpt lat="-19.427535090680134" lon="121.50069780947817"><ele>33.0</ele><time>2026-04-24T03:53:44.999Z</time></trkpt><trkpt lat="-19.427292992886084" lon="121.50087938480698"><ele>33.0</ele><time>2026-04-24T03:53:45.999Z</time></trkpt><trkpt lat="-19.427048914478693" lon="121.50105603512945"><ele>33.0</ele><time>2026-04-24T03:53:46.999Z</time></trkpt><trkpt lat="-19.426801457106368" lon="121.50122868278855"><ele>33.0</ele><time>2026-04-24T03:53:47.999Z</time></trkpt><trkpt lat="-19.426549850507016" lon="121.50139543074243"><ele>33.0</ele><time>2026-04-24T03:53:48.999Z</time></trkpt><trkpt lat="-19.42629391794506" lon="121.5015572789974"><ele>33.5</ele><time>2026-04-24T03:53:49.999Z</time></trkpt><trkpt lat="-19.426033084746553" lon="121.50171751018077"><ele>34.0</ele><time>2026-04-24T03:53:50.999Z</time></trkpt><trkpt lat="-19.42577189280155" lon="121.5018734548143"><ele>34.0</ele><time>2026-04-24T03:53:51.999Z</time></trkpt><trkpt lat="-19.425508139620643" lon="121.50202684558654"><ele>34.0</ele><time>2026-04-24T03:53:52.999Z</time></trkpt><trkpt lat="-19.42524413399979" lon="121.5021716103129"><ele>33.0</ele><time>2026-04-24T03:53:53.999Z</time></trkpt><trkpt lat="-19.424978037846635" lon="121.50230933676906"><ele>32.0</ele><time>2026-04-24T03:53:54.999Z</time></trkpt><trkpt lat="-19.424713525407288" lon="121.50244315624364"><ele>32.5</ele><time>2026-04-24T03:53:55.999Z</time></trkpt><trkpt lat="-19.42444824366694" lon="121.502570453704"><ele>33.0</ele><time>2026-04-24T03:53:56.999Z</time></trkpt><trkpt lat="-19.424181043695135" lon="121.50269248004909"><ele>33.0</ele><time>2026-04-24T03:53:57.999Z</time></trkpt><trkpt lat="-19.423913411131533" lon="121.50281517831364"><ele>33.0</ele><time>2026-04-24T03:53:58.999Z</time></trkpt><trkpt lat="-19.423651184921876" lon="121.50294463924794"><ele>33.5</ele><time>2026-04-24T03:53:59.999Z</time></trkpt><trkpt lat="-19.423388610378687" lon="121.50307940718487"><ele>34.0</ele><time>2026-04-24T03:54:00.999Z</time></trkpt><trkpt lat="-19.42312924230984" lon="121.50321073769383"><ele>33.0</ele><time>2026-04-24T03:54:01.999Z</time></trkpt><trkpt lat="-19.422870083354358" lon="121.50334000563991"><ele>32.0</ele><time>2026-04-24T03:54:02.999Z</time></trkpt><trkpt lat="-19.422611479745495" lon="121.50346615598657"><ele>32.0</ele><time>2026-04-24T03:54:03.999Z</time></trkpt><trkpt lat="-19.422348430110084" lon="121.50359399084653"><ele>32.0</ele><time>2026-04-24T03:54:04.999Z</time></trkpt><trkpt lat="-19.422084485764973" lon="121.5037235482912"><ele>32.5</ele><time>2026-04-24T03:54:05.999Z</time></trkpt><trkpt lat="-19.421819430026503" lon="121.50385312776604"><ele>33.0</ele><time>2026-04-24T03:54:06.999Z</time></trkpt><trkpt lat="-19.42155400404579" lon="121.50398153612107"><ele>32.0</ele><time>2026-04-24T03:54:07.999Z</time></trkpt><trkpt lat="-19.421288891260794" lon="121.50410965947367"><ele>31.0</ele><time>2026-04-24T03:54:08.999Z</time></trkpt><trkpt lat="-19.42102256975422" lon="121.504239122648"><ele>31.0</ele><time>2026-04-24T03:54:09.999Z</time></trkpt><trkpt lat="-19.420757946601167" lon="121.50436907803964"><ele>31.0</ele><time>2026-04-24T03:54:10.999Z</time></trkpt><trkpt lat="-19.42049226411079" lon="121.50449990752928"><ele>31.0</ele><time>2026-04-24T03:54:11.999Z</time></trkpt><trkpt lat="-19.420238093048972" lon="121.5046230402363"><ele>31.0</ele><time>2026-04-24T03:54:12.999Z</time></trkpt><trkpt lat="-19.419998643944165" lon="121.50473897054667"><ele>31.0</ele><time>2026-04-24T03:54:13.999Z</time></trkpt><trkpt lat="-19.41975238364866" lon="121.50485558248708"><ele>31.0</ele><time>2026-04-24T03:54:14.999Z</time></trkpt><trkpt lat="-19.419498712408018" lon="121.50497725518528"><ele>31.0</ele><time>2026-04-24T03:54:15.999Z</time></trkpt><trkpt lat="-19.419243439626317" lon="121.50510119000592"><ele>31.0</ele><time>2026-04-24T03:54:16.999Z</time></trkpt><trkpt lat="-19.418984878138208" lon="121.5052269502972"><ele>31.0</ele><time>2026-04-24T03:54:17.999Z</time></trkpt><trkpt lat="-19.41872553843023" lon="121.50535390329391"><ele>31.0</ele><time>2026-04-24T03:54:18.999Z</time></trkpt><trkpt lat="-19.41846499036753" lon="121.50547895079154"><ele>31.0</ele><time>2026-04-24T03:54:19.999Z</time></trkpt><trkpt lat="-19.418203056729308" lon="121.50560770248683"><ele>31.0</ele><time>2026-04-24T03:54:20.999Z</time></trkpt><trkpt lat="-19.41794120226868" lon="121.50573824704533"><ele>31.5</ele><time>2026-04-24T03:54:21.999Z</time></trkpt><trkpt lat="-19.417681771603277" lon="121.505866473103"><ele>32.0</ele><time>2026-04-24T03:54:22.999Z</time></trkpt><trkpt lat="-19.41742502051001" lon="121.50599407048716"><ele>32.0</ele><time>2026-04-24T03:54:23.999Z</time></trkpt><trkpt lat="-19.417164949725787" lon="121.5061211393518"><ele>32.0</ele><time>2026-04-24T03:54:24.999Z</time></trkpt><trkpt lat="-19.416904545399895" lon="121.50624805387444"><ele>32.5</ele><time>2026-04-24T03:54:25.999Z</time></trkpt><trkpt lat="-19.416645997612708" lon="121.50637395987833"><ele>33.0</ele><time>2026-04-24T03:54:26.999Z</time></trkpt><trkpt lat="-19.4163845552717" lon="121.50650042681525"><ele>33.0</ele><time>2026-04-24T03:54:27.999Z</time></trkpt><trkpt lat="-19.416121269408887" lon="121.50663001551928"><ele>33.0</ele><time>2026-04-24T03:54:28.999Z</time></trkpt><trkpt lat="-19.415856104846576" lon="121.50676290702287"><ele>33.0</ele><time>2026-04-24T03:54:29.999Z</time></trkpt><trkpt lat="-19.415592487820362" lon="121.50689626221774"><ele>33.0</ele><time>2026-04-24T03:54:30.999Z</time></trkpt><trkpt lat="-19.415326454574245" lon="121.50702877522487"><ele>32.5</ele><time>2026-04-24T03:54:31.999Z</time></trkpt><trkpt lat="-19.41506029506065" lon="121.50716087133146"><ele>32.0</ele><time>2026-04-24T03:54:32.999Z</time></trkpt><trkpt lat="-19.4147925383848" lon="121.50728950797819"><ele>30.5</ele><time>2026-04-24T03:54:33.999Z</time></trkpt><trkpt lat="-19.414521106892145" lon="121.50741848353867"><ele>29.0</ele><time>2026-04-24T03:54:34.999Z</time></trkpt><trkpt lat="-19.414250389448" lon="121.50754947103007"><ele>29.0</ele><time>2026-04-24T03:54:35.999Z</time></trkpt><trkpt lat="-19.4139792198744" lon="121.50768059723887"><ele>29.0</ele><time>2026-04-24T03:54:36.999Z</time></trkpt><trkpt lat="-19.413709021829636" lon="121.50781200853801"><ele>30.0</ele><time>2026-04-24T03:54:37.999Z</time></trkpt><trkpt lat="-19.41343903817963" lon="121.5079439206407"><ele>31.0</ele><time>2026-04-24T03:54:38.999Z</time></trkpt><trkpt lat="-19.41317136835222" lon="121.50807396877084"><ele>31.0</ele><time>2026-04-24T03:54:39.999Z</time></trkpt><trkpt lat="-19.412905290486947" lon="121.50820305579735"><ele>31.0</ele><time>2026-04-24T03:54:40.999Z</time></trkpt><trkpt lat="-19.41263919466068" lon="121.50833263397439"><ele>31.0</ele><time>2026-04-24T03:54:41.999Z</time></trkpt><trkpt lat="-19.412372322038912" lon="121.50846119524002"><ele>31.0</ele><time>2026-04-24T03:54:42.999Z</time></trkpt><trkpt lat="-19.412105354485995" lon="121.50859124207247"><ele>30.5</ele><time>2026-04-24T03:54:43.999Z</time></trkpt><trkpt lat="-19.411839052735335" lon="121.50872533919585"><ele>30.0</ele><time>2026-04-24T03:54:44.999Z</time></trkpt><trkpt lat="-19.41157087217279" lon="121.50885994225727"><ele>30.5</ele><time>2026-04-24T03:54:45.999Z</time></trkpt><trkpt lat="-19.411302162424743" lon="121.50899193729893"><ele>31.0</ele><time>2026-04-24T03:54:46.999Z</time></trkpt><trkpt lat="-19.411032774852796" lon="121.50912323021038"><ele>31.0</ele><time>2026-04-24T03:54:47.999Z</time></trkpt><trkpt lat="-19.41076057371405" lon="121.5092540039992"><ele>31.0</ele><time>2026-04-24T03:54:48.999Z</time></trkpt><trkpt lat="-19.41048929837674" lon="121.50938743327922"><ele>31.0</ele><time>2026-04-24T03:54:49.999Z</time></trkpt><trkpt lat="-19.410216147925258" lon="121.5095213201831"><ele>31.0</ele><time>2026-04-24T03:54:50.999Z</time></trkpt><trkpt lat="-19.409942171032668" lon="121.50965424639341"><ele>31.0</ele><time>2026-04-24T03:54:51.999Z</time></trkpt><trkpt lat="-19.409665454113142" lon="121.50978733184648"><ele>31.0</ele><time>2026-04-24T03:54:52.999Z</time></trkpt><trkpt lat="-19.409388050087255" lon="121.50992234454641"><ele>31.0</ele><time>2026-04-24T03:54:53.999Z</time></trkpt><trkpt lat="-19.409111436157087" lon="121.51005831513437"><ele>31.0</ele><time>2026-04-24T03:54:54.999Z</time></trkpt><trkpt lat="-19.40883588440279" lon="121.51019538801494"><ele>31.0</ele><time>2026-04-24T03:54:55.999Z</time></trkpt><trkpt lat="-19.408559347045262" lon="121.51033364596233"><ele>31.0</ele><time>2026-04-24T03:54:56.999Z</time></trkpt><trkpt lat="-19.408284919118426" lon="121.51046888243468"><ele>31.0</ele><time>2026-04-24T03:54:57.999Z</time></trkpt><trkpt lat="-19.408007807106447" lon="121.51060321694553"><ele>31.0</ele><time>2026-04-24T03:54:58.999Z</time></trkpt><trkpt lat="-19.407733390659704" lon="121.51073578150825"><ele>30.0</ele><time>2026-04-24T03:54:59.999Z</time></trkpt><trkpt lat="-19.407457581561548" lon="121.51086863723721"><ele>29.0</ele><time>2026-04-24T03:55:00.999Z</time></trkpt><trkpt lat="-19.407184937326146" lon="121.51100376450682"><ele>28.5</ele><time>2026-04-24T03:55:01.999Z</time></trkpt><trkpt lat="-19.406912188967183" lon="121.51113741859109"><ele>28.0</ele><time>2026-04-24T03:55:02.999Z</time></trkpt><trkpt lat="-19.406640029672477" lon="121.51126909684172"><ele>29.0</ele><time>2026-04-24T03:55:03.999Z</time></trkpt><trkpt lat="-19.40636821934766" lon="121.5114014939267"><ele>30.0</ele><time>2026-04-24T03:55:04.999Z</time></trkpt><trkpt lat="-19.40609987208503" lon="121.51153202368987"><ele>30.0</ele><time>2026-04-24T03:55:05.999Z</time></trkpt><trkpt lat="-19.40583355012993" lon="121.51166192003788"><ele>30.0</ele><time>2026-04-24T03:55:06.999Z</time></trkpt><trkpt lat="-19.40556900189295" lon="121.51179177385004"><ele>30.5</ele><time>2026-04-24T03:55:07.999Z</time></trkpt><trkpt lat="-19.40530736566928" lon="121.51191910876348"><ele>31.0</ele><time>2026-04-24T03:55:08.999Z</time></trkpt><trkpt lat="-19.405044925550065" lon="121.51204594832687"><ele>30.5</ele><time>2026-04-24T03:55:09.999Z</time></trkpt><trkpt lat="-19.404783762609366" lon="121.5121718085972"><ele>30.0</ele><time>2026-04-24T03:55:10.999Z</time></trkpt><trkpt lat="-19.40452353198518" lon="121.51229896586271"><ele>29.5</ele><time>2026-04-24T03:55:11.999Z</time></trkpt><trkpt lat="-19.404260997408368" lon="121.51242869170852"><ele>29.0</ele><time>2026-04-24T03:55:12.999Z</time></trkpt><trkpt lat="-19.403998810966367" lon="121.51255633562748"><ele>29.0</ele><time>2026-04-24T03:55:13.999Z</time></trkpt><trkpt lat="-19.40373503158799" lon="121.51268666883679"><ele>29.0</ele><time>2026-04-24T03:55:14.999Z</time></trkpt><trkpt lat="-19.403470612208864" lon="121.51281933845003"><ele>29.0</ele><time>2026-04-24T03:55:15.999Z</time></trkpt><trkpt lat="-19.403207034797102" lon="121.5129492215808"><ele>29.0</ele><time>2026-04-24T03:55:16.999Z</time></trkpt><trkpt lat="-19.402940175116537" lon="121.5130775555682"><ele>28.5</ele><time>2026-04-24T03:55:17.999Z</time></trkpt><trkpt lat="-19.40267220623824" lon="121.5132084942941"><ele>28.0</ele><time>2026-04-24T03:55:18.999Z</time></trkpt><trkpt lat="-19.40240214869779" lon="121.51333951354574"><ele>28.5</ele><time>2026-04-24T03:55:19.999Z</time></trkpt><trkpt lat="-19.402133654790042" lon="121.51346868431888"><ele>29.0</ele><time>2026-04-24T03:55:20.999Z</time></trkpt><trkpt lat="-19.401862613993874" lon="121.51360017486599"><ele>29.0</ele><time>2026-04-24T03:55:21.999Z</time></trkpt><trkpt lat="-19.401592550578847" lon="121.51373149569982"><ele>29.0</ele><time>2026-04-24T03:55:22.999Z</time></trkpt><trkpt lat="-19.40132294961287" lon="121.51386346397977"><ele>29.0</ele><time>2026-04-24T03:55:23.999Z</time></trkpt><trkpt lat="-19.40105557255" lon="121.51399410694754"><ele>29.0</ele><time>2026-04-24T03:55:24.999Z</time></trkpt><trkpt lat="-19.400786793527825" lon="121.5141269263749"><ele>29.0</ele><time>2026-04-24T03:55:25.999Z</time></trkpt><trkpt lat="-19.4005202125531" lon="121.51425728351236"><ele>29.0</ele><time>2026-04-24T03:55:26.999Z</time></trkpt><trkpt lat="-19.40025412836031" lon="121.51438939440791"><ele>29.0</ele><time>2026-04-24T03:55:27.999Z</time></trkpt><trkpt lat="-19.39998964069723" lon="121.51452014425941"><ele>29.0</ele><time>2026-04-24T03:55:29Z</time></trkpt><trkpt lat="-19.39972379184657" lon="121.51465141651897"><ele>29.0</ele><time>2026-04-24T03:55:30Z</time></trkpt><trkpt lat="-19.399459184220742" lon="121.51478145484441"><ele>29.0</ele><time>2026-04-24T03:55:31Z</time></trkpt><trkpt lat="-19.399192679883242" lon="121.51491380425988"><ele>29.0</ele><time>2026-04-24T03:55:32Z</time></trkpt><trkpt lat="-19.398923948980304" lon="121.51504598799463"><ele>29.0</ele><time>2026-04-24T03:55:33Z</time></trkpt><trkpt lat="-19.398653730217603" lon="121.51517508939496"><ele>29.0</ele><time>2026-04-24T03:55:34Z</time></trkpt><trkpt lat="-19.398381132214762" lon="121.51530582568175"><ele>29.0</ele><time>2026-04-24T03:55:35Z</time></trkpt><trkpt lat="-19.398108847267824" lon="121.51543813786333"><ele>28.0</ele><time>2026-04-24T03:55:36Z</time></trkpt><trkpt lat="-19.39783622917881" lon="121.51557091714871"><ele>27.0</ele><time>2026-04-24T03:55:37Z</time></trkpt><trkpt lat="-19.397562354978632" lon="121.5157044935957"><ele>27.0</ele><time>2026-04-24T03:55:38Z</time></trkpt><trkpt lat="-19.397288374409314" lon="121.5158386435054"><ele>27.0</ele><time>2026-04-24T03:55:39Z</time></trkpt><trkpt lat="-19.397015348055884" lon="121.51597391562697"><ele>27.0</ele><time>2026-04-24T03:55:40Z</time></trkpt><trkpt lat="-19.396741675166574" lon="121.51610939558448"><ele>27.0</ele><time>2026-04-24T03:55:41Z</time></trkpt><trkpt lat="-19.396469747521888" lon="121.51623977179779"><ele>26.0</ele><time>2026-04-24T03:55:42Z</time></trkpt><trkpt lat="-19.396197522727725" lon="121.51636976752516"><ele>25.0</ele><time>2026-04-24T03:55:43Z</time></trkpt><trkpt lat="-19.39593013343261" lon="121.51650306897278"><ele>25.0</ele><time>2026-04-24T03:55:44Z</time></trkpt><trkpt lat="-19.39566714616469" lon="121.51663777055248"><ele>25.0</ele><time>2026-04-24T03:55:45Z</time></trkpt><trkpt lat="-19.395402936182045" lon="121.516771808405"><ele>25.5</ele><time>2026-04-24T03:55:46Z</time></trkpt><trkpt lat="-19.39513598559222" lon="121.51690190700721"><ele>26.0</ele><time>2026-04-24T03:55:47Z</time></trkpt><trkpt lat="-19.39486769120112" lon="121.51703061720268"><ele>27.0</ele><time>2026-04-24T03:55:48Z</time></trkpt><trkpt lat="-19.394599004831306" lon="121.5171615384092"><ele>28.0</ele><time>2026-04-24T03:55:49Z</time></trkpt><trkpt lat="-19.394331928202075" lon="121.51729493933829"><ele>28.0</ele><time>2026-04-24T03:55:50Z</time></trkpt><trkpt lat="-19.39406454877712" lon="121.51742650697487"><ele>28.0</ele><time>2026-04-24T03:55:51Z</time></trkpt><trkpt lat="-19.393797925622568" lon="121.51755636713379"><ele>27.0</ele><time>2026-04-24T03:55:52Z</time></trkpt><trkpt lat="-19.393533985901254" lon="121.51768688747802"><ele>26.0</ele><time>2026-04-24T03:55:53Z</time></trkpt><trkpt lat="-19.393270829923228" lon="121.51781711071378"><ele>26.0</ele><time>2026-04-24T03:55:54.001Z</time></trkpt><trkpt lat="-19.393007446737197" lon="121.5179450386464"><ele>26.0</ele><time>2026-04-24T03:55:55.001Z</time></trkpt><trkpt lat="-19.39274404672136" lon="121.51807335101593"><ele>26.5</ele><time>2026-04-24T03:55:56.001Z</time></trkpt><trkpt lat="-19.392482008882126" lon="121.51820175998607"><ele>27.0</ele><time>2026-04-24T03:55:57.001Z</time></trkpt><trkpt lat="-19.392216302175836" lon="121.51833081587677"><ele>26.5</ele><time>2026-04-24T03:55:58.001Z</time></trkpt><trkpt lat="-19.391950462341228" lon="121.5184600615854"><ele>26.0</ele><time>2026-04-24T03:55:59.001Z</time></trkpt><trkpt lat="-19.391686973242283" lon="121.5185879225764"><ele>26.0</ele><time>2026-04-24T03:56:00.001Z</time></trkpt><trkpt lat="-19.391421737645352" lon="121.51871796349957"><ele>26.0</ele><time>2026-04-24T03:56:01.001Z</time></trkpt><trkpt lat="-19.391152681294106" lon="121.51884924862799"><ele>26.0</ele><time>2026-04-24T03:56:02.001Z</time></trkpt><trkpt lat="-19.390886537516597" lon="121.5189801108529"><ele>26.0</ele><time>2026-04-24T03:56:03.001Z</time></trkpt><trkpt lat="-19.390620233245862" lon="121.51910988272775"><ele>26.0</ele><time>2026-04-24T03:56:04.001Z</time></trkpt><trkpt lat="-19.39035339038668" lon="121.51923847832465"><ele>26.0</ele><time>2026-04-24T03:56:05.001Z</time></trkpt><trkpt lat="-19.390091268503497" lon="121.51936580760892"><ele>26.0</ele><time>2026-04-24T03:56:06.001Z</time></trkpt><trkpt lat="-19.389828782469333" lon="121.51949244204091"><ele>26.0</ele><time>2026-04-24T03:56:07.001Z</time></trkpt><trkpt lat="-19.389564584222413" lon="121.51961693580131"><ele>26.0</ele><time>2026-04-24T03:56:08.001Z</time></trkpt><trkpt lat="-19.38930237406621" lon="121.51974386340291"><ele>26.0</ele><time>2026-04-24T03:56:09.001Z</time></trkpt><trkpt lat="-19.389041147928076" lon="121.51987022923323"><ele>25.5</ele><time>2026-04-24T03:56:10.001Z</time></trkpt><trkpt lat="-19.388781107670656" lon="121.51999668562638"><ele>25.0</ele><time>2026-04-24T03:56:11.001Z</time></trkpt><trkpt lat="-19.388520638840816" lon="121.52012359329724"><ele>25.0</ele><time>2026-04-24T03:56:12.001Z</time></trkpt><trkpt lat="-19.388259510353656" lon="121.52025462700392"><ele>25.0</ele><time>2026-04-24T03:56:13.001Z</time></trkpt><trkpt lat="-19.387998262065395" lon="121.52038571065957"><ele>24.5</ele><time>2026-04-24T03:56:14.001Z</time></trkpt><trkpt lat="-19.387735857298946" lon="121.52051316001291"><ele>24.0</ele><time>2026-04-24T03:56:15.001Z</time></trkpt><trkpt lat="-19.387474966639402" lon="121.52063928426671"><ele>24.0</ele><time>2026-04-24T03:56:16.001Z</time></trkpt><trkpt lat="-19.387215326117524" lon="121.52076596002689"><ele>24.0</ele><time>2026-04-24T03:56:17.001Z</time></trkpt><trkpt lat="-19.386954870607166" lon="121.52089372178372"><ele>24.0</ele><time>2026-04-24T03:56:18.001Z</time></trkpt><trkpt lat="-19.386695168424733" lon="121.52102122233114"><ele>24.0</ele><time>2026-04-24T03:56:19.001Z</time></trkpt><trkpt lat="-19.386433980523986" lon="121.52114822934304"><ele>25.0</ele><time>2026-04-24T03:56:20.001Z</time></trkpt><trkpt lat="-19.386172356577084" lon="121.52127569916227"><ele>26.0</ele><time>2026-04-24T03:56:21.001Z</time></trkpt><trkpt lat="-19.385910014486353" lon="121.5214072390931"><ele>26.0</ele><time>2026-04-24T03:56:22.001Z</time></trkpt><trkpt lat="-19.385645457073565" lon="121.52153802505633"><ele>26.0</ele><time>2026-04-24T03:56:23.001Z</time></trkpt><trkpt lat="-19.3853799698906" lon="121.52167058614397"><ele>25.5</ele><time>2026-04-24T03:56:24.001Z</time></trkpt><trkpt lat="-19.385113495751586" lon="121.5218003930551"><ele>25.0</ele><time>2026-04-24T03:56:25.001Z</time></trkpt><trkpt lat="-19.38484539671422" lon="121.52193089186444"><ele>25.0</ele><time>2026-04-24T03:56:26.001Z</time></trkpt><trkpt lat="-19.384578206869946" lon="121.52206061771913"><ele>25.0</ele><time>2026-04-24T03:56:27.001Z</time></trkpt><trkpt lat="-19.384309254753987" lon="121.52219187300767"><ele>24.5</ele><time>2026-04-24T03:56:28.001Z</time></trkpt><trkpt lat="-19.384040664176776" lon="121.52232241562855"><ele>24.0</ele><time>2026-04-24T03:56:29.001Z</time></trkpt><trkpt lat="-19.383769995309535" lon="121.52245345467762"><ele>25.0</ele><time>2026-04-24T03:56:30.001Z</time></trkpt><trkpt lat="-19.383497034277767" lon="121.5225866460447"><ele>26.0</ele><time>2026-04-24T03:56:31.001Z</time></trkpt><trkpt lat="-19.383225363967345" lon="121.52271895437887"><ele>25.5</ele><time>2026-04-24T03:56:32.001Z</time></trkpt><trkpt lat="-19.38295744520319" lon="121.52285062909377"><ele>25.0</ele><time>2026-04-24T03:56:33.001Z</time></trkpt><trkpt lat="-19.382689676364496" lon="121.52298179627131"><ele>24.0</ele><time>2026-04-24T03:56:34.001Z</time></trkpt><trkpt lat="-19.3824191965532" lon="121.52311434522079"><ele>23.0</ele><time>2026-04-24T03:56:35.001Z</time></trkpt><trkpt lat="-19.382148954166436" lon="121.5232443099165"><ele>23.0</ele><time>2026-04-24T03:56:36.001Z</time></trkpt><trkpt lat="-19.381875482438012" lon="121.52337706962486"><ele>23.0</ele><time>2026-04-24T03:56:37.001Z</time></trkpt><trkpt lat="-19.381602698106306" lon="121.52350925066845"><ele>23.5</ele><time>2026-04-24T03:56:38.001Z</time></trkpt><trkpt lat="-19.381329261821435" lon="121.52364231084324"><ele>24.0</ele><time>2026-04-24T03:56:39.001Z</time></trkpt><trkpt lat="-19.38105514625872" lon="121.52377808021008"><ele>23.0</ele><time>2026-04-24T03:56:40.001Z</time></trkpt><trkpt lat="-19.380780405310425" lon="121.5239147910911"><ele>22.0</ele><time>2026-04-24T03:56:41.001Z</time></trkpt><trkpt lat="-19.38050869244141" lon="121.52405113934434"><ele>21.5</ele><time>2026-04-24T03:56:42.001Z</time></trkpt><trkpt lat="-19.380237669378232" lon="121.52418602936757"><ele>21.0</ele><time>2026-04-24T03:56:43.001Z</time></trkpt><trkpt lat="-19.379963433546113" lon="121.5243187336114"><ele>21.0</ele><time>2026-04-24T03:56:44.001Z</time></trkpt><trkpt lat="-19.379692231114092" lon="121.52444669949074"><ele>21.0</ele><time>2026-04-24T03:56:45.001Z</time></trkpt><trkpt lat="-19.37942175129066" lon="121.52457796991878"><ele>20.0</ele><time>2026-04-24T03:56:46.001Z</time></trkpt><trkpt lat="-19.37915203233567" lon="121.52471024619864"><ele>19.0</ele><time>2026-04-24T03:56:47.001Z</time></trkpt><trkpt lat="-19.378882162174882" lon="121.52484135434128"><ele>18.5</ele><time>2026-04-24T03:56:48.001Z</time></trkpt><trkpt lat="-19.37861182482806" lon="121.52496850089345"><ele>18.0</ele><time>2026-04-24T03:56:49.001Z</time></trkpt><trkpt lat="-19.378345080812885" lon="121.52509732529383"><ele>18.0</ele><time>2026-04-24T03:56:50.001Z</time></trkpt><trkpt lat="-19.37807845940848" lon="121.52523231611316"><ele>18.0</ele><time>2026-04-24T03:56:51.001Z</time></trkpt><trkpt lat="-19.3778127883296" lon="121.52537116719559"><ele>19.0</ele><time>2026-04-24T03:56:52.001Z</time></trkpt><trkpt lat="-19.37754944548337" lon="121.52550825822425"><ele>20.0</ele><time>2026-04-24T03:56:53.001Z</time></trkpt><trkpt lat="-19.377289022153874" lon="121.52564953803214"><ele>20.0</ele><time>2026-04-24T03:56:54.001Z</time></trkpt><trkpt lat="-19.377033651121117" lon="121.52579991567063"><ele>20.0</ele><time>2026-04-24T03:56:55.001Z</time></trkpt><trkpt lat="-19.376779135460694" lon="121.52595598417942"><ele>20.0</ele><time>2026-04-24T03:56:56.001Z</time></trkpt><trkpt lat="-19.37652519067008" lon="121.5261163788506"><ele>20.0</ele><time>2026-04-24T03:56:57.001Z</time></trkpt><trkpt lat="-19.376272587509344" lon="121.52628501856354"><ele>18.5</ele><time>2026-04-24T03:56:58.001Z</time></trkpt><trkpt lat="-19.37602387933053" lon="121.52645972901544"><ele>17.0</ele><time>2026-04-24T03:56:59.001Z</time></trkpt><trkpt lat="-19.375775930992706" lon="121.52663829164466"><ele>17.0</ele><time>2026-04-24T03:57:00.001Z</time></trkpt><trkpt lat="-19.37553077607823" lon="121.52681926207998"><ele>17.0</ele><time>2026-04-24T03:57:01.001Z</time></trkpt><trkpt lat="-19.375290626126308" lon="121.52700130245263"><ele>17.0</ele><time>2026-04-24T03:57:02.001Z</time></trkpt><trkpt lat="-19.375055104527345" lon="121.5271905015508"><ele>17.0</ele><time>2026-04-24T03:57:03.001Z</time></trkpt><trkpt lat="-19.3748263074736" lon="121.52738236595037"><ele>17.0</ele><time>2026-04-24T03:57:04.001Z</time></trkpt><trkpt lat="-19.374603214941946" lon="121.52757569018308"><ele>17.0</ele><time>2026-04-24T03:57:05.001Z</time></trkpt><trkpt lat="-19.374385847139667" lon="121.52776798505755"><ele>16.0</ele><time>2026-04-24T03:57:06.001Z</time></trkpt><trkpt lat="-19.374174747492884" lon="121.52796136296082"><ele>15.0</ele><time>2026-04-24T03:57:07.001Z</time></trkpt><trkpt lat="-19.373966515372526" lon="121.52815677843036"><ele>15.5</ele><time>2026-04-24T03:57:08.001Z</time></trkpt><trkpt lat="-19.373760134826213" lon="121.52835458349243"><ele>16.0</ele><time>2026-04-24T03:57:09.001Z</time></trkpt><trkpt lat="-19.37355508594612" lon="121.52855984492834"><ele>15.0</ele><time>2026-04-24T03:57:10.001Z</time></trkpt><trkpt lat="-19.37334686140968" lon="121.52876886523505"><ele>14.0</ele><time>2026-04-24T03:57:11.001Z</time></trkpt><trkpt lat="-19.37314664637953" lon="121.52896738350303"><ele>14.0</ele><time>2026-04-24T03:57:12.001Z</time></trkpt><trkpt lat="-19.37296318315262" lon="121.5291540029611"><ele>14.0</ele><time>2026-04-24T03:57:13.001Z</time></trkpt><trkpt lat="-19.372777306927144" lon="121.52934107865647"><ele>14.0</ele><time>2026-04-24T03:57:14.001Z</time></trkpt><trkpt lat="-19.37258524351716" lon="121.52952863196849"><ele>14.0</ele><time>2026-04-24T03:57:15.001Z</time></trkpt><trkpt lat="-19.372387433739913" lon="121.52972420615447"><ele>14.0</ele><time>2026-04-24T03:57:16.001Z</time></trkpt><trkpt lat="-19.372185142467288" lon="121.52992598130137"><ele>14.0</ele><time>2026-04-24T03:57:17.001Z</time></trkpt><trkpt lat="-19.3719801834818" lon="121.53013096770636"><ele>14.0</ele><time>2026-04-24T03:57:18.001Z</time></trkpt><trkpt lat="-19.37177146034725" lon="121.53033836290825"><ele>14.0</ele><time>2026-04-24T03:57:19.001Z</time></trkpt><trkpt lat="-19.371560775187504" lon="121.53054845057801"><ele>14.0</ele><time>2026-04-24T03:57:20.001Z</time></trkpt><trkpt lat="-19.371346343386378" lon="121.53075858864051"><ele>14.0</ele><time>2026-04-24T03:57:21.001Z</time></trkpt><trkpt lat="-19.371134382723103" lon="121.5309632654042"><ele>14.0</ele><time>2026-04-24T03:57:22.001Z</time></trkpt><trkpt lat="-19.370930125291533" lon="121.53116274828672"><ele>14.0</ele><time>2026-04-24T03:57:23.001Z</time></trkpt><trkpt lat="-19.370732016302405" lon="121.5313630912127"><ele>15.0</ele><time>2026-04-24T03:57:24.001Z</time></trkpt><trkpt lat="-19.370536745510595" lon="121.53156411517332"><ele>16.0</ele><time>2026-04-24T03:57:25.001Z</time></trkpt><trkpt lat="-19.37033986451531" lon="121.53175918949646"><ele>16.5</ele><time>2026-04-24T03:57:26.001Z</time></trkpt><trkpt lat="-19.370141276232324" lon="121.53195477784837"><ele>17.0</ele><time>2026-04-24T03:57:27.001Z</time></trkpt><trkpt lat="-19.369944116543437" lon="121.53215062364107"><ele>15.5</ele><time>2026-04-24T03:57:28.001Z</time></trkpt><trkpt lat="-19.369748709209002" lon="121.53234718320732"><ele>14.0</ele><time>2026-04-24T03:57:29.001Z</time></trkpt><trkpt lat="-19.369555280436966" lon="121.53253975439527"><ele>13.5</ele><time>2026-04-24T03:57:30.001Z</time></trkpt><trkpt lat="-19.369360519307982" lon="121.53273444922533"><ele>13.0</ele><time>2026-04-24T03:57:31.001Z</time></trkpt><trkpt lat="-19.369160889092637" lon="121.53292617232415"><ele>12.5</ele><time>2026-04-24T03:57:32.001Z</time></trkpt><trkpt lat="-19.36895993352663" lon="121.53312020753951"><ele>12.0</ele><time>2026-04-24T03:57:33.001Z</time></trkpt><trkpt lat="-19.368758652194717" lon="121.53331773735866"><ele>12.0</ele><time>2026-04-24T03:57:34.001Z</time></trkpt><trkpt lat="-19.368559043465922" lon="121.53351645356337"><ele>12.0</ele><time>2026-04-24T03:57:35.001Z</time></trkpt><trkpt lat="-19.368354722739685" lon="121.53371420565662"><ele>12.0</ele><time>2026-04-24T03:57:36.001Z</time></trkpt><trkpt lat="-19.368149501166002" lon="121.53391404756441"><ele>12.0</ele><time>2026-04-24T03:57:37.001Z</time></trkpt><trkpt lat="-19.36794445075894" lon="121.534115918934"><ele>12.0</ele><time>2026-04-24T03:57:38.001Z</time></trkpt><trkpt lat="-19.36753503311892" lon="121.53452533449469"><ele>11.5</ele><time>2026-04-24T03:57:40.001Z</time></trkpt><trkpt lat="-19.36733185424391" lon="121.53473112615708"><ele>11.0</ele><time>2026-04-24T03:57:41.001Z</time></trkpt><trkpt lat="-19.36712596776216" lon="121.53493492703596"><ele>11.0</ele><time>2026-04-24T03:57:42.001Z</time></trkpt><trkpt lat="-19.366921622770207" lon="121.53513927520932"><ele>11.0</ele><time>2026-04-24T03:57:43.001Z</time></trkpt><trkpt lat="-19.36672317067388" lon="121.53534332859377"><ele>11.0</ele><time>2026-04-24T03:57:44.001Z</time></trkpt><trkpt lat="-19.366525960364587" lon="121.5355436952932"><ele>11.0</ele><time>2026-04-24T03:57:45.001Z</time></trkpt><trkpt lat="-19.366327425886784" lon="121.53573839707249"><ele>11.0</ele><time>2026-04-24T03:57:46.001Z</time></trkpt><trkpt lat="-19.36612994505196" lon="121.53592907375499"><ele>11.0</ele><time>2026-04-24T03:57:47.001Z</time></trkpt><trkpt lat="-19.365928797426164" lon="121.53612272147207"><ele>11.5</ele><time>2026-04-24T03:57:48.001Z</time></trkpt><trkpt lat="-19.36572758940409" lon="121.53631954537998"><ele>12.0</ele><time>2026-04-24T03:57:49.001Z</time></trkpt><trkpt lat="-19.3655252001507" lon="121.53652018685912"><ele>12.0</ele><time>2026-04-24T03:57:50.001Z</time></trkpt><trkpt lat="-19.365324016811872" lon="121.5367221499766"><ele>12.0</ele><time>2026-04-24T03:57:51.001Z</time></trkpt><trkpt lat="-19.36512460951445" lon="121.53692477715714"><ele>12.5</ele><time>2026-04-24T03:57:52.001Z</time></trkpt><trkpt lat="-19.36492626096923" lon="121.53712508777745"><ele>13.0</ele><time>2026-04-24T03:57:53.001Z</time></trkpt><trkpt lat="-19.364730952522685" lon="121.53731940573196"><ele>12.5</ele><time>2026-04-24T03:57:54.001Z</time></trkpt><trkpt lat="-19.364529273433156" lon="121.53751363000454"><ele>12.0</ele><time>2026-04-24T03:57:55.001Z</time></trkpt><trkpt lat="-19.364326972219423" lon="121.5377109917181"><ele>12.5</ele><time>2026-04-24T03:57:56.001Z</time></trkpt><trkpt lat="-19.36412559478666" lon="121.53791136954924"><ele>13.0</ele><time>2026-04-24T03:57:57.001Z</time></trkpt><trkpt lat="-19.363924478846435" lon="121.5381127050284"><ele>12.5</ele><time>2026-04-24T03:57:58.001Z</time></trkpt><trkpt lat="-19.36372024169257" lon="121.53831819748345"><ele>12.0</ele><time>2026-04-24T03:57:59.001Z</time></trkpt><trkpt lat="-19.363512766015997" lon="121.53852374506062"><ele>12.5</ele><time>2026-04-24T03:58:00.001Z</time></trkpt><trkpt lat="-19.36330154957728" lon="121.53873411630147"><ele>13.0</ele><time>2026-04-24T03:58:01.001Z</time></trkpt><trkpt lat="-19.363089906032606" lon="121.53894259628193"><ele>13.5</ele><time>2026-04-24T03:58:02.001Z</time></trkpt><trkpt lat="-19.362877434436324" lon="121.53914985081104"><ele>14.0</ele><time>2026-04-24T03:58:03.001Z</time></trkpt><trkpt lat="-19.362667481517164" lon="121.53935655781707"><ele>14.0</ele><time>2026-04-24T03:58:04.001Z</time></trkpt><trkpt lat="-19.36245908916748" lon="121.53956480494972"><ele>14.0</ele><time>2026-04-24T03:58:05.001Z</time></trkpt><trkpt lat="-19.362247691821135" lon="121.53977933958804"><ele>14.0</ele><time>2026-04-24T03:58:06.001Z</time></trkpt><trkpt lat="-19.362036773942158" lon="121.53999042851044"><ele>14.0</ele><time>2026-04-24T03:58:07.001Z</time></trkpt><trkpt lat="-19.36182282175502" lon="121.54020443457948"><ele>14.0</ele><time>2026-04-24T03:58:08.001Z</time></trkpt><trkpt lat="-19.361607419447935" lon="121.54042314237108"><ele>14.0</ele><time>2026-04-24T03:58:09.001Z</time></trkpt><trkpt lat="-19.361391816258262" lon="121.5406394453444"><ele>13.0</ele><time>2026-04-24T03:58:10.001Z</time></trkpt><trkpt lat="-19.36117271571696" lon="121.54085766034422"><ele>12.0</ele><time>2026-04-24T03:58:11.001Z</time></trkpt><trkpt lat="-19.360953918337266" lon="121.54107210543245"><ele>12.0</ele><time>2026-04-24T03:58:12.001Z</time></trkpt><trkpt lat="-19.360730446676406" lon="121.54129369164599"><ele>12.0</ele><time>2026-04-24T03:58:13.001Z</time></trkpt><trkpt lat="-19.360506777750526" lon="121.54151244072037"><ele>12.5</ele><time>2026-04-24T03:58:14.001Z</time></trkpt><trkpt lat="-19.360283828873737" lon="121.54172973550293"><ele>13.0</ele><time>2026-04-24T03:58:15.001Z</time></trkpt><trkpt lat="-19.360059996873357" lon="121.5419502058057"><ele>13.0</ele><time>2026-04-24T03:58:16.001Z</time></trkpt><trkpt lat="-19.359837329278523" lon="121.54217195002843"><ele>13.0</ele><time>2026-04-24T03:58:17.001Z</time></trkpt><trkpt lat="-19.359613546313515" lon="121.54239127244854"><ele>13.5</ele><time>2026-04-24T03:58:18.001Z</time></trkpt><trkpt lat="-19.35938969348936" lon="121.54260998419348"><ele>14.0</ele><time>2026-04-24T03:58:19.001Z</time></trkpt><trkpt lat="-19.359168285103" lon="121.54282648617928"><ele>14.0</ele><time>2026-04-24T03:58:20.001Z</time></trkpt><trkpt lat="-19.358947303759518" lon="121.54304799737267"><ele>14.0</ele><time>2026-04-24T03:58:21.001Z</time></trkpt><trkpt lat="-19.358727367018837" lon="121.5432686664526"><ele>13.5</ele><time>2026-04-24T03:58:22.001Z</time></trkpt><trkpt lat="-19.35850497507863" lon="121.5434911424981"><ele>13.0</ele><time>2026-04-24T03:58:23.001Z</time></trkpt><trkpt lat="-19.35828035922836" lon="121.5437111057037"><ele>13.0</ele><time>2026-04-24T03:58:24.001Z</time></trkpt><trkpt lat="-19.358053881814662" lon="121.54393135381703"><ele>13.0</ele><time>2026-04-24T03:58:25.001Z</time></trkpt><trkpt lat="-19.357829980560886" lon="121.54415276856649"><ele>13.5</ele><time>2026-04-24T03:58:26.001Z</time></trkpt><trkpt lat="-19.357605350311612" lon="121.54437390266682"><ele>14.0</ele><time>2026-04-24T03:58:27.001Z</time></trkpt><trkpt lat="-19.35738092429437" lon="121.54459370018648"><ele>13.5</ele><time>2026-04-24T03:58:28.001Z</time></trkpt><trkpt lat="-19.357160570820145" lon="121.54481687425283"><ele>13.0</ele><time>2026-04-24T03:58:29.001Z</time></trkpt><trkpt lat="-19.356941415234537" lon="121.54503958036194"><ele>13.0</ele><time>2026-04-24T03:58:30.001Z</time></trkpt><trkpt lat="-19.356721396366407" lon="121.54525985914425"><ele>13.0</ele><time>2026-04-24T03:58:31.001Z</time></trkpt><trkpt lat="-19.35650316548314" lon="121.54547196648902"><ele>14.0</ele><time>2026-04-24T03:58:32.001Z</time></trkpt><trkpt lat="-19.35628468101487" lon="121.54568377907196"><ele>15.0</ele><time>2026-04-24T03:58:33.001Z</time></trkpt><trkpt lat="-19.356065480167587" lon="121.5458974530313"><ele>15.0</ele><time>2026-04-24T03:58:34.001Z</time></trkpt><trkpt lat="-19.355848272797026" lon="121.54611152714794"><ele>15.0</ele><time>2026-04-24T03:58:35.001Z</time></trkpt><trkpt lat="-19.355632676745067" lon="121.54632522151151"><ele>16.0</ele><time>2026-04-24T03:58:36.001Z</time></trkpt><trkpt lat="-19.35541570033508" lon="121.54654211593999"><ele>17.0</ele><time>2026-04-24T03:58:37.001Z</time></trkpt><trkpt lat="-19.35519855927992" lon="121.54675843616158"><ele>17.0</ele><time>2026-04-24T03:58:38.001Z</time></trkpt><trkpt lat="-19.354982481747346" lon="121.54697336617076"><ele>17.0</ele><time>2026-04-24T03:58:39.001Z</time></trkpt><trkpt lat="-19.354767058357968" lon="121.54718540994486"><ele>16.5</ele><time>2026-04-24T03:58:40.001Z</time></trkpt><trkpt lat="-19.354554551973152" lon="121.5473956640996"><ele>16.0</ele><time>2026-04-24T03:58:41.001Z</time></trkpt><trkpt lat="-19.35434451875434" lon="121.54760404711159"><ele>16.0</ele><time>2026-04-24T03:58:42.001Z</time></trkpt><trkpt lat="-19.354141642655915" lon="121.54780950448102"><ele>16.0</ele><time>2026-04-24T03:58:43.001Z</time></trkpt><trkpt lat="-19.35394000489691" lon="121.54801091688597"><ele>14.5</ele><time>2026-04-24T03:58:44.001Z</time></trkpt><trkpt lat="-19.3537358093756" lon="121.54821219727675"><ele>13.0</ele><time>2026-04-24T03:58:45.001Z</time></trkpt><trkpt lat="-19.353532016577713" lon="121.54841430441672"><ele>13.0</ele><time>2026-04-24T03:58:46.001Z</time></trkpt><trkpt lat="-19.35332794377715" lon="121.54861640935746"><ele>13.0</ele><time>2026-04-24T03:58:47.001Z</time></trkpt><trkpt lat="-19.353123497890255" lon="121.54882051683195"><ele>13.5</ele><time>2026-04-24T03:58:48.001Z</time></trkpt><trkpt lat="-19.35291916961891" lon="121.5490243515259"><ele>14.0</ele><time>2026-04-24T03:58:49.001Z</time></trkpt><trkpt lat="-19.352715983860566" lon="121.549228596275"><ele>14.0</ele><time>2026-04-24T03:58:50.001Z</time></trkpt><trkpt lat="-19.352514457466487" lon="121.54943417653158"><ele>14.0</ele><time>2026-04-24T03:58:51.001Z</time></trkpt><trkpt lat="-19.35231116126898" lon="121.54963796391569"><ele>14.0</ele><time>2026-04-24T03:58:52.001Z</time></trkpt><trkpt lat="-19.352107567703037" lon="121.54984248474244"><ele>14.0</ele><time>2026-04-24T03:58:53.001Z</time></trkpt><trkpt lat="-19.351903714756013" lon="121.55004904677631"><ele>14.0</ele><time>2026-04-24T03:58:54.001Z</time></trkpt><trkpt lat="-19.35170290704878" lon="121.55025834820835"><ele>14.0</ele><time>2026-04-24T03:58:55.001Z</time></trkpt><trkpt lat="-19.35150733157003" lon="121.55046759713525"><ele>14.0</ele><time>2026-04-24T03:58:56.001Z</time></trkpt><trkpt lat="-19.351316023319526" lon="121.55068393716715"><ele>14.0</ele><time>2026-04-24T03:58:57.001Z</time></trkpt><trkpt lat="-19.351127049964532" lon="121.5509053384883"><ele>14.0</ele><time>2026-04-24T03:58:58.001Z</time></trkpt><trkpt lat="-19.350953904687774" lon="121.55112194100298"><ele>14.0</ele><time>2026-04-24T03:58:59.001Z</time></trkpt><trkpt lat="-19.35079666837209" lon="121.55132502660439"><ele>14.0</ele><time>2026-04-24T03:59:00.001Z</time></trkpt><trkpt lat="-19.350636554366066" lon="121.55152885410962"><ele>14.0</ele><time>2026-04-24T03:59:01.001Z</time></trkpt><trkpt lat="-19.35047301752965" lon="121.55174005880518"><ele>14.0</ele><time>2026-04-24T03:59:02.001Z</time></trkpt><trkpt lat="-19.35030467090204" lon="121.55195489298717"><ele>14.0</ele><time>2026-04-24T03:59:03.001Z</time></trkpt><trkpt lat="-19.350130035690537" lon="121.55217200950673"><ele>14.0</ele><time>2026-04-24T03:59:04.001Z</time></trkpt><trkpt lat="-19.34995250543339" lon="121.55239089094212"><ele>14.0</ele><time>2026-04-24T03:59:05.001Z</time></trkpt><trkpt lat="-19.349772778920602" lon="121.55261595387485"><ele>14.0</ele><time>2026-04-24T03:59:06.001Z</time></trkpt><trkpt lat="-19.349592246882217" lon="121.55284321092145"><ele>14.0</ele><time>2026-04-24T03:59:07.001Z</time></trkpt><trkpt lat="-19.349410333835504" lon="121.55307467517257"><ele>14.0</ele><time>2026-04-24T03:59:08.001Z</time></trkpt><trkpt lat="-19.349228795059357" lon="121.55330827629794"><ele>14.0</ele><time>2026-04-24T03:59:09.001Z</time></trkpt><trkpt lat="-19.34904562717009" lon="121.55354194057539"><ele>15.0</ele><time>2026-04-24T03:59:10.001Z</time></trkpt><trkpt lat="-19.348863581650665" lon="121.55377573619532"><ele>16.0</ele><time>2026-04-24T03:59:11.001Z</time></trkpt><trkpt lat="-19.34868138190192" lon="121.55400983703889"><ele>16.0</ele><time>2026-04-24T03:59:12.001Z</time></trkpt><trkpt lat="-19.348498431418054" lon="121.55424610312762"><ele>16.0</ele><time>2026-04-24T03:59:13.001Z</time></trkpt><trkpt lat="-19.34831467647534" lon="121.5544828900436"><ele>16.5</ele><time>2026-04-24T03:59:14.001Z</time></trkpt><trkpt lat="-19.348130041757724" lon="121.554720628405"><ele>17.0</ele><time>2026-04-24T03:59:15.001Z</time></trkpt><trkpt lat="-19.347942998544134" lon="121.55495717743598"><ele>16.0</ele><time>2026-04-24T03:59:16.001Z</time></trkpt><trkpt lat="-19.34775749824517" lon="121.55519254309917"><ele>15.0</ele><time>2026-04-24T03:59:17.001Z</time></trkpt><trkpt lat="-19.347572287530685" lon="121.55542805994095"><ele>15.0</ele><time>2026-04-24T03:59:18.001Z</time></trkpt><trkpt lat="-19.3473854412689" lon="121.55566385144604"><ele>15.0</ele><time>2026-04-24T03:59:19.001Z</time></trkpt><trkpt lat="-19.347201249864586" lon="121.55589712484039"><ele>16.0</ele><time>2026-04-24T03:59:20.001Z</time></trkpt><trkpt lat="-19.34701786974992" lon="121.55613288281083"><ele>17.0</ele><time>2026-04-24T03:59:21.001Z</time></trkpt><trkpt lat="-19.34683399825677" lon="121.55636992647653"><ele>17.0</ele><time>2026-04-24T03:59:22.001Z</time></trkpt><trkpt lat="-19.346647469298727" lon="121.55660780499201"><ele>17.0</ele><time>2026-04-24T03:59:23.001Z</time></trkpt><trkpt lat="-19.34646192501738" lon="121.55684487790343"><ele>17.5</ele><time>2026-04-24T03:59:24.001Z</time></trkpt><trkpt lat="-19.346276181202253" lon="121.55708309320609"><ele>18.0</ele><time>2026-04-24T03:59:25.001Z</time></trkpt><trkpt lat="-19.346088315712947" lon="121.55732251392077"><ele>18.0</ele><time>2026-04-24T03:59:26.001Z</time></trkpt><trkpt lat="-19.34589984373309" lon="121.55756027191437"><ele>18.0</ele><time>2026-04-24T03:59:27.001Z</time></trkpt><trkpt lat="-19.345707184745294" lon="121.55779695009375"><ele>17.5</ele><time>2026-04-24T03:59:28.001Z</time></trkpt><trkpt lat="-19.34551454878327" lon="121.55803438691031"><ele>17.0</ele><time>2026-04-24T03:59:29.001Z</time></trkpt><trkpt lat="-19.345326317931846" lon="121.55827128437411"><ele>17.0</ele><time>2026-04-24T03:59:30.001Z</time></trkpt><trkpt lat="-19.34514464115027" lon="121.55851120474959"><ele>17.0</ele><time>2026-04-24T03:59:31.001Z</time></trkpt><trkpt lat="-19.344963777867417" lon="121.55874794485118"><ele>17.0</ele><time>2026-04-24T03:59:32.001Z</time></trkpt><trkpt lat="-19.34478169516221" lon="121.55898272307579"><ele>17.0</ele><time>2026-04-24T03:59:33Z</time></trkpt><trkpt lat="-19.34459502888126" lon="121.55921957955562"><ele>17.0</ele><time>2026-04-24T03:59:34Z</time></trkpt><trkpt lat="-19.344407891118777" lon="121.55945723997218"><ele>17.0</ele><time>2026-04-24T03:59:35Z</time></trkpt><trkpt lat="-19.34422292726193" lon="121.5596951063103"><ele>17.5</ele><time>2026-04-24T03:59:36Z</time></trkpt><trkpt lat="-19.344039870062016" lon="121.55993582298778"><ele>18.0</ele><time>2026-04-24T03:59:37Z</time></trkpt><trkpt lat="-19.34385641018744" lon="121.56017279802305"><ele>18.5</ele><time>2026-04-24T03:59:38Z</time></trkpt><trkpt lat="-19.343670794902323" lon="121.56040808420657"><ele>19.0</ele><time>2026-04-24T03:59:39Z</time></trkpt><trkpt lat="-19.343484465159037" lon="121.56064206913565"><ele>19.0</ele><time>2026-04-24T03:59:40Z</time></trkpt><trkpt lat="-19.343297936235626" lon="121.5608760953673"><ele>19.0</ele><time>2026-04-24T03:59:41Z</time></trkpt><trkpt lat="-19.34311478807086" lon="121.56110604174299"><ele>18.0</ele><time>2026-04-24T03:59:42Z</time></trkpt><trkpt lat="-19.342932255601077" lon="121.56133717273485"><ele>17.0</ele><time>2026-04-24T03:59:43Z</time></trkpt><trkpt lat="-19.342754069267013" lon="121.5615643781427"><ele>17.0</ele><time>2026-04-24T03:59:44Z</time></trkpt><trkpt lat="-19.342577531932776" lon="121.56179389189701"><ele>17.0</ele><time>2026-04-24T03:59:45Z</time></trkpt><trkpt lat="-19.342401774084525" lon="121.5620199637462"><ele>17.0</ele><time>2026-04-24T03:59:46Z</time></trkpt><trkpt lat="-19.342224134913057" lon="121.56224633080618"><ele>17.0</ele><time>2026-04-24T03:59:47Z</time></trkpt><trkpt lat="-19.34204321480605" lon="121.56247567194993"><ele>17.5</ele><time>2026-04-24T03:59:48Z</time></trkpt><trkpt lat="-19.34186267543614" lon="121.56270603721721"><ele>18.0</ele><time>2026-04-24T03:59:49Z</time></trkpt><trkpt lat="-19.341680489660863" lon="121.56293872256742"><ele>18.0</ele><time>2026-04-24T03:59:50Z</time></trkpt><trkpt lat="-19.34149845360327" lon="121.5631712274059"><ele>18.0</ele><time>2026-04-24T03:59:51Z</time></trkpt><trkpt lat="-19.3413158619928" lon="121.56340369004991"><ele>19.5</ele><time>2026-04-24T03:59:52Z</time></trkpt><trkpt lat="-19.34113318221077" lon="121.56363755235266"><ele>21.0</ele><time>2026-04-24T03:59:53Z</time></trkpt><trkpt lat="-19.340947676026772" lon="121.56387443324813"><ele>21.0</ele><time>2026-04-24T03:59:54Z</time></trkpt><trkpt lat="-19.34076067206578" lon="121.56411171170511"><ele>21.0</ele><time>2026-04-24T03:59:55Z</time></trkpt><trkpt lat="-19.340572331217853" lon="121.56434993239827"><ele>21.5</ele><time>2026-04-24T03:59:56Z</time></trkpt><trkpt lat="-19.340389000756304" lon="121.56458786233848"><ele>22.0</ele><time>2026-04-24T03:59:57Z</time></trkpt><trkpt lat="-19.34020705421321" lon="121.56482609900917"><ele>22.0</ele><time>2026-04-24T03:59:58Z</time></trkpt><trkpt lat="-19.34002636242608" lon="121.56506196009249"><ele>22.0</ele><time>2026-04-24T03:59:59Z</time></trkpt><trkpt lat="-19.339841967371626" lon="121.56529723717773"><ele>23.0</ele><time>2026-04-24T04:00:00Z</time></trkpt><trkpt lat="-19.339654905068315" lon="121.56553140902254"><ele>24.0</ele><time>2026-04-24T04:00:01Z</time></trkpt><trkpt lat="-19.339466268792897" lon="121.56576622360106"><ele>24.0</ele><time>2026-04-24T04:00:02Z</time></trkpt><trkpt lat="-19.33927684773253" lon="121.5660044887698"><ele>24.0</ele><time>2026-04-24T04:00:03Z</time></trkpt><trkpt lat="-19.33908630614282" lon="121.56624612993247"><ele>24.5</ele><time>2026-04-24T04:00:04Z</time></trkpt><trkpt lat="-19.33889517519993" lon="121.5664895470126"><ele>25.0</ele><time>2026-04-24T04:00:05Z</time></trkpt><trkpt lat="-19.33870363894831" lon="121.56673378014364"><ele>25.0</ele><time>2026-04-24T04:00:06Z</time></trkpt><trkpt lat="-19.338514038873303" lon="121.56697908714733"><ele>25.0</ele><time>2026-04-24T04:00:07Z</time></trkpt><trkpt lat="-19.33832336052585" lon="121.56722790904138"><ele>25.5</ele><time>2026-04-24T04:00:08Z</time></trkpt><trkpt lat="-19.33812899023226" lon="121.56747789802091"><ele>26.0</ele><time>2026-04-24T04:00:09Z</time></trkpt><trkpt lat="-19.337932008843026" lon="121.56772657549064"><ele>26.0</ele><time>2026-04-24T04:00:10.001Z</time></trkpt><trkpt lat="-19.33773441638224" lon="121.5679758173693"><ele>26.0</ele><time>2026-04-24T04:00:11.001Z</time></trkpt><trkpt lat="-19.337538647572924" lon="121.5682231159198"><ele>26.0</ele><time>2026-04-24T04:00:12.001Z</time></trkpt><trkpt lat="-19.337344962793505" lon="121.56846878613983"><ele>26.0</ele><time>2026-04-24T04:00:13.001Z</time></trkpt><trkpt lat="-19.337152429834326" lon="121.56871580421316"><ele>27.5</ele><time>2026-04-24T04:00:14.001Z</time></trkpt><trkpt lat="-19.3369599748334" lon="121.56896294818522"><ele>29.0</ele><time>2026-04-24T04:00:15.001Z</time></trkpt><trkpt lat="-19.336765504499347" lon="121.56921148113538"><ele>29.0</ele><time>2026-04-24T04:00:16.001Z</time></trkpt><trkpt lat="-19.33657063953267" lon="121.5694594907692"><ele>29.0</ele><time>2026-04-24T04:00:17.001Z</time></trkpt><trkpt lat="-19.33637427919742" lon="121.56970700314672"><ele>28.5</ele><time>2026-04-24T04:00:18.001Z</time></trkpt><trkpt lat="-19.33617732386393" lon="121.56995164894812"><ele>28.0</ele><time>2026-04-24T04:00:19.001Z</time></trkpt><trkpt lat="-19.335978777401213" lon="121.57019672359421"><ele>29.0</ele><time>2026-04-24T04:00:20.001Z</time></trkpt><trkpt lat="-19.33578217726837" lon="121.57044188941148"><ele>30.0</ele><time>2026-04-24T04:00:21.001Z</time></trkpt><trkpt lat="-19.335587010927814" lon="121.57068653011004"><ele>30.0</ele><time>2026-04-24T04:00:22.001Z</time></trkpt><trkpt lat="-19.3353945672669" lon="121.57093262388145"><ele>30.0</ele><time>2026-04-24T04:00:23.001Z</time></trkpt><trkpt lat="-19.335203288189966" lon="121.57118207246707"><ele>31.0</ele><time>2026-04-24T04:00:24.001Z</time></trkpt><trkpt lat="-19.33501032612094" lon="121.57143073968295"><ele>32.0</ele><time>2026-04-24T04:00:25.001Z</time></trkpt><trkpt lat="-19.334815301741752" lon="121.57167910309926"><ele>32.0</ele><time>2026-04-24T04:00:26.001Z</time></trkpt><trkpt lat="-19.334621758126683" lon="121.57192734182863"><ele>32.0</ele><time>2026-04-24T04:00:27.001Z</time></trkpt><trkpt lat="-19.33442851462051" lon="121.57217790785779"><ele>32.0</ele><time>2026-04-24T04:00:28.001Z</time></trkpt><trkpt lat="-19.334236071418456" lon="121.57242300897437"><ele>32.0</ele><time>2026-04-24T04:00:29.001Z</time></trkpt><trkpt lat="-19.334043024850587" lon="121.57266704605227"><ele>33.5</ele><time>2026-04-24T04:00:30.001Z</time></trkpt><trkpt lat="-19.333851867228923" lon="121.57291264503222"><ele>35.0</ele><time>2026-04-24T04:00:31.001Z</time></trkpt><trkpt lat="-19.333662232412113" lon="121.5731563569638"><ele>35.0</ele><time>2026-04-24T04:00:32.001Z</time></trkpt><trkpt lat="-19.333472915344693" lon="121.57339662976341"><ele>35.0</ele><time>2026-04-24T04:00:33.001Z</time></trkpt><trkpt lat="-19.33328416195495" lon="121.57363296414849"><ele>35.0</ele><time>2026-04-24T04:00:34.001Z</time></trkpt><trkpt lat="-19.333094794021818" lon="121.57387091128017"><ele>35.0</ele><time>2026-04-24T04:00:35.001Z</time></trkpt><trkpt lat="-19.33290782351556" lon="121.57411070218086"><ele>35.0</ele><time>2026-04-24T04:00:36.001Z</time></trkpt><trkpt lat="-19.332720712431517" lon="121.57435142137523"><ele>35.0</ele><time>2026-04-24T04:00:37.001Z</time></trkpt><trkpt lat="-19.332533478202134" lon="121.57459277264941"><ele>35.0</ele><time>2026-04-24T04:00:38.001Z</time></trkpt><trkpt lat="-19.332344279235464" lon="121.5748356219422"><ele>35.0</ele><time>2026-04-24T04:00:39.001Z</time></trkpt><trkpt lat="-19.332153573638532" lon="121.57507671897025"><ele>35.0</ele><time>2026-04-24T04:00:40.001Z</time></trkpt><trkpt lat="-19.33196013351228" lon="121.57532007392697"><ele>35.0</ele><time>2026-04-24T04:00:41.001Z</time></trkpt><trkpt lat="-19.331765304296436" lon="121.57556599116609"><ele>35.0</ele><time>2026-04-24T04:00:42.001Z</time></trkpt><trkpt lat="-19.33157135226449" lon="121.57581312558939"><ele>35.0</ele><time>2026-04-24T04:00:43.001Z</time></trkpt><trkpt lat="-19.331374056306725" lon="121.57606578115042"><ele>36.0</ele><time>2026-04-24T04:00:44.001Z</time></trkpt><trkpt lat="-19.331179886576663" lon="121.57631503564056"><ele>37.0</ele><time>2026-04-24T04:00:45.001Z</time></trkpt><trkpt lat="-19.330982648388062" lon="121.57656632872182"><ele>37.0</ele><time>2026-04-24T04:00:46.001Z</time></trkpt><trkpt lat="-19.33078611647542" lon="121.57681684114819"><ele>37.0</ele><time>2026-04-24T04:00:47.001Z</time></trkpt><trkpt lat="-19.330590525335424" lon="121.57706792853858"><ele>38.0</ele><time>2026-04-24T04:00:48.001Z</time></trkpt><trkpt lat="-19.330403640844864" lon="121.57730641931383"><ele>39.0</ele><time>2026-04-24T04:00:49.001Z</time></trkpt><trkpt lat="-19.330229278440882" lon="121.57752780541813"><ele>39.0</ele><time>2026-04-24T04:00:50.001Z</time></trkpt><trkpt lat="-19.33005735293069" lon="121.57774939204504"><ele>39.0</ele><time>2026-04-24T04:00:51.001Z</time></trkpt><trkpt lat="-19.32988316316848" lon="121.57797515567498"><ele>38.5</ele><time>2026-04-24T04:00:52.001Z</time></trkpt><trkpt lat="-19.329706956741735" lon="121.57820261757246"><ele>38.0</ele><time>2026-04-24T04:00:53.001Z</time></trkpt><trkpt lat="-19.329528607232472" lon="121.5784313081014"><ele>38.0</ele><time>2026-04-24T04:00:54.001Z</time></trkpt><trkpt lat="-19.329348077832716" lon="121.57866297547773"><ele>38.0</ele><time>2026-04-24T04:00:55.001Z</time></trkpt><trkpt lat="-19.329165148756267" lon="121.57889238033364"><ele>38.5</ele><time>2026-04-24T04:00:56.001Z</time></trkpt><trkpt lat="-19.328981328460955" lon="121.57912369849292"><ele>39.0</ele><time>2026-04-24T04:00:57.001Z</time></trkpt><trkpt lat="-19.32879630365618" lon="121.57935808426383"><ele>38.0</ele><time>2026-04-24T04:00:58.001Z</time></trkpt><trkpt lat="-19.328609050233585" lon="121.57959588535424"><ele>37.0</ele><time>2026-04-24T04:00:59.001Z</time></trkpt><trkpt lat="-19.32841843720988" lon="121.57983420875144"><ele>37.0</ele><time>2026-04-24T04:01:00.001Z</time></trkpt><trkpt lat="-19.328228698172378" lon="121.5800716044493"><ele>37.0</ele><time>2026-04-24T04:01:01.001Z</time></trkpt><trkpt lat="-19.328037905944186" lon="121.58031222592857"><ele>36.5</ele><time>2026-04-24T04:01:02.001Z</time></trkpt><trkpt lat="-19.327851846506782" lon="121.5805513048578"><ele>36.0</ele><time>2026-04-24T04:01:03.001Z</time></trkpt><trkpt lat="-19.32766728134468" lon="121.58078845732115"><ele>36.0</ele><time>2026-04-24T04:01:04.001Z</time></trkpt><trkpt lat="-19.327483628744236" lon="121.58102622690689"><ele>36.0</ele><time>2026-04-24T04:01:05.001Z</time></trkpt><trkpt lat="-19.327297566601093" lon="121.58126347257864"><ele>37.5</ele><time>2026-04-24T04:01:06.001Z</time></trkpt><trkpt lat="-19.327108579581477" lon="121.58149796059831"><ele>39.0</ele><time>2026-04-24T04:01:07.001Z</time></trkpt><trkpt lat="-19.326917301900625" lon="121.58172913893065"><ele>39.0</ele><time>2026-04-24T04:01:08.001Z</time></trkpt><trkpt lat="-19.32672369291095" lon="121.58195668997357"><ele>39.0</ele><time>2026-04-24T04:01:09.001Z</time></trkpt><trkpt lat="-19.326525927341343" lon="121.58217981788471"><ele>37.5</ele><time>2026-04-24T04:01:10.001Z</time></trkpt><trkpt lat="-19.32632561445163" lon="121.58239982823412"><ele>36.0</ele><time>2026-04-24T04:01:11.001Z</time></trkpt><trkpt lat="-19.326123685472353" lon="121.58261424026088"><ele>36.0</ele><time>2026-04-24T04:01:12.001Z</time></trkpt><trkpt lat="-19.325919338395092" lon="121.58282565479766"><ele>36.0</ele><time>2026-04-24T04:01:13.001Z</time></trkpt><trkpt lat="-19.32571183540363" lon="121.58303083915904"><ele>35.5</ele><time>2026-04-24T04:01:14.001Z</time></trkpt><trkpt lat="-19.325495848871565" lon="121.58322944480616"><ele>35.0</ele><time>2026-04-24T04:01:15.001Z</time></trkpt><trkpt lat="-19.325274488596907" lon="121.58342518310731"><ele>35.0</ele><time>2026-04-24T04:01:16.001Z</time></trkpt><trkpt lat="-19.32505171082667" lon="121.58362029501727"><ele>35.0</ele><time>2026-04-24T04:01:17.001Z</time></trkpt><trkpt lat="-19.32482325098008" lon="121.58381204414835"><ele>35.5</ele><time>2026-04-24T04:01:18.001Z</time></trkpt><trkpt lat="-19.32459132233379" lon="121.58400312172844"><ele>36.0</ele><time>2026-04-24T04:01:19.001Z</time></trkpt><trkpt lat="-19.324355088815572" lon="121.58419026454342"><ele>36.0</ele><time>2026-04-24T04:01:20.001Z</time></trkpt><trkpt lat="-19.324116277135047" lon="121.58437344957049"><ele>36.0</ele><time>2026-04-24T04:01:21.001Z</time></trkpt><trkpt lat="-19.323873300504726" lon="121.58455360594084"><ele>35.5</ele><time>2026-04-24T04:01:22.001Z</time></trkpt><trkpt lat="-19.32362661236552" lon="121.5847272014549"><ele>35.0</ele><time>2026-04-24T04:01:23.001Z</time></trkpt><trkpt lat="-19.323375301038052" lon="121.58489590089208"><ele>35.0</ele><time>2026-04-24T04:01:24.001Z</time></trkpt><trkpt lat="-19.323121238658594" lon="121.58505829164248"><ele>35.0</ele><time>2026-04-24T04:01:25.001Z</time></trkpt><trkpt lat="-19.32286530011433" lon="121.58521432254115"><ele>34.5</ele><time>2026-04-24T04:01:26.001Z</time></trkpt><trkpt lat="-19.322607210038182" lon="121.58536663790397"><ele>34.0</ele><time>2026-04-24T04:01:27.001Z</time></trkpt><trkpt lat="-19.32234920213979" lon="121.5855128885504"><ele>33.5</ele><time>2026-04-24T04:01:28.001Z</time></trkpt><trkpt lat="-19.3220888239626" lon="121.58565324785584"><ele>33.0</ele><time>2026-04-24T04:01:29.001Z</time></trkpt><trkpt lat="-19.321827529238487" lon="121.58578817623834"><ele>33.0</ele><time>2026-04-24T04:01:30.001Z</time></trkpt><trkpt lat="-19.321563703900086" lon="121.58591740368038"><ele>33.0</ele><time>2026-04-24T04:01:31.001Z</time></trkpt><trkpt lat="-19.321298519765303" lon="121.58603966425119"><ele>32.5</ele><time>2026-04-24T04:01:32.001Z</time></trkpt><trkpt lat="-19.32103240713846" lon="121.58616108843032"><ele>32.0</ele><time>2026-04-24T04:01:33.001Z</time></trkpt><trkpt lat="-19.32076455916889" lon="121.58628109676565"><ele>32.0</ele><time>2026-04-24T04:01:34.001Z</time></trkpt><trkpt lat="-19.320495008341883" lon="121.5863952472618"><ele>32.0</ele><time>2026-04-24T04:01:35.001Z</time></trkpt><trkpt lat="-19.320225151886476" lon="121.58650023286754"><ele>32.0</ele><time>2026-04-24T04:01:36.001Z</time></trkpt><trkpt lat="-19.319953503362864" lon="121.58660024381285"><ele>32.0</ele><time>2026-04-24T04:01:37.001Z</time></trkpt><trkpt lat="-19.319679926378434" lon="121.58669365864161"><ele>32.0</ele><time>2026-04-24T04:01:38.001Z</time></trkpt><trkpt lat="-19.31940468505176" lon="121.58678016317411"><ele>32.0</ele><time>2026-04-24T04:01:39Z</time></trkpt><trkpt lat="-19.31913176931389" lon="121.58685989425584"><ele>31.0</ele><time>2026-04-24T04:01:40Z</time></trkpt><trkpt lat="-19.318858106783825" lon="121.58693785366303"><ele>30.0</ele><time>2026-04-24T04:01:41Z</time></trkpt><trkpt lat="-19.318586314389794" lon="121.58701747641865"><ele>30.0</ele><time>2026-04-24T04:01:42Z</time></trkpt><trkpt lat="-19.31831319813058" lon="121.58709896241432"><ele>30.0</ele><time>2026-04-24T04:01:43Z</time></trkpt><trkpt lat="-19.31803965828472" lon="121.58718050137253"><ele>30.0</ele><time>2026-04-24T04:01:44Z</time></trkpt><trkpt lat="-19.317761131807544" lon="121.58726668029749"><ele>30.0</ele><time>2026-04-24T04:01:45Z</time></trkpt><trkpt lat="-19.317479290665666" lon="121.58735257560735"><ele>29.5</ele><time>2026-04-24T04:01:46Z</time></trkpt><trkpt lat="-19.317199139530548" lon="121.58743681384694"><ele>29.0</ele><time>2026-04-24T04:01:47Z</time></trkpt><trkpt lat="-19.316922345298792" lon="121.58752108325899"><ele>29.0</ele><time>2026-04-24T04:01:48Z</time></trkpt><trkpt lat="-19.316647768674326" lon="121.5876015114221"><ele>29.0</ele><time>2026-04-24T04:01:49Z</time></trkpt><trkpt lat="-19.316376822711774" lon="121.5876782851292"><ele>29.0</ele><time>2026-04-24T04:01:50Z</time></trkpt><trkpt lat="-19.316104294995082" lon="121.58775566819904"><ele>29.0</ele><time>2026-04-24T04:01:51Z</time></trkpt><trkpt lat="-19.31583162266301" lon="121.58783637517672"><ele>29.0</ele><time>2026-04-24T04:01:52Z</time></trkpt><trkpt lat="-19.31555918060234" lon="121.58791810854089"><ele>29.0</ele><time>2026-04-24T04:01:53Z</time></trkpt><trkpt lat="-19.315283643288257" lon="121.58800123140523"><ele>29.0</ele><time>2026-04-24T04:01:54Z</time></trkpt><trkpt lat="-19.315006085435787" lon="121.58808684794757"><ele>29.0</ele><time>2026-04-24T04:01:55Z</time></trkpt><trkpt lat="-19.314723881949426" lon="121.58817133371312"><ele>29.0</ele><time>2026-04-24T04:01:56Z</time></trkpt><trkpt lat="-19.314440486071103" lon="121.58825764630603"><ele>29.0</ele><time>2026-04-24T04:01:57Z</time></trkpt><trkpt lat="-19.31415670284669" lon="121.58834346709304"><ele>28.0</ele><time>2026-04-24T04:01:58Z</time></trkpt><trkpt lat="-19.313871728309074" lon="121.58842617963715"><ele>27.0</ele><time>2026-04-24T04:01:59Z</time></trkpt><trkpt lat="-19.313586780173296" lon="121.58850607935534"><ele>27.0</ele><time>2026-04-24T04:02:00Z</time></trkpt><trkpt lat="-19.313303322853326" lon="121.5885883628848"><ele>27.0</ele><time>2026-04-24T04:02:01Z</time></trkpt><trkpt lat="-19.313022682759126" lon="121.5886711292293"><ele>26.5</ele><time>2026-04-24T04:02:02Z</time></trkpt><trkpt lat="-19.312743553315492" lon="121.58875601533116"><ele>26.0</ele><time>2026-04-24T04:02:03Z</time></trkpt><trkpt lat="-19.312466112491542" lon="121.58883942268848"><ele>26.5</ele><time>2026-04-24T04:02:04Z</time></trkpt><trkpt lat="-19.31218929596217" lon="121.58892336209644"><ele>27.0</ele><time>2026-04-24T04:02:05Z</time></trkpt><trkpt lat="-19.311911641465564" lon="121.58900838594445"><ele>27.0</ele><time>2026-04-24T04:02:06Z</time></trkpt><trkpt lat="-19.311635585187172" lon="121.58909262663893"><ele>27.0</ele><time>2026-04-24T04:02:07Z</time></trkpt><trkpt lat="-19.311358492562906" lon="121.58917644093611"><ele>27.5</ele><time>2026-04-24T04:02:08Z</time></trkpt><trkpt lat="-19.31108291116054" lon="121.58926071090978"><ele>28.0</ele><time>2026-04-24T04:02:09Z</time></trkpt><trkpt lat="-19.31080860363661" lon="121.58934214048769"><ele>27.0</ele><time>2026-04-24T04:02:10.001Z</time></trkpt><trkpt lat="-19.310531572894508" lon="121.5894220574242"><ele>26.0</ele><time>2026-04-24T04:02:11.001Z</time></trkpt><trkpt lat="-19.310255791394308" lon="121.58950228441861"><ele>26.0</ele><time>2026-04-24T04:02:12.001Z</time></trkpt><trkpt lat="-19.30998279244269" lon="121.58958485181184"><ele>26.0</ele><time>2026-04-24T04:02:13.001Z</time></trkpt><trkpt lat="-19.309709143870275" lon="121.58966861749884"><ele>26.0</ele><time>2026-04-24T04:02:14.001Z</time></trkpt><trkpt lat="-19.30943389019122" lon="121.58975131320673"><ele>26.0</ele><time>2026-04-24T04:02:15.001Z</time></trkpt><trkpt lat="-19.30915431214803" lon="121.5898341091244"><ele>26.5</ele><time>2026-04-24T04:02:16.001Z</time></trkpt><trkpt lat="-19.308875652525916" lon="121.58991670360597"><ele>27.0</ele><time>2026-04-24T04:02:17.001Z</time></trkpt><trkpt lat="-19.30860740721979" lon="121.58999516742075"><ele>27.0</ele><time>2026-04-24T04:02:18.001Z</time></trkpt><trkpt lat="-19.308352296514492" lon="121.590071512966"><ele>27.0</ele><time>2026-04-24T04:02:19.001Z</time></trkpt><trkpt lat="-19.308088240840004" lon="121.59015116319915"><ele>27.0</ele><time>2026-04-24T04:02:20.001Z</time></trkpt><trkpt lat="-19.307822121274356" lon="121.5902334075524"><ele>27.0</ele><time>2026-04-24T04:02:21.001Z</time></trkpt><trkpt lat="-19.307549565874403" lon="121.59031774306484"><ele>26.5</ele><time>2026-04-24T04:02:22.001Z</time></trkpt><trkpt lat="-19.30727332655787" lon="121.59040193912735"><ele>26.0</ele><time>2026-04-24T04:02:23.001Z</time></trkpt><trkpt lat="-19.30699678051433" lon="121.59048506382918"><ele>27.5</ele><time>2026-04-24T04:02:24.001Z</time></trkpt><trkpt lat="-19.306716920516216" lon="121.59056855652737"><ele>29.0</ele><time>2026-04-24T04:02:25.001Z</time></trkpt><trkpt lat="-19.306432603796285" lon="121.59065579234844"><ele>27.5</ele><time>2026-04-24T04:02:26.001Z</time></trkpt><trkpt lat="-19.30614629570428" lon="121.59073933632948"><ele>26.0</ele><time>2026-04-24T04:02:27.001Z</time></trkpt><trkpt lat="-19.305859191476827" lon="121.59081993567109"><ele>26.0</ele><time>2026-04-24T04:02:28.001Z</time></trkpt><trkpt lat="-19.305572225597118" lon="121.59090025966375"><ele>26.0</ele><time>2026-04-24T04:02:29.001Z</time></trkpt><trkpt lat="-19.30528766624541" lon="121.59098310434086"><ele>26.0</ele><time>2026-04-24T04:02:30.001Z</time></trkpt><trkpt lat="-19.305006410027662" lon="121.59106794382883"><ele>26.0</ele><time>2026-04-24T04:02:31.001Z</time></trkpt><trkpt lat="-19.304728556355965" lon="121.59115385739558"><ele>26.5</ele><time>2026-04-24T04:02:32.001Z</time></trkpt><trkpt lat="-19.304452631136193" lon="121.59123671535939"><ele>27.0</ele><time>2026-04-24T04:02:33.001Z</time></trkpt><trkpt lat="-19.304175915445526" lon="121.59131783097267"><ele>26.5</ele><time>2026-04-24T04:02:34.001Z</time></trkpt><trkpt lat="-19.3039007749589" lon="121.59139824851519"><ele>26.0</ele><time>2026-04-24T04:02:35.001Z</time></trkpt><trkpt lat="-19.303626159084605" lon="121.59148037221969"><ele>26.0</ele><time>2026-04-24T04:02:36.001Z</time></trkpt><trkpt lat="-19.303354782061543" lon="121.59156087594396"><ele>26.0</ele><time>2026-04-24T04:02:37.001Z</time></trkpt><trkpt lat="-19.30308708717358" lon="121.59163927774848"><ele>26.0</ele><time>2026-04-24T04:02:38.001Z</time></trkpt><trkpt lat="-19.302815474717388" lon="121.5917191983084"><ele>26.0</ele><time>2026-04-24T04:02:39.001Z</time></trkpt><trkpt lat="-19.302543946079375" lon="121.59180061304295"><ele>26.0</ele><time>2026-04-24T04:02:40.001Z</time></trkpt><trkpt lat="-19.30226574033374" lon="121.59188055851945"><ele>26.0</ele><time>2026-04-24T04:02:41.001Z</time></trkpt><trkpt lat="-19.301985311432674" lon="121.59196238094795"><ele>26.0</ele><time>2026-04-24T04:02:42.001Z</time></trkpt><trkpt lat="-19.30170266677995" lon="121.59204866107737"><ele>26.0</ele><time>2026-04-24T04:02:43.001Z</time></trkpt><trkpt lat="-19.301417874633117" lon="121.5921339431196"><ele>26.5</ele><time>2026-04-24T04:02:44.001Z</time></trkpt><trkpt lat="-19.301133568945183" lon="121.59221993457804"><ele>27.0</ele><time>2026-04-24T04:02:45.001Z</time></trkpt><trkpt lat="-19.300847369605574" lon="121.59230548991134"><ele>26.5</ele><time>2026-04-24T04:02:46.001Z</time></trkpt><trkpt lat="-19.30056149732485" lon="121.59238989447884"><ele>26.0</ele><time>2026-04-24T04:02:47.001Z</time></trkpt><trkpt lat="-19.30027435186539" lon="121.59247485249135"><ele>26.0</ele><time>2026-04-24T04:02:48.001Z</time></trkpt><trkpt lat="-19.299987878534626" lon="121.59256199459998"><ele>26.0</ele><time>2026-04-24T04:02:49.001Z</time></trkpt><trkpt lat="-19.299706901403052" lon="121.59264985082666"><ele>26.0</ele><time>2026-04-24T04:02:50.001Z</time></trkpt><trkpt lat="-19.299428679681796" lon="121.59273351145401"><ele>26.0</ele><time>2026-04-24T04:02:51.001Z</time></trkpt><trkpt lat="-19.299149288439665" lon="121.59281589628688"><ele>25.5</ele><time>2026-04-24T04:02:52.001Z</time></trkpt><trkpt lat="-19.298867770831972" lon="121.59289956127316"><ele>25.0</ele><time>2026-04-24T04:02:53.001Z</time></trkpt><trkpt lat="-19.298584050944076" lon="121.59298245988427"><ele>25.0</ele><time>2026-04-24T04:02:54.001Z</time></trkpt><trkpt lat="-19.29829963748477" lon="121.59306535696983"><ele>25.0</ele><time>2026-04-24T04:02:55.001Z</time></trkpt><trkpt lat="-19.298017933647877" lon="121.59314885961999"><ele>26.0</ele><time>2026-04-24T04:02:56.001Z</time></trkpt><trkpt lat="-19.29773577024211" lon="121.59323341202457"><ele>27.0</ele><time>2026-04-24T04:02:57.001Z</time></trkpt><trkpt lat="-19.297450661731155" lon="121.59331828904034"><ele>27.0</ele><time>2026-04-24T04:02:58.001Z</time></trkpt><trkpt lat="-19.297164097291375" lon="121.59340285849564"><ele>27.0</ele><time>2026-04-24T04:02:59.001Z</time></trkpt><trkpt lat="-19.29687271396987" lon="121.59348906713812"><ele>27.0</ele><time>2026-04-24T04:03:00.001Z</time></trkpt><trkpt lat="-19.296581360437983" lon="121.59357643037339"><ele>27.0</ele><time>2026-04-24T04:03:01.001Z</time></trkpt><trkpt lat="-19.296287354048086" lon="121.59366355985443"><ele>25.5</ele><time>2026-04-24T04:03:02.001Z</time></trkpt><trkpt lat="-19.295994815263768" lon="121.59375048783636"><ele>24.0</ele><time>2026-04-24T04:03:03.001Z</time></trkpt><trkpt lat="-19.295702789552585" lon="121.59383955015599"><ele>25.0</ele><time>2026-04-24T04:03:04.001Z</time></trkpt><trkpt lat="-19.295412383834723" lon="121.593934673061"><ele>26.0</ele><time>2026-04-24T04:03:05.001Z</time></trkpt><trkpt lat="-19.295125771847374" lon="121.59403450053574"><ele>26.0</ele><time>2026-04-24T04:03:06.001Z</time></trkpt><trkpt lat="-19.294840985314842" lon="121.59413952523059"><ele>26.0</ele><time>2026-04-24T04:03:07.001Z</time></trkpt><trkpt lat="-19.29455798590517" lon="121.59425261747825"><ele>26.0</ele><time>2026-04-24T04:03:08.001Z</time></trkpt><trkpt lat="-19.29427894454125" lon="121.59436966174735"><ele>26.0</ele><time>2026-04-24T04:03:09.001Z</time></trkpt><trkpt lat="-19.294000429768715" lon="121.59448822077368"><ele>26.0</ele><time>2026-04-24T04:03:10.001Z</time></trkpt><trkpt lat="-19.293725258237217" lon="121.59460862457432"><ele>26.0</ele><time>2026-04-24T04:03:11.001Z</time></trkpt><trkpt lat="-19.293453790565728" lon="121.59473032717673"><ele>26.0</ele><time>2026-04-24T04:03:12.001Z</time></trkpt><trkpt lat="-19.29318368456314" lon="121.59485577319397"><ele>26.0</ele><time>2026-04-24T04:03:13.001Z</time></trkpt><trkpt lat="-19.292917626469254" lon="121.59498419163242"><ele>27.0</ele><time>2026-04-24T04:03:14.001Z</time></trkpt><trkpt lat="-19.292653634391733" lon="121.59510884662242"><ele>28.0</ele><time>2026-04-24T04:03:15.001Z</time></trkpt><trkpt lat="-19.292389769010246" lon="121.59523208777908"><ele>27.5</ele><time>2026-04-24T04:03:16.001Z</time></trkpt><trkpt lat="-19.292123149883494" lon="121.59535601830984"><ele>27.0</ele><time>2026-04-24T04:03:17.001Z</time></trkpt><trkpt lat="-19.291856517659873" lon="121.5954815819566"><ele>27.0</ele><time>2026-04-24T04:03:18.001Z</time></trkpt><trkpt lat="-19.291593546004385" lon="121.5956075087884"><ele>27.0</ele><time>2026-04-24T04:03:19.001Z</time></trkpt><trkpt lat="-19.291330886405376" lon="121.59573153164102"><ele>28.0</ele><time>2026-04-24T04:03:20.001Z</time></trkpt><trkpt lat="-19.291069006759294" lon="121.59585710338472"><ele>29.0</ele><time>2026-04-24T04:03:21.001Z</time></trkpt><trkpt lat="-19.29080702183942" lon="121.59597941680535"><ele>28.0</ele><time>2026-04-24T04:03:22.001Z</time></trkpt><trkpt lat="-19.290543129802213" lon="121.59610026724009"><ele>27.0</ele><time>2026-04-24T04:03:23.001Z</time></trkpt><trkpt lat="-19.290279578975927" lon="121.59621970764141"><ele>27.0</ele><time>2026-04-24T04:03:24.001Z</time></trkpt><trkpt lat="-19.290017504759344" lon="121.59633949427688"><ele>27.0</ele><time>2026-04-24T04:03:25.001Z</time></trkpt><trkpt lat="-19.28975681774443" lon="121.59645972479478"><ele>26.5</ele><time>2026-04-24T04:03:26.001Z</time></trkpt><trkpt lat="-19.28949771981558" lon="121.59658048392787"><ele>26.0</ele><time>2026-04-24T04:03:27.001Z</time></trkpt><trkpt lat="-19.289238009490557" lon="121.5967023086325"><ele>26.0</ele><time>2026-04-24T04:03:28.001Z</time></trkpt><trkpt lat="-19.288978899933568" lon="121.59682268066376"><ele>26.0</ele><time>2026-04-24T04:03:29.001Z</time></trkpt><trkpt lat="-19.288726027902047" lon="121.59694139465873"><ele>27.0</ele><time>2026-04-24T04:03:30.001Z</time></trkpt><trkpt lat="-19.288473786099342" lon="121.59706048707937"><ele>28.0</ele><time>2026-04-24T04:03:31.001Z</time></trkpt><trkpt lat="-19.288225073517484" lon="121.59717568142139"><ele>28.0</ele><time>2026-04-24T04:03:32.001Z</time></trkpt><trkpt lat="-19.28796896043277" lon="121.59729496705995"><ele>28.0</ele><time>2026-04-24T04:03:33.001Z</time></trkpt><trkpt lat="-19.287712469797867" lon="121.59741809685345"><ele>28.0</ele><time>2026-04-24T04:03:34.001Z</time></trkpt><trkpt lat="-19.287453219946983" lon="121.59754266542615"><ele>28.0</ele><time>2026-04-24T04:03:35.001Z</time></trkpt><trkpt lat="-19.287192288395005" lon="121.59766453969827"><ele>28.0</ele><time>2026-04-24T04:03:36.001Z</time></trkpt><trkpt lat="-19.286931398238405" lon="121.59778570861742"><ele>28.0</ele><time>2026-04-24T04:03:37.001Z</time></trkpt><trkpt lat="-19.286667409182808" lon="121.59790872482176"><ele>27.5</ele><time>2026-04-24T04:03:38.001Z</time></trkpt><trkpt lat="-19.286403312574034" lon="121.59803193108007"><ele>27.0</ele><time>2026-04-24T04:03:39.001Z</time></trkpt><trkpt lat="-19.286136549998872" lon="121.59815602933253"><ele>27.0</ele><time>2026-04-24T04:03:40.001Z</time></trkpt><trkpt lat="-19.285868986372034" lon="121.59828234090823"><ele>27.0</ele><time>2026-04-24T04:03:41.001Z</time></trkpt><trkpt lat="-19.285599756501785" lon="121.59840969597194"><ele>27.5</ele><time>2026-04-24T04:03:42.001Z</time></trkpt><trkpt lat="-19.2853256704143" lon="121.59853961439721"><ele>28.0</ele><time>2026-04-24T04:03:43.001Z</time></trkpt><trkpt lat="-19.28505346623832" lon="121.59866883451976"><ele>28.0</ele><time>2026-04-24T04:03:44.001Z</time></trkpt><trkpt lat="-19.28477849395223" lon="121.59879676505318"><ele>28.0</ele><time>2026-04-24T04:03:45Z</time></trkpt><trkpt lat="-19.284501541690172" lon="121.59892463093489"><ele>28.0</ele><time>2026-04-24T04:03:46Z</time></trkpt><trkpt lat="-19.284230336263498" lon="121.59905241662263"><ele>28.0</ele><time>2026-04-24T04:03:47Z</time></trkpt><trkpt lat="-19.283960702570155" lon="121.59918321239508"><ele>28.5</ele><time>2026-04-24T04:03:48Z</time></trkpt><trkpt lat="-19.283694205238845" lon="121.59931115365129"><ele>29.0</ele><time>2026-04-24T04:03:49Z</time></trkpt><trkpt lat="-19.28342637179687" lon="121.59943823679538"><ele>28.5</ele><time>2026-04-24T04:03:50Z</time></trkpt><trkpt lat="-19.28316021677851" lon="121.59956180880219"><ele>28.0</ele><time>2026-04-24T04:03:51Z</time></trkpt><trkpt lat="-19.282894832903253" lon="121.5996853354292"><ele>28.0</ele><time>2026-04-24T04:03:52Z</time></trkpt><trkpt lat="-19.282630293390426" lon="121.59980854394951"><ele>28.0</ele><time>2026-04-24T04:03:53Z</time></trkpt><trkpt lat="-19.282368785173087" lon="121.59992968218054"><ele>28.5</ele><time>2026-04-24T04:03:54Z</time></trkpt><trkpt lat="-19.28210754069926" lon="121.60004842896139"><ele>29.0</ele><time>2026-04-24T04:03:55Z</time></trkpt><trkpt lat="-19.281847958680196" lon="121.60016695003873"><ele>29.0</ele><time>2026-04-24T04:03:56Z</time></trkpt><trkpt lat="-19.281588579946227" lon="121.60028721431122"><ele>29.0</ele><time>2026-04-24T04:03:57Z</time></trkpt><trkpt lat="-19.281330312848265" lon="121.60040688396548"><ele>29.0</ele><time>2026-04-24T04:03:58Z</time></trkpt><trkpt lat="-19.281070279418532" lon="121.60052384700006"><ele>29.0</ele><time>2026-04-24T04:03:59Z</time></trkpt><trkpt lat="-19.28081221462584" lon="121.60064525971725"><ele>29.5</ele><time>2026-04-24T04:04:00Z</time></trkpt><trkpt lat="-19.280550452653706" lon="121.6007699489876"><ele>30.0</ele><time>2026-04-24T04:04:01Z</time></trkpt><trkpt lat="-19.28028862672376" lon="121.60089433559176"><ele>30.0</ele><time>2026-04-24T04:04:02Z</time></trkpt><trkpt lat="-19.280026523251983" lon="121.60101548945974"><ele>30.0</ele><time>2026-04-24T04:04:03Z</time></trkpt><trkpt lat="-19.279766793885635" lon="121.60113792977474"><ele>30.5</ele><time>2026-04-24T04:04:04Z</time></trkpt><trkpt lat="-19.279509447618373" lon="121.60125985965631"><ele>31.0</ele><time>2026-04-24T04:04:05Z</time></trkpt><trkpt lat="-19.279252666528173" lon="121.60138255224108"><ele>31.0</ele><time>2026-04-24T04:04:06Z</time></trkpt><trkpt lat="-19.278996082875516" lon="121.601504786731"><ele>31.0</ele><time>2026-04-24T04:04:07Z</time></trkpt><trkpt lat="-19.27873943147389" lon="121.6016249491723"><ele>31.0</ele><time>2026-04-24T04:04:08Z</time></trkpt><trkpt lat="-19.27848265807787" lon="121.60174449309383"><ele>31.0</ele><time>2026-04-24T04:04:09Z</time></trkpt><trkpt lat="-19.27822737736617" lon="121.60186340570199"><ele>30.5</ele><time>2026-04-24T04:04:10Z</time></trkpt><trkpt lat="-19.27797112873849" lon="121.60198592511362"><ele>30.0</ele><time>2026-04-24T04:04:11Z</time></trkpt><trkpt lat="-19.27771002735426" lon="121.60210705519631"><ele>30.0</ele><time>2026-04-24T04:04:12Z</time></trkpt><trkpt lat="-19.277449180252766" lon="121.60222724613091"><ele>30.0</ele><time>2026-04-24T04:04:13Z</time></trkpt><trkpt lat="-19.277191730781926" lon="121.60234749982624"><ele>30.5</ele><time>2026-04-24T04:04:14Z</time></trkpt><trkpt lat="-19.276935968148" lon="121.60246620204659"><ele>31.0</ele><time>2026-04-24T04:04:15Z</time></trkpt><trkpt lat="-19.276681389744894" lon="121.60258414147518"><ele>30.0</ele><time>2026-04-24T04:04:16Z</time></trkpt><trkpt lat="-19.27642351824794" lon="121.60270673176869"><ele>29.0</ele><time>2026-04-24T04:04:17Z</time></trkpt><trkpt lat="-19.27616411837301" lon="121.6028288622352"><ele>29.0</ele><time>2026-04-24T04:04:18.001Z</time></trkpt><trkpt lat="-19.275902935886613" lon="121.60294651379753"><ele>29.0</ele><time>2026-04-24T04:04:19.001Z</time></trkpt><trkpt lat="-19.27563563760684" lon="121.6030693630724"><ele>29.5</ele><time>2026-04-24T04:04:20.001Z</time></trkpt><trkpt lat="-19.275363741088317" lon="121.60319711968444"><ele>30.0</ele><time>2026-04-24T04:04:21.001Z</time></trkpt><trkpt lat="-19.275092001744145" lon="121.60332627282862"><ele>30.0</ele><time>2026-04-24T04:04:22.001Z</time></trkpt><trkpt lat="-19.274828345855283" lon="121.60345147433131"><ele>30.0</ele><time>2026-04-24T04:04:23.001Z</time></trkpt><trkpt lat="-19.27456785893526" lon="121.60357699512097"><ele>31.5</ele><time>2026-04-24T04:04:24.001Z</time></trkpt><trkpt lat="-19.274307026693165" lon="121.60370176500456"><ele>33.0</ele><time>2026-04-24T04:04:25.001Z</time></trkpt><trkpt lat="-19.274045319229085" lon="121.60382587168728"><ele>32.0</ele><time>2026-04-24T04:04:26.001Z</time></trkpt><trkpt lat="-19.273783496406384" lon="121.60394736683462"><ele>31.0</ele><time>2026-04-24T04:04:27.001Z</time></trkpt><trkpt lat="-19.2735220418495" lon="121.60406773052821"><ele>31.0</ele><time>2026-04-24T04:04:28.001Z</time></trkpt><trkpt lat="-19.273262277660702" lon="121.6041885485973"><ele>31.0</ele><time>2026-04-24T04:04:29.001Z</time></trkpt><trkpt lat="-19.2730065861283" lon="121.60430869439473"><ele>31.5</ele><time>2026-04-24T04:04:30.001Z</time></trkpt><trkpt lat="-19.27275025815123" lon="121.60442737860984"><ele>32.0</ele><time>2026-04-24T04:04:31.001Z</time></trkpt><trkpt lat="-19.27249528809141" lon="121.60454595706032"><ele>33.0</ele><time>2026-04-24T04:04:32.001Z</time></trkpt><trkpt lat="-19.272253968470988" lon="121.60465665281089"><ele>34.0</ele><time>2026-04-24T04:04:33.001Z</time></trkpt><trkpt lat="-19.272017943805153" lon="121.60476485274778"><ele>34.0</ele><time>2026-04-24T04:04:34.001Z</time></trkpt><trkpt lat="-19.271778764591705" lon="121.60487218203828"><ele>34.0</ele><time>2026-04-24T04:04:35.001Z</time></trkpt><trkpt lat="-19.27154452459349" lon="121.60498183779436"><ele>36.0</ele><time>2026-04-24T04:04:36.001Z</time></trkpt><trkpt lat="-19.271310388706805" lon="121.60509292489576"><ele>38.0</ele><time>2026-04-24T04:04:37.001Z</time></trkpt><trkpt lat="-19.27107468190104" lon="121.60520672016823"><ele>38.0</ele><time>2026-04-24T04:04:38.001Z</time></trkpt><trkpt lat="-19.27083517306444" lon="121.6053215597249"><ele>38.0</ele><time>2026-04-24T04:04:39.001Z</time></trkpt><trkpt lat="-19.270594425199988" lon="121.6054358200752"><ele>39.0</ele><time>2026-04-24T04:04:40.001Z</time></trkpt><trkpt lat="-19.270350467000643" lon="121.60555183542893"><ele>40.0</ele><time>2026-04-24T04:04:41.001Z</time></trkpt><trkpt lat="-19.27010619474103" lon="121.60566868879118"><ele>40.0</ele><time>2026-04-24T04:04:42.001Z</time></trkpt><trkpt lat="-19.269857808076917" lon="121.60578640088364"><ele>40.0</ele><time>2026-04-24T04:04:43.001Z</time></trkpt><trkpt lat="-19.269602481156713" lon="121.6059066085762"><ele>39.0</ele><time>2026-04-24T04:04:44.001Z</time></trkpt><trkpt lat="-19.26934417711285" lon="121.60602748115068"><ele>38.0</ele><time>2026-04-24T04:04:45.001Z</time></trkpt><trkpt lat="-19.26908827263036" lon="121.60614741013651"><ele>38.5</ele><time>2026-04-24T04:04:46.001Z</time></trkpt><trkpt lat="-19.268831217425436" lon="121.6062676980767"><ele>39.0</ele><time>2026-04-24T04:04:47.001Z</time></trkpt><trkpt lat="-19.268575261391415" lon="121.60638728326275"><ele>39.0</ele><time>2026-04-24T04:04:48.001Z</time></trkpt><trkpt lat="-19.268315145794393" lon="121.60650788134826"><ele>39.0</ele><time>2026-04-24T04:04:49.001Z</time></trkpt><trkpt lat="-19.268049314787138" lon="121.60662863532818"><ele>39.0</ele><time>2026-04-24T04:04:50.001Z</time></trkpt><trkpt lat="-19.26778077350755" lon="121.60675192011455"><ele>39.0</ele><time>2026-04-24T04:04:51.001Z</time></trkpt><trkpt lat="-19.26751669267642" lon="121.60687669109444"><ele>39.0</ele><time>2026-04-24T04:04:52.001Z</time></trkpt><trkpt lat="-19.26725566146819" lon="121.60699849710093"><ele>39.0</ele><time>2026-04-24T04:04:53.001Z</time></trkpt><trkpt lat="-19.26699586684693" lon="121.60712011490868"><ele>39.0</ele><time>2026-04-24T04:04:54.001Z</time></trkpt><trkpt lat="-19.266734624458252" lon="121.60724004462628"><ele>39.0</ele><time>2026-04-24T04:04:55.001Z</time></trkpt><trkpt lat="-19.266474519241616" lon="121.60736054111129"><ele>39.0</ele><time>2026-04-24T04:04:56.001Z</time></trkpt><trkpt lat="-19.266215096502417" lon="121.60748009780987"><ele>39.0</ele><time>2026-04-24T04:04:57.001Z</time></trkpt><trkpt lat="-19.265959833446818" lon="121.60760079431205"><ele>39.0</ele><time>2026-04-24T04:04:58.001Z</time></trkpt><trkpt lat="-19.265703394052206" lon="121.60772070542801"><ele>39.0</ele><time>2026-04-24T04:04:59.001Z</time></trkpt><trkpt lat="-19.265448480650885" lon="121.60784054652291"><ele>38.5</ele><time>2026-04-24T04:05:00.001Z</time></trkpt><trkpt lat="-19.265192316835016" lon="121.60795931460929"><ele>38.0</ele><time>2026-04-24T04:05:01.001Z</time></trkpt><trkpt lat="-19.264934379192464" lon="121.60807792232282"><ele>38.0</ele><time>2026-04-24T04:05:02.001Z</time></trkpt><trkpt lat="-19.26467311537664" lon="121.60819803443299"><ele>38.0</ele><time>2026-04-24T04:05:03.001Z</time></trkpt><trkpt lat="-19.26441161439936" lon="121.60831943173065"><ele>38.0</ele><time>2026-04-24T04:05:04.001Z</time></trkpt><trkpt lat="-19.26414882782428" lon="121.60844268593613"><ele>38.0</ele><time>2026-04-24T04:05:05.001Z</time></trkpt><trkpt lat="-19.263892203487902" lon="121.60856548855314"><ele>38.0</ele><time>2026-04-24T04:05:06.001Z</time></trkpt><trkpt lat="-19.26363710476715" lon="121.60868710083146"><ele>38.0</ele><time>2026-04-24T04:05:07.001Z</time></trkpt><trkpt lat="-19.26338022732812" lon="121.60880676420096"><ele>38.0</ele><time>2026-04-24T04:05:08.001Z</time></trkpt><trkpt lat="-19.26312230047355" lon="121.60892514039595"><ele>38.0</ele><time>2026-04-24T04:05:09.001Z</time></trkpt><trkpt lat="-19.262865117527973" lon="121.60904629211177"><ele>38.0</ele><time>2026-04-24T04:05:10.001Z</time></trkpt><trkpt lat="-19.262607542568112" lon="121.6091712960244"><ele>38.0</ele><time>2026-04-24T04:05:11.001Z</time></trkpt><trkpt lat="-19.262350484689808" lon="121.60929475162112"><ele>37.0</ele><time>2026-04-24T04:05:12.001Z</time></trkpt><trkpt lat="-19.26209152439324" lon="121.60941512114857"><ele>36.0</ele><time>2026-04-24T04:05:13.001Z</time></trkpt><trkpt lat="-19.26182867988078" lon="121.60953682406009"><ele>36.0</ele><time>2026-04-24T04:05:14.001Z</time></trkpt><trkpt lat="-19.26156882658796" lon="121.60966094260618"><ele>36.0</ele><time>2026-04-24T04:05:15.001Z</time></trkpt><trkpt lat="-19.261312792623457" lon="121.60977921763327"><ele>35.5</ele><time>2026-04-24T04:05:16.001Z</time></trkpt><trkpt lat="-19.261057085092173" lon="121.60989646824855"><ele>35.0</ele><time>2026-04-24T04:05:17.001Z</time></trkpt><trkpt lat="-19.260803044465224" lon="121.61001365191679"><ele>35.0</ele><time>2026-04-24T04:05:18.001Z</time></trkpt><trkpt lat="-19.260546573629853" lon="121.61013509677743"><ele>35.0</ele><time>2026-04-24T04:05:19.001Z</time></trkpt><trkpt lat="-19.260287224656068" lon="121.61025712710409"><ele>35.5</ele><time>2026-04-24T04:05:20.001Z</time></trkpt><trkpt lat="-19.260027026829697" lon="121.61037849989583"><ele>36.0</ele><time>2026-04-24T04:05:21.001Z</time></trkpt><trkpt lat="-19.259763914573302" lon="121.61050081075116"><ele>36.0</ele><time>2026-04-24T04:05:22.001Z</time></trkpt><trkpt lat="-19.2595017854284" lon="121.61062412009842"><ele>36.0</ele><time>2026-04-24T04:05:23.001Z</time></trkpt><trkpt lat="-19.25923668196015" lon="121.61074963186334"><ele>36.0</ele><time>2026-04-24T04:05:24.001Z</time></trkpt><trkpt lat="-19.258972213323638" lon="121.61087294870393"><ele>36.0</ele><time>2026-04-24T04:05:25.001Z</time></trkpt><trkpt lat="-19.258707347383098" lon="121.61099631419019"><ele>36.0</ele><time>2026-04-24T04:05:26.001Z</time></trkpt><trkpt lat="-19.25844173481526" lon="121.61111958273138"><ele>36.0</ele><time>2026-04-24T04:05:27.001Z</time></trkpt><trkpt lat="-19.258179739114773" lon="121.61124211594004"><ele>35.5</ele><time>2026-04-24T04:05:28.001Z</time></trkpt><trkpt lat="-19.25791744797344" lon="121.61136653945196"><ele>35.0</ele><time>2026-04-24T04:05:29.001Z</time></trkpt><trkpt lat="-19.257656330605606" lon="121.61149028293826"><ele>35.0</ele><time>2026-04-24T04:05:30.001Z</time></trkpt><trkpt lat="-19.257394607016593" lon="121.61161236983413"><ele>35.0</ele><time>2026-04-24T04:05:31.001Z</time></trkpt><trkpt lat="-19.25713092218138" lon="121.61173396798333"><ele>34.0</ele><time>2026-04-24T04:05:32.001Z</time></trkpt><trkpt lat="-19.256864520027655" lon="121.6118574989078"><ele>33.0</ele><time>2026-04-24T04:05:33.001Z</time></trkpt><trkpt lat="-19.256595148325687" lon="121.61198036173063"><ele>34.0</ele><time>2026-04-24T04:05:34.001Z</time></trkpt><trkpt lat="-19.256324060891277" lon="121.61210315674795"><ele>35.0</ele><time>2026-04-24T04:05:35.001Z</time></trkpt><trkpt lat="-19.256059186019208" lon="121.61222523296799"><ele>35.0</ele><time>2026-04-24T04:05:36.001Z</time></trkpt><trkpt lat="-19.255795818000877" lon="121.61235035751898"><ele>35.0</ele><time>2026-04-24T04:05:37.001Z</time></trkpt><trkpt lat="-19.255531735265688" lon="121.6124759765057"><ele>34.5</ele><time>2026-04-24T04:05:38.001Z</time></trkpt><trkpt lat="-19.255265379635293" lon="121.6126027518443"><ele>34.0</ele><time>2026-04-24T04:05:39.001Z</time></trkpt><trkpt lat="-19.255000103308436" lon="121.61272821593312"><ele>34.0</ele><time>2026-04-24T04:05:40.001Z</time></trkpt><trkpt lat="-19.25473366486476" lon="121.61285390603439"><ele>34.0</ele><time>2026-04-24T04:05:41.001Z</time></trkpt><trkpt lat="-19.2544661701815" lon="121.61297518293225"><ele>34.0</ele><time>2026-04-24T04:05:42.001Z</time></trkpt><trkpt lat="-19.254196345289216" lon="121.61309793293643"><ele>34.0</ele><time>2026-04-24T04:05:43.001Z</time></trkpt><trkpt lat="-19.253928008441196" lon="121.61321894007041"><ele>34.5</ele><time>2026-04-24T04:05:44.001Z</time></trkpt><trkpt lat="-19.253658146682394" lon="121.6133434007887"><ele>35.0</ele><time>2026-04-24T04:05:45.001Z</time></trkpt><trkpt lat="-19.253393686824325" lon="121.61347014813843"><ele>35.0</ele><time>2026-04-24T04:05:46.001Z</time></trkpt><trkpt lat="-19.253130517669227" lon="121.61359012838051"><ele>35.0</ele><time>2026-04-24T04:05:47.001Z</time></trkpt><trkpt lat="-19.2528661242965" lon="121.613708228178"><ele>35.0</ele><time>2026-04-24T04:05:48.001Z</time></trkpt><trkpt lat="-19.25259656414824" lon="121.61382766824254"><ele>35.0</ele><time>2026-04-24T04:05:49.001Z</time></trkpt><trkpt lat="-19.25232084238802" lon="121.61393939955565"><ele>34.5</ele><time>2026-04-24T04:05:50.001Z</time></trkpt><trkpt lat="-19.252042024930265" lon="121.61404166809001"><ele>34.0</ele><time>2026-04-24T04:05:51Z</time></trkpt><trkpt lat="-19.251757808943655" lon="121.61413960952743"><ele>34.0</ele><time>2026-04-24T04:05:52Z</time></trkpt><trkpt lat="-19.251469720401122" lon="121.61423396190801"><ele>34.0</ele><time>2026-04-24T04:05:53Z</time></trkpt><trkpt lat="-19.251176973554898" lon="121.61432151050371"><ele>34.5</ele><time>2026-04-24T04:05:54Z</time></trkpt><trkpt lat="-19.250885425152685" lon="121.61440309359726"><ele>35.0</ele><time>2026-04-24T04:05:55Z</time></trkpt><trkpt lat="-19.250592198863036" lon="121.61448112608103"><ele>35.5</ele><time>2026-04-24T04:05:56Z</time></trkpt><trkpt lat="-19.250297218546038" lon="121.61455346087104"><ele>36.0</ele><time>2026-04-24T04:05:57Z</time></trkpt><trkpt lat="-19.250001606740035" lon="121.61461916349334"><ele>36.0</ele><time>2026-04-24T04:05:58Z</time></trkpt><trkpt lat="-19.249704009441626" lon="121.61467927479137"><ele>36.0</ele><time>2026-04-24T04:05:59Z</time></trkpt><trkpt lat="-19.249401436164867" lon="121.6147336312366"><ele>36.0</ele><time>2026-04-24T04:06:00Z</time></trkpt><trkpt lat="-19.249096710777117" lon="121.61478398773686"><ele>36.0</ele><time>2026-04-24T04:06:01Z</time></trkpt><trkpt lat="-19.248791175995" lon="121.61483268531966"><ele>36.5</ele><time>2026-04-24T04:06:02Z</time></trkpt><trkpt lat="-19.24848530424834" lon="121.61488030579716"><ele>37.0</ele><time>2026-04-24T04:06:03Z</time></trkpt><trkpt lat="-19.248178119952403" lon="121.61492848330477"><ele>37.0</ele><time>2026-04-24T04:06:04Z</time></trkpt><trkpt lat="-19.247872263259726" lon="121.6149801678113"><ele>37.0</ele><time>2026-04-24T04:06:05Z</time></trkpt><trkpt lat="-19.247568964102193" lon="121.61503125897072"><ele>38.5</ele><time>2026-04-24T04:06:06Z</time></trkpt><trkpt lat="-19.24726987232087" lon="121.61508290399749"><ele>40.0</ele><time>2026-04-24T04:06:07Z</time></trkpt><trkpt lat="-19.246968996930526" lon="121.61513590091724"><ele>40.0</ele><time>2026-04-24T04:06:08Z</time></trkpt><trkpt lat="-19.246668562590575" lon="121.61518923352877"><ele>40.0</ele><time>2026-04-24T04:06:09Z</time></trkpt><trkpt lat="-19.246367275134368" lon="121.61524021495573"><ele>39.0</ele><time>2026-04-24T04:06:10Z</time></trkpt><trkpt lat="-19.246066227880373" lon="121.61529019859279"><ele>38.0</ele><time>2026-04-24T04:06:11Z</time></trkpt><trkpt lat="-19.245761822971655" lon="121.61533763386942"><ele>37.5</ele><time>2026-04-24T04:06:12Z</time></trkpt><trkpt lat="-19.245459671002656" lon="121.61538415639478"><ele>37.0</ele><time>2026-04-24T04:06:13Z</time></trkpt><trkpt lat="-19.245156568860345" lon="121.61543122535527"><ele>37.0</ele><time>2026-04-24T04:06:14Z</time></trkpt><trkpt lat="-19.24485179087876" lon="121.6154808736693"><ele>37.0</ele><time>2026-04-24T04:06:15Z</time></trkpt><trkpt lat="-19.24454495749853" lon="121.61553219433279"><ele>37.0</ele><time>2026-04-24T04:06:16Z</time></trkpt><trkpt lat="-19.244240177985535" lon="121.61558553990724"><ele>37.0</ele><time>2026-04-24T04:06:17Z</time></trkpt><trkpt lat="-19.243931382890853" lon="121.61563925948869"><ele>37.5</ele><time>2026-04-24T04:06:18Z</time></trkpt><trkpt lat="-19.24362541136387" lon="121.61569452399502"><ele>38.0</ele><time>2026-04-24T04:06:19Z</time></trkpt><trkpt lat="-19.243320052637387" lon="121.61575271965063"><ele>37.0</ele><time>2026-04-24T04:06:20Z</time></trkpt><trkpt lat="-19.243014869809457" lon="121.61580665250511"><ele>36.0</ele><time>2026-04-24T04:06:21Z</time></trkpt><trkpt lat="-19.24270774578261" lon="121.61585339981929"><ele>36.0</ele><time>2026-04-24T04:06:22Z</time></trkpt><trkpt lat="-19.24240102727872" lon="121.61589946501901"><ele>36.0</ele><time>2026-04-24T04:06:23Z</time></trkpt><trkpt lat="-19.2420917708203" lon="121.6159483690423"><ele>35.5</ele><time>2026-04-24T04:06:24Z</time></trkpt><trkpt lat="-19.241784206046233" lon="121.61600034423428"><ele>35.0</ele><time>2026-04-24T04:06:25Z</time></trkpt><trkpt lat="-19.241475617024193" lon="121.61605254300974"><ele>34.5</ele><time>2026-04-24T04:06:26Z</time></trkpt><trkpt lat="-19.241167750373183" lon="121.61610428321491"><ele>34.0</ele><time>2026-04-24T04:06:27Z</time></trkpt><trkpt lat="-19.240861071133633" lon="121.61615328115708"><ele>35.0</ele><time>2026-04-24T04:06:28Z</time></trkpt><trkpt lat="-19.240553672760285" lon="121.61620622243294"><ele>36.0</ele><time>2026-04-24T04:06:29Z</time></trkpt><trkpt lat="-19.240248531128177" lon="121.61625792707315"><ele>36.0</ele><time>2026-04-24T04:06:30Z</time></trkpt><trkpt lat="-19.239942509890927" lon="121.61630955577947"><ele>36.0</ele><time>2026-04-24T04:06:31.001Z</time></trkpt><trkpt lat="-19.239637636984046" lon="121.61636209062883"><ele>35.0</ele><time>2026-04-24T04:06:32.001Z</time></trkpt><trkpt lat="-19.23933310638003" lon="121.61641302863983"><ele>34.0</ele><time>2026-04-24T04:06:33.001Z</time></trkpt><trkpt lat="-19.239031831583222" lon="121.61646297555451"><ele>34.0</ele><time>2026-04-24T04:06:34.001Z</time></trkpt><trkpt lat="-19.238731362318912" lon="121.61651088788146"><ele>34.0</ele><time>2026-04-24T04:06:35.001Z</time></trkpt><trkpt lat="-19.238431507285405" lon="121.61655961861834"><ele>34.5</ele><time>2026-04-24T04:06:36.001Z</time></trkpt><trkpt lat="-19.23813105679194" lon="121.61660986839323"><ele>35.0</ele><time>2026-04-24T04:06:37.001Z</time></trkpt><trkpt lat="-19.237834772679467" lon="121.61665833319589"><ele>35.0</ele><time>2026-04-24T04:06:38.001Z</time></trkpt><trkpt lat="-19.237538545678806" lon="121.61670477496509"><ele>35.0</ele><time>2026-04-24T04:06:39.001Z</time></trkpt><trkpt lat="-19.23724119235412" lon="121.61675354424408"><ele>35.0</ele><time>2026-04-24T04:06:40.001Z</time></trkpt><trkpt lat="-19.236946143093995" lon="121.61680294361716"><ele>35.0</ele><time>2026-04-24T04:06:41.001Z</time></trkpt><trkpt lat="-19.236652631134728" lon="121.61685248025638"><ele>34.5</ele><time>2026-04-24T04:06:42.001Z</time></trkpt><trkpt lat="-19.23636341505573" lon="121.61690017854906"><ele>34.0</ele><time>2026-04-24T04:06:43.001Z</time></trkpt><trkpt lat="-19.236075648331227" lon="121.61694836987745"><ele>34.5</ele><time>2026-04-24T04:06:44.001Z</time></trkpt><trkpt lat="-19.235787454492304" lon="121.61699965244632"><ele>35.0</ele><time>2026-04-24T04:06:45.001Z</time></trkpt><trkpt lat="-19.23550330781518" lon="121.61705115491088"><ele>34.0</ele><time>2026-04-24T04:06:46.001Z</time></trkpt><trkpt lat="-19.235222218033865" lon="121.61710141756295"><ele>33.0</ele><time>2026-04-24T04:06:47.001Z</time></trkpt><trkpt lat="-19.234941715711685" lon="121.61714787708893"><ele>33.5</ele><time>2026-04-24T04:06:48.001Z</time></trkpt><trkpt lat="-19.234662576973992" lon="121.61719199376101"><ele>34.0</ele><time>2026-04-24T04:06:49.001Z</time></trkpt><trkpt lat="-19.234384097667082" lon="121.6172358299572"><ele>34.0</ele><time>2026-04-24T04:06:50.001Z</time></trkpt><trkpt lat="-19.2341031523584" lon="121.61728157774392"><ele>34.0</ele><time>2026-04-24T04:06:51.001Z</time></trkpt><trkpt lat="-19.233825127073793" lon="121.61732717888499"><ele>35.0</ele><time>2026-04-24T04:06:52.001Z</time></trkpt><trkpt lat="-19.233543810765305" lon="121.61737490611011"><ele>36.0</ele><time>2026-04-24T04:06:53.001Z</time></trkpt><trkpt lat="-19.233260931839265" lon="121.61742344390669"><ele>35.5</ele><time>2026-04-24T04:06:54.001Z</time></trkpt><trkpt lat="-19.232978745914767" lon="121.6174714947024"><ele>35.0</ele><time>2026-04-24T04:06:55.001Z</time></trkpt><trkpt lat="-19.232697793346254" lon="121.61751622420233"><ele>35.0</ele><time>2026-04-24T04:06:56.001Z</time></trkpt><trkpt lat="-19.232416918165097" lon="121.61755958392646"><ele>35.0</ele><time>2026-04-24T04:06:57.001Z</time></trkpt><trkpt lat="-19.232137590649717" lon="121.6176046714908"><ele>34.0</ele><time>2026-04-24T04:06:58.001Z</time></trkpt><trkpt lat="-19.23186353415317" lon="121.61764919162891"><ele>33.0</ele><time>2026-04-24T04:06:59.001Z</time></trkpt><trkpt lat="-19.231590148597803" lon="121.61769359687348"><ele>33.0</ele><time>2026-04-24T04:07:00.001Z</time></trkpt><trkpt lat="-19.231314710180815" lon="121.61773926123182"><ele>33.0</ele><time>2026-04-24T04:07:01.001Z</time></trkpt><trkpt lat="-19.231036640467266" lon="121.61778556644522"><ele>33.5</ele><time>2026-04-24T04:07:02.001Z</time></trkpt><trkpt lat="-19.230756395843027" lon="121.61783562939229"><ele>34.0</ele><time>2026-04-24T04:07:03.001Z</time></trkpt><trkpt lat="-19.23047352965664" lon="121.61788500383176"><ele>34.5</ele><time>2026-04-24T04:07:04.001Z</time></trkpt><trkpt lat="-19.230190563869048" lon="121.61793213567991"><ele>35.0</ele><time>2026-04-24T04:07:05.001Z</time></trkpt><trkpt lat="-19.22990424508975" lon="121.61797870118184"><ele>35.0</ele><time>2026-04-24T04:07:06.001Z</time></trkpt><trkpt lat="-19.229617489463536" lon="121.61802396088947"><ele>35.0</ele><time>2026-04-24T04:07:07.001Z</time></trkpt><trkpt lat="-19.22932842597618" lon="121.61806984473829"><ele>35.0</ele><time>2026-04-24T04:07:08.001Z</time></trkpt><trkpt lat="-19.229038385397985" lon="121.61811769606862"><ele>35.0</ele><time>2026-04-24T04:07:09.001Z</time></trkpt><trkpt lat="-19.22874626393115" lon="121.61816801113355"><ele>34.0</ele><time>2026-04-24T04:07:10.001Z</time></trkpt><trkpt lat="-19.22845268817755" lon="121.61821877015302"><ele>33.0</ele><time>2026-04-24T04:07:11.001Z</time></trkpt><trkpt lat="-19.228155462896222" lon="121.61826798736698"><ele>33.5</ele><time>2026-04-24T04:07:12.001Z</time></trkpt><trkpt lat="-19.22786157839269" lon="121.6183163181861"><ele>34.0</ele><time>2026-04-24T04:07:13.001Z</time></trkpt><trkpt lat="-19.227566297426385" lon="121.61836559420618"><ele>34.0</ele><time>2026-04-24T04:07:14.001Z</time></trkpt><trkpt lat="-19.2272738191376" lon="121.61841320899246"><ele>34.0</ele><time>2026-04-24T04:07:15.001Z</time></trkpt><trkpt lat="-19.226978118374177" lon="121.6184621521833"><ele>34.0</ele><time>2026-04-24T04:07:16.001Z</time></trkpt><trkpt lat="-19.22667728687624" lon="121.61851301636237"><ele>34.0</ele><time>2026-04-24T04:07:17.001Z</time></trkpt><trkpt lat="-19.226378497529602" lon="121.61856277921727"><ele>34.0</ele><time>2026-04-24T04:07:18.001Z</time></trkpt><trkpt lat="-19.22607845696339" lon="121.61861079790748"><ele>34.0</ele><time>2026-04-24T04:07:19.001Z</time></trkpt><trkpt lat="-19.225776459783255" lon="121.61866109967677"><ele>34.0</ele><time>2026-04-24T04:07:20.001Z</time></trkpt><trkpt lat="-19.22547225376691" lon="121.61871340158153"><ele>34.0</ele><time>2026-04-24T04:07:21.001Z</time></trkpt><trkpt lat="-19.22517030439305" lon="121.6187675960598"><ele>34.0</ele><time>2026-04-24T04:07:22.001Z</time></trkpt><trkpt lat="-19.22486490510585" lon="121.61882052270285"><ele>34.0</ele><time>2026-04-24T04:07:23.001Z</time></trkpt><trkpt lat="-19.22456384885965" lon="121.61887087316542"><ele>34.0</ele><time>2026-04-24T04:07:24.001Z</time></trkpt><trkpt lat="-19.224261139921566" lon="121.6189198278368"><ele>34.0</ele><time>2026-04-24T04:07:25.001Z</time></trkpt><trkpt lat="-19.223962715837306" lon="121.6189672142015"><ele>34.5</ele><time>2026-04-24T04:07:26.001Z</time></trkpt><trkpt lat="-19.223665081457177" lon="121.61901585894672"><ele>35.0</ele><time>2026-04-24T04:07:27.001Z</time></trkpt><trkpt lat="-19.22336485989547" lon="121.61906706170166"><ele>34.5</ele><time>2026-04-24T04:07:28.001Z</time></trkpt><trkpt lat="-19.223065132081807" lon="121.61911705566649"><ele>34.0</ele><time>2026-04-24T04:07:29.001Z</time></trkpt><trkpt lat="-19.22276424694697" lon="121.61916921434202"><ele>34.0</ele><time>2026-04-24T04:07:30.001Z</time></trkpt><trkpt lat="-19.222467552625414" lon="121.61921952398667"><ele>34.0</ele><time>2026-04-24T04:07:31.001Z</time></trkpt><trkpt lat="-19.222169043440008" lon="121.61927044254959"><ele>33.5</ele><time>2026-04-24T04:07:32.001Z</time></trkpt><trkpt lat="-19.221871257568036" lon="121.61931989675556"><ele>33.0</ele><time>2026-04-24T04:07:33.001Z</time></trkpt><trkpt lat="-19.221573543034587" lon="121.6193676814319"><ele>33.5</ele><time>2026-04-24T04:07:34.001Z</time></trkpt><trkpt lat="-19.22127386867947" lon="121.61941581560994"><ele>34.0</ele><time>2026-04-24T04:07:35.001Z</time></trkpt><trkpt lat="-19.220974002070342" lon="121.61946551243292"><ele>34.5</ele><time>2026-04-24T04:07:36.001Z</time></trkpt><trkpt lat="-19.220674030484897" lon="121.61951453776636"><ele>35.0</ele><time>2026-04-24T04:07:37.001Z</time></trkpt><trkpt lat="-19.220371324114332" lon="121.61956627890714"><ele>34.0</ele><time>2026-04-24T04:07:38.001Z</time></trkpt><trkpt lat="-19.220070679976285" lon="121.61961768284837"><ele>33.0</ele><time>2026-04-24T04:07:39.001Z</time></trkpt><trkpt lat="-19.219767908985354" lon="121.61966814490167"><ele>32.0</ele><time>2026-04-24T04:07:40.001Z</time></trkpt><trkpt lat="-19.219465841459048" lon="121.61971690304338"><ele>31.0</ele><time>2026-04-24T04:07:41.001Z</time></trkpt><trkpt lat="-19.21916400883748" lon="121.6197667288014"><ele>30.5</ele><time>2026-04-24T04:07:42.001Z</time></trkpt><trkpt lat="-19.218863548817676" lon="121.61981832082846"><ele>30.0</ele><time>2026-04-24T04:07:43.001Z</time></trkpt><trkpt lat="-19.21856433787127" lon="121.61987160239832"><ele>30.0</ele><time>2026-04-24T04:07:44.001Z</time></trkpt><trkpt lat="-19.218267376477304" lon="121.61992420511785"><ele>30.0</ele><time>2026-04-24T04:07:45.001Z</time></trkpt><trkpt lat="-19.217967574173493" lon="121.61997595651466"><ele>29.5</ele><time>2026-04-24T04:07:46.001Z</time></trkpt><trkpt lat="-19.217665172247667" lon="121.62002657293463"><ele>29.0</ele><time>2026-04-24T04:07:47.001Z</time></trkpt><trkpt lat="-19.21736309745628" lon="121.62007492723312"><ele>29.5</ele><time>2026-04-24T04:07:48.001Z</time></trkpt><trkpt lat="-19.217061252520153" lon="121.6201234398878"><ele>30.0</ele><time>2026-04-24T04:07:49.001Z</time></trkpt><trkpt lat="-19.216760902791545" lon="121.62017340672571"><ele>30.0</ele><time>2026-04-24T04:07:50.001Z</time></trkpt><trkpt lat="-19.216460370145608" lon="121.62022586720866"><ele>30.0</ele><time>2026-04-24T04:07:51.001Z</time></trkpt><trkpt lat="-19.216160451766097" lon="121.62027706272738"><ele>30.0</ele><time>2026-04-24T04:07:52.001Z</time></trkpt><trkpt lat="-19.215861830697197" lon="121.62032620411742"><ele>30.0</ele><time>2026-04-24T04:07:53.001Z</time></trkpt><trkpt lat="-19.215564156862722" lon="121.62037670364262"><ele>29.0</ele><time>2026-04-24T04:07:54.001Z</time></trkpt><trkpt lat="-19.215272467551618" lon="121.62042534904707"><ele>28.0</ele><time>2026-04-24T04:07:55.001Z</time></trkpt><trkpt lat="-19.21497991132201" lon="121.62047371110201"><ele>27.0</ele><time>2026-04-24T04:07:56.001Z</time></trkpt><trkpt lat="-19.214686674856964" lon="121.62052147467269"><ele>26.0</ele><time>2026-04-24T04:07:57Z</time></trkpt><trkpt lat="-19.21439168438847" lon="121.62056917087095"><ele>26.0</ele><time>2026-04-24T04:07:58Z</time></trkpt><trkpt lat="-19.21409657554915" lon="121.62061922819471"><ele>26.0</ele><time>2026-04-24T04:07:59Z</time></trkpt><trkpt lat="-19.21380133478999" lon="121.62066849372486"><ele>27.0</ele><time>2026-04-24T04:08:00Z</time></trkpt><trkpt lat="-19.213505176718996" lon="121.62071873249005"><ele>28.0</ele><time>2026-04-24T04:08:01Z</time></trkpt><trkpt lat="-19.2132091466728" lon="121.62076709230512"><ele>28.0</ele><time>2026-04-24T04:08:02Z</time></trkpt><trkpt lat="-19.21291335040787" lon="121.62081488354217"><ele>28.0</ele><time>2026-04-24T04:08:03Z</time></trkpt><trkpt lat="-19.212619613138077" lon="121.62086336530703"><ele>28.0</ele><time>2026-04-24T04:08:04Z</time></trkpt><trkpt lat="-19.212325541860846" lon="121.62091252974544"><ele>28.0</ele><time>2026-04-24T04:08:05Z</time></trkpt><trkpt lat="-19.212033824172416" lon="121.62095943369255"><ele>27.5</ele><time>2026-04-24T04:08:06Z</time></trkpt><trkpt lat="-19.211738620924567" lon="121.62100817391133"><ele>27.0</ele><time>2026-04-24T04:08:07Z</time></trkpt><trkpt lat="-19.211445282035797" lon="121.62105834602387"><ele>26.5</ele><time>2026-04-24T04:08:08Z</time></trkpt><trkpt lat="-19.211150678655347" lon="121.62110936397032"><ele>26.0</ele><time>2026-04-24T04:08:09Z</time></trkpt><trkpt lat="-19.210856633890632" lon="121.62115617133138"><ele>25.5</ele><time>2026-04-24T04:08:10Z</time></trkpt><trkpt lat="-19.210566470799623" lon="121.62120038490093"><ele>25.0</ele><time>2026-04-24T04:08:11Z</time></trkpt><trkpt lat="-19.21027751065797" lon="121.62124732808998"><ele>25.0</ele><time>2026-04-24T04:08:12Z</time></trkpt><trkpt lat="-19.209989950659196" lon="121.62129652329068"><ele>25.0</ele><time>2026-04-24T04:08:13Z</time></trkpt><trkpt lat="-19.2097060591655" lon="121.62134410841993"><ele>25.5</ele><time>2026-04-24T04:08:14Z</time></trkpt><trkpt lat="-19.209421985840216" lon="121.62139216738372"><ele>26.0</ele><time>2026-04-24T04:08:15Z</time></trkpt><trkpt lat="-19.209135358332258" lon="121.62143977605807"><ele>25.5</ele><time>2026-04-24T04:08:16Z</time></trkpt><trkpt lat="-19.208845172114366" lon="121.62148846183564"><ele>25.0</ele><time>2026-04-24T04:08:17Z</time></trkpt><trkpt lat="-19.20855413796593" lon="121.62153902597332"><ele>25.0</ele><time>2026-04-24T04:08:18Z</time></trkpt><trkpt lat="-19.208260731738637" lon="121.62159085818614"><ele>25.0</ele><time>2026-04-24T04:08:19Z</time></trkpt><trkpt lat="-19.207967167372903" lon="121.6216408624809"><ele>25.5</ele><time>2026-04-24T04:08:20Z</time></trkpt><trkpt lat="-19.207675730637384" lon="121.62168887222549"><ele>26.0</ele><time>2026-04-24T04:08:21Z</time></trkpt><trkpt lat="-19.207384930370285" lon="121.62173997895735"><ele>25.5</ele><time>2026-04-24T04:08:22Z</time></trkpt><trkpt lat="-19.207095426490127" lon="121.62179572455307"><ele>25.0</ele><time>2026-04-24T04:08:23Z</time></trkpt><trkpt lat="-19.20680823402982" lon="121.621859611235"><ele>25.0</ele><time>2026-04-24T04:08:24Z</time></trkpt><trkpt lat="-19.20652439347894" lon="121.62192958606846"><ele>25.0</ele><time>2026-04-24T04:08:25Z</time></trkpt><trkpt lat="-19.206239298913736" lon="121.6220056490263"><ele>24.5</ele><time>2026-04-24T04:08:26Z</time></trkpt><trkpt lat="-19.20595573452351" lon="121.62208512251384"><ele>24.0</ele><time>2026-04-24T04:08:27Z</time></trkpt><trkpt lat="-19.20567382668309" lon="121.6221711930682"><ele>23.5</ele><time>2026-04-24T04:08:28Z</time></trkpt><trkpt lat="-19.205395008876316" lon="121.62226170887223"><ele>23.0</ele><time>2026-04-24T04:08:29Z</time></trkpt><trkpt lat="-19.205115862854562" lon="121.62235967197279"><ele>23.0</ele><time>2026-04-24T04:08:30Z</time></trkpt><trkpt lat="-19.204840609714267" lon="121.62246199801427"><ele>23.0</ele><time>2026-04-24T04:08:31Z</time></trkpt><trkpt lat="-19.204565116481426" lon="121.62256780466315"><ele>22.0</ele><time>2026-04-24T04:08:32Z</time></trkpt><trkpt lat="-19.204290132791556" lon="121.62267874294571"><ele>21.0</ele><time>2026-04-24T04:08:33Z</time></trkpt><trkpt lat="-19.204015976159976" lon="121.62279675362389"><ele>22.0</ele><time>2026-04-24T04:08:34Z</time></trkpt><trkpt lat="-19.20374363346029" lon="121.62292077043595"><ele>23.0</ele><time>2026-04-24T04:08:35Z</time></trkpt><trkpt lat="-19.20346765808139" lon="121.62304707909587"><ele>23.0</ele><time>2026-04-24T04:08:36Z</time></trkpt><trkpt lat="-19.203190453367707" lon="121.62317294705186"><ele>23.0</ele><time>2026-04-24T04:08:37Z</time></trkpt><trkpt lat="-19.202927940564503" lon="121.62328769931264"><ele>22.5</ele><time>2026-04-24T04:08:38Z</time></trkpt><trkpt lat="-19.202671342788562" lon="121.62340276583824"><ele>22.0</ele><time>2026-04-24T04:08:39Z</time></trkpt><trkpt lat="-19.202405977699176" lon="121.62352213310639"><ele>22.0</ele><time>2026-04-24T04:08:40Z</time></trkpt><trkpt lat="-19.202132625493842" lon="121.6236437314664"><ele>22.0</ele><time>2026-04-24T04:08:41Z</time></trkpt><trkpt lat="-19.201856644248686" lon="121.62376593249178"><ele>22.0</ele><time>2026-04-24T04:08:42Z</time></trkpt><trkpt lat="-19.20157556357713" lon="121.62389253204343"><ele>22.0</ele><time>2026-04-24T04:08:43Z</time></trkpt><trkpt lat="-19.201293885973257" lon="121.62402007442078"><ele>22.5</ele><time>2026-04-24T04:08:44Z</time></trkpt><trkpt lat="-19.201011688315422" lon="121.62414834970573"><ele>23.0</ele><time>2026-04-24T04:08:45Z</time></trkpt><trkpt lat="-19.20072932112167" lon="121.62427657161678"><ele>23.0</ele><time>2026-04-24T04:08:46Z</time></trkpt><trkpt lat="-19.200445822202987" lon="121.62440469644642"><ele>23.0</ele><time>2026-04-24T04:08:47Z</time></trkpt><trkpt lat="-19.200159813913668" lon="121.62453343364916"><ele>23.0</ele><time>2026-04-24T04:08:48Z</time></trkpt><trkpt lat="-19.199873167523936" lon="121.62465911950177"><ele>23.0</ele><time>2026-04-24T04:08:49Z</time></trkpt><trkpt lat="-19.199586606205852" lon="121.62478492024243"><ele>22.5</ele><time>2026-04-24T04:08:50Z</time></trkpt><trkpt lat="-19.19930019615122" lon="121.62491185876775"><ele>22.0</ele><time>2026-04-24T04:08:51Z</time></trkpt><trkpt lat="-19.199015469684007" lon="121.62504127774967"><ele>22.0</ele><time>2026-04-24T04:08:52Z</time></trkpt><trkpt lat="-19.198731960883222" lon="121.62516952262207"><ele>22.0</ele><time>2026-04-24T04:08:53Z</time></trkpt><trkpt lat="-19.198447343015026" lon="121.62529838007855"><ele>22.0</ele><time>2026-04-24T04:08:54Z</time></trkpt><trkpt lat="-19.1981665063935" lon="121.62542363647269"><ele>22.0</ele><time>2026-04-24T04:08:55Z</time></trkpt><trkpt lat="-19.197886700297264" lon="121.6255501638087"><ele>22.0</ele><time>2026-04-24T04:08:56Z</time></trkpt><trkpt lat="-19.19760564352367" lon="121.62567808138431"><ele>22.0</ele><time>2026-04-24T04:08:57.001Z</time></trkpt><trkpt lat="-19.197324028517013" lon="121.62580669125684"><ele>21.5</ele><time>2026-04-24T04:08:58.001Z</time></trkpt><trkpt lat="-19.197040487942104" lon="121.62593218606412"><ele>21.0</ele><time>2026-04-24T04:08:59.001Z</time></trkpt><trkpt lat="-19.196757595617086" lon="121.6260548362457"><ele>21.5</ele><time>2026-04-24T04:09:00.001Z</time></trkpt><trkpt lat="-19.196473881761158" lon="121.6261785438414"><ele>22.0</ele><time>2026-04-24T04:09:01.001Z</time></trkpt><trkpt lat="-19.196190471647334" lon="121.62630552932802"><ele>22.0</ele><time>2026-04-24T04:09:02.001Z</time></trkpt><trkpt lat="-19.195908729420584" lon="121.62643640660228"><ele>22.0</ele><time>2026-04-24T04:09:03.001Z</time></trkpt><trkpt lat="-19.195631237766932" lon="121.62656542569948"><ele>21.0</ele><time>2026-04-24T04:09:04.001Z</time></trkpt><trkpt lat="-19.195354857493705" lon="121.62669298551073"><ele>20.0</ele><time>2026-04-24T04:09:05.001Z</time></trkpt><trkpt lat="-19.19507614897225" lon="121.62682003025321"><ele>20.5</ele><time>2026-04-24T04:09:06.001Z</time></trkpt><trkpt lat="-19.194793861525174" lon="121.62694603344858"><ele>21.0</ele><time>2026-04-24T04:09:07.001Z</time></trkpt><trkpt lat="-19.19451071309034" lon="121.62706897299213"><ele>21.0</ele><time>2026-04-24T04:09:08.001Z</time></trkpt><trkpt lat="-19.194225884732134" lon="121.62719354873981"><ele>21.0</ele><time>2026-04-24T04:09:09.001Z</time></trkpt><trkpt lat="-19.193943823605082" lon="121.62731949073356"><ele>21.0</ele><time>2026-04-24T04:09:10.001Z</time></trkpt><trkpt lat="-19.193660139476048" lon="121.62744695091924"><ele>21.0</ele><time>2026-04-24T04:09:11.001Z</time></trkpt><trkpt lat="-19.193375712429326" lon="121.62757286463355"><ele>21.5</ele><time>2026-04-24T04:09:12.001Z</time></trkpt><trkpt lat="-19.19309355597246" lon="121.62769874695194"><ele>22.0</ele><time>2026-04-24T04:09:13.001Z</time></trkpt><trkpt lat="-19.19281035801299" lon="121.6278269889922"><ele>22.0</ele><time>2026-04-24T04:09:14.001Z</time></trkpt><trkpt lat="-19.19252473884711" lon="121.6279559913637"><ele>22.0</ele><time>2026-04-24T04:09:15.001Z</time></trkpt><trkpt lat="-19.192241347543792" lon="121.628081577891"><ele>21.0</ele><time>2026-04-24T04:09:16.001Z</time></trkpt><trkpt lat="-19.191954156737342" lon="121.6282090676501"><ele>20.0</ele><time>2026-04-24T04:09:17.001Z</time></trkpt><trkpt lat="-19.191667103656766" lon="121.62833662567887"><ele>21.0</ele><time>2026-04-24T04:09:18.001Z</time></trkpt><trkpt lat="-19.19138265932837" lon="121.62846442889929"><ele>22.0</ele><time>2026-04-24T04:09:19.001Z</time></trkpt><trkpt lat="-19.191101185307634" lon="121.6285893435818"><ele>22.0</ele><time>2026-04-24T04:09:20.001Z</time></trkpt><trkpt lat="-19.190823847838" lon="121.62871419091358"><ele>22.0</ele><time>2026-04-24T04:09:21.001Z</time></trkpt><trkpt lat="-19.19055304796263" lon="121.62883958550262"><ele>22.0</ele><time>2026-04-24T04:09:22.001Z</time></trkpt><trkpt lat="-19.190282141300358" lon="121.62896275069009"><ele>22.0</ele><time>2026-04-24T04:09:23.001Z</time></trkpt><trkpt lat="-19.190010017658583" lon="121.6290858844398"><ele>21.5</ele><time>2026-04-24T04:09:24.001Z</time></trkpt><trkpt lat="-19.189736353669446" lon="121.62920933609564"><ele>21.0</ele><time>2026-04-24T04:09:25.001Z</time></trkpt><trkpt lat="-19.189466787518494" lon="121.62933130510974"><ele>21.0</ele><time>2026-04-24T04:09:26.001Z</time></trkpt><trkpt lat="-19.189199438813752" lon="121.62945486530921"><ele>21.0</ele><time>2026-04-24T04:09:27.001Z</time></trkpt><trkpt lat="-19.18893428403165" lon="121.62957044413075"><ele>21.0</ele><time>2026-04-24T04:09:28.001Z</time></trkpt><trkpt lat="-19.188666631759215" lon="121.62968616501013"><ele>21.0</ele><time>2026-04-24T04:09:29.001Z</time></trkpt><trkpt lat="-19.188399565280214" lon="121.6298043200214"><ele>20.5</ele><time>2026-04-24T04:09:30.001Z</time></trkpt><trkpt lat="-19.18813540684984" lon="121.62992160991098"><ele>20.0</ele><time>2026-04-24T04:09:31.001Z</time></trkpt><trkpt lat="-19.18787131064332" lon="121.63004219332895"><ele>20.0</ele><time>2026-04-24T04:09:32.001Z</time></trkpt><trkpt lat="-19.187608498981046" lon="121.63016337378696"><ele>20.0</ele><time>2026-04-24T04:09:33.001Z</time></trkpt><trkpt lat="-19.18734497278426" lon="121.63028320525864"><ele>19.0</ele><time>2026-04-24T04:09:34.001Z</time></trkpt><trkpt lat="-19.18708098025788" lon="121.63040133553724"><ele>18.0</ele><time>2026-04-24T04:09:35.001Z</time></trkpt><trkpt lat="-19.186817728317287" lon="121.63051711007128"><ele>18.0</ele><time>2026-04-24T04:09:36.001Z</time></trkpt><trkpt lat="-19.18655458486533" lon="121.63063115261797"><ele>18.0</ele><time>2026-04-24T04:09:37.001Z</time></trkpt><trkpt lat="-19.186292362357786" lon="121.63074703322638"><ele>18.0</ele><time>2026-04-24T04:09:38.001Z</time></trkpt><trkpt lat="-19.186028803758862" lon="121.63086690456579"><ele>18.0</ele><time>2026-04-24T04:09:39.001Z</time></trkpt><trkpt lat="-19.185766257280886" lon="121.63098688280967"><ele>18.5</ele><time>2026-04-24T04:09:40.001Z</time></trkpt><trkpt lat="-19.185504534828492" lon="121.63110478806217"><ele>19.0</ele><time>2026-04-24T04:09:41.001Z</time></trkpt><trkpt lat="-19.18524092166326" lon="121.63122291924408"><ele>19.0</ele><time>2026-04-24T04:09:42.001Z</time></trkpt><trkpt lat="-19.18497455979206" lon="121.63134027006588"><ele>19.0</ele><time>2026-04-24T04:09:43.001Z</time></trkpt><trkpt lat="-19.184705172563064" lon="121.63146031099585"><ele>19.0</ele><time>2026-04-24T04:09:44.001Z</time></trkpt><trkpt lat="-19.184434825766772" lon="121.6315810650232"><ele>19.0</ele><time>2026-04-24T04:09:45.001Z</time></trkpt><trkpt lat="-19.184163448194784" lon="121.63170422967451"><ele>18.5</ele><time>2026-04-24T04:09:46.001Z</time></trkpt><trkpt lat="-19.1838899576053" lon="121.63182921942794"><ele>18.0</ele><time>2026-04-24T04:09:47.001Z</time></trkpt><trkpt lat="-19.183614528695845" lon="121.63195539703399"><ele>18.0</ele><time>2026-04-24T04:09:48.001Z</time></trkpt><trkpt lat="-19.183338733787394" lon="121.63207521110351"><ele>18.0</ele><time>2026-04-24T04:09:49.001Z</time></trkpt><trkpt lat="-19.183062379721715" lon="121.63219744727054"><ele>18.0</ele><time>2026-04-24T04:09:50.001Z</time></trkpt><trkpt lat="-19.182786074399882" lon="121.63231880440131"><ele>18.0</ele><time>2026-04-24T04:09:51.001Z</time></trkpt><trkpt lat="-19.18250941395139" lon="121.63244009293794"><ele>18.0</ele><time>2026-04-24T04:09:52.001Z</time></trkpt><trkpt lat="-19.182232065155432" lon="121.6325632129804"><ele>18.0</ele><time>2026-04-24T04:09:53.001Z</time></trkpt><trkpt lat="-19.181956079973872" lon="121.6326865773317"><ele>18.5</ele><time>2026-04-24T04:09:54.001Z</time></trkpt><trkpt lat="-19.18167331780157" lon="121.6328150316267"><ele>19.0</ele><time>2026-04-24T04:09:55.001Z</time></trkpt><trkpt lat="-19.181394844074724" lon="121.63293982239244"><ele>19.0</ele><time>2026-04-24T04:09:56.001Z</time></trkpt><trkpt lat="-19.181118644720282" lon="121.63306549700042"><ele>19.0</ele><time>2026-04-24T04:09:57.001Z</time></trkpt><trkpt lat="-19.180841523143393" lon="121.63319181916704"><ele>18.5</ele><time>2026-04-24T04:09:58.001Z</time></trkpt><trkpt lat="-19.180567028608657" lon="121.63331506117753"><ele>18.0</ele><time>2026-04-24T04:09:59.001Z</time></trkpt><trkpt lat="-19.180296671850993" lon="121.6334369089157"><ele>18.0</ele><time>2026-04-24T04:10:00.001Z</time></trkpt><trkpt lat="-19.180023817266783" lon="121.6335602925691"><ele>18.0</ele><time>2026-04-24T04:10:01.001Z</time></trkpt><trkpt lat="-19.179751844633977" lon="121.63368218388489"><ele>18.5</ele><time>2026-04-24T04:10:02.001Z</time></trkpt><trkpt lat="-19.179476285372527" lon="121.6338061856884"><ele>19.0</ele><time>2026-04-24T04:10:03Z</time></trkpt><trkpt lat="-19.179200540529898" lon="121.63392868634217"><ele>19.0</ele><time>2026-04-24T04:10:04Z</time></trkpt><trkpt lat="-19.17892434454431" lon="121.63405083506169"><ele>19.0</ele><time>2026-04-24T04:10:05Z</time></trkpt><trkpt lat="-19.178647294802104" lon="121.63417275334675"><ele>19.0</ele><time>2026-04-24T04:10:06Z</time></trkpt><trkpt lat="-19.178366358498977" lon="121.63429589949924"><ele>19.0</ele><time>2026-04-24T04:10:07Z</time></trkpt><trkpt lat="-19.178087211827982" lon="121.63442268313297"><ele>19.0</ele><time>2026-04-24T04:10:08Z</time></trkpt><trkpt lat="-19.177808216317718" lon="121.63454820222849"><ele>19.0</ele><time>2026-04-24T04:10:09Z</time></trkpt><trkpt lat="-19.177529876164183" lon="121.63467350399975"><ele>18.5</ele><time>2026-04-24T04:10:10Z</time></trkpt><trkpt lat="-19.177250760992916" lon="121.63479902803293"><ele>18.0</ele><time>2026-04-24T04:10:11Z</time></trkpt><trkpt lat="-19.1769738274352" lon="121.63492412547535"><ele>18.0</ele><time>2026-04-24T04:10:12Z</time></trkpt><trkpt lat="-19.176699715087885" lon="121.63505131950888"><ele>18.0</ele><time>2026-04-24T04:10:13Z</time></trkpt><trkpt lat="-19.176431723473495" lon="121.63517550334598"><ele>18.5</ele><time>2026-04-24T04:10:14Z</time></trkpt><trkpt lat="-19.176165155073107" lon="121.63529744871883"><ele>19.0</ele><time>2026-04-24T04:10:15Z</time></trkpt><trkpt lat="-19.175899442450287" lon="121.63541775076786"><ele>18.5</ele><time>2026-04-24T04:10:16Z</time></trkpt><trkpt lat="-19.175631148033798" lon="121.63553485371743"><ele>18.0</ele><time>2026-04-24T04:10:17Z</time></trkpt><trkpt lat="-19.175367551887646" lon="121.63564818345039"><ele>18.0</ele><time>2026-04-24T04:10:18Z</time></trkpt><trkpt lat="-19.17510737312888" lon="121.63576097794909"><ele>18.0</ele><time>2026-04-24T04:10:19Z</time></trkpt><trkpt lat="-19.174845574548407" lon="121.6358771262606"><ele>18.0</ele><time>2026-04-24T04:10:20Z</time></trkpt><trkpt lat="-19.17458061380428" lon="121.63599394307309"><ele>18.0</ele><time>2026-04-24T04:10:21Z</time></trkpt><trkpt lat="-19.174313950497165" lon="121.63611391178817"><ele>18.5</ele><time>2026-04-24T04:10:22Z</time></trkpt><trkpt lat="-19.174042084397094" lon="121.63623811582346"><ele>19.0</ele><time>2026-04-24T04:10:23Z</time></trkpt><trkpt lat="-19.173770285506833" lon="121.63636059316057"><ele>19.0</ele><time>2026-04-24T04:10:24Z</time></trkpt><trkpt lat="-19.173493566625332" lon="121.63648237577806"><ele>19.0</ele><time>2026-04-24T04:10:25Z</time></trkpt><trkpt lat="-19.173216874311162" lon="121.63660427845672"><ele>19.0</ele><time>2026-04-24T04:10:26Z</time></trkpt><trkpt lat="-19.17294050521489" lon="121.6367262967942"><ele>19.0</ele><time>2026-04-24T04:10:27Z</time></trkpt><trkpt lat="-19.172661378037816" lon="121.63685061719143"><ele>19.5</ele><time>2026-04-24T04:10:28Z</time></trkpt><trkpt lat="-19.17238192355678" lon="121.63697551106632"><ele>20.0</ele><time>2026-04-24T04:10:29Z</time></trkpt><trkpt lat="-19.172102285966762" lon="121.63710326941222"><ele>20.0</ele><time>2026-04-24T04:10:30Z</time></trkpt><trkpt lat="-19.171817174753524" lon="121.63723437894626"><ele>20.0</ele><time>2026-04-24T04:10:31Z</time></trkpt><trkpt lat="-19.17153231833651" lon="121.6373650417183"><ele>20.5</ele><time>2026-04-24T04:10:32Z</time></trkpt><trkpt lat="-19.17124762228548" lon="121.63749316377707"><ele>21.0</ele><time>2026-04-24T04:10:33Z</time></trkpt><trkpt lat="-19.1709605289856" lon="121.6376189874873"><ele>21.0</ele><time>2026-04-24T04:10:34Z</time></trkpt><trkpt lat="-19.170671213762283" lon="121.63774767835531"><ele>21.0</ele><time>2026-04-24T04:10:35Z</time></trkpt><trkpt lat="-19.170378417675224" lon="121.6378774533288"><ele>21.5</ele><time>2026-04-24T04:10:36Z</time></trkpt><trkpt lat="-19.170084641302537" lon="121.63800930778882"><ele>22.0</ele><time>2026-04-24T04:10:37Z</time></trkpt><trkpt lat="-19.169791006367305" lon="121.63814096980093"><ele>22.0</ele><time>2026-04-24T04:10:38Z</time></trkpt><trkpt lat="-19.169497025044286" lon="121.63827243179776"><ele>22.0</ele><time>2026-04-24T04:10:39Z</time></trkpt><trkpt lat="-19.169204856435908" lon="121.63840451162415"><ele>22.0</ele><time>2026-04-24T04:10:40Z</time></trkpt><trkpt lat="-19.168912769411428" lon="121.63853743523225"><ele>22.0</ele><time>2026-04-24T04:10:41Z</time></trkpt><trkpt lat="-19.16862221001133" lon="121.63866857160251"><ele>22.5</ele><time>2026-04-24T04:10:42Z</time></trkpt><trkpt lat="-19.168337727105172" lon="121.63879367066563"><ele>23.0</ele><time>2026-04-24T04:10:43Z</time></trkpt><trkpt lat="-19.168049297569564" lon="121.6389196161147"><ele>23.5</ele><time>2026-04-24T04:10:44Z</time></trkpt><trkpt lat="-19.167766370263607" lon="121.63904381322577"><ele>24.0</ele><time>2026-04-24T04:10:45Z</time></trkpt><trkpt lat="-19.167486601512824" lon="121.63916886226963"><ele>24.0</ele><time>2026-04-24T04:10:46Z</time></trkpt><trkpt lat="-19.16721027580772" lon="121.63928963312893"><ele>24.0</ele><time>2026-04-24T04:10:47Z</time></trkpt><trkpt lat="-19.16693098378179" lon="121.63941440742425"><ele>24.0</ele><time>2026-04-24T04:10:48Z</time></trkpt><trkpt lat="-19.166648523234745" lon="121.63954168137606"><ele>24.0</ele><time>2026-04-24T04:10:49Z</time></trkpt><trkpt lat="-19.166367172806737" lon="121.63966644873994"><ele>24.0</ele><time>2026-04-24T04:10:50Z</time></trkpt><trkpt lat="-19.166088572158927" lon="121.63979205281142"><ele>24.0</ele><time>2026-04-24T04:10:51Z</time></trkpt><trkpt lat="-19.165812038824946" lon="121.63991471986785"><ele>24.0</ele><time>2026-04-24T04:10:52Z</time></trkpt><trkpt lat="-19.1655345391018" lon="121.64003704976345"><ele>24.0</ele><time>2026-04-24T04:10:53Z</time></trkpt><trkpt lat="-19.165258084042712" lon="121.64015869473096"><ele>24.0</ele><time>2026-04-24T04:10:54Z</time></trkpt><trkpt lat="-19.164977109096572" lon="121.64027591741717"><ele>24.0</ele><time>2026-04-24T04:10:55Z</time></trkpt><trkpt lat="-19.164692325862752" lon="121.64038745786934"><ele>23.5</ele><time>2026-04-24T04:10:56Z</time></trkpt><trkpt lat="-19.164403069865592" lon="121.640491437399"><ele>23.0</ele><time>2026-04-24T04:10:57Z</time></trkpt><trkpt lat="-19.164109794908097" lon="121.64059147520923"><ele>22.5</ele><time>2026-04-24T04:10:58Z</time></trkpt><trkpt lat="-19.16381370649324" lon="121.64068679520035"><ele>22.0</ele><time>2026-04-24T04:10:59Z</time></trkpt><trkpt lat="-19.163517684598148" lon="121.64077612476545"><ele>22.0</ele><time>2026-04-24T04:11:00Z</time></trkpt><trkpt lat="-19.16321862939781" lon="121.64085932769036"><ele>22.0</ele><time>2026-04-24T04:11:01Z</time></trkpt><trkpt lat="-19.16292122025041" lon="121.64093605286581"><ele>21.0</ele><time>2026-04-24T04:11:02Z</time></trkpt><trkpt lat="-19.162623479114103" lon="121.64100665056954"><ele>20.0</ele><time>2026-04-24T04:11:03Z</time></trkpt><trkpt lat="-19.162324781232464" lon="121.6410686025826"><ele>20.0</ele><time>2026-04-24T04:11:04Z</time></trkpt><trkpt lat="-19.162022919029546" lon="121.6411274485468"><ele>20.0</ele><time>2026-04-24T04:11:05Z</time></trkpt><trkpt lat="-19.161722151267497" lon="121.64117989025954"><ele>21.0</ele><time>2026-04-24T04:11:06Z</time></trkpt><trkpt lat="-19.16141945250073" lon="121.64122594414278"><ele>22.0</ele><time>2026-04-24T04:11:07Z</time></trkpt><trkpt lat="-19.1611169830434" lon="121.6412648273986"><ele>22.0</ele><time>2026-04-24T04:11:08Z</time></trkpt><trkpt lat="-19.160813218086158" lon="121.64129807714477"><ele>22.0</ele><time>2026-04-24T04:11:09Z</time></trkpt><trkpt lat="-19.16050984266267" lon="121.64132655383521"><ele>21.0</ele><time>2026-04-24T04:11:10Z</time></trkpt><trkpt lat="-19.160204850719932" lon="121.6413488012775"><ele>20.0</ele><time>2026-04-24T04:11:11Z</time></trkpt><trkpt lat="-19.159899729940754" lon="121.64136279140257"><ele>20.0</ele><time>2026-04-24T04:11:12Z</time></trkpt><trkpt lat="-19.159590720094986" lon="121.64137112420933"><ele>20.0</ele><time>2026-04-24T04:11:13.001Z</time></trkpt><trkpt lat="-19.15928388294628" lon="121.64137238002343"><ele>20.5</ele><time>2026-04-24T04:11:14.001Z</time></trkpt><trkpt lat="-19.158977980166558" lon="121.64136570831413"><ele>21.0</ele><time>2026-04-24T04:11:15.001Z</time></trkpt><trkpt lat="-19.15867177738429" lon="121.64135828068811"><ele>21.0</ele><time>2026-04-24T04:11:16.001Z</time></trkpt><trkpt lat="-19.15836283627628" lon="121.64134756552498"><ele>21.0</ele><time>2026-04-24T04:11:17.001Z</time></trkpt><trkpt lat="-19.158056982775577" lon="121.64132787514819"><ele>21.5</ele><time>2026-04-24T04:11:18.001Z</time></trkpt><trkpt lat="-19.15775192677394" lon="121.64130661533167"><ele>22.0</ele><time>2026-04-24T04:11:19.001Z</time></trkpt><trkpt lat="-19.1574485351978" lon="121.6412886765557"><ele>21.5</ele><time>2026-04-24T04:11:20.001Z</time></trkpt><trkpt lat="-19.15715921310978" lon="121.64127068498891"><ele>21.0</ele><time>2026-04-24T04:11:21.001Z</time></trkpt><trkpt lat="-19.156889063934923" lon="121.64125344378667"><ele>21.0</ele><time>2026-04-24T04:11:22.001Z</time></trkpt><trkpt lat="-19.15661402731479" lon="121.64123705536282"><ele>21.0</ele><time>2026-04-24T04:11:23.001Z</time></trkpt><trkpt lat="-19.1563294327275" lon="121.64122142878117"><ele>21.5</ele><time>2026-04-24T04:11:24.001Z</time></trkpt><trkpt lat="-19.15604055519361" lon="121.64120810576445"><ele>22.0</ele><time>2026-04-24T04:11:25.001Z</time></trkpt><trkpt lat="-19.155748975088184" lon="121.6411954158016"><ele>23.0</ele><time>2026-04-24T04:11:26.001Z</time></trkpt><trkpt lat="-19.155458625080964" lon="121.641180375466"><ele>24.0</ele><time>2026-04-24T04:11:27.001Z</time></trkpt><trkpt lat="-19.15517099654282" lon="121.64115916819262"><ele>24.0</ele><time>2026-04-24T04:11:28.001Z</time></trkpt><trkpt lat="-19.15488283980552" lon="121.64113845404752"><ele>24.0</ele><time>2026-04-24T04:11:29.001Z</time></trkpt><trkpt lat="-19.154593724818575" lon="121.64111712361088"><ele>23.5</ele><time>2026-04-24T04:11:30.001Z</time></trkpt><trkpt lat="-19.154307743106713" lon="121.64109544132153"><ele>23.0</ele><time>2026-04-24T04:11:31.001Z</time></trkpt><trkpt lat="-19.154023437506048" lon="121.6410769662681"><ele>23.0</ele><time>2026-04-24T04:11:32.001Z</time></trkpt><trkpt lat="-19.153737264331518" lon="121.64105889899686"><ele>23.0</ele><time>2026-04-24T04:11:33.001Z</time></trkpt><trkpt lat="-19.15345332595248" lon="121.64104248423662"><ele>24.0</ele><time>2026-04-24T04:11:34.001Z</time></trkpt><trkpt lat="-19.15316747003841" lon="121.64102604284747"><ele>25.0</ele><time>2026-04-24T04:11:35.001Z</time></trkpt><trkpt lat="-19.15287360059516" lon="121.64100782368112"><ele>25.0</ele><time>2026-04-24T04:11:36.001Z</time></trkpt><trkpt lat="-19.152579073872317" lon="121.64099114637787"><ele>25.0</ele><time>2026-04-24T04:11:37.001Z</time></trkpt><trkpt lat="-19.152285890106693" lon="121.64097572475941"><ele>25.5</ele><time>2026-04-24T04:11:38.001Z</time></trkpt><trkpt lat="-19.151995675724315" lon="121.6409582345063"><ele>26.0</ele><time>2026-04-24T04:11:39.001Z</time></trkpt><trkpt lat="-19.151707368812577" lon="121.64094054100194"><ele>26.5</ele><time>2026-04-24T04:11:40.001Z</time></trkpt><trkpt lat="-19.151423260969977" lon="121.64092546386156"><ele>27.0</ele><time>2026-04-24T04:11:41.001Z</time></trkpt><trkpt lat="-19.151137660288246" lon="121.64090833614108"><ele>27.0</ele><time>2026-04-24T04:11:42.001Z</time></trkpt><trkpt lat="-19.150851319753027" lon="121.64088889580322"><ele>27.0</ele><time>2026-04-24T04:11:43.001Z</time></trkpt><trkpt lat="-19.150565589491077" lon="121.6408679033523"><ele>27.0</ele><time>2026-04-24T04:11:44.001Z</time></trkpt><trkpt lat="-19.15027807204556" lon="121.64084848889594"><ele>27.0</ele><time>2026-04-24T04:11:45.001Z</time></trkpt><trkpt lat="-19.14998971230391" lon="121.64082998100818"><ele>28.0</ele><time>2026-04-24T04:11:46.001Z</time></trkpt><trkpt lat="-19.149701153233213" lon="121.64081326925182"><ele>29.0</ele><time>2026-04-24T04:11:47.001Z</time></trkpt><trkpt lat="-19.149413129829174" lon="121.64080212367939"><ele>29.0</ele><time>2026-04-24T04:11:48.001Z</time></trkpt><trkpt lat="-19.149122864370106" lon="121.64079118062222"><ele>29.0</ele><time>2026-04-24T04:11:49.001Z</time></trkpt><trkpt lat="-19.148832918807955" lon="121.6407762381578"><ele>29.5</ele><time>2026-04-24T04:11:50.001Z</time></trkpt><trkpt lat="-19.148542180032727" lon="121.64075663402195"><ele>30.0</ele><time>2026-04-24T04:11:51.001Z</time></trkpt><trkpt lat="-19.1482500345086" lon="121.64073847041695"><ele>30.0</ele><time>2026-04-24T04:11:52.001Z</time></trkpt><trkpt lat="-19.147956105354147" lon="121.64071952084957"><ele>30.0</ele><time>2026-04-24T04:11:53.001Z</time></trkpt><trkpt lat="-19.147660998336846" lon="121.64069821066475"><ele>29.0</ele><time>2026-04-24T04:11:54.001Z</time></trkpt><trkpt lat="-19.14736428147439" lon="121.6406796403752"><ele>28.0</ele><time>2026-04-24T04:11:55.001Z</time></trkpt><trkpt lat="-19.147067056696898" lon="121.64065968087606"><ele>28.0</ele><time>2026-04-24T04:11:56.001Z</time></trkpt><trkpt lat="-19.146770533192253" lon="121.64063812138612"><ele>28.0</ele><time>2026-04-24T04:11:57.001Z</time></trkpt><trkpt lat="-19.146471876897923" lon="121.64061859316405"><ele>28.0</ele><time>2026-04-24T04:11:58.001Z</time></trkpt><trkpt lat="-19.146171208663045" lon="121.64059974275233"><ele>28.0</ele><time>2026-04-24T04:11:59.001Z</time></trkpt><trkpt lat="-19.145869423907243" lon="121.64058527544664"><ele>28.0</ele><time>2026-04-24T04:12:00.001Z</time></trkpt><trkpt lat="-19.14556208834405" lon="121.64057106127831"><ele>28.0</ele><time>2026-04-24T04:12:01.001Z</time></trkpt><trkpt lat="-19.145255960325816" lon="121.6405518069413"><ele>28.0</ele><time>2026-04-24T04:12:02.001Z</time></trkpt><trkpt lat="-19.14495142301864" lon="121.64053246834123"><ele>28.0</ele><time>2026-04-24T04:12:03.001Z</time></trkpt><trkpt lat="-19.14464512818032" lon="121.64051172371214"><ele>28.5</ele><time>2026-04-24T04:12:04.001Z</time></trkpt><trkpt lat="-19.144339603016228" lon="121.64049093635442"><ele>29.0</ele><time>2026-04-24T04:12:05.001Z</time></trkpt><trkpt lat="-19.144032393264215" lon="121.64047193028858"><ele>29.0</ele><time>2026-04-24T04:12:06.001Z</time></trkpt><trkpt lat="-19.143724700031907" lon="121.6404529512719"><ele>29.0</ele><time>2026-04-24T04:12:07.001Z</time></trkpt><trkpt lat="-19.143413725314836" lon="121.64043594698971"><ele>29.0</ele><time>2026-04-24T04:12:08.001Z</time></trkpt><trkpt lat="-19.14310049932738" lon="121.64041789312832"><ele>29.0</ele><time>2026-04-24T04:12:09Z</time></trkpt><trkpt lat="-19.142787618938126" lon="121.64039979397654"><ele>29.0</ele><time>2026-04-24T04:12:10Z</time></trkpt><trkpt lat="-19.14247513390851" lon="121.64038000912976"><ele>29.0</ele><time>2026-04-24T04:12:11Z</time></trkpt><trkpt lat="-19.14216646100167" lon="121.6403618582498"><ele>29.5</ele><time>2026-04-24T04:12:12Z</time></trkpt><trkpt lat="-19.141852185435418" lon="121.64034501227394"><ele>30.0</ele><time>2026-04-24T04:12:13Z</time></trkpt><trkpt lat="-19.1415391262649" lon="121.64032763118178"><ele>30.5</ele><time>2026-04-24T04:12:14Z</time></trkpt><trkpt lat="-19.141226116004432" lon="121.64031004360835"><ele>31.0</ele><time>2026-04-24T04:12:15Z</time></trkpt><trkpt lat="-19.140913073330793" lon="121.64029082182799"><ele>31.5</ele><time>2026-04-24T04:12:16Z</time></trkpt><trkpt lat="-19.140603541592043" lon="121.64026879328172"><ele>32.0</ele><time>2026-04-24T04:12:17Z</time></trkpt><trkpt lat="-19.140297378134452" lon="121.64024512122356"><ele>32.0</ele><time>2026-04-24T04:12:18Z</time></trkpt><trkpt lat="-19.139992350817586" lon="121.6402248837872"><ele>32.0</ele><time>2026-04-24T04:12:19Z</time></trkpt><trkpt lat="-19.139693008868168" lon="121.6402097872613"><ele>32.5</ele><time>2026-04-24T04:12:20Z</time></trkpt><trkpt lat="-19.139390883417" lon="121.64019322689562"><ele>33.0</ele><time>2026-04-24T04:12:21Z</time></trkpt><trkpt lat="-19.139089465853377" lon="121.6401745631435"><ele>32.0</ele><time>2026-04-24T04:12:22Z</time></trkpt><trkpt lat="-19.138789527907456" lon="121.64015629493065"><ele>31.0</ele><time>2026-04-24T04:12:23Z</time></trkpt><trkpt lat="-19.138493260983026" lon="121.64014223234103"><ele>30.5</ele><time>2026-04-24T04:12:24Z</time></trkpt><trkpt lat="-19.138198558664257" lon="121.64012664580352"><ele>30.0</ele><time>2026-04-24T04:12:25Z</time></trkpt><trkpt lat="-19.13790273212928" lon="121.64011191575744"><ele>30.0</ele><time>2026-04-24T04:12:26Z</time></trkpt><trkpt lat="-19.13760586184087" lon="121.64009686938103"><ele>30.0</ele><time>2026-04-24T04:12:27Z</time></trkpt><trkpt lat="-19.137306768148207" lon="121.64008187167217"><ele>31.0</ele><time>2026-04-24T04:12:28Z</time></trkpt><trkpt lat="-19.13700851334232" lon="121.64006355341706"><ele>32.0</ele><time>2026-04-24T04:12:29Z</time></trkpt><trkpt lat="-19.136706992940702" lon="121.64004320617191"><ele>32.5</ele><time>2026-04-24T04:12:30Z</time></trkpt><trkpt lat="-19.13641096904384" lon="121.64002161497834"><ele>33.0</ele><time>2026-04-24T04:12:31Z</time></trkpt><trkpt lat="-19.136111298275416" lon="121.64000112923443"><ele>33.0</ele><time>2026-04-24T04:12:32Z</time></trkpt><trkpt lat="-19.135813854506257" lon="121.6399826075722"><ele>33.0</ele><time>2026-04-24T04:12:33Z</time></trkpt><trkpt lat="-19.13551401511082" lon="121.63996577898125"><ele>33.5</ele><time>2026-04-24T04:12:34Z</time></trkpt><trkpt lat="-19.135207178499822" lon="121.63995025645107"><ele>34.0</ele><time>2026-04-24T04:12:35Z</time></trkpt><trkpt lat="-19.134903661751906" lon="121.63993404916668"><ele>33.5</ele><time>2026-04-24T04:12:36Z</time></trkpt><trkpt lat="-19.134597649241574" lon="121.63991304946981"><ele>33.0</ele><time>2026-04-24T04:12:37Z</time></trkpt><trkpt lat="-19.134292919347228" lon="121.63989048994549"><ele>33.5</ele><time>2026-04-24T04:12:38Z</time></trkpt><trkpt lat="-19.13398757734384" lon="121.63986868235065"><ele>34.0</ele><time>2026-04-24T04:12:39Z</time></trkpt><trkpt lat="-19.133683383403387" lon="121.63985126148114"><ele>34.0</ele><time>2026-04-24T04:12:40Z</time></trkpt><trkpt lat="-19.133374834801103" lon="121.63983645718616"><ele>34.0</ele><time>2026-04-24T04:12:41Z</time></trkpt><trkpt lat="-19.132767597817608" lon="121.63979411344307"><ele>34.0</ele><time>2026-04-24T04:12:43Z</time></trkpt><trkpt lat="-19.132465622003274" lon="121.63977329798789"><ele>34.0</ele><time>2026-04-24T04:12:44Z</time></trkpt><trkpt lat="-19.132163076897147" lon="121.6397552168481"><ele>34.0</ele><time>2026-04-24T04:12:45Z</time></trkpt><trkpt lat="-19.13186087253226" lon="121.63973997537421"><ele>34.0</ele><time>2026-04-24T04:12:46Z</time></trkpt><trkpt lat="-19.131558453435463" lon="121.63972330450059"><ele>34.5</ele><time>2026-04-24T04:12:47Z</time></trkpt><trkpt lat="-19.131252707097094" lon="121.63970493975766"><ele>35.0</ele><time>2026-04-24T04:12:48Z</time></trkpt><trkpt lat="-19.130941042881705" lon="121.63968585254963"><ele>35.0</ele><time>2026-04-24T04:12:49Z</time></trkpt><trkpt lat="-19.130629273197027" lon="121.6396653992512"><ele>35.0</ele><time>2026-04-24T04:12:50Z</time></trkpt><trkpt lat="-19.13031019068417" lon="121.63964318168273"><ele>35.0</ele><time>2026-04-24T04:12:51Z</time></trkpt><trkpt lat="-19.12998894901089" lon="121.63962033304327"><ele>35.0</ele><time>2026-04-24T04:12:52Z</time></trkpt><trkpt lat="-19.12966451111182" lon="121.63960408742219"><ele>35.0</ele><time>2026-04-24T04:12:53Z</time></trkpt><trkpt lat="-19.129341671131176" lon="121.63959068308014"><ele>35.0</ele><time>2026-04-24T04:12:54Z</time></trkpt><trkpt lat="-19.129019326781883" lon="121.6395738427168"><ele>35.5</ele><time>2026-04-24T04:12:55Z</time></trkpt><trkpt lat="-19.12869853170851" lon="121.63955473048465"><ele>36.0</ele><time>2026-04-24T04:12:56Z</time></trkpt><trkpt lat="-19.128376828940404" lon="121.6395331344283"><ele>36.5</ele><time>2026-04-24T04:12:57Z</time></trkpt><trkpt lat="-19.128056052204208" lon="121.63951456617336"><ele>37.0</ele><time>2026-04-24T04:12:58Z</time></trkpt><trkpt lat="-19.12773921305237" lon="121.63949344835292"><ele>37.0</ele><time>2026-04-24T04:12:59Z</time></trkpt><trkpt lat="-19.127419426456825" lon="121.63947503570111"><ele>37.0</ele><time>2026-04-24T04:13:00Z</time></trkpt><trkpt lat="-19.127111129207833" lon="121.63945477226663"><ele>36.5</ele><time>2026-04-24T04:13:01Z</time></trkpt><trkpt lat="-19.126799196608246" lon="121.63943058507232"><ele>36.0</ele><time>2026-04-24T04:13:02Z</time></trkpt><trkpt lat="-19.126482857044778" lon="121.63940747530096"><ele>36.0</ele><time>2026-04-24T04:13:03Z</time></trkpt><trkpt lat="-19.12616830614253" lon="121.63938906700658"><ele>36.0</ele><time>2026-04-24T04:13:04Z</time></trkpt><trkpt lat="-19.125856243705762" lon="121.63937050227054"><ele>35.0</ele><time>2026-04-24T04:13:05Z</time></trkpt><trkpt lat="-19.125544888012612" lon="121.63935336573705"><ele>34.0</ele><time>2026-04-24T04:13:06Z</time></trkpt><trkpt lat="-19.125234163724464" lon="121.6393335346891"><ele>34.0</ele><time>2026-04-24T04:13:07Z</time></trkpt><trkpt lat="-19.12492463786137" lon="121.6393130709975"><ele>34.0</ele><time>2026-04-24T04:13:08Z</time></trkpt><trkpt lat="-19.12461565787346" lon="121.63929044745915"><ele>34.0</ele><time>2026-04-24T04:13:09Z</time></trkpt><trkpt lat="-19.124305650303786" lon="121.63927196975696"><ele>34.0</ele><time>2026-04-24T04:13:10Z</time></trkpt><trkpt lat="-19.123995960760368" lon="121.63925622409526"><ele>34.0</ele><time>2026-04-24T04:13:11Z</time></trkpt><trkpt lat="-19.123682187214516" lon="121.63924084041204"><ele>34.0</ele><time>2026-04-24T04:13:12Z</time></trkpt><trkpt lat="-19.123370700551686" lon="121.63922278159107"><ele>33.0</ele><time>2026-04-24T04:13:13Z</time></trkpt><trkpt lat="-19.12306151047788" lon="121.63920533015514"><ele>32.0</ele><time>2026-04-24T04:13:14Z</time></trkpt><trkpt lat="-19.122755962912233" lon="121.6391878378995"><ele>32.0</ele><time>2026-04-24T04:13:15Z</time></trkpt><trkpt lat="-19.122451607989035" lon="121.63916934301851"><ele>32.0</ele><time>2026-04-24T04:13:16Z</time></trkpt><trkpt lat="-19.122152839765686" lon="121.63914890081296"><ele>32.0</ele><time>2026-04-24T04:13:17Z</time></trkpt><trkpt lat="-19.121855874719593" lon="121.63913058101382"><ele>32.0</ele><time>2026-04-24T04:13:18Z</time></trkpt><trkpt lat="-19.12155634597083" lon="121.63911687486743"><ele>31.0</ele><time>2026-04-24T04:13:19Z</time></trkpt><trkpt lat="-19.121256784618673" lon="121.6391043649494"><ele>30.0</ele><time>2026-04-24T04:13:20Z</time></trkpt><trkpt lat="-19.120960039050544" lon="121.63909604560727"><ele>30.0</ele><time>2026-04-24T04:13:21Z</time></trkpt><trkpt lat="-19.120666728246988" lon="121.63909291148862"><ele>30.0</ele><time>2026-04-24T04:13:22Z</time></trkpt><trkpt lat="-19.12037497798217" lon="121.63909981065417"><ele>30.0</ele><time>2026-04-24T04:13:23.001Z</time></trkpt><trkpt lat="-19.12008276587865" lon="121.63911107600026"><ele>30.0</ele><time>2026-04-24T04:13:24.001Z</time></trkpt><trkpt lat="-19.119791041852306" lon="121.63913030618606"><ele>30.0</ele><time>2026-04-24T04:13:25.001Z</time></trkpt><trkpt lat="-19.11949338511876" lon="121.63915268484357"><ele>30.0</ele><time>2026-04-24T04:13:26.001Z</time></trkpt><trkpt lat="-19.119191275257133" lon="121.63917792939718"><ele>29.5</ele><time>2026-04-24T04:13:27.001Z</time></trkpt><trkpt lat="-19.118890339087823" lon="121.63920909243078"><ele>29.0</ele><time>2026-04-24T04:13:28.001Z</time></trkpt><trkpt lat="-19.11858792347659" lon="121.63924594397288"><ele>29.0</ele><time>2026-04-24T04:13:29.001Z</time></trkpt><trkpt lat="-19.118287965007504" lon="121.63928943787205"><ele>29.0</ele><time>2026-04-24T04:13:30.001Z</time></trkpt><trkpt lat="-19.117988739096962" lon="121.63933715570536"><ele>28.5</ele><time>2026-04-24T04:13:31.001Z</time></trkpt><trkpt lat="-19.117691910398438" lon="121.63939268558582"><ele>28.0</ele><time>2026-04-24T04:13:32.001Z</time></trkpt><trkpt lat="-19.117398471423797" lon="121.63945773238018"><ele>27.0</ele><time>2026-04-24T04:13:33.001Z</time></trkpt><trkpt lat="-19.11710663737217" lon="121.63952735065892"><ele>26.0</ele><time>2026-04-24T04:13:34.001Z</time></trkpt><trkpt lat="-19.11681510015497" lon="121.6396021723279"><ele>25.0</ele><time>2026-04-24T04:13:35.001Z</time></trkpt><trkpt lat="-19.116528650146794" lon="121.63967848724583"><ele>24.0</ele><time>2026-04-24T04:13:36.001Z</time></trkpt><trkpt lat="-19.116243355183663" lon="121.63975796719708"><ele>24.0</ele><time>2026-04-24T04:13:37.001Z</time></trkpt><trkpt lat="-19.115962383590443" lon="121.63984632318432"><ele>24.0</ele><time>2026-04-24T04:13:38.001Z</time></trkpt><trkpt lat="-19.115683572558623" lon="121.63994394261786"><ele>23.5</ele><time>2026-04-24T04:13:39.001Z</time></trkpt><trkpt lat="-19.115397231510702" lon="121.64004968778846"><ele>23.0</ele><time>2026-04-24T04:13:40.001Z</time></trkpt><trkpt lat="-19.115110293105836" lon="121.64015889537535"><ele>23.0</ele><time>2026-04-24T04:13:41.001Z</time></trkpt><trkpt lat="-19.114821581516104" lon="121.64027226599045"><ele>23.0</ele><time>2026-04-24T04:13:42.001Z</time></trkpt><trkpt lat="-19.114532829677067" lon="121.64038763649158"><ele>22.5</ele><time>2026-04-24T04:13:43.001Z</time></trkpt><trkpt lat="-19.114248034744726" lon="121.64050367012908"><ele>22.0</ele><time>2026-04-24T04:13:44.001Z</time></trkpt><trkpt lat="-19.113964698303064" lon="121.64062083381346"><ele>23.0</ele><time>2026-04-24T04:13:45.001Z</time></trkpt><trkpt lat="-19.11368162281119" lon="121.64073530317582"><ele>24.0</ele><time>2026-04-24T04:13:46.001Z</time></trkpt><trkpt lat="-19.11340131929701" lon="121.64084942117145"><ele>23.0</ele><time>2026-04-24T04:13:47.001Z</time></trkpt><trkpt lat="-19.11312422490617" lon="121.640961023483"><ele>22.0</ele><time>2026-04-24T04:13:48.001Z</time></trkpt><trkpt lat="-19.112846340539917" lon="121.64107798001326"><ele>22.5</ele><time>2026-04-24T04:13:49.001Z</time></trkpt><trkpt lat="-19.11256740590664" lon="121.64119551850712"><ele>23.0</ele><time>2026-04-24T04:13:50.001Z</time></trkpt><trkpt lat="-19.112285566927895" lon="121.6413169963659"><ele>22.0</ele><time>2026-04-24T04:13:51.001Z</time></trkpt><trkpt lat="-19.11199834146569" lon="121.64143452509346"><ele>21.0</ele><time>2026-04-24T04:13:52.001Z</time></trkpt><trkpt lat="-19.11170988757832" lon="121.6415516871015"><ele>21.0</ele><time>2026-04-24T04:13:53.001Z</time></trkpt><trkpt lat="-19.111422283103586" lon="121.64167095767408"><ele>21.0</ele><time>2026-04-24T04:13:54.001Z</time></trkpt><trkpt lat="-19.11113631355661" lon="121.64178950855623"><ele>21.0</ele><time>2026-04-24T04:13:55.001Z</time></trkpt><trkpt lat="-19.110849936633205" lon="121.64190672356051"><ele>21.0</ele><time>2026-04-24T04:13:56.001Z</time></trkpt><trkpt lat="-19.110584928837827" lon="121.6420194776307"><ele>21.5</ele><time>2026-04-24T04:13:57.001Z</time></trkpt><trkpt lat="-19.110329232578163" lon="121.64213079405157"><ele>22.0</ele><time>2026-04-24T04:13:58.001Z</time></trkpt><trkpt lat="-19.110074084754167" lon="121.6422418764733"><ele>21.5</ele><time>2026-04-24T04:13:59.001Z</time></trkpt><trkpt lat="-19.109816003890604" lon="121.64235155867621"><ele>21.0</ele><time>2026-04-24T04:14:00.001Z</time></trkpt><trkpt lat="-19.10955952423075" lon="121.64245997137381"><ele>21.0</ele><time>2026-04-24T04:14:01.001Z</time></trkpt><trkpt lat="-19.10930285052019" lon="121.64256533945358"><ele>21.0</ele><time>2026-04-24T04:14:02.001Z</time></trkpt><trkpt lat="-19.109042918510678" lon="121.64266762830731"><ele>21.0</ele><time>2026-04-24T04:14:03.001Z</time></trkpt><trkpt lat="-19.108783798199273" lon="121.6427673251107"><ele>21.0</ele><time>2026-04-24T04:14:04.001Z</time></trkpt><trkpt lat="-19.10852106320191" lon="121.64287344627093"><ele>21.0</ele><time>2026-04-24T04:14:05.001Z</time></trkpt><trkpt lat="-19.10825963413907" lon="121.64298106260753"><ele>21.0</ele><time>2026-04-24T04:14:06.001Z</time></trkpt><trkpt lat="-19.107995110426078" lon="121.64309081008547"><ele>21.5</ele><time>2026-04-24T04:14:07.001Z</time></trkpt><trkpt lat="-19.10772616842826" lon="121.64320378377438"><ele>22.0</ele><time>2026-04-24T04:14:08.001Z</time></trkpt><trkpt lat="-19.107453812831334" lon="121.6433172665426"><ele>22.0</ele><time>2026-04-24T04:14:09.001Z</time></trkpt><trkpt lat="-19.10718020783976" lon="121.64343178818567"><ele>22.0</ele><time>2026-04-24T04:14:10.001Z</time></trkpt><trkpt lat="-19.10690096297421" lon="121.64354855883671"><ele>22.0</ele><time>2026-04-24T04:14:11.001Z</time></trkpt><trkpt lat="-19.10662137536195" lon="121.64366807962854"><ele>22.0</ele><time>2026-04-24T04:14:12.001Z</time></trkpt><trkpt lat="-19.10633594525397" lon="121.64378750640759"><ele>22.0</ele><time>2026-04-24T04:14:13.001Z</time></trkpt><trkpt lat="-19.10604597160626" lon="121.6439061588331"><ele>22.0</ele><time>2026-04-24T04:14:14.001Z</time></trkpt><trkpt lat="-19.105756237703805" lon="121.64402832598061"><ele>21.0</ele><time>2026-04-24T04:14:14.999Z</time></trkpt><trkpt lat="-19.10546542447517" lon="121.64414870592934"><ele>20.0</ele><time>2026-04-24T04:14:15.999Z</time></trkpt><trkpt lat="-19.1051735820067" lon="121.64427061229675"><ele>20.5</ele><time>2026-04-24T04:14:16.999Z</time></trkpt><trkpt lat="-19.104887626007383" lon="121.64439380205934"><ele>21.0</ele><time>2026-04-24T04:14:17.999Z</time></trkpt><trkpt lat="-19.104607485848646" lon="121.6445160481003"><ele>21.0</ele><time>2026-04-24T04:14:18.999Z</time></trkpt><trkpt lat="-19.104328109157418" lon="121.64463322797263"><ele>21.0</ele><time>2026-04-24T04:14:19.999Z</time></trkpt><trkpt lat="-19.104050454208284" lon="121.64474790226602"><ele>21.5</ele><time>2026-04-24T04:14:20.999Z</time></trkpt><trkpt lat="-19.10376967001194" lon="121.64485953749427"><ele>22.0</ele><time>2026-04-24T04:14:21.999Z</time></trkpt><trkpt lat="-19.103490804464606" lon="121.64497438379503"><ele>22.0</ele><time>2026-04-24T04:14:23Z</time></trkpt><trkpt lat="-19.10320927439237" lon="121.6450912877807"><ele>22.0</ele><time>2026-04-24T04:14:24Z</time></trkpt><trkpt lat="-19.10292686750759" lon="121.64520869679421"><ele>22.0</ele><time>2026-04-24T04:14:25Z</time></trkpt><trkpt lat="-19.10265378547071" lon="121.64532224355862"><ele>22.0</ele><time>2026-04-24T04:14:26Z</time></trkpt><trkpt lat="-19.102384272258895" lon="121.64543807625328"><ele>22.0</ele><time>2026-04-24T04:14:26.999Z</time></trkpt><trkpt lat="-19.10211820014893" lon="121.64555192416175"><ele>22.0</ele><time>2026-04-24T04:14:27.999Z</time></trkpt><trkpt lat="-19.10185109694527" lon="121.64566007350128"><ele>22.0</ele><time>2026-04-24T04:14:28.999Z</time></trkpt><trkpt lat="-19.101585989577032" lon="121.64576317142384"><ele>22.0</ele><time>2026-04-24T04:14:29.999Z</time></trkpt><trkpt lat="-19.101324089665184" lon="121.64586504553547"><ele>22.5</ele><time>2026-04-24T04:14:30.999Z</time></trkpt><trkpt lat="-19.1010612746587" lon="121.64597388960486"><ele>23.0</ele><time>2026-04-24T04:14:31.999Z</time></trkpt><trkpt lat="-19.10079136308184" lon="121.64608537532764"><ele>23.0</ele><time>2026-04-24T04:14:33Z</time></trkpt><trkpt lat="-19.100515090021858" lon="121.64619872285103"><ele>23.0</ele><time>2026-04-24T04:14:34Z</time></trkpt><trkpt lat="-19.1002391923557" lon="121.64631371096986"><ele>23.0</ele><time>2026-04-24T04:14:35Z</time></trkpt><trkpt lat="-19.099961968394656" lon="121.64642909569089"><ele>23.0</ele><time>2026-04-24T04:14:36Z</time></trkpt><trkpt lat="-19.099685206399766" lon="121.6465440943618"><ele>22.5</ele><time>2026-04-24T04:14:37Z</time></trkpt><trkpt lat="-19.099407364920562" lon="121.64666270961882"><ele>22.0</ele><time>2026-04-24T04:14:38Z</time></trkpt><trkpt lat="-19.099128209509455" lon="121.64678291904109"><ele>22.5</ele><time>2026-04-24T04:14:39Z</time></trkpt><trkpt lat="-19.098844086293106" lon="121.64690240135016"><ele>23.0</ele><time>2026-04-24T04:14:40Z</time></trkpt><trkpt lat="-19.098559605340284" lon="121.64702308562053"><ele>23.5</ele><time>2026-04-24T04:14:41Z</time></trkpt><trkpt lat="-19.098274881465397" lon="121.64713962935556"><ele>24.0</ele><time>2026-04-24T04:14:42Z</time></trkpt><trkpt lat="-19.097990554384516" lon="121.64725239086947"><ele>24.0</ele><time>2026-04-24T04:14:43Z</time></trkpt><trkpt lat="-19.097708375089223" lon="121.64736650204782"><ele>24.0</ele><time>2026-04-24T04:14:44Z</time></trkpt><trkpt lat="-19.09743020038986" lon="121.64748260310638"><ele>23.0</ele><time>2026-04-24T04:14:45Z</time></trkpt><trkpt lat="-19.09715256469641" lon="121.64759795760014"><ele>22.0</ele><time>2026-04-24T04:14:46Z</time></trkpt><trkpt lat="-19.096872917976018" lon="121.6477120231393"><ele>23.0</ele><time>2026-04-24T04:14:47Z</time></trkpt><trkpt lat="-19.096591739274285" lon="121.64782781082562"><ele>24.0</ele><time>2026-04-24T04:14:48Z</time></trkpt><trkpt lat="-19.0963085325793" lon="121.64794480430416"><ele>24.5</ele><time>2026-04-24T04:14:49Z</time></trkpt><trkpt lat="-19.096027009372627" lon="121.64806603726669"><ele>25.0</ele><time>2026-04-24T04:14:50Z</time></trkpt><trkpt lat="-19.09574613548255" lon="121.64818499222129"><ele>25.0</ele><time>2026-04-24T04:14:51Z</time></trkpt><trkpt lat="-19.095462844916707" lon="121.6483009269469"><ele>25.0</ele><time>2026-04-24T04:14:52Z</time></trkpt><trkpt lat="-19.095179453626805" lon="121.64841771783516"><ele>25.0</ele><time>2026-04-24T04:14:53Z</time></trkpt><trkpt lat="-19.094891868530485" lon="121.64853543082558"><ele>25.0</ele><time>2026-04-24T04:14:54Z</time></trkpt><trkpt lat="-19.094607894571777" lon="121.64865159430973"><ele>25.5</ele><time>2026-04-24T04:14:55Z</time></trkpt><trkpt lat="-19.094324312451594" lon="121.64876775461431"><ele>26.0</ele><time>2026-04-24T04:14:56Z</time></trkpt><trkpt lat="-19.094043355993225" lon="121.6488855902546"><ele>24.5</ele><time>2026-04-24T04:14:57Z</time></trkpt><trkpt lat="-19.093768051376735" lon="121.64900236938594"><ele>23.0</ele><time>2026-04-24T04:14:58Z</time></trkpt><trkpt lat="-19.093491020982757" lon="121.64911900669168"><ele>23.5</ele><time>2026-04-24T04:14:59Z</time></trkpt><trkpt lat="-19.093212874383717" lon="121.64923220063932"><ele>24.0</ele><time>2026-04-24T04:15:00Z</time></trkpt><trkpt lat="-19.092932612807267" lon="121.64934331500248"><ele>24.0</ele><time>2026-04-24T04:15:01Z</time></trkpt><trkpt lat="-19.09265199878519" lon="121.64944912964356"><ele>24.0</ele><time>2026-04-24T04:15:02Z</time></trkpt><trkpt lat="-19.092367041223103" lon="121.6495509435476"><ele>25.0</ele><time>2026-04-24T04:15:03Z</time></trkpt><trkpt lat="-19.092078529719057" lon="121.64964650232812"><ele>26.0</ele><time>2026-04-24T04:15:04Z</time></trkpt><trkpt lat="-19.091786460145695" lon="121.64973585086017"><ele>25.0</ele><time>2026-04-24T04:15:05Z</time></trkpt><trkpt lat="-19.091491401538885" lon="121.6498156907678"><ele>24.0</ele><time>2026-04-24T04:15:06Z</time></trkpt><trkpt lat="-19.09119360711072" lon="121.64989018505652"><ele>24.0</ele><time>2026-04-24T04:15:07Z</time></trkpt><trkpt lat="-19.090892806149157" lon="121.64996062936382"><ele>24.0</ele><time>2026-04-24T04:15:08Z</time></trkpt><trkpt lat="-19.090590479500165" lon="121.65003254621479"><ele>24.5</ele><time>2026-04-24T04:15:09Z</time></trkpt><trkpt lat="-19.090286427054842" lon="121.65009966337911"><ele>25.0</ele><time>2026-04-24T04:15:10Z</time></trkpt><trkpt lat="-19.08998033620659" lon="121.65016303239102"><ele>25.0</ele><time>2026-04-24T04:15:11Z</time></trkpt><trkpt lat="-19.089667629931473" lon="121.6502235628755"><ele>25.0</ele><time>2026-04-24T04:15:12Z</time></trkpt><trkpt lat="-19.089359121156217" lon="121.65028195009782"><ele>25.5</ele><time>2026-04-24T04:15:13Z</time></trkpt><trkpt lat="-19.089050368327722" lon="121.65034266075624"><ele>26.0</ele><time>2026-04-24T04:15:14Z</time></trkpt><trkpt lat="-19.088735018686265" lon="121.6504060019361"><ele>26.0</ele><time>2026-04-24T04:15:15Z</time></trkpt><trkpt lat="-19.08842305249997" lon="121.65046999433414"><ele>26.0</ele><time>2026-04-24T04:15:16Z</time></trkpt><trkpt lat="-19.088110368761793" lon="121.65053622869416"><ele>26.5</ele><time>2026-04-24T04:15:17Z</time></trkpt><trkpt lat="-19.087795749234456" lon="121.65060035679424"><ele>27.0</ele><time>2026-04-24T04:15:18Z</time></trkpt><trkpt lat="-19.08748109083772" lon="121.65065954105644"><ele>26.5</ele><time>2026-04-24T04:15:19Z</time></trkpt><trkpt lat="-19.087168684831163" lon="121.65072110007114"><ele>26.0</ele><time>2026-04-24T04:15:20Z</time></trkpt><trkpt lat="-19.086857444010718" lon="121.6507853342085"><ele>26.0</ele><time>2026-04-24T04:15:21Z</time></trkpt><trkpt lat="-19.086545499382325" lon="121.65084908051848"><ele>26.0</ele><time>2026-04-24T04:15:22Z</time></trkpt><trkpt lat="-19.086230834282958" lon="121.6509124842484"><ele>26.0</ele><time>2026-04-24T04:15:23Z</time></trkpt><trkpt lat="-19.085914558989494" lon="121.65097382661641"><ele>26.0</ele><time>2026-04-24T04:15:24Z</time></trkpt><trkpt lat="-19.085597646067736" lon="121.65103623145285"><ele>26.0</ele><time>2026-04-24T04:15:25Z</time></trkpt><trkpt lat="-19.085283626102694" lon="121.65109801112037"><ele>26.0</ele><time>2026-04-24T04:15:26Z</time></trkpt><trkpt lat="-19.08497033416013" lon="121.65116062925941"><ele>26.0</ele><time>2026-04-24T04:15:27Z</time></trkpt><trkpt lat="-19.084657607326324" lon="121.65122156755663"><ele>26.0</ele><time>2026-04-24T04:15:28Z</time></trkpt><trkpt lat="-19.084347985430163" lon="121.65128150922654"><ele>26.0</ele><time>2026-04-24T04:15:29Z</time></trkpt><trkpt lat="-19.084040872281903" lon="121.6513436649372"><ele>26.0</ele><time>2026-04-24T04:15:30Z</time></trkpt><trkpt lat="-19.083735786461116" lon="121.65140777234876"><ele>26.0</ele><time>2026-04-24T04:15:31Z</time></trkpt><trkpt lat="-19.083436105631783" lon="121.65147256059775"><ele>26.0</ele><time>2026-04-24T04:15:32Z</time></trkpt><trkpt lat="-19.08313594978488" lon="121.65153646522984"><ele>25.5</ele><time>2026-04-24T04:15:33Z</time></trkpt><trkpt lat="-19.082835205181116" lon="121.65159926389708"><ele>25.0</ele><time>2026-04-24T04:15:34Z</time></trkpt><trkpt lat="-19.082534267371646" lon="121.6516612715641"><ele>25.5</ele><time>2026-04-24T04:15:35Z</time></trkpt><trkpt lat="-19.082228564694955" lon="121.65172412703045"><ele>26.0</ele><time>2026-04-24T04:15:36Z</time></trkpt><trkpt lat="-19.081925499453625" lon="121.65178886751022"><ele>26.0</ele><time>2026-04-24T04:15:37Z</time></trkpt><trkpt lat="-19.081620514861232" lon="121.65184971024371"><ele>26.0</ele><time>2026-04-24T04:15:38Z</time></trkpt><trkpt lat="-19.081311666571544" lon="121.65190596535803"><ele>26.5</ele><time>2026-04-24T04:15:39Z</time></trkpt><trkpt lat="-19.08100303361475" lon="121.65196212561095"><ele>27.0</ele><time>2026-04-24T04:15:40Z</time></trkpt><trkpt lat="-19.08069087175038" lon="121.65201857822667"><ele>27.5</ele><time>2026-04-24T04:15:41Z</time></trkpt><trkpt lat="-19.08038116189768" lon="121.65207729581175"><ele>28.0</ele><time>2026-04-24T04:15:42Z</time></trkpt><trkpt lat="-19.08007271328212" lon="121.65213931074632"><ele>27.5</ele><time>2026-04-24T04:15:43Z</time></trkpt><trkpt lat="-19.079768500814" lon="121.65220205549315"><ele>27.0</ele><time>2026-04-24T04:15:44Z</time></trkpt><trkpt lat="-19.079467905382174" lon="121.65226316946205"><ele>27.0</ele><time>2026-04-24T04:15:45Z</time></trkpt><trkpt lat="-19.079170529963395" lon="121.65232308324009"><ele>27.0</ele><time>2026-04-24T04:15:46Z</time></trkpt><trkpt lat="-19.078874836107584" lon="121.65238443774041"><ele>25.5</ele><time>2026-04-24T04:15:47Z</time></trkpt><trkpt lat="-19.07857729657767" lon="121.6524450502578"><ele>24.0</ele><time>2026-04-24T04:15:48Z</time></trkpt><trkpt lat="-19.078279996395864" lon="121.65250449343966"><ele>24.5</ele><time>2026-04-24T04:15:49Z</time></trkpt><trkpt lat="-19.077985088317263" lon="121.65256443400023"><ele>25.0</ele><time>2026-04-24T04:15:50Z</time></trkpt><trkpt lat="-19.07769060629308" lon="121.65262282577403"><ele>26.5</ele><time>2026-04-24T04:15:51Z</time></trkpt><trkpt lat="-19.077394790101415" lon="121.65268015276723"><ele>28.0</ele><time>2026-04-24T04:15:52Z</time></trkpt><trkpt lat="-19.07709438950861" lon="121.65274211490096"><ele>28.5</ele><time>2026-04-24T04:15:53Z</time></trkpt><trkpt lat="-19.076791968359064" lon="121.65280531867862"><ele>29.0</ele><time>2026-04-24T04:15:54Z</time></trkpt><trkpt lat="-19.076488396869827" lon="121.6528700761842"><ele>29.0</ele><time>2026-04-24T04:15:55Z</time></trkpt><trkpt lat="-19.076180010210354" lon="121.65293234433454"><ele>29.0</ele><time>2026-04-24T04:15:56Z</time></trkpt><trkpt lat="-19.07587073965886" lon="121.65299187528713"><ele>29.5</ele><time>2026-04-24T04:15:57Z</time></trkpt><trkpt lat="-19.075561568587837" lon="121.65305211383475"><ele>30.0</ele><time>2026-04-24T04:15:58Z</time></trkpt><trkpt lat="-19.07525442070511" lon="121.65311022947577"><ele>30.0</ele><time>2026-04-24T04:15:59Z</time></trkpt><trkpt lat="-19.07494639473018" lon="121.65317130633808"><ele>30.0</ele><time>2026-04-24T04:16:00Z</time></trkpt><trkpt lat="-19.074638858296545" lon="121.65323330744735"><ele>30.0</ele><time>2026-04-24T04:16:01Z</time></trkpt><trkpt lat="-19.074335493695838" lon="121.65329445732289"><ele>30.0</ele><time>2026-04-24T04:16:02Z</time></trkpt><trkpt lat="-19.074032790773167" lon="121.6533565672245"><ele>29.5</ele><time>2026-04-24T04:16:03Z</time></trkpt><trkpt lat="-19.073729717612004" lon="121.65341885491581"><ele>29.0</ele><time>2026-04-24T04:16:04Z</time></trkpt><trkpt lat="-19.07342541047942" lon="121.65348015131256"><ele>30.0</ele><time>2026-04-24T04:16:05Z</time></trkpt><trkpt lat="-19.07312445802135" lon="121.65354031061263"><ele>31.0</ele><time>2026-04-24T04:16:06Z</time></trkpt><trkpt lat="-19.072823437498837" lon="121.65360062108284"><ele>30.5</ele><time>2026-04-24T04:16:07Z</time></trkpt><trkpt lat="-19.07252283032633" lon="121.6536607284707"><ele>30.0</ele><time>2026-04-24T04:16:08Z</time></trkpt><trkpt lat="-19.07222343559737" lon="121.65372007275798"><ele>30.0</ele><time>2026-04-24T04:16:09Z</time></trkpt><trkpt lat="-19.071923501035755" lon="121.6537816506515"><ele>30.0</ele><time>2026-04-24T04:16:10Z</time></trkpt><trkpt lat="-19.071618959091474" lon="121.65384440254856"><ele>30.5</ele><time>2026-04-24T04:16:11Z</time></trkpt><trkpt lat="-19.071315071186405" lon="121.65390651071908"><ele>31.0</ele><time>2026-04-24T04:16:12Z</time></trkpt><trkpt lat="-19.071008638772703" lon="121.65396561253603"><ele>31.5</ele><time>2026-04-24T04:16:13Z</time></trkpt><trkpt lat="-19.07070199442429" lon="121.65402497219999"><ele>32.0</ele><time>2026-04-24T04:16:14Z</time></trkpt><trkpt lat="-19.070395078564918" lon="121.65408498453692"><ele>32.0</ele><time>2026-04-24T04:16:15Z</time></trkpt><trkpt lat="-19.07008770410797" lon="121.65414749683666"><ele>32.0</ele><time>2026-04-24T04:16:16Z</time></trkpt><trkpt lat="-19.069781413819626" lon="121.65420934276112"><ele>31.5</ele><time>2026-04-24T04:16:17Z</time></trkpt><trkpt lat="-19.06947567015482" lon="121.6542719333001"><ele>31.0</ele><time>2026-04-24T04:16:18Z</time></trkpt><trkpt lat="-19.06916827094906" lon="121.6543356516215"><ele>31.5</ele><time>2026-04-24T04:16:19Z</time></trkpt><trkpt lat="-19.068858709806396" lon="121.65439805561797"><ele>32.0</ele><time>2026-04-24T04:16:20Z</time></trkpt><trkpt lat="-19.068550888238995" lon="121.65445995090566"><ele>33.0</ele><time>2026-04-24T04:16:21Z</time></trkpt><trkpt lat="-19.06823922421546" lon="121.65452228215213"><ele>34.0</ele><time>2026-04-24T04:16:22Z</time></trkpt><trkpt lat="-19.067925505391752" lon="121.65458416682426"><ele>34.0</ele><time>2026-04-24T04:16:23Z</time></trkpt><trkpt lat="-19.067607396268137" lon="121.65464737917834"><ele>34.0</ele><time>2026-04-24T04:16:24Z</time></trkpt><trkpt lat="-19.067288628264837" lon="121.65471029913881"><ele>34.0</ele><time>2026-04-24T04:16:25Z</time></trkpt><trkpt lat="-19.066976497264825" lon="121.6547704804052"><ele>34.0</ele><time>2026-04-24T04:16:26Z</time></trkpt><trkpt lat="-19.06666689991043" lon="121.65482981610883"><ele>34.0</ele><time>2026-04-24T04:16:27Z</time></trkpt><trkpt lat="-19.066360473479232" lon="121.6548925760868"><ele>34.0</ele><time>2026-04-24T04:16:28Z</time></trkpt><trkpt lat="-19.066050894813014" lon="121.65495555662191"><ele>34.0</ele><time>2026-04-24T04:16:29Z</time></trkpt><trkpt lat="-19.065744493189058" lon="121.65502020619644"><ele>34.0</ele><time>2026-04-24T04:16:30Z</time></trkpt><trkpt lat="-19.065453736275323" lon="121.65507857346726"><ele>34.0</ele><time>2026-04-24T04:16:31Z</time></trkpt><trkpt lat="-19.065162539405414" lon="121.6551374829179"><ele>34.0</ele><time>2026-04-24T04:16:32Z</time></trkpt><trkpt lat="-19.064867018282637" lon="121.65519796617359"><ele>34.0</ele><time>2026-04-24T04:16:33Z</time></trkpt><trkpt lat="-19.064571734958164" lon="121.6552601996868"><ele>34.0</ele><time>2026-04-24T04:16:34Z</time></trkpt><trkpt lat="-19.06427766523024" lon="121.65532176586179"><ele>34.5</ele><time>2026-04-24T04:16:35Z</time></trkpt><trkpt lat="-19.063982756785837" lon="121.6553829501999"><ele>35.0</ele><time>2026-04-24T04:16:36Z</time></trkpt><trkpt lat="-19.063687467805742" lon="121.6554465458014"><ele>35.0</ele><time>2026-04-24T04:16:37Z</time></trkpt><trkpt lat="-19.06339427559532" lon="121.65550986839085"><ele>35.0</ele><time>2026-04-24T04:16:38Z</time></trkpt><trkpt lat="-19.063104052516856" lon="121.6555792690168"><ele>34.0</ele><time>2026-04-24T04:16:39Z</time></trkpt><trkpt lat="-19.062816337686353" lon="121.6556553514642"><ele>33.0</ele><time>2026-04-24T04:16:40Z</time></trkpt><trkpt lat="-19.062528451184797" lon="121.65573264149481"><ele>33.5</ele><time>2026-04-24T04:16:41Z</time></trkpt><trkpt lat="-19.062241446051967" lon="121.65581717947973"><ele>34.0</ele><time>2026-04-24T04:16:42Z</time></trkpt><trkpt lat="-19.06195742534637" lon="121.65591289438163"><ele>34.0</ele><time>2026-04-24T04:16:43Z</time></trkpt><trkpt lat="-19.06167139910493" lon="121.65601277630711"><ele>34.0</ele><time>2026-04-24T04:16:44Z</time></trkpt><trkpt lat="-19.061383701418848" lon="121.6561144459481"><ele>33.0</ele><time>2026-04-24T04:16:45Z</time></trkpt><trkpt lat="-19.0610952143441" lon="121.65621919233878"><ele>32.0</ele><time>2026-04-24T04:16:46Z</time></trkpt><trkpt lat="-19.06081048400398" lon="121.65632506436025"><ele>32.0</ele><time>2026-04-24T04:16:47Z</time></trkpt><trkpt lat="-19.060526931709703" lon="121.65642810245001"><ele>32.0</ele><time>2026-04-24T04:16:48Z</time></trkpt><trkpt lat="-19.06024113444949" lon="121.65652989178471"><ele>32.0</ele><time>2026-04-24T04:16:49Z</time></trkpt><trkpt lat="-19.059956494652504" lon="121.65663083849321"><ele>32.0</ele><time>2026-04-24T04:16:50Z</time></trkpt><trkpt lat="-19.05966860823958" lon="121.6567313680697"><ele>32.5</ele><time>2026-04-24T04:16:51Z</time></trkpt><trkpt lat="-19.059381337990757" lon="121.65682886145997"><ele>33.0</ele><time>2026-04-24T04:16:52Z</time></trkpt><trkpt lat="-19.059095133561364" lon="121.65692691939648"><ele>33.0</ele><time>2026-04-24T04:16:53Z</time></trkpt><trkpt lat="-19.058808753780006" lon="121.65702874318168"><ele>33.0</ele><time>2026-04-24T04:16:54Z</time></trkpt><trkpt lat="-19.05851939373285" lon="121.65713359803637"><ele>32.5</ele><time>2026-04-24T04:16:55Z</time></trkpt><trkpt lat="-19.058231963516967" lon="121.65723949912677"><ele>32.0</ele><time>2026-04-24T04:16:56Z</time></trkpt><trkpt lat="-19.057942570201476" lon="121.65734747535363"><ele>32.0</ele><time>2026-04-24T04:16:57Z</time></trkpt><trkpt lat="-19.057651979776725" lon="121.65745128803954"><ele>32.0</ele><time>2026-04-24T04:16:58Z</time></trkpt><trkpt lat="-19.057361144654397" lon="121.65755322435781"><ele>31.5</ele><time>2026-04-24T04:16:59Z</time></trkpt><trkpt lat="-19.05707093210045" lon="121.6576543358465"><ele>31.0</ele><time>2026-04-24T04:17:00Z</time></trkpt><trkpt lat="-19.05678081521828" lon="121.65775637550274"><ele>32.0</ele><time>2026-04-24T04:17:01Z</time></trkpt><trkpt lat="-19.0564902658321" lon="121.65786175888195"><ele>33.0</ele><time>2026-04-24T04:17:02Z</time></trkpt><trkpt lat="-19.056198685249377" lon="121.65796690088462"><ele>33.0</ele><time>2026-04-24T04:17:03Z</time></trkpt><trkpt lat="-19.055909360564403" lon="121.65807296268271"><ele>33.0</ele><time>2026-04-24T04:17:04Z</time></trkpt><trkpt lat="-19.055622820596852" lon="121.65818050731399"><ele>33.0</ele><time>2026-04-24T04:17:05Z</time></trkpt><trkpt lat="-19.05533405314802" lon="121.6582851808501"><ele>33.0</ele><time>2026-04-24T04:17:06Z</time></trkpt><trkpt lat="-19.05504485841119" lon="121.65838846732956"><ele>33.5</ele><time>2026-04-24T04:17:07Z</time></trkpt><trkpt lat="-19.054753231033704" lon="121.65849125795837"><ele>34.0</ele><time>2026-04-24T04:17:08Z</time></trkpt><trkpt lat="-19.054461942697863" lon="121.65859262168362"><ele>34.0</ele><time>2026-04-24T04:17:09Z</time></trkpt><trkpt lat="-19.054170110591354" lon="121.65869458625288"><ele>34.0</ele><time>2026-04-24T04:17:10Z</time></trkpt><trkpt lat="-19.053877689315033" lon="121.65879857580074"><ele>34.0</ele><time>2026-04-24T04:17:11Z</time></trkpt><trkpt lat="-19.0535877277696" lon="121.65890285528943"><ele>34.0</ele><time>2026-04-24T04:17:12Z</time></trkpt><trkpt lat="-19.053297149987092" lon="121.65900656931346"><ele>33.0</ele><time>2026-04-24T04:17:13Z</time></trkpt><trkpt lat="-19.05300933619859" lon="121.65910753802233"><ele>32.0</ele><time>2026-04-24T04:17:14Z</time></trkpt><trkpt lat="-19.05272075936208" lon="121.65920990467295"><ele>33.0</ele><time>2026-04-24T04:17:15Z</time></trkpt><trkpt lat="-19.052431281948838" lon="121.65931356337954"><ele>34.0</ele><time>2026-04-24T04:17:16Z</time></trkpt><trkpt lat="-19.05213734422384" lon="121.65941787089997"><ele>34.0</ele><time>2026-04-24T04:17:17Z</time></trkpt><trkpt lat="-19.051840681569473" lon="121.65952436971247"><ele>34.0</ele><time>2026-04-24T04:17:18Z</time></trkpt><trkpt lat="-19.051546588592586" lon="121.65963388636042"><ele>34.0</ele><time>2026-04-24T04:17:19Z</time></trkpt><trkpt lat="-19.051252470583133" lon="121.65974253759474"><ele>34.0</ele><time>2026-04-24T04:17:20Z</time></trkpt><trkpt lat="-19.050956033707664" lon="121.65984919764061"><ele>35.0</ele><time>2026-04-24T04:17:21Z</time></trkpt><trkpt lat="-19.050659982214402" lon="121.65995306217059"><ele>36.0</ele><time>2026-04-24T04:17:22Z</time></trkpt><trkpt lat="-19.0503585468384" lon="121.66005975896827"><ele>36.0</ele><time>2026-04-24T04:17:23Z</time></trkpt><trkpt lat="-19.050058439245724" lon="121.6601672898476"><ele>36.0</ele><time>2026-04-24T04:17:24Z</time></trkpt><trkpt lat="-19.04976009472664" lon="121.66027288268471"><ele>36.5</ele><time>2026-04-24T04:17:25Z</time></trkpt><trkpt lat="-19.049461635762473" lon="121.66037710452414"><ele>37.0</ele><time>2026-04-24T04:17:26Z</time></trkpt><trkpt lat="-19.049164893322764" lon="121.66048233171395"><ele>36.0</ele><time>2026-04-24T04:17:27Z</time></trkpt><trkpt lat="-19.04886855665279" lon="121.66058737472231"><ele>35.0</ele><time>2026-04-24T04:17:28Z</time></trkpt><trkpt lat="-19.048569946096926" lon="121.6606939318183"><ele>35.0</ele><time>2026-04-24T04:17:29Z</time></trkpt><trkpt lat="-19.048272537785355" lon="121.6607997181293"><ele>35.0</ele><time>2026-04-24T04:17:30Z</time></trkpt><trkpt lat="-19.04797606996511" lon="121.66090611477532"><ele>35.0</ele><time>2026-04-24T04:17:31Z</time></trkpt><trkpt lat="-19.047678763158714" lon="121.66101468323625"><ele>35.0</ele><time>2026-04-24T04:17:32Z</time></trkpt><trkpt lat="-19.0473822020039" lon="121.66112169532667"><ele>36.5</ele><time>2026-04-24T04:17:33Z</time></trkpt><trkpt lat="-19.0470853643105" lon="121.66122760617478"><ele>38.0</ele><time>2026-04-24T04:17:34Z</time></trkpt><trkpt lat="-19.04678867342048" lon="121.66133159628285"><ele>37.5</ele><time>2026-04-24T04:17:35Z</time></trkpt><trkpt lat="-19.046493854837284" lon="121.66143636945571"><ele>37.0</ele><time>2026-04-24T04:17:36Z</time></trkpt><trkpt lat="-19.046198765861472" lon="121.66154208233856"><ele>37.0</ele><time>2026-04-24T04:17:37Z</time></trkpt><trkpt lat="-19.04590296870219" lon="121.66165093046575"><ele>37.0</ele><time>2026-04-24T04:17:38Z</time></trkpt><trkpt lat="-19.045606608170235" lon="121.66176086975082"><ele>37.0</ele><time>2026-04-24T04:17:39Z</time></trkpt><trkpt lat="-19.045308496964935" lon="121.66187037149986"><ele>37.0</ele><time>2026-04-24T04:17:40Z</time></trkpt><trkpt lat="-19.045011939678172" lon="121.66197820560217"><ele>36.5</ele><time>2026-04-24T04:17:41Z</time></trkpt><trkpt lat="-19.0447173641035" lon="121.66208161867641"><ele>36.0</ele><time>2026-04-24T04:17:42Z</time></trkpt><trkpt lat="-19.044425364979162" lon="121.66218359421426"><ele>36.0</ele><time>2026-04-24T04:17:43Z</time></trkpt><trkpt lat="-19.044134788749293" lon="121.66228540549028"><ele>36.0</ele><time>2026-04-24T04:17:44Z</time></trkpt><trkpt lat="-19.043846538843194" lon="121.66238740694926"><ele>36.0</ele><time>2026-04-24T04:17:45Z</time></trkpt><trkpt lat="-19.043559496609653" lon="121.66248950152219"><ele>36.0</ele><time>2026-04-24T04:17:46Z</time></trkpt><trkpt lat="-19.043273552837118" lon="121.66258999521456"><ele>36.0</ele><time>2026-04-24T04:17:47Z</time></trkpt><trkpt lat="-19.04298687023982" lon="121.66269051499546"><ele>36.0</ele><time>2026-04-24T04:17:48Z</time></trkpt><trkpt lat="-19.042700990355208" lon="121.66278958943644"><ele>35.5</ele><time>2026-04-24T04:17:49Z</time></trkpt><trkpt lat="-19.042415310317516" lon="121.66289059194791"><ele>35.0</ele><time>2026-04-24T04:17:50Z</time></trkpt><trkpt lat="-19.042131425127142" lon="121.66299136594229"><ele>35.0</ele><time>2026-04-24T04:17:51Z</time></trkpt><trkpt lat="-19.04157225254805" lon="121.66319095532586"><ele>35.0</ele><time>2026-04-24T04:17:53Z</time></trkpt><trkpt lat="-19.041293306495692" lon="121.66328919534136"><ele>35.0</ele><time>2026-04-24T04:17:54Z</time></trkpt><trkpt lat="-19.041014287452132" lon="121.663386682485"><ele>34.0</ele><time>2026-04-24T04:17:55Z</time></trkpt><trkpt lat="-19.040732128037394" lon="121.66348512517574"><ele>33.0</ele><time>2026-04-24T04:17:56Z</time></trkpt><trkpt lat="-19.04045125300113" lon="121.66358455999634"><ele>33.5</ele><time>2026-04-24T04:17:57Z</time></trkpt><trkpt lat="-19.040167947513627" lon="121.66368780019765"><ele>34.0</ele><time>2026-04-24T04:17:58Z</time></trkpt><trkpt lat="-19.03988435202592" lon="121.66379689519809"><ele>34.0</ele><time>2026-04-24T04:17:59Z</time></trkpt><trkpt lat="-19.039600404374358" lon="121.663907114717"><ele>34.0</ele><time>2026-04-24T04:18:00Z</time></trkpt><trkpt lat="-19.039315497200384" lon="121.66401341324011"><ele>34.0</ele><time>2026-04-24T04:18:01Z</time></trkpt><trkpt lat="-19.03902742225815" lon="121.66411444360944"><ele>34.0</ele><time>2026-04-24T04:18:02.001Z</time></trkpt><trkpt lat="-19.03873798442426" lon="121.66421702297917"><ele>34.0</ele><time>2026-04-24T04:18:03.001Z</time></trkpt><trkpt lat="-19.038450155406473" lon="121.6643201977578"><ele>34.0</ele><time>2026-04-24T04:18:04.001Z</time></trkpt><trkpt lat="-19.038163320516418" lon="121.66442286801721"><ele>33.5</ele><time>2026-04-24T04:18:05.001Z</time></trkpt><trkpt lat="-19.03787883465284" lon="121.66452636111748"><ele>33.0</ele><time>2026-04-24T04:18:06.001Z</time></trkpt><trkpt lat="-19.037599148372525" lon="121.66463324419097"><ele>32.5</ele><time>2026-04-24T04:18:07.001Z</time></trkpt><trkpt lat="-19.037322177511545" lon="121.66474613242558"><ele>32.0</ele><time>2026-04-24T04:18:08.001Z</time></trkpt><trkpt lat="-19.03704785810523" lon="121.66486631642506"><ele>32.0</ele><time>2026-04-24T04:18:09.001Z</time></trkpt><trkpt lat="-19.036776914214734" lon="121.66499190227572"><ele>32.0</ele><time>2026-04-24T04:18:10.001Z</time></trkpt><trkpt lat="-19.03650792881185" lon="121.66512297754637"><ele>32.0</ele><time>2026-04-24T04:18:11.001Z</time></trkpt><trkpt lat="-19.036244767361044" lon="121.66526249740365"><ele>32.0</ele><time>2026-04-24T04:18:12.001Z</time></trkpt><trkpt lat="-19.03598485475836" lon="121.66540502249501"><ele>31.5</ele><time>2026-04-24T04:18:13.001Z</time></trkpt><trkpt lat="-19.035729836042766" lon="121.66554903215803"><ele>31.0</ele><time>2026-04-24T04:18:14.001Z</time></trkpt><trkpt lat="-19.035475961638152" lon="121.66569360478492"><ele>31.0</ele><time>2026-04-24T04:18:15.001Z</time></trkpt><trkpt lat="-19.035223994587877" lon="121.66584103324439"><ele>31.0</ele><time>2026-04-24T04:18:16.001Z</time></trkpt><trkpt lat="-19.03497777219249" lon="121.66599250385094"><ele>31.5</ele><time>2026-04-24T04:18:17.001Z</time></trkpt><trkpt lat="-19.03473614777077" lon="121.66614598672733"><ele>32.0</ele><time>2026-04-24T04:18:18.001Z</time></trkpt><trkpt lat="-19.03449718699973" lon="121.66630193793412"><ele>32.0</ele><time>2026-04-24T04:18:19.001Z</time></trkpt><trkpt lat="-19.034258987057864" lon="121.66646117582084"><ele>32.0</ele><time>2026-04-24T04:18:20.001Z</time></trkpt><trkpt lat="-19.034025533298337" lon="121.66663031327191"><ele>32.0</ele><time>2026-04-24T04:18:21.001Z</time></trkpt><trkpt lat="-19.03379056288006" lon="121.66681282976764"><ele>32.0</ele><time>2026-04-24T04:18:22.001Z</time></trkpt><trkpt lat="-19.033557605351568" lon="121.6670043718575"><ele>32.0</ele><time>2026-04-24T04:18:23.001Z</time></trkpt><trkpt lat="-19.03332336348035" lon="121.66720060605844"><ele>32.0</ele><time>2026-04-24T04:18:24.001Z</time></trkpt><trkpt lat="-19.033088367104295" lon="121.66739597201033"><ele>32.0</ele><time>2026-04-24T04:18:25.001Z</time></trkpt><trkpt lat="-19.032847500089588" lon="121.66759500039996"><ele>32.0</ele><time>2026-04-24T04:18:26.001Z</time></trkpt><trkpt lat="-19.03260394892553" lon="121.66779168694099"><ele>32.5</ele><time>2026-04-24T04:18:27Z</time></trkpt><trkpt lat="-19.032356932141923" lon="121.66798854826938"><ele>33.0</ele><time>2026-04-24T04:18:28Z</time></trkpt><trkpt lat="-19.032111604481834" lon="121.66818887343807"><ele>33.0</ele><time>2026-04-24T04:18:29Z</time></trkpt><trkpt lat="-19.03186064586441" lon="121.66839005430614"><ele>33.0</ele><time>2026-04-24T04:18:30Z</time></trkpt><trkpt lat="-19.03160700339833" lon="121.66859176165035"><ele>32.5</ele><time>2026-04-24T04:18:31Z</time></trkpt><trkpt lat="-19.031364412243693" lon="121.66878623272386"><ele>32.0</ele><time>2026-04-24T04:18:32Z</time></trkpt><trkpt lat="-19.031137695967548" lon="121.66896777510222"><ele>32.0</ele><time>2026-04-24T04:18:33Z</time></trkpt><trkpt lat="-19.030912595641517" lon="121.66915024827358"><ele>32.0</ele><time>2026-04-24T04:18:34Z</time></trkpt><trkpt lat="-19.030684524327274" lon="121.66933681852107"><ele>32.0</ele><time>2026-04-24T04:18:35Z</time></trkpt><trkpt lat="-19.0304510852555" lon="121.66952965990865"><ele>32.0</ele><time>2026-04-24T04:18:36Z</time></trkpt><trkpt lat="-19.030216659630216" lon="121.66972604201543"><ele>32.0</ele><time>2026-04-24T04:18:37Z</time></trkpt><trkpt lat="-19.029979413698424" lon="121.66992156951186"><ele>32.0</ele><time>2026-04-24T04:18:38Z</time></trkpt><trkpt lat="-19.029739718923352" lon="121.67011463116897"><ele>32.0</ele><time>2026-04-24T04:18:39Z</time></trkpt><trkpt lat="-19.029499678055384" lon="121.67030481124443"><ele>32.0</ele><time>2026-04-24T04:18:40Z</time></trkpt><trkpt lat="-19.029259379046877" lon="121.67049463432882"><ele>31.5</ele><time>2026-04-24T04:18:41Z</time></trkpt><trkpt lat="-19.029020417054557" lon="121.6706841447687"><ele>31.0</ele><time>2026-04-24T04:18:42Z</time></trkpt><trkpt lat="-19.028779388634213" lon="121.67087258513051"><ele>31.0</ele><time>2026-04-24T04:18:43Z</time></trkpt><trkpt lat="-19.028537420771762" lon="121.67106620899176"><ele>31.0</ele><time>2026-04-24T04:18:44Z</time></trkpt><trkpt lat="-19.028295529572077" lon="121.67126310565196"><ele>30.5</ele><time>2026-04-24T04:18:45Z</time></trkpt><trkpt lat="-19.028054348380817" lon="121.67146258615261"><ele>30.0</ele><time>2026-04-24T04:18:46Z</time></trkpt><trkpt lat="-19.02781187589284" lon="121.6716629887831"><ele>30.0</ele><time>2026-04-24T04:18:47Z</time></trkpt><trkpt lat="-19.027567910467287" lon="121.67186298650155"><ele>30.0</ele><time>2026-04-24T04:18:48Z</time></trkpt><trkpt lat="-19.02732398879671" lon="121.67206220761847"><ele>30.5</ele><time>2026-04-24T04:18:49Z</time></trkpt><trkpt lat="-19.027078989549796" lon="121.6722619429946"><ele>31.0</ele><time>2026-04-24T04:18:50Z</time></trkpt><trkpt lat="-19.02683509940879" lon="121.67245930456677"><ele>30.5</ele><time>2026-04-24T04:18:51Z</time></trkpt><trkpt lat="-19.026587719002073" lon="121.67265753875401"><ele>30.0</ele><time>2026-04-24T04:18:52Z</time></trkpt><trkpt lat="-19.02634640194655" lon="121.67285254625286"><ele>29.5</ele><time>2026-04-24T04:18:53Z</time></trkpt><trkpt lat="-19.026100151947475" lon="121.67305278556522"><ele>29.0</ele><time>2026-04-24T04:18:54Z</time></trkpt><trkpt lat="-19.025855720151892" lon="121.67324889545327"><ele>29.0</ele><time>2026-04-24T04:18:55Z</time></trkpt><trkpt lat="-19.02561088200316" lon="121.6734475789114"><ele>29.0</ele><time>2026-04-24T04:18:56Z</time></trkpt><trkpt lat="-19.02536994710891" lon="121.67364417463196"><ele>29.0</ele><time>2026-04-24T04:18:57Z</time></trkpt><trkpt lat="-19.025126552508972" lon="121.6738431783562"><ele>29.0</ele><time>2026-04-24T04:18:58Z</time></trkpt><trkpt lat="-19.024880546817315" lon="121.67404140578576"><ele>29.5</ele><time>2026-04-24T04:18:59Z</time></trkpt><trkpt lat="-19.024633972195993" lon="121.67423899511783"><ele>30.0</ele><time>2026-04-24T04:19:00Z</time></trkpt><trkpt lat="-19.024386159667106" lon="121.67443784217905"><ele>28.5</ele><time>2026-04-24T04:19:01Z</time></trkpt><trkpt lat="-19.024138293643933" lon="121.67463919896078"><ele>27.0</ele><time>2026-04-24T04:19:02Z</time></trkpt><trkpt lat="-19.023891819642188" lon="121.67484001497802"><ele>27.0</ele><time>2026-04-24T04:19:03Z</time></trkpt><trkpt lat="-19.023645220976135" lon="121.67504053848566"><ele>27.0</ele><time>2026-04-24T04:19:04Z</time></trkpt><trkpt lat="-19.023398409462366" lon="121.67523968223703"><ele>27.0</ele><time>2026-04-24T04:19:05Z</time></trkpt><trkpt lat="-19.023153548948287" lon="121.67543654599633"><ele>27.0</ele><time>2026-04-24T04:19:06Z</time></trkpt><trkpt lat="-19.022909045058206" lon="121.6756335865325"><ele>27.0</ele><time>2026-04-24T04:19:07Z</time></trkpt><trkpt lat="-19.022664903274595" lon="121.67583286972267"><ele>27.0</ele><time>2026-04-24T04:19:08Z</time></trkpt><trkpt lat="-19.02241938765521" lon="121.6760323400675"><ele>27.0</ele><time>2026-04-24T04:19:09Z</time></trkpt><trkpt lat="-19.02217158418989" lon="121.6762317272497"><ele>27.0</ele><time>2026-04-24T04:19:10Z</time></trkpt><trkpt lat="-19.021924355092878" lon="121.67643328174634"><ele>27.0</ele><time>2026-04-24T04:19:11Z</time></trkpt><trkpt lat="-19.02167563750786" lon="121.67663180691883"><ele>27.0</ele><time>2026-04-24T04:19:12Z</time></trkpt><trkpt lat="-19.02142653792528" lon="121.67682999992351"><ele>26.5</ele><time>2026-04-24T04:19:13Z</time></trkpt><trkpt lat="-19.02117946460539" lon="121.67702731706511"><ele>26.0</ele><time>2026-04-24T04:19:14Z</time></trkpt><trkpt lat="-19.02093203138358" lon="121.67722620079267"><ele>25.0</ele><time>2026-04-24T04:19:15Z</time></trkpt><trkpt lat="-19.020687118909205" lon="121.67742563632656"><ele>24.0</ele><time>2026-04-24T04:19:16Z</time></trkpt><trkpt lat="-19.02044238375446" lon="121.67762675479526"><ele>24.0</ele><time>2026-04-24T04:19:17Z</time></trkpt><trkpt lat="-19.020195518382316" lon="121.67782767912695"><ele>24.0</ele><time>2026-04-24T04:19:18Z</time></trkpt><trkpt lat="-19.01994643474317" lon="121.67802849869665"><ele>24.0</ele><time>2026-04-24T04:19:19Z</time></trkpt><trkpt lat="-19.0196958633935" lon="121.67823228741716"><ele>24.0</ele><time>2026-04-24T04:19:20Z</time></trkpt><trkpt lat="-19.01944691651531" lon="121.67843614871538"><ele>23.5</ele><time>2026-04-24T04:19:21Z</time></trkpt><trkpt lat="-19.019194171819496" lon="121.67864107025933"><ele>23.0</ele><time>2026-04-24T04:19:22Z</time></trkpt><trkpt lat="-19.01894515194952" lon="121.6788421298673"><ele>24.0</ele><time>2026-04-24T04:19:23Z</time></trkpt><trkpt lat="-19.01869217827977" lon="121.67904211850558"><ele>25.0</ele><time>2026-04-24T04:19:24Z</time></trkpt><trkpt lat="-19.01843837829733" lon="121.67924407394159"><ele>24.0</ele><time>2026-04-24T04:19:25Z</time></trkpt><trkpt lat="-19.018184431599632" lon="121.67944888354745"><ele>23.0</ele><time>2026-04-24T04:19:26Z</time></trkpt><trkpt lat="-19.01793070271704" lon="121.67965379455384"><ele>23.0</ele><time>2026-04-24T04:19:27Z</time></trkpt><trkpt lat="-19.017677797008908" lon="121.67985635780475"><ele>23.0</ele><time>2026-04-24T04:19:28Z</time></trkpt><trkpt lat="-19.017426523543193" lon="121.68006103097407"><ele>23.0</ele><time>2026-04-24T04:19:29Z</time></trkpt><trkpt lat="-19.01718008089568" lon="121.68026348204724"><ele>23.0</ele><time>2026-04-24T04:19:30Z</time></trkpt><trkpt lat="-19.016930547015676" lon="121.68046666670836"><ele>23.0</ele><time>2026-04-24T04:19:31Z</time></trkpt><trkpt lat="-19.016680061017013" lon="121.68066629082477"><ele>23.0</ele><time>2026-04-24T04:19:32Z</time></trkpt><trkpt lat="-19.01642964578927" lon="121.68086840198495"><ele>23.5</ele><time>2026-04-24T04:19:33Z</time></trkpt><trkpt lat="-19.01617973228859" lon="121.68107015645133"><ele>24.0</ele><time>2026-04-24T04:19:34Z</time></trkpt><trkpt lat="-19.015928589733942" lon="121.68127296067571"><ele>25.0</ele><time>2026-04-24T04:19:35Z</time></trkpt><trkpt lat="-19.01567745421836" lon="121.68147765956407"><ele>26.0</ele><time>2026-04-24T04:19:36Z</time></trkpt><trkpt lat="-19.015428135011327" lon="121.68168041073453"><ele>26.0</ele><time>2026-04-24T04:19:37Z</time></trkpt><trkpt lat="-19.015177027589818" lon="121.68188283018502"><ele>26.0</ele><time>2026-04-24T04:19:38Z</time></trkpt><trkpt lat="-19.014922825314844" lon="121.68208475261561"><ele>25.5</ele><time>2026-04-24T04:19:39Z</time></trkpt><trkpt lat="-19.014669640202552" lon="121.68228633575129"><ele>25.0</ele><time>2026-04-24T04:19:40Z</time></trkpt><trkpt lat="-19.014417895462177" lon="121.68249101937926"><ele>25.0</ele><time>2026-04-24T04:19:41Z</time></trkpt><trkpt lat="-19.01416287597252" lon="121.68269807963848"><ele>25.0</ele><time>2026-04-24T04:19:42Z</time></trkpt><trkpt lat="-19.013908919793945" lon="121.68290596404645"><ele>24.5</ele><time>2026-04-24T04:19:43Z</time></trkpt><trkpt lat="-19.013656768739253" lon="121.68311295252195"><ele>24.0</ele><time>2026-04-24T04:19:44Z</time></trkpt><trkpt lat="-19.013404135013616" lon="121.68331844540468"><ele>24.5</ele><time>2026-04-24T04:19:45Z</time></trkpt><trkpt lat="-19.013153266163553" lon="121.68352132947963"><ele>25.0</ele><time>2026-04-24T04:19:46Z</time></trkpt><trkpt lat="-19.012900637836587" lon="121.68372340361275"><ele>25.0</ele><time>2026-04-24T04:19:47Z</time></trkpt><trkpt lat="-19.012649525718622" lon="121.68392480990524"><ele>25.0</ele><time>2026-04-24T04:19:48Z</time></trkpt><trkpt lat="-19.012396061856744" lon="121.68412888296477"><ele>25.0</ele><time>2026-04-24T04:19:49Z</time></trkpt><trkpt lat="-19.012141940177333" lon="121.68433473105382"><ele>25.0</ele><time>2026-04-24T04:19:50Z</time></trkpt><trkpt lat="-19.01188622082851" lon="121.68454286833813"><ele>26.0</ele><time>2026-04-24T04:19:51Z</time></trkpt><trkpt lat="-19.01163099088693" lon="121.68475257810762"><ele>27.0</ele><time>2026-04-24T04:19:52Z</time></trkpt><trkpt lat="-19.01137543231606" lon="121.68495825354213"><ele>27.0</ele><time>2026-04-24T04:19:53Z</time></trkpt><trkpt lat="-19.011119119196067" lon="121.68516304514132"><ele>27.0</ele><time>2026-04-24T04:19:54Z</time></trkpt><trkpt lat="-19.01086436112975" lon="121.68536411832531"><ele>28.0</ele><time>2026-04-24T04:19:55Z</time></trkpt><trkpt lat="-19.0106103662969" lon="121.68556609034155"><ele>29.0</ele><time>2026-04-24T04:19:56Z</time></trkpt><trkpt lat="-19.01036002818616" lon="121.68576729182446"><ele>29.0</ele><time>2026-04-24T04:19:57Z</time></trkpt><trkpt lat="-19.01011397717384" lon="121.68596857322437"><ele>29.0</ele><time>2026-04-24T04:19:58Z</time></trkpt><trkpt lat="-19.009867459208323" lon="121.68616922837907"><ele>27.5</ele><time>2026-04-24T04:19:59Z</time></trkpt><trkpt lat="-19.00962109369321" lon="121.6863688514962"><ele>26.0</ele><time>2026-04-24T04:20:00Z</time></trkpt><trkpt lat="-19.009374181528745" lon="121.6865694794484"><ele>26.5</ele><time>2026-04-24T04:20:01Z</time></trkpt><trkpt lat="-19.009125917508424" lon="121.686771391151"><ele>27.0</ele><time>2026-04-24T04:20:02Z</time></trkpt><trkpt lat="-19.00887610972971" lon="121.68697163428392"><ele>27.5</ele><time>2026-04-24T04:20:03Z</time></trkpt><trkpt lat="-19.008625532011646" lon="121.68717222462871"><ele>28.0</ele><time>2026-04-24T04:20:04Z</time></trkpt><trkpt lat="-19.008377492494272" lon="121.6873732929368"><ele>29.0</ele><time>2026-04-24T04:20:05Z</time></trkpt><trkpt lat="-19.008127237252992" lon="121.68757576676472"><ele>30.0</ele><time>2026-04-24T04:20:06.001Z</time></trkpt><trkpt lat="-19.007875673588142" lon="121.68777784339558"><ele>30.0</ele><time>2026-04-24T04:20:07.001Z</time></trkpt><trkpt lat="-19.00762534041504" lon="121.68797930916263"><ele>30.0</ele><time>2026-04-24T04:20:08.001Z</time></trkpt><trkpt lat="-19.00737413135807" lon="121.68818211454432"><ele>30.0</ele><time>2026-04-24T04:20:09.001Z</time></trkpt><trkpt lat="-19.007122790972463" lon="121.68838492409084"><ele>30.0</ele><time>2026-04-24T04:20:10.001Z</time></trkpt><trkpt lat="-19.006874212831548" lon="121.68858686884609"><ele>30.0</ele><time>2026-04-24T04:20:11.001Z</time></trkpt><trkpt lat="-19.00663023734617" lon="121.68878410646388"><ele>30.0</ele><time>2026-04-24T04:20:12.001Z</time></trkpt><trkpt lat="-19.006386138644373" lon="121.68898099628207"><ele>30.0</ele><time>2026-04-24T04:20:13.001Z</time></trkpt><trkpt lat="-19.00614192645677" lon="121.68917843259577"><ele>30.0</ele><time>2026-04-24T04:20:14.001Z</time></trkpt><trkpt lat="-19.005899929471834" lon="121.68937355869973"><ele>30.0</ele><time>2026-04-24T04:20:15.001Z</time></trkpt><trkpt lat="-19.005659102540594" lon="121.68957050387142"><ele>30.0</ele><time>2026-04-24T04:20:16.001Z</time></trkpt><trkpt lat="-19.005421696799377" lon="121.68976508119948"><ele>30.0</ele><time>2026-04-24T04:20:17.001Z</time></trkpt><trkpt lat="-19.00518006209918" lon="121.68995985526551"><ele>30.0</ele><time>2026-04-24T04:20:18.001Z</time></trkpt><trkpt lat="-19.004938169242887" lon="121.69014986010936"><ele>29.5</ele><time>2026-04-24T04:20:19.001Z</time></trkpt><trkpt lat="-19.004692788716728" lon="121.69034223222226"><ele>29.0</ele><time>2026-04-24T04:20:20.001Z</time></trkpt><trkpt lat="-19.004451471668496" lon="121.69053531987149"><ele>29.0</ele><time>2026-04-24T04:20:21.001Z</time></trkpt><trkpt lat="-19.004214607370024" lon="121.69073405753248"><ele>29.0</ele><time>2026-04-24T04:20:22.001Z</time></trkpt><trkpt lat="-19.00397731657052" lon="121.6909312246685"><ele>29.5</ele><time>2026-04-24T04:20:23.001Z</time></trkpt><trkpt lat="-19.003747525711816" lon="121.69111805052256"><ele>30.0</ele><time>2026-04-24T04:20:24.001Z</time></trkpt><trkpt lat="-19.003530932428085" lon="121.69129449700615"><ele>30.0</ele><time>2026-04-24T04:20:25.001Z</time></trkpt><trkpt lat="-19.003310433793963" lon="121.69146960199244"><ele>30.0</ele><time>2026-04-24T04:20:26.001Z</time></trkpt><trkpt lat="-19.003084246747648" lon="121.6916511572577"><ele>30.0</ele><time>2026-04-24T04:20:27.001Z</time></trkpt><trkpt lat="-19.002854011965795" lon="121.69183799082"><ele>30.0</ele><time>2026-04-24T04:20:28.001Z</time></trkpt><trkpt lat="-19.00262102281659" lon="121.69202572362057"><ele>30.5</ele><time>2026-04-24T04:20:29.001Z</time></trkpt><trkpt lat="-19.00238661430161" lon="121.6922128560648"><ele>31.0</ele><time>2026-04-24T04:20:30.001Z</time></trkpt><trkpt lat="-19.002149792770517" lon="121.69239883560724"><ele>31.0</ele><time>2026-04-24T04:20:31.001Z</time></trkpt><trkpt lat="-19.00191025306591" lon="121.69259011323848"><ele>31.0</ele><time>2026-04-24T04:20:32.001Z</time></trkpt><trkpt lat="-19.00166845321237" lon="121.6927847121992"><ele>30.0</ele><time>2026-04-24T04:20:33Z</time></trkpt><trkpt lat="-19.00142489075877" lon="121.69298367723971"><ele>29.0</ele><time>2026-04-24T04:20:34Z</time></trkpt><trkpt lat="-19.00118027023654" lon="121.69318332067185"><ele>29.0</ele><time>2026-04-24T04:20:35Z</time></trkpt><trkpt lat="-19.000933363120563" lon="121.69338358944844"><ele>29.0</ele><time>2026-04-24T04:20:36Z</time></trkpt><trkpt lat="-19.00068588431855" lon="121.69358463163357"><ele>29.0</ele><time>2026-04-24T04:20:37Z</time></trkpt><trkpt lat="-19.0004413413493" lon="121.69378085860967"><ele>29.0</ele><time>2026-04-24T04:20:38Z</time></trkpt><trkpt lat="-19.000197511026336" lon="121.69397377316615"><ele>29.0</ele><time>2026-04-24T04:20:39Z</time></trkpt><trkpt lat="-18.999956400077387" lon="121.69416885341427"><ele>29.0</ele><time>2026-04-24T04:20:40Z</time></trkpt><trkpt lat="-18.999716748606684" lon="121.69436528048804"><ele>27.5</ele><time>2026-04-24T04:20:41Z</time></trkpt><trkpt lat="-18.99947997503255" lon="121.6945614014011"><ele>26.0</ele><time>2026-04-24T04:20:42Z</time></trkpt><trkpt lat="-18.999230925171307" lon="121.69474392280645"><ele>26.0</ele><time>2026-04-24T04:20:43Z</time></trkpt><trkpt lat="-18.99900155353081" lon="121.69495247400982"><ele>26.0</ele><time>2026-04-24T04:20:44Z</time></trkpt><trkpt lat="-18.998759664566805" lon="121.69514825890518"><ele>26.0</ele><time>2026-04-24T04:20:45Z</time></trkpt><trkpt lat="-18.99851485950748" lon="121.69534615746835"><ele>26.0</ele><time>2026-04-24T04:20:46Z</time></trkpt><trkpt lat="-18.998266945789673" lon="121.69554695557021"><ele>25.5</ele><time>2026-04-24T04:20:47Z</time></trkpt><trkpt lat="-18.998016492195664" lon="121.6957478074933"><ele>25.0</ele><time>2026-04-24T04:20:48Z</time></trkpt><trkpt lat="-18.997767633541347" lon="121.69594548286909"><ele>25.0</ele><time>2026-04-24T04:20:49Z</time></trkpt><trkpt lat="-18.99751704488015" lon="121.69614482228069"><ele>25.0</ele><time>2026-04-24T04:20:50Z</time></trkpt><trkpt lat="-18.99726984468556" lon="121.69634511080054"><ele>25.0</ele><time>2026-04-24T04:20:51Z</time></trkpt><trkpt lat="-18.997021890300143" lon="121.69654702201478"><ele>25.0</ele><time>2026-04-24T04:20:52Z</time></trkpt><trkpt lat="-18.996776186062736" lon="121.69674868850296"><ele>24.0</ele><time>2026-04-24T04:20:53Z</time></trkpt><trkpt lat="-18.99652804235972" lon="121.69695111016522"><ele>23.0</ele><time>2026-04-24T04:20:54Z</time></trkpt><trkpt lat="-18.9962789815014" lon="121.69714865726995"><ele>23.0</ele><time>2026-04-24T04:20:55Z</time></trkpt><trkpt lat="-18.99602849045225" lon="121.69734710665006"><ele>23.0</ele><time>2026-04-24T04:20:56Z</time></trkpt><trkpt lat="-18.995776892532454" lon="121.69754579954214"><ele>23.0</ele><time>2026-04-24T04:20:57Z</time></trkpt><trkpt lat="-18.995527849757924" lon="121.69774457816752"><ele>23.0</ele><time>2026-04-24T04:20:58Z</time></trkpt><trkpt lat="-18.99527866262374" lon="121.69794431970477"><ele>22.5</ele><time>2026-04-24T04:20:59Z</time></trkpt><trkpt lat="-18.995027671379997" lon="121.69814317574959"><ele>22.0</ele><time>2026-04-24T04:21:00Z</time></trkpt><trkpt lat="-18.994779144822726" lon="121.69834276125141"><ele>22.5</ele><time>2026-04-24T04:21:01Z</time></trkpt><trkpt lat="-18.9945302094459" lon="121.69854568058314"><ele>23.0</ele><time>2026-04-24T04:21:02Z</time></trkpt><trkpt lat="-18.994282855815595" lon="121.6987492183795"><ele>22.5</ele><time>2026-04-24T04:21:03Z</time></trkpt><trkpt lat="-18.99403649483287" lon="121.69895044024956"><ele>22.0</ele><time>2026-04-24T04:21:04Z</time></trkpt><trkpt lat="-18.993787324744986" lon="121.69915380987801"><ele>22.0</ele><time>2026-04-24T04:21:05Z</time></trkpt><trkpt lat="-18.99353723661897" lon="121.69935595681596"><ele>22.0</ele><time>2026-04-24T04:21:06Z</time></trkpt><trkpt lat="-18.993288107708334" lon="121.69955848242456"><ele>21.5</ele><time>2026-04-24T04:21:07Z</time></trkpt><trkpt lat="-18.99304222722851" lon="121.69976081115303"><ele>21.0</ele><time>2026-04-24T04:21:08Z</time></trkpt><trkpt lat="-18.992798572914253" lon="121.69995919052138"><ele>21.0</ele><time>2026-04-24T04:21:09Z</time></trkpt><trkpt lat="-18.992555448524843" lon="121.70015374159725"><ele>21.0</ele><time>2026-04-24T04:21:10Z</time></trkpt><trkpt lat="-18.992315607762322" lon="121.70034691449108"><ele>20.5</ele><time>2026-04-24T04:21:11Z</time></trkpt><trkpt lat="-18.992075064817133" lon="121.7005418844482"><ele>20.0</ele><time>2026-04-24T04:21:12Z</time></trkpt><trkpt lat="-18.991834308816813" lon="121.70073854358425"><ele>20.0</ele><time>2026-04-24T04:21:13Z</time></trkpt><trkpt lat="-18.991589149504385" lon="121.70094050695181"><ele>20.0</ele><time>2026-04-24T04:21:14Z</time></trkpt><trkpt lat="-18.991340573793686" lon="121.70114267986769"><ele>20.0</ele><time>2026-04-24T04:21:15Z</time></trkpt><trkpt lat="-18.991089468508026" lon="121.70134478233916"><ele>20.0</ele><time>2026-04-24T04:21:16Z</time></trkpt><trkpt lat="-18.99083431067554" lon="121.70154626374932"><ele>20.0</ele><time>2026-04-24T04:21:17Z</time></trkpt><trkpt lat="-18.99057730590061" lon="121.70174955565311"><ele>20.0</ele><time>2026-04-24T04:21:18Z</time></trkpt><trkpt lat="-18.99031984750931" lon="121.70195368708522"><ele>20.0</ele><time>2026-04-24T04:21:19Z</time></trkpt><trkpt lat="-18.9900689462056" lon="121.70215590551555"><ele>20.0</ele><time>2026-04-24T04:21:20Z</time></trkpt><trkpt lat="-18.989819935518064" lon="121.70236016753682"><ele>19.5</ele><time>2026-04-24T04:21:21Z</time></trkpt><trkpt lat="-18.989575572107288" lon="121.70255982075517"><ele>19.0</ele><time>2026-04-24T04:21:22Z</time></trkpt><trkpt lat="-18.989329550877034" lon="121.70275796665369"><ele>19.0</ele><time>2026-04-24T04:21:23Z</time></trkpt><trkpt lat="-18.989081043954407" lon="121.70295940018285"><ele>19.0</ele><time>2026-04-24T04:21:24Z</time></trkpt><trkpt lat="-18.988835799796227" lon="121.70315610477704"><ele>19.0</ele><time>2026-04-24T04:21:25Z</time></trkpt><trkpt lat="-18.98859354259149" lon="121.70335191319647"><ele>19.0</ele><time>2026-04-24T04:21:26Z</time></trkpt><trkpt lat="-18.988352011079645" lon="121.70355016103792"><ele>19.0</ele><time>2026-04-24T04:21:27Z</time></trkpt><trkpt lat="-18.988111858517843" lon="121.70374509786278"><ele>19.0</ele><time>2026-04-24T04:21:28Z</time></trkpt><trkpt lat="-18.987874262507813" lon="121.703938981754"><ele>19.0</ele><time>2026-04-24T04:21:29Z</time></trkpt><trkpt lat="-18.98763529127933" lon="121.70413060306888"><ele>19.0</ele><time>2026-04-24T04:21:30Z</time></trkpt><trkpt lat="-18.987393869287718" lon="121.70432238740867"><ele>19.0</ele><time>2026-04-24T04:21:31Z</time></trkpt><trkpt lat="-18.987156302301734" lon="121.70451363593043"><ele>19.0</ele><time>2026-04-24T04:21:32Z</time></trkpt><trkpt lat="-18.986921827894015" lon="121.70470699567663"><ele>19.0</ele><time>2026-04-24T04:21:33Z</time></trkpt><trkpt lat="-18.98668020678686" lon="121.70490211104195"><ele>19.0</ele><time>2026-04-24T04:21:34Z</time></trkpt><trkpt lat="-18.986439749299322" lon="121.70509189813689"><ele>18.5</ele><time>2026-04-24T04:21:35Z</time></trkpt><trkpt lat="-18.986202330809103" lon="121.70528078720996"><ele>18.0</ele><time>2026-04-24T04:21:36Z</time></trkpt><trkpt lat="-18.985965073396677" lon="121.70546040359032"><ele>18.5</ele><time>2026-04-24T04:21:37Z</time></trkpt><trkpt lat="-18.985723456193536" lon="121.70563357860823"><ele>19.0</ele><time>2026-04-24T04:21:38Z</time></trkpt><trkpt lat="-18.985480848552015" lon="121.70579974454525"><ele>19.0</ele><time>2026-04-24T04:21:39Z</time></trkpt><trkpt lat="-18.985235510691858" lon="121.7059602372951"><ele>19.0</ele><time>2026-04-24T04:21:40Z</time></trkpt><trkpt lat="-18.984983671215655" lon="121.70611528253309"><ele>19.0</ele><time>2026-04-24T04:21:41Z</time></trkpt><trkpt lat="-18.984744679465607" lon="121.70625900946072"><ele>19.0</ele><time>2026-04-24T04:21:42Z</time></trkpt><trkpt lat="-18.984514061816085" lon="121.70639107687018"><ele>19.0</ele><time>2026-04-24T04:21:43Z</time></trkpt><trkpt lat="-18.98427565385912" lon="121.7065247615252"><ele>19.0</ele><time>2026-04-24T04:21:44Z</time></trkpt><trkpt lat="-18.984030158682508" lon="121.70665751223017"><ele>19.0</ele><time>2026-04-24T04:21:45Z</time></trkpt><trkpt lat="-18.983780332107507" lon="121.70678828071411"><ele>19.0</ele><time>2026-04-24T04:21:46Z</time></trkpt><trkpt lat="-18.98352990520624" lon="121.70691604956544"><ele>18.5</ele><time>2026-04-24T04:21:47Z</time></trkpt><trkpt lat="-18.98326768093164" lon="121.7070456305102"><ele>18.0</ele><time>2026-04-24T04:21:48Z</time></trkpt><trkpt lat="-18.98299112469616" lon="121.70718036289267"><ele>18.0</ele><time>2026-04-24T04:21:49Z</time></trkpt><trkpt lat="-18.98270743181183" lon="121.70731218056767"><ele>18.0</ele><time>2026-04-24T04:21:50.001Z</time></trkpt><trkpt lat="-18.982421550741282" lon="121.70743468303398"><ele>18.0</ele><time>2026-04-24T04:21:51.001Z</time></trkpt><trkpt lat="-18.982129374557093" lon="121.70755267697508"><ele>18.0</ele><time>2026-04-24T04:21:52.001Z</time></trkpt><trkpt lat="-18.981836898668686" lon="121.7076662776092"><ele>18.0</ele><time>2026-04-24T04:21:53.001Z</time></trkpt><trkpt lat="-18.98154454334214" lon="121.7077702463709"><ele>18.0</ele><time>2026-04-24T04:21:54.001Z</time></trkpt><trkpt lat="-18.98124745691675" lon="121.707868304869"><ele>18.0</ele><time>2026-04-24T04:21:55.001Z</time></trkpt><trkpt lat="-18.9809480540103" lon="121.7079729468413"><ele>18.0</ele><time>2026-04-24T04:21:56.001Z</time></trkpt><trkpt lat="-18.98064800025499" lon="121.70808261594534"><ele>18.0</ele><time>2026-04-24T04:21:57.001Z</time></trkpt><trkpt lat="-18.980346117922167" lon="121.70819114794212"><ele>18.0</ele><time>2026-04-24T04:21:58.001Z</time></trkpt><trkpt lat="-18.98004526082608" lon="121.70829854909478"><ele>18.5</ele><time>2026-04-24T04:21:59.001Z</time></trkpt><trkpt lat="-18.979752237824343" lon="121.70840478981808"><ele>19.0</ele><time>2026-04-24T04:22:00.001Z</time></trkpt><trkpt lat="-18.979465812400104" lon="121.70850976953584"><ele>18.5</ele><time>2026-04-24T04:22:01.001Z</time></trkpt><trkpt lat="-18.97918557867299" lon="121.70861186624879"><ele>18.0</ele><time>2026-04-24T04:22:02.001Z</time></trkpt><trkpt lat="-18.97890510647689" lon="121.70871269214423"><ele>17.5</ele><time>2026-04-24T04:22:03.001Z</time></trkpt><trkpt lat="-18.97862766688169" lon="121.70881726151883"><ele>17.0</ele><time>2026-04-24T04:22:04.001Z</time></trkpt><trkpt lat="-18.97835108303481" lon="121.70892125544258"><ele>17.0</ele><time>2026-04-24T04:22:05.001Z</time></trkpt><trkpt lat="-18.978075178149947" lon="121.70902205906505"><ele>17.0</ele><time>2026-04-24T04:22:06.001Z</time></trkpt><trkpt lat="-18.97779772440466" lon="121.70912295570048"><ele>17.0</ele><time>2026-04-24T04:22:07.001Z</time></trkpt><trkpt lat="-18.97752181031939" lon="121.70922715386328"><ele>17.0</ele><time>2026-04-24T04:22:08.001Z</time></trkpt><trkpt lat="-18.97724598561828" lon="121.70933081405911"><ele>18.0</ele><time>2026-04-24T04:22:09.001Z</time></trkpt><trkpt lat="-18.9769666024954" lon="121.70943667267039"><ele>19.0</ele><time>2026-04-24T04:22:10.001Z</time></trkpt><trkpt lat="-18.97668617355977" lon="121.70954122359626"><ele>19.5</ele><time>2026-04-24T04:22:11.001Z</time></trkpt><trkpt lat="-18.976406014604446" lon="121.70964603177895"><ele>20.0</ele><time>2026-04-24T04:22:12.001Z</time></trkpt><trkpt lat="-18.976127222414952" lon="121.70975038348318"><ele>20.5</ele><time>2026-04-24T04:22:13.001Z</time></trkpt><trkpt lat="-18.975846969519306" lon="121.70985532304421"><ele>21.0</ele><time>2026-04-24T04:22:14.001Z</time></trkpt><trkpt lat="-18.975568497240673" lon="121.70996054139275"><ele>21.0</ele><time>2026-04-24T04:22:15.001Z</time></trkpt><trkpt lat="-18.97528959265046" lon="121.71006695301541"><ele>21.0</ele><time>2026-04-24T04:22:16.001Z</time></trkpt><trkpt lat="-18.97500627842731" lon="121.71017329189068"><ele>22.0</ele><time>2026-04-24T04:22:17.001Z</time></trkpt><trkpt lat="-18.974719380236575" lon="121.71028011974022"><ele>23.0</ele><time>2026-04-24T04:22:18.001Z</time></trkpt><trkpt lat="-18.974430158311552" lon="121.71039008202487"><ele>22.5</ele><time>2026-04-24T04:22:19.001Z</time></trkpt><trkpt lat="-18.97413792394714" lon="121.71049996019605"><ele>22.0</ele><time>2026-04-24T04:22:20.001Z</time></trkpt><trkpt lat="-18.9738441884725" lon="121.71061045561088"><ele>22.0</ele><time>2026-04-24T04:22:21.001Z</time></trkpt><trkpt lat="-18.97354927066579" lon="121.71071906136349"><ele>22.0</ele><time>2026-04-24T04:22:22.001Z</time></trkpt><trkpt lat="-18.973259298510254" lon="121.71082779638773"><ele>21.0</ele><time>2026-04-24T04:22:23.001Z</time></trkpt><trkpt lat="-18.97296900025572" lon="121.71093667200437"><ele>20.0</ele><time>2026-04-24T04:22:24.001Z</time></trkpt><trkpt lat="-18.972681394707703" lon="121.71104378680495"><ele>20.0</ele><time>2026-04-24T04:22:25.001Z</time></trkpt><trkpt lat="-18.97239370401488" lon="121.71115119275396"><ele>20.0</ele><time>2026-04-24T04:22:26.001Z</time></trkpt><trkpt lat="-18.972108302394695" lon="121.7112576071277"><ele>20.0</ele><time>2026-04-24T04:22:27.001Z</time></trkpt><trkpt lat="-18.97181933369534" lon="121.7113650943255"><ele>20.0</ele><time>2026-04-24T04:22:28.001Z</time></trkpt><trkpt lat="-18.971530608999217" lon="121.71147147223978"><ele>21.0</ele><time>2026-04-24T04:22:29.001Z</time></trkpt><trkpt lat="-18.971243155410964" lon="121.71157778026583"><ele>22.0</ele><time>2026-04-24T04:22:30.001Z</time></trkpt><trkpt lat="-18.970953604951813" lon="121.71168563411229"><ele>23.5</ele><time>2026-04-24T04:22:31.001Z</time></trkpt><trkpt lat="-18.970665317191365" lon="121.71179478798037"><ele>25.0</ele><time>2026-04-24T04:22:32.001Z</time></trkpt><trkpt lat="-18.97037982043936" lon="121.71190359273986"><ele>24.0</ele><time>2026-04-24T04:22:33.001Z</time></trkpt><trkpt lat="-18.97009733147547" lon="121.71201189188389"><ele>23.0</ele><time>2026-04-24T04:22:34.001Z</time></trkpt><trkpt lat="-18.969814591219905" lon="121.71211884656441"><ele>23.0</ele><time>2026-04-24T04:22:35.001Z</time></trkpt><trkpt lat="-18.969530345603527" lon="121.71222430861975"><ele>23.0</ele><time>2026-04-24T04:22:36.001Z</time></trkpt><trkpt lat="-18.96924679068315" lon="121.71232931894568"><ele>23.5</ele><time>2026-04-24T04:22:37.001Z</time></trkpt><trkpt lat="-18.96895866773543" lon="121.71243538896753"><ele>24.0</ele><time>2026-04-24T04:22:38.001Z</time></trkpt><trkpt lat="-18.968673899351394" lon="121.7125422383602"><ele>24.0</ele><time>2026-04-24T04:22:39Z</time></trkpt><trkpt lat="-18.96839112736904" lon="121.71264854948465"><ele>24.0</ele><time>2026-04-24T04:22:40Z</time></trkpt><trkpt lat="-18.96810928104444" lon="121.7127548414232"><ele>24.0</ele><time>2026-04-24T04:22:41Z</time></trkpt><trkpt lat="-18.967827972532557" lon="121.71286213371584"><ele>24.0</ele><time>2026-04-24T04:22:42Z</time></trkpt><trkpt lat="-18.967547741183022" lon="121.71296856838555"><ele>24.0</ele><time>2026-04-24T04:22:43Z</time></trkpt><trkpt lat="-18.967262976230494" lon="121.71307594321057"><ele>24.0</ele><time>2026-04-24T04:22:44Z</time></trkpt><trkpt lat="-18.966980083802152" lon="121.71318123520751"><ele>24.5</ele><time>2026-04-24T04:22:45Z</time></trkpt><trkpt lat="-18.966692639892564" lon="121.71328632062034"><ele>25.0</ele><time>2026-04-24T04:22:46Z</time></trkpt><trkpt lat="-18.96640429907659" lon="121.71339052502712"><ele>25.0</ele><time>2026-04-24T04:22:47Z</time></trkpt><trkpt lat="-18.966117604306998" lon="121.71349548285723"><ele>25.0</ele><time>2026-04-24T04:22:48Z</time></trkpt><trkpt lat="-18.965830720801335" lon="121.71360544792061"><ele>25.5</ele><time>2026-04-24T04:22:49Z</time></trkpt><trkpt lat="-18.965543517120754" lon="121.7137149340926"><ele>26.0</ele><time>2026-04-24T04:22:50Z</time></trkpt><trkpt lat="-18.9652541112559" lon="121.7138237741286"><ele>27.0</ele><time>2026-04-24T04:22:51Z</time></trkpt><trkpt lat="-18.964962070298085" lon="121.7139295604519"><ele>28.0</ele><time>2026-04-24T04:22:52Z</time></trkpt><trkpt lat="-18.96466607997578" lon="121.71403825402673"><ele>28.0</ele><time>2026-04-24T04:22:53Z</time></trkpt><trkpt lat="-18.964373907702235" lon="121.71414788913997"><ele>28.0</ele><time>2026-04-24T04:22:54Z</time></trkpt><trkpt lat="-18.96407840798182" lon="121.71425818647175"><ele>28.5</ele><time>2026-04-24T04:22:55Z</time></trkpt><trkpt lat="-18.963781375400462" lon="121.71436843809543"><ele>29.0</ele><time>2026-04-24T04:22:56Z</time></trkpt><trkpt lat="-18.963483859633442" lon="121.7144787344197"><ele>28.5</ele><time>2026-04-24T04:22:57Z</time></trkpt><trkpt lat="-18.963186072426065" lon="121.71458913478531"><ele>28.0</ele><time>2026-04-24T04:22:58Z</time></trkpt><trkpt lat="-18.962887812925324" lon="121.71470104288541"><ele>28.0</ele><time>2026-04-24T04:22:59Z</time></trkpt><trkpt lat="-18.962586817040634" lon="121.7148120996517"><ele>28.0</ele><time>2026-04-24T04:23:00Z</time></trkpt><trkpt lat="-18.962289400334654" lon="121.71492420872575"><ele>29.0</ele><time>2026-04-24T04:23:01Z</time></trkpt><trkpt lat="-18.961994297062912" lon="121.71503755229506"><ele>30.0</ele><time>2026-04-24T04:23:02Z</time></trkpt><trkpt lat="-18.96169948942588" lon="121.71515154200695"><ele>29.0</ele><time>2026-04-24T04:23:03Z</time></trkpt><trkpt lat="-18.961410545715488" lon="121.71526502541992"><ele>28.0</ele><time>2026-04-24T04:23:04Z</time></trkpt><trkpt lat="-18.96112413429493" lon="121.71537810541717"><ele>28.0</ele><time>2026-04-24T04:23:05Z</time></trkpt><trkpt lat="-18.96083817871824" lon="121.71548902775753"><ele>28.0</ele><time>2026-04-24T04:23:06Z</time></trkpt><trkpt lat="-18.960551533264777" lon="121.7155960487954"><ele>28.0</ele><time>2026-04-24T04:23:07Z</time></trkpt><trkpt lat="-18.960263338464813" lon="121.71569853892024"><ele>28.0</ele><time>2026-04-24T04:23:08Z</time></trkpt><trkpt lat="-18.95997378342137" lon="121.71580188454445"><ele>29.0</ele><time>2026-04-24T04:23:09Z</time></trkpt><trkpt lat="-18.95968379045106" lon="121.71590719817455"><ele>30.0</ele><time>2026-04-24T04:23:10Z</time></trkpt><trkpt lat="-18.95939407200648" lon="121.71601331672534"><ele>31.5</ele><time>2026-04-24T04:23:11Z</time></trkpt><trkpt lat="-18.9591031587129" lon="121.71612242681287"><ele>33.0</ele><time>2026-04-24T04:23:12Z</time></trkpt><trkpt lat="-18.958815147182126" lon="121.71623084931575"><ele>33.0</ele><time>2026-04-24T04:23:13Z</time></trkpt><trkpt lat="-18.958530202357164" lon="121.71633961539467"><ele>33.0</ele><time>2026-04-24T04:23:14Z</time></trkpt><trkpt lat="-18.95824434294617" lon="121.71645164089739"><ele>34.0</ele><time>2026-04-24T04:23:15Z</time></trkpt><trkpt lat="-18.957958381055892" lon="121.71656341809893"><ele>35.0</ele><time>2026-04-24T04:23:16Z</time></trkpt><trkpt lat="-18.957666640820307" lon="121.71665553369677"><ele>34.5</ele><time>2026-04-24T04:23:17Z</time></trkpt><trkpt lat="-18.957380137946068" lon="121.7167622889772"><ele>34.0</ele><time>2026-04-24T04:23:18Z</time></trkpt><trkpt lat="-18.957093606425804" lon="121.71686944535696"><ele>34.0</ele><time>2026-04-24T04:23:19Z</time></trkpt><trkpt lat="-18.956802694787164" lon="121.71697840557594"><ele>34.0</ele><time>2026-04-24T04:23:20Z</time></trkpt><trkpt lat="-18.956509942850193" lon="121.71708814450025"><ele>34.0</ele><time>2026-04-24T04:23:21Z</time></trkpt><trkpt lat="-18.95622235707324" lon="121.71721331046948"><ele>34.0</ele><time>2026-04-24T04:23:22Z</time></trkpt><trkpt lat="-18.955925856923503" lon="121.71732064321662"><ele>34.5</ele><time>2026-04-24T04:23:23Z</time></trkpt><trkpt lat="-18.955633270384347" lon="121.71743021124634"><ele>35.0</ele><time>2026-04-24T04:23:24Z</time></trkpt><trkpt lat="-18.95534172661223" lon="121.71754051491003"><ele>35.0</ele><time>2026-04-24T04:23:25Z</time></trkpt><trkpt lat="-18.95504711144643" lon="121.71764846863692"><ele>35.0</ele><time>2026-04-24T04:23:26Z</time></trkpt><trkpt lat="-18.954749688078834" lon="121.71775534097726"><ele>35.0</ele><time>2026-04-24T04:23:27Z</time></trkpt><trkpt lat="-18.95445312798257" lon="121.71786200891238"><ele>35.0</ele><time>2026-04-24T04:23:28Z</time></trkpt><trkpt lat="-18.954160365992028" lon="121.71797100991321"><ele>35.0</ele><time>2026-04-24T04:23:29Z</time></trkpt><trkpt lat="-18.95388949209986" lon="121.71807219646031"><ele>35.0</ele><time>2026-04-24T04:23:30Z</time></trkpt><trkpt lat="-18.953624454695806" lon="121.71817255274632"><ele>36.0</ele><time>2026-04-24T04:23:31Z</time></trkpt><trkpt lat="-18.953354818661623" lon="121.71827635141568"><ele>37.0</ele><time>2026-04-24T04:23:32Z</time></trkpt><trkpt lat="-18.953080338452487" lon="121.71838163540367"><ele>37.0</ele><time>2026-04-24T04:23:33Z</time></trkpt><trkpt lat="-18.952801695472825" lon="121.71848749948244"><ele>37.0</ele><time>2026-04-24T04:23:34Z</time></trkpt><trkpt lat="-18.952522128206944" lon="121.71859372825496"><ele>36.5</ele><time>2026-04-24T04:23:35Z</time></trkpt><trkpt lat="-18.95223893912063" lon="121.71869886064499"><ele>36.0</ele><time>2026-04-24T04:23:36Z</time></trkpt><trkpt lat="-18.951954449540892" lon="121.71880491675859"><ele>36.5</ele><time>2026-04-24T04:23:37Z</time></trkpt><trkpt lat="-18.95166913440914" lon="121.7189125693477"><ele>37.0</ele><time>2026-04-24T04:23:38.001Z</time></trkpt><trkpt lat="-18.95137850943892" lon="121.71902049746937"><ele>37.0</ele><time>2026-04-24T04:23:39.001Z</time></trkpt><trkpt lat="-18.95108732111938" lon="121.71912943860737"><ele>37.0</ele><time>2026-04-24T04:23:40.001Z</time></trkpt><trkpt lat="-18.950795365639653" lon="121.7192390129326"><ele>37.0</ele><time>2026-04-24T04:23:41.001Z</time></trkpt><trkpt lat="-18.950499927041058" lon="121.71934846918448"><ele>37.0</ele><time>2026-04-24T04:23:42.001Z</time></trkpt><trkpt lat="-18.950203387984015" lon="121.71945651528362"><ele>37.5</ele><time>2026-04-24T04:23:43.001Z</time></trkpt><trkpt lat="-18.949906768378185" lon="121.71956705152229"><ele>38.0</ele><time>2026-04-24T04:23:44.001Z</time></trkpt><trkpt lat="-18.949608776550203" lon="121.71968091557851"><ele>38.0</ele><time>2026-04-24T04:23:45.001Z</time></trkpt><trkpt lat="-18.949312613981366" lon="121.7197947916804"><ele>38.0</ele><time>2026-04-24T04:23:46.001Z</time></trkpt><trkpt lat="-18.949015367738077" lon="121.71990798701744"><ele>37.0</ele><time>2026-04-24T04:23:47.001Z</time></trkpt><trkpt lat="-18.948717759274622" lon="121.7200205826472"><ele>36.0</ele><time>2026-04-24T04:23:48.001Z</time></trkpt><trkpt lat="-18.94842019026725" lon="121.72013108790455"><ele>36.5</ele><time>2026-04-24T04:23:49.001Z</time></trkpt><trkpt lat="-18.948124647129337" lon="121.7202417544209"><ele>37.0</ele><time>2026-04-24T04:23:50.001Z</time></trkpt><trkpt lat="-18.94783189617007" lon="121.72035269066289"><ele>37.0</ele><time>2026-04-24T04:23:51.001Z</time></trkpt><trkpt lat="-18.947536425361456" lon="121.72046352818948"><ele>37.0</ele><time>2026-04-24T04:23:52.001Z</time></trkpt><trkpt lat="-18.947240778416266" lon="121.72057153460891"><ele>37.0</ele><time>2026-04-24T04:23:53.001Z</time></trkpt><trkpt lat="-18.946944644573698" lon="121.72068186143979"><ele>37.0</ele><time>2026-04-24T04:23:54.001Z</time></trkpt><trkpt lat="-18.946647589866625" lon="121.72079273667808"><ele>37.5</ele><time>2026-04-24T04:23:55.001Z</time></trkpt><trkpt lat="-18.946350185984585" lon="121.7209059563688"><ele>38.0</ele><time>2026-04-24T04:23:56.001Z</time></trkpt><trkpt lat="-18.946054313715866" lon="121.72101851736736"><ele>38.0</ele><time>2026-04-24T04:23:57.001Z</time></trkpt><trkpt lat="-18.94575769602179" lon="121.72112832350813"><ele>38.0</ele><time>2026-04-24T04:23:58.001Z</time></trkpt><trkpt lat="-18.945463900973554" lon="121.72123776825677"><ele>38.0</ele><time>2026-04-24T04:23:59.001Z</time></trkpt><trkpt lat="-18.94516963357007" lon="121.72134523836607"><ele>38.0</ele><time>2026-04-24T04:24:00.001Z</time></trkpt><trkpt lat="-18.944876586525446" lon="121.72145120350932"><ele>38.0</ele><time>2026-04-24T04:24:01.001Z</time></trkpt><trkpt lat="-18.944591233624827" lon="121.72155440814575"><ele>38.0</ele><time>2026-04-24T04:24:02.001Z</time></trkpt><trkpt lat="-18.94431647268239" lon="121.72165455231254"><ele>37.0</ele><time>2026-04-24T04:24:03.001Z</time></trkpt><trkpt lat="-18.944042939088245" lon="121.72175723546009"><ele>36.0</ele><time>2026-04-24T04:24:04.001Z</time></trkpt><trkpt lat="-18.943771438968778" lon="121.7218670986665"><ele>37.0</ele><time>2026-04-24T04:24:05.001Z</time></trkpt><trkpt lat="-18.943497895464997" lon="121.72198479949256"><ele>38.0</ele><time>2026-04-24T04:24:06.001Z</time></trkpt><trkpt lat="-18.943226607089194" lon="121.72210914410948"><ele>38.0</ele><time>2026-04-24T04:24:07.001Z</time></trkpt><trkpt lat="-18.942954396110746" lon="121.72223975878072"><ele>38.0</ele><time>2026-04-24T04:24:08.001Z</time></trkpt><trkpt lat="-18.942686793652932" lon="121.72237803728457"><ele>38.0</ele><time>2026-04-24T04:24:09.001Z</time></trkpt><trkpt lat="-18.942416710088132" lon="121.72252076671344"><ele>38.0</ele><time>2026-04-24T04:24:10.001Z</time></trkpt><trkpt lat="-18.94214795276884" lon="121.72267216881289"><ele>38.5</ele><time>2026-04-24T04:24:11.001Z</time></trkpt><trkpt lat="-18.941881083322148" lon="121.72282781279785"><ele>39.0</ele><time>2026-04-24T04:24:12.001Z</time></trkpt><trkpt lat="-18.941612200204766" lon="121.72299025622208"><ele>39.0</ele><time>2026-04-24T04:24:13.001Z</time></trkpt><trkpt lat="-18.941345168280748" lon="121.7231524325432"><ele>39.0</ele><time>2026-04-24T04:24:14.001Z</time></trkpt><trkpt lat="-18.941080424187444" lon="121.7233227794286"><ele>39.0</ele><time>2026-04-24T04:24:15.001Z</time></trkpt><trkpt lat="-18.940820913257603" lon="121.72350018103248"><ele>39.0</ele><time>2026-04-24T04:24:16.001Z</time></trkpt><trkpt lat="-18.940563461062165" lon="121.72368748261633"><ele>39.5</ele><time>2026-04-24T04:24:17.001Z</time></trkpt><trkpt lat="-18.940307454457212" lon="121.72388213428174"><ele>40.0</ele><time>2026-04-24T04:24:18.001Z</time></trkpt><trkpt lat="-18.9400522188222" lon="121.72407511954954"><ele>40.0</ele><time>2026-04-24T04:24:19.001Z</time></trkpt><trkpt lat="-18.93979532824136" lon="121.72426957633868"><ele>40.0</ele><time>2026-04-24T04:24:20.001Z</time></trkpt><trkpt lat="-18.939542485144482" lon="121.72446776171027"><ele>40.0</ele><time>2026-04-24T04:24:21.001Z</time></trkpt><trkpt lat="-18.939290631772455" lon="121.724668385247"><ele>40.0</ele><time>2026-04-24T04:24:22.001Z</time></trkpt><trkpt lat="-18.9390387919614" lon="121.72486497040126"><ele>40.5</ele><time>2026-04-24T04:24:23.001Z</time></trkpt><trkpt lat="-18.938788406922487" lon="121.72505812150771"><ele>41.0</ele><time>2026-04-24T04:24:24.001Z</time></trkpt><trkpt lat="-18.93853717162857" lon="121.72525150467756"><ele>40.5</ele><time>2026-04-24T04:24:25.001Z</time></trkpt><trkpt lat="-18.938283970423363" lon="121.72544396562793"><ele>40.0</ele><time>2026-04-24T04:24:26.001Z</time></trkpt><trkpt lat="-18.938030278752155" lon="121.7256374701266"><ele>40.0</ele><time>2026-04-24T04:24:27.001Z</time></trkpt><trkpt lat="-18.937780086042643" lon="121.72583380095107"><ele>40.0</ele><time>2026-04-24T04:24:28.001Z</time></trkpt><trkpt lat="-18.937531743936315" lon="121.72603043460849"><ele>39.5</ele><time>2026-04-24T04:24:29.001Z</time></trkpt><trkpt lat="-18.937280155081982" lon="121.72622438180314"><ele>39.0</ele><time>2026-04-24T04:24:30.001Z</time></trkpt><trkpt lat="-18.937026978306" lon="121.72641879328313"><ele>39.0</ele><time>2026-04-24T04:24:31.001Z</time></trkpt><trkpt lat="-18.93677312434932" lon="121.72661133337172"><ele>39.0</ele><time>2026-04-24T04:24:32.001Z</time></trkpt><trkpt lat="-18.936516330124178" lon="121.72680173259783"><ele>39.0</ele><time>2026-04-24T04:24:33.001Z</time></trkpt><trkpt lat="-18.936260073766654" lon="121.7269936101427"><ele>39.0</ele><time>2026-04-24T04:24:34.001Z</time></trkpt><trkpt lat="-18.93600184313372" lon="121.7271945034474"><ele>39.5</ele><time>2026-04-24T04:24:35.001Z</time></trkpt><trkpt lat="-18.9357480989613" lon="121.72739405756296"><ele>40.0</ele><time>2026-04-24T04:24:36.001Z</time></trkpt><trkpt lat="-18.935498070599923" lon="121.72759558891005"><ele>40.0</ele><time>2026-04-24T04:24:37.001Z</time></trkpt><trkpt lat="-18.935252225376896" lon="121.7277904686819"><ele>40.0</ele><time>2026-04-24T04:24:38.001Z</time></trkpt><trkpt lat="-18.935007355332186" lon="121.72798343996699"><ele>40.0</ele><time>2026-04-24T04:24:39.001Z</time></trkpt><trkpt lat="-18.934760041105594" lon="121.72817454693784"><ele>40.0</ele><time>2026-04-24T04:24:40.001Z</time></trkpt><trkpt lat="-18.934511261269606" lon="121.72836263756396"><ele>40.0</ele><time>2026-04-24T04:24:41.001Z</time></trkpt><trkpt lat="-18.934262082986375" lon="121.72855188465034"><ele>40.0</ele><time>2026-04-24T04:24:42.001Z</time></trkpt><trkpt lat="-18.934014193289194" lon="121.72874034280092"><ele>40.0</ele><time>2026-04-24T04:24:43.001Z</time></trkpt><trkpt lat="-18.93377019172085" lon="121.72892688435039"><ele>40.0</ele><time>2026-04-24T04:24:44.001Z</time></trkpt><trkpt lat="-18.933527963050864" lon="121.72911377096018"><ele>40.5</ele><time>2026-04-24T04:24:45Z</time></trkpt><trkpt lat="-18.93328104328597" lon="121.72930310241094"><ele>41.0</ele><time>2026-04-24T04:24:46Z</time></trkpt><trkpt lat="-18.9330349285143" lon="121.72949359961802"><ele>41.0</ele><time>2026-04-24T04:24:47Z</time></trkpt><trkpt lat="-18.932788616334555" lon="121.72968659266606"><ele>41.0</ele><time>2026-04-24T04:24:48Z</time></trkpt><trkpt lat="-18.93254033821556" lon="121.72987927009834"><ele>41.0</ele><time>2026-04-24T04:24:49Z</time></trkpt><trkpt lat="-18.932288638976342" lon="121.7300711487004"><ele>41.0</ele><time>2026-04-24T04:24:50Z</time></trkpt><trkpt lat="-18.932035563179898" lon="121.73026563809411"><ele>41.0</ele><time>2026-04-24T04:24:51Z</time></trkpt><trkpt lat="-18.931782224083804" lon="121.73046242076846"><ele>41.0</ele><time>2026-04-24T04:24:52Z</time></trkpt><trkpt lat="-18.93153003302755" lon="121.73065652709467"><ele>41.0</ele><time>2026-04-24T04:24:53Z</time></trkpt><trkpt lat="-18.93127637167689" lon="121.73085016615356"><ele>41.0</ele><time>2026-04-24T04:24:54Z</time></trkpt><trkpt lat="-18.931027107624065" lon="121.73104249691178"><ele>41.5</ele><time>2026-04-24T04:24:55Z</time></trkpt><trkpt lat="-18.930776735948168" lon="121.73123227099595"><ele>42.0</ele><time>2026-04-24T04:24:56Z</time></trkpt><trkpt lat="-18.93052633737538" lon="121.73142457411339"><ele>42.0</ele><time>2026-04-24T04:24:57Z</time></trkpt><trkpt lat="-18.93027425238989" lon="121.7316178684984"><ele>42.0</ele><time>2026-04-24T04:24:58Z</time></trkpt><trkpt lat="-18.930022324744836" lon="121.73181221720384"><ele>43.0</ele><time>2026-04-24T04:24:59Z</time></trkpt><trkpt lat="-18.929770096929463" lon="121.73200805786334"><ele>44.0</ele><time>2026-04-24T04:25:00Z</time></trkpt><trkpt lat="-18.929527804395345" lon="121.73219895309046"><ele>44.0</ele><time>2026-04-24T04:25:01Z</time></trkpt><trkpt lat="-18.929280235899345" lon="121.73239043812764"><ele>44.0</ele><time>2026-04-24T04:25:02Z</time></trkpt><trkpt lat="-18.929035222383742" lon="121.73257764178621"><ele>44.5</ele><time>2026-04-24T04:25:03Z</time></trkpt><trkpt lat="-18.92878993484328" lon="121.73276721824035"><ele>45.0</ele><time>2026-04-24T04:25:04Z</time></trkpt><trkpt lat="-18.928544016133532" lon="121.7329607907725"><ele>44.0</ele><time>2026-04-24T04:25:05Z</time></trkpt><trkpt lat="-18.92829544572913" lon="121.73315652614855"><ele>43.0</ele><time>2026-04-24T04:25:06Z</time></trkpt><trkpt lat="-18.9280422278802" lon="121.73335119434759"><ele>43.0</ele><time>2026-04-24T04:25:07Z</time></trkpt><trkpt lat="-18.92778835020251" lon="121.73354447510701"><ele>43.0</ele><time>2026-04-24T04:25:08Z</time></trkpt><trkpt lat="-18.927533829592246" lon="121.73374180614796"><ele>42.0</ele><time>2026-04-24T04:25:09Z</time></trkpt><trkpt lat="-18.92728239971465" lon="121.73393918291198"><ele>41.0</ele><time>2026-04-24T04:25:10Z</time></trkpt><trkpt lat="-18.927029309250138" lon="121.73413694463518"><ele>41.0</ele><time>2026-04-24T04:25:11Z</time></trkpt><trkpt lat="-18.926774542865022" lon="121.73433327663017"><ele>41.0</ele><time>2026-04-24T04:25:12Z</time></trkpt><trkpt lat="-18.926522337954243" lon="121.73453316432867"><ele>42.5</ele><time>2026-04-24T04:25:13Z</time></trkpt><trkpt lat="-18.926267373831713" lon="121.734734238527"><ele>44.0</ele><time>2026-04-24T04:25:14Z</time></trkpt><trkpt lat="-18.926013374507853" lon="121.7349305866444"><ele>43.5</ele><time>2026-04-24T04:25:15Z</time></trkpt><trkpt lat="-18.925760807654015" lon="121.73512155590237"><ele>43.0</ele><time>2026-04-24T04:25:16Z</time></trkpt><trkpt lat="-18.925512666126426" lon="121.7353113777479"><ele>43.0</ele><time>2026-04-24T04:25:17Z</time></trkpt><trkpt lat="-18.925267097668847" lon="121.73549899421856"><ele>43.0</ele><time>2026-04-24T04:25:18Z</time></trkpt><trkpt lat="-18.92502386654277" lon="121.7356880029553"><ele>43.0</ele><time>2026-04-24T04:25:19Z</time></trkpt><trkpt lat="-18.92478147927085" lon="121.73587652381167"><ele>43.0</ele><time>2026-04-24T04:25:20Z</time></trkpt><trkpt lat="-18.92453801631995" lon="121.73606425352727"><ele>43.5</ele><time>2026-04-24T04:25:21Z</time></trkpt><trkpt lat="-18.92429134837391" lon="121.73625244697838"><ele>44.0</ele><time>2026-04-24T04:25:22Z</time></trkpt><trkpt lat="-18.924046017882006" lon="121.73643834890265"><ele>44.0</ele><time>2026-04-24T04:25:23Z</time></trkpt><trkpt lat="-18.92379901480224" lon="121.73662611396912"><ele>44.0</ele><time>2026-04-24T04:25:24Z</time></trkpt><trkpt lat="-18.923555079861146" lon="121.73681442172031"><ele>43.5</ele><time>2026-04-24T04:25:25Z</time></trkpt><trkpt lat="-18.92330702688599" lon="121.73700656738417"><ele>43.0</ele><time>2026-04-24T04:25:26Z</time></trkpt><trkpt lat="-18.92305886089064" lon="121.73719990285444"><ele>43.0</ele><time>2026-04-24T04:25:27Z</time></trkpt><trkpt lat="-18.92280733119472" lon="121.73739314257669"><ele>43.0</ele><time>2026-04-24T04:25:28Z</time></trkpt><trkpt lat="-18.922557263845206" lon="121.7375870419683"><ele>42.0</ele><time>2026-04-24T04:25:29Z</time></trkpt><trkpt lat="-18.922306249110534" lon="121.73778170902061"><ele>41.0</ele><time>2026-04-24T04:25:30Z</time></trkpt><trkpt lat="-18.92205232170904" lon="121.73797802697607"><ele>41.0</ele><time>2026-04-24T04:25:31Z</time></trkpt><trkpt lat="-18.921798100835105" lon="121.73817618132475"><ele>41.0</ele><time>2026-04-24T04:25:32Z</time></trkpt><trkpt lat="-18.9215441489155" lon="121.73837189371831"><ele>41.5</ele><time>2026-04-24T04:25:33Z</time></trkpt><trkpt lat="-18.92129398841381" lon="121.73856615609192"><ele>42.0</ele><time>2026-04-24T04:25:34Z</time></trkpt><trkpt lat="-18.92104492138738" lon="121.73875810880982"><ele>42.5</ele><time>2026-04-24T04:25:35Z</time></trkpt><trkpt lat="-18.920793976746207" lon="121.73894966662961"><ele>43.0</ele><time>2026-04-24T04:25:36Z</time></trkpt><trkpt lat="-18.92054487901803" lon="121.73913962764047"><ele>43.0</ele><time>2026-04-24T04:25:37Z</time></trkpt><trkpt lat="-18.92029538771447" lon="121.73933281479823"><ele>43.0</ele><time>2026-04-24T04:25:38.001Z</time></trkpt><trkpt lat="-18.92004485163401" lon="121.73952571705864"><ele>43.0</ele><time>2026-04-24T04:25:39.001Z</time></trkpt><trkpt lat="-18.919795052007228" lon="121.73971833418764"><ele>43.0</ele><time>2026-04-24T04:25:40.001Z</time></trkpt><trkpt lat="-18.919543558230934" lon="121.73991247933172"><ele>43.0</ele><time>2026-04-24T04:25:41.001Z</time></trkpt><trkpt lat="-18.91929324947857" lon="121.74010677684379"><ele>43.0</ele><time>2026-04-24T04:25:42.001Z</time></trkpt><trkpt lat="-18.919045778861186" lon="121.7402981266018"><ele>43.0</ele><time>2026-04-24T04:25:43.001Z</time></trkpt><trkpt lat="-18.918797774486105" lon="121.74049137070618"><ele>43.0</ele><time>2026-04-24T04:25:44.001Z</time></trkpt><trkpt lat="-18.918550208647595" lon="121.74068222242637"><ele>43.0</ele><time>2026-04-24T04:25:45.001Z</time></trkpt><trkpt lat="-18.918305929726237" lon="121.74087253993297"><ele>43.0</ele><time>2026-04-24T04:25:46.001Z</time></trkpt><trkpt lat="-18.918059339577802" lon="121.7410608923067"><ele>42.0</ele><time>2026-04-24T04:25:47.001Z</time></trkpt><trkpt lat="-18.917812004077334" lon="121.74125184371827"><ele>41.0</ele><time>2026-04-24T04:25:48.001Z</time></trkpt><trkpt lat="-18.917565350698645" lon="121.74144137549368"><ele>39.5</ele><time>2026-04-24T04:25:49.001Z</time></trkpt><trkpt lat="-18.91732027181868" lon="121.74163284783461"><ele>38.0</ele><time>2026-04-24T04:25:50.001Z</time></trkpt><trkpt lat="-18.917073352131624" lon="121.74182229175688"><ele>38.0</ele><time>2026-04-24T04:25:51.001Z</time></trkpt><trkpt lat="-18.916826012623577" lon="121.74201481163212"><ele>38.0</ele><time>2026-04-24T04:25:52.001Z</time></trkpt><trkpt lat="-18.9165753072584" lon="121.74220877268294"><ele>38.5</ele><time>2026-04-24T04:25:53.001Z</time></trkpt><trkpt lat="-18.916326802058908" lon="121.74240071603914"><ele>39.0</ele><time>2026-04-24T04:25:54.001Z</time></trkpt><trkpt lat="-18.916076248779365" lon="121.74259321194656"><ele>38.5</ele><time>2026-04-24T04:25:55.001Z</time></trkpt><trkpt lat="-18.91583042340371" lon="121.74278451121832"><ele>38.0</ele><time>2026-04-24T04:25:56.001Z</time></trkpt><trkpt lat="-18.91558119245324" lon="121.74297720327971"><ele>38.0</ele><time>2026-04-24T04:25:57.001Z</time></trkpt><trkpt lat="-18.915330689032697" lon="121.74317113979136"><ele>38.0</ele><time>2026-04-24T04:25:58.001Z</time></trkpt><trkpt lat="-18.91507893839802" lon="121.74336419613843"><ele>37.0</ele><time>2026-04-24T04:25:59.001Z</time></trkpt><trkpt lat="-18.914828707116293" lon="121.7435585541364"><ele>36.0</ele><time>2026-04-24T04:26:00.001Z</time></trkpt><trkpt lat="-18.91458001093841" lon="121.74375181818375"><ele>36.0</ele><time>2026-04-24T04:26:01.001Z</time></trkpt><trkpt lat="-18.914331806821156" lon="121.7439433394333"><ele>36.0</ele><time>2026-04-24T04:26:02.001Z</time></trkpt><trkpt lat="-18.914081761899002" lon="121.74413706521247"><ele>36.0</ele><time>2026-04-24T04:26:03.001Z</time></trkpt><trkpt lat="-18.91383305557459" lon="121.74432732317585"><ele>36.0</ele><time>2026-04-24T04:26:04.001Z</time></trkpt><trkpt lat="-18.913582391179904" lon="121.74452162962426"><ele>36.5</ele><time>2026-04-24T04:26:05.001Z</time></trkpt><trkpt lat="-18.91333118864225" lon="121.74471632287926"><ele>37.0</ele><time>2026-04-24T04:26:06.001Z</time></trkpt><trkpt lat="-18.913079265924644" lon="121.74491193404546"><ele>37.0</ele><time>2026-04-24T04:26:07.001Z</time></trkpt><trkpt lat="-18.912828457385476" lon="121.74510800640523"><ele>37.0</ele><time>2026-04-24T04:26:08.001Z</time></trkpt><trkpt lat="-18.91257946492293" lon="121.74529897665279"><ele>36.5</ele><time>2026-04-24T04:26:09.001Z</time></trkpt><trkpt lat="-18.91233071174526" lon="121.74548819775922"><ele>36.0</ele><time>2026-04-24T04:26:10.001Z</time></trkpt><trkpt lat="-18.912079641129314" lon="121.7456784766699"><ele>36.0</ele><time>2026-04-24T04:26:11.001Z</time></trkpt><trkpt lat="-18.91183067543692" lon="121.74587038546156"><ele>36.0</ele><time>2026-04-24T04:26:12.001Z</time></trkpt><trkpt lat="-18.911577921719818" lon="121.74606787846335"><ele>36.0</ele><time>2026-04-24T04:26:13.001Z</time></trkpt><trkpt lat="-18.911324743335552" lon="121.74626404525344"><ele>36.0</ele><time>2026-04-24T04:26:14.001Z</time></trkpt><trkpt lat="-18.911072854655806" lon="121.74645880610001"><ele>36.5</ele><time>2026-04-24T04:26:15.001Z</time></trkpt><trkpt lat="-18.91082023757152" lon="121.74665161329048"><ele>37.0</ele><time>2026-04-24T04:26:16.001Z</time></trkpt><trkpt lat="-18.91057249721202" lon="121.7468452546175"><ele>37.5</ele><time>2026-04-24T04:26:17.001Z</time></trkpt><trkpt lat="-18.91032651759729" lon="121.747034540992"><ele>38.0</ele><time>2026-04-24T04:26:18.001Z</time></trkpt><trkpt lat="-18.910081537905373" lon="121.74721955277855"><ele>38.0</ele><time>2026-04-24T04:26:19.001Z</time></trkpt><trkpt lat="-18.90984048042869" lon="121.74740100065455"><ele>38.0</ele><time>2026-04-24T04:26:20.001Z</time></trkpt><trkpt lat="-18.90960041023987" lon="121.74758518890559"><ele>37.5</ele><time>2026-04-24T04:26:21.001Z</time></trkpt><trkpt lat="-18.909364504717466" lon="121.74777103876134"><ele>37.0</ele><time>2026-04-24T04:26:22.001Z</time></trkpt><trkpt lat="-18.909131289092862" lon="121.74795822692448"><ele>37.0</ele><time>2026-04-24T04:26:23.001Z</time></trkpt><trkpt lat="-18.908899727291235" lon="121.74813836992472"><ele>37.0</ele><time>2026-04-24T04:26:24.001Z</time></trkpt><trkpt lat="-18.90866128001079" lon="121.74832100290739"><ele>37.0</ele><time>2026-04-24T04:26:25.001Z</time></trkpt><trkpt lat="-18.908419091275103" lon="121.74850737876633"><ele>37.0</ele><time>2026-04-24T04:26:26.001Z</time></trkpt><trkpt lat="-18.908175248179173" lon="121.74869478193409"><ele>37.5</ele><time>2026-04-24T04:26:27.001Z</time></trkpt><trkpt lat="-18.907937901590508" lon="121.74887751475278"><ele>38.0</ele><time>2026-04-24T04:26:28.001Z</time></trkpt><trkpt lat="-18.907716489441423" lon="121.74904575602191"><ele>37.5</ele><time>2026-04-24T04:26:29.001Z</time></trkpt><trkpt lat="-18.907493511983198" lon="121.74921972193447"><ele>37.0</ele><time>2026-04-24T04:26:30.001Z</time></trkpt><trkpt lat="-18.90726189984947" lon="121.74939933336482"><ele>37.0</ele><time>2026-04-24T04:26:31.001Z</time></trkpt><trkpt lat="-18.907027993858865" lon="121.74958232376733"><ele>37.0</ele><time>2026-04-24T04:26:32.001Z</time></trkpt><trkpt lat="-18.9067928487383" lon="121.74976546939857"><ele>37.5</ele><time>2026-04-24T04:26:33.001Z</time></trkpt><trkpt lat="-18.906550651235623" lon="121.74995036417366"><ele>38.0</ele><time>2026-04-24T04:26:34.001Z</time></trkpt><trkpt lat="-18.90630500187385" lon="121.7501378393934"><ele>37.5</ele><time>2026-04-24T04:26:35.001Z</time></trkpt><trkpt lat="-18.906063621906277" lon="121.75032394611323"><ele>37.0</ele><time>2026-04-24T04:26:36.001Z</time></trkpt><trkpt lat="-18.90582293864235" lon="121.75050787517372"><ele>37.0</ele><time>2026-04-24T04:26:37.001Z</time></trkpt><trkpt lat="-18.905578506231507" lon="121.75069619882962"><ele>37.0</ele><time>2026-04-24T04:26:38.001Z</time></trkpt><trkpt lat="-18.90533678316514" lon="121.75088307440313"><ele>37.5</ele><time>2026-04-24T04:26:39.001Z</time></trkpt><trkpt lat="-18.905098666980678" lon="121.75106707888804"><ele>38.0</ele><time>2026-04-24T04:26:40.001Z</time></trkpt><trkpt lat="-18.904860242677866" lon="121.75125059590833"><ele>37.0</ele><time>2026-04-24T04:26:41.001Z</time></trkpt><trkpt lat="-18.904623269209285" lon="121.751435571594"><ele>36.0</ele><time>2026-04-24T04:26:42.001Z</time></trkpt><trkpt lat="-18.90438718699054" lon="121.75161986275785"><ele>37.0</ele><time>2026-04-24T04:26:43.001Z</time></trkpt><trkpt lat="-18.90415024247201" lon="121.75180670108122"><ele>38.0</ele><time>2026-04-24T04:26:44.001Z</time></trkpt><trkpt lat="-18.903909432192417" lon="121.75199438158496"><ele>39.0</ele><time>2026-04-24T04:26:45.001Z</time></trkpt><trkpt lat="-18.903668180382752" lon="121.75218172199709"><ele>40.0</ele><time>2026-04-24T04:26:46.001Z</time></trkpt><trkpt lat="-18.903427126995435" lon="121.7523652285917"><ele>40.5</ele><time>2026-04-24T04:26:47.001Z</time></trkpt><trkpt lat="-18.903186107133216" lon="121.75254821044993"><ele>41.0</ele><time>2026-04-24T04:26:48.001Z</time></trkpt><trkpt lat="-18.902943682818684" lon="121.75273495695845"><ele>41.0</ele><time>2026-04-24T04:26:49.001Z</time></trkpt><trkpt lat="-18.902699161871126" lon="121.75292282390575"><ele>41.0</ele><time>2026-04-24T04:26:50Z</time></trkpt><trkpt lat="-18.902451608253358" lon="121.75311469322958"><ele>40.5</ele><time>2026-04-24T04:26:51Z</time></trkpt><trkpt lat="-18.902206306103228" lon="121.75330486202836"><ele>40.0</ele><time>2026-04-24T04:26:52Z</time></trkpt><trkpt lat="-18.90196035046018" lon="121.75349259911238"><ele>41.0</ele><time>2026-04-24T04:26:53Z</time></trkpt><trkpt lat="-18.90170946840091" lon="121.75367698100682"><ele>42.0</ele><time>2026-04-24T04:26:54Z</time></trkpt><trkpt lat="-18.901457439749212" lon="121.75385585831552"><ele>42.0</ele><time>2026-04-24T04:26:55Z</time></trkpt><trkpt lat="-18.90119911762707" lon="121.75403076623978"><ele>42.0</ele><time>2026-04-24T04:26:56Z</time></trkpt><trkpt lat="-18.900935636971482" lon="121.75420211348711"><ele>41.0</ele><time>2026-04-24T04:26:57Z</time></trkpt><trkpt lat="-18.900671750885973" lon="121.75436902092312"><ele>40.0</ele><time>2026-04-24T04:26:58Z</time></trkpt><trkpt lat="-18.900404525704904" lon="121.75452861919092"><ele>40.0</ele><time>2026-04-24T04:26:59Z</time></trkpt><trkpt lat="-18.90013382948742" lon="121.75468255096217"><ele>40.0</ele><time>2026-04-24T04:27:00Z</time></trkpt><trkpt lat="-18.8998618376809" lon="121.75483219633557"><ele>39.0</ele><time>2026-04-24T04:27:01Z</time></trkpt><trkpt lat="-18.89958492878454" lon="121.75497885493786"><ele>38.0</ele><time>2026-04-24T04:27:02Z</time></trkpt><trkpt lat="-18.89930353330469" lon="121.75512153578258"><ele>39.0</ele><time>2026-04-24T04:27:03Z</time></trkpt><trkpt lat="-18.899016231033546" lon="121.75525594632097"><ele>40.0</ele><time>2026-04-24T04:27:04Z</time></trkpt><trkpt lat="-18.898729139838093" lon="121.75538175463414"><ele>40.0</ele><time>2026-04-24T04:27:05Z</time></trkpt><trkpt lat="-18.898440209378006" lon="121.75550795423281"><ele>40.0</ele><time>2026-04-24T04:27:06Z</time></trkpt><trkpt lat="-18.89815258727242" lon="121.75563651391192"><ele>39.5</ele><time>2026-04-24T04:27:07Z</time></trkpt><trkpt lat="-18.897867303222842" lon="121.7557655888018"><ele>39.0</ele><time>2026-04-24T04:27:08Z</time></trkpt><trkpt lat="-18.897582476766516" lon="121.75589367429777"><ele>39.0</ele><time>2026-04-24T04:27:09Z</time></trkpt><trkpt lat="-18.89729646915965" lon="121.75602112112232"><ele>39.0</ele><time>2026-04-24T04:27:10Z</time></trkpt><trkpt lat="-18.897014075813747" lon="121.75614937412516"><ele>38.0</ele><time>2026-04-24T04:27:11Z</time></trkpt><trkpt lat="-18.89672839163784" lon="121.75627827757154"><ele>37.0</ele><time>2026-04-24T04:27:12Z</time></trkpt><trkpt lat="-18.896439268821783" lon="121.75641058125015"><ele>37.0</ele><time>2026-04-24T04:27:13Z</time></trkpt><trkpt lat="-18.896148832824494" lon="121.75654391149565"><ele>37.0</ele><time>2026-04-24T04:27:14Z</time></trkpt><trkpt lat="-18.895856703761602" lon="121.75667959106711"><ele>36.0</ele><time>2026-04-24T04:27:15Z</time></trkpt><trkpt lat="-18.895561395693687" lon="121.75681569526868"><ele>35.0</ele><time>2026-04-24T04:27:16Z</time></trkpt><trkpt lat="-18.895269186801446" lon="121.75694806738173"><ele>35.0</ele><time>2026-04-24T04:27:17Z</time></trkpt><trkpt lat="-18.89497653073691" lon="121.75707848397056"><ele>35.0</ele><time>2026-04-24T04:27:18Z</time></trkpt><trkpt lat="-18.894684890238555" lon="121.75720794733219"><ele>35.0</ele><time>2026-04-24T04:27:19Z</time></trkpt><trkpt lat="-18.894396583568362" lon="121.75733612362674"><ele>35.0</ele><time>2026-04-24T04:27:20Z</time></trkpt><trkpt lat="-18.89410806461646" lon="121.75746848340395"><ele>35.0</ele><time>2026-04-24T04:27:21Z</time></trkpt><trkpt lat="-18.893822813334882" lon="121.75760019225203"><ele>35.0</ele><time>2026-04-24T04:27:22Z</time></trkpt><trkpt lat="-18.893537752684846" lon="121.75772914285724"><ele>34.0</ele><time>2026-04-24T04:27:23Z</time></trkpt><trkpt lat="-18.893250371523152" lon="121.75785860644326"><ele>33.0</ele><time>2026-04-24T04:27:24Z</time></trkpt><trkpt lat="-18.892964741209827" lon="121.75798655772726"><ele>33.0</ele><time>2026-04-24T04:27:25Z</time></trkpt><trkpt lat="-18.892680025260834" lon="121.75811438096471"><ele>33.0</ele><time>2026-04-24T04:27:26Z</time></trkpt><trkpt lat="-18.892396642118367" lon="121.75824102206735"><ele>32.5</ele><time>2026-04-24T04:27:27Z</time></trkpt><trkpt lat="-18.89211241345189" lon="121.7583681127711"><ele>32.0</ele><time>2026-04-24T04:27:28Z</time></trkpt><trkpt lat="-18.89183327239373" lon="121.75849127581704"><ele>31.5</ele><time>2026-04-24T04:27:29Z</time></trkpt><trkpt lat="-18.891555639092395" lon="121.7586163033602"><ele>31.0</ele><time>2026-04-24T04:27:30Z</time></trkpt><trkpt lat="-18.891278655663452" lon="121.75874365019182"><ele>31.0</ele><time>2026-04-24T04:27:31Z</time></trkpt><trkpt lat="-18.891001643654494" lon="121.75887083610762"><ele>31.0</ele><time>2026-04-24T04:27:32Z</time></trkpt><trkpt lat="-18.8907258704993" lon="121.75899522967099"><ele>32.0</ele><time>2026-04-24T04:27:33Z</time></trkpt><trkpt lat="-18.890448663221665" lon="121.75912122344334"><ele>33.0</ele><time>2026-04-24T04:27:34Z</time></trkpt><trkpt lat="-18.89016867794544" lon="121.7592498746197"><ele>31.0</ele><time>2026-04-24T04:27:35Z</time></trkpt><trkpt lat="-18.889887972090243" lon="121.75937743475468"><ele>29.0</ele><time>2026-04-24T04:27:36Z</time></trkpt><trkpt lat="-18.889606414192716" lon="121.75950559940593"><ele>29.0</ele><time>2026-04-24T04:27:37Z</time></trkpt><trkpt lat="-18.88932166281783" lon="121.75963478953229"><ele>29.0</ele><time>2026-04-24T04:27:38Z</time></trkpt><trkpt lat="-18.889038594483093" lon="121.75976294131455"><ele>28.0</ele><time>2026-04-24T04:27:39Z</time></trkpt><trkpt lat="-18.888751037457926" lon="121.75989333139522"><ele>27.0</ele><time>2026-04-24T04:27:40Z</time></trkpt><trkpt lat="-18.888463462255025" lon="121.76002536833951"><ele>27.5</ele><time>2026-04-24T04:27:41Z</time></trkpt><trkpt lat="-18.888177171167033" lon="121.76015687428075"><ele>28.0</ele><time>2026-04-24T04:27:42Z</time></trkpt><trkpt lat="-18.887885980147214" lon="121.76028984975689"><ele>28.0</ele><time>2026-04-24T04:27:43Z</time></trkpt><trkpt lat="-18.88759442542147" lon="121.76042640575595"><ele>28.0</ele><time>2026-04-24T04:27:44Z</time></trkpt><trkpt lat="-18.887301503610352" lon="121.76056432904075"><ele>27.5</ele><time>2026-04-24T04:27:45Z</time></trkpt><trkpt lat="-18.887009060664518" lon="121.76069529687423"><ele>27.0</ele><time>2026-04-24T04:27:46Z</time></trkpt><trkpt lat="-18.88672343081737" lon="121.76082248943182"><ele>27.0</ele><time>2026-04-24T04:27:47Z</time></trkpt><trkpt lat="-18.88644122076645" lon="121.76094891851857"><ele>27.0</ele><time>2026-04-24T04:27:48Z</time></trkpt><trkpt lat="-18.886158505371665" lon="121.76107385648444"><ele>26.5</ele><time>2026-04-24T04:27:49.001Z</time></trkpt><trkpt lat="-18.88587661140961" lon="121.76119984524756"><ele>26.0</ele><time>2026-04-24T04:27:50.001Z</time></trkpt><trkpt lat="-18.88559691696755" lon="121.7613243320008"><ele>26.0</ele><time>2026-04-24T04:27:51.001Z</time></trkpt><trkpt lat="-18.885319540341282" lon="121.76145073564386"><ele>26.0</ele><time>2026-04-24T04:27:52.001Z</time></trkpt><trkpt lat="-18.88504607895045" lon="121.76157688550742"><ele>25.5</ele><time>2026-04-24T04:27:53.001Z</time></trkpt><trkpt lat="-18.884770823134915" lon="121.76170426704996"><ele>25.0</ele><time>2026-04-24T04:27:54.001Z</time></trkpt><trkpt lat="-18.884498507102936" lon="121.76182822828827"><ele>24.5</ele><time>2026-04-24T04:27:55.001Z</time></trkpt><trkpt lat="-18.884224074872662" lon="121.76195037277718"><ele>24.0</ele><time>2026-04-24T04:27:56.001Z</time></trkpt><trkpt lat="-18.88394569571091" lon="121.76207266706405"><ele>24.0</ele><time>2026-04-24T04:27:57.001Z</time></trkpt><trkpt lat="-18.88366470742257" lon="121.762197044958"><ele>24.0</ele><time>2026-04-24T04:27:58.001Z</time></trkpt><trkpt lat="-18.883385869651043" lon="121.7623253365725"><ele>25.5</ele><time>2026-04-24T04:27:59.001Z</time></trkpt><trkpt lat="-18.88310992666276" lon="121.76245471004819"><ele>27.0</ele><time>2026-04-24T04:28:00.001Z</time></trkpt><trkpt lat="-18.88283828519287" lon="121.76258222120023"><ele>25.5</ele><time>2026-04-24T04:28:01.001Z</time></trkpt><trkpt lat="-18.8825645293496" lon="121.76271091160461"><ele>24.0</ele><time>2026-04-24T04:28:02.001Z</time></trkpt><trkpt lat="-18.88229127377888" lon="121.76283500701722"><ele>24.0</ele><time>2026-04-24T04:28:03.001Z</time></trkpt><trkpt lat="-18.88201377319123" lon="121.7629599760611"><ele>24.0</ele><time>2026-04-24T04:28:04.001Z</time></trkpt><trkpt lat="-18.88173738369095" lon="121.76308372882575"><ele>24.5</ele><time>2026-04-24T04:28:05.001Z</time></trkpt><trkpt lat="-18.88145970638012" lon="121.76320735708104"><ele>25.0</ele><time>2026-04-24T04:28:06.001Z</time></trkpt><trkpt lat="-18.881182037427365" lon="121.76333069786956"><ele>25.5</ele><time>2026-04-24T04:28:07.001Z</time></trkpt><trkpt lat="-18.880901112104553" lon="121.76345424583255"><ele>26.0</ele><time>2026-04-24T04:28:08.001Z</time></trkpt><trkpt lat="-18.880620244324046" lon="121.76358117407287"><ele>26.0</ele><time>2026-04-24T04:28:09.001Z</time></trkpt><trkpt lat="-18.8803422315685" lon="121.76370961803093"><ele>26.0</ele><time>2026-04-24T04:28:10.001Z</time></trkpt><trkpt lat="-18.880064097883018" lon="121.7638375997172"><ele>26.5</ele><time>2026-04-24T04:28:11.001Z</time></trkpt><trkpt lat="-18.879789330695594" lon="121.76396549321186"><ele>27.0</ele><time>2026-04-24T04:28:12.001Z</time></trkpt><trkpt lat="-18.879512013157797" lon="121.76409516614672"><ele>27.0</ele><time>2026-04-24T04:28:13.001Z</time></trkpt><trkpt lat="-18.87923626000466" lon="121.76422265602228"><ele>27.0</ele><time>2026-04-24T04:28:14.001Z</time></trkpt><trkpt lat="-18.878957582079543" lon="121.76434928500575"><ele>27.0</ele><time>2026-04-24T04:28:15.001Z</time></trkpt><trkpt lat="-18.878682499533287" lon="121.76447195769074"><ele>27.0</ele><time>2026-04-24T04:28:16.001Z</time></trkpt><trkpt lat="-18.878405888756234" lon="121.76459339569487"><ele>27.5</ele><time>2026-04-24T04:28:17.001Z</time></trkpt><trkpt lat="-18.87812839192367" lon="121.76471712054169"><ele>28.0</ele><time>2026-04-24T04:28:18.001Z</time></trkpt><trkpt lat="-18.87785158799855" lon="121.76484051516036"><ele>27.5</ele><time>2026-04-24T04:28:19.001Z</time></trkpt><trkpt lat="-18.877575354843348" lon="121.76496330635302"><ele>27.0</ele><time>2026-04-24T04:28:20.001Z</time></trkpt><trkpt lat="-18.877303102202934" lon="121.76508553374885"><ele>27.0</ele><time>2026-04-24T04:28:21.001Z</time></trkpt><trkpt lat="-18.87702831107023" lon="121.76521018448398"><ele>27.0</ele><time>2026-04-24T04:28:22.001Z</time></trkpt><trkpt lat="-18.87675400143939" lon="121.76533532534661"><ele>27.5</ele><time>2026-04-24T04:28:23.001Z</time></trkpt><trkpt lat="-18.876478600289914" lon="121.76546193979127"><ele>28.0</ele><time>2026-04-24T04:28:24.001Z</time></trkpt><trkpt lat="-18.876202086890284" lon="121.7655873290459"><ele>28.5</ele><time>2026-04-24T04:28:25.001Z</time></trkpt><trkpt lat="-18.875926714754886" lon="121.76570998435983"><ele>29.0</ele><time>2026-04-24T04:28:26.001Z</time></trkpt><trkpt lat="-18.875649583676477" lon="121.76583342135162"><ele>29.0</ele><time>2026-04-24T04:28:27.001Z</time></trkpt><trkpt lat="-18.8753734569871" lon="121.76595694800696"><ele>29.0</ele><time>2026-04-24T04:28:28.001Z</time></trkpt><trkpt lat="-18.875099219567563" lon="121.7660807793531"><ele>29.0</ele><time>2026-04-24T04:28:29.001Z</time></trkpt><trkpt lat="-18.874826096922224" lon="121.76620668170536"><ele>29.0</ele><time>2026-04-24T04:28:30.001Z</time></trkpt><trkpt lat="-18.874555377418503" lon="121.76633214923417"><ele>29.0</ele><time>2026-04-24T04:28:31.001Z</time></trkpt><trkpt lat="-18.874284053796533" lon="121.76645922095571"><ele>29.0</ele><time>2026-04-24T04:28:32.001Z</time></trkpt><trkpt lat="-18.874009301846822" lon="121.76658640937829"><ele>30.0</ele><time>2026-04-24T04:28:33.001Z</time></trkpt><trkpt lat="-18.873735031983212" lon="121.76671198800092"><ele>31.0</ele><time>2026-04-24T04:28:34.001Z</time></trkpt><trkpt lat="-18.873456248256712" lon="121.76683552619271"><ele>30.0</ele><time>2026-04-24T04:28:35.001Z</time></trkpt><trkpt lat="-18.873178317436654" lon="121.76695969788196"><ele>29.0</ele><time>2026-04-24T04:28:36.001Z</time></trkpt><trkpt lat="-18.872900656168298" lon="121.76708412896124"><ele>29.0</ele><time>2026-04-24T04:28:37.001Z</time></trkpt><trkpt lat="-18.872620630372378" lon="121.76721017206671"><ele>29.0</ele><time>2026-04-24T04:28:38.001Z</time></trkpt><trkpt lat="-18.872340200147196" lon="121.76733841427674"><ele>29.0</ele><time>2026-04-24T04:28:39.001Z</time></trkpt><trkpt lat="-18.872053849150948" lon="121.76746896635666"><ele>29.0</ele><time>2026-04-24T04:28:40.001Z</time></trkpt><trkpt lat="-18.87176241728082" lon="121.76760081920604"><ele>29.0</ele><time>2026-04-24T04:28:41.001Z</time></trkpt><trkpt lat="-18.87147049031034" lon="121.76773133963626"><ele>29.0</ele><time>2026-04-24T04:28:42.001Z</time></trkpt><trkpt lat="-18.871175758984517" lon="121.76786723830499"><ele>31.0</ele><time>2026-04-24T04:28:43.001Z</time></trkpt><trkpt lat="-18.87088384181481" lon="121.76800441403469"><ele>33.0</ele><time>2026-04-24T04:28:44.001Z</time></trkpt><trkpt lat="-18.870587274697556" lon="121.76813958930067"><ele>33.0</ele><time>2026-04-24T04:28:45.001Z</time></trkpt><trkpt lat="-18.870299417305706" lon="121.76827347071018"><ele>33.0</ele><time>2026-04-24T04:28:46.001Z</time></trkpt><trkpt lat="-18.870014619242937" lon="121.76840572973963"><ele>33.0</ele><time>2026-04-24T04:28:47.001Z</time></trkpt><trkpt lat="-18.869728205016795" lon="121.76853344162053"><ele>33.0</ele><time>2026-04-24T04:28:48.001Z</time></trkpt><trkpt lat="-18.869445257776967" lon="121.76866153919886"><ele>32.5</ele><time>2026-04-24T04:28:49.001Z</time></trkpt><trkpt lat="-18.86915943144946" lon="121.76879190765953"><ele>32.0</ele><time>2026-04-24T04:28:50.001Z</time></trkpt><trkpt lat="-18.868873569306952" lon="121.76892817694072"><ele>32.0</ele><time>2026-04-24T04:28:51.001Z</time></trkpt><trkpt lat="-18.868590691656685" lon="121.76906990847928"><ele>32.0</ele><time>2026-04-24T04:28:52.001Z</time></trkpt><trkpt lat="-18.86831315257325" lon="121.76921393890531"><ele>31.5</ele><time>2026-04-24T04:28:53.001Z</time></trkpt><trkpt lat="-18.86803999131108" lon="121.76936334305762"><ele>31.0</ele><time>2026-04-24T04:28:54.001Z</time></trkpt><trkpt lat="-18.86777601343803" lon="121.76951759528207"><ele>30.5</ele><time>2026-04-24T04:28:55.001Z</time></trkpt><trkpt lat="-18.86751518345302" lon="121.76967347311233"><ele>30.0</ele><time>2026-04-24T04:28:56Z</time></trkpt><trkpt lat="-18.867254789542816" lon="121.76983651677858"><ele>30.0</ele><time>2026-04-24T04:28:57Z</time></trkpt><trkpt lat="-18.866995597914055" lon="121.77000274597698"><ele>30.0</ele><time>2026-04-24T04:28:58Z</time></trkpt><trkpt lat="-18.8667367334468" lon="121.7701688943842"><ele>29.5</ele><time>2026-04-24T04:28:59Z</time></trkpt><trkpt lat="-18.866477554902335" lon="121.77033943613715"><ele>29.0</ele><time>2026-04-24T04:29:00Z</time></trkpt><trkpt lat="-18.866222462442533" lon="121.77050777657848"><ele>29.0</ele><time>2026-04-24T04:29:01Z</time></trkpt><trkpt lat="-18.865965334472964" lon="121.77067555478388"><ele>29.0</ele><time>2026-04-24T04:29:02Z</time></trkpt><trkpt lat="-18.865710110482556" lon="121.77083855301957"><ele>29.5</ele><time>2026-04-24T04:29:03Z</time></trkpt><trkpt lat="-18.86545368543717" lon="121.77099735641355"><ele>30.0</ele><time>2026-04-24T04:29:04Z</time></trkpt><trkpt lat="-18.86520241490148" lon="121.77115374318292"><ele>30.5</ele><time>2026-04-24T04:29:05Z</time></trkpt><trkpt lat="-18.864953498800137" lon="121.7713104668861"><ele>31.0</ele><time>2026-04-24T04:29:06Z</time></trkpt><trkpt lat="-18.864707130055336" lon="121.77146875055071"><ele>31.0</ele><time>2026-04-24T04:29:07Z</time></trkpt><trkpt lat="-18.864462957797684" lon="121.77162412612805"><ele>31.0</ele><time>2026-04-24T04:29:08Z</time></trkpt><trkpt lat="-18.8642172501862" lon="121.77177919913427"><ele>30.0</ele><time>2026-04-24T04:29:09Z</time></trkpt><trkpt lat="-18.863970951695073" lon="121.77193497107159"><ele>29.0</ele><time>2026-04-24T04:29:10Z</time></trkpt><trkpt lat="-18.863725296360354" lon="121.77209350544908"><ele>29.0</ele><time>2026-04-24T04:29:11Z</time></trkpt><trkpt lat="-18.863481409423276" lon="121.7722520595988"><ele>29.0</ele><time>2026-04-24T04:29:12Z</time></trkpt><trkpt lat="-18.86323949117367" lon="121.77240936762092"><ele>29.0</ele><time>2026-04-24T04:29:13Z</time></trkpt><trkpt lat="-18.86299492272325" lon="121.77256766695156"><ele>29.0</ele><time>2026-04-24T04:29:14Z</time></trkpt><trkpt lat="-18.86275136172307" lon="121.77272632801962"><ele>29.5</ele><time>2026-04-24T04:29:15Z</time></trkpt><trkpt lat="-18.862504097043974" lon="121.77288704539514"><ele>30.0</ele><time>2026-04-24T04:29:16Z</time></trkpt><trkpt lat="-18.86225386807503" lon="121.77304972645251"><ele>30.0</ele><time>2026-04-24T04:29:17Z</time></trkpt><trkpt lat="-18.862007439696182" lon="121.7732094330434"><ele>30.0</ele><time>2026-04-24T04:29:18Z</time></trkpt><trkpt lat="-18.861761782940444" lon="121.77336636483719"><ele>30.0</ele><time>2026-04-24T04:29:19Z</time></trkpt><trkpt lat="-18.86151477965143" lon="121.77352090272363"><ele>30.0</ele><time>2026-04-24T04:29:20Z</time></trkpt><trkpt lat="-18.861269133388728" lon="121.77367471047047"><ele>30.0</ele><time>2026-04-24T04:29:21Z</time></trkpt><trkpt lat="-18.861023255099575" lon="121.77382930761532"><ele>30.0</ele><time>2026-04-24T04:29:22Z</time></trkpt><trkpt lat="-18.860775286969417" lon="121.7739900856268"><ele>29.0</ele><time>2026-04-24T04:29:23Z</time></trkpt><trkpt lat="-18.860524763783445" lon="121.77415180489024"><ele>28.0</ele><time>2026-04-24T04:29:24Z</time></trkpt><trkpt lat="-18.860273033480695" lon="121.77431631397313"><ele>29.0</ele><time>2026-04-24T04:29:25Z</time></trkpt><trkpt lat="-18.860020091500875" lon="121.77448073630146"><ele>30.0</ele><time>2026-04-24T04:29:26Z</time></trkpt><trkpt lat="-18.85976849729102" lon="121.77464370987695"><ele>30.0</ele><time>2026-04-24T04:29:27Z</time></trkpt><trkpt lat="-18.85951273607088" lon="121.77480825172644"><ele>30.0</ele><time>2026-04-24T04:29:28Z</time></trkpt><trkpt lat="-18.859254922009583" lon="121.77497395707391"><ele>28.5</ele><time>2026-04-24T04:29:29Z</time></trkpt><trkpt lat="-18.858998340632375" lon="121.77513500369304"><ele>27.0</ele><time>2026-04-24T04:29:30Z</time></trkpt><trkpt lat="-18.858742723774373" lon="121.77529786458506"><ele>27.0</ele><time>2026-04-24T04:29:31Z</time></trkpt><trkpt lat="-18.858489406307072" lon="121.77545999589576"><ele>27.0</ele><time>2026-04-24T04:29:32Z</time></trkpt><trkpt lat="-18.858232066064453" lon="121.77562270815856"><ele>27.0</ele><time>2026-04-24T04:29:33Z</time></trkpt><trkpt lat="-18.857973238176964" lon="121.77578661042647"><ele>27.0</ele><time>2026-04-24T04:29:34Z</time></trkpt><trkpt lat="-18.85772765604095" lon="121.77594240965531"><ele>27.0</ele><time>2026-04-24T04:29:35Z</time></trkpt><trkpt lat="-18.857490373245792" lon="121.77609380208689"><ele>27.0</ele><time>2026-04-24T04:29:36Z</time></trkpt><trkpt lat="-18.857253909510515" lon="121.77624896562017"><ele>27.0</ele><time>2026-04-24T04:29:37Z</time></trkpt><trkpt lat="-18.857010694511423" lon="121.7764093070581"><ele>27.0</ele><time>2026-04-24T04:29:38Z</time></trkpt><trkpt lat="-18.856762789476065" lon="121.77657181534447"><ele>27.0</ele><time>2026-04-24T04:29:39Z</time></trkpt><trkpt lat="-18.856510992903942" lon="121.77673528897692"><ele>27.0</ele><time>2026-04-24T04:29:40Z</time></trkpt><trkpt lat="-18.85625862010035" lon="121.77689705985321"><ele>27.0</ele><time>2026-04-24T04:29:41Z</time></trkpt><trkpt lat="-18.856002478085653" lon="121.77705820315236"><ele>27.0</ele><time>2026-04-24T04:29:42Z</time></trkpt><trkpt lat="-18.85574386247089" lon="121.77722070639929"><ele>26.5</ele><time>2026-04-24T04:29:43Z</time></trkpt><trkpt lat="-18.85548566168637" lon="121.7773850413021"><ele>26.0</ele><time>2026-04-24T04:29:44Z</time></trkpt><trkpt lat="-18.855227968455413" lon="121.77754926498906"><ele>26.5</ele><time>2026-04-24T04:29:45Z</time></trkpt><trkpt lat="-18.85497104066208" lon="121.77771541489336"><ele>27.0</ele><time>2026-04-24T04:29:46Z</time></trkpt><trkpt lat="-18.85471614164591" lon="121.77787943417151"><ele>27.0</ele><time>2026-04-24T04:29:47Z</time></trkpt><trkpt lat="-18.854460480826784" lon="121.7780437170341"><ele>27.0</ele><time>2026-04-24T04:29:48Z</time></trkpt><trkpt lat="-18.854203802675887" lon="121.77820850205498"><ele>26.0</ele><time>2026-04-24T04:29:49Z</time></trkpt><trkpt lat="-18.853950587962924" lon="121.77837404741005"><ele>25.0</ele><time>2026-04-24T04:29:50Z</time></trkpt><trkpt lat="-18.853699200437568" lon="121.7785383859353"><ele>25.5</ele><time>2026-04-24T04:29:51Z</time></trkpt><trkpt lat="-18.853447624214592" lon="121.77869944973428"><ele>26.0</ele><time>2026-04-24T04:29:52Z</time></trkpt><trkpt lat="-18.85319330246411" lon="121.77885961389998"><ele>26.0</ele><time>2026-04-24T04:29:53Z</time></trkpt><trkpt lat="-18.85293669521392" lon="121.77902192950805"><ele>26.0</ele><time>2026-04-24T04:29:54Z</time></trkpt><trkpt lat="-18.852678405332554" lon="121.77918718521023"><ele>26.0</ele><time>2026-04-24T04:29:55Z</time></trkpt><trkpt lat="-18.852416928337057" lon="121.77935406727354"><ele>26.0</ele><time>2026-04-24T04:29:56Z</time></trkpt><trkpt lat="-18.85215628929165" lon="121.77952154571736"><ele>26.0</ele><time>2026-04-24T04:29:57Z</time></trkpt><trkpt lat="-18.85189565847394" lon="121.77969147738754"><ele>26.0</ele><time>2026-04-24T04:29:58Z</time></trkpt><trkpt lat="-18.851635402571258" lon="121.77986019370202"><ele>26.0</ele><time>2026-04-24T04:29:59Z</time></trkpt><trkpt lat="-18.851371727023334" lon="121.78002796393311"><ele>26.0</ele><time>2026-04-24T04:30:00Z</time></trkpt><trkpt lat="-18.851108270865886" lon="121.7801943454273"><ele>24.5</ele><time>2026-04-24T04:30:01Z</time></trkpt><trkpt lat="-18.850845564317147" lon="121.78036169237008"><ele>23.0</ele><time>2026-04-24T04:30:02Z</time></trkpt><trkpt lat="-18.85058614162394" lon="121.78052824162177"><ele>23.0</ele><time>2026-04-24T04:30:03Z</time></trkpt><trkpt lat="-18.850323039477182" lon="121.7806959823264"><ele>23.0</ele><time>2026-04-24T04:30:04Z</time></trkpt><trkpt lat="-18.850060577449486" lon="121.78086417662914"><ele>23.5</ele><time>2026-04-24T04:30:05Z</time></trkpt><trkpt lat="-18.84980140563159" lon="121.78103182211815"><ele>24.0</ele><time>2026-04-24T04:30:06Z</time></trkpt><trkpt lat="-18.84954472497847" lon="121.78119884104889"><ele>23.5</ele><time>2026-04-24T04:30:07Z</time></trkpt><trkpt lat="-18.849286576784543" lon="121.78136444753433"><ele>23.0</ele><time>2026-04-24T04:30:08Z</time></trkpt><trkpt lat="-18.849028493852547" lon="121.78152773446176"><ele>23.0</ele><time>2026-04-24T04:30:09Z</time></trkpt><trkpt lat="-18.84876805019594" lon="121.78169145022052"><ele>23.0</ele><time>2026-04-24T04:30:10Z</time></trkpt><trkpt lat="-18.848510227335755" lon="121.78185553021065"><ele>23.0</ele><time>2026-04-24T04:30:11Z</time></trkpt><trkpt lat="-18.848249593285708" lon="121.78202261287817"><ele>23.0</ele><time>2026-04-24T04:30:12Z</time></trkpt><trkpt lat="-18.847988059827635" lon="121.78219037147082"><ele>23.0</ele><time>2026-04-24T04:30:13Z</time></trkpt><trkpt lat="-18.84772416304294" lon="121.78235731860478"><ele>23.0</ele><time>2026-04-24T04:30:14Z</time></trkpt><trkpt lat="-18.84746325874832" lon="121.78252518718904"><ele>23.5</ele><time>2026-04-24T04:30:15Z</time></trkpt><trkpt lat="-18.847199916460475" lon="121.78269502656084"><ele>24.0</ele><time>2026-04-24T04:30:16Z</time></trkpt><trkpt lat="-18.84693938157272" lon="121.78285990652596"><ele>24.5</ele><time>2026-04-24T04:30:17Z</time></trkpt><trkpt lat="-18.846678278464715" lon="121.78302666592234"><ele>25.0</ele><time>2026-04-24T04:30:18Z</time></trkpt><trkpt lat="-18.846421210669256" lon="121.78319227327177"><ele>25.0</ele><time>2026-04-24T04:30:19Z</time></trkpt><trkpt lat="-18.846160547630866" lon="121.78336299617666"><ele>25.0</ele><time>2026-04-24T04:30:20Z</time></trkpt><trkpt lat="-18.845898410883485" lon="121.78353199294465"><ele>25.0</ele><time>2026-04-24T04:30:21Z</time></trkpt><trkpt lat="-18.845635333039063" lon="121.78370418875808"><ele>25.0</ele><time>2026-04-24T04:30:22Z</time></trkpt><trkpt lat="-18.845372679515425" lon="121.78387688269379"><ele>24.5</ele><time>2026-04-24T04:30:23.001Z</time></trkpt><trkpt lat="-18.845108451318648" lon="121.78404707251921"><ele>24.0</ele><time>2026-04-24T04:30:24.001Z</time></trkpt><trkpt lat="-18.84484623220757" lon="121.78421651904947"><ele>23.0</ele><time>2026-04-24T04:30:25.001Z</time></trkpt><trkpt lat="-18.844582376335243" lon="121.78438520632581"><ele>22.0</ele><time>2026-04-24T04:30:26.001Z</time></trkpt><trkpt lat="-18.844318139356044" lon="121.7845531729597"><ele>23.0</ele><time>2026-04-24T04:30:27.001Z</time></trkpt><trkpt lat="-18.84405448231509" lon="121.78472120851681"><ele>24.0</ele><time>2026-04-24T04:30:28.001Z</time></trkpt><trkpt lat="-18.843791275020404" lon="121.78488850393734"><ele>24.0</ele><time>2026-04-24T04:30:29.001Z</time></trkpt><trkpt lat="-18.84352540143885" lon="121.78505753606501"><ele>24.0</ele><time>2026-04-24T04:30:30.001Z</time></trkpt><trkpt lat="-18.843260450434574" lon="121.785225087735"><ele>24.0</ele><time>2026-04-24T04:30:31.001Z</time></trkpt><trkpt lat="-18.842994639678437" lon="121.78539468291886"><ele>24.0</ele><time>2026-04-24T04:30:32.001Z</time></trkpt><trkpt lat="-18.84272771849622" lon="121.78556320105326"><ele>24.5</ele><time>2026-04-24T04:30:33.001Z</time></trkpt><trkpt lat="-18.84246569288245" lon="121.78573046288973"><ele>25.0</ele><time>2026-04-24T04:30:34.001Z</time></trkpt><trkpt lat="-18.84220462465152" lon="121.78589838044785"><ele>25.0</ele><time>2026-04-24T04:30:35.001Z</time></trkpt><trkpt lat="-18.841952032546814" lon="121.78606241545366"><ele>25.0</ele><time>2026-04-24T04:30:36.001Z</time></trkpt><trkpt lat="-18.841716666638565" lon="121.78621774497726"><ele>24.0</ele><time>2026-04-24T04:30:37.001Z</time></trkpt><trkpt lat="-18.841478978830448" lon="121.78637260550592"><ele>23.0</ele><time>2026-04-24T04:30:38.001Z</time></trkpt><trkpt lat="-18.841231424561645" lon="121.78653249491462"><ele>23.0</ele><time>2026-04-24T04:30:39.001Z</time></trkpt><trkpt lat="-18.840982795043082" lon="121.78669141695563"><ele>23.0</ele><time>2026-04-24T04:30:40.001Z</time></trkpt><trkpt lat="-18.84073554531506" lon="121.78684843915273"><ele>23.5</ele><time>2026-04-24T04:30:41.001Z</time></trkpt><trkpt lat="-18.840488372995125" lon="121.78700603946592"><ele>24.0</ele><time>2026-04-24T04:30:42.001Z</time></trkpt><trkpt lat="-18.84023546964626" lon="121.78716477213979"><ele>24.0</ele><time>2026-04-24T04:30:43.001Z</time></trkpt><trkpt lat="-18.839980470965312" lon="121.78732359277419"><ele>24.0</ele><time>2026-04-24T04:30:44.001Z</time></trkpt><trkpt lat="-18.83972148927191" lon="121.78748571940469"><ele>24.0</ele><time>2026-04-24T04:30:45.001Z</time></trkpt><trkpt lat="-18.839462659058" lon="121.78765075148983"><ele>24.0</ele><time>2026-04-24T04:30:46.001Z</time></trkpt><trkpt lat="-18.839203541027157" lon="121.78781836607033"><ele>23.5</ele><time>2026-04-24T04:30:47.001Z</time></trkpt><trkpt lat="-18.838945902222633" lon="121.78798558154321"><ele>23.0</ele><time>2026-04-24T04:30:48.001Z</time></trkpt><trkpt lat="-18.838689485090754" lon="121.78815025156113"><ele>23.5</ele><time>2026-04-24T04:30:49.001Z</time></trkpt><trkpt lat="-18.838431304031864" lon="121.78831745086914"><ele>24.0</ele><time>2026-04-24T04:30:50.001Z</time></trkpt><trkpt lat="-18.838174761264952" lon="121.78848420966798"><ele>24.5</ele><time>2026-04-24T04:30:51.001Z</time></trkpt><trkpt lat="-18.83791974083793" lon="121.78865627170087"><ele>25.0</ele><time>2026-04-24T04:30:52.001Z</time></trkpt><trkpt lat="-18.837667457945845" lon="121.7888339329059"><ele>25.0</ele><time>2026-04-24T04:30:53.001Z</time></trkpt><trkpt lat="-18.83741481907421" lon="121.78901730845926"><ele>25.0</ele><time>2026-04-24T04:30:54.001Z</time></trkpt><trkpt lat="-18.83716270875505" lon="121.78920550473185"><ele>25.0</ele><time>2026-04-24T04:30:55.001Z</time></trkpt><trkpt lat="-18.836910902661064" lon="121.78939967013515"><ele>25.0</ele><time>2026-04-24T04:30:56.001Z</time></trkpt><trkpt lat="-18.83666184076891" lon="121.78959391854468"><ele>25.0</ele><time>2026-04-24T04:30:57.001Z</time></trkpt><trkpt lat="-18.83641231892553" lon="121.78978797151969"><ele>25.0</ele><time>2026-04-24T04:30:58.001Z</time></trkpt><trkpt lat="-18.836162008821717" lon="121.78998157700087"><ele>26.0</ele><time>2026-04-24T04:30:59.001Z</time></trkpt><trkpt lat="-18.835915687875" lon="121.79018166124366"><ele>27.0</ele><time>2026-04-24T04:31:00.001Z</time></trkpt><trkpt lat="-18.835668867902935" lon="121.7903837163751"><ele>27.0</ele><time>2026-04-24T04:31:01.001Z</time></trkpt><trkpt lat="-18.835421553494715" lon="121.79058676122493"><ele>27.0</ele><time>2026-04-24T04:31:02Z</time></trkpt><trkpt lat="-18.83516923064133" lon="121.79078736543339"><ele>27.0</ele><time>2026-04-24T04:31:03Z</time></trkpt><trkpt lat="-18.834917628797797" lon="121.79098568780572"><ele>27.0</ele><time>2026-04-24T04:31:04Z</time></trkpt><trkpt lat="-18.834661363833483" lon="121.79118582945709"><ele>27.0</ele><time>2026-04-24T04:31:05Z</time></trkpt><trkpt lat="-18.834409002586497" lon="121.79139058434966"><ele>27.0</ele><time>2026-04-24T04:31:06Z</time></trkpt><trkpt lat="-18.83415232140974" lon="121.79159487222377"><ele>27.5</ele><time>2026-04-24T04:31:07Z</time></trkpt><trkpt lat="-18.833899257636066" lon="121.79179491565353"><ele>28.0</ele><time>2026-04-24T04:31:08Z</time></trkpt><trkpt lat="-18.833647643071856" lon="121.7919970590022"><ele>27.5</ele><time>2026-04-24T04:31:09Z</time></trkpt><trkpt lat="-18.833399347153485" lon="121.79220072172183"><ele>27.0</ele><time>2026-04-24T04:31:10Z</time></trkpt><trkpt lat="-18.83316335469067" lon="121.79239582037108"><ele>27.0</ele><time>2026-04-24T04:31:11Z</time></trkpt><trkpt lat="-18.832940638624812" lon="121.792583193684"><ele>27.0</ele><time>2026-04-24T04:31:12Z</time></trkpt><trkpt lat="-18.83271567177143" lon="121.79276986765586"><ele>28.5</ele><time>2026-04-24T04:31:13Z</time></trkpt><trkpt lat="-18.83248506931111" lon="121.7929566988291"><ele>30.0</ele><time>2026-04-24T04:31:14Z</time></trkpt><trkpt lat="-18.832252504040614" lon="121.79314250268956"><ele>30.0</ele><time>2026-04-24T04:31:15Z</time></trkpt><trkpt lat="-18.832017664825948" lon="121.7933311884873"><ele>30.0</ele><time>2026-04-24T04:31:16Z</time></trkpt><trkpt lat="-18.83178277726418" lon="121.79352313418617"><ele>30.5</ele><time>2026-04-24T04:31:17Z</time></trkpt><trkpt lat="-18.831547691797905" lon="121.79371459210402"><ele>31.0</ele><time>2026-04-24T04:31:18Z</time></trkpt><trkpt lat="-18.83132837152798" lon="121.79389362002138"><ele>31.0</ele><time>2026-04-24T04:31:19Z</time></trkpt><trkpt lat="-18.831117057103466" lon="121.79406257518697"><ele>31.0</ele><time>2026-04-24T04:31:20Z</time></trkpt><trkpt lat="-18.830904783361827" lon="121.79423237839812"><ele>30.5</ele><time>2026-04-24T04:31:21Z</time></trkpt><trkpt lat="-18.83068789344796" lon="121.79440729536587"><ele>30.0</ele><time>2026-04-24T04:31:22Z</time></trkpt><trkpt lat="-18.830468042287762" lon="121.79458504213974"><ele>30.0</ele><time>2026-04-24T04:31:23Z</time></trkpt><trkpt lat="-18.830242998402802" lon="121.79476686579062"><ele>30.0</ele><time>2026-04-24T04:31:24Z</time></trkpt><trkpt lat="-18.830012753300064" lon="121.79495239596498"><ele>30.5</ele><time>2026-04-24T04:31:25Z</time></trkpt><trkpt lat="-18.829779409753" lon="121.79514316460237"><ele>31.0</ele><time>2026-04-24T04:31:26Z</time></trkpt><trkpt lat="-18.829540945118257" lon="121.79533507440176"><ele>31.0</ele><time>2026-04-24T04:31:27Z</time></trkpt><trkpt lat="-18.82929964691533" lon="121.79553034231813"><ele>31.0</ele><time>2026-04-24T04:31:28Z</time></trkpt><trkpt lat="-18.829057715133953" lon="121.79572720259362"><ele>31.0</ele><time>2026-04-24T04:31:29Z</time></trkpt><trkpt lat="-18.82882035052382" lon="121.79591678501968"><ele>31.0</ele><time>2026-04-24T04:31:30Z</time></trkpt><trkpt lat="-18.82858070494771" lon="121.79610642919116"><ele>32.0</ele><time>2026-04-24T04:31:31Z</time></trkpt><trkpt lat="-18.82834345294859" lon="121.796295290886"><ele>33.0</ele><time>2026-04-24T04:31:32Z</time></trkpt><trkpt lat="-18.8281073170038" lon="121.79648609500079"><ele>33.0</ele><time>2026-04-24T04:31:33Z</time></trkpt><trkpt lat="-18.82787043959613" lon="121.79668003932042"><ele>33.0</ele><time>2026-04-24T04:31:34Z</time></trkpt><trkpt lat="-18.827635528156954" lon="121.79687514113756"><ele>33.5</ele><time>2026-04-24T04:31:35Z</time></trkpt><trkpt lat="-18.827398402662872" lon="121.79707266837205"><ele>34.0</ele><time>2026-04-24T04:31:36Z</time></trkpt><trkpt lat="-18.827153850567218" lon="121.79727568968167"><ele>34.0</ele><time>2026-04-24T04:31:37Z</time></trkpt><trkpt lat="-18.826908482056485" lon="121.79748059134444"><ele>34.0</ele><time>2026-04-24T04:31:38Z</time></trkpt><trkpt lat="-18.82666160588225" lon="121.79768837271752"><ele>34.0</ele><time>2026-04-24T04:31:39Z</time></trkpt><trkpt lat="-18.82641207895639" lon="121.79789469037216"><ele>34.0</ele><time>2026-04-24T04:31:40Z</time></trkpt><trkpt lat="-18.826160191322494" lon="121.79808767799226"><ele>34.0</ele><time>2026-04-24T04:31:41Z</time></trkpt><trkpt lat="-18.82590420476266" lon="121.79827696876701"><ele>34.0</ele><time>2026-04-24T04:31:42Z</time></trkpt><trkpt lat="-18.825650376040677" lon="121.79847081098059"><ele>34.5</ele><time>2026-04-24T04:31:43Z</time></trkpt><trkpt lat="-18.82540239805099" lon="121.7986691974976"><ele>35.0</ele><time>2026-04-24T04:31:44Z</time></trkpt><trkpt lat="-18.825152901333226" lon="121.79887189490948"><ele>35.0</ele><time>2026-04-24T04:31:45Z</time></trkpt><trkpt lat="-18.82490590554574" lon="121.79907623184421"><ele>35.0</ele><time>2026-04-24T04:31:46Z</time></trkpt><trkpt lat="-18.8246592023423" lon="121.79928148672482"><ele>36.0</ele><time>2026-04-24T04:31:47Z</time></trkpt><trkpt lat="-18.824415564855798" lon="121.79948355850293"><ele>37.0</ele><time>2026-04-24T04:31:48Z</time></trkpt><trkpt lat="-18.824171347166796" lon="121.79968376762147"><ele>37.0</ele><time>2026-04-24T04:31:49Z</time></trkpt><trkpt lat="-18.82392491028918" lon="121.79987760787876"><ele>37.0</ele><time>2026-04-24T04:31:50Z</time></trkpt><trkpt lat="-18.82367734037248" lon="121.80007090274134"><ele>37.0</ele><time>2026-04-24T04:31:51Z</time></trkpt><trkpt lat="-18.82343313499681" lon="121.80026648256914"><ele>37.0</ele><time>2026-04-24T04:31:52Z</time></trkpt><trkpt lat="-18.823193310679965" lon="121.8004640124976"><ele>37.0</ele><time>2026-04-24T04:31:53Z</time></trkpt><trkpt lat="-18.822957244586327" lon="121.80065990129908"><ele>37.0</ele><time>2026-04-24T04:31:54Z</time></trkpt><trkpt lat="-18.822718321201823" lon="121.8008545004734"><ele>37.5</ele><time>2026-04-24T04:31:55Z</time></trkpt><trkpt lat="-18.822480560583326" lon="121.80104703684525"><ele>38.0</ele><time>2026-04-24T04:31:56Z</time></trkpt><trkpt lat="-18.822242418625123" lon="121.80123868180962"><ele>38.0</ele><time>2026-04-24T04:31:57Z</time></trkpt><trkpt lat="-18.822003657515737" lon="121.80143040221988"><ele>38.0</ele><time>2026-04-24T04:31:58Z</time></trkpt><trkpt lat="-18.821765969322577" lon="121.80162046915319"><ele>38.5</ele><time>2026-04-24T04:31:59Z</time></trkpt><trkpt lat="-18.821529265782946" lon="121.80181251376062"><ele>39.0</ele><time>2026-04-24T04:32:00Z</time></trkpt><trkpt lat="-18.82128994281519" lon="121.80200837249502"><ele>39.5</ele><time>2026-04-24T04:32:01Z</time></trkpt><trkpt lat="-18.821050025098543" lon="121.80220318172337"><ele>40.0</ele><time>2026-04-24T04:32:02Z</time></trkpt><trkpt lat="-18.82081000426595" lon="121.80239868350817"><ele>40.0</ele><time>2026-04-24T04:32:03Z</time></trkpt><trkpt lat="-18.82056940558339" lon="121.80259658578618"><ele>40.0</ele><time>2026-04-24T04:32:04Z</time></trkpt><trkpt lat="-18.820326660681477" lon="121.80279149355941"><ele>39.5</ele><time>2026-04-24T04:32:05Z</time></trkpt><trkpt lat="-18.8200816199893" lon="121.80298623280322"><ele>39.0</ele><time>2026-04-24T04:32:06Z</time></trkpt><trkpt lat="-18.8198378142831" lon="121.80318216247804"><ele>39.0</ele><time>2026-04-24T04:32:07Z</time></trkpt><trkpt lat="-18.81959478301406" lon="121.80337945374005"><ele>39.0</ele><time>2026-04-24T04:32:08Z</time></trkpt><trkpt lat="-18.81934934258965" lon="121.8035791937721"><ele>38.0</ele><time>2026-04-24T04:32:09Z</time></trkpt><trkpt lat="-18.819091704726834" lon="121.80376179054988"><ele>37.0</ele><time>2026-04-24T04:32:10Z</time></trkpt><trkpt lat="-18.818844928279372" lon="121.80396111936878"><ele>37.0</ele><time>2026-04-24T04:32:11Z</time></trkpt><trkpt lat="-18.818599714583385" lon="121.80415899851963"><ele>37.0</ele><time>2026-04-24T04:32:12Z</time></trkpt><trkpt lat="-18.818351794122954" lon="121.8043592065784"><ele>37.5</ele><time>2026-04-24T04:32:13Z</time></trkpt><trkpt lat="-18.818105024033233" lon="121.80455949676761"><ele>38.0</ele><time>2026-04-24T04:32:14Z</time></trkpt><trkpt lat="-18.817865049023634" lon="121.80477501123006"><ele>37.5</ele><time>2026-04-24T04:32:15Z</time></trkpt><trkpt lat="-18.817615804830336" lon="121.80497455395266"><ele>37.0</ele><time>2026-04-24T04:32:16Z</time></trkpt><trkpt lat="-18.817366412286503" lon="121.80517461644865"><ele>37.0</ele><time>2026-04-24T04:32:17Z</time></trkpt><trkpt lat="-18.81711891818756" lon="121.80537604437639"><ele>37.0</ele><time>2026-04-24T04:32:18Z</time></trkpt><trkpt lat="-18.81687106695701" lon="121.8055775091485"><ele>36.5</ele><time>2026-04-24T04:32:19Z</time></trkpt><trkpt lat="-18.81662495992868" lon="121.80577670651984"><ele>36.0</ele><time>2026-04-24T04:32:20Z</time></trkpt><trkpt lat="-18.816374478665715" lon="121.8059760738772"><ele>36.0</ele><time>2026-04-24T04:32:21Z</time></trkpt><trkpt lat="-18.816126630087773" lon="121.80617507496356"><ele>36.0</ele><time>2026-04-24T04:32:22Z</time></trkpt><trkpt lat="-18.81587908977164" lon="121.80637631914857"><ele>35.5</ele><time>2026-04-24T04:32:23Z</time></trkpt><trkpt lat="-18.81563022981688" lon="121.80657648637224"><ele>35.0</ele><time>2026-04-24T04:32:24Z</time></trkpt><trkpt lat="-18.815382599264773" lon="121.80677487478253"><ele>35.0</ele><time>2026-04-24T04:32:25Z</time></trkpt><trkpt lat="-18.815136901676915" lon="121.80697503085746"><ele>35.0</ele><time>2026-04-24T04:32:26Z</time></trkpt><trkpt lat="-18.814883833848405" lon="121.80716378535415"><ele>35.0</ele><time>2026-04-24T04:32:27Z</time></trkpt><trkpt lat="-18.814639143509396" lon="121.80736065326325"><ele>35.0</ele><time>2026-04-24T04:32:28Z</time></trkpt><trkpt lat="-18.81439485229691" lon="121.80755765901903"><ele>34.5</ele><time>2026-04-24T04:32:29Z</time></trkpt><trkpt lat="-18.814151964331263" lon="121.80775339335467"><ele>34.0</ele><time>2026-04-24T04:32:30Z</time></trkpt><trkpt lat="-18.813909105216318" lon="121.80794851045005"><ele>34.0</ele><time>2026-04-24T04:32:31Z</time></trkpt><trkpt lat="-18.813665734115514" lon="121.80814367266679"><ele>34.0</ele><time>2026-04-24T04:32:32Z</time></trkpt><trkpt lat="-18.81342262824722" lon="121.80834094270142"><ele>33.0</ele><time>2026-04-24T04:32:33Z</time></trkpt><trkpt lat="-18.81318863715991" lon="121.8085514172202"><ele>32.0</ele><time>2026-04-24T04:32:34Z</time></trkpt><trkpt lat="-18.81294237252467" lon="121.8087483678246"><ele>32.0</ele><time>2026-04-24T04:32:35Z</time></trkpt><trkpt lat="-18.812697103427052" lon="121.80894606580587"><ele>32.0</ele><time>2026-04-24T04:32:36Z</time></trkpt><trkpt lat="-18.812453791599868" lon="121.80914262223965"><ele>31.0</ele><time>2026-04-24T04:32:37Z</time></trkpt><trkpt lat="-18.81220996365853" lon="121.80933944543887"><ele>30.0</ele><time>2026-04-24T04:32:38Z</time></trkpt><trkpt lat="-18.811963137249272" lon="121.8095392568647"><ele>30.0</ele><time>2026-04-24T04:32:39Z</time></trkpt><trkpt lat="-18.811715356512387" lon="121.8097386450666"><ele>30.0</ele><time>2026-04-24T04:32:40Z</time></trkpt><trkpt lat="-18.81146878061222" lon="121.80993591212854"><ele>30.0</ele><time>2026-04-24T04:32:41Z</time></trkpt><trkpt lat="-18.81121969593373" lon="121.81013389678311"><ele>30.0</ele><time>2026-04-24T04:32:42Z</time></trkpt><trkpt lat="-18.810972512440134" lon="121.81033331272036"><ele>31.0</ele><time>2026-04-24T04:32:43Z</time></trkpt><trkpt lat="-18.810726735372537" lon="121.81053340773055"><ele>32.0</ele><time>2026-04-24T04:32:44Z</time></trkpt><trkpt lat="-18.8104814449245" lon="121.81073290591027"><ele>32.0</ele><time>2026-04-24T04:32:45Z</time></trkpt><trkpt lat="-18.810238927594586" lon="121.81093280902398"><ele>32.0</ele><time>2026-04-24T04:32:46Z</time></trkpt><trkpt lat="-18.80999689098294" lon="121.81113258377262"><ele>30.5</ele><time>2026-04-24T04:32:47Z</time></trkpt><trkpt lat="-18.809753359837988" lon="121.81133060219358"><ele>29.0</ele><time>2026-04-24T04:32:48Z</time></trkpt><trkpt lat="-18.809506788890133" lon="121.81152742795912"><ele>29.0</ele><time>2026-04-24T04:32:49Z</time></trkpt><trkpt lat="-18.809260514559444" lon="121.81172350609488"><ele>29.0</ele><time>2026-04-24T04:32:50Z</time></trkpt><trkpt lat="-18.8090199823341" lon="121.81191972721601"><ele>29.0</ele><time>2026-04-24T04:32:51Z</time></trkpt><trkpt lat="-18.808779699768184" lon="121.81211434008407"><ele>29.0</ele><time>2026-04-24T04:32:52Z</time></trkpt><trkpt lat="-18.80853988415496" lon="121.81230908945953"><ele>29.5</ele><time>2026-04-24T04:32:53Z</time></trkpt><trkpt lat="-18.80828727903445" lon="121.81248795172252"><ele>30.0</ele><time>2026-04-24T04:32:54Z</time></trkpt><trkpt lat="-18.80804009060629" lon="121.81267748440334"><ele>29.0</ele><time>2026-04-24T04:32:55Z</time></trkpt><trkpt lat="-18.80779087243505" lon="121.81286272300905"><ele>28.0</ele><time>2026-04-24T04:32:56Z</time></trkpt><trkpt lat="-18.80753932149677" lon="121.81304157325465"><ele>28.0</ele><time>2026-04-24T04:32:57Z</time></trkpt><trkpt lat="-18.807284819326078" lon="121.81321613412585"><ele>28.0</ele><time>2026-04-24T04:32:58Z</time></trkpt><trkpt lat="-18.8070301068159" lon="121.81338351637464"><ele>27.5</ele><time>2026-04-24T04:32:59Z</time></trkpt><trkpt lat="-18.80677149949901" lon="121.81354619049657"><ele>27.0</ele><time>2026-04-24T04:33:00Z</time></trkpt><trkpt lat="-18.806516663934737" lon="121.8137204282505"><ele>27.0</ele><time>2026-04-24T04:33:01Z</time></trkpt><trkpt lat="-18.806250623739196" lon="121.81387643474108"><ele>27.0</ele><time>2026-04-24T04:33:02Z</time></trkpt><trkpt lat="-18.805983232648213" lon="121.81402671245252"><ele>27.0</ele><time>2026-04-24T04:33:03Z</time></trkpt><trkpt lat="-18.805709624770625" lon="121.81416846727572"><ele>27.0</ele><time>2026-04-24T04:33:04Z</time></trkpt><trkpt lat="-18.805435697410182" lon="121.8143063322835"><ele>27.0</ele><time>2026-04-24T04:33:05Z</time></trkpt><trkpt lat="-18.80516148143936" lon="121.81443710205806"><ele>27.0</ele><time>2026-04-24T04:33:06Z</time></trkpt><trkpt lat="-18.804885102660855" lon="121.81456501612871"><ele>27.0</ele><time>2026-04-24T04:33:07Z</time></trkpt><trkpt lat="-18.804611001825208" lon="121.81469020684173"><ele>27.0</ele><time>2026-04-24T04:33:07.999Z</time></trkpt><trkpt lat="-18.804333049789374" lon="121.81481536758531"><ele>27.5</ele><time>2026-04-24T04:33:08.999Z</time></trkpt><trkpt lat="-18.804053517719023" lon="121.81494207374686"><ele>28.0</ele><time>2026-04-24T04:33:09.999Z</time></trkpt><trkpt lat="-18.803774602657118" lon="121.81506863519323"><ele>27.0</ele><time>2026-04-24T04:33:10.999Z</time></trkpt><trkpt lat="-18.803493458159426" lon="121.8151958067997"><ele>26.0</ele><time>2026-04-24T04:33:11.999Z</time></trkpt><trkpt lat="-18.803210748644076" lon="121.81532508122375"><ele>26.0</ele><time>2026-04-24T04:33:12.999Z</time></trkpt><trkpt lat="-18.802927444887306" lon="121.81545310115506"><ele>26.0</ele><time>2026-04-24T04:33:13.999Z</time></trkpt><trkpt lat="-18.80264252299582" lon="121.81558177092039"><ele>25.5</ele><time>2026-04-24T04:33:14.999Z</time></trkpt><trkpt lat="-18.80235509661704" lon="121.81571127611514"><ele>25.0</ele><time>2026-04-24T04:33:15.999Z</time></trkpt><trkpt lat="-18.802069216579397" lon="121.81583908788434"><ele>24.5</ele><time>2026-04-24T04:33:16.999Z</time></trkpt><trkpt lat="-18.8017854458661" lon="121.81596746032075"><ele>24.0</ele><time>2026-04-24T04:33:17.999Z</time></trkpt><trkpt lat="-18.801497252322534" lon="121.81609532308582"><ele>24.0</ele><time>2026-04-24T04:33:18.999Z</time></trkpt><trkpt lat="-18.801209706297225" lon="121.81622173357088"><ele>24.0</ele><time>2026-04-24T04:33:19.999Z</time></trkpt><trkpt lat="-18.800922581885526" lon="121.81634900357133"><ele>23.5</ele><time>2026-04-24T04:33:20.999Z</time></trkpt><trkpt lat="-18.800635736177863" lon="121.81647783380396"><ele>23.0</ele><time>2026-04-24T04:33:21.999Z</time></trkpt><trkpt lat="-18.800349801661774" lon="121.81660726298495"><ele>23.5</ele><time>2026-04-24T04:33:22.999Z</time></trkpt><trkpt lat="-18.800064793649128" lon="121.81673967836248"><ele>24.0</ele><time>2026-04-24T04:33:23.999Z</time></trkpt><trkpt lat="-18.799787318394348" lon="121.81686888119447"><ele>24.0</ele><time>2026-04-24T04:33:25Z</time></trkpt><trkpt lat="-18.799512826527895" lon="121.81699688163752"><ele>24.0</ele><time>2026-04-24T04:33:26Z</time></trkpt><trkpt lat="-18.799236155255898" lon="121.81712309745724"><ele>23.5</ele><time>2026-04-24T04:33:27Z</time></trkpt><trkpt lat="-18.798956719102062" lon="121.81724546759546"><ele>23.0</ele><time>2026-04-24T04:33:28Z</time></trkpt><trkpt lat="-18.798680200310642" lon="121.81736868186465"><ele>24.5</ele><time>2026-04-24T04:33:29Z</time></trkpt><trkpt lat="-18.798402645337394" lon="121.81749137832327"><ele>26.0</ele><time>2026-04-24T04:33:30Z</time></trkpt><trkpt lat="-18.79812479566893" lon="121.8176164798344"><ele>25.0</ele><time>2026-04-24T04:33:31Z</time></trkpt><trkpt lat="-18.797846660068334" lon="121.81774001725393"><ele>24.0</ele><time>2026-04-24T04:33:32Z</time></trkpt><trkpt lat="-18.79756923246521" lon="121.8178642334855"><ele>24.0</ele><time>2026-04-24T04:33:33Z</time></trkpt><trkpt lat="-18.79728970059406" lon="121.81799222166558"><ele>24.0</ele><time>2026-04-24T04:33:34Z</time></trkpt><trkpt lat="-18.797008148188453" lon="121.81812371922217"><ele>24.5</ele><time>2026-04-24T04:33:35Z</time></trkpt><trkpt lat="-18.79672480990149" lon="121.81825681340938"><ele>25.0</ele><time>2026-04-24T04:33:36Z</time></trkpt><trkpt lat="-18.79644622800777" lon="121.81838636159654"><ele>25.0</ele><time>2026-04-24T04:33:37Z</time></trkpt><trkpt lat="-18.796168112597996" lon="121.81851349614378"><ele>25.0</ele><time>2026-04-24T04:33:38Z</time></trkpt><trkpt lat="-18.79588731995089" lon="121.81863983233625"><ele>25.0</ele><time>2026-04-24T04:33:39Z</time></trkpt><trkpt lat="-18.795607776251522" lon="121.81876518678932"><ele>25.0</ele><time>2026-04-24T04:33:40Z</time></trkpt><trkpt lat="-18.795326732093578" lon="121.81889096259171"><ele>25.5</ele><time>2026-04-24T04:33:41Z</time></trkpt><trkpt lat="-18.795045297640616" lon="121.81901869993618"><ele>26.0</ele><time>2026-04-24T04:33:42Z</time></trkpt><trkpt lat="-18.794765781008433" lon="121.81914585929132"><ele>26.0</ele><time>2026-04-24T04:33:43Z</time></trkpt><trkpt lat="-18.794488038534972" lon="121.81927204140578"><ele>26.0</ele><time>2026-04-24T04:33:44Z</time></trkpt><trkpt lat="-18.79421114919146" lon="121.81939701639315"><ele>25.5</ele><time>2026-04-24T04:33:45Z</time></trkpt><trkpt lat="-18.793931990396068" lon="121.81952429589447"><ele>25.0</ele><time>2026-04-24T04:33:46Z</time></trkpt><trkpt lat="-18.793651633792713" lon="121.81965402622559"><ele>26.0</ele><time>2026-04-24T04:33:47Z</time></trkpt><trkpt lat="-18.793370084336704" lon="121.8197839545327"><ele>27.0</ele><time>2026-04-24T04:33:48Z</time></trkpt><trkpt lat="-18.793085561499723" lon="121.8199114484753"><ele>27.0</ele><time>2026-04-24T04:33:49Z</time></trkpt><trkpt lat="-18.792801395906434" lon="121.82003734775732"><ele>27.0</ele><time>2026-04-24T04:33:50Z</time></trkpt><trkpt lat="-18.79251846522631" lon="121.82016282734472"><ele>26.5</ele><time>2026-04-24T04:33:51Z</time></trkpt><trkpt lat="-18.79223579948673" lon="121.82028993733213"><ele>26.0</ele><time>2026-04-24T04:33:52Z</time></trkpt><trkpt lat="-18.79195175454845" lon="121.82041818576073"><ele>26.0</ele><time>2026-04-24T04:33:53Z</time></trkpt><trkpt lat="-18.79166584744823" lon="121.82054416556069"><ele>26.0</ele><time>2026-04-24T04:33:54Z</time></trkpt><trkpt lat="-18.79138131351621" lon="121.82066743509733"><ele>26.0</ele><time>2026-04-24T04:33:55Z</time></trkpt><trkpt lat="-18.791096918141335" lon="121.82079287879971"><ele>26.0</ele><time>2026-04-24T04:33:56Z</time></trkpt><trkpt lat="-18.790816560379564" lon="121.82091796276221"><ele>27.5</ele><time>2026-04-24T04:33:57Z</time></trkpt><trkpt lat="-18.790537781638147" lon="121.8210461483191"><ele>29.0</ele><time>2026-04-24T04:33:58Z</time></trkpt><trkpt lat="-18.790263272510344" lon="121.82117668923259"><ele>29.5</ele><time>2026-04-24T04:33:59Z</time></trkpt><trkpt lat="-18.78999348772008" lon="121.82130573488733"><ele>30.0</ele><time>2026-04-24T04:34:00Z</time></trkpt><trkpt lat="-18.78972300248153" lon="121.82143389284981"><ele>30.0</ele><time>2026-04-24T04:34:01Z</time></trkpt><trkpt lat="-18.789452569488642" lon="121.8215626100777"><ele>30.0</ele><time>2026-04-24T04:34:02Z</time></trkpt><trkpt lat="-18.789174814429515" lon="121.82168822318636"><ele>30.0</ele><time>2026-04-24T04:34:03Z</time></trkpt><trkpt lat="-18.788892338965415" lon="121.82181281424502"><ele>30.0</ele><time>2026-04-24T04:34:04Z</time></trkpt><trkpt lat="-18.78860802521736" lon="121.82193865688099"><ele>30.0</ele><time>2026-04-24T04:34:05Z</time></trkpt><trkpt lat="-18.78832520092994" lon="121.82206412427409"><ele>30.0</ele><time>2026-04-24T04:34:06Z</time></trkpt><trkpt lat="-18.78804377722284" lon="121.82219142702796"><ele>30.0</ele><time>2026-04-24T04:34:07Z</time></trkpt><trkpt lat="-18.787765032679587" lon="121.82232094778058"><ele>30.0</ele><time>2026-04-24T04:34:08Z</time></trkpt><trkpt lat="-18.787481629410046" lon="121.82244890888906"><ele>31.5</ele><time>2026-04-24T04:34:09Z</time></trkpt><trkpt lat="-18.787197950654626" lon="121.82257597814693"><ele>33.0</ele><time>2026-04-24T04:34:10Z</time></trkpt><trkpt lat="-18.786914290104512" lon="121.82270288167484"><ele>32.0</ele><time>2026-04-24T04:34:11Z</time></trkpt><trkpt lat="-18.786631864464724" lon="121.82283030717346"><ele>31.0</ele><time>2026-04-24T04:34:12Z</time></trkpt><trkpt lat="-18.78634931690417" lon="121.82295902250836"><ele>31.0</ele><time>2026-04-24T04:34:13Z</time></trkpt><trkpt lat="-18.78606287830028" lon="121.82309011004624"><ele>31.0</ele><time>2026-04-24T04:34:14Z</time></trkpt><trkpt lat="-18.78577446148849" lon="121.8232210607393"><ele>31.0</ele><time>2026-04-24T04:34:15Z</time></trkpt><trkpt lat="-18.78548651695533" lon="121.82335072762791"><ele>31.0</ele><time>2026-04-24T04:34:16Z</time></trkpt><trkpt lat="-18.78521050566118" lon="121.82347419885905"><ele>31.5</ele><time>2026-04-24T04:34:17Z</time></trkpt><trkpt lat="-18.784953108088096" lon="121.8235908241917"><ele>32.0</ele><time>2026-04-24T04:34:18Z</time></trkpt><trkpt lat="-18.784694158489284" lon="121.82370818378887"><ele>32.0</ele><time>2026-04-24T04:34:19Z</time></trkpt><trkpt lat="-18.78443038185463" lon="121.82382829021198"><ele>32.0</ele><time>2026-04-24T04:34:20Z</time></trkpt><trkpt lat="-18.78416423546248" lon="121.82395278517767"><ele>32.5</ele><time>2026-04-24T04:34:21Z</time></trkpt><trkpt lat="-18.783888584213464" lon="121.82405885588679"><ele>33.0</ele><time>2026-04-24T04:34:22Z</time></trkpt><trkpt lat="-18.783617195094912" lon="121.8241810776019"><ele>33.0</ele><time>2026-04-24T04:34:23Z</time></trkpt><trkpt lat="-18.78334347589" lon="121.82430434862425"><ele>33.0</ele><time>2026-04-24T04:34:24Z</time></trkpt><trkpt lat="-18.78306438586684" lon="121.82443003847733"><ele>33.0</ele><time>2026-04-24T04:34:25Z</time></trkpt><trkpt lat="-18.782781958306693" lon="121.82455693583483"><ele>33.0</ele><time>2026-04-24T04:34:26Z</time></trkpt><trkpt lat="-18.782498400819687" lon="121.82468492379716"><ele>33.0</ele><time>2026-04-24T04:34:27Z</time></trkpt><trkpt lat="-18.78221796564817" lon="121.82481318848305"><ele>33.0</ele><time>2026-04-24T04:34:28Z</time></trkpt><trkpt lat="-18.781940498337402" lon="121.824937302224"><ele>34.5</ele><time>2026-04-24T04:34:29Z</time></trkpt><trkpt lat="-18.78167427814433" lon="121.82507817712103"><ele>36.0</ele><time>2026-04-24T04:34:30Z</time></trkpt><trkpt lat="-18.781405209205214" lon="121.8252032106103"><ele>36.0</ele><time>2026-04-24T04:34:31Z</time></trkpt><trkpt lat="-18.781139175257863" lon="121.82533340101408"><ele>36.0</ele><time>2026-04-24T04:34:32Z</time></trkpt><trkpt lat="-18.780872588062387" lon="121.82547050561867"><ele>35.5</ele><time>2026-04-24T04:34:33Z</time></trkpt><trkpt lat="-18.780606592129374" lon="121.8256139137164"><ele>35.0</ele><time>2026-04-24T04:34:34Z</time></trkpt><trkpt lat="-18.780340884042964" lon="121.82576231056927"><ele>35.5</ele><time>2026-04-24T04:34:35Z</time></trkpt><trkpt lat="-18.780075025504765" lon="121.82591415306689"><ele>36.0</ele><time>2026-04-24T04:34:36Z</time></trkpt><trkpt lat="-18.77980589129003" lon="121.82606924432912"><ele>36.5</ele><time>2026-04-24T04:34:37Z</time></trkpt><trkpt lat="-18.77953782584365" lon="121.82622643868169"><ele>37.0</ele><time>2026-04-24T04:34:38Z</time></trkpt><trkpt lat="-18.779274502156667" lon="121.82638664308749"><ele>37.0</ele><time>2026-04-24T04:34:39Z</time></trkpt><trkpt lat="-18.779008558584856" lon="121.82654991755643"><ele>37.0</ele><time>2026-04-24T04:34:40Z</time></trkpt><trkpt lat="-18.778741356768865" lon="121.82671403931943"><ele>37.0</ele><time>2026-04-24T04:34:41Z</time></trkpt><trkpt lat="-18.77847385734776" lon="121.82687737069769"><ele>37.0</ele><time>2026-04-24T04:34:42Z</time></trkpt><trkpt lat="-18.778202780085067" lon="121.82704270225534"><ele>37.0</ele><time>2026-04-24T04:34:43Z</time></trkpt><trkpt lat="-18.777936914184902" lon="121.82720529846893"><ele>37.0</ele><time>2026-04-24T04:34:44Z</time></trkpt><trkpt lat="-18.777672138382925" lon="121.82737215701515"><ele>37.0</ele><time>2026-04-24T04:34:45Z</time></trkpt><trkpt lat="-18.777408178213367" lon="121.82753689951677"><ele>37.0</ele><time>2026-04-24T04:34:46Z</time></trkpt><trkpt lat="-18.777143287419452" lon="121.82770296787223"><ele>37.0</ele><time>2026-04-24T04:34:47Z</time></trkpt><trkpt lat="-18.77687849898231" lon="121.82786838249663"><ele>37.0</ele><time>2026-04-24T04:34:48Z</time></trkpt><trkpt lat="-18.776614022613384" lon="121.82803283398361"><ele>36.5</ele><time>2026-04-24T04:34:49Z</time></trkpt><trkpt lat="-18.776347874594112" lon="121.82819448303943"><ele>36.0</ele><time>2026-04-24T04:34:50Z</time></trkpt><trkpt lat="-18.776082550753294" lon="121.82835526764191"><ele>36.0</ele><time>2026-04-24T04:34:51Z</time></trkpt><trkpt lat="-18.775818361131996" lon="121.82851800241923"><ele>36.0</ele><time>2026-04-24T04:34:52Z</time></trkpt><trkpt lat="-18.775550173964735" lon="121.82868558046879"><ele>36.0</ele><time>2026-04-24T04:34:53Z</time></trkpt><trkpt lat="-18.775281738136382" lon="121.82885353335662"><ele>36.0</ele><time>2026-04-24T04:34:54Z</time></trkpt><trkpt lat="-18.77501339513661" lon="121.82902141093739"><ele>36.5</ele><time>2026-04-24T04:34:55Z</time></trkpt><trkpt lat="-18.774741274792362" lon="121.82918969702445"><ele>37.0</ele><time>2026-04-24T04:34:56Z</time></trkpt><trkpt lat="-18.77446966728865" lon="121.82935635952303"><ele>36.5</ele><time>2026-04-24T04:34:57Z</time></trkpt><trkpt lat="-18.774195311792774" lon="121.82952168045621"><ele>36.0</ele><time>2026-04-24T04:34:58Z</time></trkpt><trkpt lat="-18.77392058423212" lon="121.82969011670549"><ele>36.0</ele><time>2026-04-24T04:34:59Z</time></trkpt><trkpt lat="-18.773645072259114" lon="121.82985746972187"><ele>36.0</ele><time>2026-04-24T04:35:00Z</time></trkpt><trkpt lat="-18.773369683040904" lon="121.83002407607708"><ele>36.0</ele><time>2026-04-24T04:35:01Z</time></trkpt><trkpt lat="-18.773094350327725" lon="121.83019071510917"><ele>36.0</ele><time>2026-04-24T04:35:02Z</time></trkpt><trkpt lat="-18.772823553469305" lon="121.83035981798538"><ele>36.0</ele><time>2026-04-24T04:35:03Z</time></trkpt><trkpt lat="-18.772550435169535" lon="121.83053069846405"><ele>36.0</ele><time>2026-04-24T04:35:04Z</time></trkpt><trkpt lat="-18.77227882123718" lon="121.83070084913165"><ele>36.0</ele><time>2026-04-24T04:35:05Z</time></trkpt><trkpt lat="-18.77200629461577" lon="121.83087421441564"><ele>36.0</ele><time>2026-04-24T04:35:06Z</time></trkpt><trkpt lat="-18.771725929851264" lon="121.83102988588132"><ele>37.0</ele><time>2026-04-24T04:35:07Z</time></trkpt><trkpt lat="-18.771453866377826" lon="121.831197791142"><ele>38.0</ele><time>2026-04-24T04:35:08Z</time></trkpt><trkpt lat="-18.77118232087036" lon="121.83136537546835"><ele>37.0</ele><time>2026-04-24T04:35:09Z</time></trkpt><trkpt lat="-18.770919630911397" lon="121.83154470188768"><ele>36.0</ele><time>2026-04-24T04:35:10Z</time></trkpt><trkpt lat="-18.77064737686702" lon="121.83170702876103"><ele>37.5</ele><time>2026-04-24T04:35:11Z</time></trkpt><trkpt lat="-18.770376802065876" lon="121.83187393655282"><ele>39.0</ele><time>2026-04-24T04:35:12Z</time></trkpt><trkpt lat="-18.770108661267255" lon="121.83204340327738"><ele>39.0</ele><time>2026-04-24T04:35:13Z</time></trkpt><trkpt lat="-18.769840972858837" lon="121.8322097486879"><ele>39.0</ele><time>2026-04-24T04:35:14Z</time></trkpt><trkpt lat="-18.76957234587983" lon="121.8323757538477"><ele>39.0</ele><time>2026-04-24T04:35:15Z</time></trkpt><trkpt lat="-18.769301126029386" lon="121.83254175957147"><ele>39.0</ele><time>2026-04-24T04:35:16Z</time></trkpt><trkpt lat="-18.769029678025724" lon="121.83270861644445"><ele>39.0</ele><time>2026-04-24T04:35:17Z</time></trkpt><trkpt lat="-18.76875774589997" lon="121.83287539087519"><ele>39.0</ele><time>2026-04-24T04:35:18Z</time></trkpt><trkpt lat="-18.768485493456627" lon="121.83304246807337"><ele>40.0</ele><time>2026-04-24T04:35:19Z</time></trkpt><trkpt lat="-18.768214499574196" lon="121.83321070107236"><ele>41.0</ele><time>2026-04-24T04:35:20Z</time></trkpt><trkpt lat="-18.767946269221" lon="121.83337670583913"><ele>40.5</ele><time>2026-04-24T04:35:21Z</time></trkpt><trkpt lat="-18.767675934576012" lon="121.83354171713599"><ele>40.0</ele><time>2026-04-24T04:35:22Z</time></trkpt><trkpt lat="-18.767406443785784" lon="121.83370477566291"><ele>40.0</ele><time>2026-04-24T04:35:23Z</time></trkpt><trkpt lat="-18.767136373486473" lon="121.83386716781568"><ele>40.0</ele><time>2026-04-24T04:35:24Z</time></trkpt><trkpt lat="-18.76686892873692" lon="121.83402956995548"><ele>40.0</ele><time>2026-04-24T04:35:25Z</time></trkpt><trkpt lat="-18.766602602685506" lon="121.83419319538989"><ele>40.0</ele><time>2026-04-24T04:35:26Z</time></trkpt><trkpt lat="-18.76633752626768" lon="121.83435776938198"><ele>41.0</ele><time>2026-04-24T04:35:27Z</time></trkpt><trkpt lat="-18.76607208830418" lon="121.83452342332836"><ele>42.0</ele><time>2026-04-24T04:35:28Z</time></trkpt><trkpt lat="-18.7658089757599" lon="121.83468704278683"><ele>42.0</ele><time>2026-04-24T04:35:29Z</time></trkpt><trkpt lat="-18.76554543810772" lon="121.83485264980226"><ele>42.0</ele><time>2026-04-24T04:35:30Z</time></trkpt><trkpt lat="-18.765280493753146" lon="121.83501997263721"><ele>43.0</ele><time>2026-04-24T04:35:31Z</time></trkpt><trkpt lat="-18.765014785672896" lon="121.83518885187746"><ele>44.0</ele><time>2026-04-24T04:35:32Z</time></trkpt><trkpt lat="-18.764745286876174" lon="121.83535739859352"><ele>44.0</ele><time>2026-04-24T04:35:33Z</time></trkpt><trkpt lat="-18.76447180008898" lon="121.83552377511263"><ele>44.0</ele><time>2026-04-24T04:35:34Z</time></trkpt><trkpt lat="-18.76419955115117" lon="121.83569028193924"><ele>44.0</ele><time>2026-04-24T04:35:35Z</time></trkpt><trkpt lat="-18.763929678102162" lon="121.83585915293592"><ele>44.0</ele><time>2026-04-24T04:35:36Z</time></trkpt><trkpt lat="-18.763662131955176" lon="121.83602346320713"><ele>43.5</ele><time>2026-04-24T04:35:37Z</time></trkpt><trkpt lat="-18.76339651354339" lon="121.83618788214513"><ele>43.0</ele><time>2026-04-24T04:35:38Z</time></trkpt><trkpt lat="-18.76313299302359" lon="121.83635001620485"><ele>43.0</ele><time>2026-04-24T04:35:39Z</time></trkpt><trkpt lat="-18.76286794657825" lon="121.8365125373069"><ele>43.0</ele><time>2026-04-24T04:35:40Z</time></trkpt><trkpt lat="-18.762604172167492" lon="121.83667594030004"><ele>43.0</ele><time>2026-04-24T04:35:41Z</time></trkpt><trkpt lat="-18.762340183619973" lon="121.83683836634017"><ele>43.0</ele><time>2026-04-24T04:35:42Z</time></trkpt><trkpt lat="-18.76207540246886" lon="121.8369995194516"><ele>43.0</ele><time>2026-04-24T04:35:43Z</time></trkpt><trkpt lat="-18.76180496706985" lon="121.83716280921668"><ele>43.0</ele><time>2026-04-24T04:35:44Z</time></trkpt><trkpt lat="-18.76153556385154" lon="121.83732397270654"><ele>43.0</ele><time>2026-04-24T04:35:45Z</time></trkpt><trkpt lat="-18.761267294444714" lon="121.83748570255098"><ele>43.0</ele><time>2026-04-24T04:35:46Z</time></trkpt><trkpt lat="-18.761002504955933" lon="121.8376512426865"><ele>44.0</ele><time>2026-04-24T04:35:47Z</time></trkpt><trkpt lat="-18.760738702592313" lon="121.83781894858011"><ele>45.0</ele><time>2026-04-24T04:35:48Z</time></trkpt><trkpt lat="-18.760473669133262" lon="121.83798539515873"><ele>45.0</ele><time>2026-04-24T04:35:49Z</time></trkpt><trkpt lat="-18.76021261405588" lon="121.83814512435109"><ele>45.0</ele><time>2026-04-24T04:35:50Z</time></trkpt><trkpt lat="-18.759953209483044" lon="121.8383035918018"><ele>45.0</ele><time>2026-04-24T04:35:51Z</time></trkpt><trkpt lat="-18.759695753746126" lon="121.83846281648651"><ele>45.0</ele><time>2026-04-24T04:35:52Z</time></trkpt><trkpt lat="-18.759439113725016" lon="121.83862328966441"><ele>46.0</ele><time>2026-04-24T04:35:53Z</time></trkpt><trkpt lat="-18.759183271950306" lon="121.83878222661988"><ele>47.0</ele><time>2026-04-24T04:35:54Z</time></trkpt><trkpt lat="-18.758925708179977" lon="121.83893639384233"><ele>47.0</ele><time>2026-04-24T04:35:55Z</time></trkpt><trkpt lat="-18.758664171054125" lon="121.83909057795292"><ele>47.0</ele><time>2026-04-24T04:35:56Z</time></trkpt><trkpt lat="-18.75840484926158" lon="121.83924600040518"><ele>47.0</ele><time>2026-04-24T04:35:57Z</time></trkpt><trkpt lat="-18.75814542103755" lon="121.83940552844808"><ele>47.0</ele><time>2026-04-24T04:35:58Z</time></trkpt><trkpt lat="-18.757903619461455" lon="121.83955524752527"><ele>47.5</ele><time>2026-04-24T04:35:59Z</time></trkpt><trkpt lat="-18.7576742008711" lon="121.83969820203171"><ele>48.0</ele><time>2026-04-24T04:36:00Z</time></trkpt><trkpt lat="-18.75743943745755" lon="121.83984423309137"><ele>48.0</ele><time>2026-04-24T04:36:01Z</time></trkpt><trkpt lat="-18.757198406326946" lon="121.83999533464348"><ele>48.0</ele><time>2026-04-24T04:36:02Z</time></trkpt><trkpt lat="-18.756952076240477" lon="121.8401492322824"><ele>49.0</ele><time>2026-04-24T04:36:03Z</time></trkpt><trkpt lat="-18.756707080539698" lon="121.84030362932499"><ele>50.0</ele><time>2026-04-24T04:36:04Z</time></trkpt><trkpt lat="-18.75645583193469" lon="121.84046019244128"><ele>50.0</ele><time>2026-04-24T04:36:05Z</time></trkpt><trkpt lat="-18.756203879206765" lon="121.84061502735496"><ele>50.0</ele><time>2026-04-24T04:36:06Z</time></trkpt><trkpt lat="-18.75595417625205" lon="121.84076752051377"><ele>49.5</ele><time>2026-04-24T04:36:07Z</time></trkpt><trkpt lat="-18.75570607375008" lon="121.84091856954727"><ele>49.0</ele><time>2026-04-24T04:36:08Z</time></trkpt><trkpt lat="-18.755457012700038" lon="121.84106992234044"><ele>49.0</ele><time>2026-04-24T04:36:09Z</time></trkpt><trkpt lat="-18.755209494277807" lon="121.84122116038667"><ele>49.0</ele><time>2026-04-24T04:36:10Z</time></trkpt><trkpt lat="-18.75495938359174" lon="121.84137567635072"><ele>48.5</ele><time>2026-04-24T04:36:11Z</time></trkpt><trkpt lat="-18.75471041434104" lon="121.84152923650748"><ele>48.0</ele><time>2026-04-24T04:36:12Z</time></trkpt><trkpt lat="-18.754459994308263" lon="121.8416851144427"><ele>49.0</ele><time>2026-04-24T04:36:13Z</time></trkpt><trkpt lat="-18.75420846571145" lon="121.84184316089532"><ele>50.0</ele><time>2026-04-24T04:36:14Z</time></trkpt><trkpt lat="-18.753956342518332" lon="121.84200072942754"><ele>50.0</ele><time>2026-04-24T04:36:15Z</time></trkpt><trkpt lat="-18.753703881707306" lon="121.84215880774067"><ele>50.0</ele><time>2026-04-24T04:36:16Z</time></trkpt><trkpt lat="-18.753449605417554" lon="121.84231582366206"><ele>49.5</ele><time>2026-04-24T04:36:17Z</time></trkpt><trkpt lat="-18.753181784573226" lon="121.84245204681075"><ele>49.0</ele><time>2026-04-24T04:36:18Z</time></trkpt><trkpt lat="-18.752925510414375" lon="121.84260970909313"><ele>49.0</ele><time>2026-04-24T04:36:19Z</time></trkpt><trkpt lat="-18.75266869448764" lon="121.84276733051065"><ele>49.0</ele><time>2026-04-24T04:36:20Z</time></trkpt><trkpt lat="-18.752413087214197" lon="121.84292509154922"><ele>49.0</ele><time>2026-04-24T04:36:21Z</time></trkpt><trkpt lat="-18.75215704432773" lon="121.84308509262777"><ele>49.0</ele><time>2026-04-24T04:36:22Z</time></trkpt><trkpt lat="-18.751907154008652" lon="121.84325878155406"><ele>49.0</ele><time>2026-04-24T04:36:23Z</time></trkpt><trkpt lat="-18.751646054094973" lon="121.84341493269086"><ele>49.0</ele><time>2026-04-24T04:36:24Z</time></trkpt><trkpt lat="-18.751383866139964" lon="121.84357603202798"><ele>49.0</ele><time>2026-04-24T04:36:25Z</time></trkpt><trkpt lat="-18.75112450079858" lon="121.84373970760167"><ele>49.0</ele><time>2026-04-24T04:36:26Z</time></trkpt><trkpt lat="-18.750853431631327" lon="121.84388821467896"><ele>49.0</ele><time>2026-04-24T04:36:27Z</time></trkpt><trkpt lat="-18.750598061784594" lon="121.84406551076621"><ele>49.0</ele><time>2026-04-24T04:36:28Z</time></trkpt><trkpt lat="-18.750331660367486" lon="121.84422206049706"><ele>50.0</ele><time>2026-04-24T04:36:29Z</time></trkpt><trkpt lat="-18.750072190811167" lon="121.84437777639178"><ele>51.0</ele><time>2026-04-24T04:36:30Z</time></trkpt><trkpt lat="-18.7498146234056" lon="121.84453660047816"><ele>51.0</ele><time>2026-04-24T04:36:31Z</time></trkpt><trkpt lat="-18.749564070732404" lon="121.84469760258557"><ele>51.0</ele><time>2026-04-24T04:36:32Z</time></trkpt><trkpt lat="-18.74931078266452" lon="121.84485657441952"><ele>49.5</ele><time>2026-04-24T04:36:33Z</time></trkpt><trkpt lat="-18.749047227612696" lon="121.84499892608127"><ele>48.0</ele><time>2026-04-24T04:36:34Z</time></trkpt><trkpt lat="-18.748800586243487" lon="121.84517110107912"><ele>49.5</ele><time>2026-04-24T04:36:35Z</time></trkpt><trkpt lat="-18.748542432585488" lon="121.84532608122882"><ele>51.0</ele><time>2026-04-24T04:36:36Z</time></trkpt><trkpt lat="-18.748281731745582" lon="121.84547968023531"><ele>51.0</ele><time>2026-04-24T04:36:37Z</time></trkpt><trkpt lat="-18.748024288463945" lon="121.84563490451836"><ele>51.0</ele><time>2026-04-24T04:36:38Z</time></trkpt><trkpt lat="-18.747769314728775" lon="121.84579316715923"><ele>51.0</ele><time>2026-04-24T04:36:39Z</time></trkpt><trkpt lat="-18.74751445804285" lon="121.84595542835692"><ele>51.0</ele><time>2026-04-24T04:36:40Z</time></trkpt><trkpt lat="-18.74726157328309" lon="121.84611625454764"><ele>51.0</ele><time>2026-04-24T04:36:41Z</time></trkpt><trkpt lat="-18.74700670463708" lon="121.84627362839343"><ele>51.0</ele><time>2026-04-24T04:36:42Z</time></trkpt><trkpt lat="-18.7467503337942" lon="121.84643189765521"><ele>50.0</ele><time>2026-04-24T04:36:43Z</time></trkpt><trkpt lat="-18.746492992790746" lon="121.84658666128074"><ele>49.0</ele><time>2026-04-24T04:36:44Z</time></trkpt><trkpt lat="-18.74623285227618" lon="121.84674245349608"><ele>49.5</ele><time>2026-04-24T04:36:45Z</time></trkpt><trkpt lat="-18.74597713230548" lon="121.84690059384909"><ele>50.0</ele><time>2026-04-24T04:36:46Z</time></trkpt><trkpt lat="-18.74572103405161" lon="121.84706114180072"><ele>50.0</ele><time>2026-04-24T04:36:47Z</time></trkpt><trkpt lat="-18.745466186654035" lon="121.84722055715967"><ele>50.0</ele><time>2026-04-24T04:36:48Z</time></trkpt><trkpt lat="-18.745214024171133" lon="121.84737693624425"><ele>50.0</ele><time>2026-04-24T04:36:49Z</time></trkpt><trkpt lat="-18.744962674485468" lon="121.84753797614539"><ele>50.0</ele><time>2026-04-24T04:36:50Z</time></trkpt><trkpt lat="-18.744714299442524" lon="121.8477041280422"><ele>50.0</ele><time>2026-04-24T04:36:51Z</time></trkpt><trkpt lat="-18.74446698334115" lon="121.8478742532758"><ele>50.0</ele><time>2026-04-24T04:36:52Z</time></trkpt><trkpt lat="-18.74422092354948" lon="121.84805166497647"><ele>50.0</ele><time>2026-04-24T04:36:53Z</time></trkpt><trkpt lat="-18.74396292402633" lon="121.8482155758184"><ele>50.0</ele><time>2026-04-24T04:36:54Z</time></trkpt><trkpt lat="-18.743720948671463" lon="121.84839583275316"><ele>50.0</ele><time>2026-04-24T04:36:55Z</time></trkpt><trkpt lat="-18.74348171948956" lon="121.84857806910274"><ele>50.0</ele><time>2026-04-24T04:36:56Z</time></trkpt><trkpt lat="-18.74324310909141" lon="121.84876103582317"><ele>50.0</ele><time>2026-04-24T04:36:57Z</time></trkpt><trkpt lat="-18.743009132194086" lon="121.84894665735145"><ele>50.0</ele><time>2026-04-24T04:36:58Z</time></trkpt><trkpt lat="-18.74277732771966" lon="121.849135376925"><ele>51.0</ele><time>2026-04-24T04:36:59Z</time></trkpt><trkpt lat="-18.742544363740382" lon="121.84932904703285"><ele>52.0</ele><time>2026-04-24T04:37:00Z</time></trkpt><trkpt lat="-18.742315597099115" lon="121.84952579513741"><ele>52.0</ele><time>2026-04-24T04:37:01Z</time></trkpt><trkpt lat="-18.742091023255817" lon="121.84972277554567"><ele>52.0</ele><time>2026-04-24T04:37:02Z</time></trkpt><trkpt lat="-18.74186436080094" lon="121.8499262767354"><ele>52.0</ele><time>2026-04-24T04:37:03Z</time></trkpt><trkpt lat="-18.741640838937066" lon="121.8501301078436"><ele>52.0</ele><time>2026-04-24T04:37:04Z</time></trkpt><trkpt lat="-18.74142758425078" lon="121.85034923081398"><ele>52.0</ele><time>2026-04-24T04:37:05Z</time></trkpt><trkpt lat="-18.741207058987115" lon="121.85055771497662"><ele>52.0</ele><time>2026-04-24T04:37:06Z</time></trkpt><trkpt lat="-18.740991979166214" lon="121.85077006347629"><ele>52.0</ele><time>2026-04-24T04:37:07Z</time></trkpt><trkpt lat="-18.74077885820806" lon="121.85098687626137"><ele>52.0</ele><time>2026-04-24T04:37:08Z</time></trkpt><trkpt lat="-18.740569303080665" lon="121.85120567585737"><ele>52.0</ele><time>2026-04-24T04:37:09Z</time></trkpt><trkpt lat="-18.740361141465087" lon="121.85142890391977"><ele>52.0</ele><time>2026-04-24T04:37:10Z</time></trkpt><trkpt lat="-18.740151695429972" lon="121.85165201922385"><ele>51.0</ele><time>2026-04-24T04:37:11Z</time></trkpt><trkpt lat="-18.739944194347995" lon="121.85187934439278"><ele>50.0</ele><time>2026-04-24T04:37:12.001Z</time></trkpt><trkpt lat="-18.73973913926335" lon="121.85211034037388"><ele>50.0</ele><time>2026-04-24T04:37:13.001Z</time></trkpt><trkpt lat="-18.739536892714337" lon="121.85234387084331"><ele>50.0</ele><time>2026-04-24T04:37:14.001Z</time></trkpt><trkpt lat="-18.739321440444282" lon="121.85256425918152"><ele>50.0</ele><time>2026-04-24T04:37:15.001Z</time></trkpt><trkpt lat="-18.739140775997267" lon="121.85281928653318"><ele>50.0</ele><time>2026-04-24T04:37:16.001Z</time></trkpt><trkpt lat="-18.738949975332577" lon="121.8530629766387"><ele>50.0</ele><time>2026-04-24T04:37:17.001Z</time></trkpt><trkpt lat="-18.738764392864265" lon="121.85330633191528"><ele>50.0</ele><time>2026-04-24T04:37:18.001Z</time></trkpt><trkpt lat="-18.738578802637207" lon="121.85355595927088"><ele>50.0</ele><time>2026-04-24T04:37:19.001Z</time></trkpt><trkpt lat="-18.738396634910167" lon="121.85380827138405"><ele>50.0</ele><time>2026-04-24T04:37:20Z</time></trkpt><trkpt lat="-18.73821557893087" lon="121.85405565021816"><ele>50.5</ele><time>2026-04-24T04:37:21Z</time></trkpt><trkpt lat="-18.738042069339507" lon="121.85429888822574"><ele>51.0</ele><time>2026-04-24T04:37:22Z</time></trkpt><trkpt lat="-18.737873045531543" lon="121.85453908415467"><ele>51.5</ele><time>2026-04-24T04:37:23Z</time></trkpt><trkpt lat="-18.737709142920604" lon="121.85477630804093"><ele>52.0</ele><time>2026-04-24T04:37:24Z</time></trkpt><trkpt lat="-18.73754301372754" lon="121.85501433312253"><ele>51.0</ele><time>2026-04-24T04:37:25Z</time></trkpt><trkpt lat="-18.737380358539035" lon="121.85525020986265"><ele>50.0</ele><time>2026-04-24T04:37:26Z</time></trkpt><trkpt lat="-18.737217544117836" lon="121.85548965602362"><ele>50.0</ele><time>2026-04-24T04:37:27Z</time></trkpt><trkpt lat="-18.7370580871574" lon="121.85573280838128"><ele>50.0</ele><time>2026-04-24T04:37:28Z</time></trkpt><trkpt lat="-18.73689737427664" lon="121.85597787875258"><ele>49.5</ele><time>2026-04-24T04:37:29Z</time></trkpt><trkpt lat="-18.73673529782744" lon="121.85622625827787"><ele>49.0</ele><time>2026-04-24T04:37:30Z</time></trkpt><trkpt lat="-18.736572633561284" lon="121.85647739983806"><ele>49.0</ele><time>2026-04-24T04:37:31Z</time></trkpt><trkpt lat="-18.736407597896843" lon="121.85673104441796"><ele>49.0</ele><time>2026-04-24T04:37:32Z</time></trkpt><trkpt lat="-18.73624057658977" lon="121.85698598950309"><ele>49.0</ele><time>2026-04-24T04:37:33Z</time></trkpt><trkpt lat="-18.736070023589267" lon="121.85724527433145"><ele>49.0</ele><time>2026-04-24T04:37:34Z</time></trkpt><trkpt lat="-18.735894311700136" lon="121.85750572735088"><ele>48.5</ele><time>2026-04-24T04:37:35Z</time></trkpt><trkpt lat="-18.73571748203567" lon="121.85777019782955"><ele>48.0</ele><time>2026-04-24T04:37:36Z</time></trkpt><trkpt lat="-18.735543045973376" lon="121.85803783083752"><ele>48.0</ele><time>2026-04-24T04:37:37Z</time></trkpt><trkpt lat="-18.735370002240423" lon="121.8583026044024"><ele>48.0</ele><time>2026-04-24T04:37:38Z</time></trkpt><trkpt lat="-18.73519610849527" lon="121.85856311165031"><ele>48.0</ele><time>2026-04-24T04:37:39Z</time></trkpt><trkpt lat="-18.73502704021113" lon="121.8588173220708"><ele>48.0</ele><time>2026-04-24T04:37:40Z</time></trkpt><trkpt lat="-18.7348565500386" lon="121.85907164600228"><ele>47.5</ele><time>2026-04-24T04:37:41Z</time></trkpt><trkpt lat="-18.734685962037695" lon="121.85932493543879"><ele>47.0</ele><time>2026-04-24T04:37:42Z</time></trkpt><trkpt lat="-18.73451403667106" lon="121.85957995504573"><ele>45.5</ele><time>2026-04-24T04:37:43Z</time></trkpt><trkpt lat="-18.73434488217975" lon="121.85983483946244"><ele>44.0</ele><time>2026-04-24T04:37:44Z</time></trkpt><trkpt lat="-18.734175495673547" lon="121.86009287810694"><ele>45.0</ele><time>2026-04-24T04:37:45Z</time></trkpt><trkpt lat="-18.734004578855245" lon="121.86034946969392"><ele>46.0</ele><time>2026-04-24T04:37:46Z</time></trkpt><trkpt lat="-18.733833129727994" lon="121.8606073283576"><ele>46.0</ele><time>2026-04-24T04:37:47Z</time></trkpt><trkpt lat="-18.73366074277224" lon="121.86086511523298"><ele>46.0</ele><time>2026-04-24T04:37:48Z</time></trkpt><trkpt lat="-18.73349175717901" lon="121.86112233345112"><ele>45.0</ele><time>2026-04-24T04:37:49Z</time></trkpt><trkpt lat="-18.73332418210056" lon="121.8613784386349"><ele>44.0</ele><time>2026-04-24T04:37:50Z</time></trkpt><trkpt lat="-18.733158360090705" lon="121.86163073096732"><ele>45.5</ele><time>2026-04-24T04:37:51Z</time></trkpt><trkpt lat="-18.73300163913972" lon="121.861869348192"><ele>47.0</ele><time>2026-04-24T04:37:52Z</time></trkpt><trkpt lat="-18.73284817635954" lon="121.86210314300723"><ele>45.5</ele><time>2026-04-24T04:37:53Z</time></trkpt><trkpt lat="-18.732689642919308" lon="121.86234665922095"><ele>44.0</ele><time>2026-04-24T04:37:54Z</time></trkpt><trkpt lat="-18.732528847127785" lon="121.86259507930816"><ele>44.5</ele><time>2026-04-24T04:37:55Z</time></trkpt><trkpt lat="-18.73237032723164" lon="121.86284433659746"><ele>45.0</ele><time>2026-04-24T04:37:56Z</time></trkpt><trkpt lat="-18.732206586628898" lon="121.86309237304567"><ele>45.0</ele><time>2026-04-24T04:37:57Z</time></trkpt><trkpt lat="-18.732036347529316" lon="121.86333978794225"><ele>45.0</ele><time>2026-04-24T04:37:58Z</time></trkpt><trkpt lat="-18.731864487055844" lon="121.86359213158498"><ele>44.0</ele><time>2026-04-24T04:37:59Z</time></trkpt><trkpt lat="-18.731692318954515" lon="121.86384465828608"><ele>43.0</ele><time>2026-04-24T04:38:00Z</time></trkpt><trkpt lat="-18.731520818530214" lon="121.86409806992958"><ele>42.5</ele><time>2026-04-24T04:38:01Z</time></trkpt><trkpt lat="-18.731346427737318" lon="121.86435362705515"><ele>42.0</ele><time>2026-04-24T04:38:02Z</time></trkpt><trkpt lat="-18.731171385972452" lon="121.86461458351897"><ele>43.0</ele><time>2026-04-24T04:38:03Z</time></trkpt><trkpt lat="-18.731000298661062" lon="121.86487781456891"><ele>44.0</ele><time>2026-04-24T04:38:04Z</time></trkpt><trkpt lat="-18.730832491202367" lon="121.86514180807193"><ele>44.0</ele><time>2026-04-24T04:38:05Z</time></trkpt><trkpt lat="-18.7306622360754" lon="121.86540202908583"><ele>44.0</ele><time>2026-04-24T04:38:06Z</time></trkpt><trkpt lat="-18.730487888583514" lon="121.86565925016596"><ele>44.0</ele><time>2026-04-24T04:38:07Z</time></trkpt><trkpt lat="-18.730316919119044" lon="121.86591408656933"><ele>44.0</ele><time>2026-04-24T04:38:08Z</time></trkpt><trkpt lat="-18.730146116188887" lon="121.86616784979091"><ele>43.0</ele><time>2026-04-24T04:38:09Z</time></trkpt><trkpt lat="-18.72998078523548" lon="121.86642120325043"><ele>42.0</ele><time>2026-04-24T04:38:10Z</time></trkpt><trkpt lat="-18.729811842153627" lon="121.86668215482086"><ele>43.5</ele><time>2026-04-24T04:38:11Z</time></trkpt><trkpt lat="-18.729640246707667" lon="121.86694468699432"><ele>45.0</ele><time>2026-04-24T04:38:12Z</time></trkpt><trkpt lat="-18.72947060114986" lon="121.86720693084034"><ele>44.5</ele><time>2026-04-24T04:38:13Z</time></trkpt><trkpt lat="-18.72930005446733" lon="121.86746543525965"><ele>44.0</ele><time>2026-04-24T04:38:14Z</time></trkpt><trkpt lat="-18.7291287829124" lon="121.86772010446678"><ele>43.5</ele><time>2026-04-24T04:38:15Z</time></trkpt><trkpt lat="-18.72895884510065" lon="121.86797250201143"><ele>43.0</ele><time>2026-04-24T04:38:16Z</time></trkpt><trkpt lat="-18.728791553686193" lon="121.86822407516921"><ele>43.0</ele><time>2026-04-24T04:38:17Z</time></trkpt><trkpt lat="-18.72862376399141" lon="121.86847354330568"><ele>43.0</ele><time>2026-04-24T04:38:18Z</time></trkpt><trkpt lat="-18.728456489212046" lon="121.86872374989127"><ele>43.0</ele><time>2026-04-24T04:38:19Z</time></trkpt><trkpt lat="-18.728292083413027" lon="121.86897249092281"><ele>43.0</ele><time>2026-04-24T04:38:20Z</time></trkpt><trkpt lat="-18.728126300720028" lon="121.86922283004493"><ele>42.5</ele><time>2026-04-24T04:38:21Z</time></trkpt><trkpt lat="-18.727960275932997" lon="121.86947546189502"><ele>42.0</ele><time>2026-04-24T04:38:22Z</time></trkpt><trkpt lat="-18.727792210790398" lon="121.86972759116117"><ele>41.0</ele><time>2026-04-24T04:38:23Z</time></trkpt><trkpt lat="-18.727622409815215" lon="121.86998071369584"><ele>40.0</ele><time>2026-04-24T04:38:24Z</time></trkpt><trkpt lat="-18.72745197882786" lon="121.87023542114103"><ele>39.5</ele><time>2026-04-24T04:38:25Z</time></trkpt><trkpt lat="-18.727282762595642" lon="121.87048992144354"><ele>39.0</ele><time>2026-04-24T04:38:26Z</time></trkpt><trkpt lat="-18.7271147615247" lon="121.87074436115968"><ele>40.0</ele><time>2026-04-24T04:38:27Z</time></trkpt><trkpt lat="-18.726947827830802" lon="121.87099796380883"><ele>41.0</ele><time>2026-04-24T04:38:28Z</time></trkpt><trkpt lat="-18.72678109786631" lon="121.87124940208331"><ele>41.0</ele><time>2026-04-24T04:38:29Z</time></trkpt><trkpt lat="-18.726615414200484" lon="121.8715011968032"><ele>41.0</ele><time>2026-04-24T04:38:30Z</time></trkpt><trkpt lat="-18.726451052897588" lon="121.8717532234981"><ele>40.5</ele><time>2026-04-24T04:38:31Z</time></trkpt><trkpt lat="-18.72628348523617" lon="121.87200469116256"><ele>40.0</ele><time>2026-04-24T04:38:32Z</time></trkpt><trkpt lat="-18.72611612418347" lon="121.8722524808275"><ele>39.5</ele><time>2026-04-24T04:38:33Z</time></trkpt><trkpt lat="-18.72594603319411" lon="121.87250412716425"><ele>39.0</ele><time>2026-04-24T04:38:34Z</time></trkpt><trkpt lat="-18.725776968118513" lon="121.87275963222989"><ele>40.0</ele><time>2026-04-24T04:38:35Z</time></trkpt><trkpt lat="-18.725605707548" lon="121.87301577479359"><ele>41.0</ele><time>2026-04-24T04:38:36Z</time></trkpt><trkpt lat="-18.725437822378762" lon="121.87327238291302"><ele>41.0</ele><time>2026-04-24T04:38:37Z</time></trkpt><trkpt lat="-18.72526875832603" lon="121.8735297465155"><ele>41.0</ele><time>2026-04-24T04:38:38Z</time></trkpt><trkpt lat="-18.725098518099912" lon="121.87378934618653"><ele>40.0</ele><time>2026-04-24T04:38:39Z</time></trkpt><trkpt lat="-18.724929377611502" lon="121.8740519575892"><ele>39.0</ele><time>2026-04-24T04:38:40Z</time></trkpt><trkpt lat="-18.72474343041096" lon="121.87430287487415"><ele>39.0</ele><time>2026-04-24T04:38:41Z</time></trkpt><trkpt lat="-18.724570746149986" lon="121.87456387493447"><ele>39.0</ele><time>2026-04-24T04:38:42Z</time></trkpt><trkpt lat="-18.72439803259784" lon="121.87482491930238"><ele>38.0</ele><time>2026-04-24T04:38:43Z</time></trkpt><trkpt lat="-18.72423946984927" lon="121.87509470217782"><ele>37.0</ele><time>2026-04-24T04:38:44Z</time></trkpt><trkpt lat="-18.72406422592387" lon="121.8753571744151"><ele>36.5</ele><time>2026-04-24T04:38:45Z</time></trkpt><trkpt lat="-18.723888238329426" lon="121.87562219607335"><ele>36.0</ele><time>2026-04-24T04:38:46Z</time></trkpt><trkpt lat="-18.72371215574355" lon="121.87588635616899"><ele>34.5</ele><time>2026-04-24T04:38:47Z</time></trkpt><trkpt lat="-18.723535260903454" lon="121.87614934451702"><ele>33.0</ele><time>2026-04-24T04:38:48Z</time></trkpt><trkpt lat="-18.723360680325936" lon="121.87640736358993"><ele>33.0</ele><time>2026-04-24T04:38:49Z</time></trkpt><trkpt lat="-18.723200822533144" lon="121.87664970765373"><ele>33.0</ele><time>2026-04-24T04:38:50Z</time></trkpt><trkpt lat="-18.723041849752587" lon="121.87689168817099"><ele>33.0</ele><time>2026-04-24T04:38:51Z</time></trkpt><trkpt lat="-18.72288228218969" lon="121.87713434985027"><ele>33.0</ele><time>2026-04-24T04:38:52Z</time></trkpt><trkpt lat="-18.722720111630583" lon="121.87737553309618"><ele>32.5</ele><time>2026-04-24T04:38:53Z</time></trkpt><trkpt lat="-18.722553152150372" lon="121.87762050814489"><ele>32.0</ele><time>2026-04-24T04:38:54Z</time></trkpt><trkpt lat="-18.722390686644893" lon="121.87786422220597"><ele>32.0</ele><time>2026-04-24T04:38:55Z</time></trkpt><trkpt lat="-18.722229999752663" lon="121.87810864123443"><ele>32.0</ele><time>2026-04-24T04:38:56Z</time></trkpt><trkpt lat="-18.722068121523588" lon="121.87835509154017"><ele>31.0</ele><time>2026-04-24T04:38:57Z</time></trkpt><trkpt lat="-18.721905060223563" lon="121.87860008998595"><ele>30.0</ele><time>2026-04-24T04:38:58Z</time></trkpt><trkpt lat="-18.721742545374248" lon="121.87884574393252"><ele>30.0</ele><time>2026-04-24T04:38:59Z</time></trkpt><trkpt lat="-18.721581430339533" lon="121.8790917168674"><ele>30.0</ele><time>2026-04-24T04:39:00Z</time></trkpt><trkpt lat="-18.721419842962398" lon="121.87934053979936"><ele>29.5</ele><time>2026-04-24T04:39:01.001Z</time></trkpt><trkpt lat="-18.721241066741435" lon="121.8795813077653"><ele>29.0</ele><time>2026-04-24T04:39:02.001Z</time></trkpt><trkpt lat="-18.72107603511837" lon="121.87983045028216"><ele>29.0</ele><time>2026-04-24T04:39:03.001Z</time></trkpt><trkpt lat="-18.72091218515353" lon="121.88007780604484"><ele>29.0</ele><time>2026-04-24T04:39:04.001Z</time></trkpt><trkpt lat="-18.720749619868336" lon="121.88032482260148"><ele>27.5</ele><time>2026-04-24T04:39:05.001Z</time></trkpt><trkpt lat="-18.720596091694887" lon="121.88057788427938"><ele>26.0</ele><time>2026-04-24T04:39:06.001Z</time></trkpt><trkpt lat="-18.72043085665309" lon="121.88082237367637"><ele>26.0</ele><time>2026-04-24T04:39:07.001Z</time></trkpt><trkpt lat="-18.72026314220763" lon="121.8810717793881"><ele>26.0</ele><time>2026-04-24T04:39:08.001Z</time></trkpt><trkpt lat="-18.720095673520014" lon="121.8813264611892"><ele>26.0</ele><time>2026-04-24T04:39:09.001Z</time></trkpt><trkpt lat="-18.719928514436766" lon="121.88158192116768"><ele>26.0</ele><time>2026-04-24T04:39:10.001Z</time></trkpt><trkpt lat="-18.7197639003456" lon="121.88183682222085"><ele>26.5</ele><time>2026-04-24T04:39:11.001Z</time></trkpt><trkpt lat="-18.7195965744117" lon="121.8820886711054"><ele>27.0</ele><time>2026-04-24T04:39:12.001Z</time></trkpt><trkpt lat="-18.719428913472495" lon="121.88233839940631"><ele>27.0</ele><time>2026-04-24T04:39:13.001Z</time></trkpt><trkpt lat="-18.719259099239917" lon="121.88258969520012"><ele>27.0</ele><time>2026-04-24T04:39:14.001Z</time></trkpt><trkpt lat="-18.719090477586292" lon="121.8828423386361"><ele>26.0</ele><time>2026-04-24T04:39:15.001Z</time></trkpt><trkpt lat="-18.718921397325566" lon="121.88309480737902"><ele>25.0</ele><time>2026-04-24T04:39:16.001Z</time></trkpt><trkpt lat="-18.71875287720084" lon="121.88334617471156"><ele>25.0</ele><time>2026-04-24T04:39:17.001Z</time></trkpt><trkpt lat="-18.718584292832315" lon="121.88359819986985"><ele>25.0</ele><time>2026-04-24T04:39:18.001Z</time></trkpt><trkpt lat="-18.718416924892683" lon="121.88384885109183"><ele>25.0</ele><time>2026-04-24T04:39:19.001Z</time></trkpt><trkpt lat="-18.71824904456594" lon="121.88410244758772"><ele>25.0</ele><time>2026-04-24T04:39:20.001Z</time></trkpt><trkpt lat="-18.718081659392023" lon="121.88435474648455"><ele>24.5</ele><time>2026-04-24T04:39:21.001Z</time></trkpt><trkpt lat="-18.717915087234783" lon="121.88460837415025"><ele>24.0</ele><time>2026-04-24T04:39:22.001Z</time></trkpt><trkpt lat="-18.717751893382143" lon="121.8848604930582"><ele>23.0</ele><time>2026-04-24T04:39:23.001Z</time></trkpt><trkpt lat="-18.717584353947004" lon="121.88511434088673"><ele>22.0</ele><time>2026-04-24T04:39:24.001Z</time></trkpt><trkpt lat="-18.71741706505812" lon="121.88536788052194"><ele>22.0</ele><time>2026-04-24T04:39:25.001Z</time></trkpt><trkpt lat="-18.717247864211835" lon="121.88562291087851"><ele>22.0</ele><time>2026-04-24T04:39:26Z</time></trkpt><trkpt lat="-18.71707877916204" lon="121.88587793386294"><ele>22.5</ele><time>2026-04-24T04:39:27Z</time></trkpt><trkpt lat="-18.71690782132961" lon="121.88613577716801"><ele>23.0</ele><time>2026-04-24T04:39:28Z</time></trkpt><trkpt lat="-18.71673422971257" lon="121.8863951688519"><ele>22.0</ele><time>2026-04-24T04:39:29Z</time></trkpt><trkpt lat="-18.716560920142392" lon="121.88665697154346"><ele>21.0</ele><time>2026-04-24T04:39:30Z</time></trkpt><trkpt lat="-18.71638865176578" lon="121.88691806098281"><ele>21.0</ele><time>2026-04-24T04:39:31Z</time></trkpt><trkpt lat="-18.716216539320303" lon="121.88717915304657"><ele>21.0</ele><time>2026-04-24T04:39:32Z</time></trkpt><trkpt lat="-18.716043046461348" lon="121.88743979706021"><ele>20.0</ele><time>2026-04-24T04:39:33Z</time></trkpt><trkpt lat="-18.71586914327914" lon="121.88769978726475"><ele>19.0</ele><time>2026-04-24T04:39:34Z</time></trkpt><trkpt lat="-18.715695575112168" lon="121.88796020480281"><ele>19.0</ele><time>2026-04-24T04:39:35Z</time></trkpt><trkpt lat="-18.71552059927454" lon="121.88822221634491"><ele>19.0</ele><time>2026-04-24T04:39:36Z</time></trkpt><trkpt lat="-18.715344708657156" lon="121.88848615679859"><ele>19.0</ele><time>2026-04-24T04:39:37Z</time></trkpt><trkpt lat="-18.715167755360092" lon="121.88874952708169"><ele>19.0</ele><time>2026-04-24T04:39:38Z</time></trkpt><trkpt lat="-18.714990040940332" lon="121.88901752670755"><ele>19.5</ele><time>2026-04-24T04:39:39Z</time></trkpt><trkpt lat="-18.714813391691617" lon="121.88928602729312"><ele>20.0</ele><time>2026-04-24T04:39:40Z</time></trkpt><trkpt lat="-18.71463584599366" lon="121.88955143032531"><ele>20.0</ele><time>2026-04-24T04:39:41Z</time></trkpt><trkpt lat="-18.71445946950094" lon="121.8898147748505"><ele>20.0</ele><time>2026-04-24T04:39:42Z</time></trkpt><trkpt lat="-18.71428649111067" lon="121.89007797269355"><ele>20.0</ele><time>2026-04-24T04:39:43Z</time></trkpt><trkpt lat="-18.714112078271388" lon="121.89034219278616"><ele>20.0</ele><time>2026-04-24T04:39:44Z</time></trkpt><trkpt lat="-18.713936325299557" lon="121.89060610959858"><ele>20.0</ele><time>2026-04-24T04:39:45Z</time></trkpt><trkpt lat="-18.713761230959253" lon="121.89086773773563"><ele>20.0</ele><time>2026-04-24T04:39:46Z</time></trkpt><trkpt lat="-18.713587626959256" lon="121.89112950315791"><ele>20.0</ele><time>2026-04-24T04:39:47Z</time></trkpt><trkpt lat="-18.713416306521946" lon="121.8913901247656"><ele>20.0</ele><time>2026-04-24T04:39:48Z</time></trkpt><trkpt lat="-18.71324432555039" lon="121.89165161965983"><ele>20.5</ele><time>2026-04-24T04:39:49Z</time></trkpt><trkpt lat="-18.713073621601776" lon="121.89191260241536"><ele>21.0</ele><time>2026-04-24T04:39:50Z</time></trkpt><trkpt lat="-18.712902863706507" lon="121.89217024964408"><ele>20.0</ele><time>2026-04-24T04:39:51Z</time></trkpt><trkpt lat="-18.71273169966527" lon="121.89242623715228"><ele>19.0</ele><time>2026-04-24T04:39:52Z</time></trkpt><trkpt lat="-18.7125622531203" lon="121.89267565671886"><ele>19.0</ele><time>2026-04-24T04:39:53Z</time></trkpt><trkpt lat="-18.712395057563864" lon="121.89292665377506"><ele>19.0</ele><time>2026-04-24T04:39:54Z</time></trkpt><trkpt lat="-18.712227363939025" lon="121.89318073170497"><ele>19.0</ele><time>2026-04-24T04:39:55Z</time></trkpt><trkpt lat="-18.71206113702861" lon="121.89343344666999"><ele>19.0</ele><time>2026-04-24T04:39:56Z</time></trkpt><trkpt lat="-18.711893398682257" lon="121.89368715693207"><ele>19.0</ele><time>2026-04-24T04:39:57Z</time></trkpt><trkpt lat="-18.711727979129943" lon="121.89393854939962"><ele>19.0</ele><time>2026-04-24T04:39:58Z</time></trkpt><trkpt lat="-18.711561112742682" lon="121.89418998973419"><ele>19.0</ele><time>2026-04-24T04:39:59Z</time></trkpt><trkpt lat="-18.711396082791605" lon="121.89443975750952"><ele>19.0</ele><time>2026-04-24T04:40:00Z</time></trkpt><trkpt lat="-18.711231844589566" lon="121.89468911018211"><ele>19.0</ele><time>2026-04-24T04:40:01Z</time></trkpt><trkpt lat="-18.711065641932958" lon="121.89494086648209"><ele>19.0</ele><time>2026-04-24T04:40:02Z</time></trkpt><trkpt lat="-18.710899518618593" lon="121.8951901631898"><ele>18.0</ele><time>2026-04-24T04:40:03Z</time></trkpt><trkpt lat="-18.710732517848996" lon="121.89543517650515"><ele>17.0</ele><time>2026-04-24T04:40:04Z</time></trkpt><trkpt lat="-18.710559784554377" lon="121.8956753796306"><ele>17.0</ele><time>2026-04-24T04:40:05Z</time></trkpt><trkpt lat="-18.710377719257234" lon="121.89590931532386"><ele>17.0</ele><time>2026-04-24T04:40:06Z</time></trkpt><trkpt lat="-18.710191398326902" lon="121.89613912763228"><ele>19.0</ele><time>2026-04-24T04:40:07Z</time></trkpt><trkpt lat="-18.709997594801322" lon="121.89636538291718"><ele>21.0</ele><time>2026-04-24T04:40:08Z</time></trkpt><trkpt lat="-18.709798946608796" lon="121.89658242905318"><ele>20.0</ele><time>2026-04-24T04:40:09Z</time></trkpt><trkpt lat="-18.709594062421527" lon="121.89679755004559"><ele>19.0</ele><time>2026-04-24T04:40:10Z</time></trkpt><trkpt lat="-18.70938455303138" lon="121.89700816634787"><ele>18.5</ele><time>2026-04-24T04:40:11Z</time></trkpt><trkpt lat="-18.7091713752542" lon="121.89721444035555"><ele>18.0</ele><time>2026-04-24T04:40:12Z</time></trkpt><trkpt lat="-18.70894218862008" lon="121.89739836674113"><ele>18.5</ele><time>2026-04-24T04:40:13Z</time></trkpt><trkpt lat="-18.708716799381726" lon="121.89758628476243"><ele>19.0</ele><time>2026-04-24T04:40:14Z</time></trkpt><trkpt lat="-18.708494101488572" lon="121.89778213654827"><ele>20.5</ele><time>2026-04-24T04:40:15Z</time></trkpt><trkpt lat="-18.708257780607564" lon="121.89795697988056"><ele>22.0</ele><time>2026-04-24T04:40:16Z</time></trkpt><trkpt lat="-18.70801529291401" lon="121.89812842463283"><ele>22.0</ele><time>2026-04-24T04:40:17Z</time></trkpt><trkpt lat="-18.70777551995506" lon="121.89829520932032"><ele>22.0</ele><time>2026-04-24T04:40:18Z</time></trkpt><trkpt lat="-18.707529711846824" lon="121.89845421582376"><ele>20.5</ele><time>2026-04-24T04:40:19Z</time></trkpt><trkpt lat="-18.707278922782205" lon="121.89860664899565"><ele>19.0</ele><time>2026-04-24T04:40:20Z</time></trkpt><trkpt lat="-18.707018145633192" lon="121.89875037489251"><ele>18.5</ele><time>2026-04-24T04:40:21Z</time></trkpt><trkpt lat="-18.706757356038402" lon="121.8988886996802"><ele>18.0</ele><time>2026-04-24T04:40:22Z</time></trkpt><trkpt lat="-18.706497416524453" lon="121.89902158362882"><ele>18.0</ele><time>2026-04-24T04:40:23Z</time></trkpt><trkpt lat="-18.706240053299805" lon="121.89915661035305"><ele>18.0</ele><time>2026-04-24T04:40:24Z</time></trkpt><trkpt lat="-18.705980287820054" lon="121.89929774749919"><ele>19.5</ele><time>2026-04-24T04:40:25Z</time></trkpt><trkpt lat="-18.705713042439765" lon="121.89944308210208"><ele>21.0</ele><time>2026-04-24T04:40:26Z</time></trkpt><trkpt lat="-18.705449143369247" lon="121.89958979477042"><ele>19.5</ele><time>2026-04-24T04:40:27Z</time></trkpt><trkpt lat="-18.70518185614021" lon="121.89973498460505"><ele>18.0</ele><time>2026-04-24T04:40:28Z</time></trkpt><trkpt lat="-18.704915178332076" lon="121.89987750873966"><ele>18.0</ele><time>2026-04-24T04:40:29Z</time></trkpt><trkpt lat="-18.704645751415793" lon="121.90001868367305"><ele>18.0</ele><time>2026-04-24T04:40:30Z</time></trkpt><trkpt lat="-18.704375759927125" lon="121.9001619812972"><ele>18.5</ele><time>2026-04-24T04:40:31Z</time></trkpt><trkpt lat="-18.704107823583094" lon="121.90030752648268"><ele>19.0</ele><time>2026-04-24T04:40:32Z</time></trkpt><trkpt lat="-18.70384002512586" lon="121.90045525876913"><ele>19.0</ele><time>2026-04-24T04:40:33Z</time></trkpt><trkpt lat="-18.703573619824947" lon="121.9006014199749"><ele>19.0</ele><time>2026-04-24T04:40:34Z</time></trkpt><trkpt lat="-18.70329990639948" lon="121.90072852290204"><ele>19.0</ele><time>2026-04-24T04:40:35Z</time></trkpt><trkpt lat="-18.703033822908697" lon="121.90087118061551"><ele>19.0</ele><time>2026-04-24T04:40:36Z</time></trkpt><trkpt lat="-18.702766024086337" lon="121.90101477390212"><ele>20.0</ele><time>2026-04-24T04:40:37Z</time></trkpt><trkpt lat="-18.702504231253442" lon="121.90117408349909"><ele>21.0</ele><time>2026-04-24T04:40:38Z</time></trkpt><trkpt lat="-18.702231992649438" lon="121.90131555735599"><ele>21.0</ele><time>2026-04-24T04:40:39Z</time></trkpt><trkpt lat="-18.701956821363524" lon="121.90145885986257"><ele>21.0</ele><time>2026-04-24T04:40:40Z</time></trkpt><trkpt lat="-18.701682847230813" lon="121.90160539599219"><ele>20.5</ele><time>2026-04-24T04:40:41Z</time></trkpt><trkpt lat="-18.70140633642964" lon="121.90175359832374"><ele>20.0</ele><time>2026-04-24T04:40:42Z</time></trkpt><trkpt lat="-18.701131428145548" lon="121.90190146745343"><ele>20.5</ele><time>2026-04-24T04:40:43Z</time></trkpt><trkpt lat="-18.700855833459904" lon="121.90205091080179"><ele>21.0</ele><time>2026-04-24T04:40:44Z</time></trkpt><trkpt lat="-18.700582800619788" lon="121.90219920576725"><ele>21.0</ele><time>2026-04-24T04:40:45Z</time></trkpt><trkpt lat="-18.70030874801623" lon="121.90234609406227"><ele>21.0</ele><time>2026-04-24T04:40:46Z</time></trkpt><trkpt lat="-18.7000363654992" lon="121.90249222052647"><ele>21.5</ele><time>2026-04-24T04:40:47Z</time></trkpt><trkpt lat="-18.699764100179465" lon="121.90263855768156"><ele>22.0</ele><time>2026-04-24T04:40:48Z</time></trkpt><trkpt lat="-18.699496604454158" lon="121.90278337668883"><ele>21.5</ele><time>2026-04-24T04:40:49Z</time></trkpt><trkpt lat="-18.69923010103015" lon="121.90293044513565"><ele>21.0</ele><time>2026-04-24T04:40:50Z</time></trkpt><trkpt lat="-18.69896556065889" lon="121.90307532812676"><ele>21.0</ele><time>2026-04-24T04:40:51Z</time></trkpt><trkpt lat="-18.69870082651727" lon="121.90321716992773"><ele>21.0</ele><time>2026-04-24T04:40:52Z</time></trkpt><trkpt lat="-18.698435420404003" lon="121.90335562290994"><ele>21.5</ele><time>2026-04-24T04:40:53Z</time></trkpt><trkpt lat="-18.698170315750936" lon="121.90349662262791"><ele>22.0</ele><time>2026-04-24T04:40:54Z</time></trkpt><trkpt lat="-18.697905002397558" lon="121.9036363303574"><ele>23.0</ele><time>2026-04-24T04:40:55Z</time></trkpt><trkpt lat="-18.697636495540955" lon="121.90377722338765"><ele>24.0</ele><time>2026-04-24T04:40:56Z</time></trkpt><trkpt lat="-18.697365430918687" lon="121.903923808542"><ele>24.0</ele><time>2026-04-24T04:40:57Z</time></trkpt><trkpt lat="-18.697094403204105" lon="121.90407142239778"><ele>24.0</ele><time>2026-04-24T04:40:58Z</time></trkpt><trkpt lat="-18.6968202717277" lon="121.90421959786336"><ele>23.0</ele><time>2026-04-24T04:40:59Z</time></trkpt><trkpt lat="-18.696547628953894" lon="121.90436822062092"><ele>22.0</ele><time>2026-04-24T04:41:00Z</time></trkpt><trkpt lat="-18.69628357708566" lon="121.90451041731485"><ele>24.0</ele><time>2026-04-24T04:41:01Z</time></trkpt><trkpt lat="-18.69603912560458" lon="121.90464282246066"><ele>26.0</ele><time>2026-04-24T04:41:02Z</time></trkpt><trkpt lat="-18.695796654373098" lon="121.90477254425844"><ele>26.0</ele><time>2026-04-24T04:41:03Z</time></trkpt><trkpt lat="-18.695547620432194" lon="121.9049059543606"><ele>26.0</ele><time>2026-04-24T04:41:04Z</time></trkpt><trkpt lat="-18.695290980356685" lon="121.90504272648246"><ele>25.5</ele><time>2026-04-24T04:41:05Z</time></trkpt><trkpt lat="-18.695032589805308" lon="121.90518052093122"><ele>25.0</ele><time>2026-04-24T04:41:06Z</time></trkpt><trkpt lat="-18.694771238657854" lon="121.90532091327685"><ele>25.0</ele><time>2026-04-24T04:41:07Z</time></trkpt><trkpt lat="-18.694507165902458" lon="121.90546425579342"><ele>25.0</ele><time>2026-04-24T04:41:08Z</time></trkpt><trkpt lat="-18.694243220836604" lon="121.90560752010856"><ele>25.5</ele><time>2026-04-24T04:41:09Z</time></trkpt><trkpt lat="-18.69397811816307" lon="121.90574925524793"><ele>26.0</ele><time>2026-04-24T04:41:10Z</time></trkpt><trkpt lat="-18.69371235300425" lon="121.90589018625013"><ele>25.0</ele><time>2026-04-24T04:41:11Z</time></trkpt><trkpt lat="-18.69344559395771" lon="121.90603106565983"><ele>24.0</ele><time>2026-04-24T04:41:12Z</time></trkpt><trkpt lat="-18.693180507863783" lon="121.90617058995643"><ele>24.0</ele><time>2026-04-24T04:41:13Z</time></trkpt><trkpt lat="-18.692915896626758" lon="121.90631157876314"><ele>24.0</ele><time>2026-04-24T04:41:14Z</time></trkpt><trkpt lat="-18.692651731524194" lon="121.90645616447229"><ele>23.5</ele><time>2026-04-24T04:41:15Z</time></trkpt><trkpt lat="-18.69238674030173" lon="121.90660312044842"><ele>23.0</ele><time>2026-04-24T04:41:16Z</time></trkpt><trkpt lat="-18.69211884070911" lon="121.9067478216676"><ele>23.5</ele><time>2026-04-24T04:41:17Z</time></trkpt><trkpt lat="-18.69185101436476" lon="121.90689065098613"><ele>24.0</ele><time>2026-04-24T04:41:18Z</time></trkpt><trkpt lat="-18.691583934471208" lon="121.90703554678188"><ele>24.0</ele><time>2026-04-24T04:41:19Z</time></trkpt><trkpt lat="-18.6913173250509" lon="121.90718371897006"><ele>24.0</ele><time>2026-04-24T04:41:20Z</time></trkpt><trkpt lat="-18.691053586330426" lon="121.90733195088023"><ele>23.5</ele><time>2026-04-24T04:41:21Z</time></trkpt><trkpt lat="-18.690785782495677" lon="121.90747763468164"><ele>23.0</ele><time>2026-04-24T04:41:22Z</time></trkpt><trkpt lat="-18.690516470248237" lon="121.90762252732902"><ele>23.5</ele><time>2026-04-24T04:41:23Z</time></trkpt><trkpt lat="-18.690242510406463" lon="121.90776259110712"><ele>24.0</ele><time>2026-04-24T04:41:24Z</time></trkpt><trkpt lat="-18.689968766946606" lon="121.907903745532"><ele>24.0</ele><time>2026-04-24T04:41:25Z</time></trkpt><trkpt lat="-18.689695621532362" lon="121.90804587361761"><ele>24.0</ele><time>2026-04-24T04:41:26Z</time></trkpt><trkpt lat="-18.689424115316093" lon="121.90818733228663"><ele>23.5</ele><time>2026-04-24T04:41:27Z</time></trkpt><trkpt lat="-18.689159078901984" lon="121.90832939891986"><ele>23.0</ele><time>2026-04-24T04:41:28Z</time></trkpt><trkpt lat="-18.68889552632456" lon="121.90847489734266"><ele>24.0</ele><time>2026-04-24T04:41:29Z</time></trkpt><trkpt lat="-18.688629421197117" lon="121.90862238611236"><ele>25.0</ele><time>2026-04-24T04:41:30Z</time></trkpt><trkpt lat="-18.688363251980622" lon="121.9087680709204"><ele>25.0</ele><time>2026-04-24T04:41:31.001Z</time></trkpt><trkpt lat="-18.688098853193" lon="121.9089148383369"><ele>25.0</ele><time>2026-04-24T04:41:32Z</time></trkpt><trkpt lat="-18.687836394751287" lon="121.90905880512777"><ele>25.5</ele><time>2026-04-24T04:41:33Z</time></trkpt><trkpt lat="-18.687574715219355" lon="121.90919895053949"><ele>26.0</ele><time>2026-04-24T04:41:34Z</time></trkpt><trkpt lat="-18.687312531561762" lon="121.90933641565361"><ele>26.0</ele><time>2026-04-24T04:41:35Z</time></trkpt><trkpt lat="-18.687051461356642" lon="121.90947421959925"><ele>26.0</ele><time>2026-04-24T04:41:36Z</time></trkpt><trkpt lat="-18.68679052517026" lon="121.90961484878005"><ele>26.5</ele><time>2026-04-24T04:41:37Z</time></trkpt><trkpt lat="-18.686527573867167" lon="121.90975644025599"><ele>27.0</ele><time>2026-04-24T04:41:38Z</time></trkpt><trkpt lat="-18.686262415596502" lon="121.90989876317555"><ele>27.5</ele><time>2026-04-24T04:41:39Z</time></trkpt><trkpt lat="-18.685994009007565" lon="121.91004171963709"><ele>28.0</ele><time>2026-04-24T04:41:40Z</time></trkpt><trkpt lat="-18.685722993371403" lon="121.91018484735838"><ele>28.0</ele><time>2026-04-24T04:41:41Z</time></trkpt><trkpt lat="-18.685454389036707" lon="121.91033014834458"><ele>28.0</ele><time>2026-04-24T04:41:42Z</time></trkpt><trkpt lat="-18.685184844741695" lon="121.91047479863495"><ele>29.0</ele><time>2026-04-24T04:41:43Z</time></trkpt><trkpt lat="-18.68492117149944" lon="121.91061931885694"><ele>30.0</ele><time>2026-04-24T04:41:44Z</time></trkpt><trkpt lat="-18.68465657045339" lon="121.91076092001654"><ele>30.5</ele><time>2026-04-24T04:41:45Z</time></trkpt><trkpt lat="-18.68439211637622" lon="121.9109005464889"><ele>31.0</ele><time>2026-04-24T04:41:46Z</time></trkpt><trkpt lat="-18.684128089070185" lon="121.9110386395535"><ele>32.0</ele><time>2026-04-24T04:41:47Z</time></trkpt><trkpt lat="-18.683864382909256" lon="121.91117656592853"><ele>33.0</ele><time>2026-04-24T04:41:48Z</time></trkpt><trkpt lat="-18.68360272111366" lon="121.9113130591243"><ele>34.0</ele><time>2026-04-24T04:41:49Z</time></trkpt><trkpt lat="-18.6833438318647" lon="121.91145287978871"><ele>35.0</ele><time>2026-04-24T04:41:50Z</time></trkpt><trkpt lat="-18.683082101564548" lon="121.9115948402899"><ele>35.0</ele><time>2026-04-24T04:41:51Z</time></trkpt><trkpt lat="-18.68281813718922" lon="121.91173592841677"><ele>35.0</ele><time>2026-04-24T04:41:52Z</time></trkpt><trkpt lat="-18.682555051767384" lon="121.91187512696317"><ele>34.5</ele><time>2026-04-24T04:41:53Z</time></trkpt><trkpt lat="-18.682293902643806" lon="121.91201240102122"><ele>34.0</ele><time>2026-04-24T04:41:54Z</time></trkpt><trkpt lat="-18.68203455776186" lon="121.9121492319165"><ele>33.5</ele><time>2026-04-24T04:41:55Z</time></trkpt><trkpt lat="-18.681777747751454" lon="121.91228758658477"><ele>33.0</ele><time>2026-04-24T04:41:56Z</time></trkpt><trkpt lat="-18.681521564972027" lon="121.91242665359368"><ele>33.0</ele><time>2026-04-24T04:41:57Z</time></trkpt><trkpt lat="-18.681265911590163" lon="121.91256550706234"><ele>33.0</ele><time>2026-04-24T04:41:58Z</time></trkpt><trkpt lat="-18.6810108007498" lon="121.9127029456079"><ele>34.0</ele><time>2026-04-24T04:41:59Z</time></trkpt><trkpt lat="-18.680756528725798" lon="121.91283915996416"><ele>35.0</ele><time>2026-04-24T04:42:00Z</time></trkpt><trkpt lat="-18.68050365116714" lon="121.91297507325412"><ele>36.0</ele><time>2026-04-24T04:42:01Z</time></trkpt><trkpt lat="-18.680252378026406" lon="121.91311317724185"><ele>37.0</ele><time>2026-04-24T04:42:02Z</time></trkpt><trkpt lat="-18.680003947865888" lon="121.9132553254807"><ele>37.0</ele><time>2026-04-24T04:42:03Z</time></trkpt><trkpt lat="-18.679757550783915" lon="121.91339905768832"><ele>37.0</ele><time>2026-04-24T04:42:04Z</time></trkpt><trkpt lat="-18.679515504405718" lon="121.9135478782901"><ele>38.0</ele><time>2026-04-24T04:42:05Z</time></trkpt><trkpt lat="-18.67927834721842" lon="121.91370206252905"><ele>39.0</ele><time>2026-04-24T04:42:06Z</time></trkpt><trkpt lat="-18.679038915869622" lon="121.91386380118173"><ele>39.0</ele><time>2026-04-24T04:42:07Z</time></trkpt><trkpt lat="-18.67879853946558" lon="121.91403103340178"><ele>39.0</ele><time>2026-04-24T04:42:08Z</time></trkpt><trkpt lat="-18.678558168137222" lon="121.9142036713426"><ele>39.0</ele><time>2026-04-24T04:42:09Z</time></trkpt><trkpt lat="-18.67832143387693" lon="121.91438216154376"><ele>39.0</ele><time>2026-04-24T04:42:10Z</time></trkpt><trkpt lat="-18.678085783527543" lon="121.91456308318041"><ele>39.0</ele><time>2026-04-24T04:42:11Z</time></trkpt><trkpt lat="-18.677854377245083" lon="121.91474749073377"><ele>39.0</ele><time>2026-04-24T04:42:12Z</time></trkpt><trkpt lat="-18.677628265143372" lon="121.9149359150447"><ele>41.0</ele><time>2026-04-24T04:42:13Z</time></trkpt><trkpt lat="-18.67740560364297" lon="121.9151275183081"><ele>43.0</ele><time>2026-04-24T04:42:14Z</time></trkpt><trkpt lat="-18.677184813103633" lon="121.91532236475082"><ele>43.0</ele><time>2026-04-24T04:42:15Z</time></trkpt><trkpt lat="-18.676965359232863" lon="121.91551995991178"><ele>43.0</ele><time>2026-04-24T04:42:16Z</time></trkpt><trkpt lat="-18.67674520508145" lon="121.91572078476823"><ele>42.5</ele><time>2026-04-24T04:42:17Z</time></trkpt><trkpt lat="-18.67652189905154" lon="121.91591987760663"><ele>42.0</ele><time>2026-04-24T04:42:18Z</time></trkpt><trkpt lat="-18.67629998148152" lon="121.91611911193975"><ele>42.0</ele><time>2026-04-24T04:42:19Z</time></trkpt><trkpt lat="-18.676090365475684" lon="121.91631001053226"><ele>42.0</ele><time>2026-04-24T04:42:20Z</time></trkpt><trkpt lat="-18.675887792831784" lon="121.9164939191334"><ele>42.0</ele><time>2026-04-24T04:42:21Z</time></trkpt><trkpt lat="-18.67567899308532" lon="121.91668094615889"><ele>42.0</ele><time>2026-04-24T04:42:22Z</time></trkpt><trkpt lat="-18.675464326277602" lon="121.91687085871598"><ele>42.5</ele><time>2026-04-24T04:42:23Z</time></trkpt><trkpt lat="-18.675250260104743" lon="121.91706176232486"><ele>43.0</ele><time>2026-04-24T04:42:24Z</time></trkpt><trkpt lat="-18.675031816218027" lon="121.91725400172842"><ele>43.0</ele><time>2026-04-24T04:42:25Z</time></trkpt><trkpt lat="-18.674812609542037" lon="121.91744617927583"><ele>43.0</ele><time>2026-04-24T04:42:26Z</time></trkpt><trkpt lat="-18.67459285422783" lon="121.9176393713481"><ele>43.0</ele><time>2026-04-24T04:42:27Z</time></trkpt><trkpt lat="-18.674376612448427" lon="121.91783666452373"><ele>43.0</ele><time>2026-04-24T04:42:28Z</time></trkpt><trkpt lat="-18.6741618033464" lon="121.91803484132397"><ele>43.0</ele><time>2026-04-24T04:42:29Z</time></trkpt><trkpt lat="-18.67394567507373" lon="121.91823299914228"><ele>43.0</ele><time>2026-04-24T04:42:30Z</time></trkpt><trkpt lat="-18.6737257374207" lon="121.91843357548042"><ele>43.5</ele><time>2026-04-24T04:42:31Z</time></trkpt><trkpt lat="-18.673506992689" lon="121.91863403375623"><ele>44.0</ele><time>2026-04-24T04:42:32Z</time></trkpt><trkpt lat="-18.67328378233374" lon="121.9188360470843"><ele>44.0</ele><time>2026-04-24T04:42:33Z</time></trkpt><trkpt lat="-18.673058648009164" lon="121.9190369098343"><ele>44.0</ele><time>2026-04-24T04:42:34Z</time></trkpt><trkpt lat="-18.672832568350817" lon="121.9192382993726"><ele>43.5</ele><time>2026-04-24T04:42:35Z</time></trkpt><trkpt lat="-18.672606758432433" lon="121.91943903376733"><ele>43.0</ele><time>2026-04-24T04:42:36Z</time></trkpt><trkpt lat="-18.672382113050567" lon="121.91963858563655"><ele>43.0</ele><time>2026-04-24T04:42:37Z</time></trkpt><trkpt lat="-18.672162244546893" lon="121.91983572542988"><ele>43.0</ele><time>2026-04-24T04:42:38Z</time></trkpt><trkpt lat="-18.67194207817683" lon="121.92003187727661"><ele>45.0</ele><time>2026-04-24T04:42:39Z</time></trkpt><trkpt lat="-18.671723573770688" lon="121.92022600585028"><ele>47.0</ele><time>2026-04-24T04:42:40Z</time></trkpt><trkpt lat="-18.671502641782997" lon="121.92042073142163"><ele>47.0</ele><time>2026-04-24T04:42:41Z</time></trkpt><trkpt lat="-18.671282633366268" lon="121.92061789325614"><ele>47.0</ele><time>2026-04-24T04:42:42Z</time></trkpt><trkpt lat="-18.671062252586836" lon="121.92081800917893"><ele>47.5</ele><time>2026-04-24T04:42:43Z</time></trkpt><trkpt lat="-18.670841605502297" lon="121.9210199719009"><ele>48.0</ele><time>2026-04-24T04:42:44Z</time></trkpt><trkpt lat="-18.670618782529683" lon="121.92122376684019"><ele>48.0</ele><time>2026-04-24T04:42:45Z</time></trkpt><trkpt lat="-18.67039449728202" lon="121.921425510065"><ele>48.0</ele><time>2026-04-24T04:42:46Z</time></trkpt><trkpt lat="-18.67016764524735" lon="121.92162536827638"><ele>47.5</ele><time>2026-04-24T04:42:47Z</time></trkpt><trkpt lat="-18.669946225988763" lon="121.92182503909521"><ele>47.0</ele><time>2026-04-24T04:42:48Z</time></trkpt><trkpt lat="-18.66972310239728" lon="121.92202706130251"><ele>47.0</ele><time>2026-04-24T04:42:49Z</time></trkpt><trkpt lat="-18.669498395622163" lon="121.92222823676293"><ele>47.0</ele><time>2026-04-24T04:42:50Z</time></trkpt><trkpt lat="-18.669273549077015" lon="121.92242847423432"><ele>47.5</ele><time>2026-04-24T04:42:51Z</time></trkpt><trkpt lat="-18.669047224760103" lon="121.9226291673998"><ele>48.0</ele><time>2026-04-24T04:42:52Z</time></trkpt><trkpt lat="-18.66882126913119" lon="121.92282933238515"><ele>47.5</ele><time>2026-04-24T04:42:53Z</time></trkpt><trkpt lat="-18.66859654213593" lon="121.92302881721639"><ele>47.0</ele><time>2026-04-24T04:42:54Z</time></trkpt><trkpt lat="-18.668370868289603" lon="121.92323039074294"><ele>47.5</ele><time>2026-04-24T04:42:55Z</time></trkpt><trkpt lat="-18.668139369624743" lon="121.92343588392728"><ele>48.0</ele><time>2026-04-24T04:42:56Z</time></trkpt><trkpt lat="-18.667908391308686" lon="121.92364326194937"><ele>48.0</ele><time>2026-04-24T04:42:57Z</time></trkpt><trkpt lat="-18.66768097716313" lon="121.92385184764615"><ele>48.0</ele><time>2026-04-24T04:42:58Z</time></trkpt><trkpt lat="-18.667453940329374" lon="121.92405917082937"><ele>48.0</ele><time>2026-04-24T04:42:59Z</time></trkpt><trkpt lat="-18.667225460809924" lon="121.92426703806758"><ele>48.0</ele><time>2026-04-24T04:43:00Z</time></trkpt><trkpt lat="-18.666994648648213" lon="121.92447115420545"><ele>48.0</ele><time>2026-04-24T04:43:01Z</time></trkpt><trkpt lat="-18.666764401271216" lon="121.92467573558002"><ele>48.0</ele><time>2026-04-24T04:43:02Z</time></trkpt><trkpt lat="-18.666531973847356" lon="121.9248804169494"><ele>48.0</ele><time>2026-04-24T04:43:03Z</time></trkpt><trkpt lat="-18.66629818983762" lon="121.9250847149278"><ele>48.0</ele><time>2026-04-24T04:43:04Z</time></trkpt><trkpt lat="-18.666067069229996" lon="121.92528867476335"><ele>48.0</ele><time>2026-04-24T04:43:05Z</time></trkpt><trkpt lat="-18.6658372211922" lon="121.92549139039815"><ele>48.0</ele><time>2026-04-24T04:43:06Z</time></trkpt><trkpt lat="-18.665610117077854" lon="121.92569538944721"><ele>48.0</ele><time>2026-04-24T04:43:07Z</time></trkpt><trkpt lat="-18.665383551789716" lon="121.92589989986482"><ele>48.0</ele><time>2026-04-24T04:43:08Z</time></trkpt><trkpt lat="-18.66515846751489" lon="121.92610497617049"><ele>48.5</ele><time>2026-04-24T04:43:09Z</time></trkpt><trkpt lat="-18.6649349033662" lon="121.92630955574622"><ele>49.0</ele><time>2026-04-24T04:43:10Z</time></trkpt><trkpt lat="-18.66471207303462" lon="121.9265121907389"><ele>49.0</ele><time>2026-04-24T04:43:11Z</time></trkpt><trkpt lat="-18.664487021093173" lon="121.9267145957757"><ele>49.0</ele><time>2026-04-24T04:43:12Z</time></trkpt><trkpt lat="-18.664258786465105" lon="121.92691742188251"><ele>49.0</ele><time>2026-04-24T04:43:13Z</time></trkpt><trkpt lat="-18.664030596908557" lon="121.92711887846363"><ele>49.0</ele><time>2026-04-24T04:43:14Z</time></trkpt><trkpt lat="-18.66380126587435" lon="121.92732243507984"><ele>48.5</ele><time>2026-04-24T04:43:15Z</time></trkpt><trkpt lat="-18.66357256422483" lon="121.92752578240051"><ele>48.0</ele><time>2026-04-24T04:43:16Z</time></trkpt><trkpt lat="-18.66334481596055" lon="121.92772885221127"><ele>48.0</ele><time>2026-04-24T04:43:17Z</time></trkpt><trkpt lat="-18.663119274524657" lon="121.92793465555101"><ele>48.0</ele><time>2026-04-24T04:43:18Z</time></trkpt><trkpt lat="-18.662896425626197" lon="121.92813879634501"><ele>48.5</ele><time>2026-04-24T04:43:19Z</time></trkpt><trkpt lat="-18.662677326884324" lon="121.92833497796519"><ele>49.0</ele><time>2026-04-24T04:43:20Z</time></trkpt><trkpt lat="-18.66245681434369" lon="121.92852717526688"><ele>49.5</ele><time>2026-04-24T04:43:21Z</time></trkpt><trkpt lat="-18.662237171786305" lon="121.92872145189797"><ele>50.0</ele><time>2026-04-24T04:43:22Z</time></trkpt><trkpt lat="-18.662019203928327" lon="121.92891783758466"><ele>50.0</ele><time>2026-04-24T04:43:23Z</time></trkpt><trkpt lat="-18.66179861811036" lon="121.92911310818397"><ele>50.0</ele><time>2026-04-24T04:43:24Z</time></trkpt><trkpt lat="-18.661577867615225" lon="121.92930718288383"><ele>50.0</ele><time>2026-04-24T04:43:25Z</time></trkpt><trkpt lat="-18.661354790650204" lon="121.9295052100033"><ele>50.0</ele><time>2026-04-24T04:43:26Z</time></trkpt><trkpt lat="-18.66113511133264" lon="121.92970551855224"><ele>50.5</ele><time>2026-04-24T04:43:27Z</time></trkpt><trkpt lat="-18.660914062504162" lon="121.92990830916719"><ele>51.0</ele><time>2026-04-24T04:43:28Z</time></trkpt><trkpt lat="-18.660695987236938" lon="121.93010705225383"><ele>51.0</ele><time>2026-04-24T04:43:29Z</time></trkpt><trkpt lat="-18.660478642026852" lon="121.93030582001138"><ele>51.0</ele><time>2026-04-24T04:43:30Z</time></trkpt><trkpt lat="-18.66026058130138" lon="121.93050542677521"><ele>50.0</ele><time>2026-04-24T04:43:31Z</time></trkpt><trkpt lat="-18.66004136073905" lon="121.93070212251581"><ele>49.0</ele><time>2026-04-24T04:43:32Z</time></trkpt><trkpt lat="-18.65982149000709" lon="121.93089619039104"><ele>49.0</ele><time>2026-04-24T04:43:33Z</time></trkpt><trkpt lat="-18.659602617464188" lon="121.93108895776409"><ele>49.0</ele><time>2026-04-24T04:43:34Z</time></trkpt><trkpt lat="-18.65938864356207" lon="121.93128136487687"><ele>49.0</ele><time>2026-04-24T04:43:35Z</time></trkpt><trkpt lat="-18.659174385001336" lon="121.9314765473177"><ele>49.0</ele><time>2026-04-24T04:43:36Z</time></trkpt><trkpt lat="-18.658959396129532" lon="121.93167038337441"><ele>49.5</ele><time>2026-04-24T04:43:37Z</time></trkpt><trkpt lat="-18.658741624255878" lon="121.93186245728502"><ele>50.0</ele><time>2026-04-24T04:43:38Z</time></trkpt><trkpt lat="-18.658520596830567" lon="121.9320558899486"><ele>50.5</ele><time>2026-04-24T04:43:39Z</time></trkpt><trkpt lat="-18.65830065777501" lon="121.93224769432923"><ele>51.0</ele><time>2026-04-24T04:43:40Z</time></trkpt><trkpt lat="-18.65808189557732" lon="121.93244223924319"><ele>51.5</ele><time>2026-04-24T04:43:41Z</time></trkpt><trkpt lat="-18.657864093227147" lon="121.9326401330234"><ele>52.0</ele><time>2026-04-24T04:43:42Z</time></trkpt><trkpt lat="-18.657647474075098" lon="121.93283708752179"><ele>52.5</ele><time>2026-04-24T04:43:43Z</time></trkpt><trkpt lat="-18.65743079250343" lon="121.93303201695875"><ele>53.0</ele><time>2026-04-24T04:43:44Z</time></trkpt><trkpt lat="-18.657213074928674" lon="121.93322824105672"><ele>52.5</ele><time>2026-04-24T04:43:45Z</time></trkpt><trkpt lat="-18.656993860333774" lon="121.93342524669471"><ele>52.0</ele><time>2026-04-24T04:43:46Z</time></trkpt><trkpt lat="-18.656771354561354" lon="121.9336232234866"><ele>52.0</ele><time>2026-04-24T04:43:47Z</time></trkpt><trkpt lat="-18.656547375290057" lon="121.93382049879882"><ele>52.0</ele><time>2026-04-24T04:43:48Z</time></trkpt><trkpt lat="-18.65632767928718" lon="121.93401842401815"><ele>52.0</ele><time>2026-04-24T04:43:49Z</time></trkpt><trkpt lat="-18.65610775139123" lon="121.93421477644125"><ele>52.0</ele><time>2026-04-24T04:43:50Z</time></trkpt><trkpt lat="-18.655882843004225" lon="121.9344077209884"><ele>52.0</ele><time>2026-04-24T04:43:51Z</time></trkpt><trkpt lat="-18.655656772827" lon="121.9345928303436"><ele>52.0</ele><time>2026-04-24T04:43:52Z</time></trkpt><trkpt lat="-18.655443283166772" lon="121.93476612438818"><ele>51.5</ele><time>2026-04-24T04:43:53Z</time></trkpt><trkpt lat="-18.655235095187013" lon="121.93492305213695"><ele>51.0</ele><time>2026-04-24T04:43:54Z</time></trkpt><trkpt lat="-18.655019086443758" lon="121.93508265165498"><ele>51.0</ele><time>2026-04-24T04:43:55Z</time></trkpt><trkpt lat="-18.65479919453888" lon="121.93524512552955"><ele>51.0</ele><time>2026-04-24T04:43:56Z</time></trkpt><trkpt lat="-18.65457130774698" lon="121.93540829581282"><ele>51.5</ele><time>2026-04-24T04:43:57Z</time></trkpt><trkpt lat="-18.654338779191868" lon="121.93557058322817"><ele>52.0</ele><time>2026-04-24T04:43:58Z</time></trkpt><trkpt lat="-18.654100400450872" lon="121.93573048651595"><ele>51.0</ele><time>2026-04-24T04:43:59Z</time></trkpt><trkpt lat="-18.65385982260781" lon="121.9358912949433"><ele>50.0</ele><time>2026-04-24T04:44:00Z</time></trkpt><trkpt lat="-18.653611986954072" lon="121.93605041731793"><ele>49.5</ele><time>2026-04-24T04:44:01Z</time></trkpt><trkpt lat="-18.653361939687382" lon="121.93621097823794"><ele>49.0</ele><time>2026-04-24T04:44:02Z</time></trkpt><trkpt lat="-18.653107116439735" lon="121.93637136630561"><ele>49.0</ele><time>2026-04-24T04:44:03Z</time></trkpt><trkpt lat="-18.6528471136319" lon="121.93653534100962"><ele>49.0</ele><time>2026-04-24T04:44:04Z</time></trkpt><trkpt lat="-18.652587653554995" lon="121.93670249305623"><ele>48.5</ele><time>2026-04-24T04:44:05Z</time></trkpt><trkpt lat="-18.6523267342192" lon="121.9368740126135"><ele>48.0</ele><time>2026-04-24T04:44:06Z</time></trkpt><trkpt lat="-18.652069967554137" lon="121.9370422052897"><ele>48.0</ele><time>2026-04-24T04:44:07Z</time></trkpt><trkpt lat="-18.65180925253407" lon="121.9372127191228"><ele>48.0</ele><time>2026-04-24T04:44:08Z</time></trkpt><trkpt lat="-18.651548707602625" lon="121.93738279116901"><ele>47.0</ele><time>2026-04-24T04:44:09Z</time></trkpt><trkpt lat="-18.651293708553787" lon="121.93755247414832"><ele>46.0</ele><time>2026-04-24T04:44:10Z</time></trkpt><trkpt lat="-18.65103139576699" lon="121.9377060869131"><ele>45.0</ele><time>2026-04-24T04:44:11Z</time></trkpt><trkpt lat="-18.650777013913515" lon="121.93786953510873"><ele>44.0</ele><time>2026-04-24T04:44:12Z</time></trkpt><trkpt lat="-18.650521061414462" lon="121.93803535292813"><ele>44.0</ele><time>2026-04-24T04:44:13Z</time></trkpt><trkpt lat="-18.650274580120502" lon="121.93821553751607"><ele>44.0</ele><time>2026-04-24T04:44:14Z</time></trkpt><trkpt lat="-18.650015639426485" lon="121.93837622365402"><ele>44.5</ele><time>2026-04-24T04:44:15Z</time></trkpt><trkpt lat="-18.649757270302768" lon="121.93853803741283"><ele>45.0</ele><time>2026-04-24T04:44:16Z</time></trkpt><trkpt lat="-18.64950143350048" lon="121.93870132210246"><ele>44.5</ele><time>2026-04-24T04:44:17Z</time></trkpt><trkpt lat="-18.64924573617638" lon="121.9388659795344"><ele>44.0</ele><time>2026-04-24T04:44:18Z</time></trkpt><trkpt lat="-18.648993215266113" lon="121.9390345728484"><ele>44.0</ele><time>2026-04-24T04:44:19Z</time></trkpt><trkpt lat="-18.648739898844845" lon="121.93919958138976"><ele>44.0</ele><time>2026-04-24T04:44:20Z</time></trkpt><trkpt lat="-18.64848682793172" lon="121.93936038008209"><ele>42.5</ele><time>2026-04-24T04:44:21Z</time></trkpt><trkpt lat="-18.64823542851323" lon="121.9395252197774"><ele>41.0</ele><time>2026-04-24T04:44:22Z</time></trkpt><trkpt lat="-18.64798400200069" lon="121.93969121004551"><ele>42.0</ele><time>2026-04-24T04:44:23Z</time></trkpt><trkpt lat="-18.647729680357365" lon="121.93985576224394"><ele>43.0</ele><time>2026-04-24T04:44:24Z</time></trkpt><trkpt lat="-18.647476384279216" lon="121.94001737714309"><ele>41.5</ele><time>2026-04-24T04:44:25Z</time></trkpt><trkpt lat="-18.647223241356603" lon="121.9401774853311"><ele>40.0</ele><time>2026-04-24T04:44:26Z</time></trkpt><trkpt lat="-18.646969147855412" lon="121.94034391433136"><ele>40.0</ele><time>2026-04-24T04:44:27Z</time></trkpt><trkpt lat="-18.64671970982944" lon="121.94050823606723"><ele>40.0</ele><time>2026-04-24T04:44:28Z</time></trkpt><trkpt lat="-18.64647234692153" lon="121.94067468196307"><ele>40.0</ele><time>2026-04-24T04:44:29Z</time></trkpt><trkpt lat="-18.646223619935014" lon="121.94084158992527"><ele>40.0</ele><time>2026-04-24T04:44:30Z</time></trkpt><trkpt lat="-18.645966955833966" lon="121.94098858317143"><ele>39.0</ele><time>2026-04-24T04:44:31Z</time></trkpt><trkpt lat="-18.645729102130762" lon="121.94116154783784"><ele>38.0</ele><time>2026-04-24T04:44:32Z</time></trkpt><trkpt lat="-18.64548320108001" lon="121.94131908939697"><ele>38.0</ele><time>2026-04-24T04:44:33Z</time></trkpt><trkpt lat="-18.645235487310153" lon="121.94147588578902"><ele>38.0</ele><time>2026-04-24T04:44:34Z</time></trkpt><trkpt lat="-18.644987878381862" lon="121.94163170125786"><ele>38.0</ele><time>2026-04-24T04:44:35Z</time></trkpt><trkpt lat="-18.644736602200066" lon="121.9417883912613"><ele>38.0</ele><time>2026-04-24T04:44:36Z</time></trkpt><trkpt lat="-18.644489906088" lon="121.94194522391432"><ele>38.0</ele><time>2026-04-24T04:44:37Z</time></trkpt><trkpt lat="-18.644246758848837" lon="121.9421045156935"><ele>38.0</ele><time>2026-04-24T04:44:38Z</time></trkpt><trkpt lat="-18.644007200177644" lon="121.94226777149123"><ele>38.0</ele><time>2026-04-24T04:44:39Z</time></trkpt><trkpt lat="-18.64376658504441" lon="121.9424280618961"><ele>38.0</ele><time>2026-04-24T04:44:40Z</time></trkpt><trkpt lat="-18.643528015267645" lon="121.94258942181881"><ele>38.0</ele><time>2026-04-24T04:44:41Z</time></trkpt><trkpt lat="-18.643276675533826" lon="121.94273166399172"><ele>38.0</ele><time>2026-04-24T04:44:42Z</time></trkpt><trkpt lat="-18.643034947332925" lon="121.9428890481262"><ele>38.0</ele><time>2026-04-24T04:44:43Z</time></trkpt><trkpt lat="-18.642800108220957" lon="121.9430614168707"><ele>38.0</ele><time>2026-04-24T04:44:44Z</time></trkpt><trkpt lat="-18.64255294937324" lon="121.94321567030858"><ele>37.5</ele><time>2026-04-24T04:44:45Z</time></trkpt><trkpt lat="-18.642309693111454" lon="121.94337103434273"><ele>37.0</ele><time>2026-04-24T04:44:46Z</time></trkpt><trkpt lat="-18.642069626357387" lon="121.94352801461878"><ele>36.0</ele><time>2026-04-24T04:44:47Z</time></trkpt><trkpt lat="-18.641827467254377" lon="121.94368957014537"><ele>35.0</ele><time>2026-04-24T04:44:48Z</time></trkpt><trkpt lat="-18.641584155834465" lon="121.94385139173517"><ele>35.0</ele><time>2026-04-24T04:44:49Z</time></trkpt><trkpt lat="-18.641334316526493" lon="121.94399422343874"><ele>35.0</ele><time>2026-04-24T04:44:50Z</time></trkpt><trkpt lat="-18.641092255960416" lon="121.94415141052366"><ele>35.5</ele><time>2026-04-24T04:44:51Z</time></trkpt><trkpt lat="-18.640850173813106" lon="121.9443079390589"><ele>36.0</ele><time>2026-04-24T04:44:52Z</time></trkpt><trkpt lat="-18.640608280242724" lon="121.94446437510308"><ele>36.0</ele><time>2026-04-24T04:44:53Z</time></trkpt><trkpt lat="-18.640368938500682" lon="121.94462052124697"><ele>36.0</ele><time>2026-04-24T04:44:54Z</time></trkpt><trkpt lat="-18.64012983470201" lon="121.94477425543255"><ele>35.0</ele><time>2026-04-24T04:44:55Z</time></trkpt><trkpt lat="-18.63989219383963" lon="121.94492951514985"><ele>34.0</ele><time>2026-04-24T04:44:56Z</time></trkpt><trkpt lat="-18.63965834711641" lon="121.94510063432269"><ele>34.5</ele><time>2026-04-24T04:44:57Z</time></trkpt><trkpt lat="-18.639415562716184" lon="121.94525730716745"><ele>35.0</ele><time>2026-04-24T04:44:58Z</time></trkpt><trkpt lat="-18.639187299163954" lon="121.9454026802215"><ele>35.0</ele><time>2026-04-24T04:44:59Z</time></trkpt><trkpt lat="-18.6389578605508" lon="121.94554380997157"><ele>35.0</ele><time>2026-04-24T04:45:00Z</time></trkpt><trkpt lat="-18.638719987508424" lon="121.9456941983488"><ele>34.5</ele><time>2026-04-24T04:45:01Z</time></trkpt><trkpt lat="-18.638482552429682" lon="121.94584978559688"><ele>34.0</ele><time>2026-04-24T04:45:02Z</time></trkpt><trkpt lat="-18.6382492579067" lon="121.94600654518275"><ele>34.0</ele><time>2026-04-24T04:45:03Z</time></trkpt><trkpt lat="-18.638016384006136" lon="121.94616010502665"><ele>34.0</ele><time>2026-04-24T04:45:04Z</time></trkpt><trkpt lat="-18.637773789205898" lon="121.94631188579315"><ele>34.0</ele><time>2026-04-24T04:45:05Z</time></trkpt><trkpt lat="-18.637534096123336" lon="121.94646359080775"><ele>34.0</ele><time>2026-04-24T04:45:06Z</time></trkpt><trkpt lat="-18.637294299968392" lon="121.94662014140036"><ele>34.0</ele><time>2026-04-24T04:45:07Z</time></trkpt><trkpt lat="-18.63705730466727" lon="121.94677573394372"><ele>34.0</ele><time>2026-04-24T04:45:08Z</time></trkpt><trkpt lat="-18.63681473667936" lon="121.94693234395234"><ele>35.0</ele><time>2026-04-24T04:45:09Z</time></trkpt><trkpt lat="-18.636573659716838" lon="121.94708763293924"><ele>36.0</ele><time>2026-04-24T04:45:10Z</time></trkpt><trkpt lat="-18.636333690115965" lon="121.94724448817335"><ele>35.5</ele><time>2026-04-24T04:45:11Z</time></trkpt><trkpt lat="-18.636091711772888" lon="121.94740120652595"><ele>35.0</ele><time>2026-04-24T04:45:12Z</time></trkpt><trkpt lat="-18.635844758096308" lon="121.94755929070912"><ele>36.0</ele><time>2026-04-24T04:45:13Z</time></trkpt><trkpt lat="-18.6355994878442" lon="121.94771819051292"><ele>37.0</ele><time>2026-04-24T04:45:14Z</time></trkpt><trkpt lat="-18.63535261855325" lon="121.94787879626439"><ele>36.0</ele><time>2026-04-24T04:45:15Z</time></trkpt><trkpt lat="-18.635104900854863" lon="121.94804100232693"><ele>35.0</ele><time>2026-04-24T04:45:16Z</time></trkpt><trkpt lat="-18.634858769869588" lon="121.94820716265981"><ele>34.5</ele><time>2026-04-24T04:45:17Z</time></trkpt><trkpt lat="-18.634614522580428" lon="121.94837884005817"><ele>34.0</ele><time>2026-04-24T04:45:18Z</time></trkpt><trkpt lat="-18.63437148603508" lon="121.94855080226986"><ele>34.0</ele><time>2026-04-24T04:45:19Z</time></trkpt><trkpt lat="-18.63413224408426" lon="121.94871491994297"><ele>34.0</ele><time>2026-04-24T04:45:20Z</time></trkpt><trkpt lat="-18.633886054739207" lon="121.94886743968321"><ele>34.0</ele><time>2026-04-24T04:45:21Z</time></trkpt><trkpt lat="-18.633636186399265" lon="121.94901731657387"><ele>34.0</ele><time>2026-04-24T04:45:22Z</time></trkpt><trkpt lat="-18.633385099133807" lon="121.9491692053553"><ele>34.5</ele><time>2026-04-24T04:45:23Z</time></trkpt><trkpt lat="-18.633133261462838" lon="121.94932542478686"><ele>35.0</ele><time>2026-04-24T04:45:24Z</time></trkpt><trkpt lat="-18.63288386063223" lon="121.94948445788648"><ele>35.5</ele><time>2026-04-24T04:45:25Z</time></trkpt><trkpt lat="-18.632632935123862" lon="121.9496483400342"><ele>36.0</ele><time>2026-04-24T04:45:26Z</time></trkpt><trkpt lat="-18.632385956846274" lon="121.94981173688504"><ele>36.0</ele><time>2026-04-24T04:45:27Z</time></trkpt><trkpt lat="-18.632142760920427" lon="121.94997156157737"><ele>36.0</ele><time>2026-04-24T04:45:28Z</time></trkpt><trkpt lat="-18.6318981036348" lon="121.95013051434157"><ele>36.5</ele><time>2026-04-24T04:45:29Z</time></trkpt><trkpt lat="-18.63165049477112" lon="121.95028863647751"><ele>37.0</ele><time>2026-04-24T04:45:30Z</time></trkpt><trkpt lat="-18.631404135474813" lon="121.95044392972045"><ele>37.0</ele><time>2026-04-24T04:45:31Z</time></trkpt><trkpt lat="-18.63115965435283" lon="121.95060029817932"><ele>37.0</ele><time>2026-04-24T04:45:32Z</time></trkpt><trkpt lat="-18.63091337960217" lon="121.95075776174995"><ele>37.5</ele><time>2026-04-24T04:45:33Z</time></trkpt><trkpt lat="-18.630669601690425" lon="121.95092097816168"><ele>38.0</ele><time>2026-04-24T04:45:34Z</time></trkpt><trkpt lat="-18.63042216878292" lon="121.95108589315942"><ele>38.5</ele><time>2026-04-24T04:45:35Z</time></trkpt><trkpt lat="-18.630169158446154" lon="121.95125112552513"><ele>39.0</ele><time>2026-04-24T04:45:36Z</time></trkpt><trkpt lat="-18.629911714434648" lon="121.95141443973004"><ele>39.0</ele><time>2026-04-24T04:45:37Z</time></trkpt><trkpt lat="-18.629657046357124" lon="121.95157609848765"><ele>39.0</ele><time>2026-04-24T04:45:38Z</time></trkpt><trkpt lat="-18.629405884155364" lon="121.95173754405104"><ele>39.5</ele><time>2026-04-24T04:45:39.001Z</time></trkpt><trkpt lat="-18.629157031924922" lon="121.9519014888133"><ele>40.0</ele><time>2026-04-24T04:45:40.001Z</time></trkpt><trkpt lat="-18.62890782313513" lon="121.95206648324503"><ele>40.0</ele><time>2026-04-24T04:45:41.001Z</time></trkpt><trkpt lat="-18.6286566967554" lon="121.95222962010156"><ele>40.0</ele><time>2026-04-24T04:45:42.001Z</time></trkpt><trkpt lat="-18.628403557542438" lon="121.95238988848793"><ele>40.5</ele><time>2026-04-24T04:45:43.001Z</time></trkpt><trkpt lat="-18.628152502329257" lon="121.95254977854104"><ele>41.0</ele><time>2026-04-24T04:45:44Z</time></trkpt><trkpt lat="-18.627902448155155" lon="121.95270995176925"><ele>41.5</ele><time>2026-04-24T04:45:45Z</time></trkpt><trkpt lat="-18.62765445268546" lon="121.9528711044374"><ele>42.0</ele><time>2026-04-24T04:45:46Z</time></trkpt><trkpt lat="-18.627406206517264" lon="121.95303442495326"><ele>42.0</ele><time>2026-04-24T04:45:47Z</time></trkpt><trkpt lat="-18.627155151375504" lon="121.95319555999552"><ele>42.0</ele><time>2026-04-24T04:45:48Z</time></trkpt><trkpt lat="-18.626901312547467" lon="121.9533581868978"><ele>42.5</ele><time>2026-04-24T04:45:49Z</time></trkpt><trkpt lat="-18.62665008454161" lon="121.95351967573619"><ele>43.0</ele><time>2026-04-24T04:45:50Z</time></trkpt><trkpt lat="-18.626399827562565" lon="121.95368058251772"><ele>43.0</ele><time>2026-04-24T04:45:51Z</time></trkpt><trkpt lat="-18.626149810578205" lon="121.95384556667611"><ele>43.0</ele><time>2026-04-24T04:45:52Z</time></trkpt><trkpt lat="-18.625898462762372" lon="121.95401163407612"><ele>43.5</ele><time>2026-04-24T04:45:53Z</time></trkpt><trkpt lat="-18.625645615025025" lon="121.95417797822402"><ele>44.0</ele><time>2026-04-24T04:45:54Z</time></trkpt><trkpt lat="-18.62538925970023" lon="121.95434622737086"><ele>42.5</ele><time>2026-04-24T04:45:55Z</time></trkpt><trkpt lat="-18.62513132923381" lon="121.95451150091604"><ele>41.0</ele><time>2026-04-24T04:45:56Z</time></trkpt><trkpt lat="-18.62487338516105" lon="121.9546738483074"><ele>41.0</ele><time>2026-04-24T04:45:57Z</time></trkpt><trkpt lat="-18.624621154555413" lon="121.95483487511764"><ele>41.0</ele><time>2026-04-24T04:45:58Z</time></trkpt><trkpt lat="-18.624373181435452" lon="121.9549968741044"><ele>43.0</ele><time>2026-04-24T04:45:59Z</time></trkpt><trkpt lat="-18.624123799635647" lon="121.95515959398618"><ele>45.0</ele><time>2026-04-24T04:46:00Z</time></trkpt><trkpt lat="-18.62387325002273" lon="121.95532284050704"><ele>44.5</ele><time>2026-04-24T04:46:01Z</time></trkpt><trkpt lat="-18.623621497584192" lon="121.95548501408777"><ele>44.0</ele><time>2026-04-24T04:46:02Z</time></trkpt><trkpt lat="-18.623371286802573" lon="121.95564578373475"><ele>44.0</ele><time>2026-04-24T04:46:03Z</time></trkpt><trkpt lat="-18.623120946847315" lon="121.95580689487257"><ele>44.0</ele><time>2026-04-24T04:46:04Z</time></trkpt><trkpt lat="-18.622871556030976" lon="121.95597057863546"><ele>46.0</ele><time>2026-04-24T04:46:05Z</time></trkpt><trkpt lat="-18.622626188172642" lon="121.95613450410237"><ele>48.0</ele><time>2026-04-24T04:46:06Z</time></trkpt><trkpt lat="-18.622380162516016" lon="121.95629779049733"><ele>48.0</ele><time>2026-04-24T04:46:07Z</time></trkpt><trkpt lat="-18.622133164692922" lon="121.95645850548325"><ele>48.0</ele><time>2026-04-24T04:46:08Z</time></trkpt><trkpt lat="-18.62188645472181" lon="121.95661741401977"><ele>48.5</ele><time>2026-04-24T04:46:09Z</time></trkpt><trkpt lat="-18.621638854946468" lon="121.95677796861098"><ele>49.0</ele><time>2026-04-24T04:46:10Z</time></trkpt><trkpt lat="-18.621391729381816" lon="121.95693742994962"><ele>48.0</ele><time>2026-04-24T04:46:11Z</time></trkpt><trkpt lat="-18.621142627453892" lon="121.95709474980117"><ele>47.0</ele><time>2026-04-24T04:46:12Z</time></trkpt><trkpt lat="-18.620892065039193" lon="121.95725148289631"><ele>47.0</ele><time>2026-04-24T04:46:13Z</time></trkpt><trkpt lat="-18.620643359150055" lon="121.95740960130722"><ele>47.0</ele><time>2026-04-24T04:46:14Z</time></trkpt><trkpt lat="-18.620393072891005" lon="121.95757150027525"><ele>48.0</ele><time>2026-04-24T04:46:15Z</time></trkpt><trkpt lat="-18.620141794508758" lon="121.95773526288157"><ele>49.0</ele><time>2026-04-24T04:46:16Z</time></trkpt><trkpt lat="-18.619889957417993" lon="121.95790138790117"><ele>49.0</ele><time>2026-04-24T04:46:17Z</time></trkpt><trkpt lat="-18.619648403563094" lon="121.95805891503836"><ele>49.0</ele><time>2026-04-24T04:46:18Z</time></trkpt><trkpt lat="-18.61942089496329" lon="121.95820692892977"><ele>49.0</ele><time>2026-04-24T04:46:19Z</time></trkpt><trkpt lat="-18.619192758272973" lon="121.95835473126624"><ele>49.0</ele><time>2026-04-24T04:46:20Z</time></trkpt><trkpt lat="-18.618957484371798" lon="121.95850583569941"><ele>49.0</ele><time>2026-04-24T04:46:21Z</time></trkpt><trkpt lat="-18.61872007926564" lon="121.95866053143706"><ele>49.0</ele><time>2026-04-24T04:46:22Z</time></trkpt><trkpt lat="-18.61848084820562" lon="121.95881712130422"><ele>50.0</ele><time>2026-04-24T04:46:23Z</time></trkpt><trkpt lat="-18.618234612746203" lon="121.95897533840676"><ele>51.0</ele><time>2026-04-24T04:46:24Z</time></trkpt><trkpt lat="-18.617985334494268" lon="121.95913294373841"><ele>51.0</ele><time>2026-04-24T04:46:25Z</time></trkpt><trkpt lat="-18.617736734642836" lon="121.95929162964342"><ele>51.0</ele><time>2026-04-24T04:46:26Z</time></trkpt><trkpt lat="-18.617491339519876" lon="121.95945066464095"><ele>51.0</ele><time>2026-04-24T04:46:27Z</time></trkpt><trkpt lat="-18.617244442155314" lon="121.95961065101095"><ele>51.0</ele><time>2026-04-24T04:46:28Z</time></trkpt><trkpt lat="-18.61700069286134" lon="121.9597698114145"><ele>51.0</ele><time>2026-04-24T04:46:29Z</time></trkpt><trkpt lat="-18.61675577515197" lon="121.95993211218502"><ele>51.0</ele><time>2026-04-24T04:46:30Z</time></trkpt><trkpt lat="-18.61651205888909" lon="121.96009344791185"><ele>51.0</ele><time>2026-04-24T04:46:31Z</time></trkpt><trkpt lat="-18.61626886273835" lon="121.96025322648313"><ele>51.0</ele><time>2026-04-24T04:46:32Z</time></trkpt><trkpt lat="-18.61602296699289" lon="121.96041106797799"><ele>51.0</ele><time>2026-04-24T04:46:33Z</time></trkpt><trkpt lat="-18.615778547928734" lon="121.96057037335807"><ele>51.0</ele><time>2026-04-24T04:46:34Z</time></trkpt><trkpt lat="-18.61553149310665" lon="121.96073045515311"><ele>53.0</ele><time>2026-04-24T04:46:35Z</time></trkpt><trkpt lat="-18.61528370331397" lon="121.96089174669542"><ele>55.0</ele><time>2026-04-24T04:46:36Z</time></trkpt><trkpt lat="-18.615035718184107" lon="121.96104972458099"><ele>55.0</ele><time>2026-04-24T04:46:37Z</time></trkpt><trkpt lat="-18.614788452068133" lon="121.9612093431148"><ele>55.0</ele><time>2026-04-24T04:46:38Z</time></trkpt><trkpt lat="-18.614539758779422" lon="121.96137293017767"><ele>54.0</ele><time>2026-04-24T04:46:39Z</time></trkpt><trkpt lat="-18.614290440952704" lon="121.96153706869536"><ele>53.0</ele><time>2026-04-24T04:46:40Z</time></trkpt><trkpt lat="-18.61403884014895" lon="121.96170043363415"><ele>53.0</ele><time>2026-04-24T04:46:41Z</time></trkpt><trkpt lat="-18.613784629345744" lon="121.96186002710122"><ele>53.0</ele><time>2026-04-24T04:46:42Z</time></trkpt><trkpt lat="-18.6135300205548" lon="121.96201853560875"><ele>54.0</ele><time>2026-04-24T04:46:43Z</time></trkpt><trkpt lat="-18.613280678718702" lon="121.96217777846074"><ele>55.0</ele><time>2026-04-24T04:46:44Z</time></trkpt><trkpt lat="-18.61303242708703" lon="121.96233979927867"><ele>55.0</ele><time>2026-04-24T04:46:45Z</time></trkpt><trkpt lat="-18.612786418930757" lon="121.96250088840911"><ele>55.0</ele><time>2026-04-24T04:46:46Z</time></trkpt><trkpt lat="-18.612539293038346" lon="121.96266175913192"><ele>54.5</ele><time>2026-04-24T04:46:47Z</time></trkpt><trkpt lat="-18.612292266949215" lon="121.96282409327014"><ele>54.0</ele><time>2026-04-24T04:46:48Z</time></trkpt><trkpt lat="-18.612044792139287" lon="121.96298623697147"><ele>55.5</ele><time>2026-04-24T04:46:49Z</time></trkpt><trkpt lat="-18.611797232418205" lon="121.96314598246302"><ele>57.0</ele><time>2026-04-24T04:46:50Z</time></trkpt><trkpt lat="-18.611552115570536" lon="121.96330074879273"><ele>57.0</ele><time>2026-04-24T04:46:51Z</time></trkpt><trkpt lat="-18.61130830095662" lon="121.963459054635"><ele>57.0</ele><time>2026-04-24T04:46:52Z</time></trkpt><trkpt lat="-18.611063181424672" lon="121.96361829500087"><ele>57.0</ele><time>2026-04-24T04:46:53Z</time></trkpt><trkpt lat="-18.61081913841631" lon="121.96377861106022"><ele>57.0</ele><time>2026-04-24T04:46:54Z</time></trkpt><trkpt lat="-18.610575045394295" lon="121.96393544999573"><ele>57.0</ele><time>2026-04-24T04:46:55Z</time></trkpt><trkpt lat="-18.61033438415568" lon="121.96409153162479"><ele>57.0</ele><time>2026-04-24T04:46:56Z</time></trkpt><trkpt lat="-18.610096838835382" lon="121.96424626929992"><ele>57.5</ele><time>2026-04-24T04:46:57Z</time></trkpt><trkpt lat="-18.60986099403024" lon="121.9644013656384"><ele>58.0</ele><time>2026-04-24T04:46:58Z</time></trkpt><trkpt lat="-18.6096277384044" lon="121.96455322002521"><ele>57.0</ele><time>2026-04-24T04:46:59Z</time></trkpt><trkpt lat="-18.609394273122927" lon="121.96470961720685"><ele>56.0</ele><time>2026-04-24T04:47:00Z</time></trkpt><trkpt lat="-18.609159744540836" lon="121.96486747318194"><ele>56.0</ele><time>2026-04-24T04:47:01Z</time></trkpt><trkpt lat="-18.60892597324265" lon="121.96503220751048"><ele>56.0</ele><time>2026-04-24T04:47:02Z</time></trkpt><trkpt lat="-18.608696578813515" lon="121.96520172393572"><ele>55.0</ele><time>2026-04-24T04:47:03Z</time></trkpt><trkpt lat="-18.60846870104574" lon="121.96537635252875"><ele>54.0</ele><time>2026-04-24T04:47:04Z</time></trkpt><trkpt lat="-18.60823874866045" lon="121.96555426197837"><ele>54.0</ele><time>2026-04-24T04:47:05Z</time></trkpt><trkpt lat="-18.60800916342936" lon="121.96573383238999"><ele>54.0</ele><time>2026-04-24T04:47:06Z</time></trkpt><trkpt lat="-18.60777849174455" lon="121.96591698466239"><ele>54.5</ele><time>2026-04-24T04:47:07Z</time></trkpt><trkpt lat="-18.607550014095516" lon="121.96610464005542"><ele>55.0</ele><time>2026-04-24T04:47:08Z</time></trkpt><trkpt lat="-18.60732386153616" lon="121.96629264833967"><ele>55.0</ele><time>2026-04-24T04:47:09Z</time></trkpt><trkpt lat="-18.60709618397372" lon="121.9664803399445"><ele>55.0</ele><time>2026-04-24T04:47:10Z</time></trkpt><trkpt lat="-18.606866820280604" lon="121.96666444162881"><ele>56.0</ele><time>2026-04-24T04:47:11Z</time></trkpt><trkpt lat="-18.606640767582604" lon="121.9668473911966"><ele>57.0</ele><time>2026-04-24T04:47:12Z</time></trkpt><trkpt lat="-18.60641519748847" lon="121.96703028796145"><ele>57.0</ele><time>2026-04-24T04:47:13Z</time></trkpt><trkpt lat="-18.60619314287965" lon="121.96720874042575"><ele>57.0</ele><time>2026-04-24T04:47:14Z</time></trkpt><trkpt lat="-18.60597128050132" lon="121.96738757361327"><ele>54.5</ele><time>2026-04-24T04:47:15Z</time></trkpt><trkpt lat="-18.605752360425424" lon="121.96756383383862"><ele>52.0</ele><time>2026-04-24T04:47:16Z</time></trkpt><trkpt lat="-18.605533840243098" lon="121.96773896116852"><ele>51.5</ele><time>2026-04-24T04:47:17Z</time></trkpt><trkpt lat="-18.60531785485547" lon="121.96791629063395"><ele>51.0</ele><time>2026-04-24T04:47:18Z</time></trkpt><trkpt lat="-18.605106535522182" lon="121.96809237521286"><ele>51.0</ele><time>2026-04-24T04:47:19Z</time></trkpt><trkpt lat="-18.604886095466878" lon="121.96825225770321"><ele>51.0</ele><time>2026-04-24T04:47:20Z</time></trkpt><trkpt lat="-18.604675985361258" lon="121.96842252902944"><ele>52.0</ele><time>2026-04-24T04:47:21Z</time></trkpt><trkpt lat="-18.604477574466056" lon="121.96860432420958"><ele>53.0</ele><time>2026-04-24T04:47:22Z</time></trkpt><trkpt lat="-18.604267902797133" lon="121.96877019882835"><ele>53.0</ele><time>2026-04-24T04:47:23Z</time></trkpt><trkpt lat="-18.60405911403904" lon="121.96893520215457"><ele>53.0</ele><time>2026-04-24T04:47:24Z</time></trkpt><trkpt lat="-18.603851065272814" lon="121.96909926094682"><ele>51.0</ele><time>2026-04-24T04:47:25Z</time></trkpt><trkpt lat="-18.603638274214074" lon="121.96926803793012"><ele>49.0</ele><time>2026-04-24T04:47:26Z</time></trkpt><trkpt lat="-18.603424747506338" lon="121.96943975555267"><ele>49.0</ele><time>2026-04-24T04:47:27Z</time></trkpt><trkpt lat="-18.60320913960048" lon="121.96961510080416"><ele>49.0</ele><time>2026-04-24T04:47:28Z</time></trkpt><trkpt lat="-18.602993182635995" lon="121.96978930226004"><ele>49.5</ele><time>2026-04-24T04:47:29Z</time></trkpt><trkpt lat="-18.602774804937674" lon="121.96996635473461"><ele>50.0</ele><time>2026-04-24T04:47:30Z</time></trkpt><trkpt lat="-18.60255629600275" lon="121.97014282681664"><ele>50.0</ele><time>2026-04-24T04:47:31Z</time></trkpt><trkpt lat="-18.602334934087043" lon="121.9703223844359"><ele>50.0</ele><time>2026-04-24T04:47:32Z</time></trkpt><trkpt lat="-18.602114842450085" lon="121.97050032329719"><ele>48.5</ele><time>2026-04-24T04:47:33Z</time></trkpt><trkpt lat="-18.601895450777537" lon="121.97067806359215"><ele>47.0</ele><time>2026-04-24T04:47:34Z</time></trkpt><trkpt lat="-18.601674612378343" lon="121.97085640614355"><ele>47.0</ele><time>2026-04-24T04:47:35Z</time></trkpt><trkpt lat="-18.60145003048265" lon="121.97103666125565"><ele>47.0</ele><time>2026-04-24T04:47:36Z</time></trkpt><trkpt lat="-18.601229977229597" lon="121.97121337510285"><ele>46.5</ele><time>2026-04-24T04:47:37Z</time></trkpt><trkpt lat="-18.60100944812459" lon="121.9713919097707"><ele>46.0</ele><time>2026-04-24T04:47:38Z</time></trkpt><trkpt lat="-18.60078879079047" lon="121.9715716411042"><ele>46.5</ele><time>2026-04-24T04:47:39Z</time></trkpt><trkpt lat="-18.60056700150793" lon="121.9717524414963"><ele>47.0</ele><time>2026-04-24T04:47:40Z</time></trkpt><trkpt lat="-18.600345725511964" lon="121.97193267317938"><ele>45.5</ele><time>2026-04-24T04:47:41Z</time></trkpt><trkpt lat="-18.600120873459556" lon="121.97211615652625"><ele>44.0</ele><time>2026-04-24T04:47:42Z</time></trkpt><trkpt lat="-18.59989758913321" lon="121.97230140079468"><ele>44.0</ele><time>2026-04-24T04:47:43Z</time></trkpt><trkpt lat="-18.599672438740054" lon="121.97248527232428"><ele>44.0</ele><time>2026-04-24T04:47:44Z</time></trkpt><trkpt lat="-18.599446617891036" lon="121.97266668206052"><ele>43.0</ele><time>2026-04-24T04:47:45Z</time></trkpt><trkpt lat="-18.599218028533613" lon="121.97284673436113"><ele>42.0</ele><time>2026-04-24T04:47:46.001Z</time></trkpt><trkpt lat="-18.59899029519786" lon="121.97302561723271"><ele>42.0</ele><time>2026-04-24T04:47:47.001Z</time></trkpt><trkpt lat="-18.5987638692099" lon="121.97320812876741"><ele>42.0</ele><time>2026-04-24T04:47:48.001Z</time></trkpt><trkpt lat="-18.59853571066212" lon="121.97339330830117"><ele>40.5</ele><time>2026-04-24T04:47:49.001Z</time></trkpt><trkpt lat="-18.598305504111" lon="121.97358087553347"><ele>39.0</ele><time>2026-04-24T04:47:50Z</time></trkpt><trkpt lat="-18.59807613226018" lon="121.97376848979678"><ele>39.0</ele><time>2026-04-24T04:47:51Z</time></trkpt><trkpt lat="-18.597847539133323" lon="121.9739571162339"><ele>39.0</ele><time>2026-04-24T04:47:52Z</time></trkpt><trkpt lat="-18.597620630058387" lon="121.9741439388029"><ele>39.0</ele><time>2026-04-24T04:47:53Z</time></trkpt><trkpt lat="-18.597392884938838" lon="121.97432787221324"><ele>39.0</ele><time>2026-04-24T04:47:54Z</time></trkpt><trkpt lat="-18.597163177653087" lon="121.97451424468123"><ele>40.5</ele><time>2026-04-24T04:47:55Z</time></trkpt><trkpt lat="-18.596939158194978" lon="121.9746957352242"><ele>42.0</ele><time>2026-04-24T04:47:56Z</time></trkpt><trkpt lat="-18.59673122913812" lon="121.97486435352305"><ele>40.5</ele><time>2026-04-24T04:47:57Z</time></trkpt><trkpt lat="-18.596523361644476" lon="121.97503239501657"><ele>39.0</ele><time>2026-04-24T04:47:58Z</time></trkpt><trkpt lat="-18.59631054175581" lon="121.97520345606651"><ele>37.0</ele><time>2026-04-24T04:47:59Z</time></trkpt><trkpt lat="-18.596094664278507" lon="121.97537922282787"><ele>35.0</ele><time>2026-04-24T04:48:00Z</time></trkpt><trkpt lat="-18.595879477196736" lon="121.97555665674793"><ele>35.0</ele><time>2026-04-24T04:48:01Z</time></trkpt><trkpt lat="-18.595657822350088" lon="121.97573435665328"><ele>35.0</ele><time>2026-04-24T04:48:02Z</time></trkpt><trkpt lat="-18.595435702703394" lon="121.97591169647131"><ele>33.5</ele><time>2026-04-24T04:48:03Z</time></trkpt><trkpt lat="-18.595212990427925" lon="121.97609005141327"><ele>32.0</ele><time>2026-04-24T04:48:04Z</time></trkpt><trkpt lat="-18.5949896268979" lon="121.97627359025257"><ele>32.0</ele><time>2026-04-24T04:48:05Z</time></trkpt><trkpt lat="-18.59476508346222" lon="121.97645384102168"><ele>32.0</ele><time>2026-04-24T04:48:06Z</time></trkpt><trkpt lat="-18.594535091341875" lon="121.97663998791356"><ele>32.0</ele><time>2026-04-24T04:48:07Z</time></trkpt><trkpt lat="-18.594306978624925" lon="121.97682568833291"><ele>32.0</ele><time>2026-04-24T04:48:08Z</time></trkpt><trkpt lat="-18.594078873352064" lon="121.97701094985258"><ele>32.0</ele><time>2026-04-24T04:48:09Z</time></trkpt><trkpt lat="-18.59385474412158" lon="121.97719537037621"><ele>32.0</ele><time>2026-04-24T04:48:10Z</time></trkpt><trkpt lat="-18.593630573614238" lon="121.9773759477991"><ele>31.5</ele><time>2026-04-24T04:48:11Z</time></trkpt><trkpt lat="-18.593410630493857" lon="121.9775578944333"><ele>31.0</ele><time>2026-04-24T04:48:12Z</time></trkpt><trkpt lat="-18.59319014479175" lon="121.97774235024004"><ele>31.0</ele><time>2026-04-24T04:48:13Z</time></trkpt><trkpt lat="-18.592969581225034" lon="121.97792071529032"><ele>31.0</ele><time>2026-04-24T04:48:14Z</time></trkpt><trkpt lat="-18.592744868887277" lon="121.97809675007525"><ele>30.0</ele><time>2026-04-24T04:48:15Z</time></trkpt><trkpt lat="-18.59252041267995" lon="121.97827153147955"><ele>29.0</ele><time>2026-04-24T04:48:16Z</time></trkpt><trkpt lat="-18.592296702578913" lon="121.97844955163059"><ele>29.0</ele><time>2026-04-24T04:48:17Z</time></trkpt><trkpt lat="-18.592072468830636" lon="121.97862982962486"><ele>29.0</ele><time>2026-04-24T04:48:18Z</time></trkpt><trkpt lat="-18.59184411581321" lon="121.9788130779049"><ele>29.5</ele><time>2026-04-24T04:48:19Z</time></trkpt><trkpt lat="-18.59161867129233" lon="121.97899640337863"><ele>30.0</ele><time>2026-04-24T04:48:20Z</time></trkpt><trkpt lat="-18.591394188236652" lon="121.97918343670511"><ele>28.5</ele><time>2026-04-24T04:48:21Z</time></trkpt><trkpt lat="-18.59116633133127" lon="121.9793707384407"><ele>27.0</ele><time>2026-04-24T04:48:22Z</time></trkpt><trkpt lat="-18.590938426470146" lon="121.97955727350801"><ele>27.0</ele><time>2026-04-24T04:48:23Z</time></trkpt><trkpt lat="-18.590710932512245" lon="121.9797444004095"><ele>27.0</ele><time>2026-04-24T04:48:24Z</time></trkpt><trkpt lat="-18.590482948372003" lon="121.97993044749168"><ele>27.5</ele><time>2026-04-24T04:48:25Z</time></trkpt><trkpt lat="-18.59025398156619" lon="121.98011535961857"><ele>28.0</ele><time>2026-04-24T04:48:26Z</time></trkpt><trkpt lat="-18.590025395576678" lon="121.98029660331946"><ele>28.0</ele><time>2026-04-24T04:48:27Z</time></trkpt><trkpt lat="-18.58979348549051" lon="121.98047774411432"><ele>28.0</ele><time>2026-04-24T04:48:28Z</time></trkpt><trkpt lat="-18.589565312644925" lon="121.98066185602929"><ele>28.0</ele><time>2026-04-24T04:48:29Z</time></trkpt><trkpt lat="-18.58933854658931" lon="121.98084771525254"><ele>28.0</ele><time>2026-04-24T04:48:30Z</time></trkpt><trkpt lat="-18.58911409481007" lon="121.98103292888527"><ele>28.0</ele><time>2026-04-24T04:48:31Z</time></trkpt><trkpt lat="-18.588890122995156" lon="121.98121374513161"><ele>28.0</ele><time>2026-04-24T04:48:32Z</time></trkpt><trkpt lat="-18.588667713782716" lon="121.98139696645568"><ele>27.5</ele><time>2026-04-24T04:48:33Z</time></trkpt><trkpt lat="-18.588445301082107" lon="121.98158024049386"><ele>27.0</ele><time>2026-04-24T04:48:34Z</time></trkpt><trkpt lat="-18.588220441786746" lon="121.98176890761661"><ele>26.5</ele><time>2026-04-24T04:48:35Z</time></trkpt><trkpt lat="-18.587990353156925" lon="121.98196024597102"><ele>26.0</ele><time>2026-04-24T04:48:36Z</time></trkpt><trkpt lat="-18.587756782488412" lon="121.98214639305031"><ele>25.5</ele><time>2026-04-24T04:48:37Z</time></trkpt><trkpt lat="-18.58753017856389" lon="121.98232796434078"><ele>25.0</ele><time>2026-04-24T04:48:38Z</time></trkpt><trkpt lat="-18.587308328476485" lon="121.98250665786293"><ele>25.5</ele><time>2026-04-24T04:48:39Z</time></trkpt><trkpt lat="-18.587090637671317" lon="121.98268231813329"><ele>26.0</ele><time>2026-04-24T04:48:40Z</time></trkpt><trkpt lat="-18.586874486396766" lon="121.9828594814397"><ele>26.0</ele><time>2026-04-24T04:48:41Z</time></trkpt><trkpt lat="-18.58665700061925" lon="121.9830350780053"><ele>26.0</ele><time>2026-04-24T04:48:42Z</time></trkpt><trkpt lat="-18.5864418030207" lon="121.98320868921596"><ele>26.5</ele><time>2026-04-24T04:48:43Z</time></trkpt><trkpt lat="-18.58622424577312" lon="121.98338509002875"><ele>27.0</ele><time>2026-04-24T04:48:44Z</time></trkpt><trkpt lat="-18.58599876725596" lon="121.98356443638866"><ele>27.0</ele><time>2026-04-24T04:48:45Z</time></trkpt><trkpt lat="-18.585771039791535" lon="121.9837437078508"><ele>27.0</ele><time>2026-04-24T04:48:46Z</time></trkpt><trkpt lat="-18.58554435772593" lon="121.983925426637"><ele>27.0</ele><time>2026-04-24T04:48:47Z</time></trkpt><trkpt lat="-18.58531658345856" lon="121.98410912194426"><ele>27.0</ele><time>2026-04-24T04:48:48Z</time></trkpt><trkpt lat="-18.58509087337487" lon="121.98429428710186"><ele>27.0</ele><time>2026-04-24T04:48:49Z</time></trkpt><trkpt lat="-18.584863759965682" lon="121.98448394764755"><ele>27.0</ele><time>2026-04-24T04:48:50Z</time></trkpt><trkpt lat="-18.584634194541444" lon="121.98467150380412"><ele>27.0</ele><time>2026-04-24T04:48:51Z</time></trkpt><trkpt lat="-18.584405676652526" lon="121.98485380674566"><ele>27.0</ele><time>2026-04-24T04:48:52Z</time></trkpt><trkpt lat="-18.584176798043167" lon="121.98503964939776"><ele>27.0</ele><time>2026-04-24T04:48:53Z</time></trkpt><trkpt lat="-18.583727812404536" lon="121.98540835155183"><ele>27.0</ele><time>2026-04-24T04:48:55Z</time></trkpt><trkpt lat="-18.58350099766381" lon="121.98559487544149"><ele>27.0</ele><time>2026-04-24T04:48:56Z</time></trkpt><trkpt lat="-18.583277965926452" lon="121.9857821435931"><ele>26.5</ele><time>2026-04-24T04:48:57Z</time></trkpt><trkpt lat="-18.583050586576235" lon="121.98596961752979"><ele>26.0</ele><time>2026-04-24T04:48:58Z</time></trkpt><trkpt lat="-18.58281849487729" lon="121.98615678619716"><ele>26.0</ele><time>2026-04-24T04:48:59Z</time></trkpt><trkpt lat="-18.582582205785087" lon="121.98634433820055"><ele>26.0</ele><time>2026-04-24T04:49:00Z</time></trkpt><trkpt lat="-18.58234356003192" lon="121.98653433855247"><ele>26.0</ele><time>2026-04-24T04:49:01Z</time></trkpt><trkpt lat="-18.582108588089415" lon="121.9867231013601"><ele>26.0</ele><time>2026-04-24T04:49:02Z</time></trkpt><trkpt lat="-18.581872835426186" lon="121.98691271974619"><ele>26.0</ele><time>2026-04-24T04:49:03Z</time></trkpt><trkpt lat="-18.581642020573423" lon="121.98710221372461"><ele>26.0</ele><time>2026-04-24T04:49:04Z</time></trkpt><trkpt lat="-18.581413968358742" lon="121.9872913562844"><ele>26.0</ele><time>2026-04-24T04:49:05Z</time></trkpt><trkpt lat="-18.58118420949593" lon="121.9874779423584"><ele>26.0</ele><time>2026-04-24T04:49:06Z</time></trkpt><trkpt lat="-18.580950559235966" lon="121.98766246735268"><ele>26.0</ele><time>2026-04-24T04:49:07Z</time></trkpt><trkpt lat="-18.580714066575364" lon="121.98784687306193"><ele>26.0</ele><time>2026-04-24T04:49:08Z</time></trkpt><trkpt lat="-18.58048065178588" lon="121.988028784245"><ele>26.0</ele><time>2026-04-24T04:49:09Z</time></trkpt><trkpt lat="-18.58024846192994" lon="121.98821156155725"><ele>26.0</ele><time>2026-04-24T04:49:10Z</time></trkpt><trkpt lat="-18.580016970417123" lon="121.98839943257296"><ele>26.0</ele><time>2026-04-24T04:49:11Z</time></trkpt><trkpt lat="-18.579781260347527" lon="121.98859031407376"><ele>26.0</ele><time>2026-04-24T04:49:12Z</time></trkpt><trkpt lat="-18.57955245004259" lon="121.98878115580864"><ele>26.0</ele><time>2026-04-24T04:49:13Z</time></trkpt><trkpt lat="-18.57932034129708" lon="121.98897039038644"><ele>26.0</ele><time>2026-04-24T04:49:14Z</time></trkpt><trkpt lat="-18.579091034276555" lon="121.98915853167065"><ele>26.0</ele><time>2026-04-24T04:49:15Z</time></trkpt><trkpt lat="-18.57885902378017" lon="121.98934301913563"><ele>26.0</ele><time>2026-04-24T04:49:16Z</time></trkpt><trkpt lat="-18.57862782930392" lon="121.98952725729283"><ele>26.0</ele><time>2026-04-24T04:49:17Z</time></trkpt><trkpt lat="-18.578391806987888" lon="121.98971627744874"><ele>26.0</ele><time>2026-04-24T04:49:18Z</time></trkpt><trkpt lat="-18.5781537784056" lon="121.98990725830797"><ele>25.0</ele><time>2026-04-24T04:49:19Z</time></trkpt><trkpt lat="-18.577912777980412" lon="121.99010049821581"><ele>24.0</ele><time>2026-04-24T04:49:20Z</time></trkpt><trkpt lat="-18.577673982174026" lon="121.9902949662026"><ele>24.0</ele><time>2026-04-24T04:49:21Z</time></trkpt><trkpt lat="-18.577436592977453" lon="121.99049022065978"><ele>24.0</ele><time>2026-04-24T04:49:22Z</time></trkpt><trkpt lat="-18.577201110368442" lon="121.99068144601777"><ele>24.5</ele><time>2026-04-24T04:49:23Z</time></trkpt><trkpt lat="-18.576967168903515" lon="121.99086315748909"><ele>25.0</ele><time>2026-04-24T04:49:24Z</time></trkpt><trkpt lat="-18.576728643133052" lon="121.9910340312308"><ele>25.0</ele><time>2026-04-24T04:49:25Z</time></trkpt><trkpt lat="-18.576483203428694" lon="121.99119689203222"><ele>25.0</ele><time>2026-04-24T04:49:26Z</time></trkpt><trkpt lat="-18.576237579601703" lon="121.99135757659027"><ele>25.0</ele><time>2026-04-24T04:49:27Z</time></trkpt><trkpt lat="-18.575992450502046" lon="121.99151351971835"><ele>25.0</ele><time>2026-04-24T04:49:28Z</time></trkpt><trkpt lat="-18.575744403909383" lon="121.9916622222394"><ele>25.0</ele><time>2026-04-24T04:49:29Z</time></trkpt><trkpt lat="-18.575493177936327" lon="121.99180570031079"><ele>25.0</ele><time>2026-04-24T04:49:30Z</time></trkpt><trkpt lat="-18.575239999167596" lon="121.99194897546246"><ele>26.0</ele><time>2026-04-24T04:49:31Z</time></trkpt><trkpt lat="-18.574984873991184" lon="121.99208892017153"><ele>27.0</ele><time>2026-04-24T04:49:32Z</time></trkpt><trkpt lat="-18.574729969752845" lon="121.99222647886117"><ele>26.5</ele><time>2026-04-24T04:49:33Z</time></trkpt><trkpt lat="-18.57448161285945" lon="121.99235666848756"><ele>26.0</ele><time>2026-04-24T04:49:34Z</time></trkpt><trkpt lat="-18.574247064589642" lon="121.99248111864134"><ele>26.0</ele><time>2026-04-24T04:49:35Z</time></trkpt><trkpt lat="-18.574012897974598" lon="121.99260396224429"><ele>26.0</ele><time>2026-04-24T04:49:36Z</time></trkpt><trkpt lat="-18.573774973531716" lon="121.99273051442282"><ele>26.5</ele><time>2026-04-24T04:49:37Z</time></trkpt><trkpt lat="-18.573532650597414" lon="121.99285977356115"><ele>27.0</ele><time>2026-04-24T04:49:38Z</time></trkpt><trkpt lat="-18.573289122387294" lon="121.99299122538865"><ele>27.0</ele><time>2026-04-24T04:49:39Z</time></trkpt><trkpt lat="-18.57304509637872" lon="121.99312548425107"><ele>27.0</ele><time>2026-04-24T04:49:40Z</time></trkpt><trkpt lat="-18.572796733463953" lon="121.9932611912162"><ele>26.0</ele><time>2026-04-24T04:49:41Z</time></trkpt><trkpt lat="-18.572549067956512" lon="121.9933936534742"><ele>25.0</ele><time>2026-04-24T04:49:42Z</time></trkpt><trkpt lat="-18.57230199304842" lon="121.99352479493355"><ele>25.0</ele><time>2026-04-24T04:49:43Z</time></trkpt><trkpt lat="-18.57205149798629" lon="121.99365432902307"><ele>25.0</ele><time>2026-04-24T04:49:44Z</time></trkpt><trkpt lat="-18.57180066743367" lon="121.99378352409263"><ele>24.0</ele><time>2026-04-24T04:49:45Z</time></trkpt><trkpt lat="-18.571548451650692" lon="121.99391385986863"><ele>23.0</ele><time>2026-04-24T04:49:46Z</time></trkpt><trkpt lat="-18.57129264492332" lon="121.99404880999664"><ele>24.5</ele><time>2026-04-24T04:49:47.001Z</time></trkpt><trkpt lat="-18.571037631975617" lon="121.99418587132469"><ele>26.0</ele><time>2026-04-24T04:49:48.001Z</time></trkpt><trkpt lat="-18.570796372393392" lon="121.9943163479871"><ele>26.0</ele><time>2026-04-24T04:49:49.001Z</time></trkpt><trkpt lat="-18.570567108482734" lon="121.99444219954475"><ele>26.0</ele><time>2026-04-24T04:49:50.001Z</time></trkpt><trkpt lat="-18.57033510186413" lon="121.99456724818694"><ele>25.5</ele><time>2026-04-24T04:49:51.001Z</time></trkpt><trkpt lat="-18.570096848798595" lon="121.994694044859"><ele>25.0</ele><time>2026-04-24T04:49:52.001Z</time></trkpt><trkpt lat="-18.569853496174318" lon="121.99482055773774"><ele>25.0</ele><time>2026-04-24T04:49:53.001Z</time></trkpt><trkpt lat="-18.569609005618613" lon="121.99494890683498"><ele>25.0</ele><time>2026-04-24T04:49:54.001Z</time></trkpt><trkpt lat="-18.569364543180725" lon="121.99508284269388"><ele>25.5</ele><time>2026-04-24T04:49:55.001Z</time></trkpt><trkpt lat="-18.569117786374324" lon="121.99521951454935"><ele>26.0</ele><time>2026-04-24T04:49:55.999Z</time></trkpt><trkpt lat="-18.568872144651085" lon="121.99535846347968"><ele>25.5</ele><time>2026-04-24T04:49:56.999Z</time></trkpt><trkpt lat="-18.568623895512467" lon="121.99549558163915"><ele>25.0</ele><time>2026-04-24T04:49:57.999Z</time></trkpt><trkpt lat="-18.5683739093461" lon="121.99562844787414"><ele>25.0</ele><time>2026-04-24T04:49:58.999Z</time></trkpt><trkpt lat="-18.568117859283188" lon="121.99576247206147"><ele>25.0</ele><time>2026-04-24T04:49:59.999Z</time></trkpt><trkpt lat="-18.567863593338984" lon="121.9958993901687"><ele>25.0</ele><time>2026-04-24T04:50:00.999Z</time></trkpt><trkpt lat="-18.567605512864862" lon="121.99603816695075"><ele>25.0</ele><time>2026-04-24T04:50:01.999Z</time></trkpt><trkpt lat="-18.567345741223843" lon="121.99617914073603"><ele>25.0</ele><time>2026-04-24T04:50:02.999Z</time></trkpt><trkpt lat="-18.567085512665322" lon="121.99632096461907"><ele>25.0</ele><time>2026-04-24T04:50:03.999Z</time></trkpt><trkpt lat="-18.566829550987364" lon="121.9964597620516"><ele>25.0</ele><time>2026-04-24T04:50:04.999Z</time></trkpt><trkpt lat="-18.56656888589169" lon="121.99659617839214"><ele>25.0</ele><time>2026-04-24T04:50:05.999Z</time></trkpt><trkpt lat="-18.566306043184298" lon="121.99673339660296"><ele>25.5</ele><time>2026-04-24T04:50:06.999Z</time></trkpt><trkpt lat="-18.566042933983468" lon="121.99687181017634"><ele>26.0</ele><time>2026-04-24T04:50:07.999Z</time></trkpt><trkpt lat="-18.56577988641406" lon="121.99701013494249"><ele>26.0</ele><time>2026-04-24T04:50:08.999Z</time></trkpt><trkpt lat="-18.56552020799846" lon="121.9971505807522"><ele>26.0</ele><time>2026-04-24T04:50:09.999Z</time></trkpt><trkpt lat="-18.565263119963387" lon="121.99728895626107"><ele>26.0</ele><time>2026-04-24T04:50:10.999Z</time></trkpt><trkpt lat="-18.565002524068177" lon="121.99742903465484"><ele>26.0</ele><time>2026-04-24T04:50:11.999Z</time></trkpt><trkpt lat="-18.564740465404807" lon="121.99757069929716"><ele>26.0</ele><time>2026-04-24T04:50:12.999Z</time></trkpt><trkpt lat="-18.56447611654456" lon="121.997712728646"><ele>26.0</ele><time>2026-04-24T04:50:13.999Z</time></trkpt><trkpt lat="-18.564208268315266" lon="121.9978563367975"><ele>26.0</ele><time>2026-04-24T04:50:14.999Z</time></trkpt><trkpt lat="-18.563939995261805" lon="121.99799892922904"><ele>26.0</ele><time>2026-04-24T04:50:15.999Z</time></trkpt><trkpt lat="-18.56366970992769" lon="121.99814237174773"><ele>25.5</ele><time>2026-04-24T04:50:16.999Z</time></trkpt><trkpt lat="-18.563396660455393" lon="121.99828478375372"><ele>25.0</ele><time>2026-04-24T04:50:17.999Z</time></trkpt><trkpt lat="-18.5631197569885" lon="121.99843219325257"><ele>26.0</ele><time>2026-04-24T04:50:18.999Z</time></trkpt><trkpt lat="-18.56284140469041" lon="121.99858072534143"><ele>27.0</ele><time>2026-04-24T04:50:19.999Z</time></trkpt><trkpt lat="-18.56256100335544" lon="121.99873071791858"><ele>27.0</ele><time>2026-04-24T04:50:20.999Z</time></trkpt><trkpt lat="-18.562286111921956" lon="121.99888177480204"><ele>27.0</ele><time>2026-04-24T04:50:21.999Z</time></trkpt><trkpt lat="-18.562018025318693" lon="121.99902965333855"><ele>28.0</ele><time>2026-04-24T04:50:22.999Z</time></trkpt><trkpt lat="-18.56175572311529" lon="121.99917129693651"><ele>29.0</ele><time>2026-04-24T04:50:23.999Z</time></trkpt><trkpt lat="-18.561496661342087" lon="121.99931086200435"><ele>29.0</ele><time>2026-04-24T04:50:24.999Z</time></trkpt><trkpt lat="-18.561235072396705" lon="121.9994503221688"><ele>29.0</ele><time>2026-04-24T04:50:25.999Z</time></trkpt><trkpt lat="-18.560972080756137" lon="121.99959045840419"><ele>29.0</ele><time>2026-04-24T04:50:26.999Z</time></trkpt><trkpt lat="-18.560708935189375" lon="121.9997320768511"><ele>29.0</ele><time>2026-04-24T04:50:27.999Z</time></trkpt><trkpt lat="-18.560442041464924" lon="121.99987433624005"><ele>28.0</ele><time>2026-04-24T04:50:28.999Z</time></trkpt><trkpt lat="-18.560172852424984" lon="122.00001880947126"><ele>27.0</ele><time>2026-04-24T04:50:30Z</time></trkpt><trkpt lat="-18.559897433091425" lon="122.00016712920878"><ele>27.0</ele><time>2026-04-24T04:50:31Z</time></trkpt><trkpt lat="-18.559619197395495" lon="122.00031534810091"><ele>27.0</ele><time>2026-04-24T04:50:32Z</time></trkpt><trkpt lat="-18.559341037727" lon="122.00046334650911"><ele>28.0</ele><time>2026-04-24T04:50:33Z</time></trkpt><trkpt lat="-18.55906001126284" lon="122.00061313622179"><ele>29.0</ele><time>2026-04-24T04:50:34Z</time></trkpt><trkpt lat="-18.558779686424288" lon="122.00076318481949"><ele>29.5</ele><time>2026-04-24T04:50:35Z</time></trkpt><trkpt lat="-18.558503437671707" lon="122.00091630769796"><ele>30.0</ele><time>2026-04-24T04:50:36Z</time></trkpt><trkpt lat="-18.5582221241462" lon="122.00106952882535"><ele>30.0</ele><time>2026-04-24T04:50:37Z</time></trkpt><trkpt lat="-18.557940362371372" lon="122.00122403314332"><ele>30.0</ele><time>2026-04-24T04:50:38Z</time></trkpt><trkpt lat="-18.557663495974356" lon="122.00138105344023"><ele>30.0</ele><time>2026-04-24T04:50:39Z</time></trkpt><trkpt lat="-18.557387573200888" lon="122.00153050715515"><ele>30.0</ele><time>2026-04-24T04:50:40Z</time></trkpt><trkpt lat="-18.55711044038355" lon="122.00167328528339"><ele>29.5</ele><time>2026-04-24T04:50:41Z</time></trkpt><trkpt lat="-18.55683572448019" lon="122.00181691667252"><ele>29.0</ele><time>2026-04-24T04:50:42Z</time></trkpt><trkpt lat="-18.556561299667592" lon="122.00196147624993"><ele>29.0</ele><time>2026-04-24T04:50:43Z</time></trkpt><trkpt lat="-18.55628672924986" lon="122.00210313577227"><ele>29.0</ele><time>2026-04-24T04:50:44Z</time></trkpt><trkpt lat="-18.5560132121322" lon="122.00224915518535"><ele>29.5</ele><time>2026-04-24T04:50:45Z</time></trkpt><trkpt lat="-18.555735917998764" lon="122.00239496282356"><ele>30.0</ele><time>2026-04-24T04:50:46Z</time></trkpt><trkpt lat="-18.555466169273863" lon="122.00254585899675"><ele>29.5</ele><time>2026-04-24T04:50:47Z</time></trkpt><trkpt lat="-18.55519640890605" lon="122.00269254408167"><ele>29.0</ele><time>2026-04-24T04:50:48Z</time></trkpt><trkpt lat="-18.55492454950566" lon="122.0028383234576"><ele>29.0</ele><time>2026-04-24T04:50:49Z</time></trkpt><trkpt lat="-18.554649070188127" lon="122.00298328126355"><ele>29.0</ele><time>2026-04-24T04:50:50Z</time></trkpt><trkpt lat="-18.55437125169087" lon="122.0031275186101"><ele>30.0</ele><time>2026-04-24T04:50:51Z</time></trkpt><trkpt lat="-18.55409752677345" lon="122.003273226526"><ele>31.0</ele><time>2026-04-24T04:50:52Z</time></trkpt><trkpt lat="-18.55382236763863" lon="122.00342105280414"><ele>31.5</ele><time>2026-04-24T04:50:53Z</time></trkpt><trkpt lat="-18.553541973761472" lon="122.0035719354716"><ele>32.0</ele><time>2026-04-24T04:50:54Z</time></trkpt><trkpt lat="-18.553260661346723" lon="122.00372290983505"><ele>32.0</ele><time>2026-04-24T04:50:55Z</time></trkpt><trkpt lat="-18.552979939740705" lon="122.00387677667456"><ele>32.0</ele><time>2026-04-24T04:50:56Z</time></trkpt><trkpt lat="-18.552695509870915" lon="122.00402886883278"><ele>32.0</ele><time>2026-04-24T04:50:57Z</time></trkpt><trkpt lat="-18.552412110841043" lon="122.00417956040806"><ele>32.0</ele><time>2026-04-24T04:50:58Z</time></trkpt><trkpt lat="-18.552134365039105" lon="122.00432726725458"><ele>33.5</ele><time>2026-04-24T04:50:59Z</time></trkpt><trkpt lat="-18.55186082415239" lon="122.00447544172994"><ele>35.0</ele><time>2026-04-24T04:51:00Z</time></trkpt><trkpt lat="-18.551588509982704" lon="122.0046242115374"><ele>35.0</ele><time>2026-04-24T04:51:01Z</time></trkpt><trkpt lat="-18.55131713253955" lon="122.00477209713351"><ele>35.0</ele><time>2026-04-24T04:51:02Z</time></trkpt><trkpt lat="-18.55104244945174" lon="122.00491735987747"><ele>35.5</ele><time>2026-04-24T04:51:03Z</time></trkpt><trkpt lat="-18.55077035053179" lon="122.00505972611793"><ele>36.0</ele><time>2026-04-24T04:51:04Z</time></trkpt><trkpt lat="-18.550497431267974" lon="122.00520234006353"><ele>35.5</ele><time>2026-04-24T04:51:05Z</time></trkpt><trkpt lat="-18.550228356079693" lon="122.00534751041035"><ele>35.0</ele><time>2026-04-24T04:51:06Z</time></trkpt><trkpt lat="-18.549960076904732" lon="122.0054967618877"><ele>35.0</ele><time>2026-04-24T04:51:07Z</time></trkpt><trkpt lat="-18.549690264079928" lon="122.00565065222703"><ele>35.0</ele><time>2026-04-24T04:51:08Z</time></trkpt><trkpt lat="-18.549422944674" lon="122.00580348428636"><ele>35.0</ele><time>2026-04-24T04:51:09Z</time></trkpt><trkpt lat="-18.549148983488557" lon="122.00595911038066"><ele>35.0</ele><time>2026-04-24T04:51:10Z</time></trkpt><trkpt lat="-18.548871512672708" lon="122.0061044055852"><ele>35.5</ele><time>2026-04-24T04:51:11Z</time></trkpt><trkpt lat="-18.548592165023454" lon="122.00624440306238"><ele>36.0</ele><time>2026-04-24T04:51:12Z</time></trkpt><trkpt lat="-18.54831471960239" lon="122.00638755905618"><ele>36.0</ele><time>2026-04-24T04:51:13Z</time></trkpt><trkpt lat="-18.54804288932364" lon="122.0065306780321"><ele>36.0</ele><time>2026-04-24T04:51:14Z</time></trkpt><trkpt lat="-18.54777548928714" lon="122.00667160077649"><ele>36.5</ele><time>2026-04-24T04:51:15Z</time></trkpt><trkpt lat="-18.547506765489196" lon="122.00681418204199"><ele>37.0</ele><time>2026-04-24T04:51:16Z</time></trkpt><trkpt lat="-18.547236753361492" lon="122.00695548677925"><ele>38.0</ele><time>2026-04-24T04:51:17Z</time></trkpt><trkpt lat="-18.546962652275635" lon="122.00709517832522"><ele>39.0</ele><time>2026-04-24T04:51:18Z</time></trkpt><trkpt lat="-18.546694067564253" lon="122.00723722919035"><ele>39.0</ele><time>2026-04-24T04:51:19Z</time></trkpt><trkpt lat="-18.546427819525036" lon="122.00738445364453"><ele>39.0</ele><time>2026-04-24T04:51:20Z</time></trkpt><trkpt lat="-18.546154865970536" lon="122.00753013086197"><ele>39.0</ele><time>2026-04-24T04:51:21Z</time></trkpt><trkpt lat="-18.545880061427066" lon="122.00767439642271"><ele>39.0</ele><time>2026-04-24T04:51:22Z</time></trkpt><trkpt lat="-18.545605568683374" lon="122.00781934207751"><ele>40.0</ele><time>2026-04-24T04:51:23Z</time></trkpt><trkpt lat="-18.545331435096045" lon="122.00796820046853"><ele>41.0</ele><time>2026-04-24T04:51:24Z</time></trkpt><trkpt lat="-18.545056111847924" lon="122.00811736364348"><ele>41.0</ele><time>2026-04-24T04:51:25Z</time></trkpt><trkpt lat="-18.544778125975096" lon="122.00826504970871"><ele>41.0</ele><time>2026-04-24T04:51:26Z</time></trkpt><trkpt lat="-18.544503668032483" lon="122.00841198945334"><ele>40.0</ele><time>2026-04-24T04:51:27Z</time></trkpt><trkpt lat="-18.544227817439207" lon="122.00856154893236"><ele>39.0</ele><time>2026-04-24T04:51:28Z</time></trkpt><trkpt lat="-18.543948660178" lon="122.00871418042253"><ele>39.5</ele><time>2026-04-24T04:51:29Z</time></trkpt><trkpt lat="-18.54367052707407" lon="122.00886598166952"><ele>40.0</ele><time>2026-04-24T04:51:30Z</time></trkpt><trkpt lat="-18.543392320627472" lon="122.00901842570201"><ele>39.5</ele><time>2026-04-24T04:51:31Z</time></trkpt><trkpt lat="-18.543115789751578" lon="122.00917000519058"><ele>39.0</ele><time>2026-04-24T04:51:32Z</time></trkpt><trkpt lat="-18.54284001265212" lon="122.00931992360982"><ele>40.5</ele><time>2026-04-24T04:51:33Z</time></trkpt><trkpt lat="-18.542561991184254" lon="122.00946560863267"><ele>42.0</ele><time>2026-04-24T04:51:34Z</time></trkpt><trkpt lat="-18.54228931615426" lon="122.009606525008"><ele>43.0</ele><time>2026-04-24T04:51:35Z</time></trkpt><trkpt lat="-18.54203880584595" lon="122.00973764750185"><ele>44.0</ele><time>2026-04-24T04:51:36Z</time></trkpt><trkpt lat="-18.54179652096039" lon="122.00986611792743"><ele>44.5</ele><time>2026-04-24T04:51:37Z</time></trkpt><trkpt lat="-18.54154653076858" lon="122.01000126598727"><ele>45.0</ele><time>2026-04-24T04:51:38Z</time></trkpt><trkpt lat="-18.54129111717232" lon="122.01014100597402"><ele>44.0</ele><time>2026-04-24T04:51:39Z</time></trkpt><trkpt lat="-18.541032665718962" lon="122.01027873673277"><ele>43.0</ele><time>2026-04-24T04:51:40Z</time></trkpt><trkpt lat="-18.540771280072423" lon="122.0104167345585"><ele>43.0</ele><time>2026-04-24T04:51:41Z</time></trkpt><trkpt lat="-18.540507112427672" lon="122.01055780902811"><ele>43.0</ele><time>2026-04-24T04:51:42Z</time></trkpt><trkpt lat="-18.540239630893524" lon="122.0106995839839"><ele>43.5</ele><time>2026-04-24T04:51:43Z</time></trkpt><trkpt lat="-18.53997133934171" lon="122.01084136114105"><ele>44.0</ele><time>2026-04-24T04:51:44Z</time></trkpt><trkpt lat="-18.53970174443346" lon="122.01098474372996"><ele>43.5</ele><time>2026-04-24T04:51:45Z</time></trkpt><trkpt lat="-18.53943171166586" lon="122.01112751176646"><ele>43.0</ele><time>2026-04-24T04:51:46Z</time></trkpt><trkpt lat="-18.539162365190464" lon="122.01127037575249"><ele>43.0</ele><time>2026-04-24T04:51:47Z</time></trkpt><trkpt lat="-18.538894456287174" lon="122.0114127624972"><ele>43.0</ele><time>2026-04-24T04:51:48Z</time></trkpt><trkpt lat="-18.538628621254496" lon="122.01155746139125"><ele>44.0</ele><time>2026-04-24T04:51:49Z</time></trkpt><trkpt lat="-18.538364172805213" lon="122.0117027822462"><ele>45.0</ele><time>2026-04-24T04:51:50Z</time></trkpt><trkpt lat="-18.538098788152794" lon="122.01184581921535"><ele>45.0</ele><time>2026-04-24T04:51:51Z</time></trkpt><trkpt lat="-18.53783340963623" lon="122.01198634485516"><ele>45.0</ele><time>2026-04-24T04:51:52Z</time></trkpt><trkpt lat="-18.537568414830126" lon="122.01212657891143"><ele>45.0</ele><time>2026-04-24T04:51:53Z</time></trkpt><trkpt lat="-18.537302496709252" lon="122.01226959323813"><ele>45.0</ele><time>2026-04-24T04:51:54Z</time></trkpt><trkpt lat="-18.53703961557657" lon="122.01240996771664"><ele>45.0</ele><time>2026-04-24T04:51:55Z</time></trkpt><trkpt lat="-18.536775731760038" lon="122.01255116834419"><ele>45.0</ele><time>2026-04-24T04:51:56Z</time></trkpt><trkpt lat="-18.536509628067932" lon="122.01269269929072"><ele>45.0</ele><time>2026-04-24T04:51:57Z</time></trkpt><trkpt lat="-18.536245244945167" lon="122.01283466728185"><ele>45.0</ele><time>2026-04-24T04:51:58Z</time></trkpt><trkpt lat="-18.535977489539462" lon="122.01297736134062"><ele>45.0</ele><time>2026-04-24T04:51:59Z</time></trkpt><trkpt lat="-18.535708226526836" lon="122.01312023409565"><ele>45.0</ele><time>2026-04-24T04:52:00Z</time></trkpt><trkpt lat="-18.53544102353477" lon="122.01326329006378"><ele>46.0</ele><time>2026-04-24T04:52:01Z</time></trkpt><trkpt lat="-18.535173968370195" lon="122.01340769756428"><ele>47.0</ele><time>2026-04-24T04:52:02Z</time></trkpt><trkpt lat="-18.534905682454802" lon="122.01355249662541"><ele>47.0</ele><time>2026-04-24T04:52:03Z</time></trkpt><trkpt lat="-18.534638380528733" lon="122.01369476641482"><ele>47.0</ele><time>2026-04-24T04:52:04Z</time></trkpt><trkpt lat="-18.534373851458998" lon="122.01383676871363"><ele>47.0</ele><time>2026-04-24T04:52:05Z</time></trkpt><trkpt lat="-18.53410913514815" lon="122.01398013241138"><ele>47.0</ele><time>2026-04-24T04:52:06Z</time></trkpt><trkpt lat="-18.533842776303" lon="122.0141224114789"><ele>46.5</ele><time>2026-04-24T04:52:07Z</time></trkpt><trkpt lat="-18.533578609337862" lon="122.01426342031621"><ele>46.0</ele><time>2026-04-24T04:52:08Z</time></trkpt><trkpt lat="-18.533314206670934" lon="122.01440310796767"><ele>46.0</ele><time>2026-04-24T04:52:09Z</time></trkpt><trkpt lat="-18.533051486220142" lon="122.01454415661931"><ele>46.0</ele><time>2026-04-24T04:52:10Z</time></trkpt><trkpt lat="-18.532788222330467" lon="122.0146860067341"><ele>45.5</ele><time>2026-04-24T04:52:11Z</time></trkpt><trkpt lat="-18.5325246578096" lon="122.01482754602758"><ele>45.0</ele><time>2026-04-24T04:52:12Z</time></trkpt><trkpt lat="-18.532263241388808" lon="122.01496905095722"><ele>45.5</ele><time>2026-04-24T04:52:13Z</time></trkpt><trkpt lat="-18.531995842277254" lon="122.01511011673134"><ele>46.0</ele><time>2026-04-24T04:52:14Z</time></trkpt><trkpt lat="-18.53173128828176" lon="122.01524979093523"><ele>46.0</ele><time>2026-04-24T04:52:15Z</time></trkpt><trkpt lat="-18.531468493731076" lon="122.01538958838313"><ele>46.0</ele><time>2026-04-24T04:52:16Z</time></trkpt><trkpt lat="-18.531206878716393" lon="122.0155315109291"><ele>46.0</ele><time>2026-04-24T04:52:17Z</time></trkpt><trkpt lat="-18.53094365874568" lon="122.01567148666891"><ele>46.0</ele><time>2026-04-24T04:52:18Z</time></trkpt><trkpt lat="-18.53067958871023" lon="122.0158117244897"><ele>46.5</ele><time>2026-04-24T04:52:19Z</time></trkpt><trkpt lat="-18.53041597686367" lon="122.01595312522097"><ele>47.0</ele><time>2026-04-24T04:52:20Z</time></trkpt><trkpt lat="-18.530151738540162" lon="122.01609578439205"><ele>47.0</ele><time>2026-04-24T04:52:21Z</time></trkpt><trkpt lat="-18.529886537645023" lon="122.01624056411377"><ele>47.0</ele><time>2026-04-24T04:52:22Z</time></trkpt><trkpt lat="-18.52961973252379" lon="122.01638633556695"><ele>47.0</ele><time>2026-04-24T04:52:23Z</time></trkpt><trkpt lat="-18.52935270263697" lon="122.01653170959452"><ele>47.0</ele><time>2026-04-24T04:52:24Z</time></trkpt><trkpt lat="-18.529086197988647" lon="122.01667877261389"><ele>47.0</ele><time>2026-04-24T04:52:25Z</time></trkpt><trkpt lat="-18.52881947784659" lon="122.01682894214464"><ele>47.0</ele><time>2026-04-24T04:52:26Z</time></trkpt><trkpt lat="-18.528554296724412" lon="122.01698469006057"><ele>47.5</ele><time>2026-04-24T04:52:27Z</time></trkpt><trkpt lat="-18.528286486678088" lon="122.01714863004368"><ele>48.0</ele><time>2026-04-24T04:52:28Z</time></trkpt><trkpt lat="-18.528024152451284" lon="122.01731709032406"><ele>48.5</ele><time>2026-04-24T04:52:29Z</time></trkpt><trkpt lat="-18.527761912782257" lon="122.01748797424915"><ele>49.0</ele><time>2026-04-24T04:52:30Z</time></trkpt><trkpt lat="-18.527505053945173" lon="122.01766208914897"><ele>49.0</ele><time>2026-04-24T04:52:31Z</time></trkpt><trkpt lat="-18.52725256562447" lon="122.01784476119354"><ele>49.0</ele><time>2026-04-24T04:52:32Z</time></trkpt><trkpt lat="-18.52700335453086" lon="122.0180324143459"><ele>49.0</ele><time>2026-04-24T04:52:33Z</time></trkpt><trkpt lat="-18.526760097083116" lon="122.01822053866523"><ele>49.0</ele><time>2026-04-24T04:52:34Z</time></trkpt><trkpt lat="-18.526520300252795" lon="122.01840908617918"><ele>48.5</ele><time>2026-04-24T04:52:35Z</time></trkpt><trkpt lat="-18.526282611201214" lon="122.01859841035707"><ele>48.0</ele><time>2026-04-24T04:52:36Z</time></trkpt><trkpt lat="-18.526048012276306" lon="122.01878699204784"><ele>49.0</ele><time>2026-04-24T04:52:37Z</time></trkpt><trkpt lat="-18.525815082168876" lon="122.01897069515366"><ele>50.0</ele><time>2026-04-24T04:52:38Z</time></trkpt><trkpt lat="-18.525584886132194" lon="122.01915400327796"><ele>50.5</ele><time>2026-04-24T04:52:39Z</time></trkpt><trkpt lat="-18.52535966399149" lon="122.0193352513255"><ele>51.0</ele><time>2026-04-24T04:52:40Z</time></trkpt><trkpt lat="-18.525137325305785" lon="122.01950963920596"><ele>51.0</ele><time>2026-04-24T04:52:41Z</time></trkpt><trkpt lat="-18.52491617438219" lon="122.01968453049315"><ele>51.0</ele><time>2026-04-24T04:52:42Z</time></trkpt><trkpt lat="-18.524696972674917" lon="122.01985741284479"><ele>51.0</ele><time>2026-04-24T04:52:43Z</time></trkpt><trkpt lat="-18.524481338564065" lon="122.02003123004714"><ele>51.0</ele><time>2026-04-24T04:52:44Z</time></trkpt><trkpt lat="-18.52426679063045" lon="122.02020626164891"><ele>51.0</ele><time>2026-04-24T04:52:45Z</time></trkpt><trkpt lat="-18.52405249810127" lon="122.02037988051093"><ele>51.0</ele><time>2026-04-24T04:52:46Z</time></trkpt><trkpt lat="-18.523834051624924" lon="122.02055326035844"><ele>51.0</ele><time>2026-04-24T04:52:47Z</time></trkpt><trkpt lat="-18.523615126466968" lon="122.02072258442814"><ele>51.0</ele><time>2026-04-24T04:52:48Z</time></trkpt><trkpt lat="-18.523397754154036" lon="122.02089461156643"><ele>51.0</ele><time>2026-04-24T04:52:49Z</time></trkpt><trkpt lat="-18.52317995407557" lon="122.02106748413456"><ele>51.0</ele><time>2026-04-24T04:52:50Z</time></trkpt><trkpt lat="-18.522963560204154" lon="122.0212393773963"><ele>50.0</ele><time>2026-04-24T04:52:51Z</time></trkpt><trkpt lat="-18.52274685306077" lon="122.02141267365727"><ele>49.0</ele><time>2026-04-24T04:52:52Z</time></trkpt><trkpt lat="-18.522531178849228" lon="122.0215872339161"><ele>52.0</ele><time>2026-04-24T04:52:53Z</time></trkpt><trkpt lat="-18.522097939600886" lon="122.02193766320234"><ele>51.5</ele><time>2026-04-24T04:52:55Z</time></trkpt><trkpt lat="-18.52188026352612" lon="122.02211709200296"><ele>51.0</ele><time>2026-04-24T04:52:56Z</time></trkpt><trkpt lat="-18.521641850649008" lon="122.02228738875183"><ele>51.0</ele><time>2026-04-24T04:52:57Z</time></trkpt><trkpt lat="-18.521416820514656" lon="122.02248546972442"><ele>51.0</ele><time>2026-04-24T04:52:58Z</time></trkpt><trkpt lat="-18.521174990593323" lon="122.02266832648672"><ele>51.5</ele><time>2026-04-24T04:52:59Z</time></trkpt><trkpt lat="-18.520931721160125" lon="122.02285403085887"><ele>52.0</ele><time>2026-04-24T04:53:00Z</time></trkpt><trkpt lat="-18.520691954798345" lon="122.02304451463634"><ele>52.0</ele><time>2026-04-24T04:53:01Z</time></trkpt><trkpt lat="-18.52045584436684" lon="122.02323930216288"><ele>52.0</ele><time>2026-04-24T04:53:02Z</time></trkpt><trkpt lat="-18.5202167322478" lon="122.0234333707808"><ele>52.5</ele><time>2026-04-24T04:53:03Z</time></trkpt><trkpt lat="-18.519973858744166" lon="122.02362427081702"><ele>53.0</ele><time>2026-04-24T04:53:04Z</time></trkpt><trkpt lat="-18.519727723275526" lon="122.02381501255229"><ele>51.5</ele><time>2026-04-24T04:53:05Z</time></trkpt><trkpt lat="-18.51948224205831" lon="122.02401115300181"><ele>50.0</ele><time>2026-04-24T04:53:06Z</time></trkpt><trkpt lat="-18.51923783947815" lon="122.02420839498382"><ele>50.0</ele><time>2026-04-24T04:53:07Z</time></trkpt><trkpt lat="-18.518994529657782" lon="122.02440115730623"><ele>50.0</ele><time>2026-04-24T04:53:08Z</time></trkpt><trkpt lat="-18.51875589847014" lon="122.024591502097"><ele>50.5</ele><time>2026-04-24T04:53:09Z</time></trkpt><trkpt lat="-18.518521663161554" lon="122.02477625259193"><ele>51.0</ele><time>2026-04-24T04:53:10Z</time></trkpt><trkpt lat="-18.518288276714923" lon="122.02495984280357"><ele>51.0</ele><time>2026-04-24T04:53:11Z</time></trkpt><trkpt lat="-18.518059140060704" lon="122.02514558482653"><ele>51.0</ele><time>2026-04-24T04:53:12Z</time></trkpt><trkpt lat="-18.517830937668585" lon="122.02533204772787"><ele>48.5</ele><time>2026-04-24T04:53:13Z</time></trkpt><trkpt lat="-18.51759967366901" lon="122.02552062554439"><ele>46.0</ele><time>2026-04-24T04:53:14Z</time></trkpt><trkpt lat="-18.517368902242183" lon="122.02570746397939"><ele>46.5</ele><time>2026-04-24T04:53:15Z</time></trkpt><trkpt lat="-18.517135162559732" lon="122.02589300476417"><ele>47.0</ele><time>2026-04-24T04:53:16Z</time></trkpt><trkpt lat="-18.516901726992238" lon="122.02607598383784"><ele>47.0</ele><time>2026-04-24T04:53:17Z</time></trkpt><trkpt lat="-18.516670259331597" lon="122.02625639782084"><ele>47.0</ele><time>2026-04-24T04:53:18Z</time></trkpt><trkpt lat="-18.516439909095478" lon="122.02643775871628"><ele>47.0</ele><time>2026-04-24T04:53:19Z</time></trkpt><trkpt lat="-18.516212208352563" lon="122.02662145419878"><ele>47.0</ele><time>2026-04-24T04:53:20Z</time></trkpt><trkpt lat="-18.51598558657868" lon="122.02680327801527"><ele>47.5</ele><time>2026-04-24T04:53:21Z</time></trkpt><trkpt lat="-18.51575663405144" lon="122.02698524002771"><ele>48.0</ele><time>2026-04-24T04:53:22Z</time></trkpt><trkpt lat="-18.515525082336012" lon="122.02716780952754"><ele>49.0</ele><time>2026-04-24T04:53:23Z</time></trkpt><trkpt lat="-18.515295752854332" lon="122.02735196975456"><ele>50.0</ele><time>2026-04-24T04:53:24Z</time></trkpt><trkpt lat="-18.515064267306027" lon="122.027537812551"><ele>50.0</ele><time>2026-04-24T04:53:25Z</time></trkpt><trkpt lat="-18.514829964783814" lon="122.0277252145643"><ele>50.0</ele><time>2026-04-24T04:53:26Z</time></trkpt><trkpt lat="-18.51459244658642" lon="122.02791148090596"><ele>49.0</ele><time>2026-04-24T04:53:27Z</time></trkpt><trkpt lat="-18.514353832343584" lon="122.02809973521963"><ele>48.0</ele><time>2026-04-24T04:53:28Z</time></trkpt><trkpt lat="-18.514117567146656" lon="122.02828731174233"><ele>47.5</ele><time>2026-04-24T04:53:29Z</time></trkpt><trkpt lat="-18.513879801667375" lon="122.02847685184376"><ele>47.0</ele><time>2026-04-24T04:53:30Z</time></trkpt><trkpt lat="-18.513646650437856" lon="122.02866227065856"><ele>47.0</ele><time>2026-04-24T04:53:31Z</time></trkpt><trkpt lat="-18.513414548123546" lon="122.02884785542862"><ele>47.0</ele><time>2026-04-24T04:53:32Z</time></trkpt><trkpt lat="-18.51318331820146" lon="122.02903215314954"><ele>46.5</ele><time>2026-04-24T04:53:33Z</time></trkpt><trkpt lat="-18.512948774769974" lon="122.02921525571223"><ele>46.0</ele><time>2026-04-24T04:53:34Z</time></trkpt><trkpt lat="-18.512715703560772" lon="122.02939995918243"><ele>45.5</ele><time>2026-04-24T04:53:35Z</time></trkpt><trkpt lat="-18.512480312024" lon="122.0295896729072"><ele>45.0</ele><time>2026-04-24T04:53:36Z</time></trkpt><trkpt lat="-18.51224346875084" lon="122.0297784602092"><ele>44.0</ele><time>2026-04-24T04:53:37Z</time></trkpt><trkpt lat="-18.51200725143491" lon="122.0299661131801"><ele>43.0</ele><time>2026-04-24T04:53:38Z</time></trkpt><trkpt lat="-18.5117706513382" lon="122.0301565764632"><ele>45.5</ele><time>2026-04-24T04:53:39Z</time></trkpt><trkpt lat="-18.511533322299893" lon="122.0303459734453"><ele>48.0</ele><time>2026-04-24T04:53:40Z</time></trkpt><trkpt lat="-18.511296250881703" lon="122.03053383023295"><ele>46.0</ele><time>2026-04-24T04:53:41Z</time></trkpt><trkpt lat="-18.511062514043953" lon="122.03071908567891"><ele>44.0</ele><time>2026-04-24T04:53:42Z</time></trkpt><trkpt lat="-18.510830059530885" lon="122.03090421199455"><ele>43.5</ele><time>2026-04-24T04:53:43Z</time></trkpt><trkpt lat="-18.51059818179414" lon="122.03109163912606"><ele>43.0</ele><time>2026-04-24T04:53:44Z</time></trkpt><trkpt lat="-18.510363179446777" lon="122.03128018958843"><ele>43.0</ele><time>2026-04-24T04:53:45Z</time></trkpt><trkpt lat="-18.51012691248713" lon="122.03146812865275"><ele>43.0</ele><time>2026-04-24T04:53:46Z</time></trkpt><trkpt lat="-18.50988758515564" lon="122.03165744817842"><ele>43.0</ele><time>2026-04-24T04:53:47Z</time></trkpt><trkpt lat="-18.509648057291056" lon="122.03184797185939"><ele>43.0</ele><time>2026-04-24T04:53:48Z</time></trkpt><trkpt lat="-18.5094075839543" lon="122.03204215802998"><ele>43.5</ele><time>2026-04-24T04:53:49Z</time></trkpt><trkpt lat="-18.509168089712418" lon="122.03223620894194"><ele>44.0</ele><time>2026-04-24T04:53:50Z</time></trkpt><trkpt lat="-18.508927573934614" lon="122.03242726349269"><ele>43.5</ele><time>2026-04-24T04:53:51Z</time></trkpt><trkpt lat="-18.508689287947753" lon="122.03261727528059"><ele>43.0</ele><time>2026-04-24T04:53:52Z</time></trkpt><trkpt lat="-18.508452094238816" lon="122.03280846117379"><ele>43.0</ele><time>2026-04-24T04:53:53Z</time></trkpt><trkpt lat="-18.50821347283404" lon="122.03300091585922"><ele>43.0</ele><time>2026-04-24T04:53:54Z</time></trkpt><trkpt lat="-18.507974946733352" lon="122.03319264312141"><ele>43.0</ele><time>2026-04-24T04:53:55Z</time></trkpt><trkpt lat="-18.507733949285804" lon="122.03338697056384"><ele>43.0</ele><time>2026-04-24T04:53:56Z</time></trkpt><trkpt lat="-18.50749146461891" lon="122.03357672389892"><ele>43.0</ele><time>2026-04-24T04:53:57Z</time></trkpt><trkpt lat="-18.507247706909705" lon="122.03376635147019"><ele>43.0</ele><time>2026-04-24T04:53:58Z</time></trkpt><trkpt lat="-18.507016332497916" lon="122.03394572414464"><ele>43.0</ele><time>2026-04-24T04:53:59Z</time></trkpt><trkpt lat="-18.50680463665438" lon="122.03411255902084"><ele>43.0</ele><time>2026-04-24T04:54:00Z</time></trkpt><trkpt lat="-18.50659354148471" lon="122.03428201261553"><ele>42.5</ele><time>2026-04-24T04:54:01Z</time></trkpt><trkpt lat="-18.506375185659138" lon="122.03445898955316"><ele>42.0</ele><time>2026-04-24T04:54:02Z</time></trkpt><trkpt lat="-18.506151687093745" lon="122.03463535456132"><ele>42.0</ele><time>2026-04-24T04:54:03Z</time></trkpt><trkpt lat="-18.505923374591337" lon="122.03481457844516"><ele>42.0</ele><time>2026-04-24T04:54:04.001Z</time></trkpt><trkpt lat="-18.505692754152353" lon="122.0349970403958"><ele>42.5</ele><time>2026-04-24T04:54:05.001Z</time></trkpt><trkpt lat="-18.50546130893203" lon="122.03518163902856"><ele>43.0</ele><time>2026-04-24T04:54:06.001Z</time></trkpt><trkpt lat="-18.505225877529117" lon="122.03536837810485"><ele>42.0</ele><time>2026-04-24T04:54:07.001Z</time></trkpt><trkpt lat="-18.504988593618734" lon="122.03555637286469"><ele>41.0</ele><time>2026-04-24T04:54:08Z</time></trkpt><trkpt lat="-18.504750130655093" lon="122.03574673032402"><ele>41.0</ele><time>2026-04-24T04:54:09Z</time></trkpt><trkpt lat="-18.50451189116443" lon="122.03593847739181"><ele>41.0</ele><time>2026-04-24T04:54:10Z</time></trkpt><trkpt lat="-18.50427167616933" lon="122.03613308913928"><ele>41.0</ele><time>2026-04-24T04:54:11Z</time></trkpt><trkpt lat="-18.50403030094912" lon="122.0363283803392"><ele>41.0</ele><time>2026-04-24T04:54:12Z</time></trkpt><trkpt lat="-18.503787506595142" lon="122.03652390213773"><ele>41.0</ele><time>2026-04-24T04:54:13Z</time></trkpt><trkpt lat="-18.503540724693167" lon="122.03672061730454"><ele>41.0</ele><time>2026-04-24T04:54:14Z</time></trkpt><trkpt lat="-18.503293772476948" lon="122.03692010879855"><ele>41.0</ele><time>2026-04-24T04:54:15Z</time></trkpt><trkpt lat="-18.503047142438103" lon="122.03711877848727"><ele>41.0</ele><time>2026-04-24T04:54:16Z</time></trkpt><trkpt lat="-18.502797742839178" lon="122.03731872967631"><ele>40.5</ele><time>2026-04-24T04:54:17Z</time></trkpt><trkpt lat="-18.50254870395282" lon="122.03751729998638"><ele>40.0</ele><time>2026-04-24T04:54:18Z</time></trkpt><trkpt lat="-18.50229676474217" lon="122.03771578963058"><ele>39.5</ele><time>2026-04-24T04:54:19Z</time></trkpt><trkpt lat="-18.502047712829945" lon="122.03791391938213"><ele>39.0</ele><time>2026-04-24T04:54:20Z</time></trkpt><trkpt lat="-18.501799119162122" lon="122.03810999423091"><ele>39.5</ele><time>2026-04-24T04:54:21Z</time></trkpt><trkpt lat="-18.501550322904492" lon="122.03830743127865"><ele>40.0</ele><time>2026-04-24T04:54:22Z</time></trkpt><trkpt lat="-18.501301974309822" lon="122.0385055037024"><ele>39.0</ele><time>2026-04-24T04:54:23Z</time></trkpt><trkpt lat="-18.50105342432593" lon="122.03870150884897"><ele>38.0</ele><time>2026-04-24T04:54:24Z</time></trkpt><trkpt lat="-18.500804208679288" lon="122.0388976144304"><ele>38.0</ele><time>2026-04-24T04:54:25Z</time></trkpt><trkpt lat="-18.50055602505707" lon="122.03909504584136"><ele>38.0</ele><time>2026-04-24T04:54:26Z</time></trkpt><trkpt lat="-18.500309239887393" lon="122.03929298943063"><ele>38.5</ele><time>2026-04-24T04:54:27Z</time></trkpt><trkpt lat="-18.50006496874106" lon="122.0394915800308"><ele>39.0</ele><time>2026-04-24T04:54:28Z</time></trkpt><trkpt lat="-18.49982286285191" lon="122.03968624966446"><ele>39.0</ele><time>2026-04-24T04:54:29Z</time></trkpt><trkpt lat="-18.499579221817257" lon="122.03988054019955"><ele>39.0</ele><time>2026-04-24T04:54:30Z</time></trkpt><trkpt lat="-18.49933756350228" lon="122.0400736890046"><ele>39.5</ele><time>2026-04-24T04:54:31Z</time></trkpt><trkpt lat="-18.499093118728553" lon="122.04026827834141"><ele>40.0</ele><time>2026-04-24T04:54:32Z</time></trkpt><trkpt lat="-18.49885579144344" lon="122.04046088911831"><ele>39.5</ele><time>2026-04-24T04:54:33Z</time></trkpt><trkpt lat="-18.498618744526635" lon="122.04066075956318"><ele>39.0</ele><time>2026-04-24T04:54:34Z</time></trkpt><trkpt lat="-18.49839338191096" lon="122.04086669384048"><ele>39.0</ele><time>2026-04-24T04:54:35Z</time></trkpt><trkpt lat="-18.49817011483502" lon="122.0410772145496"><ele>39.0</ele><time>2026-04-24T04:54:36Z</time></trkpt><trkpt lat="-18.497948354784914" lon="122.04129232969494"><ele>39.5</ele><time>2026-04-24T04:54:37Z</time></trkpt><trkpt lat="-18.49772994196046" lon="122.04151085604393"><ele>40.0</ele><time>2026-04-24T04:54:38Z</time></trkpt><trkpt lat="-18.497516467292638" lon="122.04173366316817"><ele>40.0</ele><time>2026-04-24T04:54:39Z</time></trkpt><trkpt lat="-18.49730558345049" lon="122.04196351657568"><ele>40.0</ele><time>2026-04-24T04:54:40Z</time></trkpt><trkpt lat="-18.497097426445325" lon="122.04220038089439"><ele>38.5</ele><time>2026-04-24T04:54:41Z</time></trkpt><trkpt lat="-18.49689334935619" lon="122.04243976424031"><ele>37.0</ele><time>2026-04-24T04:54:42Z</time></trkpt><trkpt lat="-18.496688976030327" lon="122.042685313566"><ele>37.0</ele><time>2026-04-24T04:54:43Z</time></trkpt><trkpt lat="-18.496489165908624" lon="122.04293536718994"><ele>37.0</ele><time>2026-04-24T04:54:44Z</time></trkpt><trkpt lat="-18.496294116897815" lon="122.04319096663608"><ele>37.5</ele><time>2026-04-24T04:54:45Z</time></trkpt><trkpt lat="-18.496103457807713" lon="122.04345054053633"><ele>38.0</ele><time>2026-04-24T04:54:46Z</time></trkpt><trkpt lat="-18.495914844588764" lon="122.04371693547925"><ele>38.0</ele><time>2026-04-24T04:54:47Z</time></trkpt><trkpt lat="-18.495731215710165" lon="122.04398860705655"><ele>38.0</ele><time>2026-04-24T04:54:48Z</time></trkpt><trkpt lat="-18.495550451708777" lon="122.04426366384568"><ele>38.5</ele><time>2026-04-24T04:54:49Z</time></trkpt><trkpt lat="-18.4953717465228" lon="122.04454085145325"><ele>39.0</ele><time>2026-04-24T04:54:50Z</time></trkpt><trkpt lat="-18.49519210708768" lon="122.04481363639682"><ele>38.5</ele><time>2026-04-24T04:54:51Z</time></trkpt><trkpt lat="-18.494991649290434" lon="122.04507487580072"><ele>38.0</ele><time>2026-04-24T04:54:52Z</time></trkpt><trkpt lat="-18.49481970689181" lon="122.04535744153654"><ele>38.0</ele><time>2026-04-24T04:54:53Z</time></trkpt><trkpt lat="-18.494629973956762" lon="122.0456275867079"><ele>38.0</ele><time>2026-04-24T04:54:54Z</time></trkpt><trkpt lat="-18.494442345324703" lon="122.0458968508741"><ele>38.0</ele><time>2026-04-24T04:54:55Z</time></trkpt><trkpt lat="-18.49425905724573" lon="122.04616890584279"><ele>38.0</ele><time>2026-04-24T04:54:56Z</time></trkpt><trkpt lat="-18.49407645379135" lon="122.04644175325508"><ele>37.5</ele><time>2026-04-24T04:54:57Z</time></trkpt><trkpt lat="-18.4938925545465" lon="122.04671598140587"><ele>37.0</ele><time>2026-04-24T04:54:58Z</time></trkpt><trkpt lat="-18.493708035263467" lon="122.0469924127744"><ele>37.0</ele><time>2026-04-24T04:54:59Z</time></trkpt><trkpt lat="-18.493523235869073" lon="122.04726956649844"><ele>37.0</ele><time>2026-04-24T04:55:00Z</time></trkpt><trkpt lat="-18.493338864670744" lon="122.04754763704308"><ele>37.5</ele><time>2026-04-24T04:55:01Z</time></trkpt><trkpt lat="-18.493152657556212" lon="122.04782668704118"><ele>38.0</ele><time>2026-04-24T04:55:02Z</time></trkpt><trkpt lat="-18.49296552216799" lon="122.04810498636219"><ele>38.0</ele><time>2026-04-24T04:55:03Z</time></trkpt><trkpt lat="-18.492776961155304" lon="122.04838205784677"><ele>38.0</ele><time>2026-04-24T04:55:04Z</time></trkpt><trkpt lat="-18.492589639514076" lon="122.04865778429779"><ele>38.0</ele><time>2026-04-24T04:55:05Z</time></trkpt><trkpt lat="-18.492402429221194" lon="122.04893600940628"><ele>38.0</ele><time>2026-04-24T04:55:06Z</time></trkpt><trkpt lat="-18.492216676244823" lon="122.04921346389982"><ele>38.0</ele><time>2026-04-24T04:55:07Z</time></trkpt><trkpt lat="-18.492030126502474" lon="122.0494916642415"><ele>38.0</ele><time>2026-04-24T04:55:08Z</time></trkpt><trkpt lat="-18.491844749523473" lon="122.04976531673374"><ele>38.5</ele><time>2026-04-24T04:55:09Z</time></trkpt><trkpt lat="-18.491660150256806" lon="122.05004078862713"><ele>39.0</ele><time>2026-04-24T04:55:10Z</time></trkpt><trkpt lat="-18.491473754243238" lon="122.05031352756528"><ele>39.0</ele><time>2026-04-24T04:55:11Z</time></trkpt><trkpt lat="-18.4912894594422" lon="122.05058684761586"><ele>39.0</ele><time>2026-04-24T04:55:12Z</time></trkpt><trkpt lat="-18.49110459656814" lon="122.05086104997594"><ele>39.0</ele><time>2026-04-24T04:55:13Z</time></trkpt><trkpt lat="-18.490917819796955" lon="122.05113486710633"><ele>39.0</ele><time>2026-04-24T04:55:14Z</time></trkpt><trkpt lat="-18.490730893474925" lon="122.05140794024243"><ele>38.0</ele><time>2026-04-24T04:55:15Z</time></trkpt><trkpt lat="-18.490545409378285" lon="122.05168008920873"><ele>37.0</ele><time>2026-04-24T04:55:16Z</time></trkpt><trkpt lat="-18.49035848886591" lon="122.05195794668677"><ele>37.0</ele><time>2026-04-24T04:55:17Z</time></trkpt><trkpt lat="-18.490174077447147" lon="122.05223341041648"><ele>37.0</ele><time>2026-04-24T04:55:18Z</time></trkpt><trkpt lat="-18.489992199616555" lon="122.05250765859438"><ele>37.0</ele><time>2026-04-24T04:55:19Z</time></trkpt><trkpt lat="-18.489808328100118" lon="122.0527837092837"><ele>37.0</ele><time>2026-04-24T04:55:20Z</time></trkpt><trkpt lat="-18.48962376603723" lon="122.05305949389208"><ele>38.0</ele><time>2026-04-24T04:55:21Z</time></trkpt><trkpt lat="-18.489439325376384" lon="122.05333759097655"><ele>39.0</ele><time>2026-04-24T04:55:22Z</time></trkpt><trkpt lat="-18.48925253118638" lon="122.0536123181306"><ele>39.0</ele><time>2026-04-24T04:55:23Z</time></trkpt><trkpt lat="-18.489066986750146" lon="122.05388453301725"><ele>39.0</ele><time>2026-04-24T04:55:24Z</time></trkpt><trkpt lat="-18.48888080791983" lon="122.05415947795854"><ele>37.5</ele><time>2026-04-24T04:55:25Z</time></trkpt><trkpt lat="-18.488694019534584" lon="122.05443185444518"><ele>36.0</ele><time>2026-04-24T04:55:26Z</time></trkpt><trkpt lat="-18.48850752867115" lon="122.05470486607146"><ele>37.0</ele><time>2026-04-24T04:55:27Z</time></trkpt><trkpt lat="-18.488322092156523" lon="122.05497942771278"><ele>38.0</ele><time>2026-04-24T04:55:28Z</time></trkpt><trkpt lat="-18.48813753527989" lon="122.05525344382617"><ele>38.0</ele><time>2026-04-24T04:55:29Z</time></trkpt><trkpt lat="-18.487953211913368" lon="122.05552959515748"><ele>38.0</ele><time>2026-04-24T04:55:30Z</time></trkpt><trkpt lat="-18.48776672050855" lon="122.05580552563558"><ele>38.0</ele><time>2026-04-24T04:55:31Z</time></trkpt><trkpt lat="-18.487579927426186" lon="122.05608269151465"><ele>38.0</ele><time>2026-04-24T04:55:32Z</time></trkpt><trkpt lat="-18.487393928490786" lon="122.05635576950803"><ele>38.0</ele><time>2026-04-24T04:55:33Z</time></trkpt><trkpt lat="-18.487207285860077" lon="122.05662508629301"><ele>38.0</ele><time>2026-04-24T04:55:34Z</time></trkpt><trkpt lat="-18.48702823163934" lon="122.05689321569707"><ele>39.0</ele><time>2026-04-24T04:55:35Z</time></trkpt><trkpt lat="-18.486856232011007" lon="122.0571544645"><ele>40.0</ele><time>2026-04-24T04:55:36Z</time></trkpt><trkpt lat="-18.486683582923444" lon="122.05741298267353"><ele>39.5</ele><time>2026-04-24T04:55:37Z</time></trkpt><trkpt lat="-18.486507282393" lon="122.05767184993985"><ele>39.0</ele><time>2026-04-24T04:55:38Z</time></trkpt><trkpt lat="-18.486328665052827" lon="122.05793371640766"><ele>39.0</ele><time>2026-04-24T04:55:39Z</time></trkpt><trkpt lat="-18.486144932956332" lon="122.05820225011831"><ele>39.0</ele><time>2026-04-24T04:55:40Z</time></trkpt><trkpt lat="-18.485958167811518" lon="122.05847484009124"><ele>39.0</ele><time>2026-04-24T04:55:41Z</time></trkpt><trkpt lat="-18.48577130547608" lon="122.05874958760323"><ele>39.0</ele><time>2026-04-24T04:55:42Z</time></trkpt><trkpt lat="-18.485584579093143" lon="122.05902407755633"><ele>38.0</ele><time>2026-04-24T04:55:43Z</time></trkpt><trkpt lat="-18.4854010788009" lon="122.05929862620678"><ele>37.0</ele><time>2026-04-24T04:55:44Z</time></trkpt><trkpt lat="-18.485219181610823" lon="122.0595680374498"><ele>37.0</ele><time>2026-04-24T04:55:45Z</time></trkpt><trkpt lat="-18.485040076473048" lon="122.05984096926898"><ele>37.0</ele><time>2026-04-24T04:55:46Z</time></trkpt><trkpt lat="-18.484865305300932" lon="122.06011100668087"><ele>38.0</ele><time>2026-04-24T04:55:47Z</time></trkpt><trkpt lat="-18.484689920885437" lon="122.06037991611281"><ele>39.0</ele><time>2026-04-24T04:55:48Z</time></trkpt><trkpt lat="-18.48451145406469" lon="122.06064501989309"><ele>39.5</ele><time>2026-04-24T04:55:49Z</time></trkpt><trkpt lat="-18.484334447657233" lon="122.06090287445198"><ele>40.0</ele><time>2026-04-24T04:55:50Z</time></trkpt><trkpt lat="-18.48416038345259" lon="122.06115478040753"><ele>40.0</ele><time>2026-04-24T04:55:51Z</time></trkpt><trkpt lat="-18.483986876089787" lon="122.06140782561373"><ele>40.0</ele><time>2026-04-24T04:55:52Z</time></trkpt><trkpt lat="-18.48382034738311" lon="122.06165506222607"><ele>39.0</ele><time>2026-04-24T04:55:53Z</time></trkpt><trkpt lat="-18.483665760143126" lon="122.0618895567417"><ele>38.0</ele><time>2026-04-24T04:55:54Z</time></trkpt><trkpt lat="-18.483510969498163" lon="122.06213074265384"><ele>38.0</ele><time>2026-04-24T04:55:55Z</time></trkpt><trkpt lat="-18.483351042322173" lon="122.06238810141684"><ele>38.0</ele><time>2026-04-24T04:55:56Z</time></trkpt><trkpt lat="-18.483184483611478" lon="122.06265426856928"><ele>38.5</ele><time>2026-04-24T04:55:57Z</time></trkpt><trkpt lat="-18.483006625408166" lon="122.06292552433281"><ele>39.0</ele><time>2026-04-24T04:55:58Z</time></trkpt><trkpt lat="-18.482820474599325" lon="122.06320162689707"><ele>39.0</ele><time>2026-04-24T04:55:59Z</time></trkpt><trkpt lat="-18.482626847667532" lon="122.06347982031414"><ele>39.0</ele><time>2026-04-24T04:56:00.001Z</time></trkpt><trkpt lat="-18.482430493890764" lon="122.06375766931119"><ele>39.0</ele><time>2026-04-24T04:56:01.001Z</time></trkpt><trkpt lat="-18.482232834415967" lon="122.06403099929705"><ele>39.0</ele><time>2026-04-24T04:56:02.001Z</time></trkpt><trkpt lat="-18.48202625684445" lon="122.06429520310542"><ele>39.0</ele><time>2026-04-24T04:56:03.001Z</time></trkpt><trkpt lat="-18.48181257341155" lon="122.06455146761807"><ele>39.0</ele><time>2026-04-24T04:56:04.001Z</time></trkpt><trkpt lat="-18.481596293108606" lon="122.06479970151806"><ele>39.0</ele><time>2026-04-24T04:56:05.001Z</time></trkpt><trkpt lat="-18.481383719208058" lon="122.06504097376344"><ele>39.0</ele><time>2026-04-24T04:56:06.001Z</time></trkpt><trkpt lat="-18.481170871475747" lon="122.06527795205817"><ele>39.5</ele><time>2026-04-24T04:56:07.001Z</time></trkpt><trkpt lat="-18.480956061297615" lon="122.06550762938244"><ele>40.0</ele><time>2026-04-24T04:56:08.001Z</time></trkpt><trkpt lat="-18.48073196790146" lon="122.06573712435315"><ele>39.5</ele><time>2026-04-24T04:56:09.001Z</time></trkpt><trkpt lat="-18.480506917618673" lon="122.06596253317653"><ele>39.0</ele><time>2026-04-24T04:56:10.001Z</time></trkpt><trkpt lat="-18.480275648342413" lon="122.06618362162085"><ele>38.5</ele><time>2026-04-24T04:56:11.001Z</time></trkpt><trkpt lat="-18.48004056933114" lon="122.06639968506059"><ele>38.0</ele><time>2026-04-24T04:56:12.001Z</time></trkpt><trkpt lat="-18.479805622923212" lon="122.06661182192326"><ele>38.0</ele><time>2026-04-24T04:56:13.001Z</time></trkpt><trkpt lat="-18.479568868400342" lon="122.06681776661189"><ele>38.0</ele><time>2026-04-24T04:56:14Z</time></trkpt><trkpt lat="-18.479331211812287" lon="122.0670157109572"><ele>38.0</ele><time>2026-04-24T04:56:15Z</time></trkpt><trkpt lat="-18.479087033598354" lon="122.06721096048327"><ele>38.0</ele><time>2026-04-24T04:56:16Z</time></trkpt><trkpt lat="-18.478835557639574" lon="122.06740447923818"><ele>38.5</ele><time>2026-04-24T04:56:17Z</time></trkpt><trkpt lat="-18.478581875544517" lon="122.06759705976174"><ele>39.0</ele><time>2026-04-24T04:56:18Z</time></trkpt><trkpt lat="-18.478325520909706" lon="122.06778571540036"><ele>39.0</ele><time>2026-04-24T04:56:19Z</time></trkpt><trkpt lat="-18.478064464234492" lon="122.06797010968364"><ele>39.0</ele><time>2026-04-24T04:56:20Z</time></trkpt><trkpt lat="-18.477801902346798" lon="122.0681557868622"><ele>39.0</ele><time>2026-04-24T04:56:21Z</time></trkpt><trkpt lat="-18.477541461023453" lon="122.06834236698812"><ele>39.0</ele><time>2026-04-24T04:56:22Z</time></trkpt><trkpt lat="-18.477281253584216" lon="122.06853201537893"><ele>39.0</ele><time>2026-04-24T04:56:23Z</time></trkpt><trkpt lat="-18.477020291229543" lon="122.06872095920649"><ele>39.0</ele><time>2026-04-24T04:56:24Z</time></trkpt><trkpt lat="-18.47675918308822" lon="122.06890752064713"><ele>39.0</ele><time>2026-04-24T04:56:25Z</time></trkpt><trkpt lat="-18.47649827545012" lon="122.06909342481617"><ele>39.0</ele><time>2026-04-24T04:56:26Z</time></trkpt><trkpt lat="-18.476240214709115" lon="122.06927909556798"><ele>39.5</ele><time>2026-04-24T04:56:27Z</time></trkpt><trkpt lat="-18.47598353365774" lon="122.06946363882479"><ele>40.0</ele><time>2026-04-24T04:56:28Z</time></trkpt><trkpt lat="-18.475725568328315" lon="122.06965020522955"><ele>40.0</ele><time>2026-04-24T04:56:29Z</time></trkpt><trkpt lat="-18.475466859800665" lon="122.06983800939491"><ele>40.0</ele><time>2026-04-24T04:56:30Z</time></trkpt><trkpt lat="-18.475208210617193" lon="122.07002469614115"><ele>39.5</ele><time>2026-04-24T04:56:31Z</time></trkpt><trkpt lat="-18.47494792476672" lon="122.07021141636271"><ele>39.0</ele><time>2026-04-24T04:56:32Z</time></trkpt><trkpt lat="-18.474686627966594" lon="122.07040059543083"><ele>39.0</ele><time>2026-04-24T04:56:33Z</time></trkpt><trkpt lat="-18.47442751011655" lon="122.07059143546122"><ele>39.0</ele><time>2026-04-24T04:56:34Z</time></trkpt><trkpt lat="-18.47417186066655" lon="122.07078679375708"><ele>39.0</ele><time>2026-04-24T04:56:35Z</time></trkpt><trkpt lat="-18.473914297070188" lon="122.0709816516499"><ele>39.0</ele><time>2026-04-24T04:56:36Z</time></trkpt><trkpt lat="-18.47365272415863" lon="122.07117247771734"><ele>39.0</ele><time>2026-04-24T04:56:37Z</time></trkpt><trkpt lat="-18.47338932477601" lon="122.07136480243847"><ele>39.0</ele><time>2026-04-24T04:56:38Z</time></trkpt><trkpt lat="-18.47312570989578" lon="122.07155681624045"><ele>40.0</ele><time>2026-04-24T04:56:39Z</time></trkpt><trkpt lat="-18.472861439411776" lon="122.0717469008569"><ele>41.0</ele><time>2026-04-24T04:56:40Z</time></trkpt><trkpt lat="-18.472598459739686" lon="122.07193599157299"><ele>41.0</ele><time>2026-04-24T04:56:41Z</time></trkpt><trkpt lat="-18.472335676544564" lon="122.07212779649308"><ele>41.0</ele><time>2026-04-24T04:56:42Z</time></trkpt><trkpt lat="-18.47207221899535" lon="122.07231969054901"><ele>40.5</ele><time>2026-04-24T04:56:43Z</time></trkpt><trkpt lat="-18.471808325792974" lon="122.07251122262099"><ele>40.0</ele><time>2026-04-24T04:56:44Z</time></trkpt><trkpt lat="-18.471542198591372" lon="122.0727002544184"><ele>40.0</ele><time>2026-04-24T04:56:45Z</time></trkpt><trkpt lat="-18.471279131478607" lon="122.07288970196319"><ele>40.0</ele><time>2026-04-24T04:56:46Z</time></trkpt><trkpt lat="-18.471017930013332" lon="122.07308162647801"><ele>40.5</ele><time>2026-04-24T04:56:47Z</time></trkpt><trkpt lat="-18.470759407319534" lon="122.07327033753926"><ele>41.0</ele><time>2026-04-24T04:56:48Z</time></trkpt><trkpt lat="-18.470504292133715" lon="122.07345645381105"><ele>41.5</ele><time>2026-04-24T04:56:49Z</time></trkpt><trkpt lat="-18.47025043774975" lon="122.07363816396851"><ele>42.0</ele><time>2026-04-24T04:56:50Z</time></trkpt><trkpt lat="-18.470000079142054" lon="122.07381818981565"><ele>42.0</ele><time>2026-04-24T04:56:51Z</time></trkpt><trkpt lat="-18.469750610590044" lon="122.07399840505742"><ele>42.0</ele><time>2026-04-24T04:56:52Z</time></trkpt><trkpt lat="-18.46950134974519" lon="122.07417826371461"><ele>42.0</ele><time>2026-04-24T04:56:53Z</time></trkpt><trkpt lat="-18.469253582549236" lon="122.07435749806302"><ele>42.0</ele><time>2026-04-24T04:56:54Z</time></trkpt><trkpt lat="-18.469006962102508" lon="122.07453748582404"><ele>42.0</ele><time>2026-04-24T04:56:55Z</time></trkpt><trkpt lat="-18.46876133200513" lon="122.07471751034599"><ele>42.0</ele><time>2026-04-24T04:56:56Z</time></trkpt><trkpt lat="-18.468521110440843" lon="122.07489107813365"><ele>41.0</ele><time>2026-04-24T04:56:57Z</time></trkpt><trkpt lat="-18.46828224424559" lon="122.07506739129069"><ele>40.0</ele><time>2026-04-24T04:56:58Z</time></trkpt><trkpt lat="-18.46803981039171" lon="122.0752428907018"><ele>41.0</ele><time>2026-04-24T04:56:59Z</time></trkpt><trkpt lat="-18.46779594758495" lon="122.07542081413993"><ele>42.0</ele><time>2026-04-24T04:57:00Z</time></trkpt><trkpt lat="-18.467548568078627" lon="122.07560353891296"><ele>41.0</ele><time>2026-04-24T04:57:01Z</time></trkpt><trkpt lat="-18.46729870249601" lon="122.07578840925991"><ele>40.0</ele><time>2026-04-24T04:57:02Z</time></trkpt><trkpt lat="-18.467046189195976" lon="122.07597429020808"><ele>40.0</ele><time>2026-04-24T04:57:03Z</time></trkpt><trkpt lat="-18.46678254546611" lon="122.07614528210574"><ele>40.0</ele><time>2026-04-24T04:57:04Z</time></trkpt><trkpt lat="-18.466525888414502" lon="122.07633202878216"><ele>40.5</ele><time>2026-04-24T04:57:05Z</time></trkpt><trkpt lat="-18.46626989124952" lon="122.07651786916662"><ele>41.0</ele><time>2026-04-24T04:57:06Z</time></trkpt><trkpt lat="-18.46601451512102" lon="122.07670301016277"><ele>41.0</ele><time>2026-04-24T04:57:07Z</time></trkpt><trkpt lat="-18.465759110857416" lon="122.0768897810204"><ele>41.0</ele><time>2026-04-24T04:57:08Z</time></trkpt><trkpt lat="-18.46550511484841" lon="122.0770751589816"><ele>41.0</ele><time>2026-04-24T04:57:09Z</time></trkpt><trkpt lat="-18.465256599798266" lon="122.07727713386309"><ele>41.0</ele><time>2026-04-24T04:57:10Z</time></trkpt><trkpt lat="-18.46499647161765" lon="122.07746128107603"><ele>41.5</ele><time>2026-04-24T04:57:11Z</time></trkpt><trkpt lat="-18.4647369043219" lon="122.07764582792011"><ele>42.0</ele><time>2026-04-24T04:57:12Z</time></trkpt><trkpt lat="-18.464477139353452" lon="122.07783223484739"><ele>42.0</ele><time>2026-04-24T04:57:13Z</time></trkpt><trkpt lat="-18.464218071358598" lon="122.07801982992426"><ele>42.0</ele><time>2026-04-24T04:57:14Z</time></trkpt><trkpt lat="-18.46396380835886" lon="122.07820686559704"><ele>41.0</ele><time>2026-04-24T04:57:15Z</time></trkpt><trkpt lat="-18.463707585782153" lon="122.07839572529166"><ele>40.0</ele><time>2026-04-24T04:57:16Z</time></trkpt><trkpt lat="-18.463450505893697" lon="122.07858444586981"><ele>40.0</ele><time>2026-04-24T04:57:17Z</time></trkpt><trkpt lat="-18.46319613146799" lon="122.07877221567537"><ele>40.0</ele><time>2026-04-24T04:57:18Z</time></trkpt><trkpt lat="-18.462941893571042" lon="122.07895978589688"><ele>40.5</ele><time>2026-04-24T04:57:19Z</time></trkpt><trkpt lat="-18.462686418777007" lon="122.07914564745467"><ele>41.0</ele><time>2026-04-24T04:57:20Z</time></trkpt><trkpt lat="-18.46243345075139" lon="122.07932996311521"><ele>41.0</ele><time>2026-04-24T04:57:21Z</time></trkpt><trkpt lat="-18.462183915276768" lon="122.07951261464241"><ele>41.0</ele><time>2026-04-24T04:57:22Z</time></trkpt><trkpt lat="-18.46193502480805" lon="122.0796930955812"><ele>41.5</ele><time>2026-04-24T04:57:23Z</time></trkpt><trkpt lat="-18.461688257718556" lon="122.07986909208938"><ele>42.0</ele><time>2026-04-24T04:57:24Z</time></trkpt><trkpt lat="-18.461444200965612" lon="122.0800444532377"><ele>40.0</ele><time>2026-04-24T04:57:25Z</time></trkpt><trkpt lat="-18.46119986955428" lon="122.08022280791037"><ele>38.0</ele><time>2026-04-24T04:57:26Z</time></trkpt><trkpt lat="-18.46095640250344" lon="122.08039949440638"><ele>38.0</ele><time>2026-04-24T04:57:27Z</time></trkpt><trkpt lat="-18.460707324475102" lon="122.08057892412788"><ele>38.0</ele><time>2026-04-24T04:57:28Z</time></trkpt><trkpt lat="-18.46045877642563" lon="122.0807561732767"><ele>40.5</ele><time>2026-04-24T04:57:29Z</time></trkpt><trkpt lat="-18.460210424780428" lon="122.08093478516274"><ele>43.0</ele><time>2026-04-24T04:57:30Z</time></trkpt><trkpt lat="-18.459961009681056" lon="122.08111584656602"><ele>43.0</ele><time>2026-04-24T04:57:31Z</time></trkpt><trkpt lat="-18.459708543636907" lon="122.0812998229929"><ele>43.0</ele><time>2026-04-24T04:57:32Z</time></trkpt><trkpt lat="-18.45945593403262" lon="122.08148452672225"><ele>42.5</ele><time>2026-04-24T04:57:33Z</time></trkpt><trkpt lat="-18.459204189101328" lon="122.0816684063913"><ele>42.0</ele><time>2026-04-24T04:57:34Z</time></trkpt><trkpt lat="-18.4589518795953" lon="122.08184946520882"><ele>42.0</ele><time>2026-04-24T04:57:35Z</time></trkpt><trkpt lat="-18.458699901096026" lon="122.08203113766548"><ele>42.0</ele><time>2026-04-24T04:57:36Z</time></trkpt><trkpt lat="-18.45844993161187" lon="122.08221453133032"><ele>42.0</ele><time>2026-04-24T04:57:37Z</time></trkpt><trkpt lat="-18.45820108791362" lon="122.08239828973291"><ele>42.0</ele><time>2026-04-24T04:57:38Z</time></trkpt><trkpt lat="-18.457952386679008" lon="122.082583648931"><ele>42.5</ele><time>2026-04-24T04:57:39Z</time></trkpt><trkpt lat="-18.457704335980207" lon="122.08276935320029"><ele>43.0</ele><time>2026-04-24T04:57:40Z</time></trkpt><trkpt lat="-18.45745750757865" lon="122.08295223804275"><ele>43.0</ele><time>2026-04-24T04:57:41Z</time></trkpt><trkpt lat="-18.45720827526505" lon="122.08313229492335"><ele>43.0</ele><time>2026-04-24T04:57:42Z</time></trkpt><trkpt lat="-18.456958494753565" lon="122.0833090867107"><ele>42.5</ele><time>2026-04-24T04:57:43Z</time></trkpt><trkpt lat="-18.456709695651153" lon="122.0834837756407"><ele>42.0</ele><time>2026-04-24T04:57:44Z</time></trkpt><trkpt lat="-18.456461436830097" lon="122.08365905510217"><ele>43.5</ele><time>2026-04-24T04:57:45Z</time></trkpt><trkpt lat="-18.4562162510265" lon="122.08383707663106"><ele>45.0</ele><time>2026-04-24T04:57:46Z</time></trkpt><trkpt lat="-18.45597014596103" lon="122.08401744155192"><ele>43.5</ele><time>2026-04-24T04:57:47Z</time></trkpt><trkpt lat="-18.45572378566763" lon="122.08420081054959"><ele>42.0</ele><time>2026-04-24T04:57:48Z</time></trkpt><trkpt lat="-18.455472665459062" lon="122.08438801154517"><ele>41.5</ele><time>2026-04-24T04:57:49Z</time></trkpt><trkpt lat="-18.455221690514716" lon="122.08457336506041"><ele>41.0</ele><time>2026-04-24T04:57:50Z</time></trkpt><trkpt lat="-18.454968720575977" lon="122.08475768629296"><ele>41.5</ele><time>2026-04-24T04:57:51Z</time></trkpt><trkpt lat="-18.45471534962815" lon="122.08493826411436"><ele>42.0</ele><time>2026-04-24T04:57:52Z</time></trkpt><trkpt lat="-18.45446315950996" lon="122.08512023599971"><ele>42.5</ele><time>2026-04-24T04:57:53Z</time></trkpt><trkpt lat="-18.454211899833904" lon="122.08530243533683"><ele>43.0</ele><time>2026-04-24T04:57:54Z</time></trkpt><trkpt lat="-18.453963234446046" lon="122.0854846819525"><ele>43.0</ele><time>2026-04-24T04:57:55Z</time></trkpt><trkpt lat="-18.453713190863727" lon="122.08566498274503"><ele>43.0</ele><time>2026-04-24T04:57:56Z</time></trkpt><trkpt lat="-18.453463405043113" lon="122.08584251526216"><ele>43.0</ele><time>2026-04-24T04:57:57.001Z</time></trkpt><trkpt lat="-18.45321503339113" lon="122.08601934190996"><ele>43.0</ele><time>2026-04-24T04:57:58.001Z</time></trkpt><trkpt lat="-18.45296765485536" lon="122.08619811834716"><ele>41.5</ele><time>2026-04-24T04:57:59.001Z</time></trkpt><trkpt lat="-18.45272096792051" lon="122.08637644612797"><ele>40.0</ele><time>2026-04-24T04:58:00.001Z</time></trkpt><trkpt lat="-18.452474836332655" lon="122.08655510174368"><ele>42.0</ele><time>2026-04-24T04:58:01.001Z</time></trkpt><trkpt lat="-18.452234047466067" lon="122.08673173878617"><ele>44.0</ele><time>2026-04-24T04:58:02.001Z</time></trkpt><trkpt lat="-18.4519927381804" lon="122.08691073956922"><ele>44.0</ele><time>2026-04-24T04:58:03.001Z</time></trkpt><trkpt lat="-18.451753965801824" lon="122.08708699378593"><ele>44.0</ele><time>2026-04-24T04:58:04.001Z</time></trkpt><trkpt lat="-18.45151395892025" lon="122.08726423721366"><ele>44.0</ele><time>2026-04-24T04:58:05.001Z</time></trkpt><trkpt lat="-18.451273075656058" lon="122.08744036871073"><ele>44.0</ele><time>2026-04-24T04:58:06.001Z</time></trkpt><trkpt lat="-18.45102928155287" lon="122.08761514896646"><ele>44.0</ele><time>2026-04-24T04:58:07.001Z</time></trkpt><trkpt lat="-18.450782456126415" lon="122.08779258004473"><ele>44.0</ele><time>2026-04-24T04:58:08.001Z</time></trkpt><trkpt lat="-18.450534022999854" lon="122.08796992284023"><ele>44.5</ele><time>2026-04-24T04:58:09.001Z</time></trkpt><trkpt lat="-18.450285171169387" lon="122.08815109484117"><ele>45.0</ele><time>2026-04-24T04:58:10.001Z</time></trkpt><trkpt lat="-18.45003849299299" lon="122.08833513360065"><ele>45.5</ele><time>2026-04-24T04:58:11.001Z</time></trkpt><trkpt lat="-18.449787605064817" lon="122.08851927510794"><ele>46.0</ele><time>2026-04-24T04:58:12.001Z</time></trkpt><trkpt lat="-18.44953496535256" lon="122.08870375055673"><ele>46.0</ele><time>2026-04-24T04:58:13.001Z</time></trkpt><trkpt lat="-18.449278978701276" lon="122.08888960413265"><ele>46.0</ele><time>2026-04-24T04:58:14.001Z</time></trkpt><trkpt lat="-18.449022535213143" lon="122.08907666283632"><ele>45.0</ele><time>2026-04-24T04:58:15.001Z</time></trkpt><trkpt lat="-18.448770120241587" lon="122.08925980592154"><ele>44.0</ele><time>2026-04-24T04:58:16.001Z</time></trkpt><trkpt lat="-18.44853445854525" lon="122.08943138650216"><ele>44.0</ele><time>2026-04-24T04:58:17.001Z</time></trkpt><trkpt lat="-18.44831225855358" lon="122.08959278442313"><ele>44.0</ele><time>2026-04-24T04:58:18.001Z</time></trkpt><trkpt lat="-18.448081562109085" lon="122.0897572857916"><ele>45.0</ele><time>2026-04-24T04:58:19Z</time></trkpt><trkpt lat="-18.44784425723952" lon="122.08992784692686"><ele>46.0</ele><time>2026-04-24T04:58:20Z</time></trkpt><trkpt lat="-18.447602792073756" lon="122.09010394407461"><ele>46.0</ele><time>2026-04-24T04:58:21Z</time></trkpt><trkpt lat="-18.447359024897263" lon="122.0902827306716"><ele>46.0</ele><time>2026-04-24T04:58:22Z</time></trkpt><trkpt lat="-18.447111170017475" lon="122.09046458964231"><ele>45.5</ele><time>2026-04-24T04:58:23Z</time></trkpt><trkpt lat="-18.44686410321022" lon="122.09064765959751"><ele>45.0</ele><time>2026-04-24T04:58:24Z</time></trkpt><trkpt lat="-18.44661575985613" lon="122.09083230553433"><ele>45.0</ele><time>2026-04-24T04:58:25Z</time></trkpt><trkpt lat="-18.44636430038019" lon="122.09101841543448"><ele>45.0</ele><time>2026-04-24T04:58:26Z</time></trkpt><trkpt lat="-18.446111795388433" lon="122.09120609081796"><ele>45.0</ele><time>2026-04-24T04:58:27Z</time></trkpt><trkpt lat="-18.445855691192698" lon="122.09139248681855"><ele>45.0</ele><time>2026-04-24T04:58:28Z</time></trkpt><trkpt lat="-18.445597926238424" lon="122.09157735000639"><ele>46.5</ele><time>2026-04-24T04:58:29Z</time></trkpt><trkpt lat="-18.445343311220412" lon="122.09176383684537"><ele>48.0</ele><time>2026-04-24T04:58:30Z</time></trkpt><trkpt lat="-18.44508779726692" lon="122.09195095484202"><ele>48.0</ele><time>2026-04-24T04:58:31Z</time></trkpt><trkpt lat="-18.444833305085687" lon="122.09213432823043"><ele>48.0</ele><time>2026-04-24T04:58:32Z</time></trkpt><trkpt lat="-18.444576387263318" lon="122.09232177396797"><ele>47.0</ele><time>2026-04-24T04:58:33Z</time></trkpt><trkpt lat="-18.444307444219742" lon="122.09249059071733"><ele>46.0</ele><time>2026-04-24T04:58:34Z</time></trkpt><trkpt lat="-18.444049886468502" lon="122.09267756980918"><ele>45.5</ele><time>2026-04-24T04:58:35Z</time></trkpt><trkpt lat="-18.443793147420656" lon="122.09286379999526"><ele>45.0</ele><time>2026-04-24T04:58:36Z</time></trkpt><trkpt lat="-18.443537448104273" lon="122.09304927993033"><ele>45.0</ele><time>2026-04-24T04:58:37Z</time></trkpt><trkpt lat="-18.44329154365886" lon="122.09324239947388"><ele>45.0</ele><time>2026-04-24T04:58:38Z</time></trkpt><trkpt lat="-18.443040897873423" lon="122.09341846352304"><ele>45.5</ele><time>2026-04-24T04:58:39Z</time></trkpt><trkpt lat="-18.44279372429355" lon="122.09359631472651"><ele>46.0</ele><time>2026-04-24T04:58:40Z</time></trkpt><trkpt lat="-18.442544333671332" lon="122.0937775932893"><ele>46.0</ele><time>2026-04-24T04:58:41Z</time></trkpt><trkpt lat="-18.442292608307508" lon="122.09396408398156"><ele>46.0</ele><time>2026-04-24T04:58:42Z</time></trkpt><trkpt lat="-18.442042157795292" lon="122.09415291054293"><ele>46.5</ele><time>2026-04-24T04:58:43Z</time></trkpt><trkpt lat="-18.441783320795857" lon="122.09432696871151"><ele>47.0</ele><time>2026-04-24T04:58:44.001Z</time></trkpt><trkpt lat="-18.44153170872691" lon="122.09450943077951"><ele>48.0</ele><time>2026-04-24T04:58:45.001Z</time></trkpt><trkpt lat="-18.441279328612545" lon="122.09469278151381"><ele>49.0</ele><time>2026-04-24T04:58:46.001Z</time></trkpt><trkpt lat="-18.441025694440913" lon="122.09487704331816"><ele>49.0</ele><time>2026-04-24T04:58:47.001Z</time></trkpt><trkpt lat="-18.44076221921903" lon="122.095068454486"><ele>49.0</ele><time>2026-04-24T04:58:48.001Z</time></trkpt><trkpt lat="-18.440494534497518" lon="122.09526273219592"><ele>49.0</ele><time>2026-04-24T04:58:49.001Z</time></trkpt><trkpt lat="-18.440222826238813" lon="122.09545973810471"><ele>49.0</ele><time>2026-04-24T04:58:50.001Z</time></trkpt><trkpt lat="-18.439948990497122" lon="122.09565892959637"><ele>49.5</ele><time>2026-04-24T04:58:51.001Z</time></trkpt><trkpt lat="-18.439675987686503" lon="122.09585742753951"><ele>50.0</ele><time>2026-04-24T04:58:52.001Z</time></trkpt><trkpt lat="-18.439403474099667" lon="122.09605400135737"><ele>49.0</ele><time>2026-04-24T04:58:53.001Z</time></trkpt><trkpt lat="-18.43913281048955" lon="122.09625077446242"><ele>48.0</ele><time>2026-04-24T04:58:54.001Z</time></trkpt><trkpt lat="-18.43886352298949" lon="122.09644743974647"><ele>48.5</ele><time>2026-04-24T04:58:55.001Z</time></trkpt><trkpt lat="-18.438595529999624" lon="122.09664116624815"><ele>49.0</ele><time>2026-04-24T04:58:56.001Z</time></trkpt><trkpt lat="-18.43832891030102" lon="122.09683421615487"><ele>49.0</ele><time>2026-04-24T04:58:57.001Z</time></trkpt><trkpt lat="-18.438064932891802" lon="122.09702547128735"><ele>49.0</ele><time>2026-04-24T04:58:58.001Z</time></trkpt><trkpt lat="-18.437806619348898" lon="122.09721206614549"><ele>48.5</ele><time>2026-04-24T04:58:59.001Z</time></trkpt><trkpt lat="-18.437550052789216" lon="122.09739791900421"><ele>48.0</ele><time>2026-04-24T04:59:00.001Z</time></trkpt><trkpt lat="-18.437293883282962" lon="122.09758358644301"><ele>47.5</ele><time>2026-04-24T04:59:01.001Z</time></trkpt><trkpt lat="-18.437042301153895" lon="122.09777951961213"><ele>47.0</ele><time>2026-04-24T04:59:02.001Z</time></trkpt><trkpt lat="-18.436786761761912" lon="122.09795857047061"><ele>47.0</ele><time>2026-04-24T04:59:03.001Z</time></trkpt><trkpt lat="-18.43654608148319" lon="122.0981359611803"><ele>47.0</ele><time>2026-04-24T04:59:04.001Z</time></trkpt><trkpt lat="-18.436318482664664" lon="122.09830738722998"><ele>47.0</ele><time>2026-04-24T04:59:05.001Z</time></trkpt><trkpt lat="-18.43608818738906" lon="122.09846104905397"><ele>47.0</ele><time>2026-04-24T04:59:06.001Z</time></trkpt><trkpt lat="-18.4358708663163" lon="122.09861869845012"><ele>47.0</ele><time>2026-04-24T04:59:07.001Z</time></trkpt><trkpt lat="-18.435655924238073" lon="122.09877520273244"><ele>47.0</ele><time>2026-04-24T04:59:08.001Z</time></trkpt><trkpt lat="-18.435457275101843" lon="122.0989406112617"><ele>48.5</ele><time>2026-04-24T04:59:09.001Z</time></trkpt><trkpt lat="-18.435251836623035" lon="122.09908945900452"><ele>50.0</ele><time>2026-04-24T04:59:10.001Z</time></trkpt><trkpt lat="-18.435055822010128" lon="122.09923565439797"><ele>50.0</ele><time>2026-04-24T04:59:11.001Z</time></trkpt><trkpt lat="-18.434872151988916" lon="122.09937899563526"><ele>50.0</ele><time>2026-04-24T04:59:12.001Z</time></trkpt><trkpt lat="-18.434676676283257" lon="122.09951268338122"><ele>48.5</ele><time>2026-04-24T04:59:13.001Z</time></trkpt><trkpt lat="-18.434479496156747" lon="122.09967055309814"><ele>47.0</ele><time>2026-04-24T04:59:14.001Z</time></trkpt><trkpt lat="-18.43426722089507" lon="122.09984596485903"><ele>47.5</ele><time>2026-04-24T04:59:15.001Z</time></trkpt><trkpt lat="-18.43404867404718" lon="122.10003609416084"><ele>48.0</ele><time>2026-04-24T04:59:16.001Z</time></trkpt><trkpt lat="-18.43382801489933" lon="122.10023294615569"><ele>47.5</ele><time>2026-04-24T04:59:17.001Z</time></trkpt><trkpt lat="-18.433609561167067" lon="122.10043254684852"><ele>47.0</ele><time>2026-04-24T04:59:18.001Z</time></trkpt><trkpt lat="-18.433391047665562" lon="122.10063671150705"><ele>47.5</ele><time>2026-04-24T04:59:19.001Z</time></trkpt><trkpt lat="-18.433168783772032" lon="122.10085121049097"><ele>48.0</ele><time>2026-04-24T04:59:20.001Z</time></trkpt><trkpt lat="-18.432954807277625" lon="122.10108091537225"><ele>48.0</ele><time>2026-04-24T04:59:21.001Z</time></trkpt><trkpt lat="-18.432733590782593" lon="122.10129020370832"><ele>48.0</ele><time>2026-04-24T04:59:22.001Z</time></trkpt><trkpt lat="-18.432518103026613" lon="122.10149536692226"><ele>48.5</ele><time>2026-04-24T04:59:23.001Z</time></trkpt><trkpt lat="-18.432305320150526" lon="122.10170120004699"><ele>49.0</ele><time>2026-04-24T04:59:24.001Z</time></trkpt><trkpt lat="-18.432090422495353" lon="122.10190751727913"><ele>49.5</ele><time>2026-04-24T04:59:25.001Z</time></trkpt><trkpt lat="-18.431877386193992" lon="122.10211295506357"><ele>50.0</ele><time>2026-04-24T04:59:26.001Z</time></trkpt><trkpt lat="-18.431664697946804" lon="122.10231923383357"><ele>50.0</ele><time>2026-04-24T04:59:27.001Z</time></trkpt><trkpt lat="-18.431456408354087" lon="122.10252395000099"><ele>50.0</ele><time>2026-04-24T04:59:28.001Z</time></trkpt><trkpt lat="-18.43124198293249" lon="122.10273073512333"><ele>50.0</ele><time>2026-04-24T04:59:29.001Z</time></trkpt><trkpt lat="-18.431027717593288" lon="122.10293951748206"><ele>50.0</ele><time>2026-04-24T04:59:30.001Z</time></trkpt><trkpt lat="-18.430813172071797" lon="122.10315173027404"><ele>50.5</ele><time>2026-04-24T04:59:31.001Z</time></trkpt><trkpt lat="-18.430597017041844" lon="122.10336748949514"><ele>51.0</ele><time>2026-04-24T04:59:32.001Z</time></trkpt><trkpt lat="-18.43037795101092" lon="122.10358197221188"><ele>51.0</ele><time>2026-04-24T04:59:33.001Z</time></trkpt><trkpt lat="-18.43015787499694" lon="122.1037945887852"><ele>51.0</ele><time>2026-04-24T04:59:34.001Z</time></trkpt><trkpt lat="-18.429930063902546" lon="122.10401314058149"><ele>51.0</ele><time>2026-04-24T04:59:35.001Z</time></trkpt><trkpt lat="-18.42970235674448" lon="122.10422847882835"><ele>51.0</ele><time>2026-04-24T04:59:36.001Z</time></trkpt><trkpt lat="-18.429472697800847" lon="122.10444371231323"><ele>50.5</ele><time>2026-04-24T04:59:37.001Z</time></trkpt><trkpt lat="-18.429243388901213" lon="122.10466086841386"><ele>50.0</ele><time>2026-04-24T04:59:38.001Z</time></trkpt><trkpt lat="-18.42901636606202" lon="122.1048798373517"><ele>50.5</ele><time>2026-04-24T04:59:39.001Z</time></trkpt><trkpt lat="-18.42879056311616" lon="122.10509986462"><ele>51.0</ele><time>2026-04-24T04:59:40.001Z</time></trkpt><trkpt lat="-18.42856634943458" lon="122.10532187922789"><ele>51.0</ele><time>2026-04-24T04:59:41.001Z</time></trkpt><trkpt lat="-18.428340730145965" lon="122.10554755236257"><ele>51.0</ele><time>2026-04-24T04:59:42.001Z</time></trkpt><trkpt lat="-18.428115211410002" lon="122.1057723780071"><ele>51.0</ele><time>2026-04-24T04:59:43.001Z</time></trkpt><trkpt lat="-18.427885214548613" lon="122.10599390300209"><ele>51.0</ele><time>2026-04-24T04:59:44.001Z</time></trkpt><trkpt lat="-18.42765550311192" lon="122.10621529493386"><ele>51.0</ele><time>2026-04-24T04:59:45.001Z</time></trkpt><trkpt lat="-18.427426801582055" lon="122.10643280063964"><ele>51.0</ele><time>2026-04-24T04:59:46.001Z</time></trkpt><trkpt lat="-18.427202389783602" lon="122.10664793545979"><ele>51.5</ele><time>2026-04-24T04:59:47.001Z</time></trkpt><trkpt lat="-18.42698008148649" lon="122.10686243889181"><ele>52.0</ele><time>2026-04-24T04:59:48.001Z</time></trkpt><trkpt lat="-18.426758276336653" lon="122.1070738433446"><ele>52.0</ele><time>2026-04-24T04:59:49.001Z</time></trkpt><trkpt lat="-18.42653775880463" lon="122.10728318042148"><ele>52.0</ele><time>2026-04-24T04:59:50.001Z</time></trkpt><trkpt lat="-18.426314112891024" lon="122.10749664320456"><ele>52.5</ele><time>2026-04-24T04:59:51.001Z</time></trkpt><trkpt lat="-18.426090342134007" lon="122.10771092876863"><ele>53.0</ele><time>2026-04-24T04:59:52.001Z</time></trkpt><trkpt lat="-18.425869053770647" lon="122.10792511767976"><ele>53.0</ele><time>2026-04-24T04:59:53.001Z</time></trkpt><trkpt lat="-18.425649849742953" lon="122.10814031223877"><ele>53.0</ele><time>2026-04-24T04:59:54.001Z</time></trkpt><trkpt lat="-18.425430371197624" lon="122.10835771054478"><ele>52.5</ele><time>2026-04-24T04:59:55.001Z</time></trkpt><trkpt lat="-18.425211318758503" lon="122.10857239649437"><ele>52.0</ele><time>2026-04-24T04:59:56.001Z</time></trkpt><trkpt lat="-18.424993443292113" lon="122.10878715677349"><ele>52.0</ele><time>2026-04-24T04:59:57.001Z</time></trkpt><trkpt lat="-18.424775966597306" lon="122.10900144798123"><ele>52.0</ele><time>2026-04-24T04:59:58.001Z</time></trkpt><trkpt lat="-18.424556905949743" lon="122.1092143308181"><ele>52.5</ele><time>2026-04-24T04:59:59.001Z</time></trkpt><trkpt lat="-18.42433697072419" lon="122.10942686234308"><ele>53.0</ele><time>2026-04-24T05:00:00.001Z</time></trkpt><trkpt lat="-18.424117954313754" lon="122.10963681738139"><ele>53.0</ele><time>2026-04-24T05:00:01.001Z</time></trkpt><trkpt lat="-18.42390023048245" lon="122.10984656646713"><ele>53.0</ele><time>2026-04-24T05:00:02.001Z</time></trkpt><trkpt lat="-18.423680648786917" lon="122.11006080331104"><ele>53.0</ele><time>2026-04-24T05:00:03.001Z</time></trkpt><trkpt lat="-18.423461384179074" lon="122.11027599407802"><ele>53.0</ele><time>2026-04-24T05:00:04.001Z</time></trkpt><trkpt lat="-18.42324026082363" lon="122.11049151726797"><ele>53.0</ele><time>2026-04-24T05:00:05.001Z</time></trkpt><trkpt lat="-18.423018359689816" lon="122.11070756098826"><ele>53.0</ele><time>2026-04-24T05:00:06.001Z</time></trkpt><trkpt lat="-18.4227980388751" lon="122.1109218446159"><ele>53.5</ele><time>2026-04-24T05:00:07.001Z</time></trkpt><trkpt lat="-18.422579234801564" lon="122.1111342378697"><ele>54.0</ele><time>2026-04-24T05:00:08.001Z</time></trkpt><trkpt lat="-18.422359366291744" lon="122.11134463093173"><ele>54.0</ele><time>2026-04-24T05:00:09.001Z</time></trkpt><trkpt lat="-18.42214194682168" lon="122.11155238918134"><ele>54.0</ele><time>2026-04-24T05:00:10.001Z</time></trkpt><trkpt lat="-18.421923538485576" lon="122.11176184590153"><ele>53.0</ele><time>2026-04-24T05:00:11.001Z</time></trkpt><trkpt lat="-18.4217058692549" lon="122.11197129093053"><ele>52.0</ele><time>2026-04-24T05:00:12.001Z</time></trkpt><trkpt lat="-18.42148473161797" lon="122.11218314921796"><ele>52.0</ele><time>2026-04-24T05:00:13.001Z</time></trkpt><trkpt lat="-18.421265644653968" lon="122.1124004091932"><ele>52.0</ele><time>2026-04-24T05:00:14.001Z</time></trkpt><trkpt lat="-18.42104666486755" lon="122.11261963411539"><ele>52.0</ele><time>2026-04-24T05:00:15.001Z</time></trkpt><trkpt lat="-18.42082709513804" lon="122.11283264095185"><ele>52.0</ele><time>2026-04-24T05:00:16.001Z</time></trkpt><trkpt lat="-18.42060665796126" lon="122.11304496353938"><ele>51.5</ele><time>2026-04-24T05:00:17.001Z</time></trkpt><trkpt lat="-18.42038805449887" lon="122.11325769622293"><ele>51.0</ele><time>2026-04-24T05:00:18.001Z</time></trkpt><trkpt lat="-18.420170036364883" lon="122.11347049526607"><ele>51.0</ele><time>2026-04-24T05:00:19.001Z</time></trkpt><trkpt lat="-18.419953684727666" lon="122.11368065112737"><ele>51.0</ele><time>2026-04-24T05:00:20.002Z</time></trkpt><trkpt lat="-18.419737812733665" lon="122.11389454184135"><ele>50.0</ele><time>2026-04-24T05:00:21.002Z</time></trkpt><trkpt lat="-18.419519684012702" lon="122.11410529117651"><ele>49.0</ele><time>2026-04-24T05:00:22.002Z</time></trkpt><trkpt lat="-18.41929960122256" lon="122.11431397952266"><ele>49.0</ele><time>2026-04-24T05:00:23.002Z</time></trkpt><trkpt lat="-18.419079613935573" lon="122.11451842919703"><ele>49.0</ele><time>2026-04-24T05:00:24.002Z</time></trkpt><trkpt lat="-18.418856494171184" lon="122.11472494719625"><ele>50.0</ele><time>2026-04-24T05:00:25.001Z</time></trkpt><trkpt lat="-18.418635490426652" lon="122.11493443677739"><ele>51.0</ele><time>2026-04-24T05:00:26.001Z</time></trkpt><trkpt lat="-18.41841365406514" lon="122.11514720498549"><ele>51.0</ele><time>2026-04-24T05:00:27.001Z</time></trkpt><trkpt lat="-18.418191830920723" lon="122.11535803075746"><ele>51.0</ele><time>2026-04-24T05:00:28.001Z</time></trkpt><trkpt lat="-18.41797239514045" lon="122.11557211687287"><ele>50.5</ele><time>2026-04-24T05:00:29.001Z</time></trkpt><trkpt lat="-18.417749377894626" lon="122.11579089179659"><ele>50.0</ele><time>2026-04-24T05:00:30.001Z</time></trkpt><trkpt lat="-18.41753029297752" lon="122.11600929134522"><ele>50.0</ele><time>2026-04-24T05:00:31.001Z</time></trkpt><trkpt lat="-18.41730945013857" lon="122.11622720425271"><ele>50.0</ele><time>2026-04-24T05:00:32.001Z</time></trkpt><trkpt lat="-18.417090138772412" lon="122.11644167386953"><ele>49.5</ele><time>2026-04-24T05:00:33.001Z</time></trkpt><trkpt lat="-18.416855726273162" lon="122.11664130790183"><ele>49.0</ele><time>2026-04-24T05:00:34.001Z</time></trkpt><trkpt lat="-18.416645870642785" lon="122.11686683229705"><ele>49.0</ele><time>2026-04-24T05:00:35.001Z</time></trkpt><trkpt lat="-18.41642363584778" lon="122.1170814172028"><ele>49.0</ele><time>2026-04-24T05:00:36.001Z</time></trkpt><trkpt lat="-18.41620426181025" lon="122.11729644904275"><ele>47.5</ele><time>2026-04-24T05:00:37.001Z</time></trkpt><trkpt lat="-18.415972762262562" lon="122.11749807805165"><ele>46.0</ele><time>2026-04-24T05:00:38.001Z</time></trkpt><trkpt lat="-18.415762409021326" lon="122.11772592579932"><ele>46.0</ele><time>2026-04-24T05:00:39.001Z</time></trkpt><trkpt lat="-18.415539019153" lon="122.11793845295122"><ele>46.0</ele><time>2026-04-24T05:00:40.001Z</time></trkpt><trkpt lat="-18.41531671187293" lon="122.11815100332142"><ele>45.0</ele><time>2026-04-24T05:00:41.001Z</time></trkpt><trkpt lat="-18.415097268599066" lon="122.11836048742543"><ele>44.0</ele><time>2026-04-24T05:00:42.001Z</time></trkpt><trkpt lat="-18.41487822186357" lon="122.11857099145465"><ele>44.0</ele><time>2026-04-24T05:00:43.001Z</time></trkpt><trkpt lat="-18.414657667205578" lon="122.11878499838147"><ele>44.0</ele><time>2026-04-24T05:00:44.001Z</time></trkpt><trkpt lat="-18.414439124660927" lon="122.11899469591394"><ele>44.5</ele><time>2026-04-24T05:00:45.001Z</time></trkpt><trkpt lat="-18.414221616156492" lon="122.1192061276431"><ele>45.0</ele><time>2026-04-24T05:00:46.001Z</time></trkpt><trkpt lat="-18.414006033734506" lon="122.11941925005938"><ele>45.5</ele><time>2026-04-24T05:00:47.001Z</time></trkpt><trkpt lat="-18.413788122715452" lon="122.119633492275"><ele>46.0</ele><time>2026-04-24T05:00:48.001Z</time></trkpt><trkpt lat="-18.413571877457958" lon="122.11984331679554"><ele>45.0</ele><time>2026-04-24T05:00:49.001Z</time></trkpt><trkpt lat="-18.413351837200057" lon="122.12005397662558"><ele>44.0</ele><time>2026-04-24T05:00:50.001Z</time></trkpt><trkpt lat="-18.413134101538603" lon="122.12026404315559"><ele>43.5</ele><time>2026-04-24T05:00:51.001Z</time></trkpt><trkpt lat="-18.412914675023927" lon="122.12047480600647"><ele>43.0</ele><time>2026-04-24T05:00:52.001Z</time></trkpt><trkpt lat="-18.41269363316877" lon="122.12068440898594"><ele>43.5</ele><time>2026-04-24T05:00:53.001Z</time></trkpt><trkpt lat="-18.412472033515378" lon="122.12089817187034"><ele>44.0</ele><time>2026-04-24T05:00:54.001Z</time></trkpt><trkpt lat="-18.412249519953477" lon="122.12111151882992"><ele>44.0</ele><time>2026-04-24T05:00:55.001Z</time></trkpt><trkpt lat="-18.412025953124953" lon="122.12132782967369"><ele>44.0</ele><time>2026-04-24T05:00:56.001Z</time></trkpt><trkpt lat="-18.411805818057168" lon="122.12154128880431"><ele>44.5</ele><time>2026-04-24T05:00:57.001Z</time></trkpt><trkpt lat="-18.411591101450345" lon="122.12175124556698"><ele>45.0</ele><time>2026-04-24T05:00:58.001Z</time></trkpt><trkpt lat="-18.41138085902958" lon="122.12195942244892"><ele>43.5</ele><time>2026-04-24T05:00:59.001Z</time></trkpt><trkpt lat="-18.411169830693023" lon="122.12216396511076"><ele>42.0</ele><time>2026-04-24T05:01:00.001Z</time></trkpt><trkpt lat="-18.410957115675192" lon="122.12236597235325"><ele>42.0</ele><time>2026-04-24T05:01:01.001Z</time></trkpt><trkpt lat="-18.410742184541444" lon="122.12256754819217"><ele>42.0</ele><time>2026-04-24T05:01:02.001Z</time></trkpt><trkpt lat="-18.41052899947385" lon="122.12277025184657"><ele>42.5</ele><time>2026-04-24T05:01:03.001Z</time></trkpt><trkpt lat="-18.41031620268907" lon="122.12297711776858"><ele>43.0</ele><time>2026-04-24T05:01:04.001Z</time></trkpt><trkpt lat="-18.410105189293763" lon="122.12318186628897"><ele>42.0</ele><time>2026-04-24T05:01:05.001Z</time></trkpt><trkpt lat="-18.409893700068324" lon="122.12338760445581"><ele>41.0</ele><time>2026-04-24T05:01:06.001Z</time></trkpt><trkpt lat="-18.4096835188942" lon="122.12359276854943"><ele>41.5</ele><time>2026-04-24T05:01:07.001Z</time></trkpt><trkpt lat="-18.409470579028714" lon="122.1237990801925"><ele>42.0</ele><time>2026-04-24T05:01:08.001Z</time></trkpt><trkpt lat="-18.409261592426628" lon="122.1240027442765"><ele>41.5</ele><time>2026-04-24T05:01:09.001Z</time></trkpt><trkpt lat="-18.4090492547566" lon="122.12420826610551"><ele>41.0</ele><time>2026-04-24T05:01:10.001Z</time></trkpt><trkpt lat="-18.40883469774583" lon="122.12441552386305"><ele>41.0</ele><time>2026-04-24T05:01:11.001Z</time></trkpt><trkpt lat="-18.408617238619858" lon="122.12462391561742"><ele>41.0</ele><time>2026-04-24T05:01:12.001Z</time></trkpt><trkpt lat="-18.408401937558505" lon="122.12483001754582"><ele>40.0</ele><time>2026-04-24T05:01:13.001Z</time></trkpt><trkpt lat="-18.408187361867128" lon="122.12503731424773"><ele>39.0</ele><time>2026-04-24T05:01:14.001Z</time></trkpt><trkpt lat="-18.407973311494747" lon="122.12524615877122"><ele>38.0</ele><time>2026-04-24T05:01:15.001Z</time></trkpt><trkpt lat="-18.407760961785264" lon="122.1254522184776"><ele>37.0</ele><time>2026-04-24T05:01:16.001Z</time></trkpt><trkpt lat="-18.40754957066208" lon="122.1256622327444"><ele>37.0</ele><time>2026-04-24T05:01:17.001Z</time></trkpt><trkpt lat="-18.40734374189125" lon="122.12586566683446"><ele>37.0</ele><time>2026-04-24T05:01:18.001Z</time></trkpt><trkpt lat="-18.407134506007328" lon="122.12606762998433"><ele>38.0</ele><time>2026-04-24T05:01:19.001Z</time></trkpt><trkpt lat="-18.406919650576583" lon="122.1262696486376"><ele>39.0</ele><time>2026-04-24T05:01:20.001Z</time></trkpt><trkpt lat="-18.40670704382791" lon="122.12647207916439"><ele>38.5</ele><time>2026-04-24T05:01:21.001Z</time></trkpt><trkpt lat="-18.40649740073191" lon="122.12667012928405"><ele>38.0</ele><time>2026-04-24T05:01:22.001Z</time></trkpt><trkpt lat="-18.406289936471293" lon="122.12686946657271"><ele>36.5</ele><time>2026-04-24T05:01:23.001Z</time></trkpt><trkpt lat="-18.40608449251156" lon="122.12706866602784"><ele>35.0</ele><time>2026-04-24T05:01:24.001Z</time></trkpt><trkpt lat="-18.405883754598975" lon="122.12726570895937"><ele>35.0</ele><time>2026-04-24T05:01:25.001Z</time></trkpt><trkpt lat="-18.405681850438427" lon="122.12746469142557"><ele>35.0</ele><time>2026-04-24T05:01:26.001Z</time></trkpt><trkpt lat="-18.40547906139275" lon="122.12766657807856"><ele>35.0</ele><time>2026-04-24T05:01:27.001Z</time></trkpt><trkpt lat="-18.405274996456786" lon="122.12786705704048"><ele>35.0</ele><time>2026-04-24T05:01:28.001Z</time></trkpt><trkpt lat="-18.405082192942398" lon="122.12805568408515"><ele>36.0</ele><time>2026-04-24T05:01:29.001Z</time></trkpt><trkpt lat="-18.40489757794486" lon="122.12823539809044"><ele>37.0</ele><time>2026-04-24T05:01:30.001Z</time></trkpt><trkpt lat="-18.40470363983572" lon="122.12842303807385"><ele>36.5</ele><time>2026-04-24T05:01:31.001Z</time></trkpt><trkpt lat="-18.40450205623715" lon="122.12861762218913"><ele>36.0</ele><time>2026-04-24T05:01:32.001Z</time></trkpt><trkpt lat="-18.40429358199957" lon="122.1288196571962"><ele>36.0</ele><time>2026-04-24T05:01:33.001Z</time></trkpt><trkpt lat="-18.40408283753293" lon="122.12902484701483"><ele>36.0</ele><time>2026-04-24T05:01:34.001Z</time></trkpt><trkpt lat="-18.403868064093537" lon="122.129234624"><ele>36.0</ele><time>2026-04-24T05:01:35.001Z</time></trkpt><trkpt lat="-18.40364963678643" lon="122.12944610716276"><ele>36.0</ele><time>2026-04-24T05:01:36.001Z</time></trkpt><trkpt lat="-18.40342676306298" lon="122.12965950951859"><ele>36.0</ele><time>2026-04-24T05:01:37.001Z</time></trkpt><trkpt lat="-18.403203073956977" lon="122.1298720822716"><ele>36.0</ele><time>2026-04-24T05:01:38.001Z</time></trkpt><trkpt lat="-18.40297817721262" lon="122.1300880654705"><ele>35.5</ele><time>2026-04-24T05:01:39.001Z</time></trkpt><trkpt lat="-18.402754885095817" lon="122.13030335553427"><ele>35.0</ele><time>2026-04-24T05:01:40.001Z</time></trkpt><trkpt lat="-18.4025313955083" lon="122.13051991729075"><ele>35.0</ele><time>2026-04-24T05:01:41.001Z</time></trkpt><trkpt lat="-18.402310702373345" lon="122.13073440552101"><ele>35.0</ele><time>2026-04-24T05:01:42.001Z</time></trkpt><trkpt lat="-18.4020916327628" lon="122.13094576958028"><ele>35.0</ele><time>2026-04-24T05:01:43.001Z</time></trkpt><trkpt lat="-18.40187261581159" lon="122.13115573416724"><ele>35.0</ele><time>2026-04-24T05:01:44.001Z</time></trkpt><trkpt lat="-18.401652468363263" lon="122.13136711653888"><ele>35.0</ele><time>2026-04-24T05:01:45.001Z</time></trkpt><trkpt lat="-18.401432630573577" lon="122.13158075907077"><ele>35.0</ele><time>2026-04-24T05:01:46.001Z</time></trkpt><trkpt lat="-18.401210806136124" lon="122.13179464871536"><ele>35.0</ele><time>2026-04-24T05:01:47.001Z</time></trkpt><trkpt lat="-18.40098908446258" lon="122.13200841393721"><ele>35.0</ele><time>2026-04-24T05:01:48.001Z</time></trkpt><trkpt lat="-18.400766892771884" lon="122.1322203840009"><ele>35.0</ele><time>2026-04-24T05:01:49.001Z</time></trkpt><trkpt lat="-18.40054452720106" lon="122.13243272704447"><ele>35.0</ele><time>2026-04-24T05:01:50.001Z</time></trkpt><trkpt lat="-18.400321365956216" lon="122.13264705689933"><ele>34.0</ele><time>2026-04-24T05:01:51.001Z</time></trkpt><trkpt lat="-18.400096801724423" lon="122.13286522882507"><ele>33.0</ele><time>2026-04-24T05:01:52.001Z</time></trkpt><trkpt lat="-18.39987241528814" lon="122.1330836741349"><ele>33.5</ele><time>2026-04-24T05:01:53.001Z</time></trkpt><trkpt lat="-18.399649376768977" lon="122.13330332165656"><ele>34.0</ele><time>2026-04-24T05:01:54.001Z</time></trkpt><trkpt lat="-18.399426173772735" lon="122.13352416563917"><ele>34.0</ele><time>2026-04-24T05:01:55.001Z</time></trkpt><trkpt lat="-18.39920163113244" lon="122.13374174749218"><ele>34.0</ele><time>2026-04-24T05:01:56.001Z</time></trkpt><trkpt lat="-18.398976780907454" lon="122.13395712197392"><ele>35.0</ele><time>2026-04-24T05:01:57.001Z</time></trkpt><trkpt lat="-18.398750514087233" lon="122.13417201408303"><ele>36.0</ele><time>2026-04-24T05:01:58.001Z</time></trkpt><trkpt lat="-18.398523187250248" lon="122.13438616199741"><ele>36.0</ele><time>2026-04-24T05:01:59.001Z</time></trkpt><trkpt lat="-18.3982963637254" lon="122.13460124671579"><ele>36.0</ele><time>2026-04-24T05:02:00.001Z</time></trkpt><trkpt lat="-18.3980758038914" lon="122.1348160785473"><ele>35.5</ele><time>2026-04-24T05:02:01.001Z</time></trkpt><trkpt lat="-18.39785458030733" lon="122.1350326682649"><ele>35.0</ele><time>2026-04-24T05:02:02.001Z</time></trkpt><trkpt lat="-18.397633328617736" lon="122.13525135302942"><ele>35.0</ele><time>2026-04-24T05:02:03.001Z</time></trkpt><trkpt lat="-18.397408933404947" lon="122.13547170869981"><ele>35.0</ele><time>2026-04-24T05:02:04.001Z</time></trkpt><trkpt lat="-18.397183019376747" lon="122.13569339602886"><ele>34.0</ele><time>2026-04-24T05:02:05.001Z</time></trkpt><trkpt lat="-18.396957647641717" lon="122.13591288931009"><ele>33.0</ele><time>2026-04-24T05:02:06.001Z</time></trkpt><trkpt lat="-18.396729334955253" lon="122.13613096860423"><ele>33.0</ele><time>2026-04-24T05:02:07.001Z</time></trkpt><trkpt lat="-18.396500917794683" lon="122.13634998058987"><ele>33.0</ele><time>2026-04-24T05:02:08.001Z</time></trkpt><trkpt lat="-18.39627200643635" lon="122.13656896087633"><ele>34.5</ele><time>2026-04-24T05:02:09.001Z</time></trkpt><trkpt lat="-18.39604342164226" lon="122.1367910241003"><ele>36.0</ele><time>2026-04-24T05:02:10.001Z</time></trkpt><trkpt lat="-18.395815646979035" lon="122.137014790512"><ele>36.0</ele><time>2026-04-24T05:02:11.001Z</time></trkpt><trkpt lat="-18.39558668635962" lon="122.13723771666388"><ele>36.0</ele><time>2026-04-24T05:02:12.001Z</time></trkpt><trkpt lat="-18.395356572987772" lon="122.13746065333218"><ele>35.0</ele><time>2026-04-24T05:02:13.001Z</time></trkpt><trkpt lat="-18.395126987611338" lon="122.13768499550521"><ele>34.0</ele><time>2026-04-24T05:02:14.001Z</time></trkpt><trkpt lat="-18.394895133695353" lon="122.13790770454722"><ele>35.0</ele><time>2026-04-24T05:02:15.001Z</time></trkpt><trkpt lat="-18.394662291324977" lon="122.13813047638178"><ele>36.0</ele><time>2026-04-24T05:02:16.001Z</time></trkpt><trkpt lat="-18.394429465695968" lon="122.13835669091365"><ele>36.0</ele><time>2026-04-24T05:02:17.001Z</time></trkpt><trkpt lat="-18.394197273972257" lon="122.13858352063244"><ele>36.0</ele><time>2026-04-24T05:02:18.001Z</time></trkpt><trkpt lat="-18.39396117649027" lon="122.13881112038167"><ele>35.5</ele><time>2026-04-24T05:02:19.001Z</time></trkpt><trkpt lat="-18.393730155342258" lon="122.13903793231611"><ele>35.0</ele><time>2026-04-24T05:02:20.001Z</time></trkpt><trkpt lat="-18.393496355673427" lon="122.13926402835239"><ele>35.0</ele><time>2026-04-24T05:02:21.001Z</time></trkpt><trkpt lat="-18.39325959976399" lon="122.13948821830269"><ele>35.0</ele><time>2026-04-24T05:02:22.001Z</time></trkpt><trkpt lat="-18.393020618012656" lon="122.13971644690746"><ele>37.0</ele><time>2026-04-24T05:02:23.001Z</time></trkpt><trkpt lat="-18.392781030615215" lon="122.13994409099146"><ele>39.0</ele><time>2026-04-24T05:02:24.001Z</time></trkpt><trkpt lat="-18.392543823546784" lon="122.14017485537794"><ele>39.0</ele><time>2026-04-24T05:02:25.001Z</time></trkpt><trkpt lat="-18.392310421213026" lon="122.14040341986495"><ele>39.0</ele><time>2026-04-24T05:02:26.001Z</time></trkpt><trkpt lat="-18.392076315435514" lon="122.1406303800693"><ele>38.0</ele><time>2026-04-24T05:02:27.001Z</time></trkpt><trkpt lat="-18.39184159119913" lon="122.14085679914808"><ele>37.0</ele><time>2026-04-24T05:02:28.001Z</time></trkpt><trkpt lat="-18.391608019311406" lon="122.14108341280291"><ele>37.0</ele><time>2026-04-24T05:02:29.001Z</time></trkpt><trkpt lat="-18.39137709210865" lon="122.14130978249975"><ele>37.0</ele><time>2026-04-24T05:02:30.001Z</time></trkpt><trkpt lat="-18.39114339447342" lon="122.14153764606161"><ele>38.0</ele><time>2026-04-24T05:02:31.001Z</time></trkpt><trkpt lat="-18.390907526108823" lon="122.14176477085125"><ele>39.0</ele><time>2026-04-24T05:02:32.001Z</time></trkpt><trkpt lat="-18.39067470733817" lon="122.14199217863758"><ele>39.0</ele><time>2026-04-24T05:02:33.001Z</time></trkpt><trkpt lat="-18.390428778706205" lon="122.14220907188619"><ele>39.0</ele><time>2026-04-24T05:02:34.001Z</time></trkpt><trkpt lat="-18.390192577234135" lon="122.14243809954367"><ele>39.0</ele><time>2026-04-24T05:02:35.001Z</time></trkpt><trkpt lat="-18.38996886804832" lon="122.14267852674773"><ele>39.0</ele><time>2026-04-24T05:02:36.001Z</time></trkpt><trkpt lat="-18.389734699473014" lon="122.1429042621239"><ele>39.5</ele><time>2026-04-24T05:02:37.001Z</time></trkpt><trkpt lat="-18.38948857402276" lon="122.14311836533116"><ele>40.0</ele><time>2026-04-24T05:02:38.001Z</time></trkpt><trkpt lat="-18.38925532462016" lon="122.14334345005994"><ele>40.0</ele><time>2026-04-24T05:02:39.001Z</time></trkpt><trkpt lat="-18.38902091082546" lon="122.1435708764321"><ele>40.0</ele><time>2026-04-24T05:02:40.001Z</time></trkpt><trkpt lat="-18.388801597457036" lon="122.14380781459951"><ele>40.0</ele><time>2026-04-24T05:02:41.001Z</time></trkpt><trkpt lat="-18.388554757522815" lon="122.14402350987675"><ele>40.0</ele><time>2026-04-24T05:02:42.001Z</time></trkpt><trkpt lat="-18.388330377388467" lon="122.14426424772297"><ele>40.5</ele><time>2026-04-24T05:02:43.001Z</time></trkpt><trkpt lat="-18.388092567431848" lon="122.14448651597354"><ele>41.0</ele><time>2026-04-24T05:02:44.001Z</time></trkpt><trkpt lat="-18.38785885747671" lon="122.14470865381072"><ele>42.0</ele><time>2026-04-24T05:02:45.001Z</time></trkpt><trkpt lat="-18.387627061986176" lon="122.1449344188415"><ele>43.0</ele><time>2026-04-24T05:02:46.001Z</time></trkpt><trkpt lat="-18.38739437678019" lon="122.14515746535865"><ele>42.0</ele><time>2026-04-24T05:02:47.001Z</time></trkpt><trkpt lat="-18.3871628631589" lon="122.1453819728104"><ele>41.0</ele><time>2026-04-24T05:02:48.001Z</time></trkpt><trkpt lat="-18.38693338495972" lon="122.14560453456664"><ele>41.0</ele><time>2026-04-24T05:02:49.001Z</time></trkpt><trkpt lat="-18.38670195184608" lon="122.14582664819052"><ele>41.0</ele><time>2026-04-24T05:02:50.001Z</time></trkpt><trkpt lat="-18.386472030138616" lon="122.14604769248857"><ele>41.5</ele><time>2026-04-24T05:02:51.001Z</time></trkpt><trkpt lat="-18.38624349495748" lon="122.1462699984"><ele>42.0</ele><time>2026-04-24T05:02:52.001Z</time></trkpt><trkpt lat="-18.386016571959416" lon="122.14649487210772"><ele>41.5</ele><time>2026-04-24T05:02:53.001Z</time></trkpt><trkpt lat="-18.385788303385795" lon="122.14671941718412"><ele>41.0</ele><time>2026-04-24T05:02:54.001Z</time></trkpt><trkpt lat="-18.385560189090086" lon="122.14694074413835"><ele>41.0</ele><time>2026-04-24T05:02:55.001Z</time></trkpt><trkpt lat="-18.385331155081463" lon="122.14716098534863"><ele>41.0</ele><time>2026-04-24T05:02:56.001Z</time></trkpt><trkpt lat="-18.385102946312333" lon="122.14738082318564"><ele>41.0</ele><time>2026-04-24T05:02:57.001Z</time></trkpt><trkpt lat="-18.384874527567447" lon="122.14760018197478"><ele>41.0</ele><time>2026-04-24T05:02:58.001Z</time></trkpt><trkpt lat="-18.38464773766483" lon="122.14781883015159"><ele>41.5</ele><time>2026-04-24T05:02:59.001Z</time></trkpt><trkpt lat="-18.384421449914562" lon="122.14803873779003"><ele>42.0</ele><time>2026-04-24T05:03:00.001Z</time></trkpt><trkpt lat="-18.384196372720137" lon="122.14825828508351"><ele>42.0</ele><time>2026-04-24T05:03:01.001Z</time></trkpt><trkpt lat="-18.383958759695844" lon="122.14846569835188"><ele>42.0</ele><time>2026-04-24T05:03:02.001Z</time></trkpt><trkpt lat="-18.383741550134985" lon="122.14869812209783"><ele>42.5</ele><time>2026-04-24T05:03:03.001Z</time></trkpt><trkpt lat="-18.383513743448656" lon="122.14891915679993"><ele>43.0</ele><time>2026-04-24T05:03:04.001Z</time></trkpt><trkpt lat="-18.383282881476052" lon="122.14914306257396"><ele>43.5</ele><time>2026-04-24T05:03:05.001Z</time></trkpt><trkpt lat="-18.383052494768833" lon="122.14936744210048"><ele>44.0</ele><time>2026-04-24T05:03:06.001Z</time></trkpt><trkpt lat="-18.382806055883076" lon="122.14958349869447"><ele>44.0</ele><time>2026-04-24T05:03:07.001Z</time></trkpt><trkpt lat="-18.382570773198744" lon="122.14981159705712"><ele>44.0</ele><time>2026-04-24T05:03:08.001Z</time></trkpt><trkpt lat="-18.38233453736177" lon="122.15003789591745"><ele>43.5</ele><time>2026-04-24T05:03:09.001Z</time></trkpt><trkpt lat="-18.382109572722566" lon="122.15027664019149"><ele>43.0</ele><time>2026-04-24T05:03:10.001Z</time></trkpt><trkpt lat="-18.381877174359197" lon="122.15050217552945"><ele>43.0</ele><time>2026-04-24T05:03:11.001Z</time></trkpt><trkpt lat="-18.38164543991188" lon="122.15072766768124"><ele>43.0</ele><time>2026-04-24T05:03:12.001Z</time></trkpt><trkpt lat="-18.381416208325316" lon="122.1509503645808"><ele>43.5</ele><time>2026-04-24T05:03:13.001Z</time></trkpt><trkpt lat="-18.3811865372492" lon="122.15117130557503"><ele>44.0</ele><time>2026-04-24T05:03:14.001Z</time></trkpt><trkpt lat="-18.380958026547116" lon="122.15139187235978"><ele>45.0</ele><time>2026-04-24T05:03:15.001Z</time></trkpt><trkpt lat="-18.38071926274823" lon="122.15160140533328"><ele>46.0</ele><time>2026-04-24T05:03:16.001Z</time></trkpt><trkpt lat="-18.380503670524412" lon="122.15183265869572"><ele>46.0</ele><time>2026-04-24T05:03:17.001Z</time></trkpt><trkpt lat="-18.38027561065555" lon="122.15205109775407"><ele>46.0</ele><time>2026-04-24T05:03:18.001Z</time></trkpt><trkpt lat="-18.380049864773007" lon="122.15226874579145"><ele>46.0</ele><time>2026-04-24T05:03:19.001Z</time></trkpt><trkpt lat="-18.379824592532767" lon="122.15248652755244"><ele>46.0</ele><time>2026-04-24T05:03:20.001Z</time></trkpt><trkpt lat="-18.37960163197258" lon="122.15270319859265"><ele>44.5</ele><time>2026-04-24T05:03:21.001Z</time></trkpt><trkpt lat="-18.379378908888786" lon="122.1529226377739"><ele>43.0</ele><time>2026-04-24T05:03:22.001Z</time></trkpt><trkpt lat="-18.37914577792835" lon="122.15312493751274"><ele>43.5</ele><time>2026-04-24T05:03:23.001Z</time></trkpt><trkpt lat="-18.37893245898354" lon="122.1533517728479"><ele>44.0</ele><time>2026-04-24T05:03:24.001Z</time></trkpt><trkpt lat="-18.378707297052124" lon="122.15356806496733"><ele>44.5</ele><time>2026-04-24T05:03:25.001Z</time></trkpt><trkpt lat="-18.37848159297624" lon="122.15378693105549"><ele>45.0</ele><time>2026-04-24T05:03:26.001Z</time></trkpt><trkpt lat="-18.378255300003506" lon="122.15400920767296"><ele>44.5</ele><time>2026-04-24T05:03:27.001Z</time></trkpt><trkpt lat="-18.378025199904897" lon="122.15423316060865"><ele>44.0</ele><time>2026-04-24T05:03:28.001Z</time></trkpt><trkpt lat="-18.377796208300452" lon="122.15445536876435"><ele>44.0</ele><time>2026-04-24T05:03:29.001Z</time></trkpt><trkpt lat="-18.377567936032946" lon="122.15467529078994"><ele>44.0</ele><time>2026-04-24T05:03:30.001Z</time></trkpt><trkpt lat="-18.37733848190312" lon="122.1548955896063"><ele>45.0</ele><time>2026-04-24T05:03:31.001Z</time></trkpt><trkpt lat="-18.377107436641932" lon="122.1551168176747"><ele>46.0</ele><time>2026-04-24T05:03:32.001Z</time></trkpt><trkpt lat="-18.376875744391416" lon="122.15533969753783"><ele>46.0</ele><time>2026-04-24T05:03:33.001Z</time></trkpt><trkpt lat="-18.37664307889872" lon="122.15556446943368"><ele>46.0</ele><time>2026-04-24T05:03:34.001Z</time></trkpt><trkpt lat="-18.376410159660235" lon="122.1557907751309"><ele>46.5</ele><time>2026-04-24T05:03:35.001Z</time></trkpt><trkpt lat="-18.376179564970265" lon="122.15601516399495"><ele>47.0</ele><time>2026-04-24T05:03:36.001Z</time></trkpt><trkpt lat="-18.37594793097089" lon="122.1562403387076"><ele>47.0</ele><time>2026-04-24T05:03:37.001Z</time></trkpt><trkpt lat="-18.375718300911714" lon="122.15646285136293"><ele>47.0</ele><time>2026-04-24T05:03:38.001Z</time></trkpt><trkpt lat="-18.37548547276702" lon="122.15668953582355"><ele>46.0</ele><time>2026-04-24T05:03:39.001Z</time></trkpt><trkpt lat="-18.37524313939154" lon="122.15690179465912"><ele>45.0</ele><time>2026-04-24T05:03:40.001Z</time></trkpt><trkpt lat="-18.3750212349726" lon="122.15713971670229"><ele>45.0</ele><time>2026-04-24T05:03:41.001Z</time></trkpt><trkpt lat="-18.37478763893993" lon="122.15736680110817"><ele>45.0</ele><time>2026-04-24T05:03:42.001Z</time></trkpt><trkpt lat="-18.374556005052366" lon="122.15759374001043"><ele>47.0</ele><time>2026-04-24T05:03:43.001Z</time></trkpt><trkpt lat="-18.374321057927705" lon="122.15782143629978"><ele>49.0</ele><time>2026-04-24T05:03:44.001Z</time></trkpt><trkpt lat="-18.374087314023356" lon="122.15804617150847"><ele>48.5</ele><time>2026-04-24T05:03:45.001Z</time></trkpt><trkpt lat="-18.373853234093627" lon="122.15827014365159"><ele>48.0</ele><time>2026-04-24T05:03:46.001Z</time></trkpt><trkpt lat="-18.373620715839724" lon="122.15849204008258"><ele>48.0</ele><time>2026-04-24T05:03:47.001Z</time></trkpt><trkpt lat="-18.373386582719125" lon="122.15871643900161"><ele>48.0</ele><time>2026-04-24T05:03:48.001Z</time></trkpt><trkpt lat="-18.37315428129012" lon="122.15894414135295"><ele>49.5</ele><time>2026-04-24T05:03:49.001Z</time></trkpt><trkpt lat="-18.372923398339516" lon="122.15917245255163"><ele>51.0</ele><time>2026-04-24T05:03:50.001Z</time></trkpt><trkpt lat="-18.372691884317774" lon="122.15940252298178"><ele>51.0</ele><time>2026-04-24T05:03:51.001Z</time></trkpt><trkpt lat="-18.37246097293676" lon="122.15962767902614"><ele>51.0</ele><time>2026-04-24T05:03:52.001Z</time></trkpt><trkpt lat="-18.372232919393046" lon="122.15984812220263"><ele>51.0</ele><time>2026-04-24T05:03:53.001Z</time></trkpt><trkpt lat="-18.372007323007097" lon="122.16006733137186"><ele>51.0</ele><time>2026-04-24T05:03:54.001Z</time></trkpt><trkpt lat="-18.371781736284046" lon="122.16028464872328"><ele>51.0</ele><time>2026-04-24T05:03:55.001Z</time></trkpt><trkpt lat="-18.371553205706274" lon="122.16050048786076"><ele>51.0</ele><time>2026-04-24T05:03:56.001Z</time></trkpt><trkpt lat="-18.371324008633618" lon="122.16071740604971"><ele>50.5</ele><time>2026-04-24T05:03:57.001Z</time></trkpt><trkpt lat="-18.371097544028082" lon="122.16093466999162"><ele>50.0</ele><time>2026-04-24T05:03:58.001Z</time></trkpt><trkpt lat="-18.370870699573548" lon="122.16115647065517"><ele>50.0</ele><time>2026-04-24T05:03:59.001Z</time></trkpt><trkpt lat="-18.37064486859491" lon="122.16137747007798"><ele>50.0</ele><time>2026-04-24T05:04:00.001Z</time></trkpt><trkpt lat="-18.370416640153906" lon="122.1615988094944"><ele>51.5</ele><time>2026-04-24T05:04:01.001Z</time></trkpt><trkpt lat="-18.3701894809378" lon="122.16181939705635"><ele>53.0</ele><time>2026-04-24T05:04:02.001Z</time></trkpt><trkpt lat="-18.369960180542414" lon="122.16204204171245"><ele>53.0</ele><time>2026-04-24T05:04:03.001Z</time></trkpt><trkpt lat="-18.36972916590269" lon="122.1622659703028"><ele>53.0</ele><time>2026-04-24T05:04:04.001Z</time></trkpt><trkpt lat="-18.369496657238965" lon="122.16248576331486"><ele>53.0</ele><time>2026-04-24T05:04:05.001Z</time></trkpt><trkpt lat="-18.369266486297008" lon="122.16270626842551"><ele>53.0</ele><time>2026-04-24T05:04:06.001Z</time></trkpt><trkpt lat="-18.36903652890707" lon="122.16292945532375"><ele>53.0</ele><time>2026-04-24T05:04:07.001Z</time></trkpt><trkpt lat="-18.368809729252444" lon="122.16315085459753"><ele>53.0</ele><time>2026-04-24T05:04:08.001Z</time></trkpt><trkpt lat="-18.36857810080157" lon="122.16337531391974"><ele>53.0</ele><time>2026-04-24T05:04:09.001Z</time></trkpt><trkpt lat="-18.36834668000614" lon="122.16359945446762"><ele>53.0</ele><time>2026-04-24T05:04:10.001Z</time></trkpt><trkpt lat="-18.368113981930247" lon="122.16382559124987"><ele>53.5</ele><time>2026-04-24T05:04:11.001Z</time></trkpt><trkpt lat="-18.36787863722151" lon="122.16405263661939"><ele>54.0</ele><time>2026-04-24T05:04:12.001Z</time></trkpt><trkpt lat="-18.367646559961887" lon="122.16427742838634"><ele>54.0</ele><time>2026-04-24T05:04:13.001Z</time></trkpt><trkpt lat="-18.367413730401548" lon="122.16450000611002"><ele>54.0</ele><time>2026-04-24T05:04:14.001Z</time></trkpt><trkpt lat="-18.367179727788226" lon="122.16472332558176"><ele>54.5</ele><time>2026-04-24T05:04:15.001Z</time></trkpt><trkpt lat="-18.36694506579866" lon="122.16494832047216"><ele>55.0</ele><time>2026-04-24T05:04:16.001Z</time></trkpt><trkpt lat="-18.36671292896839" lon="122.16517480288825"><ele>55.0</ele><time>2026-04-24T05:04:17.001Z</time></trkpt><trkpt lat="-18.36648005323157" lon="122.16540361122594"><ele>55.0</ele><time>2026-04-24T05:04:18.001Z</time></trkpt><trkpt lat="-18.36624776569943" lon="122.16563356399985"><ele>55.0</ele><time>2026-04-24T05:04:19.001Z</time></trkpt><trkpt lat="-18.366014700418333" lon="122.1658574815892"><ele>55.0</ele><time>2026-04-24T05:04:20.001Z</time></trkpt><trkpt lat="-18.36579831162943" lon="122.16606405750312"><ele>55.0</ele><time>2026-04-24T05:04:21.001Z</time></trkpt><trkpt lat="-18.365581743998515" lon="122.16626883726174"><ele>55.0</ele><time>2026-04-24T05:04:22.001Z</time></trkpt><trkpt lat="-18.365358302006662" lon="122.16648269918929"><ele>55.5</ele><time>2026-04-24T05:04:23.001Z</time></trkpt><trkpt lat="-18.365129778759407" lon="122.16670587957057"><ele>56.0</ele><time>2026-04-24T05:04:24.001Z</time></trkpt><trkpt lat="-18.364899189317878" lon="122.16693066970663"><ele>56.5</ele><time>2026-04-24T05:04:25.001Z</time></trkpt><trkpt lat="-18.364666909679855" lon="122.16715774924639"><ele>57.0</ele><time>2026-04-24T05:04:26.001Z</time></trkpt><trkpt lat="-18.36443156579008" lon="122.16738604963658"><ele>57.0</ele><time>2026-04-24T05:04:27.001Z</time></trkpt><trkpt lat="-18.36419637948016" lon="122.16761471043054"><ele>57.0</ele><time>2026-04-24T05:04:28.001Z</time></trkpt><trkpt lat="-18.363960325306564" lon="122.16784152663917"><ele>57.0</ele><time>2026-04-24T05:04:29.001Z</time></trkpt><trkpt lat="-18.363725193492044" lon="122.16806593432835"><ele>57.0</ele><time>2026-04-24T05:04:30.001Z</time></trkpt><trkpt lat="-18.363489618379994" lon="122.16829281950442"><ele>57.0</ele><time>2026-04-24T05:04:31.001Z</time></trkpt><trkpt lat="-18.363257145981827" lon="122.16851667308514"><ele>57.0</ele><time>2026-04-24T05:04:32.001Z</time></trkpt><trkpt lat="-18.363024007615255" lon="122.168742816846"><ele>57.0</ele><time>2026-04-24T05:04:33.001Z</time></trkpt><trkpt lat="-18.362790902218396" lon="122.16896898009442"><ele>57.0</ele><time>2026-04-24T05:04:34.001Z</time></trkpt><trkpt lat="-18.362562843586552" lon="122.16919256046138"><ele>57.5</ele><time>2026-04-24T05:04:35.001Z</time></trkpt><trkpt lat="-18.362342256887022" lon="122.16942045451255"><ele>58.0</ele><time>2026-04-24T05:04:36.001Z</time></trkpt><trkpt lat="-18.362130002658603" lon="122.16965202109925"><ele>58.5</ele><time>2026-04-24T05:04:37.001Z</time></trkpt><trkpt lat="-18.36192576100537" lon="122.16988749231238"><ele>59.0</ele><time>2026-04-24T05:04:38.001Z</time></trkpt><trkpt lat="-18.361724908822687" lon="122.1701282777446"><ele>59.0</ele><time>2026-04-24T05:04:39.001Z</time></trkpt><trkpt lat="-18.361525471688598" lon="122.17037576584391"><ele>59.0</ele><time>2026-04-24T05:04:40.001Z</time></trkpt><trkpt lat="-18.3613292073888" lon="122.17063062554682"><ele>58.0</ele><time>2026-04-24T05:04:41.001Z</time></trkpt><trkpt lat="-18.3611325846487" lon="122.17089174643435"><ele>57.0</ele><time>2026-04-24T05:04:42.001Z</time></trkpt><trkpt lat="-18.360938789868822" lon="122.17115810613572"><ele>57.0</ele><time>2026-04-24T05:04:43.001Z</time></trkpt><trkpt lat="-18.360749450452374" lon="122.17142654516684"><ele>57.0</ele><time>2026-04-24T05:04:44.001Z</time></trkpt><trkpt lat="-18.36056673720553" lon="122.17169773790314"><ele>57.0</ele><time>2026-04-24T05:04:45.001Z</time></trkpt><trkpt lat="-18.360385804894293" lon="122.17197477473137"><ele>57.0</ele><time>2026-04-24T05:04:46.001Z</time></trkpt><trkpt lat="-18.360207745803855" lon="122.17225532433922"><ele>56.5</ele><time>2026-04-24T05:04:47.001Z</time></trkpt><trkpt lat="-18.360027868781284" lon="122.17253992111512"><ele>56.0</ele><time>2026-04-24T05:04:48.001Z</time></trkpt><trkpt lat="-18.3598545855021" lon="122.17282454379087"><ele>55.0</ele><time>2026-04-24T05:04:49.001Z</time></trkpt><trkpt lat="-18.3596813053532" lon="122.1731072807178"><ele>54.0</ele><time>2026-04-24T05:04:50.001Z</time></trkpt><trkpt lat="-18.35951244036002" lon="122.17338619007572"><ele>53.0</ele><time>2026-04-24T05:04:51.001Z</time></trkpt><trkpt lat="-18.359341817550508" lon="122.1736633309481"><ele>52.0</ele><time>2026-04-24T05:04:52.001Z</time></trkpt><trkpt lat="-18.35917279214508" lon="122.1739370027847"><ele>52.5</ele><time>2026-04-24T05:04:53.001Z</time></trkpt><trkpt lat="-18.35900300052916" lon="122.17421306907048"><ele>53.0</ele><time>2026-04-24T05:04:54.001Z</time></trkpt><trkpt lat="-18.35883443869507" lon="122.17448678034839"><ele>53.0</ele><time>2026-04-24T05:04:55.001Z</time></trkpt><trkpt lat="-18.35866565232242" lon="122.17476346078814"><ele>53.0</ele><time>2026-04-24T05:04:56.001Z</time></trkpt><trkpt lat="-18.358495989715944" lon="122.17504202254534"><ele>52.5</ele><time>2026-04-24T05:04:57.001Z</time></trkpt><trkpt lat="-18.358327791123173" lon="122.17532094954733"><ele>52.0</ele><time>2026-04-24T05:04:58.001Z</time></trkpt><trkpt lat="-18.35815971442406" lon="122.1756000338331"><ele>52.0</ele><time>2026-04-24T05:04:59.001Z</time></trkpt><trkpt lat="-18.35798937572176" lon="122.1758787438669"><ele>52.0</ele><time>2026-04-24T05:05:00.001Z</time></trkpt><trkpt lat="-18.357818139602394" lon="122.17615822169421"><ele>52.0</ele><time>2026-04-24T05:05:01.001Z</time></trkpt><trkpt lat="-18.357645007682255" lon="122.17644176273019"><ele>52.0</ele><time>2026-04-24T05:05:02.001Z</time></trkpt><trkpt lat="-18.357472242613227" lon="122.17672951211047"><ele>51.5</ele><time>2026-04-24T05:05:03.001Z</time></trkpt><trkpt lat="-18.357296186267014" lon="122.17701818399664"><ele>51.0</ele><time>2026-04-24T05:05:04.001Z</time></trkpt><trkpt lat="-18.357120015930526" lon="122.17730750375685"><ele>50.0</ele><time>2026-04-24T05:05:05.001Z</time></trkpt><trkpt lat="-18.35694293366392" lon="122.17759455964301"><ele>49.0</ele><time>2026-04-24T05:05:06.001Z</time></trkpt><trkpt lat="-18.356764901727914" lon="122.17787870764208"><ele>49.0</ele><time>2026-04-24T05:05:07.001Z</time></trkpt><trkpt lat="-18.356587760799883" lon="122.17816320594412"><ele>49.0</ele><time>2026-04-24T05:05:08.001Z</time></trkpt><trkpt lat="-18.35641250533897" lon="122.17844767990964"><ele>48.0</ele><time>2026-04-24T05:05:09.001Z</time></trkpt><trkpt lat="-18.35623975933595" lon="122.17873089306293"><ele>47.0</ele><time>2026-04-24T05:05:10.001Z</time></trkpt><trkpt lat="-18.356068356862796" lon="122.17901316098512"><ele>47.5</ele><time>2026-04-24T05:05:11.001Z</time></trkpt><trkpt lat="-18.35589753931727" lon="122.17929463318995"><ele>48.0</ele><time>2026-04-24T05:05:12.001Z</time></trkpt><trkpt lat="-18.355728318479642" lon="122.17957736913345"><ele>47.0</ele><time>2026-04-24T05:05:13.001Z</time></trkpt><trkpt lat="-18.355561668755854" lon="122.17985855914934"><ele>46.0</ele><time>2026-04-24T05:05:14.001Z</time></trkpt><trkpt lat="-18.355394412797942" lon="122.1801341232102"><ele>45.0</ele><time>2026-04-24T05:05:15.001Z</time></trkpt><trkpt lat="-18.355223858959352" lon="122.18040659566691"><ele>44.0</ele><time>2026-04-24T05:05:16.001Z</time></trkpt><trkpt lat="-18.355052345594785" lon="122.18068161717643"><ele>44.0</ele><time>2026-04-24T05:05:17.001Z</time></trkpt><trkpt lat="-18.354878247802827" lon="122.18096055744921"><ele>44.0</ele><time>2026-04-24T05:05:18.001Z</time></trkpt><trkpt lat="-18.354702122661717" lon="122.18124308316631"><ele>44.5</ele><time>2026-04-24T05:05:19.001Z</time></trkpt><trkpt lat="-18.35452781832854" lon="122.1815274883439"><ele>45.0</ele><time>2026-04-24T05:05:20.001Z</time></trkpt><trkpt lat="-18.354352399272194" lon="122.1818132832796"><ele>46.0</ele><time>2026-04-24T05:05:21.001Z</time></trkpt><trkpt lat="-18.35400189062264" lon="122.18237983123028"><ele>45.5</ele><time>2026-04-24T05:05:23.001Z</time></trkpt><trkpt lat="-18.353826431544974" lon="122.18266379136261"><ele>45.0</ele><time>2026-04-24T05:05:24.001Z</time></trkpt><trkpt lat="-18.353653239963187" lon="122.18294836264106"><ele>44.0</ele><time>2026-04-24T05:05:25.001Z</time></trkpt><trkpt lat="-18.353481916008466" lon="122.1832336223105"><ele>43.0</ele><time>2026-04-24T05:05:26.001Z</time></trkpt><trkpt lat="-18.353309323259715" lon="122.1835209830369"><ele>43.0</ele><time>2026-04-24T05:05:27.001Z</time></trkpt><trkpt lat="-18.353135115660624" lon="122.18380708706061"><ele>43.0</ele><time>2026-04-24T05:05:28.001Z</time></trkpt><trkpt lat="-18.352957606025004" lon="122.18409159731924"><ele>43.0</ele><time>2026-04-24T05:05:29.001Z</time></trkpt><trkpt lat="-18.352775998816817" lon="122.1843773059708"><ele>43.0</ele><time>2026-04-24T05:05:30.001Z</time></trkpt><trkpt lat="-18.352596047319857" lon="122.18466288284704"><ele>43.0</ele><time>2026-04-24T05:05:31.001Z</time></trkpt><trkpt lat="-18.352420383232793" lon="122.18495509048422"><ele>43.0</ele><time>2026-04-24T05:05:32.001Z</time></trkpt><trkpt lat="-18.35224812398893" lon="122.18524913351757"><ele>42.0</ele><time>2026-04-24T05:05:33.001Z</time></trkpt><trkpt lat="-18.35207722309051" lon="122.18554350271823"><ele>41.0</ele><time>2026-04-24T05:05:34.001Z</time></trkpt><trkpt lat="-18.351899817415294" lon="122.18583020371484"><ele>40.5</ele><time>2026-04-24T05:05:35.001Z</time></trkpt><trkpt lat="-18.35172088807861" lon="122.18611286822242"><ele>40.0</ele><time>2026-04-24T05:05:36.001Z</time></trkpt><trkpt lat="-18.351546502174813" lon="122.18639204523257"><ele>40.5</ele><time>2026-04-24T05:05:37.001Z</time></trkpt><trkpt lat="-18.35137422427126" lon="122.1866712466071"><ele>41.0</ele><time>2026-04-24T05:05:38.001Z</time></trkpt><trkpt lat="-18.351206381135317" lon="122.18694541603666"><ele>41.0</ele><time>2026-04-24T05:05:39.001Z</time></trkpt><trkpt lat="-18.35103834480437" lon="122.18721743432127"><ele>41.0</ele><time>2026-04-24T05:05:40.001Z</time></trkpt><trkpt lat="-18.350872088705593" lon="122.18749025177722"><ele>41.0</ele><time>2026-04-24T05:05:41.001Z</time></trkpt><trkpt lat="-18.35070465949775" lon="122.18776544255826"><ele>41.0</ele><time>2026-04-24T05:05:42.001Z</time></trkpt><trkpt lat="-18.35053625449508" lon="122.18804036382397"><ele>40.0</ele><time>2026-04-24T05:05:43.001Z</time></trkpt><trkpt lat="-18.3503651875496" lon="122.18832078389117"><ele>39.0</ele><time>2026-04-24T05:05:44.001Z</time></trkpt><trkpt lat="-18.35019523713147" lon="122.18860179526688"><ele>39.0</ele><time>2026-04-24T05:05:45.001Z</time></trkpt><trkpt lat="-18.35002380289558" lon="122.18888633143945"><ele>39.0</ele><time>2026-04-24T05:05:46.001Z</time></trkpt><trkpt lat="-18.349846780192987" lon="122.18917083078992"><ele>39.0</ele><time>2026-04-24T05:05:47.001Z</time></trkpt><trkpt lat="-18.34966783650982" lon="122.18945466979625"><ele>39.0</ele><time>2026-04-24T05:05:48.001Z</time></trkpt><trkpt lat="-18.34949457761982" lon="122.1897373834993"><ele>39.5</ele><time>2026-04-24T05:05:49.001Z</time></trkpt><trkpt lat="-18.34932341291544" lon="122.19002046295634"><ele>40.0</ele><time>2026-04-24T05:05:50.001Z</time></trkpt><trkpt lat="-18.349151822143575" lon="122.1903012455382"><ele>40.0</ele><time>2026-04-24T05:05:51.001Z</time></trkpt><trkpt lat="-18.34898080121684" lon="122.19058090018294"><ele>40.0</ele><time>2026-04-24T05:05:52.001Z</time></trkpt><trkpt lat="-18.34881257872528" lon="122.19085740320007"><ele>39.5</ele><time>2026-04-24T05:05:53.001Z</time></trkpt><trkpt lat="-18.348645267085875" lon="122.19112753287014"><ele>39.0</ele><time>2026-04-24T05:05:54.001Z</time></trkpt><trkpt lat="-18.348478553373777" lon="122.1913982604094"><ele>39.5</ele><time>2026-04-24T05:05:55.001Z</time></trkpt><trkpt lat="-18.34831187315743" lon="122.19166859235968"><ele>40.0</ele><time>2026-04-24T05:05:56.001Z</time></trkpt><trkpt lat="-18.348145419709773" lon="122.19194082322751"><ele>38.5</ele><time>2026-04-24T05:05:57.001Z</time></trkpt><trkpt lat="-18.347980014246247" lon="122.19221533847828"><ele>37.0</ele><time>2026-04-24T05:05:58.001Z</time></trkpt><trkpt lat="-18.34781229027174" lon="122.19249139833103"><ele>37.0</ele><time>2026-04-24T05:05:59.001Z</time></trkpt><trkpt lat="-18.347639401820178" lon="122.19276858434324"><ele>37.0</ele><time>2026-04-24T05:06:00.001Z</time></trkpt><trkpt lat="-18.34746615047476" lon="122.19304854103152"><ele>36.5</ele><time>2026-04-24T05:06:01.001Z</time></trkpt><trkpt lat="-18.347294743766522" lon="122.19333013875492"><ele>36.0</ele><time>2026-04-24T05:06:02.001Z</time></trkpt><trkpt lat="-18.347123263959716" lon="122.19361208852567"><ele>36.0</ele><time>2026-04-24T05:06:03.001Z</time></trkpt><trkpt lat="-18.34695018143521" lon="122.19389467482664"><ele>36.0</ele><time>2026-04-24T05:06:04.001Z</time></trkpt><trkpt lat="-18.346775557840274" lon="122.19417541712275"><ele>36.5</ele><time>2026-04-24T05:06:05.001Z</time></trkpt><trkpt lat="-18.34660273361924" lon="122.19445721927103"><ele>37.0</ele><time>2026-04-24T05:06:06.001Z</time></trkpt><trkpt lat="-18.346429131489426" lon="122.19473796542438"><ele>36.5</ele><time>2026-04-24T05:06:07.001Z</time></trkpt><trkpt lat="-18.346256403040705" lon="122.19501944328907"><ele>36.0</ele><time>2026-04-24T05:06:08.001Z</time></trkpt><trkpt lat="-18.346087722211198" lon="122.19530141639066"><ele>36.0</ele><time>2026-04-24T05:06:09.001Z</time></trkpt><trkpt lat="-18.345918348252763" lon="122.19558229636021"><ele>36.0</ele><time>2026-04-24T05:06:10.001Z</time></trkpt><trkpt lat="-18.345747460074122" lon="122.19585956143536"><ele>36.0</ele><time>2026-04-24T05:06:11.001Z</time></trkpt><trkpt lat="-18.345575928733922" lon="122.19613808144062"><ele>36.0</ele><time>2026-04-24T05:06:12.001Z</time></trkpt><trkpt lat="-18.34540731966341" lon="122.19641518321313"><ele>35.5</ele><time>2026-04-24T05:06:13.001Z</time></trkpt><trkpt lat="-18.34523849930234" lon="122.19669325007374"><ele>35.0</ele><time>2026-04-24T05:06:14.001Z</time></trkpt><trkpt lat="-18.345067937204128" lon="122.19697146566622"><ele>35.0</ele><time>2026-04-24T05:06:15.001Z</time></trkpt><trkpt lat="-18.34489637769038" lon="122.19725044666906"><ele>35.0</ele><time>2026-04-24T05:06:16.001Z</time></trkpt><trkpt lat="-18.344725388013234" lon="122.19753026127036"><ele>34.0</ele><time>2026-04-24T05:06:17.001Z</time></trkpt><trkpt lat="-18.34455398609105" lon="122.19780961663237"><ele>33.0</ele><time>2026-04-24T05:06:18.001Z</time></trkpt><trkpt lat="-18.344383261125483" lon="122.19808961765979"><ele>34.0</ele><time>2026-04-24T05:06:19.001Z</time></trkpt><trkpt lat="-18.34421252123522" lon="122.19837109259544"><ele>35.0</ele><time>2026-04-24T05:06:20.001Z</time></trkpt><trkpt lat="-18.344042234924125" lon="122.19864711077149"><ele>34.5</ele><time>2026-04-24T05:06:21.001Z</time></trkpt><trkpt lat="-18.343870716905275" lon="122.19892207642948"><ele>34.0</ele><time>2026-04-24T05:06:22.001Z</time></trkpt><trkpt lat="-18.343699365337528" lon="122.19919705542232"><ele>32.5</ele><time>2026-04-24T05:06:23.001Z</time></trkpt><trkpt lat="-18.343530124995354" lon="122.1994736806925"><ele>31.0</ele><time>2026-04-24T05:06:24.001Z</time></trkpt><trkpt lat="-18.343359934125857" lon="122.19975061183138"><ele>32.0</ele><time>2026-04-24T05:06:25.001Z</time></trkpt><trkpt lat="-18.34318826863495" lon="122.2000281369875"><ele>33.0</ele><time>2026-04-24T05:06:26.001Z</time></trkpt><trkpt lat="-18.34301669465774" lon="122.20030723052811"><ele>33.0</ele><time>2026-04-24T05:06:27.001Z</time></trkpt><trkpt lat="-18.342844726815585" lon="122.20058438403183"><ele>33.0</ele><time>2026-04-24T05:06:28.001Z</time></trkpt><trkpt lat="-18.342676530242095" lon="122.20086221437438"><ele>33.5</ele><time>2026-04-24T05:06:29.001Z</time></trkpt><trkpt lat="-18.342510225299566" lon="122.20113780621244"><ele>34.0</ele><time>2026-04-24T05:06:30.001Z</time></trkpt><trkpt lat="-18.3423446631854" lon="122.20140918067167"><ele>33.5</ele><time>2026-04-24T05:06:31.001Z</time></trkpt><trkpt lat="-18.342177526709797" lon="122.20167954753852"><ele>33.0</ele><time>2026-04-24T05:06:32.001Z</time></trkpt><trkpt lat="-18.342010155664045" lon="122.20195009854899"><ele>33.0</ele><time>2026-04-24T05:06:33.001Z</time></trkpt><trkpt lat="-18.341843161211706" lon="122.2022247749512"><ele>33.0</ele><time>2026-04-24T05:06:34.001Z</time></trkpt><trkpt lat="-18.341673137695263" lon="122.20250385250158"><ele>33.0</ele><time>2026-04-24T05:06:35.001Z</time></trkpt><trkpt lat="-18.341499696956262" lon="122.20278094688248"><ele>33.0</ele><time>2026-04-24T05:06:36.001Z</time></trkpt><trkpt lat="-18.341325112208548" lon="122.20305521452121"><ele>34.0</ele><time>2026-04-24T05:06:37.001Z</time></trkpt><trkpt lat="-18.341155219701776" lon="122.20332680150902"><ele>35.0</ele><time>2026-04-24T05:06:38.001Z</time></trkpt><trkpt lat="-18.340988517236163" lon="122.20359731858805"><ele>35.0</ele><time>2026-04-24T05:06:39.001Z</time></trkpt><trkpt lat="-18.340817856549744" lon="122.20386287053427"><ele>35.0</ele><time>2026-04-24T05:06:40.001Z</time></trkpt><trkpt lat="-18.340640768359307" lon="122.20412226378629"><ele>34.5</ele><time>2026-04-24T05:06:41.001Z</time></trkpt><trkpt lat="-18.340456251844866" lon="122.20437704110957"><ele>34.0</ele><time>2026-04-24T05:06:42.001Z</time></trkpt><trkpt lat="-18.340261456487795" lon="122.20462702883573"><ele>34.5</ele><time>2026-04-24T05:06:43.001Z</time></trkpt><trkpt lat="-18.340062156656657" lon="122.2048711037287"><ele>35.0</ele><time>2026-04-24T05:06:44.001Z</time></trkpt><trkpt lat="-18.33985764408764" lon="122.20510981039986"><ele>33.5</ele><time>2026-04-24T05:06:45.001Z</time></trkpt><trkpt lat="-18.339650062832913" lon="122.20535035927779"><ele>32.0</ele><time>2026-04-24T05:06:46.001Z</time></trkpt><trkpt lat="-18.339442561408195" lon="122.20558847925474"><ele>31.5</ele><time>2026-04-24T05:06:47.001Z</time></trkpt><trkpt lat="-18.339230191542043" lon="122.20582557186158"><ele>31.0</ele><time>2026-04-24T05:06:48.001Z</time></trkpt><trkpt lat="-18.339013775036218" lon="122.20606108138229"><ele>31.0</ele><time>2026-04-24T05:06:49.001Z</time></trkpt><trkpt lat="-18.338795096868495" lon="122.20629579400972"><ele>31.0</ele><time>2026-04-24T05:06:50.001Z</time></trkpt><trkpt lat="-18.338571244597798" lon="122.20653030087809"><ele>31.5</ele><time>2026-04-24T05:06:51.001Z</time></trkpt><trkpt lat="-18.338347926367554" lon="122.20676632743894"><ele>32.0</ele><time>2026-04-24T05:06:52.001Z</time></trkpt><trkpt lat="-18.338128613909266" lon="122.20700339900365"><ele>32.0</ele><time>2026-04-24T05:06:53Z</time></trkpt><trkpt lat="-18.337915919525095" lon="122.20724154183608"><ele>32.0</ele><time>2026-04-24T05:06:54.001Z</time></trkpt><trkpt lat="-18.337707275768793" lon="122.20747187145321"><ele>30.5</ele><time>2026-04-24T05:06:55Z</time></trkpt><trkpt lat="-18.33750916653082" lon="122.20768630732104"><ele>29.0</ele><time>2026-04-24T05:06:56Z</time></trkpt><trkpt lat="-18.337312564872352" lon="122.20789566620385"><ele>29.0</ele><time>2026-04-24T05:06:57Z</time></trkpt><trkpt lat="-18.337109435217215" lon="122.20811208466428"><ele>29.0</ele><time>2026-04-24T05:06:58Z</time></trkpt><trkpt lat="-18.336903396266464" lon="122.20833069326751"><ele>29.5</ele><time>2026-04-24T05:06:59Z</time></trkpt><trkpt lat="-18.3366990589102" lon="122.20854891237042"><ele>30.0</ele><time>2026-04-24T05:07:00Z</time></trkpt><trkpt lat="-18.33649252714143" lon="122.20876791665742"><ele>30.0</ele><time>2026-04-24T05:07:01Z</time></trkpt><trkpt lat="-18.336283082318833" lon="122.20898772008762"><ele>30.0</ele><time>2026-04-24T05:07:02Z</time></trkpt><trkpt lat="-18.33607105912412" lon="122.20921003559125"><ele>28.5</ele><time>2026-04-24T05:07:03Z</time></trkpt><trkpt lat="-18.335859743351737" lon="122.20943551658782"><ele>27.0</ele><time>2026-04-24T05:07:04.001Z</time></trkpt><trkpt lat="-18.335644512272072" lon="122.20966787240843"><ele>27.5</ele><time>2026-04-24T05:07:05.001Z</time></trkpt><trkpt lat="-18.33542770329935" lon="122.20990163529389"><ele>28.0</ele><time>2026-04-24T05:07:06.001Z</time></trkpt><trkpt lat="-18.33521026243163" lon="122.21013765785654"><ele>28.0</ele><time>2026-04-24T05:07:07.001Z</time></trkpt><trkpt lat="-18.33499380605266" lon="122.21037340478564"><ele>28.0</ele><time>2026-04-24T05:07:08.001Z</time></trkpt><trkpt lat="-18.3347761126187" lon="122.2106135205086"><ele>28.5</ele><time>2026-04-24T05:07:09.001Z</time></trkpt><trkpt lat="-18.334555010201" lon="122.21085383463011"><ele>29.0</ele><time>2026-04-24T05:07:10.001Z</time></trkpt><trkpt lat="-18.33432855936243" lon="122.21109727763236"><ele>29.0</ele><time>2026-04-24T05:07:11.001Z</time></trkpt><trkpt lat="-18.334104180285586" lon="122.21134228970277"><ele>29.0</ele><time>2026-04-24T05:07:12.001Z</time></trkpt><trkpt lat="-18.333876863642555" lon="122.21158628460243"><ele>29.0</ele><time>2026-04-24T05:07:13.001Z</time></trkpt><trkpt lat="-18.33365145526815" lon="122.21183230353822"><ele>29.0</ele><time>2026-04-24T05:07:14.001Z</time></trkpt><trkpt lat="-18.333428543848186" lon="122.21207366026321"><ele>29.0</ele><time>2026-04-24T05:07:15.001Z</time></trkpt><trkpt lat="-18.333206641502752" lon="122.21231455218334"><ele>29.0</ele><time>2026-04-24T05:07:16.001Z</time></trkpt><trkpt lat="-18.332988533853765" lon="122.21255342116999"><ele>30.5</ele><time>2026-04-24T05:07:17.001Z</time></trkpt><trkpt lat="-18.332770478164502" lon="122.21278671677301"><ele>32.0</ele><time>2026-04-24T05:07:18.001Z</time></trkpt><trkpt lat="-18.33255290706754" lon="122.2130182309611"><ele>32.0</ele><time>2026-04-24T05:07:19.001Z</time></trkpt><trkpt lat="-18.33233574666488" lon="122.21325170284764"><ele>32.0</ele><time>2026-04-24T05:07:20.001Z</time></trkpt><trkpt lat="-18.3321178255941" lon="122.21348634992366"><ele>30.0</ele><time>2026-04-24T05:07:21.001Z</time></trkpt><trkpt lat="-18.331901343375463" lon="122.21371802588455"><ele>28.0</ele><time>2026-04-24T05:07:22.001Z</time></trkpt><trkpt lat="-18.33168500700321" lon="122.21395041397587"><ele>27.5</ele><time>2026-04-24T05:07:23.001Z</time></trkpt><trkpt lat="-18.331469703602874" lon="122.21418144708711"><ele>27.0</ele><time>2026-04-24T05:07:24.001Z</time></trkpt><trkpt lat="-18.33125412107632" lon="122.21441204966617"><ele>27.0</ele><time>2026-04-24T05:07:25.001Z</time></trkpt><trkpt lat="-18.3310386648629" lon="122.21464533722417"><ele>27.0</ele><time>2026-04-24T05:07:26.001Z</time></trkpt><trkpt lat="-18.33082269916914" lon="122.21488099521363"><ele>26.0</ele><time>2026-04-24T05:07:27.001Z</time></trkpt><trkpt lat="-18.330604647698305" lon="122.21511974126017"><ele>25.0</ele><time>2026-04-24T05:07:28.001Z</time></trkpt><trkpt lat="-18.330386039492403" lon="122.21535536546394"><ele>25.0</ele><time>2026-04-24T05:07:29.001Z</time></trkpt><trkpt lat="-18.330167083470766" lon="122.21558872801491"><ele>25.0</ele><time>2026-04-24T05:07:30.001Z</time></trkpt><trkpt lat="-18.329950312907286" lon="122.21581934443691"><ele>24.5</ele><time>2026-04-24T05:07:31.001Z</time></trkpt><trkpt lat="-18.329736835937013" lon="122.21604645084159"><ele>24.0</ele><time>2026-04-24T05:07:32.001Z</time></trkpt><trkpt lat="-18.329520665103527" lon="122.21627241827095"><ele>24.5</ele><time>2026-04-24T05:07:33.001Z</time></trkpt><trkpt lat="-18.32930923053716" lon="122.21650008762111"><ele>25.0</ele><time>2026-04-24T05:07:34.001Z</time></trkpt><trkpt lat="-18.329101591750725" lon="122.21672864272819"><ele>25.0</ele><time>2026-04-24T05:07:35.001Z</time></trkpt><trkpt lat="-18.32889482742386" lon="122.21695475517772"><ele>25.0</ele><time>2026-04-24T05:07:36.001Z</time></trkpt><trkpt lat="-18.328686114394465" lon="122.21717534517362"><ele>24.0</ele><time>2026-04-24T05:07:37.001Z</time></trkpt><trkpt lat="-18.328476764062653" lon="122.21739913221406"><ele>23.0</ele><time>2026-04-24T05:07:38.001Z</time></trkpt><trkpt lat="-18.32826950324903" lon="122.21762293709006"><ele>23.0</ele><time>2026-04-24T05:07:39.001Z</time></trkpt><trkpt lat="-18.328060484064594" lon="122.21784768187435"><ele>23.0</ele><time>2026-04-24T05:07:40.001Z</time></trkpt><trkpt lat="-18.32785146338006" lon="122.21807522576947"><ele>22.0</ele><time>2026-04-24T05:07:41.001Z</time></trkpt><trkpt lat="-18.327638601910802" lon="122.21830248778224"><ele>21.0</ele><time>2026-04-24T05:07:42.001Z</time></trkpt><trkpt lat="-18.327426161152456" lon="122.21852700303415"><ele>21.0</ele><time>2026-04-24T05:07:43.001Z</time></trkpt><trkpt lat="-18.327215283110665" lon="122.21875577844139"><ele>21.0</ele><time>2026-04-24T05:07:44.001Z</time></trkpt><trkpt lat="-18.32700971020104" lon="122.21898481770876"><ele>21.0</ele><time>2026-04-24T05:07:45.001Z</time></trkpt><trkpt lat="-18.326795847864574" lon="122.21919769664743"><ele>21.0</ele><time>2026-04-24T05:07:46.001Z</time></trkpt><trkpt lat="-18.32659937865711" lon="122.21943352713491"><ele>20.0</ele><time>2026-04-24T05:07:47.001Z</time></trkpt><trkpt lat="-18.326391023823252" lon="122.21965406315843"><ele>19.0</ele><time>2026-04-24T05:07:48.001Z</time></trkpt><trkpt lat="-18.32618326922304" lon="122.21987469591946"><ele>19.0</ele><time>2026-04-24T05:07:49.001Z</time></trkpt><trkpt lat="-18.32597672211686" lon="122.22009512779907"><ele>19.0</ele><time>2026-04-24T05:07:50.001Z</time></trkpt><trkpt lat="-18.325774549217172" lon="122.220318626219"><ele>19.0</ele><time>2026-04-24T05:07:51.001Z</time></trkpt><trkpt lat="-18.325572092737023" lon="122.22054357897025"><ele>19.0</ele><time>2026-04-24T05:07:52.001Z</time></trkpt><trkpt lat="-18.325352581515375" lon="122.22075498360111"><ele>21.0</ele><time>2026-04-24T05:07:53.001Z</time></trkpt><trkpt lat="-18.325158377153972" lon="122.22098795828391"><ele>23.0</ele><time>2026-04-24T05:07:54.001Z</time></trkpt><trkpt lat="-18.324950260463485" lon="122.22120919428052"><ele>23.0</ele><time>2026-04-24T05:07:55.001Z</time></trkpt><trkpt lat="-18.324743531512343" lon="122.22142559630848"><ele>23.0</ele><time>2026-04-24T05:07:56.001Z</time></trkpt><trkpt lat="-18.32453535699894" lon="122.22164284465244"><ele>22.0</ele><time>2026-04-24T05:07:57.001Z</time></trkpt><trkpt lat="-18.324331509141803" lon="122.22186067758561"><ele>21.0</ele><time>2026-04-24T05:07:58.001Z</time></trkpt><trkpt lat="-18.3241296429577" lon="122.22208177315744"><ele>21.0</ele><time>2026-04-24T05:07:59.001Z</time></trkpt><trkpt lat="-18.323927936450183" lon="122.22230399573687"><ele>21.0</ele><time>2026-04-24T05:08:00.001Z</time></trkpt><trkpt lat="-18.323721286040673" lon="122.22252769078617"><ele>20.5</ele><time>2026-04-24T05:08:01.001Z</time></trkpt><trkpt lat="-18.323512436146736" lon="122.222750817785"><ele>20.0</ele><time>2026-04-24T05:08:02.001Z</time></trkpt><trkpt lat="-18.323300168353907" lon="122.22297382654966"><ele>19.5</ele><time>2026-04-24T05:08:03.001Z</time></trkpt><trkpt lat="-18.323086720298573" lon="122.22320017122111"><ele>19.0</ele><time>2026-04-24T05:08:04.001Z</time></trkpt><trkpt lat="-18.32287406205782" lon="122.22342843481304"><ele>19.0</ele><time>2026-04-24T05:08:05.001Z</time></trkpt><trkpt lat="-18.322663146161194" lon="122.22366043578728"><ele>19.0</ele><time>2026-04-24T05:08:06.001Z</time></trkpt><trkpt lat="-18.322454436344476" lon="122.22389241105013"><ele>20.0</ele><time>2026-04-24T05:08:07.001Z</time></trkpt><trkpt lat="-18.322247766435286" lon="122.22412453948662"><ele>21.0</ele><time>2026-04-24T05:08:08.001Z</time></trkpt><trkpt lat="-18.322038703119393" lon="122.2243520504768"><ele>21.0</ele><time>2026-04-24T05:08:09.001Z</time></trkpt><trkpt lat="-18.321829253602253" lon="122.2245763913554"><ele>21.0</ele><time>2026-04-24T05:08:10.001Z</time></trkpt><trkpt lat="-18.321618659744765" lon="122.22480161771395"><ele>19.5</ele><time>2026-04-24T05:08:11.001Z</time></trkpt><trkpt lat="-18.321404164906475" lon="122.22502665538028"><ele>18.0</ele><time>2026-04-24T05:08:12.001Z</time></trkpt><trkpt lat="-18.32118678130463" lon="122.2252555105325"><ele>18.0</ele><time>2026-04-24T05:08:13.001Z</time></trkpt><trkpt lat="-18.320967143762303" lon="122.22548645448843"><ele>18.0</ele><time>2026-04-24T05:08:14.001Z</time></trkpt><trkpt lat="-18.3207471498059" lon="122.22572209792993"><ele>18.0</ele><time>2026-04-24T05:08:15.001Z</time></trkpt><trkpt lat="-18.32052927938489" lon="122.22596003257645"><ele>18.0</ele><time>2026-04-24T05:08:16.001Z</time></trkpt><trkpt lat="-18.32031267134475" lon="122.22620022637744"><ele>18.0</ele><time>2026-04-24T05:08:17.001Z</time></trkpt><trkpt lat="-18.320093696116594" lon="122.22643700439531"><ele>18.0</ele><time>2026-04-24T05:08:18.001Z</time></trkpt><trkpt lat="-18.319868755188235" lon="122.22667390638802"><ele>19.5</ele><time>2026-04-24T05:08:19.001Z</time></trkpt><trkpt lat="-18.319647450651004" lon="122.2269063786067"><ele>21.0</ele><time>2026-04-24T05:08:20.001Z</time></trkpt><trkpt lat="-18.319431691919885" lon="122.22713766023013"><ele>20.0</ele><time>2026-04-24T05:08:21.001Z</time></trkpt><trkpt lat="-18.31921785054451" lon="122.22736626320659"><ele>19.0</ele><time>2026-04-24T05:08:22.001Z</time></trkpt><trkpt lat="-18.319003620474835" lon="122.22759759753338"><ele>19.0</ele><time>2026-04-24T05:08:23.001Z</time></trkpt><trkpt lat="-18.31879123141064" lon="122.22782894294204"><ele>19.0</ele><time>2026-04-24T05:08:24.001Z</time></trkpt><trkpt lat="-18.318575404849206" lon="122.22806068851894"><ele>19.0</ele><time>2026-04-24T05:08:25.001Z</time></trkpt><trkpt lat="-18.31836254478517" lon="122.22829051135598"><ele>19.0</ele><time>2026-04-24T05:08:26.001Z</time></trkpt><trkpt lat="-18.318147019175473" lon="122.2285239405819"><ele>19.0</ele><time>2026-04-24T05:08:27.001Z</time></trkpt><trkpt lat="-18.317930141809924" lon="122.2287597479339"><ele>19.0</ele><time>2026-04-24T05:08:28.001Z</time></trkpt><trkpt lat="-18.317714689212497" lon="122.22899547788745"><ele>19.0</ele><time>2026-04-24T05:08:29.001Z</time></trkpt><trkpt lat="-18.317496037361586" lon="122.22922862852295"><ele>19.0</ele><time>2026-04-24T05:08:30.001Z</time></trkpt><trkpt lat="-18.317278531193832" lon="122.22945760718511"><ele>18.5</ele><time>2026-04-24T05:08:31.001Z</time></trkpt><trkpt lat="-18.31706294797898" lon="122.22968693934162"><ele>18.0</ele><time>2026-04-24T05:08:32.001Z</time></trkpt><trkpt lat="-18.316848569830753" lon="122.22991901008459"><ele>18.0</ele><time>2026-04-24T05:08:33.001Z</time></trkpt><trkpt lat="-18.316640864085805" lon="122.23014362272099"><ele>18.0</ele><time>2026-04-24T05:08:34.001Z</time></trkpt><trkpt lat="-18.316446102803518" lon="122.23035587778051"><ele>18.5</ele><time>2026-04-24T05:08:35.001Z</time></trkpt><trkpt lat="-18.316249380427397" lon="122.23057143679084"><ele>19.0</ele><time>2026-04-24T05:08:36.001Z</time></trkpt><trkpt lat="-18.316043517654293" lon="122.23079156515519"><ele>19.0</ele><time>2026-04-24T05:08:37.001Z</time></trkpt><trkpt lat="-18.315826550032433" lon="122.23101913888316"><ele>19.0</ele><time>2026-04-24T05:08:38.001Z</time></trkpt><trkpt lat="-18.31560753557334" lon="122.23125177930662"><ele>19.0</ele><time>2026-04-24T05:08:39.001Z</time></trkpt><trkpt lat="-18.315388418196484" lon="122.23148916970298"><ele>19.0</ele><time>2026-04-24T05:08:40.001Z</time></trkpt><trkpt lat="-18.315173822972323" lon="122.23172818678422"><ele>19.0</ele><time>2026-04-24T05:08:41.001Z</time></trkpt><trkpt lat="-18.31496007591434" lon="122.23196746771718"><ele>19.0</ele><time>2026-04-24T05:08:42.001Z</time></trkpt><trkpt lat="-18.314744223232132" lon="122.23220533729861"><ele>19.0</ele><time>2026-04-24T05:08:43.001Z</time></trkpt><trkpt lat="-18.31452767570983" lon="122.23244404645587"><ele>19.0</ele><time>2026-04-24T05:08:44.001Z</time></trkpt><trkpt lat="-18.314312004657033" lon="122.23268738637171"><ele>19.0</ele><time>2026-04-24T05:08:45.001Z</time></trkpt><trkpt lat="-18.314104348673386" lon="122.23293535401187"><ele>19.0</ele><time>2026-04-24T05:08:46.001Z</time></trkpt><trkpt lat="-18.313901029107477" lon="122.23318710405769"><ele>18.0</ele><time>2026-04-24T05:08:47.001Z</time></trkpt><trkpt lat="-18.31369791865301" lon="122.23344134701836"><ele>17.0</ele><time>2026-04-24T05:08:48.001Z</time></trkpt><trkpt lat="-18.313497000250177" lon="122.23369743449692"><ele>17.0</ele><time>2026-04-24T05:08:49Z</time></trkpt><trkpt lat="-18.31329604448239" lon="122.23395792652039"><ele>17.0</ele><time>2026-04-24T05:08:50Z</time></trkpt><trkpt lat="-18.313100895619204" lon="122.23421754611728"><ele>16.5</ele><time>2026-04-24T05:08:51Z</time></trkpt><trkpt lat="-18.31290820032254" lon="122.2344761131513"><ele>16.0</ele><time>2026-04-24T05:08:52Z</time></trkpt><trkpt lat="-18.31271666063054" lon="122.23473583544948"><ele>17.0</ele><time>2026-04-24T05:08:53Z</time></trkpt><trkpt lat="-18.312523114692393" lon="122.23499534622273"><ele>18.0</ele><time>2026-04-24T05:08:54Z</time></trkpt><trkpt lat="-18.31232959039304" lon="122.23525572752384"><ele>17.5</ele><time>2026-04-24T05:08:55Z</time></trkpt><trkpt lat="-18.312135709913452" lon="122.23551633144218"><ele>17.0</ele><time>2026-04-24T05:08:56Z</time></trkpt><trkpt lat="-18.311943829396103" lon="122.2357743416169"><ele>18.0</ele><time>2026-04-24T05:08:57Z</time></trkpt><trkpt lat="-18.3117507712603" lon="122.23603304084322"><ele>19.0</ele><time>2026-04-24T05:08:58Z</time></trkpt><trkpt lat="-18.31155671589976" lon="122.23629393375768"><ele>18.0</ele><time>2026-04-24T05:08:59Z</time></trkpt><trkpt lat="-18.311365065424233" lon="122.23655408083243"><ele>17.0</ele><time>2026-04-24T05:09:00Z</time></trkpt><trkpt lat="-18.311173914034264" lon="122.2368172648577"><ele>17.0</ele><time>2026-04-24T05:09:01Z</time></trkpt><trkpt lat="-18.310985136967904" lon="122.2370784668003"><ele>17.0</ele><time>2026-04-24T05:09:02Z</time></trkpt><trkpt lat="-18.310798404589068" lon="122.23733865206239"><ele>17.0</ele><time>2026-04-24T05:09:03Z</time></trkpt><trkpt lat="-18.310611678068064" lon="122.23759702258776"><ele>17.0</ele><time>2026-04-24T05:09:04Z</time></trkpt><trkpt lat="-18.310420387746422" lon="122.237855403937"><ele>17.0</ele><time>2026-04-24T05:09:05Z</time></trkpt><trkpt lat="-18.310228182384446" lon="122.2381130482609"><ele>17.0</ele><time>2026-04-24T05:09:06Z</time></trkpt><trkpt lat="-18.310036376117445" lon="122.23837054350649"><ele>17.0</ele><time>2026-04-24T05:09:07Z</time></trkpt><trkpt lat="-18.309845108353688" lon="122.2386265140466"><ele>17.0</ele><time>2026-04-24T05:09:08Z</time></trkpt><trkpt lat="-18.309656281431163" lon="122.23888251280158"><ele>17.0</ele><time>2026-04-24T05:09:09Z</time></trkpt><trkpt lat="-18.309467758929426" lon="122.23913810191284"><ele>17.0</ele><time>2026-04-24T05:09:10Z</time></trkpt><trkpt lat="-18.30927897501084" lon="122.23939500221708"><ele>17.0</ele><time>2026-04-24T05:09:11Z</time></trkpt><trkpt lat="-18.309090673419462" lon="122.23965328440875"><ele>17.0</ele><time>2026-04-24T05:09:12Z</time></trkpt><trkpt lat="-18.3089021320393" lon="122.23991177809977"><ele>17.5</ele><time>2026-04-24T05:09:13Z</time></trkpt><trkpt lat="-18.30871359025949" lon="122.24016865781645"><ele>18.0</ele><time>2026-04-24T05:09:14Z</time></trkpt><trkpt lat="-18.308522970923573" lon="122.24042363683684"><ele>19.0</ele><time>2026-04-24T05:09:15Z</time></trkpt><trkpt lat="-18.30833422538959" lon="122.24067977986503"><ele>20.0</ele><time>2026-04-24T05:09:16Z</time></trkpt><trkpt lat="-18.308147320702606" lon="122.24093795422172"><ele>20.0</ele><time>2026-04-24T05:09:17Z</time></trkpt><trkpt lat="-18.30795686916269" lon="122.24119660028074"><ele>20.0</ele><time>2026-04-24T05:09:18Z</time></trkpt><trkpt lat="-18.307766278993498" lon="122.24145667612159"><ele>20.0</ele><time>2026-04-24T05:09:19Z</time></trkpt><trkpt lat="-18.307575069434733" lon="122.24171874970531"><ele>20.0</ele><time>2026-04-24T05:09:20Z</time></trkpt><trkpt lat="-18.307385605224727" lon="122.24198294076302"><ele>20.5</ele><time>2026-04-24T05:09:21Z</time></trkpt><trkpt lat="-18.307193496433857" lon="122.24224815024168"><ele>21.0</ele><time>2026-04-24T05:09:22Z</time></trkpt><trkpt lat="-18.307001336940093" lon="122.24251221507714"><ele>21.5</ele><time>2026-04-24T05:09:23Z</time></trkpt><trkpt lat="-18.306808527694056" lon="122.24277368802016"><ele>22.0</ele><time>2026-04-24T05:09:24Z</time></trkpt><trkpt lat="-18.306612787645584" lon="122.24303429874445"><ele>21.5</ele><time>2026-04-24T05:09:25Z</time></trkpt><trkpt lat="-18.306418994685895" lon="122.24329567963447"><ele>21.0</ele><time>2026-04-24T05:09:26Z</time></trkpt><trkpt lat="-18.306224943292015" lon="122.24355662294082"><ele>21.0</ele><time>2026-04-24T05:09:27Z</time></trkpt><trkpt lat="-18.306030069562436" lon="122.24381771154324"><ele>21.0</ele><time>2026-04-24T05:09:28Z</time></trkpt><trkpt lat="-18.305838424647327" lon="122.24407657209252"><ele>20.0</ele><time>2026-04-24T05:09:29Z</time></trkpt><trkpt lat="-18.305646347147924" lon="122.24433627942715"><ele>19.0</ele><time>2026-04-24T05:09:30Z</time></trkpt><trkpt lat="-18.3054530934888" lon="122.24459675199685"><ele>18.5</ele><time>2026-04-24T05:09:31Z</time></trkpt><trkpt lat="-18.305259930154996" lon="122.24485671715874"><ele>18.0</ele><time>2026-04-24T05:09:32Z</time></trkpt><trkpt lat="-18.305067807780002" lon="122.24511865736288"><ele>18.0</ele><time>2026-04-24T05:09:33Z</time></trkpt><trkpt lat="-18.304871806584856" lon="122.24538423244702"><ele>18.0</ele><time>2026-04-24T05:09:34Z</time></trkpt><trkpt lat="-18.304676524186398" lon="122.24565078579032"><ele>18.0</ele><time>2026-04-24T05:09:35Z</time></trkpt><trkpt lat="-18.30448137094579" lon="122.24591714316131"><ele>18.0</ele><time>2026-04-24T05:09:36Z</time></trkpt><trkpt lat="-18.304285887295155" lon="122.24618452075538"><ele>18.0</ele><time>2026-04-24T05:09:37Z</time></trkpt><trkpt lat="-18.304096371281652" lon="122.24644748266739"><ele>18.0</ele><time>2026-04-24T05:09:38Z</time></trkpt><trkpt lat="-18.303903937413125" lon="122.24670852146546"><ele>18.0</ele><time>2026-04-24T05:09:39Z</time></trkpt><trkpt lat="-18.3037112234935" lon="122.2469711562404"><ele>18.0</ele><time>2026-04-24T05:09:40Z</time></trkpt><trkpt lat="-18.303519896715144" lon="122.24723379622228"><ele>18.0</ele><time>2026-04-24T05:09:41Z</time></trkpt><trkpt lat="-18.303327849305735" lon="122.24749436317288"><ele>18.0</ele><time>2026-04-24T05:09:42Z</time></trkpt><trkpt lat="-18.303140955496044" lon="122.2477468769962"><ele>18.0</ele><time>2026-04-24T05:09:43Z</time></trkpt><trkpt lat="-18.30295716916243" lon="122.2479931365187"><ele>18.0</ele><time>2026-04-24T05:09:44Z</time></trkpt><trkpt lat="-18.3027773177237" lon="122.24823491883751"><ele>18.0</ele><time>2026-04-24T05:09:45Z</time></trkpt><trkpt lat="-18.302597642290497" lon="122.2484794101084"><ele>18.0</ele><time>2026-04-24T05:09:46Z</time></trkpt><trkpt lat="-18.30241740685553" lon="122.2487257950001"><ele>19.0</ele><time>2026-04-24T05:09:47Z</time></trkpt><trkpt lat="-18.30223594905341" lon="122.24897497663598"><ele>20.0</ele><time>2026-04-24T05:09:48Z</time></trkpt><trkpt lat="-18.302052147839127" lon="122.24922526062097"><ele>20.0</ele><time>2026-04-24T05:09:49Z</time></trkpt><trkpt lat="-18.301864555475948" lon="122.24948202956706"><ele>20.0</ele><time>2026-04-24T05:09:50Z</time></trkpt><trkpt lat="-18.301678335180025" lon="122.24973749850882"><ele>20.5</ele><time>2026-04-24T05:09:51Z</time></trkpt><trkpt lat="-18.30149066800699" lon="122.24999285514245"><ele>21.0</ele><time>2026-04-24T05:09:52Z</time></trkpt><trkpt lat="-18.301301441472894" lon="122.25024870123138"><ele>21.5</ele><time>2026-04-24T05:09:53Z</time></trkpt><trkpt lat="-18.30110954331019" lon="122.25050493796516"><ele>22.0</ele><time>2026-04-24T05:09:54Z</time></trkpt><trkpt lat="-18.300918858474702" lon="122.25076057455276"><ele>21.0</ele><time>2026-04-24T05:09:55Z</time></trkpt><trkpt lat="-18.300727951466175" lon="122.25101733592754"><ele>20.0</ele><time>2026-04-24T05:09:56Z</time></trkpt><trkpt lat="-18.300535025994158" lon="122.25127378644204"><ele>20.5</ele><time>2026-04-24T05:09:57Z</time></trkpt><trkpt lat="-18.30034261879527" lon="122.25153263437512"><ele>21.0</ele><time>2026-04-24T05:09:58Z</time></trkpt><trkpt lat="-18.30014935811065" lon="122.25179547966395"><ele>21.0</ele><time>2026-04-24T05:09:59Z</time></trkpt><trkpt lat="-18.2999576302106" lon="122.25205743056725"><ele>21.0</ele><time>2026-04-24T05:10:00Z</time></trkpt><trkpt lat="-18.299766530477438" lon="122.25232199978133"><ele>19.5</ele><time>2026-04-24T05:10:01Z</time></trkpt><trkpt lat="-18.29957388494207" lon="122.25258791370021"><ele>18.0</ele><time>2026-04-24T05:10:02Z</time></trkpt><trkpt lat="-18.299381850798863" lon="122.25285301080893"><ele>18.0</ele><time>2026-04-24T05:10:03Z</time></trkpt><trkpt lat="-18.299187654130527" lon="122.25311865096994"><ele>18.0</ele><time>2026-04-24T05:10:04Z</time></trkpt><trkpt lat="-18.298993873910504" lon="122.2533855249778"><ele>18.0</ele><time>2026-04-24T05:10:05Z</time></trkpt><trkpt lat="-18.29880086151696" lon="122.25365068348144"><ele>18.0</ele><time>2026-04-24T05:10:06Z</time></trkpt><trkpt lat="-18.2986046200322" lon="122.25391432516221"><ele>17.5</ele><time>2026-04-24T05:10:07Z</time></trkpt><trkpt lat="-18.298406415489097" lon="122.25417536299713"><ele>17.0</ele><time>2026-04-24T05:10:08Z</time></trkpt><trkpt lat="-18.298207038553254" lon="122.25443958616495"><ele>17.5</ele><time>2026-04-24T05:10:09Z</time></trkpt><trkpt lat="-18.298009109629568" lon="122.25470664131217"><ele>18.0</ele><time>2026-04-24T05:10:10Z</time></trkpt><trkpt lat="-18.297808784255153" lon="122.25497665013582"><ele>18.0</ele><time>2026-04-24T05:10:11Z</time></trkpt><trkpt lat="-18.297610545505623" lon="122.25524340721168"><ele>18.0</ele><time>2026-04-24T05:10:12Z</time></trkpt><trkpt lat="-18.29741099630377" lon="122.25551168328951"><ele>17.5</ele><time>2026-04-24T05:10:13Z</time></trkpt><trkpt lat="-18.297212022134378" lon="122.25577816609622"><ele>17.0</ele><time>2026-04-24T05:10:14Z</time></trkpt><trkpt lat="-18.297012684269557" lon="122.256047058515"><ele>17.0</ele><time>2026-04-24T05:10:15Z</time></trkpt><trkpt lat="-18.296818110141142" lon="122.25631175811955"><ele>17.0</ele><time>2026-04-24T05:10:16Z</time></trkpt><trkpt lat="-18.296630730018755" lon="122.25657545385083"><ele>17.5</ele><time>2026-04-24T05:10:17Z</time></trkpt><trkpt lat="-18.296448491962476" lon="122.2568383707117"><ele>18.0</ele><time>2026-04-24T05:10:18Z</time></trkpt><trkpt lat="-18.296268848807618" lon="122.25709944940063"><ele>18.5</ele><time>2026-04-24T05:10:19Z</time></trkpt><trkpt lat="-18.296087798444177" lon="122.25735510534881"><ele>19.0</ele><time>2026-04-24T05:10:20Z</time></trkpt><trkpt lat="-18.295902758218816" lon="122.25760523681028"><ele>19.0</ele><time>2026-04-24T05:10:21Z</time></trkpt><trkpt lat="-18.295716469090795" lon="122.25784547532322"><ele>19.0</ele><time>2026-04-24T05:10:22Z</time></trkpt><trkpt lat="-18.295538131288815" lon="122.25807670203346"><ele>18.5</ele><time>2026-04-24T05:10:23Z</time></trkpt><trkpt lat="-18.295373364029096" lon="122.25829303858424"><ele>18.0</ele><time>2026-04-24T05:10:24Z</time></trkpt><trkpt lat="-18.295219769609492" lon="122.25849463257602"><ele>18.0</ele><time>2026-04-24T05:10:25Z</time></trkpt><trkpt lat="-18.295075816448467" lon="122.25868672489732"><ele>18.0</ele><time>2026-04-24T05:10:26Z</time></trkpt><trkpt lat="-18.29494051278069" lon="122.25887376969843"><ele>18.333333333333332</ele><time>2026-04-24T05:10:27Z</time></trkpt><trkpt lat="-18.29481419251036" lon="122.25905080982417"><ele>18.666666666666664</ele><time>2026-04-24T05:10:28Z</time></trkpt><trkpt lat="-18.294693051771343" lon="122.25921852238886"><ele>19.0</ele><time>2026-04-24T05:10:29Z</time></trkpt><trkpt lat="-18.294576806325605" lon="122.25937361291086"><ele>19.333333333333332</ele><time>2026-04-24T05:10:30Z</time></trkpt><trkpt lat="-18.294462055129245" lon="122.25952240459112"><ele>19.666666666666668</ele><time>2026-04-24T05:10:31Z</time></trkpt><trkpt lat="-18.294355981935315" lon="122.25966398036613"><ele>20.0</ele><time>2026-04-24T05:10:32Z</time></trkpt><trkpt lat="-18.294257748502925" lon="122.25980324034522"><ele>20.0</ele><time>2026-04-24T05:10:33Z</time></trkpt><trkpt lat="-18.294161855197583" lon="122.25994164554461"><ele>20.0</ele><time>2026-04-24T05:10:34Z</time></trkpt><trkpt lat="-18.2940596522909" lon="122.26008466392221"><ele>20.0</ele><time>2026-04-24T05:10:35Z</time></trkpt><trkpt lat="-18.293952955755163" lon="122.26022853349878"><ele>20.0</ele><time>2026-04-24T05:10:36Z</time></trkpt><trkpt lat="-18.293841450244017" lon="122.26037731638885"><ele>20.0</ele><time>2026-04-24T05:10:37Z</time></trkpt><trkpt lat="-18.293730482302365" lon="122.26052491812409"><ele>20.0</ele><time>2026-04-24T05:10:38Z</time></trkpt><trkpt lat="-18.293618674931448" lon="122.2606853633406"><ele>20.0</ele><time>2026-04-24T05:10:39Z</time></trkpt><trkpt lat="-18.293505398201102" lon="122.26085769819366"><ele>20.0</ele><time>2026-04-24T05:10:40Z</time></trkpt><trkpt lat="-18.293388052495292" lon="122.26104196875006"><ele>20.0</ele><time>2026-04-24T05:10:41Z</time></trkpt><trkpt lat="-18.29327593702066" lon="122.26121777957164"><ele>20.0</ele><time>2026-04-24T05:10:42Z</time></trkpt><trkpt lat="-18.293160035575198" lon="122.26139745552872"><ele>20.0</ele><time>2026-04-24T05:10:43Z</time></trkpt><trkpt lat="-18.29304128676026" lon="122.26158933289027"><ele>20.0</ele><time>2026-04-24T05:10:44Z</time></trkpt><trkpt lat="-18.292922869890248" lon="122.26178989775686"><ele>19.0</ele><time>2026-04-24T05:10:45Z</time></trkpt><trkpt lat="-18.292802465484495" lon="122.26199793632024"><ele>18.0</ele><time>2026-04-24T05:10:46Z</time></trkpt><trkpt lat="-18.292681631971107" lon="122.26221973341273"><ele>19.0</ele><time>2026-04-24T05:10:47Z</time></trkpt><trkpt lat="-18.292556294176617" lon="122.26245749018607"><ele>20.0</ele><time>2026-04-24T05:10:48Z</time></trkpt><trkpt lat="-18.292432329350067" lon="122.26270184410488"><ele>20.0</ele><time>2026-04-24T05:10:49Z</time></trkpt><trkpt lat="-18.29231833738602" lon="122.26293438748202"><ele>20.0</ele><time>2026-04-24T05:10:50Z</time></trkpt><trkpt lat="-18.292206627423678" lon="122.26316481494958"><ele>21.0</ele><time>2026-04-24T05:10:51Z</time></trkpt><trkpt lat="-18.29209884933378" lon="122.2634001224151"><ele>22.0</ele><time>2026-04-24T05:10:52Z</time></trkpt><trkpt lat="-18.291994358201265" lon="122.2636508134404"><ele>22.0</ele><time>2026-04-24T05:10:53Z</time></trkpt><trkpt lat="-18.291892885877036" lon="122.2639187355335"><ele>22.0</ele><time>2026-04-24T05:10:54Z</time></trkpt><trkpt lat="-18.291793254554364" lon="122.26419577925188"><ele>21.0</ele><time>2026-04-24T05:10:55Z</time></trkpt><trkpt lat="-18.291690727287392" lon="122.26447320849414"><ele>20.0</ele><time>2026-04-24T05:10:56Z</time></trkpt><trkpt lat="-18.291584769200206" lon="122.2647515400526"><ele>20.0</ele><time>2026-04-24T05:10:57Z</time></trkpt><trkpt lat="-18.291475157600914" lon="122.26502872896373"><ele>20.0</ele><time>2026-04-24T05:10:58Z</time></trkpt><trkpt lat="-18.291363529310736" lon="122.26530709527941"><ele>20.5</ele><time>2026-04-24T05:10:59Z</time></trkpt><trkpt lat="-18.291254319255472" lon="122.26558287620813"><ele>21.0</ele><time>2026-04-24T05:11:00Z</time></trkpt><trkpt lat="-18.29114801104295" lon="122.26586162063359"><ele>22.0</ele><time>2026-04-24T05:11:01Z</time></trkpt><trkpt lat="-18.291041468674287" lon="122.26614710119908"><ele>23.0</ele><time>2026-04-24T05:11:02Z</time></trkpt><trkpt lat="-18.290936463979232" lon="122.26643083883606"><ele>23.0</ele><time>2026-04-24T05:11:03Z</time></trkpt><trkpt lat="-18.29083519540524" lon="122.2667150824879"><ele>23.0</ele><time>2026-04-24T05:11:04Z</time></trkpt><trkpt lat="-18.290733773918696" lon="122.26700243074225"><ele>23.0</ele><time>2026-04-24T05:11:05Z</time></trkpt><trkpt lat="-18.290632741627018" lon="122.26728729037117"><ele>23.0</ele><time>2026-04-24T05:11:06Z</time></trkpt><trkpt lat="-18.290530866422046" lon="122.26757728655934"><ele>23.5</ele><time>2026-04-24T05:11:07Z</time></trkpt><trkpt lat="-18.29042498960725" lon="122.26786608486663"><ele>24.0</ele><time>2026-04-24T05:11:08Z</time></trkpt><trkpt lat="-18.290318720548584" lon="122.26815552816066"><ele>24.5</ele><time>2026-04-24T05:11:09Z</time></trkpt><trkpt lat="-18.29021197720043" lon="122.26844511538235"><ele>25.0</ele><time>2026-04-24T05:11:10Z</time></trkpt><trkpt lat="-18.29010173403528" lon="122.26873850532941"><ele>24.5</ele><time>2026-04-24T05:11:11Z</time></trkpt><trkpt lat="-18.28999377971092" lon="122.26903183100659"><ele>24.0</ele><time>2026-04-24T05:11:12Z</time></trkpt><trkpt lat="-18.289891067156255" lon="122.2693263407336"><ele>24.0</ele><time>2026-04-24T05:11:13Z</time></trkpt><trkpt lat="-18.28978906101627" lon="122.26961967027862"><ele>24.0</ele><time>2026-04-24T05:11:14Z</time></trkpt><trkpt lat="-18.289686622540188" lon="122.2699154756534"><ele>24.0</ele><time>2026-04-24T05:11:15Z</time></trkpt><trkpt lat="-18.28958055803863" lon="122.2702114414858"><ele>24.0</ele><time>2026-04-24T05:11:16Z</time></trkpt><trkpt lat="-18.28947219655143" lon="122.27051015797086"><ele>24.0</ele><time>2026-04-24T05:11:17Z</time></trkpt><trkpt lat="-18.28936610931067" lon="122.27080982778764"><ele>24.0</ele><time>2026-04-24T05:11:18Z</time></trkpt><trkpt lat="-18.28925864031865" lon="122.27111003410698"><ele>24.0</ele><time>2026-04-24T05:11:19Z</time></trkpt><trkpt lat="-18.289146736065742" lon="122.27141257120367"><ele>24.0</ele><time>2026-04-24T05:11:20Z</time></trkpt><trkpt lat="-18.28903483911319" lon="122.27171563890742"><ele>24.0</ele><time>2026-04-24T05:11:21Z</time></trkpt><trkpt lat="-18.288924533157843" lon="122.27202133146454"><ele>24.0</ele><time>2026-04-24T05:11:22Z</time></trkpt><trkpt lat="-18.288814275625594" lon="122.27232537873786"><ele>24.5</ele><time>2026-04-24T05:11:23Z</time></trkpt><trkpt lat="-18.288705192307763" lon="122.27262732764886"><ele>25.0</ele><time>2026-04-24T05:11:24Z</time></trkpt><trkpt lat="-18.288596258194584" lon="122.27292777942222"><ele>25.5</ele><time>2026-04-24T05:11:25Z</time></trkpt><trkpt lat="-18.288487073649065" lon="122.27323009438607"><ele>26.0</ele><time>2026-04-24T05:11:26Z</time></trkpt><trkpt lat="-18.288379110073613" lon="122.27353200544317"><ele>26.0</ele><time>2026-04-24T05:11:27Z</time></trkpt><trkpt lat="-18.288271028788763" lon="122.2738341640598"><ele>26.0</ele><time>2026-04-24T05:11:28Z</time></trkpt><trkpt lat="-18.288162301198174" lon="122.27413524137488"><ele>25.5</ele><time>2026-04-24T05:11:29Z</time></trkpt><trkpt lat="-18.288053211509894" lon="122.27443683306021"><ele>25.0</ele><time>2026-04-24T05:11:30Z</time></trkpt><trkpt lat="-18.287942518627492" lon="122.27473784567968"><ele>25.0</ele><time>2026-04-24T05:11:31Z</time></trkpt><trkpt lat="-18.28783403745553" lon="122.27503846199544"><ele>25.0</ele><time>2026-04-24T05:11:32Z</time></trkpt><trkpt lat="-18.287727036919726" lon="122.2753347875638"><ele>25.5</ele><time>2026-04-24T05:11:33Z</time></trkpt><trkpt lat="-18.28761959650118" lon="122.27563217471642"><ele>26.0</ele><time>2026-04-24T05:11:34Z</time></trkpt><trkpt lat="-18.287514583227686" lon="122.27593003758687"><ele>26.0</ele><time>2026-04-24T05:11:35Z</time></trkpt><trkpt lat="-18.28740930303036" lon="122.27623005668545"><ele>26.0</ele><time>2026-04-24T05:11:36Z</time></trkpt><trkpt lat="-18.28730206697805" lon="122.2765272018191"><ele>26.0</ele><time>2026-04-24T05:11:37Z</time></trkpt><trkpt lat="-18.28719194842062" lon="122.27682566408753"><ele>26.0</ele><time>2026-04-24T05:11:38Z</time></trkpt><trkpt lat="-18.287081975727194" lon="122.27712297746402"><ele>26.0</ele><time>2026-04-24T05:11:39Z</time></trkpt><trkpt lat="-18.286972592220106" lon="122.2774208279308"><ele>26.0</ele><time>2026-04-24T05:11:40Z</time></trkpt><trkpt lat="-18.28686454645682" lon="122.2777160002301"><ele>26.0</ele><time>2026-04-24T05:11:41Z</time></trkpt><trkpt lat="-18.28675843638873" lon="122.27801097268886"><ele>26.0</ele><time>2026-04-24T05:11:42Z</time></trkpt><trkpt lat="-18.28665529264028" lon="122.27830684180513"><ele>25.0</ele><time>2026-04-24T05:11:43Z</time></trkpt><trkpt lat="-18.286552111980445" lon="122.27860495073983"><ele>24.0</ele><time>2026-04-24T05:11:44Z</time></trkpt><trkpt lat="-18.28644746128823" lon="122.27890156314233"><ele>25.5</ele><time>2026-04-24T05:11:45Z</time></trkpt><trkpt lat="-18.28633901357299" lon="122.27919937209496"><ele>27.0</ele><time>2026-04-24T05:11:46Z</time></trkpt><trkpt lat="-18.286229272229956" lon="122.27949633546052"><ele>26.0</ele><time>2026-04-24T05:11:47Z</time></trkpt><trkpt lat="-18.28611987382908" lon="122.27979504319532"><ele>25.0</ele><time>2026-04-24T05:11:48Z</time></trkpt><trkpt lat="-18.28601056955538" lon="122.28009512354038"><ele>25.0</ele><time>2026-04-24T05:11:49Z</time></trkpt><trkpt lat="-18.285902520719997" lon="122.28039328930875"><ele>25.0</ele><time>2026-04-24T05:11:50.001Z</time></trkpt><trkpt lat="-18.28579508923061" lon="122.2806949754198"><ele>25.0</ele><time>2026-04-24T05:11:51.001Z</time></trkpt><trkpt lat="-18.28568637615823" lon="122.2809986266323"><ele>25.0</ele><time>2026-04-24T05:11:52.001Z</time></trkpt><trkpt lat="-18.28557801480273" lon="122.28130091113317"><ele>26.5</ele><time>2026-04-24T05:11:53.001Z</time></trkpt><trkpt lat="-18.285467910519092" lon="122.2816021512955"><ele>28.0</ele><time>2026-04-24T05:11:54.001Z</time></trkpt><trkpt lat="-18.28535664271258" lon="122.28190373443867"><ele>28.0</ele><time>2026-04-24T05:11:55.001Z</time></trkpt><trkpt lat="-18.28524595927193" lon="122.28220361406812"><ele>28.0</ele><time>2026-04-24T05:11:56.001Z</time></trkpt><trkpt lat="-18.285138083713257" lon="122.28250122543898"><ele>27.0</ele><time>2026-04-24T05:11:57.001Z</time></trkpt><trkpt lat="-18.285030001109444" lon="122.28280028855606"><ele>26.0</ele><time>2026-04-24T05:11:58.001Z</time></trkpt><trkpt lat="-18.284923040577983" lon="122.28309542365136"><ele>26.0</ele><time>2026-04-24T05:11:59.001Z</time></trkpt><trkpt lat="-18.284814658724997" lon="122.28339052776228"><ele>26.0</ele><time>2026-04-24T05:12:00.001Z</time></trkpt><trkpt lat="-18.284707411104513" lon="122.28368433217933"><ele>25.0</ele><time>2026-04-24T05:12:01.001Z</time></trkpt><trkpt lat="-18.284601733141347" lon="122.28397735861594"><ele>24.0</ele><time>2026-04-24T05:12:02.001Z</time></trkpt><trkpt lat="-18.284497473158847" lon="122.28426985281324"><ele>24.0</ele><time>2026-04-24T05:12:03.001Z</time></trkpt><trkpt lat="-18.284395110418448" lon="122.28456168143977"><ele>24.0</ele><time>2026-04-24T05:12:04.001Z</time></trkpt><trkpt lat="-18.284291624698092" lon="122.2848528321159"><ele>24.0</ele><time>2026-04-24T05:12:05.001Z</time></trkpt><trkpt lat="-18.284186173966717" lon="122.28514265790707"><ele>24.0</ele><time>2026-04-24T05:12:06.001Z</time></trkpt><trkpt lat="-18.284080965718204" lon="122.28543004698592"><ele>24.5</ele><time>2026-04-24T05:12:07.001Z</time></trkpt><trkpt lat="-18.283976728094192" lon="122.28571963530538"><ele>25.0</ele><time>2026-04-24T05:12:08.001Z</time></trkpt><trkpt lat="-18.283878456472653" lon="122.28601215216388"><ele>25.0</ele><time>2026-04-24T05:12:09.001Z</time></trkpt><trkpt lat="-18.283785911027802" lon="122.28631031158594"><ele>25.0</ele><time>2026-04-24T05:12:10.001Z</time></trkpt><trkpt lat="-18.283693659102262" lon="122.2866084867039"><ele>25.0</ele><time>2026-04-24T05:12:11.001Z</time></trkpt><trkpt lat="-18.283604407006777" lon="122.28690663378313"><ele>25.0</ele><time>2026-04-24T05:12:12.001Z</time></trkpt><trkpt lat="-18.283523015265168" lon="122.28720794166608"><ele>26.0</ele><time>2026-04-24T05:12:13.001Z</time></trkpt><trkpt lat="-18.28344579498975" lon="122.28751224450075"><ele>27.0</ele><time>2026-04-24T05:12:14.001Z</time></trkpt><trkpt lat="-18.283373826255104" lon="122.28781697523411"><ele>27.0</ele><time>2026-04-24T05:12:15.001Z</time></trkpt><trkpt lat="-18.283307039961823" lon="122.28812353365167"><ele>27.0</ele><time>2026-04-24T05:12:16.001Z</time></trkpt><trkpt lat="-18.283246381380998" lon="122.28843170617878"><ele>27.0</ele><time>2026-04-24T05:12:17.001Z</time></trkpt><trkpt lat="-18.283191150681617" lon="122.28874177581086"><ele>27.0</ele><time>2026-04-24T05:12:18.001Z</time></trkpt><trkpt lat="-18.28313938602278" lon="122.28905310386132"><ele>26.0</ele><time>2026-04-24T05:12:19.001Z</time></trkpt><trkpt lat="-18.28308523125488" lon="122.28936670376763"><ele>25.0</ele><time>2026-04-24T05:12:20.001Z</time></trkpt><trkpt lat="-18.283030162430205" lon="122.28968134368903"><ele>24.0</ele><time>2026-04-24T05:12:21.001Z</time></trkpt><trkpt lat="-18.282973895572397" lon="122.28999510871445"><ele>23.0</ele><time>2026-04-24T05:12:22.001Z</time></trkpt><trkpt lat="-18.28291430722237" lon="122.2903098180001"><ele>22.5</ele><time>2026-04-24T05:12:23.001Z</time></trkpt><trkpt lat="-18.282854107457947" lon="122.29062238168795"><ele>22.0</ele><time>2026-04-24T05:12:24.001Z</time></trkpt><trkpt lat="-18.2827963895154" lon="122.29093513269066"><ele>22.0</ele><time>2026-04-24T05:12:25.001Z</time></trkpt><trkpt lat="-18.282739593998475" lon="122.29125108438984"><ele>22.0</ele><time>2026-04-24T05:12:26.001Z</time></trkpt><trkpt lat="-18.282682097713685" lon="122.29156433462477"><ele>23.5</ele><time>2026-04-24T05:12:27.001Z</time></trkpt><trkpt lat="-18.282624337635152" lon="122.29187837744051"><ele>25.0</ele><time>2026-04-24T05:12:28.001Z</time></trkpt><trkpt lat="-18.282566699406125" lon="122.29219327177036"><ele>26.0</ele><time>2026-04-24T05:12:29.001Z</time></trkpt><trkpt lat="-18.282510824577173" lon="122.2925045324226"><ele>27.0</ele><time>2026-04-24T05:12:30.001Z</time></trkpt><trkpt lat="-18.282455849354143" lon="122.29281615068284"><ele>26.5</ele><time>2026-04-24T05:12:31.001Z</time></trkpt><trkpt lat="-18.28239985000836" lon="122.29313115442956"><ele>26.0</ele><time>2026-04-24T05:12:32.001Z</time></trkpt><trkpt lat="-18.28234465460729" lon="122.29344522386056"><ele>26.0</ele><time>2026-04-24T05:12:33.001Z</time></trkpt><trkpt lat="-18.282290453567857" lon="122.29375585761821"><ele>26.0</ele><time>2026-04-24T05:12:34.001Z</time></trkpt><trkpt lat="-18.282236012026186" lon="122.29405534337225"><ele>26.0</ele><time>2026-04-24T05:12:35.001Z</time></trkpt><trkpt lat="-18.282185332206325" lon="122.29432755197732"><ele>26.0</ele><time>2026-04-24T05:12:36.001Z</time></trkpt><trkpt lat="-18.282137766098224" lon="122.29459535849358"><ele>26.0</ele><time>2026-04-24T05:12:37.001Z</time></trkpt><trkpt lat="-18.282088339656166" lon="122.29487691850571"><ele>26.0</ele><time>2026-04-24T05:12:38.001Z</time></trkpt><trkpt lat="-18.282037757756417" lon="122.29517291975435"><ele>26.0</ele><time>2026-04-24T05:12:39.001Z</time></trkpt><trkpt lat="-18.281985893417296" lon="122.29547977428071"><ele>26.0</ele><time>2026-04-24T05:12:40.001Z</time></trkpt><trkpt lat="-18.28193020369868" lon="122.29578544149193"><ele>25.5</ele><time>2026-04-24T05:12:41.001Z</time></trkpt><trkpt lat="-18.281872606337103" lon="122.29609187139526"><ele>25.0</ele><time>2026-04-24T05:12:42.001Z</time></trkpt><trkpt lat="-18.28181489785029" lon="122.29639774286336"><ele>25.5</ele><time>2026-04-24T05:12:43.001Z</time></trkpt><trkpt lat="-18.28175622523103" lon="122.2967042477648"><ele>26.0</ele><time>2026-04-24T05:12:44.001Z</time></trkpt><trkpt lat="-18.281696136409476" lon="122.29701228569466"><ele>26.0</ele><time>2026-04-24T05:12:45.001Z</time></trkpt><trkpt lat="-18.281637711043228" lon="122.29732306920317"><ele>26.0</ele><time>2026-04-24T05:12:46.001Z</time></trkpt><trkpt lat="-18.281581952160863" lon="122.29763502798409"><ele>26.0</ele><time>2026-04-24T05:12:47.001Z</time></trkpt><trkpt lat="-18.2815275211545" lon="122.29794794433997"><ele>26.0</ele><time>2026-04-24T05:12:48.001Z</time></trkpt><trkpt lat="-18.281473253767924" lon="122.29825972146968"><ele>26.0</ele><time>2026-04-24T05:12:49.001Z</time></trkpt><trkpt lat="-18.281417867084965" lon="122.29857283551517"><ele>26.0</ele><time>2026-04-24T05:12:50.001Z</time></trkpt><trkpt lat="-18.281361441226128" lon="122.29888650551003"><ele>26.0</ele><time>2026-04-24T05:12:51.001Z</time></trkpt><trkpt lat="-18.28130348890729" lon="122.29920478015404"><ele>26.0</ele><time>2026-04-24T05:12:52.001Z</time></trkpt><trkpt lat="-18.281246592257087" lon="122.2995219625896"><ele>26.0</ele><time>2026-04-24T05:12:53.001Z</time></trkpt><trkpt lat="-18.28118864254833" lon="122.29983419056953"><ele>26.0</ele><time>2026-04-24T05:12:54.001Z</time></trkpt><trkpt lat="-18.281131835047386" lon="122.3001464565301"><ele>26.0</ele><time>2026-04-24T05:12:55.001Z</time></trkpt><trkpt lat="-18.28107586126881" lon="122.30046113351024"><ele>26.0</ele><time>2026-04-24T05:12:56.001Z</time></trkpt><trkpt lat="-18.281020721931817" lon="122.30077786562505"><ele>26.0</ele><time>2026-04-24T05:12:57.001Z</time></trkpt><trkpt lat="-18.280965904789817" lon="122.3011004056944"><ele>26.0</ele><time>2026-04-24T05:12:58.001Z</time></trkpt><trkpt lat="-18.28091136592188" lon="122.30142665219412"><ele>26.5</ele><time>2026-04-24T05:12:59.001Z</time></trkpt><trkpt lat="-18.28085568315048" lon="122.30175282098003"><ele>27.0</ele><time>2026-04-24T05:13:00.001Z</time></trkpt><trkpt lat="-18.28079550934766" lon="122.30208299805594"><ele>27.0</ele><time>2026-04-24T05:13:01Z</time></trkpt><trkpt lat="-18.28073378543661" lon="122.30240541815736"><ele>27.0</ele><time>2026-04-24T05:13:02Z</time></trkpt><trkpt lat="-18.280670575175233" lon="122.30272305740421"><ele>27.0</ele><time>2026-04-24T05:13:03Z</time></trkpt><trkpt lat="-18.280610769432244" lon="122.30303681694228"><ele>27.0</ele><time>2026-04-24T05:13:04Z</time></trkpt><trkpt lat="-18.280552337507874" lon="122.30334844143219"><ele>26.0</ele><time>2026-04-24T05:13:05Z</time></trkpt><trkpt lat="-18.28049594386693" lon="122.30366039289254"><ele>25.0</ele><time>2026-04-24T05:13:06Z</time></trkpt><trkpt lat="-18.280437930284453" lon="122.3039730122477"><ele>25.0</ele><time>2026-04-24T05:13:07Z</time></trkpt><trkpt lat="-18.280381729967523" lon="122.30428642949822"><ele>25.0</ele><time>2026-04-24T05:13:08Z</time></trkpt><trkpt lat="-18.28032580809838" lon="122.30460134498912"><ele>25.0</ele><time>2026-04-24T05:13:09Z</time></trkpt><trkpt lat="-18.28027030107709" lon="122.30491363331646"><ele>25.0</ele><time>2026-04-24T05:13:10Z</time></trkpt><trkpt lat="-18.280213324236666" lon="122.30522809605057"><ele>25.0</ele><time>2026-04-24T05:13:11Z</time></trkpt><trkpt lat="-18.280156306169474" lon="122.30554521619183"><ele>25.0</ele><time>2026-04-24T05:13:12Z</time></trkpt><trkpt lat="-18.280098761461616" lon="122.30586699194762"><ele>25.0</ele><time>2026-04-24T05:13:13Z</time></trkpt><trkpt lat="-18.28004305608776" lon="122.30618288222597"><ele>25.0</ele><time>2026-04-24T05:13:14Z</time></trkpt><trkpt lat="-18.27998815662186" lon="122.30649249669997"><ele>26.0</ele><time>2026-04-24T05:13:15Z</time></trkpt><trkpt lat="-18.27993161668351" lon="122.30680032835716"><ele>27.0</ele><time>2026-04-24T05:13:16Z</time></trkpt><trkpt lat="-18.279874585966716" lon="122.30710976187358"><ele>27.0</ele><time>2026-04-24T05:13:17Z</time></trkpt><trkpt lat="-18.279819209639708" lon="122.30742029365086"><ele>27.0</ele><time>2026-04-24T05:13:18Z</time></trkpt><trkpt lat="-18.279763208033664" lon="122.30772979899837"><ele>26.0</ele><time>2026-04-24T05:13:19Z</time></trkpt><trkpt lat="-18.27970556360876" lon="122.30803970572153"><ele>25.0</ele><time>2026-04-24T05:13:20Z</time></trkpt><trkpt lat="-18.279647747304608" lon="122.30834987283454"><ele>25.0</ele><time>2026-04-24T05:13:21Z</time></trkpt><trkpt lat="-18.279591342799527" lon="122.3086589231043"><ele>25.0</ele><time>2026-04-24T05:13:22Z</time></trkpt><trkpt lat="-18.27953609259824" lon="122.30897051472525"><ele>25.0</ele><time>2026-04-24T05:13:23Z</time></trkpt><trkpt lat="-18.27948380931725" lon="122.30928034299237"><ele>25.0</ele><time>2026-04-24T05:13:24Z</time></trkpt><trkpt lat="-18.279429505168366" lon="122.30958987479019"><ele>24.5</ele><time>2026-04-24T05:13:25Z</time></trkpt><trkpt lat="-18.279373380474738" lon="122.30989948440426"><ele>24.0</ele><time>2026-04-24T05:13:26Z</time></trkpt><trkpt lat="-18.27931488729325" lon="122.31021048752145"><ele>24.0</ele><time>2026-04-24T05:13:27Z</time></trkpt><trkpt lat="-18.279256739919692" lon="122.31052149781426"><ele>24.0</ele><time>2026-04-24T05:13:28Z</time></trkpt><trkpt lat="-18.279195509145207" lon="122.31083687734414"><ele>25.0</ele><time>2026-04-24T05:13:29Z</time></trkpt><trkpt lat="-18.279131626680183" lon="122.31115512336287"><ele>26.0</ele><time>2026-04-24T05:13:30Z</time></trkpt><trkpt lat="-18.279064912279" lon="122.31147057793662"><ele>26.5</ele><time>2026-04-24T05:13:31Z</time></trkpt><trkpt lat="-18.27899507754186" lon="122.31178539191556"><ele>27.0</ele><time>2026-04-24T05:13:32Z</time></trkpt><trkpt lat="-18.27892372481091" lon="122.31210018547765"><ele>25.0</ele><time>2026-04-24T05:13:33Z</time></trkpt><trkpt lat="-18.278849750229025" lon="122.31241460552499"><ele>23.0</ele><time>2026-04-24T05:13:34Z</time></trkpt><trkpt lat="-18.278772592763474" lon="122.31272610254044"><ele>23.0</ele><time>2026-04-24T05:13:35Z</time></trkpt><trkpt lat="-18.278692404778536" lon="122.31303555895563"><ele>23.0</ele><time>2026-04-24T05:13:36Z</time></trkpt><trkpt lat="-18.278610121955232" lon="122.31334526465163"><ele>23.5</ele><time>2026-04-24T05:13:37Z</time></trkpt><trkpt lat="-18.278526015782084" lon="122.31365190987945"><ele>24.0</ele><time>2026-04-24T05:13:38Z</time></trkpt><trkpt lat="-18.27844139829332" lon="122.31395708141429"><ele>25.5</ele><time>2026-04-24T05:13:39Z</time></trkpt><trkpt lat="-18.27835847734339" lon="122.31426306416455"><ele>27.0</ele><time>2026-04-24T05:13:40Z</time></trkpt><trkpt lat="-18.278277329558808" lon="122.3145709501654"><ele>26.0</ele><time>2026-04-24T05:13:41Z</time></trkpt><trkpt lat="-18.27819528885191" lon="122.31487746273402"><ele>25.0</ele><time>2026-04-24T05:13:42Z</time></trkpt><trkpt lat="-18.278112833900952" lon="122.3151842856152"><ele>24.5</ele><time>2026-04-24T05:13:43Z</time></trkpt><trkpt lat="-18.278032206198606" lon="122.31549145871263"><ele>24.0</ele><time>2026-04-24T05:13:44Z</time></trkpt><trkpt lat="-18.277950417809695" lon="122.31580125017726"><ele>24.0</ele><time>2026-04-24T05:13:45Z</time></trkpt><trkpt lat="-18.27786812381342" lon="122.31611022057884"><ele>24.0</ele><time>2026-04-24T05:13:46Z</time></trkpt><trkpt lat="-18.277785364387306" lon="122.31642009782175"><ele>24.5</ele><time>2026-04-24T05:13:47Z</time></trkpt><trkpt lat="-18.27769951468763" lon="122.31673126132976"><ele>25.0</ele><time>2026-04-24T05:13:48Z</time></trkpt><trkpt lat="-18.27761293186318" lon="122.31704298482792"><ele>25.0</ele><time>2026-04-24T05:13:49Z</time></trkpt><trkpt lat="-18.277527922909435" lon="122.31735333146271"><ele>25.0</ele><time>2026-04-24T05:13:50Z</time></trkpt><trkpt lat="-18.277444962167493" lon="122.31766238794545"><ele>25.0</ele><time>2026-04-24T05:13:51Z</time></trkpt><trkpt lat="-18.277364696581735" lon="122.31797092808957"><ele>25.0</ele><time>2026-04-24T05:13:52Z</time></trkpt><trkpt lat="-18.277283583040393" lon="122.31827982300673"><ele>23.5</ele><time>2026-04-24T05:13:53.001Z</time></trkpt><trkpt lat="-18.277200978369322" lon="122.31858788366321"><ele>22.0</ele><time>2026-04-24T05:13:54.001Z</time></trkpt><trkpt lat="-18.277114840464705" lon="122.31889483693989"><ele>23.5</ele><time>2026-04-24T05:13:55.001Z</time></trkpt><trkpt lat="-18.277028163616393" lon="122.31920048960656"><ele>25.0</ele><time>2026-04-24T05:13:56.001Z</time></trkpt><trkpt lat="-18.27694456889713" lon="122.3195080275123"><ele>26.0</ele><time>2026-04-24T05:13:57.001Z</time></trkpt><trkpt lat="-18.27686242350969" lon="122.31981488681"><ele>27.0</ele><time>2026-04-24T05:13:58.001Z</time></trkpt><trkpt lat="-18.27678067559068" lon="122.32012680804031"><ele>27.0</ele><time>2026-04-24T05:13:59.001Z</time></trkpt><trkpt lat="-18.27669907183094" lon="122.32043508391394"><ele>27.0</ele><time>2026-04-24T05:14:00.001Z</time></trkpt><trkpt lat="-18.27661777041233" lon="122.32074409554129"><ele>26.5</ele><time>2026-04-24T05:14:01.001Z</time></trkpt><trkpt lat="-18.276535440542858" lon="122.32105266210544"><ele>26.0</ele><time>2026-04-24T05:14:02.001Z</time></trkpt><trkpt lat="-18.27645088662127" lon="122.32136056926252"><ele>25.0</ele><time>2026-04-24T05:14:03.001Z</time></trkpt><trkpt lat="-18.276366200124063" lon="122.32166530534843"><ele>24.0</ele><time>2026-04-24T05:14:04.001Z</time></trkpt><trkpt lat="-18.27628061634591" lon="122.32197115364798"><ele>23.5</ele><time>2026-04-24T05:14:05.001Z</time></trkpt><trkpt lat="-18.276197623852685" lon="122.32227320936549"><ele>23.0</ele><time>2026-04-24T05:14:06.001Z</time></trkpt><trkpt lat="-18.276114601626357" lon="122.32257636295147"><ele>23.0</ele><time>2026-04-24T05:14:07.001Z</time></trkpt><trkpt lat="-18.276033483738658" lon="122.32287916194828"><ele>23.0</ele><time>2026-04-24T05:14:08.001Z</time></trkpt><trkpt lat="-18.27595233003013" lon="122.32318331619348"><ele>23.5</ele><time>2026-04-24T05:14:09.001Z</time></trkpt><trkpt lat="-18.27587209369326" lon="122.3234870743105"><ele>24.0</ele><time>2026-04-24T05:14:10.001Z</time></trkpt><trkpt lat="-18.275789909450864" lon="122.32379128769257"><ele>24.0</ele><time>2026-04-24T05:14:11.001Z</time></trkpt><trkpt lat="-18.275708780952606" lon="122.32409593724472"><ele>24.0</ele><time>2026-04-24T05:14:12.001Z</time></trkpt><trkpt lat="-18.275626818442714" lon="122.32439889794195"><ele>24.0</ele><time>2026-04-24T05:14:13.001Z</time></trkpt><trkpt lat="-18.27554397520413" lon="122.32470244131318"><ele>24.0</ele><time>2026-04-24T05:14:14.001Z</time></trkpt><trkpt lat="-18.275461663346512" lon="122.32500508532748"><ele>24.0</ele><time>2026-04-24T05:14:15.001Z</time></trkpt><trkpt lat="-18.275379871342313" lon="122.32530993689599"><ele>24.0</ele><time>2026-04-24T05:14:16.001Z</time></trkpt><trkpt lat="-18.27529763956607" lon="122.32561477896272"><ele>24.0</ele><time>2026-04-24T05:14:17.001Z</time></trkpt><trkpt lat="-18.275217532472347" lon="122.32592356557838"><ele>24.0</ele><time>2026-04-24T05:14:18.001Z</time></trkpt><trkpt lat="-18.275137402098206" lon="122.32623253027641"><ele>23.5</ele><time>2026-04-24T05:14:19.001Z</time></trkpt><trkpt lat="-18.27506008874662" lon="122.32653603072539"><ele>23.0</ele><time>2026-04-24T05:14:20.001Z</time></trkpt><trkpt lat="-18.274980424424104" lon="122.32683780952524"><ele>23.0</ele><time>2026-04-24T05:14:21.001Z</time></trkpt><trkpt lat="-18.274899045934173" lon="122.32713877181014"><ele>23.0</ele><time>2026-04-24T05:14:22.001Z</time></trkpt><trkpt lat="-18.274814524061274" lon="122.32744212941874"><ele>22.5</ele><time>2026-04-24T05:14:23.001Z</time></trkpt><trkpt lat="-18.27472846205931" lon="122.3277467911321"><ele>22.0</ele><time>2026-04-24T05:14:24.001Z</time></trkpt><trkpt lat="-18.274642946712117" lon="122.32805530756289"><ele>21.5</ele><time>2026-04-24T05:14:25.001Z</time></trkpt><trkpt lat="-18.274557514070043" lon="122.32836509893178"><ele>21.0</ele><time>2026-04-24T05:14:26.001Z</time></trkpt><trkpt lat="-18.27447573069151" lon="122.32867371144059"><ele>21.5</ele><time>2026-04-24T05:14:27.001Z</time></trkpt><trkpt lat="-18.274392405479666" lon="122.32898273414469"><ele>22.0</ele><time>2026-04-24T05:14:28.001Z</time></trkpt><trkpt lat="-18.27431049523682" lon="122.32929013783549"><ele>22.0</ele><time>2026-04-24T05:14:29.001Z</time></trkpt><trkpt lat="-18.274226945546502" lon="122.32959871624156"><ele>22.0</ele><time>2026-04-24T05:14:30.001Z</time></trkpt><trkpt lat="-18.27414192282962" lon="122.32991037151034"><ele>22.0</ele><time>2026-04-24T05:14:31.001Z</time></trkpt><trkpt lat="-18.27405524020656" lon="122.33022174070707"><ele>22.0</ele><time>2026-04-24T05:14:32.001Z</time></trkpt><trkpt lat="-18.27396955212456" lon="122.33053160936007"><ele>23.0</ele><time>2026-04-24T05:14:33.001Z</time></trkpt><trkpt lat="-18.273887124946658" lon="122.33084176265548"><ele>24.0</ele><time>2026-04-24T05:14:34.001Z</time></trkpt><trkpt lat="-18.27380482564528" lon="122.33115342800122"><ele>24.0</ele><time>2026-04-24T05:14:35.001Z</time></trkpt><trkpt lat="-18.273721685368244" lon="122.33146444243104"><ele>24.0</ele><time>2026-04-24T05:14:36.001Z</time></trkpt><trkpt lat="-18.273638247077802" lon="122.33177549551637"><ele>24.0</ele><time>2026-04-24T05:14:37.001Z</time></trkpt><trkpt lat="-18.273555351188374" lon="122.33208489401002"><ele>24.0</ele><time>2026-04-24T05:14:38.001Z</time></trkpt><trkpt lat="-18.273474303688193" lon="122.33239074118006"><ele>23.5</ele><time>2026-04-24T05:14:39.001Z</time></trkpt><trkpt lat="-18.273393580476068" lon="122.33269506259708"><ele>23.0</ele><time>2026-04-24T05:14:40.001Z</time></trkpt><trkpt lat="-18.27331290543219" lon="122.33300209335151"><ele>24.5</ele><time>2026-04-24T05:14:41.001Z</time></trkpt><trkpt lat="-18.2732327784136" lon="122.33330458014494"><ele>26.0</ele><time>2026-04-24T05:14:42.001Z</time></trkpt><trkpt lat="-18.273148351639538" lon="122.33360754495821"><ele>24.5</ele><time>2026-04-24T05:14:43.001Z</time></trkpt><trkpt lat="-18.27306394430578" lon="122.33391241352525"><ele>23.0</ele><time>2026-04-24T05:14:44.001Z</time></trkpt><trkpt lat="-18.272981601203558" lon="122.33421794214426"><ele>23.0</ele><time>2026-04-24T05:14:45.001Z</time></trkpt><trkpt lat="-18.2729009546515" lon="122.334517680101"><ele>23.0</ele><time>2026-04-24T05:14:46.001Z</time></trkpt><trkpt lat="-18.272821387998025" lon="122.33481866846252"><ele>23.0</ele><time>2026-04-24T05:14:47.001Z</time></trkpt><trkpt lat="-18.27274085712399" lon="122.33511919923487"><ele>23.0</ele><time>2026-04-24T05:14:48.001Z</time></trkpt><trkpt lat="-18.27266259024147" lon="122.33541479552144"><ele>23.5</ele><time>2026-04-24T05:14:49.001Z</time></trkpt><trkpt lat="-18.272580980840697" lon="122.33571907783494"><ele>24.0</ele><time>2026-04-24T05:14:50.001Z</time></trkpt><trkpt lat="-18.272495888592793" lon="122.3360319069507"><ele>24.0</ele><time>2026-04-24T05:14:51.001Z</time></trkpt><trkpt lat="-18.272410741696117" lon="122.33634706119484"><ele>24.0</ele><time>2026-04-24T05:14:52.001Z</time></trkpt><trkpt lat="-18.27232740638297" lon="122.33666514986518"><ele>24.0</ele><time>2026-04-24T05:14:53.001Z</time></trkpt><trkpt lat="-18.272241595389662" lon="122.33698411434726"><ele>24.0</ele><time>2026-04-24T05:14:54.001Z</time></trkpt><trkpt lat="-18.272156456348853" lon="122.33730268693324"><ele>24.0</ele><time>2026-04-24T05:14:55.001Z</time></trkpt><trkpt lat="-18.27207005719588" lon="122.3376257886724"><ele>24.0</ele><time>2026-04-24T05:14:56.001Z</time></trkpt><trkpt lat="-18.271981518229687" lon="122.33794510164724"><ele>24.0</ele><time>2026-04-24T05:14:57.001Z</time></trkpt><trkpt lat="-18.271896501837585" lon="122.33825979780976"><ele>24.0</ele><time>2026-04-24T05:14:58.001Z</time></trkpt><trkpt lat="-18.271811873063907" lon="122.33857210637953"><ele>25.5</ele><time>2026-04-24T05:14:59.001Z</time></trkpt><trkpt lat="-18.271725391158004" lon="122.33888802799996"><ele>27.0</ele><time>2026-04-24T05:15:00.001Z</time></trkpt><trkpt lat="-18.27163706001648" lon="122.33920769360724"><ele>27.0</ele><time>2026-04-24T05:15:01.001Z</time></trkpt><trkpt lat="-18.27154977653544" lon="122.33952953234686"><ele>27.0</ele><time>2026-04-24T05:15:02.001Z</time></trkpt><trkpt lat="-18.271465684241573" lon="122.33985019858284"><ele>26.0</ele><time>2026-04-24T05:15:03.001Z</time></trkpt><trkpt lat="-18.27138229347057" lon="122.34016778209994"><ele>25.0</ele><time>2026-04-24T05:15:04.001Z</time></trkpt><trkpt lat="-18.27129751037174" lon="122.34048092557185"><ele>25.0</ele><time>2026-04-24T05:15:05.001Z</time></trkpt><trkpt lat="-18.27121090756579" lon="122.34079141811169"><ele>25.0</ele><time>2026-04-24T05:15:06.001Z</time></trkpt><trkpt lat="-18.271129044157558" lon="122.34109790566909"><ele>24.0</ele><time>2026-04-24T05:15:07Z</time></trkpt><trkpt lat="-18.27105641242299" lon="122.34140620461015"><ele>23.0</ele><time>2026-04-24T05:15:08Z</time></trkpt><trkpt lat="-18.270985908778222" lon="122.34171835523654"><ele>23.0</ele><time>2026-04-24T05:15:09Z</time></trkpt><trkpt lat="-18.27092211349038" lon="122.3420308166991"><ele>23.0</ele><time>2026-04-24T05:15:10Z</time></trkpt><trkpt lat="-18.270864307962803" lon="122.34234748293248"><ele>23.5</ele><time>2026-04-24T05:15:11Z</time></trkpt><trkpt lat="-18.270810378192834" lon="122.34266566321229"><ele>24.0</ele><time>2026-04-24T05:15:12Z</time></trkpt><trkpt lat="-18.270763782938484" lon="122.34297989005059"><ele>23.5</ele><time>2026-04-24T05:15:13Z</time></trkpt><trkpt lat="-18.270724433530997" lon="122.34329538211598"><ele>23.0</ele><time>2026-04-24T05:15:14Z</time></trkpt><trkpt lat="-18.270692823072462" lon="122.34361077652973"><ele>24.5</ele><time>2026-04-24T05:15:15Z</time></trkpt><trkpt lat="-18.270660170593924" lon="122.34392048062833"><ele>26.0</ele><time>2026-04-24T05:15:16Z</time></trkpt><trkpt lat="-18.270626144594978" lon="122.3442200173072"><ele>26.0</ele><time>2026-04-24T05:15:17Z</time></trkpt><trkpt lat="-18.270593211887803" lon="122.34452730505306"><ele>26.0</ele><time>2026-04-24T05:15:18Z</time></trkpt><trkpt lat="-18.27056304906595" lon="122.34484530455572"><ele>26.0</ele><time>2026-04-24T05:15:19Z</time></trkpt><trkpt lat="-18.27053278329221" lon="122.34517043231884"><ele>26.0</ele><time>2026-04-24T05:15:20Z</time></trkpt><trkpt lat="-18.270502925687243" lon="122.34548259860247"><ele>26.5</ele><time>2026-04-24T05:15:21Z</time></trkpt><trkpt lat="-18.27047392459186" lon="122.3457821771579"><ele>27.0</ele><time>2026-04-24T05:15:22Z</time></trkpt><trkpt lat="-18.27044525414891" lon="122.34609319268411"><ele>26.5</ele><time>2026-04-24T05:15:23Z</time></trkpt><trkpt lat="-18.270414953956703" lon="122.34641027896724"><ele>26.0</ele><time>2026-04-24T05:15:24Z</time></trkpt><trkpt lat="-18.2703842771919" lon="122.34672923742873"><ele>26.0</ele><time>2026-04-24T05:15:25Z</time></trkpt><trkpt lat="-18.270354354806507" lon="122.34704804903983"><ele>26.0</ele><time>2026-04-24T05:15:26Z</time></trkpt><trkpt lat="-18.27032485119625" lon="122.3473683141073"><ele>26.0</ele><time>2026-04-24T05:15:27Z</time></trkpt><trkpt lat="-18.27029393346871" lon="122.3476926849835"><ele>26.0</ele><time>2026-04-24T05:15:28Z</time></trkpt><trkpt lat="-18.27026131744231" lon="122.34801993173332"><ele>25.0</ele><time>2026-04-24T05:15:29Z</time></trkpt><trkpt lat="-18.27023082339371" lon="122.34834357535388"><ele>24.0</ele><time>2026-04-24T05:15:30Z</time></trkpt><trkpt lat="-18.27019998730146" lon="122.34865811494902"><ele>24.0</ele><time>2026-04-24T05:15:31Z</time></trkpt><trkpt lat="-18.27017085213514" lon="122.34897249526625"><ele>24.0</ele><time>2026-04-24T05:15:32Z</time></trkpt><trkpt lat="-18.270140067961435" lon="122.34928910819966"><ele>24.0</ele><time>2026-04-24T05:15:33Z</time></trkpt><trkpt lat="-18.27010637768549" lon="122.34960378322893"><ele>24.0</ele><time>2026-04-24T05:15:34Z</time></trkpt><trkpt lat="-18.270073736184138" lon="122.34992196264143"><ele>24.5</ele><time>2026-04-24T05:15:35Z</time></trkpt><trkpt lat="-18.27004291386487" lon="122.3502417495061"><ele>25.0</ele><time>2026-04-24T05:15:36Z</time></trkpt><trkpt lat="-18.270018331282426" lon="122.3505601390236"><ele>26.0</ele><time>2026-04-24T05:15:37Z</time></trkpt><trkpt lat="-18.269993947604103" lon="122.35088287066651"><ele>27.0</ele><time>2026-04-24T05:15:38Z</time></trkpt><trkpt lat="-18.269965087809982" lon="122.35120549830191"><ele>27.0</ele><time>2026-04-24T05:15:39Z</time></trkpt><trkpt lat="-18.269930690297524" lon="122.35152931201215"><ele>27.0</ele><time>2026-04-24T05:15:40Z</time></trkpt><trkpt lat="-18.26989638417893" lon="122.35185168763047"><ele>27.0</ele><time>2026-04-24T05:15:41Z</time></trkpt><trkpt lat="-18.26986531774959" lon="122.35217337395875"><ele>27.0</ele><time>2026-04-24T05:15:42Z</time></trkpt><trkpt lat="-18.26983613825653" lon="122.35249061823268"><ele>27.0</ele><time>2026-04-24T05:15:43Z</time></trkpt><trkpt lat="-18.269804820699623" lon="122.35280625289802"><ele>27.0</ele><time>2026-04-24T05:15:44Z</time></trkpt><trkpt lat="-18.269774000154097" lon="122.35311868675848"><ele>27.0</ele><time>2026-04-24T05:15:45Z</time></trkpt><trkpt lat="-18.269741823801645" lon="122.35343342292373"><ele>27.0</ele><time>2026-04-24T05:15:46Z</time></trkpt><trkpt lat="-18.269711379957716" lon="122.353750064827"><ele>28.5</ele><time>2026-04-24T05:15:47Z</time></trkpt><trkpt lat="-18.26967932398058" lon="122.3540648578969"><ele>30.0</ele><time>2026-04-24T05:15:48Z</time></trkpt><trkpt lat="-18.269646332226102" lon="122.35437950909649"><ele>30.0</ele><time>2026-04-24T05:15:49Z</time></trkpt><trkpt lat="-18.269613025754808" lon="122.3546939514176"><ele>30.0</ele><time>2026-04-24T05:15:50Z</time></trkpt><trkpt lat="-18.26958205906982" lon="122.35500700342419"><ele>29.0</ele><time>2026-04-24T05:15:51Z</time></trkpt><trkpt lat="-18.269550860799804" lon="122.35532313202961"><ele>28.0</ele><time>2026-04-24T05:15:52Z</time></trkpt><trkpt lat="-18.269519949899585" lon="122.355642639507"><ele>28.0</ele><time>2026-04-24T05:15:53Z</time></trkpt><trkpt lat="-18.269493452364003" lon="122.35596275850968"><ele>28.0</ele><time>2026-04-24T05:15:54Z</time></trkpt><trkpt lat="-18.26946609570021" lon="122.35628474981102"><ele>28.5</ele><time>2026-04-24T05:15:55Z</time></trkpt><trkpt lat="-18.26943960951252" lon="122.35660183142048"><ele>29.0</ele><time>2026-04-24T05:15:56Z</time></trkpt><trkpt lat="-18.269410143652884" lon="122.35691839372826"><ele>29.5</ele><time>2026-04-24T05:15:57Z</time></trkpt><trkpt lat="-18.26937930246552" lon="122.35723524160973"><ele>30.0</ele><time>2026-04-24T05:15:58Z</time></trkpt><trkpt lat="-18.269344988887877" lon="122.3575569482237"><ele>30.0</ele><time>2026-04-24T05:15:59Z</time></trkpt><trkpt lat="-18.269310921501006" lon="122.35787853256322"><ele>30.0</ele><time>2026-04-24T05:16:00Z</time></trkpt><trkpt lat="-18.269277354097273" lon="122.35819764408244"><ele>30.0</ele><time>2026-04-24T05:16:01Z</time></trkpt><trkpt lat="-18.269243996148205" lon="122.35851563566932"><ele>30.0</ele><time>2026-04-24T05:16:02Z</time></trkpt><trkpt lat="-18.269214943530255" lon="122.35883592854009"><ele>30.0</ele><time>2026-04-24T05:16:03Z</time></trkpt><trkpt lat="-18.26918566905243" lon="122.35915616523405"><ele>30.0</ele><time>2026-04-24T05:16:04Z</time></trkpt><trkpt lat="-18.26915878299781" lon="122.35947226792084"><ele>30.0</ele><time>2026-04-24T05:16:05Z</time></trkpt><trkpt lat="-18.269132127396503" lon="122.3597867124627"><ele>30.0</ele><time>2026-04-24T05:16:06Z</time></trkpt><trkpt lat="-18.269105208428837" lon="122.36009744568057"><ele>30.0</ele><time>2026-04-24T05:16:07Z</time></trkpt><trkpt lat="-18.269072809456265" lon="122.36041036714938"><ele>30.0</ele><time>2026-04-24T05:16:08Z</time></trkpt><trkpt lat="-18.269037603057583" lon="122.36071937973412"><ele>30.5</ele><time>2026-04-24T05:16:09Z</time></trkpt><trkpt lat="-18.269001082648497" lon="122.36102892452905"><ele>31.0</ele><time>2026-04-24T05:16:10Z</time></trkpt><trkpt lat="-18.26896680258086" lon="122.3613366822109"><ele>31.5</ele><time>2026-04-24T05:16:11Z</time></trkpt><trkpt lat="-18.268938129668687" lon="122.36164557830799"><ele>32.0</ele><time>2026-04-24T05:16:12Z</time></trkpt><trkpt lat="-18.268915647225732" lon="122.36195343669552"><ele>33.0</ele><time>2026-04-24T05:16:13Z</time></trkpt><trkpt lat="-18.268893775199615" lon="122.36226281966108"><ele>34.0</ele><time>2026-04-24T05:16:14Z</time></trkpt><trkpt lat="-18.268864513264212" lon="122.36257031581756"><ele>34.0</ele><time>2026-04-24T05:16:15Z</time></trkpt><trkpt lat="-18.268830038802307" lon="122.36287705694768"><ele>34.0</ele><time>2026-04-24T05:16:16Z</time></trkpt><trkpt lat="-18.268798788427492" lon="122.36318023175832"><ele>34.0</ele><time>2026-04-24T05:16:17Z</time></trkpt><trkpt lat="-18.268769812817155" lon="122.36348173757399"><ele>34.0</ele><time>2026-04-24T05:16:18Z</time></trkpt><trkpt lat="-18.268741026772656" lon="122.36378365298721"><ele>35.5</ele><time>2026-04-24T05:16:19Z</time></trkpt><trkpt lat="-18.268712099814344" lon="122.36408491879165"><ele>37.0</ele><time>2026-04-24T05:16:20Z</time></trkpt><trkpt lat="-18.26868432459413" lon="122.36438317847922"><ele>37.0</ele><time>2026-04-24T05:16:21Z</time></trkpt><trkpt lat="-18.26865493504967" lon="122.36468536886345"><ele>37.0</ele><time>2026-04-24T05:16:22.001Z</time></trkpt><trkpt lat="-18.268623967030656" lon="122.36498222012172"><ele>37.0</ele><time>2026-04-24T05:16:23.001Z</time></trkpt><trkpt lat="-18.268593332074865" lon="122.36527886210304"><ele>37.0</ele><time>2026-04-24T05:16:24.001Z</time></trkpt><trkpt lat="-18.268562528015504" lon="122.36557433054224"><ele>37.5</ele><time>2026-04-24T05:16:25.001Z</time></trkpt><trkpt lat="-18.268534419827187" lon="122.36586581145991"><ele>38.0</ele><time>2026-04-24T05:16:26.001Z</time></trkpt><trkpt lat="-18.268456883829273" lon="122.36614464267457"><ele>37.5</ele><time>2026-04-24T05:16:27.001Z</time></trkpt><trkpt lat="-18.268392364397517" lon="122.36643311832285"><ele>37.0</ele><time>2026-04-24T05:16:28.001Z</time></trkpt><trkpt lat="-18.26845169925821" lon="122.36675410969592"><ele>37.0</ele><time>2026-04-24T05:16:29.001Z</time></trkpt><trkpt lat="-18.268421945106123" lon="122.36705978403165"><ele>37.0</ele><time>2026-04-24T05:16:30.001Z</time></trkpt><trkpt lat="-18.268390825998083" lon="122.36736793851348"><ele>37.5</ele><time>2026-04-24T05:16:31.001Z</time></trkpt><trkpt lat="-18.268362229337235" lon="122.3676803102151"><ele>38.0</ele><time>2026-04-24T05:16:32.001Z</time></trkpt><trkpt lat="-18.26833238047993" lon="122.36799239300981"><ele>37.0</ele><time>2026-04-24T05:16:33.001Z</time></trkpt><trkpt lat="-18.2683048968366" lon="122.36830383363971"><ele>36.0</ele><time>2026-04-24T05:16:34.001Z</time></trkpt><trkpt lat="-18.26827941231234" lon="122.36859253728362"><ele>37.0</ele><time>2026-04-24T05:16:35.001Z</time></trkpt><trkpt lat="-18.268253991093744" lon="122.36886593630888"><ele>38.0</ele><time>2026-04-24T05:16:36.001Z</time></trkpt><trkpt lat="-18.26822425648893" lon="122.36914689197124"><ele>38.0</ele><time>2026-04-24T05:16:37.001Z</time></trkpt><trkpt lat="-18.268191213458184" lon="122.36943667596933"><ele>38.0</ele><time>2026-04-24T05:16:38.001Z</time></trkpt><trkpt lat="-18.26815464178356" lon="122.36972873648837"><ele>38.5</ele><time>2026-04-24T05:16:39.001Z</time></trkpt><trkpt lat="-18.26811719927057" lon="122.37002508378114"><ele>39.0</ele><time>2026-04-24T05:16:40.001Z</time></trkpt><trkpt lat="-18.26807592216302" lon="122.3703220138082"><ele>39.0</ele><time>2026-04-24T05:16:41.001Z</time></trkpt><trkpt lat="-18.268026528178762" lon="122.37062187357841"><ele>39.0</ele><time>2026-04-24T05:16:42.001Z</time></trkpt><trkpt lat="-18.267970642833482" lon="122.37092074234303"><ele>39.0</ele><time>2026-04-24T05:16:43.001Z</time></trkpt><trkpt lat="-18.267910727418908" lon="122.37122055674917"><ele>39.0</ele><time>2026-04-24T05:16:44.001Z</time></trkpt><trkpt lat="-18.26784542035406" lon="122.37152064423155"><ele>39.5</ele><time>2026-04-24T05:16:45.001Z</time></trkpt><trkpt lat="-18.267771548182093" lon="122.37182201341466"><ele>40.0</ele><time>2026-04-24T05:16:46.001Z</time></trkpt><trkpt lat="-18.267689409983028" lon="122.3721256552706"><ele>40.0</ele><time>2026-04-24T05:16:47.001Z</time></trkpt><trkpt lat="-18.267604131899756" lon="122.37243119569212"><ele>40.0</ele><time>2026-04-24T05:16:48.001Z</time></trkpt><trkpt lat="-18.267518181801638" lon="122.3727371415819"><ele>40.5</ele><time>2026-04-24T05:16:49.001Z</time></trkpt><trkpt lat="-18.26743346388513" lon="122.37304341249812"><ele>41.0</ele><time>2026-04-24T05:16:50.001Z</time></trkpt><trkpt lat="-18.26735241092288" lon="122.37334521927974"><ele>41.0</ele><time>2026-04-24T05:16:51.001Z</time></trkpt><trkpt lat="-18.267273273232387" lon="122.37364545467634"><ele>41.0</ele><time>2026-04-24T05:16:52.001Z</time></trkpt><trkpt lat="-18.26719454540316" lon="122.37394709356839"><ele>40.5</ele><time>2026-04-24T05:16:53.001Z</time></trkpt><trkpt lat="-18.267114875918093" lon="122.37424984674834"><ele>40.0</ele><time>2026-04-24T05:16:54.001Z</time></trkpt><trkpt lat="-18.267034642659052" lon="122.37455513685957"><ele>39.5</ele><time>2026-04-24T05:16:55.001Z</time></trkpt><trkpt lat="-18.266952673862" lon="122.37486170773084"><ele>39.0</ele><time>2026-04-24T05:16:56.001Z</time></trkpt><trkpt lat="-18.266869875850894" lon="122.375166870513"><ele>39.0</ele><time>2026-04-24T05:16:57.001Z</time></trkpt><trkpt lat="-18.266786590632766" lon="122.3754741059764"><ele>39.0</ele><time>2026-04-24T05:16:58.001Z</time></trkpt><trkpt lat="-18.266701817680968" lon="122.37578201981866"><ele>40.0</ele><time>2026-04-24T05:16:59.001Z</time></trkpt><trkpt lat="-18.26661521770013" lon="122.376089840987"><ele>41.0</ele><time>2026-04-24T05:17:00.001Z</time></trkpt><trkpt lat="-18.26653167603262" lon="122.37639785740885"><ele>41.0</ele><time>2026-04-24T05:17:01.001Z</time></trkpt><trkpt lat="-18.26644950962079" lon="122.37670742333924"><ele>41.0</ele><time>2026-04-24T05:17:02.001Z</time></trkpt><trkpt lat="-18.266365988548777" lon="122.37701779345876"><ele>40.5</ele><time>2026-04-24T05:17:03.001Z</time></trkpt><trkpt lat="-18.266280679570453" lon="122.37733213345524"><ele>40.0</ele><time>2026-04-24T05:17:04.001Z</time></trkpt><trkpt lat="-18.266196407805833" lon="122.37764841740247"><ele>40.0</ele><time>2026-04-24T05:17:05.001Z</time></trkpt><trkpt lat="-18.266112590632677" lon="122.37796407694964"><ele>40.0</ele><time>2026-04-24T05:17:06.001Z</time></trkpt><trkpt lat="-18.266026751793717" lon="122.37828183509961"><ele>40.5</ele><time>2026-04-24T05:17:07.001Z</time></trkpt><trkpt lat="-18.26593825202223" lon="122.3786004325885"><ele>41.0</ele><time>2026-04-24T05:17:08.001Z</time></trkpt><trkpt lat="-18.265850226857758" lon="122.3789167147752"><ele>41.5</ele><time>2026-04-24T05:17:09.001Z</time></trkpt><trkpt lat="-18.265763717983234" lon="122.3792311824441"><ele>42.0</ele><time>2026-04-24T05:17:10.001Z</time></trkpt><trkpt lat="-18.265679537862223" lon="122.37954427341246"><ele>41.0</ele><time>2026-04-24T05:17:11.001Z</time></trkpt><trkpt lat="-18.265597845346086" lon="122.37985362077474"><ele>40.0</ele><time>2026-04-24T05:17:11.999Z</time></trkpt><trkpt lat="-18.265516292315887" lon="122.38016420258872"><ele>40.0</ele><time>2026-04-24T05:17:12.999Z</time></trkpt><trkpt lat="-18.265432072072397" lon="122.38047644056229"><ele>40.0</ele><time>2026-04-24T05:17:13.999Z</time></trkpt><trkpt lat="-18.26534651302876" lon="122.38078787003198"><ele>40.5</ele><time>2026-04-24T05:17:14.999Z</time></trkpt><trkpt lat="-18.26526010775998" lon="122.38109929738035"><ele>41.0</ele><time>2026-04-24T05:17:15.999Z</time></trkpt><trkpt lat="-18.265175698242746" lon="122.3814100475041"><ele>41.5</ele><time>2026-04-24T05:17:16.999Z</time></trkpt><trkpt lat="-18.26509285918753" lon="122.38172335300246"><ele>42.0</ele><time>2026-04-24T05:17:17.999Z</time></trkpt><trkpt lat="-18.265012079640933" lon="122.38203681231772"><ele>42.0</ele><time>2026-04-24T05:17:18.999Z</time></trkpt><trkpt lat="-18.264927064310186" lon="122.38235274056616"><ele>42.0</ele><time>2026-04-24T05:17:19.999Z</time></trkpt><trkpt lat="-18.264838029154348" lon="122.3826708935618"><ele>41.5</ele><time>2026-04-24T05:17:20.999Z</time></trkpt><trkpt lat="-18.264747783445475" lon="122.38298956673765"><ele>41.0</ele><time>2026-04-24T05:17:21.999Z</time></trkpt><trkpt lat="-18.26465917543687" lon="122.38330876754456"><ele>41.0</ele><time>2026-04-24T05:17:22.999Z</time></trkpt><trkpt lat="-18.264575816107914" lon="122.38362410925855"><ele>41.0</ele><time>2026-04-24T05:17:23.999Z</time></trkpt><trkpt lat="-18.26449424534004" lon="122.38393399335557"><ele>40.5</ele><time>2026-04-24T05:17:24.999Z</time></trkpt><trkpt lat="-18.264414166070612" lon="122.38424152821604"><ele>40.0</ele><time>2026-04-24T05:17:25.999Z</time></trkpt><trkpt lat="-18.26433580338816" lon="122.38454807341263"><ele>40.0</ele><time>2026-04-24T05:17:26.999Z</time></trkpt><trkpt lat="-18.264253177515677" lon="122.38485387941621"><ele>40.0</ele><time>2026-04-24T05:17:28Z</time></trkpt><trkpt lat="-18.26416650691836" lon="122.38515884112853"><ele>40.0</ele><time>2026-04-24T05:17:29Z</time></trkpt><trkpt lat="-18.264081656484795" lon="122.38546117868195"><ele>40.0</ele><time>2026-04-24T05:17:30Z</time></trkpt><trkpt lat="-18.263996985174288" lon="122.38576548039008"><ele>39.5</ele><time>2026-04-24T05:17:31Z</time></trkpt><trkpt lat="-18.263917076422853" lon="122.38606943645665"><ele>39.0</ele><time>2026-04-24T05:17:32Z</time></trkpt><trkpt lat="-18.263839920593618" lon="122.38637083538264"><ele>39.0</ele><time>2026-04-24T05:17:33Z</time></trkpt><trkpt lat="-18.26376078465841" lon="122.38667579562934"><ele>39.0</ele><time>2026-04-24T05:17:34Z</time></trkpt><trkpt lat="-18.263678355486537" lon="122.38698274357984"><ele>39.0</ele><time>2026-04-24T05:17:35Z</time></trkpt><trkpt lat="-18.263593318999952" lon="122.38729299633924"><ele>39.0</ele><time>2026-04-24T05:17:36Z</time></trkpt><trkpt lat="-18.26351090013927" lon="122.38760478799033"><ele>39.0</ele><time>2026-04-24T05:17:37Z</time></trkpt><trkpt lat="-18.263426227077286" lon="122.38792275593981"><ele>39.0</ele><time>2026-04-24T05:17:38Z</time></trkpt><trkpt lat="-18.263344042000234" lon="122.38824104384712"><ele>39.0</ele><time>2026-04-24T05:17:39Z</time></trkpt><trkpt lat="-18.263260499588846" lon="122.38855831422333"><ele>39.0</ele><time>2026-04-24T05:17:40Z</time></trkpt><trkpt lat="-18.263176484256615" lon="122.38886791288735"><ele>38.0</ele><time>2026-04-24T05:17:41Z</time></trkpt><trkpt lat="-18.263092017475575" lon="122.38916938802853"><ele>37.0</ele><time>2026-04-24T05:17:42Z</time></trkpt><trkpt lat="-18.263011250373324" lon="122.38947212757192"><ele>37.0</ele><time>2026-04-24T05:17:43Z</time></trkpt><trkpt lat="-18.262932119946505" lon="122.38978937448238"><ele>37.0</ele><time>2026-04-24T05:17:44Z</time></trkpt><trkpt lat="-18.262851779540078" lon="122.39011456737924"><ele>37.0</ele><time>2026-04-24T05:17:45Z</time></trkpt><trkpt lat="-18.262767059197934" lon="122.3904416340261"><ele>37.0</ele><time>2026-04-24T05:17:46Z</time></trkpt><trkpt lat="-18.262681109236222" lon="122.39075862367534"><ele>36.5</ele><time>2026-04-24T05:17:47Z</time></trkpt><trkpt lat="-18.26258798109225" lon="122.39106813213934"><ele>36.0</ele><time>2026-04-24T05:17:48Z</time></trkpt><trkpt lat="-18.262494022646766" lon="122.39137524425651"><ele>36.0</ele><time>2026-04-24T05:17:49Z</time></trkpt><trkpt lat="-18.262404213866667" lon="122.39168408764259"><ele>36.0</ele><time>2026-04-24T05:17:50Z</time></trkpt><trkpt lat="-18.262321131888157" lon="122.39198948516425"><ele>34.5</ele><time>2026-04-24T05:17:51Z</time></trkpt><trkpt lat="-18.26224055653958" lon="122.39229648099469"><ele>33.0</ele><time>2026-04-24T05:17:52Z</time></trkpt><trkpt lat="-18.262164373581655" lon="122.39261170581497"><ele>33.0</ele><time>2026-04-24T05:17:53Z</time></trkpt><trkpt lat="-18.262093397216262" lon="122.39292843295478"><ele>33.0</ele><time>2026-04-24T05:17:54Z</time></trkpt><trkpt lat="-18.262021431503857" lon="122.39324039774715"><ele>32.0</ele><time>2026-04-24T05:17:55Z</time></trkpt><trkpt lat="-18.261940014951254" lon="122.39354161450599"><ele>31.0</ele><time>2026-04-24T05:17:56Z</time></trkpt><trkpt lat="-18.261846055311942" lon="122.39383365144471"><ele>31.5</ele><time>2026-04-24T05:17:57Z</time></trkpt><trkpt lat="-18.261752515943968" lon="122.39412832469098"><ele>32.0</ele><time>2026-04-24T05:17:58Z</time></trkpt><trkpt lat="-18.2616666743895" lon="122.39441921056643"><ele>31.5</ele><time>2026-04-24T05:17:59Z</time></trkpt><trkpt lat="-18.261586244108084" lon="122.39471441418608"><ele>31.0</ele><time>2026-04-24T05:18:00Z</time></trkpt><trkpt lat="-18.261510388511425" lon="122.39501381070932"><ele>31.5</ele><time>2026-04-24T05:18:01Z</time></trkpt><trkpt lat="-18.26143268494442" lon="122.39531680717359"><ele>32.0</ele><time>2026-04-24T05:18:02Z</time></trkpt><trkpt lat="-18.26134958734768" lon="122.39562107285391"><ele>30.5</ele><time>2026-04-24T05:18:03Z</time></trkpt><trkpt lat="-18.261264476857765" lon="122.39592685662046"><ele>29.0</ele><time>2026-04-24T05:18:04Z</time></trkpt><trkpt lat="-18.2611818881565" lon="122.39623396103524"><ele>29.5</ele><time>2026-04-24T05:18:05Z</time></trkpt><trkpt lat="-18.261099800626948" lon="122.39653767036222"><ele>30.0</ele><time>2026-04-24T05:18:06Z</time></trkpt><trkpt lat="-18.261015943160942" lon="122.39683985376882"><ele>30.0</ele><time>2026-04-24T05:18:07Z</time></trkpt><trkpt lat="-18.2609297115843" lon="122.39713852873409"><ele>30.0</ele><time>2026-04-24T05:18:08Z</time></trkpt><trkpt lat="-18.260843860912967" lon="122.39743737832228"><ele>30.0</ele><time>2026-04-24T05:18:09Z</time></trkpt><trkpt lat="-18.26076515104559" lon="122.39773457613781"><ele>30.0</ele><time>2026-04-24T05:18:10Z</time></trkpt><trkpt lat="-18.260686147015612" lon="122.39803245074118"><ele>28.0</ele><time>2026-04-24T05:18:11Z</time></trkpt><trkpt lat="-18.260603746442023" lon="122.39833423167173"><ele>26.0</ele><time>2026-04-24T05:18:12Z</time></trkpt><trkpt lat="-18.26051439147499" lon="122.39863452021942"><ele>26.0</ele><time>2026-04-24T05:18:13Z</time></trkpt><trkpt lat="-18.260415797107427" lon="122.39893356422047"><ele>26.0</ele><time>2026-04-24T05:18:14Z</time></trkpt><trkpt lat="-18.2603108597282" lon="122.39923304880799"><ele>26.0</ele><time>2026-04-24T05:18:15Z</time></trkpt><trkpt lat="-18.26020209848471" lon="122.3995306704313"><ele>26.0</ele><time>2026-04-24T05:18:16Z</time></trkpt><trkpt lat="-18.260087733847413" lon="122.39982686946321"><ele>27.0</ele><time>2026-04-24T05:18:17Z</time></trkpt><trkpt lat="-18.25996772141915" lon="122.40012172886084"><ele>28.0</ele><time>2026-04-24T05:18:18Z</time></trkpt><trkpt lat="-18.259841110303842" lon="122.40041215955624"><ele>27.5</ele><time>2026-04-24T05:18:19Z</time></trkpt><trkpt lat="-18.259708289656373" lon="122.40070624267382"><ele>27.0</ele><time>2026-04-24T05:18:20Z</time></trkpt><trkpt lat="-18.259570755670005" lon="122.40099755092753"><ele>27.0</ele><time>2026-04-24T05:18:21Z</time></trkpt><trkpt lat="-18.259429268444386" lon="122.40128467373245"><ele>27.0</ele><time>2026-04-24T05:18:22Z</time></trkpt><trkpt lat="-18.259288260028185" lon="122.40156463986935"><ele>28.0</ele><time>2026-04-24T05:18:23Z</time></trkpt><trkpt lat="-18.25913919142166" lon="122.40184046672728"><ele>29.0</ele><time>2026-04-24T05:18:24Z</time></trkpt><trkpt lat="-18.258984929706973" lon="122.402115050254"><ele>28.5</ele><time>2026-04-24T05:18:25Z</time></trkpt><trkpt lat="-18.25882608788234" lon="122.40238884357305"><ele>28.0</ele><time>2026-04-24T05:18:26Z</time></trkpt><trkpt lat="-18.258662680893515" lon="122.40265791028726"><ele>28.0</ele><time>2026-04-24T05:18:27Z</time></trkpt><trkpt lat="-18.25849074355977" lon="122.40292593341064"><ele>28.0</ele><time>2026-04-24T05:18:28Z</time></trkpt><trkpt lat="-18.258316194251016" lon="122.40319016683041"><ele>28.0</ele><time>2026-04-24T05:18:29Z</time></trkpt><trkpt lat="-18.258134230918483" lon="122.40345011530276"><ele>28.0</ele><time>2026-04-24T05:18:30Z</time></trkpt><trkpt lat="-18.257947379252286" lon="122.40370901107353"><ele>26.5</ele><time>2026-04-24T05:18:31Z</time></trkpt><trkpt lat="-18.257755075915675" lon="122.40396467564472"><ele>25.0</ele><time>2026-04-24T05:18:32Z</time></trkpt><trkpt lat="-18.25756093667062" lon="122.40421731252663"><ele>25.0</ele><time>2026-04-24T05:18:33Z</time></trkpt><trkpt lat="-18.257364096574573" lon="122.40446676009158"><ele>25.0</ele><time>2026-04-24T05:18:34Z</time></trkpt><trkpt lat="-18.257160382575805" lon="122.40470698091342"><ele>25.5</ele><time>2026-04-24T05:18:35Z</time></trkpt><trkpt lat="-18.25695264743485" lon="122.40494252408436"><ele>26.0</ele><time>2026-04-24T05:18:36Z</time></trkpt><trkpt lat="-18.25674613273772" lon="122.40517634353724"><ele>26.0</ele><time>2026-04-24T05:18:37Z</time></trkpt><trkpt lat="-18.25654071332696" lon="122.40541523498331"><ele>26.0</ele><time>2026-04-24T05:18:38Z</time></trkpt><trkpt lat="-18.256341242553304" lon="122.40565403580118"><ele>26.0</ele><time>2026-04-24T05:18:39Z</time></trkpt><trkpt lat="-18.25614245593279" lon="122.40588972772157"><ele>26.0</ele><time>2026-04-24T05:18:40Z</time></trkpt><trkpt lat="-18.25594488165523" lon="122.40612366180059"><ele>25.5</ele><time>2026-04-24T05:18:41Z</time></trkpt><trkpt lat="-18.255750488466852" lon="122.40635362041391"><ele>25.0</ele><time>2026-04-24T05:18:42Z</time></trkpt><trkpt lat="-18.25555587725274" lon="122.40657918267547"><ele>25.0</ele><time>2026-04-24T05:18:43Z</time></trkpt><trkpt lat="-18.25536148804992" lon="122.40680340381577"><ele>25.0</ele><time>2026-04-24T05:18:44Z</time></trkpt><trkpt lat="-18.255165995158002" lon="122.40702874724951"><ele>25.0</ele><time>2026-04-24T05:18:45Z</time></trkpt><trkpt lat="-18.25496866923883" lon="122.40725365505165"><ele>25.0</ele><time>2026-04-24T05:18:46Z</time></trkpt><trkpt lat="-18.25477125385553" lon="122.4074844592309"><ele>25.0</ele><time>2026-04-24T05:18:47Z</time></trkpt><trkpt lat="-18.254572985939237" lon="122.40771644064979"><ele>25.0</ele><time>2026-04-24T05:18:48Z</time></trkpt><trkpt lat="-18.25437236281552" lon="122.4079518388968"><ele>25.0</ele><time>2026-04-24T05:18:49Z</time></trkpt><trkpt lat="-18.254177027949083" lon="122.40818123503327"><ele>25.0</ele><time>2026-04-24T05:18:50Z</time></trkpt><trkpt lat="-18.253996178785783" lon="122.40839297630782"><ele>24.5</ele><time>2026-04-24T05:18:51Z</time></trkpt><trkpt lat="-18.253822838757767" lon="122.40859942495712"><ele>24.0</ele><time>2026-04-24T05:18:52Z</time></trkpt><trkpt lat="-18.2536423129368" lon="122.40881093274686"><ele>23.5</ele><time>2026-04-24T05:18:53Z</time></trkpt><trkpt lat="-18.25345968529707" lon="122.40902542766014"><ele>23.0</ele><time>2026-04-24T05:18:54Z</time></trkpt><trkpt lat="-18.253277051454145" lon="122.40924286110327"><ele>24.0</ele><time>2026-04-24T05:18:55Z</time></trkpt><trkpt lat="-18.2530918987331" lon="122.4094630113834"><ele>25.0</ele><time>2026-04-24T05:18:56Z</time></trkpt><trkpt lat="-18.25290556205963" lon="122.4096837471632"><ele>25.0</ele><time>2026-04-24T05:18:57Z</time></trkpt><trkpt lat="-18.25271963649713" lon="122.40990488766741"><ele>25.0</ele><time>2026-04-24T05:18:58Z</time></trkpt><trkpt lat="-18.252532793377952" lon="122.41012506753053"><ele>25.0</ele><time>2026-04-24T05:18:59Z</time></trkpt><trkpt lat="-18.252346341225422" lon="122.41034445214252"><ele>25.0</ele><time>2026-04-24T05:19:00Z</time></trkpt><trkpt lat="-18.252156865298165" lon="122.41056472782626"><ele>25.5</ele><time>2026-04-24T05:19:01Z</time></trkpt><trkpt lat="-18.25196881878025" lon="122.41078488537941"><ele>26.0</ele><time>2026-04-24T05:19:02Z</time></trkpt><trkpt lat="-18.25178233485246" lon="122.4110069937407"><ele>26.0</ele><time>2026-04-24T05:19:03Z</time></trkpt><trkpt lat="-18.251597203971645" lon="122.41122891373185"><ele>26.0</ele><time>2026-04-24T05:19:04Z</time></trkpt><trkpt lat="-18.251408939444577" lon="122.4114515734874"><ele>25.5</ele><time>2026-04-24T05:19:05Z</time></trkpt><trkpt lat="-18.251216756972607" lon="122.41167142077671"><ele>25.0</ele><time>2026-04-24T05:19:06Z</time></trkpt><trkpt lat="-18.251023863634476" lon="122.4118934914427"><ele>25.0</ele><time>2026-04-24T05:19:07Z</time></trkpt><trkpt lat="-18.25082936052584" lon="122.4121198708683"><ele>25.0</ele><time>2026-04-24T05:19:08Z</time></trkpt><trkpt lat="-18.250638836036543" lon="122.41234800843533"><ele>26.0</ele><time>2026-04-24T05:19:09Z</time></trkpt><trkpt lat="-18.250445009373976" lon="122.41257705154825"><ele>27.0</ele><time>2026-04-24T05:19:10Z</time></trkpt><trkpt lat="-18.250250167272092" lon="122.41280693204371"><ele>26.0</ele><time>2026-04-24T05:19:11Z</time></trkpt><trkpt lat="-18.250053432524336" lon="122.41303824187185"><ele>25.0</ele><time>2026-04-24T05:19:12Z</time></trkpt><trkpt lat="-18.249857007861507" lon="122.41326741065532"><ele>26.5</ele><time>2026-04-24T05:19:13Z</time></trkpt><trkpt lat="-18.249659154804196" lon="122.41349828454693"><ele>28.0</ele><time>2026-04-24T05:19:14Z</time></trkpt><trkpt lat="-18.24945842804294" lon="122.41372844712113"><ele>28.0</ele><time>2026-04-24T05:19:15Z</time></trkpt><trkpt lat="-18.24925766583837" lon="122.41395977146891"><ele>28.0</ele><time>2026-04-24T05:19:16Z</time></trkpt><trkpt lat="-18.249057011537328" lon="122.41419114700328"><ele>28.5</ele><time>2026-04-24T05:19:17Z</time></trkpt><trkpt lat="-18.24885487934828" lon="122.41442440785396"><ele>29.0</ele><time>2026-04-24T05:19:18Z</time></trkpt><trkpt lat="-18.248655859189125" lon="122.41465998535777"><ele>29.0</ele><time>2026-04-24T05:19:19Z</time></trkpt><trkpt lat="-18.248457870259784" lon="122.41489851632386"><ele>29.0</ele><time>2026-04-24T05:19:20Z</time></trkpt><trkpt lat="-18.24825833866958" lon="122.41514059072057"><ele>29.5</ele><time>2026-04-24T05:19:21Z</time></trkpt><trkpt lat="-18.24805851021707" lon="122.41538071851467"><ele>30.0</ele><time>2026-04-24T05:19:22Z</time></trkpt><trkpt lat="-18.24785551307955" lon="122.41561661748013"><ele>30.0</ele><time>2026-04-24T05:19:23Z</time></trkpt><trkpt lat="-18.247649197756296" lon="122.41585041169989"><ele>30.0</ele><time>2026-04-24T05:19:24Z</time></trkpt><trkpt lat="-18.247446024183297" lon="122.4160831724844"><ele>31.0</ele><time>2026-04-24T05:19:25Z</time></trkpt><trkpt lat="-18.247242063063243" lon="122.4163169428484"><ele>32.0</ele><time>2026-04-24T05:19:26Z</time></trkpt><trkpt lat="-18.24704287327938" lon="122.41655071989402"><ele>32.0</ele><time>2026-04-24T05:19:27Z</time></trkpt><trkpt lat="-18.246846516298323" lon="122.41678288062093"><ele>32.0</ele><time>2026-04-24T05:19:28Z</time></trkpt><trkpt lat="-18.246650009655944" lon="122.41701966624976"><ele>34.5</ele><time>2026-04-24T05:19:29Z</time></trkpt><trkpt lat="-18.246455331938886" lon="122.41725806906874"><ele>37.0</ele><time>2026-04-24T05:19:30Z</time></trkpt><trkpt lat="-18.246258038928996" lon="122.41749633114293"><ele>37.0</ele><time>2026-04-24T05:19:31Z</time></trkpt><trkpt lat="-18.246059397140943" lon="122.4177338872387"><ele>37.0</ele><time>2026-04-24T05:19:32Z</time></trkpt><trkpt lat="-18.245855374969796" lon="122.41797032775217"><ele>36.0</ele><time>2026-04-24T05:19:33Z</time></trkpt><trkpt lat="-18.24564798135512" lon="122.4182051019917"><ele>35.0</ele><time>2026-04-24T05:19:34Z</time></trkpt><trkpt lat="-18.24544034249488" lon="122.41844142551719"><ele>34.5</ele><time>2026-04-24T05:19:35Z</time></trkpt><trkpt lat="-18.245235583173592" lon="122.41867834373039"><ele>34.0</ele><time>2026-04-24T05:19:36Z</time></trkpt><trkpt lat="-18.245030987558" lon="122.41891769872838"><ele>35.0</ele><time>2026-04-24T05:19:37Z</time></trkpt><trkpt lat="-18.244825403096122" lon="122.41915817091127"><ele>36.0</ele><time>2026-04-24T05:19:38Z</time></trkpt><trkpt lat="-18.244620931795534" lon="122.4193940630904"><ele>34.5</ele><time>2026-04-24T05:19:39Z</time></trkpt><trkpt lat="-18.244418687920408" lon="122.41962839793563"><ele>33.0</ele><time>2026-04-24T05:19:40Z</time></trkpt><trkpt lat="-18.244215079730857" lon="122.41986174626007"><ele>33.0</ele><time>2026-04-24T05:19:41Z</time></trkpt><trkpt lat="-18.244014284095943" lon="122.42009478200409"><ele>33.0</ele><time>2026-04-24T05:19:42Z</time></trkpt><trkpt lat="-18.24381364847295" lon="122.4203299016983"><ele>32.5</ele><time>2026-04-24T05:19:43Z</time></trkpt><trkpt lat="-18.243613848998045" lon="122.42056677639191"><ele>32.0</ele><time>2026-04-24T05:19:44Z</time></trkpt><trkpt lat="-18.24341367235476" lon="122.42080323935458"><ele>32.0</ele><time>2026-04-24T05:19:45Z</time></trkpt><trkpt lat="-18.243214033023367" lon="122.42103955420517"><ele>32.0</ele><time>2026-04-24T05:19:46Z</time></trkpt><trkpt lat="-18.24301239389022" lon="122.42127536152024"><ele>33.0</ele><time>2026-04-24T05:19:47Z</time></trkpt><trkpt lat="-18.242807569144222" lon="122.42151392211382"><ele>34.0</ele><time>2026-04-24T05:19:48Z</time></trkpt><trkpt lat="-18.24260383743484" lon="122.4217520469618"><ele>34.0</ele><time>2026-04-24T05:19:49Z</time></trkpt><trkpt lat="-18.242400741492176" lon="122.42199005804787"><ele>34.0</ele><time>2026-04-24T05:19:50Z</time></trkpt><trkpt lat="-18.242197789890326" lon="122.42223128925386"><ele>34.5</ele><time>2026-04-24T05:19:51Z</time></trkpt><trkpt lat="-18.24199267461177" lon="122.42247477416306"><ele>35.0</ele><time>2026-04-24T05:19:52Z</time></trkpt><trkpt lat="-18.24178572392938" lon="122.42271733578241"><ele>35.0</ele><time>2026-04-24T05:19:53Z</time></trkpt><trkpt lat="-18.2415777942465" lon="122.42296011813598"><ele>35.0</ele><time>2026-04-24T05:19:54Z</time></trkpt><trkpt lat="-18.241369347090313" lon="122.42320387702298"><ele>34.5</ele><time>2026-04-24T05:19:55Z</time></trkpt><trkpt lat="-18.241159908621107" lon="122.42345103661047"><ele>34.0</ele><time>2026-04-24T05:19:56Z</time></trkpt><trkpt lat="-18.240951095089216" lon="122.42369943875804"><ele>34.0</ele><time>2026-04-24T05:19:57Z</time></trkpt><trkpt lat="-18.24073937077366" lon="122.42394558814152"><ele>34.0</ele><time>2026-04-24T05:19:58Z</time></trkpt><trkpt lat="-18.240532710993328" lon="122.42418515846381"><ele>34.0</ele><time>2026-04-24T05:19:59Z</time></trkpt><trkpt lat="-18.240338387532137" lon="122.4244121973013"><ele>34.0</ele><time>2026-04-24T05:20:00Z</time></trkpt><trkpt lat="-18.240160168069348" lon="122.42462083178236"><ele>33.5</ele><time>2026-04-24T05:20:01Z</time></trkpt><trkpt lat="-18.239980764771282" lon="122.42482294560823"><ele>33.0</ele><time>2026-04-24T05:20:02Z</time></trkpt><trkpt lat="-18.23979942338373" lon="122.42503504092046"><ele>33.0</ele><time>2026-04-24T05:20:03Z</time></trkpt><trkpt lat="-18.239619759863405" lon="122.42525199723025"><ele>33.0</ele><time>2026-04-24T05:20:04Z</time></trkpt><trkpt lat="-18.239436568817666" lon="122.42547072061559"><ele>33.0</ele><time>2026-04-24T05:20:05Z</time></trkpt><trkpt lat="-18.23925134992323" lon="122.42568998377185"><ele>33.0</ele><time>2026-04-24T05:20:06Z</time></trkpt><trkpt lat="-18.239060493939796" lon="122.42591049887433"><ele>32.5</ele><time>2026-04-24T05:20:07Z</time></trkpt><trkpt lat="-18.238867096388443" lon="122.42613406051046"><ele>32.0</ele><time>2026-04-24T05:20:08Z</time></trkpt><trkpt lat="-18.238672089795116" lon="122.42635713595402"><ele>33.0</ele><time>2026-04-24T05:20:09Z</time></trkpt><trkpt lat="-18.238475212859875" lon="122.42658439370541"><ele>34.0</ele><time>2026-04-24T05:20:10Z</time></trkpt><trkpt lat="-18.238277011058212" lon="122.4268179626415"><ele>34.0</ele><time>2026-04-24T05:20:11Z</time></trkpt><trkpt lat="-18.238079641976917" lon="122.42705146179986"><ele>34.0</ele><time>2026-04-24T05:20:12Z</time></trkpt><trkpt lat="-18.237880388177594" lon="122.427282512446"><ele>35.0</ele><time>2026-04-24T05:20:13Z</time></trkpt><trkpt lat="-18.237478992561307" lon="122.42775245991018"><ele>34.0</ele><time>2026-04-24T05:20:15Z</time></trkpt><trkpt lat="-18.237283661429835" lon="122.42798732153446"><ele>33.0</ele><time>2026-04-24T05:20:16Z</time></trkpt><trkpt lat="-18.237086889772513" lon="122.4282226437931"><ele>33.0</ele><time>2026-04-24T05:20:17Z</time></trkpt><trkpt lat="-18.23688583238125" lon="122.4284555453582"><ele>33.0</ele><time>2026-04-24T05:20:18Z</time></trkpt><trkpt lat="-18.23668543793937" lon="122.42868918869728"><ele>33.5</ele><time>2026-04-24T05:20:19Z</time></trkpt><trkpt lat="-18.23648515128393" lon="122.42892436144697"><ele>34.0</ele><time>2026-04-24T05:20:20Z</time></trkpt><trkpt lat="-18.236287519305588" lon="122.42915892283592"><ele>34.5</ele><time>2026-04-24T05:20:21Z</time></trkpt><trkpt lat="-18.236089691183235" lon="122.4293953077983"><ele>35.0</ele><time>2026-04-24T05:20:22Z</time></trkpt><trkpt lat="-18.235889196607523" lon="122.42962933726872"><ele>35.5</ele><time>2026-04-24T05:20:23Z</time></trkpt><trkpt lat="-18.235686610957792" lon="122.42986164478367"><ele>36.0</ele><time>2026-04-24T05:20:24Z</time></trkpt><trkpt lat="-18.235485934157385" lon="122.43009400620755"><ele>36.0</ele><time>2026-04-24T05:20:25Z</time></trkpt><trkpt lat="-18.23528865949658" lon="122.43032761100046"><ele>36.0</ele><time>2026-04-24T05:20:26Z</time></trkpt><trkpt lat="-18.235092266563086" lon="122.43055761560649"><ele>36.0</ele><time>2026-04-24T05:20:27Z</time></trkpt><trkpt lat="-18.23489407242837" lon="122.43078523477432"><ele>36.0</ele><time>2026-04-24T05:20:28Z</time></trkpt><trkpt lat="-18.234695387332547" lon="122.43101076238084"><ele>37.0</ele><time>2026-04-24T05:20:29Z</time></trkpt><trkpt lat="-18.2344986395645" lon="122.43124185445707"><ele>38.0</ele><time>2026-04-24T05:20:30Z</time></trkpt><trkpt lat="-18.23430162358361" lon="122.43147654603519"><ele>38.0</ele><time>2026-04-24T05:20:31Z</time></trkpt><trkpt lat="-18.234107393759693" lon="122.43170490996324"><ele>38.0</ele><time>2026-04-24T05:20:32Z</time></trkpt><trkpt lat="-18.23391210915832" lon="122.43193536824535"><ele>37.0</ele><time>2026-04-24T05:20:33Z</time></trkpt><trkpt lat="-18.233719081289788" lon="122.4321647861127"><ele>36.0</ele><time>2026-04-24T05:20:34Z</time></trkpt><trkpt lat="-18.233527715277926" lon="122.43239186104545"><ele>36.0</ele><time>2026-04-24T05:20:35Z</time></trkpt><trkpt lat="-18.23333712978597" lon="122.43261445092136"><ele>36.0</ele><time>2026-04-24T05:20:36Z</time></trkpt><trkpt lat="-18.233144896911202" lon="122.43283710884452"><ele>36.0</ele><time>2026-04-24T05:20:37Z</time></trkpt><trkpt lat="-18.23295595579685" lon="122.43306158830592"><ele>36.0</ele><time>2026-04-24T05:20:38Z</time></trkpt><trkpt lat="-18.23276627038395" lon="122.43328655755874"><ele>36.0</ele><time>2026-04-24T05:20:39Z</time></trkpt><trkpt lat="-18.232570857753505" lon="122.43351315999082"><ele>36.0</ele><time>2026-04-24T05:20:40Z</time></trkpt><trkpt lat="-18.232375481832094" lon="122.43373984294975"><ele>36.5</ele><time>2026-04-24T05:20:41Z</time></trkpt><trkpt lat="-18.232175828636063" lon="122.43396842370541"><ele>37.0</ele><time>2026-04-24T05:20:42Z</time></trkpt><trkpt lat="-18.231978326663956" lon="122.43420160992056"><ele>37.0</ele><time>2026-04-24T05:20:43Z</time></trkpt><trkpt lat="-18.23177952796839" lon="122.43443687091002"><ele>37.0</ele><time>2026-04-24T05:20:44Z</time></trkpt><trkpt lat="-18.231578137289965" lon="122.43467248091673"><ele>37.5</ele><time>2026-04-24T05:20:45Z</time></trkpt><trkpt lat="-18.231375275506622" lon="122.43490742506265"><ele>38.0</ele><time>2026-04-24T05:20:46Z</time></trkpt><trkpt lat="-18.23117253954258" lon="122.4351441724693"><ele>38.0</ele><time>2026-04-24T05:20:47Z</time></trkpt><trkpt lat="-18.230970546612774" lon="122.43538438326547"><ele>38.0</ele><time>2026-04-24T05:20:48Z</time></trkpt><trkpt lat="-18.23076827116553" lon="122.43562534331451"><ele>38.0</ele><time>2026-04-24T05:20:49Z</time></trkpt><trkpt lat="-18.23056396976342" lon="122.43586657035732"><ele>38.0</ele><time>2026-04-24T05:20:50Z</time></trkpt><trkpt lat="-18.230359835982355" lon="122.43610719596259"><ele>37.0</ele><time>2026-04-24T05:20:51Z</time></trkpt><trkpt lat="-18.23015189778575" lon="122.43635163679569"><ele>36.0</ele><time>2026-04-24T05:20:52Z</time></trkpt><trkpt lat="-18.22994244528914" lon="122.43659608406378"><ele>37.5</ele><time>2026-04-24T05:20:53Z</time></trkpt><trkpt lat="-18.22973358490035" lon="122.43684217196125"><ele>39.0</ele><time>2026-04-24T05:20:54Z</time></trkpt><trkpt lat="-18.2295217483581" lon="122.43708882854622"><ele>39.5</ele><time>2026-04-24T05:20:55Z</time></trkpt><trkpt lat="-18.229312179432203" lon="122.43733382170021"><ele>40.0</ele><time>2026-04-24T05:20:56Z</time></trkpt><trkpt lat="-18.22910306404666" lon="122.43757847572259"><ele>39.5</ele><time>2026-04-24T05:20:57Z</time></trkpt><trkpt lat="-18.22889766355594" lon="122.43782117907526"><ele>39.0</ele><time>2026-04-24T05:20:58Z</time></trkpt><trkpt lat="-18.228689017212485" lon="122.43806277477837"><ele>38.5</ele><time>2026-04-24T05:20:59Z</time></trkpt><trkpt lat="-18.228483028016857" lon="122.43830122126144"><ele>38.0</ele><time>2026-04-24T05:21:00Z</time></trkpt><trkpt lat="-18.22827814754481" lon="122.43854044045048"><ele>38.5</ele><time>2026-04-24T05:21:01Z</time></trkpt><trkpt lat="-18.228074293479906" lon="122.43877760191187"><ele>39.0</ele><time>2026-04-24T05:21:02Z</time></trkpt><trkpt lat="-18.22786987330531" lon="122.43901697972679"><ele>39.0</ele><time>2026-04-24T05:21:03Z</time></trkpt><trkpt lat="-18.22766830864367" lon="122.43925248990098"><ele>39.0</ele><time>2026-04-24T05:21:04Z</time></trkpt><trkpt lat="-18.227466808138796" lon="122.43948932221949"><ele>40.0</ele><time>2026-04-24T05:21:05Z</time></trkpt><trkpt lat="-18.2272655328435" lon="122.43972632125495"><ele>41.0</ele><time>2026-04-24T05:21:06.001Z</time></trkpt><trkpt lat="-18.2270666486746" lon="122.43996226846428"><ele>41.0</ele><time>2026-04-24T05:21:07.001Z</time></trkpt><trkpt lat="-18.226866783223578" lon="122.44019742156289"><ele>41.0</ele><time>2026-04-24T05:21:08.001Z</time></trkpt><trkpt lat="-18.22666604075998" lon="122.44043197251082"><ele>41.0</ele><time>2026-04-24T05:21:09.001Z</time></trkpt><trkpt lat="-18.226465531890966" lon="122.44066775264672"><ele>41.0</ele><time>2026-04-24T05:21:10.001Z</time></trkpt><trkpt lat="-18.226263942976544" lon="122.44090454074458"><ele>41.0</ele><time>2026-04-24T05:21:11.001Z</time></trkpt><trkpt lat="-18.22605841176642" lon="122.4411423038878"><ele>41.0</ele><time>2026-04-24T05:21:12.001Z</time></trkpt><trkpt lat="-18.225850109532765" lon="122.44138661326198"><ele>40.5</ele><time>2026-04-24T05:21:13.001Z</time></trkpt><trkpt lat="-18.225640567473697" lon="122.44163490638579"><ele>40.0</ele><time>2026-04-24T05:21:14.001Z</time></trkpt><trkpt lat="-18.22542907168888" lon="122.44188345269387"><ele>41.0</ele><time>2026-04-24T05:21:15.001Z</time></trkpt><trkpt lat="-18.22521774294417" lon="122.442131602246"><ele>42.0</ele><time>2026-04-24T05:21:16.001Z</time></trkpt><trkpt lat="-18.22500972085269" lon="122.44237670529579"><ele>42.5</ele><time>2026-04-24T05:21:17.001Z</time></trkpt><trkpt lat="-18.224805248149945" lon="122.4426202412909"><ele>43.0</ele><time>2026-04-24T05:21:18.001Z</time></trkpt><trkpt lat="-18.224599599371025" lon="122.44286207878355"><ele>42.5</ele><time>2026-04-24T05:21:19.001Z</time></trkpt><trkpt lat="-18.224390796879156" lon="122.44310666050448"><ele>42.0</ele><time>2026-04-24T05:21:20.001Z</time></trkpt><trkpt lat="-18.224181883903626" lon="122.4433510020107"><ele>42.5</ele><time>2026-04-24T05:21:21.001Z</time></trkpt><trkpt lat="-18.22397154423444" lon="122.44359635428575"><ele>43.0</ele><time>2026-04-24T05:21:22.001Z</time></trkpt><trkpt lat="-18.22376184096131" lon="122.44384047550751"><ele>43.5</ele><time>2026-04-24T05:21:23.001Z</time></trkpt><trkpt lat="-18.2235525880673" lon="122.44408666671326"><ele>44.0</ele><time>2026-04-24T05:21:24Z</time></trkpt><trkpt lat="-18.22334303155944" lon="122.44433398820821"><ele>44.5</ele><time>2026-04-24T05:21:25Z</time></trkpt><trkpt lat="-18.223133211159777" lon="122.44457927027176"><ele>45.0</ele><time>2026-04-24T05:21:26Z</time></trkpt><trkpt lat="-18.222921956370026" lon="122.44482188138811"><ele>45.0</ele><time>2026-04-24T05:21:27Z</time></trkpt><trkpt lat="-18.222711846414455" lon="122.44506452665779"><ele>45.0</ele><time>2026-04-24T05:21:28Z</time></trkpt><trkpt lat="-18.22250448584894" lon="122.44530579486158"><ele>45.5</ele><time>2026-04-24T05:21:29Z</time></trkpt><trkpt lat="-18.22229883378774" lon="122.44554608108594"><ele>46.0</ele><time>2026-04-24T05:21:30Z</time></trkpt><trkpt lat="-18.22209927430466" lon="122.44578104884579"><ele>46.0</ele><time>2026-04-24T05:21:31Z</time></trkpt><trkpt lat="-18.22191446638003" lon="122.44599911678014"><ele>46.0</ele><time>2026-04-24T05:21:32Z</time></trkpt><trkpt lat="-18.22172912566929" lon="122.44621778040771"><ele>46.0</ele><time>2026-04-24T05:21:33Z</time></trkpt><trkpt lat="-18.221538399741448" lon="122.44644399620528"><ele>46.0</ele><time>2026-04-24T05:21:34Z</time></trkpt><trkpt lat="-18.22133913393971" lon="122.4466767768975"><ele>46.0</ele><time>2026-04-24T05:21:35Z</time></trkpt><trkpt lat="-18.22113573763523" lon="122.44691496122988"><ele>46.0</ele><time>2026-04-24T05:21:36Z</time></trkpt><trkpt lat="-18.220931283166948" lon="122.44715211818236"><ele>46.5</ele><time>2026-04-24T05:21:37Z</time></trkpt><trkpt lat="-18.220727291866016" lon="122.44738741071087"><ele>47.0</ele><time>2026-04-24T05:21:38Z</time></trkpt><trkpt lat="-18.220521695793735" lon="122.4476238306566"><ele>47.0</ele><time>2026-04-24T05:21:39Z</time></trkpt><trkpt lat="-18.22031610320595" lon="122.44786241291247"><ele>47.0</ele><time>2026-04-24T05:21:40Z</time></trkpt><trkpt lat="-18.22011395250508" lon="122.44809780391756"><ele>47.0</ele><time>2026-04-24T05:21:41Z</time></trkpt><trkpt lat="-18.219910384322315" lon="122.44833770713059"><ele>47.0</ele><time>2026-04-24T05:21:42Z</time></trkpt><trkpt lat="-18.21970724038692" lon="122.44858184611337"><ele>47.5</ele><time>2026-04-24T05:21:43Z</time></trkpt><trkpt lat="-18.219504430408996" lon="122.4488264086817"><ele>48.0</ele><time>2026-04-24T05:21:44Z</time></trkpt><trkpt lat="-18.21929942731364" lon="122.44906959889542"><ele>48.0</ele><time>2026-04-24T05:21:45Z</time></trkpt><trkpt lat="-18.21909455943004" lon="122.44930847350524"><ele>48.0</ele><time>2026-04-24T05:21:46Z</time></trkpt><trkpt lat="-18.218886207174858" lon="122.4495505103567"><ele>47.5</ele><time>2026-04-24T05:21:47Z</time></trkpt><trkpt lat="-18.21868324931398" lon="122.44979074448918"><ele>47.0</ele><time>2026-04-24T05:21:48Z</time></trkpt><trkpt lat="-18.21847942466336" lon="122.45003299654927"><ele>47.0</ele><time>2026-04-24T05:21:49Z</time></trkpt><trkpt lat="-18.218272177472723" lon="122.45027623415416"><ele>47.0</ele><time>2026-04-24T05:21:50Z</time></trkpt><trkpt lat="-18.218061996456242" lon="122.45052029445746"><ele>48.0</ele><time>2026-04-24T05:21:51Z</time></trkpt><trkpt lat="-18.217852126008832" lon="122.45076155844909"><ele>49.0</ele><time>2026-04-24T05:21:52Z</time></trkpt><trkpt lat="-18.217640948843748" lon="122.45100583953942"><ele>49.0</ele><time>2026-04-24T05:21:53Z</time></trkpt><trkpt lat="-18.21743109707229" lon="122.45125191188501"><ele>49.0</ele><time>2026-04-24T05:21:54Z</time></trkpt><trkpt lat="-18.21722266060369" lon="122.45150176914466"><ele>50.5</ele><time>2026-04-24T05:21:55Z</time></trkpt><trkpt lat="-18.217012184911198" lon="122.4517506265386"><ele>52.0</ele><time>2026-04-24T05:21:56Z</time></trkpt><trkpt lat="-18.216798505337895" lon="122.45199856563997"><ele>52.0</ele><time>2026-04-24T05:21:57Z</time></trkpt><trkpt lat="-18.21658963211216" lon="122.45224741589008"><ele>52.0</ele><time>2026-04-24T05:21:58Z</time></trkpt><trkpt lat="-18.216376843094782" lon="122.45249924093602"><ele>51.5</ele><time>2026-04-24T05:21:59Z</time></trkpt><trkpt lat="-18.216164555545934" lon="122.45274542748132"><ele>51.0</ele><time>2026-04-24T05:22:00Z</time></trkpt><trkpt lat="-18.215954049835734" lon="122.45299269399881"><ele>51.0</ele><time>2026-04-24T05:22:01Z</time></trkpt><trkpt lat="-18.21574425412168" lon="122.45323662442847"><ele>51.0</ele><time>2026-04-24T05:22:02Z</time></trkpt><trkpt lat="-18.215533698534998" lon="122.45347862358884"><ele>51.5</ele><time>2026-04-24T05:22:03Z</time></trkpt><trkpt lat="-18.215324363880043" lon="122.45372093392395"><ele>52.0</ele><time>2026-04-24T05:22:04Z</time></trkpt><trkpt lat="-18.215115171411334" lon="122.45396574080752"><ele>52.0</ele><time>2026-04-24T05:22:05Z</time></trkpt><trkpt lat="-18.214908851493732" lon="122.45421092701699"><ele>52.0</ele><time>2026-04-24T05:22:06Z</time></trkpt><trkpt lat="-18.214704210544475" lon="122.45445261656143"><ele>53.0</ele><time>2026-04-24T05:22:07Z</time></trkpt><trkpt lat="-18.21449973888132" lon="122.45469154296238"><ele>54.0</ele><time>2026-04-24T05:22:08Z</time></trkpt><trkpt lat="-18.21429638546012" lon="122.45493325507258"><ele>54.0</ele><time>2026-04-24T05:22:09Z</time></trkpt><trkpt lat="-18.21409265322668" lon="122.45517276058068"><ele>54.0</ele><time>2026-04-24T05:22:10Z</time></trkpt><trkpt lat="-18.21388749351161" lon="122.45541001439085"><ele>53.5</ele><time>2026-04-24T05:22:11Z</time></trkpt><trkpt lat="-18.213680493920382" lon="122.45564868588824"><ele>53.0</ele><time>2026-04-24T05:22:12Z</time></trkpt><trkpt lat="-18.21347427278295" lon="122.45588699812326"><ele>53.0</ele><time>2026-04-24T05:22:13Z</time></trkpt><trkpt lat="-18.21326769747589" lon="122.45612911192937"><ele>53.0</ele><time>2026-04-24T05:22:14Z</time></trkpt><trkpt lat="-18.213061179315893" lon="122.45637081060198"><ele>53.0</ele><time>2026-04-24T05:22:15Z</time></trkpt><trkpt lat="-18.212854474166754" lon="122.45661142706618"><ele>53.0</ele><time>2026-04-24T05:22:16Z</time></trkpt><trkpt lat="-18.212646592958627" lon="122.45685356685719"><ele>53.0</ele><time>2026-04-24T05:22:17Z</time></trkpt><trkpt lat="-18.212438258205506" lon="122.45709857998861"><ele>53.0</ele><time>2026-04-24T05:22:18Z</time></trkpt><trkpt lat="-18.212226446196407" lon="122.45734793522512"><ele>53.5</ele><time>2026-04-24T05:22:19Z</time></trkpt><trkpt lat="-18.21201034446997" lon="122.45759839621397"><ele>54.0</ele><time>2026-04-24T05:22:20Z</time></trkpt><trkpt lat="-18.211799217668517" lon="122.45785037620641"><ele>54.5</ele><time>2026-04-24T05:22:21Z</time></trkpt><trkpt lat="-18.21159004711079" lon="122.45810078621753"><ele>55.0</ele><time>2026-04-24T05:22:22Z</time></trkpt><trkpt lat="-18.21138106546378" lon="122.45834789420485"><ele>55.5</ele><time>2026-04-24T05:22:23Z</time></trkpt><trkpt lat="-18.211167435438803" lon="122.45859330876337"><ele>56.0</ele><time>2026-04-24T05:22:24Z</time></trkpt><trkpt lat="-18.210956497358815" lon="122.45884382549444"><ele>56.0</ele><time>2026-04-24T05:22:25Z</time></trkpt><trkpt lat="-18.210744102759726" lon="122.45909490799912"><ele>56.0</ele><time>2026-04-24T05:22:26Z</time></trkpt><trkpt lat="-18.21052875286196" lon="122.4593456477722"><ele>56.0</ele><time>2026-04-24T05:22:27Z</time></trkpt><trkpt lat="-18.210311298462702" lon="122.45959544168419"><ele>56.0</ele><time>2026-04-24T05:22:28Z</time></trkpt><trkpt lat="-18.21009593141505" lon="122.45984324903125"><ele>56.5</ele><time>2026-04-24T05:22:29Z</time></trkpt><trkpt lat="-18.20988564664821" lon="122.46008959898882"><ele>57.0</ele><time>2026-04-24T05:22:30Z</time></trkpt><trkpt lat="-18.209675396524887" lon="122.46033475447553"><ele>56.5</ele><time>2026-04-24T05:22:31Z</time></trkpt><trkpt lat="-18.209471275916222" lon="122.46057854319145"><ele>56.0</ele><time>2026-04-24T05:22:32Z</time></trkpt><trkpt lat="-18.209265569182204" lon="122.46082087273388"><ele>56.0</ele><time>2026-04-24T05:22:33Z</time></trkpt><trkpt lat="-18.20905958697408" lon="122.46105815455661"><ele>56.0</ele><time>2026-04-24T05:22:34Z</time></trkpt><trkpt lat="-18.20884969944681" lon="122.46129722301482"><ele>56.0</ele><time>2026-04-24T05:22:35Z</time></trkpt><trkpt lat="-18.208643956623632" lon="122.46153930778418"><ele>56.0</ele><time>2026-04-24T05:22:36Z</time></trkpt><trkpt lat="-18.208439791697398" lon="122.46178264819311"><ele>56.0</ele><time>2026-04-24T05:22:37Z</time></trkpt><trkpt lat="-18.208235775763516" lon="122.46202438728399"><ele>56.0</ele><time>2026-04-24T05:22:38Z</time></trkpt><trkpt lat="-18.2080312830133" lon="122.4622651843265"><ele>56.0</ele><time>2026-04-24T05:22:39Z</time></trkpt><trkpt lat="-18.20782640365876" lon="122.462508028011"><ele>56.0</ele><time>2026-04-24T05:22:40Z</time></trkpt><trkpt lat="-18.207620510126688" lon="122.46274929868355"><ele>56.5</ele><time>2026-04-24T05:22:41Z</time></trkpt><trkpt lat="-18.207413794808907" lon="122.46299077418027"><ele>57.0</ele><time>2026-04-24T05:22:42Z</time></trkpt><trkpt lat="-18.207204284937866" lon="122.46322996693151"><ele>57.0</ele><time>2026-04-24T05:22:43Z</time></trkpt><trkpt lat="-18.20699373960433" lon="122.46347461728547"><ele>57.0</ele><time>2026-04-24T05:22:44Z</time></trkpt><trkpt lat="-18.2067853327019" lon="122.46372437611231"><ele>57.0</ele><time>2026-04-24T05:22:45Z</time></trkpt><trkpt lat="-18.206575259711972" lon="122.46397571726415"><ele>57.0</ele><time>2026-04-24T05:22:46Z</time></trkpt><trkpt lat="-18.206361562101453" lon="122.46422707876306"><ele>57.0</ele><time>2026-04-24T05:22:47Z</time></trkpt><trkpt lat="-18.206147524891996" lon="122.4644758336452"><ele>57.0</ele><time>2026-04-24T05:22:48Z</time></trkpt><trkpt lat="-18.205933645136408" lon="122.4647278934686"><ele>57.5</ele><time>2026-04-24T05:22:49Z</time></trkpt><trkpt lat="-18.20571964006082" lon="122.46498039568188"><ele>58.0</ele><time>2026-04-24T05:22:50Z</time></trkpt><trkpt lat="-18.205507151224165" lon="122.46523280043736"><ele>57.0</ele><time>2026-04-24T05:22:51Z</time></trkpt><trkpt lat="-18.20529153935632" lon="122.46548170571879"><ele>56.0</ele><time>2026-04-24T05:22:52Z</time></trkpt><trkpt lat="-18.205075392931246" lon="122.46573283456364"><ele>56.0</ele><time>2026-04-24T05:22:53.001Z</time></trkpt><trkpt lat="-18.20485778204779" lon="122.46598327206662"><ele>56.0</ele><time>2026-04-24T05:22:54.001Z</time></trkpt><trkpt lat="-18.20463745556433" lon="122.46623802822045"><ele>57.0</ele><time>2026-04-24T05:22:55.001Z</time></trkpt><trkpt lat="-18.2044155477093" lon="122.46649790828852"><ele>58.0</ele><time>2026-04-24T05:22:56.001Z</time></trkpt><trkpt lat="-18.204197636116312" lon="122.46675625667693"><ele>58.0</ele><time>2026-04-24T05:22:57.001Z</time></trkpt><trkpt lat="-18.203980767508376" lon="122.46701332867615"><ele>58.0</ele><time>2026-04-24T05:22:58.001Z</time></trkpt><trkpt lat="-18.203765031189075" lon="122.46726996511006"><ele>57.5</ele><time>2026-04-24T05:22:59.001Z</time></trkpt><trkpt lat="-18.20354898892104" lon="122.46752510717074"><ele>57.0</ele><time>2026-04-24T05:23:00.001Z</time></trkpt><trkpt lat="-18.203331461588814" lon="122.46778124246485"><ele>56.5</ele><time>2026-04-24T05:23:01.001Z</time></trkpt><trkpt lat="-18.20310898734815" lon="122.46803567117142"><ele>56.0</ele><time>2026-04-24T05:23:02.001Z</time></trkpt><trkpt lat="-18.202884765566335" lon="122.46829269853889"><ele>56.0</ele><time>2026-04-24T05:23:03.001Z</time></trkpt><trkpt lat="-18.20266129533819" lon="122.46854834570772"><ele>56.0</ele><time>2026-04-24T05:23:04.001Z</time></trkpt><trkpt lat="-18.20245051050343" lon="122.46879892503112"><ele>56.0</ele><time>2026-04-24T05:23:05.001Z</time></trkpt><trkpt lat="-18.202244586204493" lon="122.46904273647155"><ele>56.0</ele><time>2026-04-24T05:23:06.001Z</time></trkpt><trkpt lat="-18.20204010104914" lon="122.46928431803647"><ele>56.0</ele><time>2026-04-24T05:23:07.001Z</time></trkpt><trkpt lat="-18.20183273653569" lon="122.46952375230653"><ele>56.0</ele><time>2026-04-24T05:23:08.001Z</time></trkpt><trkpt lat="-18.201629041077386" lon="122.469764440438"><ele>55.5</ele><time>2026-04-24T05:23:09.001Z</time></trkpt><trkpt lat="-18.20142441347882" lon="122.47000752897931"><ele>55.0</ele><time>2026-04-24T05:23:10.001Z</time></trkpt><trkpt lat="-18.20122216764676" lon="122.47024703671612"><ele>54.5</ele><time>2026-04-24T05:23:11.001Z</time></trkpt><trkpt lat="-18.20103176753139" lon="122.47046985044011"><ele>54.0</ele><time>2026-04-24T05:23:12.001Z</time></trkpt><trkpt lat="-18.20084654054049" lon="122.47068319692247"><ele>53.5</ele><time>2026-04-24T05:23:13.001Z</time></trkpt><trkpt lat="-18.20065723617217" lon="122.47090606946361"><ele>53.0</ele><time>2026-04-24T05:23:14.001Z</time></trkpt><trkpt lat="-18.200458991266757" lon="122.47113801589535"><ele>53.0</ele><time>2026-04-24T05:23:15.001Z</time></trkpt><trkpt lat="-18.20025789176746" lon="122.47137198101746"><ele>53.0</ele><time>2026-04-24T05:23:16.001Z</time></trkpt><trkpt lat="-18.200052098859924" lon="122.4716104725145"><ele>53.0</ele><time>2026-04-24T05:23:17.001Z</time></trkpt><trkpt lat="-18.19984635904875" lon="122.4718480171958"><ele>53.0</ele><time>2026-04-24T05:23:18.001Z</time></trkpt><trkpt lat="-18.19964216917355" lon="122.47208239014455"><ele>53.0</ele><time>2026-04-24T05:23:19.001Z</time></trkpt><trkpt lat="-18.199440127316485" lon="122.4723176239555"><ele>53.0</ele><time>2026-04-24T05:23:20.001Z</time></trkpt><trkpt lat="-18.199239422082382" lon="122.47255565591308"><ele>53.0</ele><time>2026-04-24T05:23:21.001Z</time></trkpt><trkpt lat="-18.199040697346888" lon="122.472790654598"><ele>53.0</ele><time>2026-04-24T05:23:22.001Z</time></trkpt><trkpt lat="-18.19884184126452" lon="122.47302467034716"><ele>52.5</ele><time>2026-04-24T05:23:23.001Z</time></trkpt><trkpt lat="-18.198641925441184" lon="122.47325885750314"><ele>52.0</ele><time>2026-04-24T05:23:24.001Z</time></trkpt><trkpt lat="-18.19844364155681" lon="122.47349073628124"><ele>52.0</ele><time>2026-04-24T05:23:25.001Z</time></trkpt><trkpt lat="-18.198246299765938" lon="122.47372298934782"><ele>52.0</ele><time>2026-04-24T05:23:26.001Z</time></trkpt><trkpt lat="-18.198050809737104" lon="122.47395444330189"><ele>52.5</ele><time>2026-04-24T05:23:27.001Z</time></trkpt><trkpt lat="-18.197853961751726" lon="122.47418531443893"><ele>53.0</ele><time>2026-04-24T05:23:28.001Z</time></trkpt><trkpt lat="-18.197656731942924" lon="122.47441825707375"><ele>53.5</ele><time>2026-04-24T05:23:29.001Z</time></trkpt><trkpt lat="-18.197459696146808" lon="122.47465119250664"><ele>54.0</ele><time>2026-04-24T05:23:30Z</time></trkpt><trkpt lat="-18.19726171890914" lon="122.47488651408898"><ele>54.0</ele><time>2026-04-24T05:23:31Z</time></trkpt><trkpt lat="-18.197063297888725" lon="122.47511885327813"><ele>54.0</ele><time>2026-04-24T05:23:32Z</time></trkpt><trkpt lat="-18.196866176324377" lon="122.47535415559311"><ele>54.0</ele><time>2026-04-24T05:23:33Z</time></trkpt><trkpt lat="-18.196667617816242" lon="122.47558632233464"><ele>54.0</ele><time>2026-04-24T05:23:34Z</time></trkpt><trkpt lat="-18.19646682620526" lon="122.47581932714922"><ele>54.5</ele><time>2026-04-24T05:23:35Z</time></trkpt><trkpt lat="-18.196266530013915" lon="122.47605414303747"><ele>55.0</ele><time>2026-04-24T05:23:36Z</time></trkpt><trkpt lat="-18.19606283412992" lon="122.4762903139293"><ele>54.0</ele><time>2026-04-24T05:23:37Z</time></trkpt><trkpt lat="-18.19586326602085" lon="122.47652640419376"><ele>53.0</ele><time>2026-04-24T05:23:38Z</time></trkpt><trkpt lat="-18.195662810185297" lon="122.4767596951304"><ele>53.0</ele><time>2026-04-24T05:23:39Z</time></trkpt><trkpt lat="-18.19546035174185" lon="122.47699416221505"><ele>53.0</ele><time>2026-04-24T05:23:40Z</time></trkpt><trkpt lat="-18.19525803228042" lon="122.47723120416231"><ele>53.5</ele><time>2026-04-24T05:23:41Z</time></trkpt><trkpt lat="-18.195056042081244" lon="122.4774694176447"><ele>54.0</ele><time>2026-04-24T05:23:42Z</time></trkpt><trkpt lat="-18.194855344837855" lon="122.47770791338748"><ele>54.0</ele><time>2026-04-24T05:23:43Z</time></trkpt><trkpt lat="-18.194652385220113" lon="122.47794373923503"><ele>54.0</ele><time>2026-04-24T05:23:44Z</time></trkpt><trkpt lat="-18.1944490986198" lon="122.47818129225782"><ele>54.0</ele><time>2026-04-24T05:23:45Z</time></trkpt><trkpt lat="-18.194248626054573" lon="122.47841903645511"><ele>54.0</ele><time>2026-04-24T05:23:46Z</time></trkpt><trkpt lat="-18.194046035575077" lon="122.47865710219612"><ele>55.5</ele><time>2026-04-24T05:23:47Z</time></trkpt><trkpt lat="-18.193843432860227" lon="122.47889538168495"><ele>57.0</ele><time>2026-04-24T05:23:48Z</time></trkpt><trkpt lat="-18.193639680789797" lon="122.47913378422047"><ele>57.0</ele><time>2026-04-24T05:23:49Z</time></trkpt><trkpt lat="-18.193433667609188" lon="122.4793750065407"><ele>57.0</ele><time>2026-04-24T05:23:50Z</time></trkpt><trkpt lat="-18.193227229321028" lon="122.47961594307522"><ele>57.0</ele><time>2026-04-24T05:23:51Z</time></trkpt><trkpt lat="-18.19302114912728" lon="122.4798560286639"><ele>57.0</ele><time>2026-04-24T05:23:52Z</time></trkpt><trkpt lat="-18.19281330198012" lon="122.48009265647724"><ele>57.0</ele><time>2026-04-24T05:23:53Z</time></trkpt><trkpt lat="-18.192607047185373" lon="122.48032843068941"><ele>57.0</ele><time>2026-04-24T05:23:54Z</time></trkpt><trkpt lat="-18.1924025099005" lon="122.48056609836372"><ele>56.5</ele><time>2026-04-24T05:23:55Z</time></trkpt><trkpt lat="-18.192199396101064" lon="122.4808058795062"><ele>56.0</ele><time>2026-04-24T05:23:56Z</time></trkpt><trkpt lat="-18.19199648610686" lon="122.48104847913719"><ele>56.5</ele><time>2026-04-24T05:23:57Z</time></trkpt><trkpt lat="-18.191793128132463" lon="122.48129306741464"><ele>57.0</ele><time>2026-04-24T05:23:58Z</time></trkpt><trkpt lat="-18.191588413970337" lon="122.48153604719651"><ele>57.5</ele><time>2026-04-24T05:23:59Z</time></trkpt><trkpt lat="-18.191382028463902" lon="122.48177918871276"><ele>58.0</ele><time>2026-04-24T05:24:00Z</time></trkpt><trkpt lat="-18.191175023384424" lon="122.48202264649132"><ele>58.5</ele><time>2026-04-24T05:24:01Z</time></trkpt><trkpt lat="-18.190967938847802" lon="122.48226715064206"><ele>59.0</ele><time>2026-04-24T05:24:02Z</time></trkpt><trkpt lat="-18.190756614212148" lon="122.48251154565277"><ele>59.0</ele><time>2026-04-24T05:24:03Z</time></trkpt><trkpt lat="-18.19054507049105" lon="122.48275622552049"><ele>59.0</ele><time>2026-04-24T05:24:04Z</time></trkpt><trkpt lat="-18.190332631970385" lon="122.48300198541833"><ele>59.0</ele><time>2026-04-24T05:24:05Z</time></trkpt><trkpt lat="-18.19012021030609" lon="122.48325005068818"><ele>59.0</ele><time>2026-04-24T05:24:06Z</time></trkpt><trkpt lat="-18.189904602573545" lon="122.48349879015558"><ele>59.0</ele><time>2026-04-24T05:24:07Z</time></trkpt><trkpt lat="-18.18969165475779" lon="122.48374749454072"><ele>59.0</ele><time>2026-04-24T05:24:08Z</time></trkpt><trkpt lat="-18.189477414846195" lon="122.48399809442382"><ele>59.0</ele><time>2026-04-24T05:24:09Z</time></trkpt><trkpt lat="-18.18926277545303" lon="122.48424721619138"><ele>59.0</ele><time>2026-04-24T05:24:10Z</time></trkpt><trkpt lat="-18.189048513865764" lon="122.48449341281811"><ele>59.5</ele><time>2026-04-24T05:24:11Z</time></trkpt><trkpt lat="-18.18883905941822" lon="122.4847398028458"><ele>60.0</ele><time>2026-04-24T05:24:12Z</time></trkpt><trkpt lat="-18.18863281728724" lon="122.48498414429773"><ele>60.0</ele><time>2026-04-24T05:24:13Z</time></trkpt><trkpt lat="-18.188427008299676" lon="122.48522740777034"><ele>60.0</ele><time>2026-04-24T05:24:14Z</time></trkpt><trkpt lat="-18.18821880032045" lon="122.48546978719821"><ele>61.0</ele><time>2026-04-24T05:24:15Z</time></trkpt><trkpt lat="-18.18801087027267" lon="122.48571099210828"><ele>62.0</ele><time>2026-04-24T05:24:16Z</time></trkpt><trkpt lat="-18.18780428569719" lon="122.48595047692952"><ele>62.0</ele><time>2026-04-24T05:24:17Z</time></trkpt><trkpt lat="-18.187601071023376" lon="122.48618937596463"><ele>62.0</ele><time>2026-04-24T05:24:18Z</time></trkpt><trkpt lat="-18.187396511429917" lon="122.48643093278976"><ele>61.0</ele><time>2026-04-24T05:24:19Z</time></trkpt><trkpt lat="-18.187190448925318" lon="122.48667700195783"><ele>60.0</ele><time>2026-04-24T05:24:20Z</time></trkpt><trkpt lat="-18.186983741583855" lon="122.4869228162872"><ele>59.5</ele><time>2026-04-24T05:24:21Z</time></trkpt><trkpt lat="-18.18677385149863" lon="122.48716615997417"><ele>59.0</ele><time>2026-04-24T05:24:22Z</time></trkpt><trkpt lat="-18.18656739274708" lon="122.4874066215512"><ele>59.5</ele><time>2026-04-24T05:24:23Z</time></trkpt><trkpt lat="-18.186361859465766" lon="122.48764826903053"><ele>60.0</ele><time>2026-04-24T05:24:24Z</time></trkpt><trkpt lat="-18.18615691310663" lon="122.48789124288872"><ele>60.0</ele><time>2026-04-24T05:24:25Z</time></trkpt><trkpt lat="-18.185952887603776" lon="122.48813654722936"><ele>60.0</ele><time>2026-04-24T05:24:26Z</time></trkpt><trkpt lat="-18.18574903694598" lon="122.48838203712194"><ele>60.0</ele><time>2026-04-24T05:24:27Z</time></trkpt><trkpt lat="-18.185546589438637" lon="122.48862639734675"><ele>60.0</ele><time>2026-04-24T05:24:28Z</time></trkpt><trkpt lat="-18.185339964039827" lon="122.48886850563566"><ele>60.0</ele><time>2026-04-24T05:24:29Z</time></trkpt><trkpt lat="-18.185129312950075" lon="122.48910887546126"><ele>60.0</ele><time>2026-04-24T05:24:30Z</time></trkpt><trkpt lat="-18.184922331394077" lon="122.48934926801563"><ele>60.0</ele><time>2026-04-24T05:24:31Z</time></trkpt><trkpt lat="-18.18471982243601" lon="122.48959259086106"><ele>60.0</ele><time>2026-04-24T05:24:32Z</time></trkpt><trkpt lat="-18.18452131519829" lon="122.48983709019784"><ele>60.0</ele><time>2026-04-24T05:24:33Z</time></trkpt><trkpt lat="-18.18432053141225" lon="122.49008217788494"><ele>60.0</ele><time>2026-04-24T05:24:34Z</time></trkpt><trkpt lat="-18.184119001432045" lon="122.49032719758736"><ele>60.0</ele><time>2026-04-24T05:24:35Z</time></trkpt><trkpt lat="-18.183917347395827" lon="122.4905692361953"><ele>60.0</ele><time>2026-04-24T05:24:36Z</time></trkpt><trkpt lat="-18.183715912351015" lon="122.49080790235206"><ele>60.0</ele><time>2026-04-24T05:24:37Z</time></trkpt><trkpt lat="-18.18351628267902" lon="122.49104471120827"><ele>60.0</ele><time>2026-04-24T05:24:38Z</time></trkpt><trkpt lat="-18.18331741976956" lon="122.49128107946335"><ele>60.0</ele><time>2026-04-24T05:24:39Z</time></trkpt><trkpt lat="-18.183122571242684" lon="122.49151696731904"><ele>60.0</ele><time>2026-04-24T05:24:40Z</time></trkpt><trkpt lat="-18.18292991907306" lon="122.49175344780973"><ele>60.0</ele><time>2026-04-24T05:24:41Z</time></trkpt><trkpt lat="-18.182737530760424" lon="122.49198563904977"><ele>60.0</ele><time>2026-04-24T05:24:42Z</time></trkpt><trkpt lat="-18.182543529821103" lon="122.49221235519522"><ele>60.0</ele><time>2026-04-24T05:24:43Z</time></trkpt><trkpt lat="-18.1823513459604" lon="122.4924351749327"><ele>60.0</ele><time>2026-04-24T05:24:44Z</time></trkpt><trkpt lat="-18.182161407232325" lon="122.49265891703253"><ele>58.5</ele><time>2026-04-24T05:24:45Z</time></trkpt><trkpt lat="-18.181973528884626" lon="122.49288221931182"><ele>57.0</ele><time>2026-04-24T05:24:46Z</time></trkpt><trkpt lat="-18.181787730631076" lon="122.49310711176521"><ele>57.0</ele><time>2026-04-24T05:24:47Z</time></trkpt><trkpt lat="-18.181602148945867" lon="122.49333360855918"><ele>57.0</ele><time>2026-04-24T05:24:48Z</time></trkpt><trkpt lat="-18.181415405265184" lon="122.49356248658535"><ele>57.0</ele><time>2026-04-24T05:24:49Z</time></trkpt><trkpt lat="-18.181224847399303" lon="122.49379225268137"><ele>57.0</ele><time>2026-04-24T05:24:50Z</time></trkpt><trkpt lat="-18.181032450000703" lon="122.49402162602284"><ele>57.0</ele><time>2026-04-24T05:24:51Z</time></trkpt><trkpt lat="-18.18083886053934" lon="122.49425398263323"><ele>57.0</ele><time>2026-04-24T05:24:52Z</time></trkpt><trkpt lat="-18.18064276909673" lon="122.4944877816989"><ele>56.5</ele><time>2026-04-24T05:24:53.001Z</time></trkpt><trkpt lat="-18.180448502444815" lon="122.49471440690658"><ele>56.0</ele><time>2026-04-24T05:24:54.001Z</time></trkpt><trkpt lat="-18.18026929764719" lon="122.49492097864396"><ele>56.0</ele><time>2026-04-24T05:24:55.001Z</time></trkpt><trkpt lat="-18.180093173182307" lon="122.49512522215798"><ele>56.0</ele><time>2026-04-24T05:24:56.001Z</time></trkpt><trkpt lat="-18.179912886780137" lon="122.49533859020337"><ele>56.5</ele><time>2026-04-24T05:24:57.001Z</time></trkpt><trkpt lat="-18.179731024607346" lon="122.4955620040663"><ele>57.0</ele><time>2026-04-24T05:24:58.001Z</time></trkpt><trkpt lat="-18.17954487458312" lon="122.49579023626761"><ele>57.0</ele><time>2026-04-24T05:24:59.001Z</time></trkpt><trkpt lat="-18.179355641066852" lon="122.4960168360042"><ele>57.0</ele><time>2026-04-24T05:25:00.001Z</time></trkpt><trkpt lat="-18.179164211796397" lon="122.49624623710356"><ele>56.5</ele><time>2026-04-24T05:25:01.001Z</time></trkpt><trkpt lat="-18.17896914825887" lon="122.49647615197583"><ele>56.0</ele><time>2026-04-24T05:25:02.001Z</time></trkpt><trkpt lat="-18.17877016216873" lon="122.49670677859484"><ele>56.0</ele><time>2026-04-24T05:25:03.001Z</time></trkpt><trkpt lat="-18.17856936450929" lon="122.49694229253275"><ele>56.0</ele><time>2026-04-24T05:25:04.001Z</time></trkpt><trkpt lat="-18.178370040062447" lon="122.49717995669846"><ele>54.5</ele><time>2026-04-24T05:25:05.001Z</time></trkpt><trkpt lat="-18.178171586281625" lon="122.49741855942464"><ele>53.0</ele><time>2026-04-24T05:25:06.001Z</time></trkpt><trkpt lat="-18.17797279522418" lon="122.49765806384652"><ele>53.0</ele><time>2026-04-24T05:25:07.001Z</time></trkpt><trkpt lat="-18.177774137249596" lon="122.49789721065905"><ele>53.0</ele><time>2026-04-24T05:25:08.001Z</time></trkpt><trkpt lat="-18.177578259748493" lon="122.49813477216236"><ele>53.0</ele><time>2026-04-24T05:25:09.001Z</time></trkpt><trkpt lat="-18.17738198939703" lon="122.49836970042087"><ele>53.0</ele><time>2026-04-24T05:25:10.001Z</time></trkpt><trkpt lat="-18.177186316943825" lon="122.49860499728207"><ele>53.0</ele><time>2026-04-24T05:25:11.001Z</time></trkpt><trkpt lat="-18.176990773530136" lon="122.4988406944561"><ele>53.0</ele><time>2026-04-24T05:25:12.001Z</time></trkpt><trkpt lat="-18.176795339087338" lon="122.49907654600719"><ele>53.0</ele><time>2026-04-24T05:25:13.001Z</time></trkpt><trkpt lat="-18.176596080828254" lon="122.49931195428368"><ele>53.0</ele><time>2026-04-24T05:25:14.001Z</time></trkpt><trkpt lat="-18.17639963263284" lon="122.4995456796309"><ele>51.5</ele><time>2026-04-24T05:25:15.001Z</time></trkpt><trkpt lat="-18.176203485771815" lon="122.49978152778199"><ele>50.0</ele><time>2026-04-24T05:25:16.001Z</time></trkpt><trkpt lat="-18.17600642423377" lon="122.50001934276393"><ele>50.0</ele><time>2026-04-24T05:25:17.001Z</time></trkpt><trkpt lat="-18.17580707735743" lon="122.50025921685433"><ele>50.0</ele><time>2026-04-24T05:25:18.001Z</time></trkpt><trkpt lat="-18.175607374768273" lon="122.50050014035779"><ele>50.0</ele><time>2026-04-24T05:25:19.001Z</time></trkpt><trkpt lat="-18.17540296202758" lon="122.50074127424784"><ele>50.0</ele><time>2026-04-24T05:25:20.001Z</time></trkpt><trkpt lat="-18.17519911245329" lon="122.50098072792396"><ele>50.0</ele><time>2026-04-24T05:25:21.001Z</time></trkpt><trkpt lat="-18.174997029827825" lon="122.50122150228297"><ele>50.0</ele><time>2026-04-24T05:25:22.001Z</time></trkpt><trkpt lat="-18.17479771445316" lon="122.50146415176813"><ele>48.0</ele><time>2026-04-24T05:25:23.001Z</time></trkpt><trkpt lat="-18.17459878901744" lon="122.50170632057522"><ele>46.0</ele><time>2026-04-24T05:25:24.001Z</time></trkpt><trkpt lat="-18.17440261078631" lon="122.50194127860087"><ele>46.0</ele><time>2026-04-24T05:25:25.001Z</time></trkpt><trkpt lat="-18.174212982741867" lon="122.50217172689158"><ele>46.0</ele><time>2026-04-24T05:25:26.001Z</time></trkpt><trkpt lat="-18.174020672656518" lon="122.50240110839805"><ele>46.0</ele><time>2026-04-24T05:25:27.001Z</time></trkpt><trkpt lat="-18.173829070991445" lon="122.5026267531051"><ele>46.0</ele><time>2026-04-24T05:25:28.001Z</time></trkpt><trkpt lat="-18.173638255163148" lon="122.50285318517635"><ele>46.5</ele><time>2026-04-24T05:25:29.001Z</time></trkpt><trkpt lat="-18.17344480582381" lon="122.50308113758103"><ele>47.0</ele><time>2026-04-24T05:25:30.001Z</time></trkpt><trkpt lat="-18.1732489865279" lon="122.50331507739286"><ele>47.0</ele><time>2026-04-24T05:25:31.001Z</time></trkpt><trkpt lat="-18.17304970009361" lon="122.50355055773434"><ele>47.0</ele><time>2026-04-24T05:25:32.001Z</time></trkpt><trkpt lat="-18.172850066025646" lon="122.50378861953466"><ele>47.0</ele><time>2026-04-24T05:25:33.001Z</time></trkpt><trkpt lat="-18.17264997971151" lon="122.50402619114223"><ele>47.0</ele><time>2026-04-24T05:25:34.001Z</time></trkpt><trkpt lat="-18.17244967464902" lon="122.50426512731303"><ele>46.5</ele><time>2026-04-24T05:25:35.001Z</time></trkpt><trkpt lat="-18.172249243784453" lon="122.50450179646995"><ele>46.0</ele><time>2026-04-24T05:25:36Z</time></trkpt><trkpt lat="-18.172048647432092" lon="122.50474282987976"><ele>46.0</ele><time>2026-04-24T05:25:37Z</time></trkpt><trkpt lat="-18.171848183924677" lon="122.50498662801391"><ele>46.0</ele><time>2026-04-24T05:25:38Z</time></trkpt><trkpt lat="-18.171647118030034" lon="122.50522979896567"><ele>45.0</ele><time>2026-04-24T05:25:39Z</time></trkpt><trkpt lat="-18.171448292121767" lon="122.50547099906241"><ele>44.0</ele><time>2026-04-24T05:25:40Z</time></trkpt><trkpt lat="-18.171246226310764" lon="122.50571488680458"><ele>44.0</ele><time>2026-04-24T05:25:41Z</time></trkpt><trkpt lat="-18.171040145898726" lon="122.50595833563774"><ele>44.0</ele><time>2026-04-24T05:25:42Z</time></trkpt><trkpt lat="-18.17083266409323" lon="122.50620324240558"><ele>44.0</ele><time>2026-04-24T05:25:43Z</time></trkpt><trkpt lat="-18.170627347009436" lon="122.50644744091852"><ele>44.0</ele><time>2026-04-24T05:25:44Z</time></trkpt><trkpt lat="-18.1704216551346" lon="122.50669272704297"><ele>44.0</ele><time>2026-04-24T05:25:45Z</time></trkpt><trkpt lat="-18.170218595260888" lon="122.50693961247144"><ele>44.0</ele><time>2026-04-24T05:25:46Z</time></trkpt><trkpt lat="-18.170017576913033" lon="122.50718544283407"><ele>43.5</ele><time>2026-04-24T05:25:47Z</time></trkpt><trkpt lat="-18.169814946744157" lon="122.50742738354545"><ele>43.0</ele><time>2026-04-24T05:25:48Z</time></trkpt><trkpt lat="-18.169612061877515" lon="122.50766759849732"><ele>43.0</ele><time>2026-04-24T05:25:49Z</time></trkpt><trkpt lat="-18.16941069061461" lon="122.507907044618"><ele>43.0</ele><time>2026-04-24T05:25:50Z</time></trkpt><trkpt lat="-18.169211839764248" lon="122.50814725205318"><ele>42.0</ele><time>2026-04-24T05:25:51Z</time></trkpt><trkpt lat="-18.169013829085298" lon="122.50838665510507"><ele>41.0</ele><time>2026-04-24T05:25:52Z</time></trkpt><trkpt lat="-18.168815431176185" lon="122.50862307078664"><ele>40.0</ele><time>2026-04-24T05:25:53Z</time></trkpt><trkpt lat="-18.168615897658718" lon="122.50886002511436"><ele>39.0</ele><time>2026-04-24T05:25:54Z</time></trkpt><trkpt lat="-18.168417913556834" lon="122.509096844736"><ele>39.0</ele><time>2026-04-24T05:25:55Z</time></trkpt><trkpt lat="-18.1682238293089" lon="122.50933087401964"><ele>39.0</ele><time>2026-04-24T05:25:56Z</time></trkpt><trkpt lat="-18.168033996093776" lon="122.5095580184648"><ele>39.5</ele><time>2026-04-24T05:25:57Z</time></trkpt><trkpt lat="-18.167856788956858" lon="122.50976968519844"><ele>40.0</ele><time>2026-04-24T05:25:58Z</time></trkpt><trkpt lat="-18.167683176244527" lon="122.50997447241895"><ele>40.0</ele><time>2026-04-24T05:25:59Z</time></trkpt><trkpt lat="-18.16750663794835" lon="122.51018612693875"><ele>40.0</ele><time>2026-04-24T05:26:00Z</time></trkpt><trkpt lat="-18.167321931745228" lon="122.51040522027543"><ele>40.0</ele><time>2026-04-24T05:26:01Z</time></trkpt><trkpt lat="-18.167132350240298" lon="122.51062985423425"><ele>40.0</ele><time>2026-04-24T05:26:02Z</time></trkpt><trkpt lat="-18.166937983728143" lon="122.5108602818586"><ele>40.0</ele><time>2026-04-24T05:26:03Z</time></trkpt><trkpt lat="-18.166742236656745" lon="122.51109471841721"><ele>40.0</ele><time>2026-04-24T05:26:04Z</time></trkpt><trkpt lat="-18.16654693625869" lon="122.511331556219"><ele>38.5</ele><time>2026-04-24T05:26:05Z</time></trkpt><trkpt lat="-18.166348692867956" lon="122.51157278782509"><ele>37.0</ele><time>2026-04-24T05:26:06Z</time></trkpt><trkpt lat="-18.16614869595127" lon="122.5118143134856"><ele>37.0</ele><time>2026-04-24T05:26:07Z</time></trkpt><trkpt lat="-18.165946891916445" lon="122.51205531245382"><ele>37.0</ele><time>2026-04-24T05:26:08Z</time></trkpt><trkpt lat="-18.165743472929908" lon="122.51229906059251"><ele>37.0</ele><time>2026-04-24T05:26:09Z</time></trkpt><trkpt lat="-18.16554133339647" lon="122.51254242330965"><ele>37.0</ele><time>2026-04-24T05:26:10Z</time></trkpt><trkpt lat="-18.165338436604536" lon="122.51278363548408"><ele>36.0</ele><time>2026-04-24T05:26:11Z</time></trkpt><trkpt lat="-18.16513559986924" lon="122.51302488955373"><ele>35.0</ele><time>2026-04-24T05:26:12Z</time></trkpt><trkpt lat="-18.1649338505858" lon="122.51326693466167"><ele>35.5</ele><time>2026-04-24T05:26:13Z</time></trkpt><trkpt lat="-18.16473426845449" lon="122.51350997757577"><ele>36.0</ele><time>2026-04-24T05:26:14Z</time></trkpt><trkpt lat="-18.164535506206423" lon="122.51375296593905"><ele>36.5</ele><time>2026-04-24T05:26:15Z</time></trkpt><trkpt lat="-18.16433697777898" lon="122.51399442692174"><ele>37.0</ele><time>2026-04-24T05:26:16Z</time></trkpt><trkpt lat="-18.164135779731886" lon="122.51423653879222"><ele>36.5</ele><time>2026-04-24T05:26:17Z</time></trkpt><trkpt lat="-18.163931533746847" lon="122.51447795209964"><ele>36.0</ele><time>2026-04-24T05:26:18Z</time></trkpt><trkpt lat="-18.163725635964454" lon="122.51471269864858"><ele>35.5</ele><time>2026-04-24T05:26:19Z</time></trkpt><trkpt lat="-18.16352303534015" lon="122.5149455790503"><ele>35.0</ele><time>2026-04-24T05:26:20Z</time></trkpt><trkpt lat="-18.16332579454197" lon="122.51517694745833"><ele>36.0</ele><time>2026-04-24T05:26:21Z</time></trkpt><trkpt lat="-18.16312963641509" lon="122.51541336946745"><ele>37.0</ele><time>2026-04-24T05:26:22Z</time></trkpt><trkpt lat="-18.16293549852123" lon="122.51565262355336"><ele>37.0</ele><time>2026-04-24T05:26:23Z</time></trkpt><trkpt lat="-18.162738409098807" lon="122.51589385724326"><ele>37.0</ele><time>2026-04-24T05:26:24Z</time></trkpt><trkpt lat="-18.162536866957506" lon="122.51613717014713"><ele>36.0</ele><time>2026-04-24T05:26:25Z</time></trkpt><trkpt lat="-18.16233340526274" lon="122.51637949264145"><ele>35.0</ele><time>2026-04-24T05:26:26Z</time></trkpt><trkpt lat="-18.16212989140515" lon="122.5166221746561"><ele>35.0</ele><time>2026-04-24T05:26:27Z</time></trkpt><trkpt lat="-18.161928693502002" lon="122.51686516905423"><ele>35.0</ele><time>2026-04-24T05:26:28Z</time></trkpt><trkpt lat="-18.1617244441363" lon="122.51710741509618"><ele>34.5</ele><time>2026-04-24T05:26:29Z</time></trkpt><trkpt lat="-18.161519462087252" lon="122.51735023983585"><ele>34.0</ele><time>2026-04-24T05:26:30Z</time></trkpt><trkpt lat="-18.161315179267763" lon="122.51759269301051"><ele>34.0</ele><time>2026-04-24T05:26:31Z</time></trkpt><trkpt lat="-18.161114635162093" lon="122.51783473125298"><ele>34.0</ele><time>2026-04-24T05:26:32Z</time></trkpt><trkpt lat="-18.160913490915036" lon="122.5180767694442"><ele>34.0</ele><time>2026-04-24T05:26:33Z</time></trkpt><trkpt lat="-18.160710602763658" lon="122.51832038785695"><ele>34.0</ele><time>2026-04-24T05:26:34Z</time></trkpt><trkpt lat="-18.16050746639149" lon="122.51856653258176"><ele>34.5</ele><time>2026-04-24T05:26:35.001Z</time></trkpt><trkpt lat="-18.160297845148367" lon="122.5188161180263"><ele>35.0</ele><time>2026-04-24T05:26:36.001Z</time></trkpt><trkpt lat="-18.16008456143067" lon="122.51906777536767"><ele>35.0</ele><time>2026-04-24T05:26:37.001Z</time></trkpt><trkpt lat="-18.159875789238374" lon="122.51932275055124"><ele>35.0</ele><time>2026-04-24T05:26:38.001Z</time></trkpt><trkpt lat="-18.159663757827712" lon="122.51957578709913"><ele>34.5</ele><time>2026-04-24T05:26:39.001Z</time></trkpt><trkpt lat="-18.159450413702384" lon="122.51982977060466"><ele>34.0</ele><time>2026-04-24T05:26:40.001Z</time></trkpt><trkpt lat="-18.159242131284525" lon="122.52007995293715"><ele>33.5</ele><time>2026-04-24T05:26:41.001Z</time></trkpt><trkpt lat="-18.15903396966891" lon="122.52032611888781"><ele>33.0</ele><time>2026-04-24T05:26:42.001Z</time></trkpt><trkpt lat="-18.15882642398367" lon="122.52057237747348"><ele>34.0</ele><time>2026-04-24T05:26:43.001Z</time></trkpt><trkpt lat="-18.15861946978519" lon="122.52081814279603"><ele>35.0</ele><time>2026-04-24T05:26:44.001Z</time></trkpt><trkpt lat="-18.15841049694641" lon="122.52106482534012"><ele>34.0</ele><time>2026-04-24T05:26:45.001Z</time></trkpt><trkpt lat="-18.15820285746262" lon="122.52131219534353"><ele>33.0</ele><time>2026-04-24T05:26:46.001Z</time></trkpt><trkpt lat="-18.157995712760876" lon="122.52155902451841"><ele>32.5</ele><time>2026-04-24T05:26:47.001Z</time></trkpt><trkpt lat="-18.157788776054375" lon="122.52180380358378"><ele>32.0</ele><time>2026-04-24T05:26:48.001Z</time></trkpt><trkpt lat="-18.15758509210856" lon="122.52204894750881"><ele>32.5</ele><time>2026-04-24T05:26:49.001Z</time></trkpt><trkpt lat="-18.157380568813213" lon="122.52229628262417"><ele>33.0</ele><time>2026-04-24T05:26:50.001Z</time></trkpt><trkpt lat="-18.15717810104272" lon="122.5225402131975"><ele>33.0</ele><time>2026-04-24T05:26:51.001Z</time></trkpt><trkpt lat="-18.156978108923443" lon="122.52278274447818"><ele>33.0</ele><time>2026-04-24T05:26:52.001Z</time></trkpt><trkpt lat="-18.156780644662202" lon="122.52301953284379"><ele>32.5</ele><time>2026-04-24T05:26:53.001Z</time></trkpt><trkpt lat="-18.15658382585477" lon="122.52325436173719"><ele>32.0</ele><time>2026-04-24T05:26:54.001Z</time></trkpt><trkpt lat="-18.156388906492335" lon="122.52348721854689"><ele>31.5</ele><time>2026-04-24T05:26:55.001Z</time></trkpt><trkpt lat="-18.15619111310681" lon="122.52372176871522"><ele>31.0</ele><time>2026-04-24T05:26:56.001Z</time></trkpt><trkpt lat="-18.15599486946164" lon="122.5239563688513"><ele>31.0</ele><time>2026-04-24T05:26:57.001Z</time></trkpt><trkpt lat="-18.15579882823683" lon="122.52418623100165"><ele>31.0</ele><time>2026-04-24T05:26:58.001Z</time></trkpt><trkpt lat="-18.155603033736462" lon="122.52441558005289"><ele>30.5</ele><time>2026-04-24T05:26:59.001Z</time></trkpt><trkpt lat="-18.15540610215349" lon="122.52464669554509"><ele>30.0</ele><time>2026-04-24T05:27:00.001Z</time></trkpt><trkpt lat="-18.155208591055974" lon="122.52488130039477"><ele>30.0</ele><time>2026-04-24T05:27:01.001Z</time></trkpt><trkpt lat="-18.155010233855513" lon="122.5251185415271"><ele>30.0</ele><time>2026-04-24T05:27:02.001Z</time></trkpt><trkpt lat="-18.15481566769256" lon="122.52535896285184"><ele>30.5</ele><time>2026-04-24T05:27:03.001Z</time></trkpt><trkpt lat="-18.15462308784768" lon="122.52559738499707"><ele>31.0</ele><time>2026-04-24T05:27:04.001Z</time></trkpt><trkpt lat="-18.15442435210387" lon="122.52583806712265"><ele>31.0</ele><time>2026-04-24T05:27:05.001Z</time></trkpt><trkpt lat="-18.154220895845754" lon="122.52608127090804"><ele>31.0</ele><time>2026-04-24T05:27:06.001Z</time></trkpt><trkpt lat="-18.154015444163335" lon="122.52632581005406"><ele>31.0</ele><time>2026-04-24T05:27:07.001Z</time></trkpt><trkpt lat="-18.1538101886911" lon="122.52657397828631"><ele>31.0</ele><time>2026-04-24T05:27:08.001Z</time></trkpt><trkpt lat="-18.153603740480275" lon="122.52682337371338"><ele>31.0</ele><time>2026-04-24T05:27:09.001Z</time></trkpt><trkpt lat="-18.15339509343826" lon="122.52707143798506"><ele>31.0</ele><time>2026-04-24T05:27:10.001Z</time></trkpt><trkpt lat="-18.153188290458942" lon="122.52731792877144"><ele>31.5</ele><time>2026-04-24T05:27:11.001Z</time></trkpt><trkpt lat="-18.152982745843012" lon="122.52756343256462"><ele>32.0</ele><time>2026-04-24T05:27:12.001Z</time></trkpt><trkpt lat="-18.15277835387282" lon="122.52780392821555"><ele>32.0</ele><time>2026-04-24T05:27:13.001Z</time></trkpt><trkpt lat="-18.152572786704564" lon="122.52804379980888"><ele>32.0</ele><time>2026-04-24T05:27:14.001Z</time></trkpt><trkpt lat="-18.15236757698566" lon="122.5282845511044"><ele>32.0</ele><time>2026-04-24T05:27:15.001Z</time></trkpt><trkpt lat="-18.152165534052727" lon="122.52852812638697"><ele>32.0</ele><time>2026-04-24T05:27:16.001Z</time></trkpt><trkpt lat="-18.151964202776224" lon="122.52877245968169"><ele>30.0</ele><time>2026-04-24T05:27:17.001Z</time></trkpt><trkpt lat="-18.15176347114767" lon="122.52901273510496"><ele>28.0</ele><time>2026-04-24T05:27:18.001Z</time></trkpt><trkpt lat="-18.151559525918245" lon="122.5292539622605"><ele>28.0</ele><time>2026-04-24T05:27:19.001Z</time></trkpt><trkpt lat="-18.151359585404677" lon="122.52949160952693"><ele>28.0</ele><time>2026-04-24T05:27:20.001Z</time></trkpt><trkpt lat="-18.15116058154967" lon="122.5297317610505"><ele>26.5</ele><time>2026-04-24T05:27:21.001Z</time></trkpt><trkpt lat="-18.1509616264546" lon="122.52997298634546"><ele>25.0</ele><time>2026-04-24T05:27:22.001Z</time></trkpt><trkpt lat="-18.150764415526673" lon="122.53021387699405"><ele>26.5</ele><time>2026-04-24T05:27:23.001Z</time></trkpt><trkpt lat="-18.15056478505751" lon="122.53045426021716"><ele>28.0</ele><time>2026-04-24T05:27:24.001Z</time></trkpt><trkpt lat="-18.15036724326613" lon="122.53069274633624"><ele>28.0</ele><time>2026-04-24T05:27:25.001Z</time></trkpt><trkpt lat="-18.15016880517526" lon="122.5309306197305"><ele>28.0</ele><time>2026-04-24T05:27:26.001Z</time></trkpt><trkpt lat="-18.149966015748106" lon="122.53116791866385"><ele>27.5</ele><time>2026-04-24T05:27:27.001Z</time></trkpt><trkpt lat="-18.14976401364785" lon="122.53140556631381"><ele>27.0</ele><time>2026-04-24T05:27:28.001Z</time></trkpt><trkpt lat="-18.14956380352256" lon="122.53164170142519"><ele>27.0</ele><time>2026-04-24T05:27:29.001Z</time></trkpt><trkpt lat="-18.149362641858175" lon="122.53187776410104"><ele>27.0</ele><time>2026-04-24T05:27:30.001Z</time></trkpt><trkpt lat="-18.149161168400006" lon="122.5321162730145"><ele>29.5</ele><time>2026-04-24T05:27:31.001Z</time></trkpt><trkpt lat="-18.148965882421603" lon="122.53235417423694"><ele>32.0</ele><time>2026-04-24T05:27:32.001Z</time></trkpt><trkpt lat="-18.148774020527004" lon="122.53258779342615"><ele>32.0</ele><time>2026-04-24T05:27:33.001Z</time></trkpt><trkpt lat="-18.14858312491541" lon="122.53281441077029"><ele>32.0</ele><time>2026-04-24T05:27:34.001Z</time></trkpt><trkpt lat="-18.148391232187414" lon="122.53304250574388"><ele>31.0</ele><time>2026-04-24T05:27:35.001Z</time></trkpt><trkpt lat="-18.148202349643462" lon="122.53327140778809"><ele>30.0</ele><time>2026-04-24T05:27:36.001Z</time></trkpt><trkpt lat="-18.14802195516811" lon="122.5334852610971"><ele>30.0</ele><time>2026-04-24T05:27:37.001Z</time></trkpt><trkpt lat="-18.147847056215927" lon="122.5336962351116"><ele>30.0</ele><time>2026-04-24T05:27:38.001Z</time></trkpt><trkpt lat="-18.147672475673147" lon="122.5339102396757"><ele>30.5</ele><time>2026-04-24T05:27:39.001Z</time></trkpt><trkpt lat="-18.14749680860229" lon="122.53412750573104"><ele>31.0</ele><time>2026-04-24T05:27:40.001Z</time></trkpt><trkpt lat="-18.147317556132236" lon="122.53434241387502"><ele>31.5</ele><time>2026-04-24T05:27:41.001Z</time></trkpt><trkpt lat="-18.14713263682325" lon="122.53455799924411"><ele>32.0</ele><time>2026-04-24T05:27:42.001Z</time></trkpt><trkpt lat="-18.146948164898813" lon="122.53477623479645"><ele>32.0</ele><time>2026-04-24T05:27:43.001Z</time></trkpt><trkpt lat="-18.146763595770764" lon="122.53499460214107"><ele>32.0</ele><time>2026-04-24T05:27:44.001Z</time></trkpt><trkpt lat="-18.14657594644738" lon="122.53521774309722"><ele>31.5</ele><time>2026-04-24T05:27:45.001Z</time></trkpt><trkpt lat="-18.146387471076654" lon="122.53544333147885"><ele>31.0</ele><time>2026-04-24T05:27:46.001Z</time></trkpt><trkpt lat="-18.146199380026605" lon="122.53567027954838"><ele>31.0</ele><time>2026-04-24T05:27:47.001Z</time></trkpt><trkpt lat="-18.14600913914134" lon="122.53590024715702"><ele>31.0</ele><time>2026-04-24T05:27:48.001Z</time></trkpt><trkpt lat="-18.145816316531235" lon="122.53613402242541"><ele>30.5</ele><time>2026-04-24T05:27:49.001Z</time></trkpt><trkpt lat="-18.145621496288573" lon="122.5363711095007"><ele>30.0</ele><time>2026-04-24T05:27:50.001Z</time></trkpt><trkpt lat="-18.145425872064916" lon="122.53660782868431"><ele>30.0</ele><time>2026-04-24T05:27:51.001Z</time></trkpt><trkpt lat="-18.145223357295645" lon="122.53684835645498"><ele>30.0</ele><time>2026-04-24T05:27:52.001Z</time></trkpt><trkpt lat="-18.14502168062132" lon="122.53708735855649"><ele>29.5</ele><time>2026-04-24T05:27:53.001Z</time></trkpt><trkpt lat="-18.1448191513007" lon="122.53733090549879"><ele>29.0</ele><time>2026-04-24T05:27:54.001Z</time></trkpt><trkpt lat="-18.144615291673237" lon="122.53757588402206"><ele>29.0</ele><time>2026-04-24T05:27:55.001Z</time></trkpt><trkpt lat="-18.14441098661002" lon="122.53782092719433"><ele>29.0</ele><time>2026-04-24T05:27:56.001Z</time></trkpt><trkpt lat="-18.144202455614586" lon="122.53806638775795"><ele>28.5</ele><time>2026-04-24T05:27:57.001Z</time></trkpt><trkpt lat="-18.143996946108757" lon="122.53831372051742"><ele>28.0</ele><time>2026-04-24T05:27:58.001Z</time></trkpt><trkpt lat="-18.143790352644828" lon="122.53856116522675"><ele>28.0</ele><time>2026-04-24T05:27:59.001Z</time></trkpt><trkpt lat="-18.14358401701946" lon="122.5388068327939"><ele>28.0</ele><time>2026-04-24T05:28:00.001Z</time></trkpt><trkpt lat="-18.143378504678044" lon="122.53905074537988"><ele>26.5</ele><time>2026-04-24T05:28:01.001Z</time></trkpt><trkpt lat="-18.143172862333707" lon="122.53929362935739"><ele>25.0</ele><time>2026-04-24T05:28:02.001Z</time></trkpt><trkpt lat="-18.142971230953883" lon="122.53953780735064"><ele>26.0</ele><time>2026-04-24T05:28:03.001Z</time></trkpt><trkpt lat="-18.14276628385022" lon="122.53978011984549"><ele>27.0</ele><time>2026-04-24T05:28:04.001Z</time></trkpt><trkpt lat="-18.14256414535951" lon="122.54002183872373"><ele>26.5</ele><time>2026-04-24T05:28:05.001Z</time></trkpt><trkpt lat="-18.142363787313588" lon="122.54026267701188"><ele>26.0</ele><time>2026-04-24T05:28:06.001Z</time></trkpt><trkpt lat="-18.14215852140745" lon="122.54050575978631"><ele>25.0</ele><time>2026-04-24T05:28:07.001Z</time></trkpt><trkpt lat="-18.141953529165878" lon="122.54074644805266"><ele>24.0</ele><time>2026-04-24T05:28:08.001Z</time></trkpt><trkpt lat="-18.141752087155574" lon="122.54097981602632"><ele>24.0</ele><time>2026-04-24T05:28:09.001Z</time></trkpt><trkpt lat="-18.14155114395852" lon="122.54121628285935"><ele>24.0</ele><time>2026-04-24T05:28:10.001Z</time></trkpt><trkpt lat="-18.141353722530305" lon="122.54144876863931"><ele>24.5</ele><time>2026-04-24T05:28:11.001Z</time></trkpt><trkpt lat="-18.141160686759605" lon="122.54167820412086"><ele>25.0</ele><time>2026-04-24T05:28:12.001Z</time></trkpt><trkpt lat="-18.14096922924102" lon="122.54190910990158"><ele>25.0</ele><time>2026-04-24T05:28:13.001Z</time></trkpt><trkpt lat="-18.14077901194883" lon="122.54213996976502"><ele>25.0</ele><time>2026-04-24T05:28:14.001Z</time></trkpt><trkpt lat="-18.140583256655557" lon="122.54237197253505"><ele>25.0</ele><time>2026-04-24T05:28:15.001Z</time></trkpt><trkpt lat="-18.14038743646659" lon="122.54260611730774"><ele>25.0</ele><time>2026-04-24T05:28:16.001Z</time></trkpt><trkpt lat="-18.140192636143265" lon="122.54283841106987"><ele>23.5</ele><time>2026-04-24T05:28:17.001Z</time></trkpt><trkpt lat="-18.13999718014433" lon="122.54307150071588"><ele>22.0</ele><time>2026-04-24T05:28:18.001Z</time></trkpt><trkpt lat="-18.139801209091434" lon="122.54330842688732"><ele>21.5</ele><time>2026-04-24T05:28:19.001Z</time></trkpt><trkpt lat="-18.13960759999648" lon="122.5435438002503"><ele>21.0</ele><time>2026-04-24T05:28:20.001Z</time></trkpt><trkpt lat="-18.13941186079632" lon="122.54378154485991"><ele>21.0</ele><time>2026-04-24T05:28:21.001Z</time></trkpt><trkpt lat="-18.13921704411308" lon="122.54401985167898"><ele>21.0</ele><time>2026-04-24T05:28:22.001Z</time></trkpt><trkpt lat="-18.13901910474035" lon="122.54426061042874"><ele>21.0</ele><time>2026-04-24T05:28:23.001Z</time></trkpt><trkpt lat="-18.138819969088235" lon="122.5445017462136"><ele>21.0</ele><time>2026-04-24T05:28:24.001Z</time></trkpt><trkpt lat="-18.138619323960974" lon="122.5447429547644"><ele>20.5</ele><time>2026-04-24T05:28:25.001Z</time></trkpt><trkpt lat="-18.138419479798323" lon="122.54498408394466"><ele>20.0</ele><time>2026-04-24T05:28:26.001Z</time></trkpt><trkpt lat="-18.13821507721349" lon="122.54522601075865"><ele>19.5</ele><time>2026-04-24T05:28:27.001Z</time></trkpt><trkpt lat="-18.138009482871635" lon="122.54546761571017"><ele>19.0</ele><time>2026-04-24T05:28:28.001Z</time></trkpt><trkpt lat="-18.137806653901766" lon="122.5457071748251"><ele>19.0</ele><time>2026-04-24T05:28:29.001Z</time></trkpt><trkpt lat="-18.1376013642096" lon="122.54594892350107"><ele>19.0</ele><time>2026-04-24T05:28:30.001Z</time></trkpt><trkpt lat="-18.137397365795323" lon="122.54619211147387"><ele>21.0</ele><time>2026-04-24T05:28:31.001Z</time></trkpt><trkpt lat="-18.137196753297797" lon="122.54643184262432"><ele>23.0</ele><time>2026-04-24T05:28:32.001Z</time></trkpt><trkpt lat="-18.136997657970987" lon="122.54666956710683"><ele>23.0</ele><time>2026-04-24T05:28:33.001Z</time></trkpt><trkpt lat="-18.136796723891873" lon="122.54690939157491"><ele>23.0</ele><time>2026-04-24T05:28:34.001Z</time></trkpt><trkpt lat="-18.13659589789936" lon="122.54714595591624"><ele>22.0</ele><time>2026-04-24T05:28:35.001Z</time></trkpt><trkpt lat="-18.13639449787456" lon="122.54738528904586"><ele>21.0</ele><time>2026-04-24T05:28:36.001Z</time></trkpt><trkpt lat="-18.13618785944824" lon="122.54763049611478"><ele>21.0</ele><time>2026-04-24T05:28:37.001Z</time></trkpt><trkpt lat="-18.135982467056916" lon="122.54787587040772"><ele>21.0</ele><time>2026-04-24T05:28:38.001Z</time></trkpt><trkpt lat="-18.135774843737245" lon="122.54811961704087"><ele>22.5</ele><time>2026-04-24T05:28:39.001Z</time></trkpt><trkpt lat="-18.135569669528913" lon="122.5483615709826"><ele>24.0</ele><time>2026-04-24T05:28:40.001Z</time></trkpt><trkpt lat="-18.13537115665438" lon="122.54860201709076"><ele>24.0</ele><time>2026-04-24T05:28:41.001Z</time></trkpt><trkpt lat="-18.13517522716659" lon="122.54883914503843"><ele>24.0</ele><time>2026-04-24T05:28:42.001Z</time></trkpt><trkpt lat="-18.134980006128597" lon="122.5490754914176"><ele>23.5</ele><time>2026-04-24T05:28:43.001Z</time></trkpt><trkpt lat="-18.134785399027933" lon="122.54931069642026"><ele>23.0</ele><time>2026-04-24T05:28:44.001Z</time></trkpt><trkpt lat="-18.13459018879099" lon="122.54954746681928"><ele>24.0</ele><time>2026-04-24T05:28:45.001Z</time></trkpt><trkpt lat="-18.13439441543463" lon="122.54977943996778"><ele>25.0</ele><time>2026-04-24T05:28:46.001Z</time></trkpt><trkpt lat="-18.134197109857777" lon="122.55001228831765"><ele>25.5</ele><time>2026-04-24T05:28:47.001Z</time></trkpt><trkpt lat="-18.1339993243972" lon="122.5502461668218"><ele>26.0</ele><time>2026-04-24T05:28:48.001Z</time></trkpt><trkpt lat="-18.133801303142807" lon="122.55048212253286"><ele>26.0</ele><time>2026-04-24T05:28:49.001Z</time></trkpt><trkpt lat="-18.133606637003332" lon="122.55071819702908"><ele>26.0</ele><time>2026-04-24T05:28:50.001Z</time></trkpt><trkpt lat="-18.133409484503616" lon="122.55095516220536"><ele>27.5</ele><time>2026-04-24T05:28:51.001Z</time></trkpt><trkpt lat="-18.133210644909624" lon="122.55119251417834"><ele>29.0</ele><time>2026-04-24T05:28:52.001Z</time></trkpt><trkpt lat="-18.13301398399792" lon="122.55142774242083"><ele>29.0</ele><time>2026-04-24T05:28:53.001Z</time></trkpt><trkpt lat="-18.132813208956787" lon="122.55166352192244"><ele>29.0</ele><time>2026-04-24T05:28:54.001Z</time></trkpt><trkpt lat="-18.13261098574406" lon="122.55190327403349"><ele>29.0</ele><time>2026-04-24T05:28:55.001Z</time></trkpt><trkpt lat="-18.13240648368034" lon="122.55214733607448"><ele>29.0</ele><time>2026-04-24T05:28:56.001Z</time></trkpt><trkpt lat="-18.132203063465365" lon="122.5523922473052"><ele>29.5</ele><time>2026-04-24T05:28:57.001Z</time></trkpt><trkpt lat="-18.132001682409808" lon="122.55263708618037"><ele>30.0</ele><time>2026-04-24T05:28:58.001Z</time></trkpt><trkpt lat="-18.13180486068482" lon="122.55287687318491"><ele>30.0</ele><time>2026-04-24T05:28:59.001Z</time></trkpt><trkpt lat="-18.13160897075115" lon="122.55311204816998"><ele>30.0</ele><time>2026-04-24T05:29:00.001Z</time></trkpt><trkpt lat="-18.131409324669043" lon="122.55334760659731"><ele>30.0</ele><time>2026-04-24T05:29:01.001Z</time></trkpt><trkpt lat="-18.131207986059565" lon="122.55358326124085"><ele>30.0</ele><time>2026-04-24T05:29:02.001Z</time></trkpt><trkpt lat="-18.13100659935112" lon="122.55382057717388"><ele>30.0</ele><time>2026-04-24T05:29:03.001Z</time></trkpt><trkpt lat="-18.130807145702246" lon="122.55405704020528"><ele>30.0</ele><time>2026-04-24T05:29:04.001Z</time></trkpt><trkpt lat="-18.130610453863433" lon="122.55429138310916"><ele>30.0</ele><time>2026-04-24T05:29:05.001Z</time></trkpt><trkpt lat="-18.13042822808409" lon="122.55451171617233"><ele>30.0</ele><time>2026-04-24T05:29:06.001Z</time></trkpt><trkpt lat="-18.13025314191385" lon="122.55472574942168"><ele>30.0</ele><time>2026-04-24T05:29:07.001Z</time></trkpt><trkpt lat="-18.130075646601306" lon="122.55494422978283"><ele>30.0</ele><time>2026-04-24T05:29:08.001Z</time></trkpt><trkpt lat="-18.129893427801623" lon="122.55516686423022"><ele>30.5</ele><time>2026-04-24T05:29:09.001Z</time></trkpt><trkpt lat="-18.129710841920254" lon="122.55538920231123"><ele>31.0</ele><time>2026-04-24T05:29:10.001Z</time></trkpt><trkpt lat="-18.129523498906117" lon="122.55560996679257"><ele>31.0</ele><time>2026-04-24T05:29:11.001Z</time></trkpt><trkpt lat="-18.12933280487022" lon="122.55583060816448"><ele>31.0</ele><time>2026-04-24T05:29:12.001Z</time></trkpt><trkpt lat="-18.129142300189635" lon="122.55605381699058"><ele>32.5</ele><time>2026-04-24T05:29:13.001Z</time></trkpt><trkpt lat="-18.12895418866775" lon="122.55627621184901"><ele>34.0</ele><time>2026-04-24T05:29:14.001Z</time></trkpt><trkpt lat="-18.128766499705904" lon="122.55649688554423"><ele>34.0</ele><time>2026-04-24T05:29:15.001Z</time></trkpt><trkpt lat="-18.12857560579273" lon="122.5567230755482"><ele>34.0</ele><time>2026-04-24T05:29:16.001Z</time></trkpt><trkpt lat="-18.128384448881363" lon="122.55695182684276"><ele>34.0</ele><time>2026-04-24T05:29:17.001Z</time></trkpt><trkpt lat="-18.128194981576303" lon="122.55718190919973"><ele>34.0</ele><time>2026-04-24T05:29:18.001Z</time></trkpt><trkpt lat="-18.128005931359855" lon="122.55741169402981"><ele>34.0</ele><time>2026-04-24T05:29:19.001Z</time></trkpt><trkpt lat="-18.127817153656057" lon="122.5576396602336"><ele>34.0</ele><time>2026-04-24T05:29:20.001Z</time></trkpt><trkpt lat="-18.127626043219685" lon="122.55786866286601"><ele>34.0</ele><time>2026-04-24T05:29:21.001Z</time></trkpt><trkpt lat="-18.127430989061494" lon="122.5580997051674"><ele>34.0</ele><time>2026-04-24T05:29:22.001Z</time></trkpt><trkpt lat="-18.12723518528006" lon="122.55833018464457"><ele>34.5</ele><time>2026-04-24T05:29:23.001Z</time></trkpt><trkpt lat="-18.127040658846347" lon="122.55855819938354"><ele>35.0</ele><time>2026-04-24T05:29:24.001Z</time></trkpt><trkpt lat="-18.12684777955146" lon="122.55878710698154"><ele>34.0</ele><time>2026-04-24T05:29:25.001Z</time></trkpt><trkpt lat="-18.126656408296682" lon="122.55901850216259"><ele>33.0</ele><time>2026-04-24T05:29:26.001Z</time></trkpt><trkpt lat="-18.126464428876123" lon="122.5592504109554"><ele>34.5</ele><time>2026-04-24T05:29:27.001Z</time></trkpt><trkpt lat="-18.126272126433367" lon="122.55948528216355"><ele>36.0</ele><time>2026-04-24T05:29:28.001Z</time></trkpt><trkpt lat="-18.126079509562548" lon="122.55971950725927"><ele>36.0</ele><time>2026-04-24T05:29:29.001Z</time></trkpt><trkpt lat="-18.12588414488115" lon="122.55995508746946"><ele>36.0</ele><time>2026-04-24T05:29:30.001Z</time></trkpt><trkpt lat="-18.12568731108312" lon="122.56019059573822"><ele>35.5</ele><time>2026-04-24T05:29:31.001Z</time></trkpt><trkpt lat="-18.125487997358768" lon="122.56042696624"><ele>35.0</ele><time>2026-04-24T05:29:32.001Z</time></trkpt><trkpt lat="-18.12529048587372" lon="122.56066506095273"><ele>35.0</ele><time>2026-04-24T05:29:33.001Z</time></trkpt><trkpt lat="-18.125091395830797" lon="122.56090334008225"><ele>35.0</ele><time>2026-04-24T05:29:34.001Z</time></trkpt><trkpt lat="-18.124894292321695" lon="122.56113881586388"><ele>35.5</ele><time>2026-04-24T05:29:35.001Z</time></trkpt><trkpt lat="-18.12469675489152" lon="122.56137477668626"><ele>36.0</ele><time>2026-04-24T05:29:36.001Z</time></trkpt><trkpt lat="-18.1245017778947" lon="122.56160839452326"><ele>36.0</ele><time>2026-04-24T05:29:37.001Z</time></trkpt><trkpt lat="-18.124304220053325" lon="122.56184328674766"><ele>36.0</ele><time>2026-04-24T05:29:38.001Z</time></trkpt><trkpt lat="-18.124105253822865" lon="122.56207680327674"><ele>36.5</ele><time>2026-04-24T05:29:39.001Z</time></trkpt><trkpt lat="-18.12390463597816" lon="122.5623094728933"><ele>37.0</ele><time>2026-04-24T05:29:40.001Z</time></trkpt><trkpt lat="-18.12370407999078" lon="122.56254721820575"><ele>37.0</ele><time>2026-04-24T05:29:41.001Z</time></trkpt><trkpt lat="-18.123505362634145" lon="122.56278498873982"><ele>37.0</ele><time>2026-04-24T05:29:42.001Z</time></trkpt><trkpt lat="-18.123307210981014" lon="122.56302283647021"><ele>37.0</ele><time>2026-04-24T05:29:43.001Z</time></trkpt><trkpt lat="-18.123106311887437" lon="122.56326513531297"><ele>37.0</ele><time>2026-04-24T05:29:44.001Z</time></trkpt><trkpt lat="-18.12290527039047" lon="122.56350822832825"><ele>37.5</ele><time>2026-04-24T05:29:45.001Z</time></trkpt><trkpt lat="-18.12270059061577" lon="122.5637548942906"><ele>38.0</ele><time>2026-04-24T05:29:46.001Z</time></trkpt><trkpt lat="-18.12249580059316" lon="122.56400144793172"><ele>38.0</ele><time>2026-04-24T05:29:47.001Z</time></trkpt><trkpt lat="-18.12229189908953" lon="122.564246190938"><ele>38.0</ele><time>2026-04-24T05:29:48.001Z</time></trkpt><trkpt lat="-18.1220881068701" lon="122.56448966340307"><ele>38.5</ele><time>2026-04-24T05:29:49.001Z</time></trkpt><trkpt lat="-18.121883921396957" lon="122.56473080106561"><ele>39.0</ele><time>2026-04-24T05:29:50.001Z</time></trkpt><trkpt lat="-18.121680292053934" lon="122.5649732605483"><ele>39.0</ele><time>2026-04-24T05:29:51.001Z</time></trkpt><trkpt lat="-18.121478172034696" lon="122.56521516481305"><ele>39.0</ele><time>2026-04-24T05:29:52.001Z</time></trkpt><trkpt lat="-18.121276673174588" lon="122.56545268158487"><ele>37.5</ele><time>2026-04-24T05:29:53.001Z</time></trkpt><trkpt lat="-18.12107453590958" lon="122.56568412551445"><ele>36.0</ele><time>2026-04-24T05:29:54.001Z</time></trkpt><trkpt lat="-18.120868892550554" lon="122.56591183723783"><ele>36.5</ele><time>2026-04-24T05:29:55.001Z</time></trkpt><trkpt lat="-18.120658307317512" lon="122.56612901617449"><ele>37.0</ele><time>2026-04-24T05:29:56.001Z</time></trkpt><trkpt lat="-18.120436725218873" lon="122.56633845062754"><ele>36.0</ele><time>2026-04-24T05:29:57.001Z</time></trkpt><trkpt lat="-18.120211086248013" lon="122.56654109818474"><ele>35.0</ele><time>2026-04-24T05:29:58.001Z</time></trkpt><trkpt lat="-18.11998363485505" lon="122.56673626587497"><ele>36.0</ele><time>2026-04-24T05:29:59.001Z</time></trkpt><trkpt lat="-18.119750558791264" lon="122.56692620356391"><ele>37.0</ele><time>2026-04-24T05:30:00.001Z</time></trkpt><trkpt lat="-18.119509549627956" lon="122.56711105767074"><ele>37.0</ele><time>2026-04-24T05:30:01.001Z</time></trkpt><trkpt lat="-18.119264360527758" lon="122.56728793899256"><ele>37.0</ele><time>2026-04-24T05:30:02.001Z</time></trkpt><trkpt lat="-18.11901670725258" lon="122.56745973479948"><ele>37.0</ele><time>2026-04-24T05:30:03.001Z</time></trkpt><trkpt lat="-18.118763016809808" lon="122.56762425530977"><ele>37.0</ele><time>2026-04-24T05:30:04.001Z</time></trkpt><trkpt lat="-18.118502290359913" lon="122.5677813647802"><ele>37.5</ele><time>2026-04-24T05:30:05.001Z</time></trkpt><trkpt lat="-18.11824106702955" lon="122.56793186909628"><ele>38.0</ele><time>2026-04-24T05:30:06.001Z</time></trkpt><trkpt lat="-18.11797771927669" lon="122.56807433163432"><ele>38.0</ele><time>2026-04-24T05:30:07.001Z</time></trkpt><trkpt lat="-18.11771109112131" lon="122.56820451323742"><ele>38.0</ele><time>2026-04-24T05:30:08.001Z</time></trkpt><trkpt lat="-18.117439197301767" lon="122.5683271770718"><ele>38.5</ele><time>2026-04-24T05:30:09.001Z</time></trkpt><trkpt lat="-18.11716504801808" lon="122.56844159183603"><ele>39.0</ele><time>2026-04-24T05:30:10.001Z</time></trkpt><trkpt lat="-18.1168842437325" lon="122.5685517800515"><ele>39.0</ele><time>2026-04-24T05:30:11.001Z</time></trkpt><trkpt lat="-18.116600978388387" lon="122.56865495199159"><ele>39.0</ele><time>2026-04-24T05:30:12.001Z</time></trkpt><trkpt lat="-18.116316738489" lon="122.56875139206322"><ele>39.0</ele><time>2026-04-24T05:30:13.001Z</time></trkpt><trkpt lat="-18.11602658225647" lon="122.5688444803343"><ele>39.0</ele><time>2026-04-24T05:30:14.001Z</time></trkpt><trkpt lat="-18.115732994427407" lon="122.56894015937276"><ele>39.0</ele><time>2026-04-24T05:30:15.001Z</time></trkpt><trkpt lat="-18.115438003549492" lon="122.56904069398948"><ele>39.0</ele><time>2026-04-24T05:30:16.001Z</time></trkpt><trkpt lat="-18.11514511250796" lon="122.56914299776761"><ele>39.5</ele><time>2026-04-24T05:30:17.001Z</time></trkpt><trkpt lat="-18.114852632646908" lon="122.5692419427381"><ele>40.0</ele><time>2026-04-24T05:30:18.001Z</time></trkpt><trkpt lat="-18.114559333710602" lon="122.56933874447117"><ele>40.0</ele><time>2026-04-24T05:30:19.001Z</time></trkpt><trkpt lat="-18.11426734969322" lon="122.56943519556627"><ele>40.0</ele><time>2026-04-24T05:30:20.001Z</time></trkpt><trkpt lat="-18.11397622413551" lon="122.56953477775264"><ele>39.0</ele><time>2026-04-24T05:30:21.001Z</time></trkpt><trkpt lat="-18.11368285029102" lon="122.56963481157516"><ele>38.0</ele><time>2026-04-24T05:30:22.001Z</time></trkpt><trkpt lat="-18.113388940842693" lon="122.56973414688"><ele>39.0</ele><time>2026-04-24T05:30:23.001Z</time></trkpt><trkpt lat="-18.11309438855193" lon="122.56983265309475"><ele>40.0</ele><time>2026-04-24T05:30:24.001Z</time></trkpt><trkpt lat="-18.112801613292532" lon="122.56993287429319"><ele>40.0</ele><time>2026-04-24T05:30:25.001Z</time></trkpt><trkpt lat="-18.112509442769987" lon="122.5700353290411"><ele>40.0</ele><time>2026-04-24T05:30:26.001Z</time></trkpt><trkpt lat="-18.112219192741946" lon="122.57013694507081"><ele>41.0</ele><time>2026-04-24T05:30:27.001Z</time></trkpt><trkpt lat="-18.111926391405813" lon="122.57023594184264"><ele>42.0</ele><time>2026-04-24T05:30:28.001Z</time></trkpt><trkpt lat="-18.111633888506073" lon="122.57033310325707"><ele>40.5</ele><time>2026-04-24T05:30:29.001Z</time></trkpt><trkpt lat="-18.11133747986304" lon="122.5704304610125"><ele>39.0</ele><time>2026-04-24T05:30:30.001Z</time></trkpt><trkpt lat="-18.11103975571465" lon="122.57052713055542"><ele>39.0</ele><time>2026-04-24T05:30:31.001Z</time></trkpt><trkpt lat="-18.110744335594873" lon="122.57062546375246"><ele>39.0</ele><time>2026-04-24T05:30:32.001Z</time></trkpt><trkpt lat="-18.110144202842598" lon="122.57082929076392"><ele>39.5</ele><time>2026-04-24T05:30:34.001Z</time></trkpt><trkpt lat="-18.10984723576804" lon="122.57093367143362"><ele>40.0</ele><time>2026-04-24T05:30:35.001Z</time></trkpt><trkpt lat="-18.109549514494994" lon="122.57103649126988"><ele>40.0</ele><time>2026-04-24T05:30:36.001Z</time></trkpt><trkpt lat="-18.10925134351464" lon="122.57113787591176"><ele>40.0</ele><time>2026-04-24T05:30:37.001Z</time></trkpt><trkpt lat="-18.10894993076836" lon="122.57123817390519"><ele>39.5</ele><time>2026-04-24T05:30:38.001Z</time></trkpt><trkpt lat="-18.108648631708448" lon="122.571338470482"><ele>39.0</ele><time>2026-04-24T05:30:39.001Z</time></trkpt><trkpt lat="-18.10834608519812" lon="122.57143736863378"><ele>40.0</ele><time>2026-04-24T05:30:40.001Z</time></trkpt><trkpt lat="-18.108042367632077" lon="122.57153715125759"><ele>41.0</ele><time>2026-04-24T05:30:41.001Z</time></trkpt><trkpt lat="-18.107738284397623" lon="122.57163728904435"><ele>41.0</ele><time>2026-04-24T05:30:42.001Z</time></trkpt><trkpt lat="-18.10743496343241" lon="122.57173637001124"><ele>41.0</ele><time>2026-04-24T05:30:43.001Z</time></trkpt><trkpt lat="-18.107132995738464" lon="122.57184024467614"><ele>41.5</ele><time>2026-04-24T05:30:44.001Z</time></trkpt><trkpt lat="-18.106832766794327" lon="122.5719430876076"><ele>42.0</ele><time>2026-04-24T05:30:45.001Z</time></trkpt><trkpt lat="-18.106531895905245" lon="122.57204830215409"><ele>42.0</ele><time>2026-04-24T05:30:46.001Z</time></trkpt><trkpt lat="-18.10623651225567" lon="122.57215020379209"><ele>42.0</ele><time>2026-04-24T05:30:47.001Z</time></trkpt><trkpt lat="-18.105946877998644" lon="122.57224863766439"><ele>42.0</ele><time>2026-04-24T05:30:48.001Z</time></trkpt><trkpt lat="-18.105668058082916" lon="122.57233875824014"><ele>42.0</ele><time>2026-04-24T05:30:49.001Z</time></trkpt><trkpt lat="-18.105407987585366" lon="122.57242388447747"><ele>42.0</ele><time>2026-04-24T05:30:50.001Z</time></trkpt><trkpt lat="-18.105139917113114" lon="122.57251193417032"><ele>42.0</ele><time>2026-04-24T05:30:51.001Z</time></trkpt><trkpt lat="-18.10486586811264" lon="122.5726042788048"><ele>41.5</ele><time>2026-04-24T05:30:52.001Z</time></trkpt><trkpt lat="-18.104582013340867" lon="122.57269956900413"><ele>41.0</ele><time>2026-04-24T05:30:53.001Z</time></trkpt><trkpt lat="-18.104298670941002" lon="122.57279827089161"><ele>42.0</ele><time>2026-04-24T05:30:54.001Z</time></trkpt><trkpt lat="-18.104006685758222" lon="122.5728971838215"><ele>43.0</ele><time>2026-04-24T05:30:55.001Z</time></trkpt><trkpt lat="-18.103717107859918" lon="122.57299566837894"><ele>43.0</ele><time>2026-04-24T05:30:56.001Z</time></trkpt><trkpt lat="-18.103425753374832" lon="122.57309454395747"><ele>43.0</ele><time>2026-04-24T05:30:57.001Z</time></trkpt><trkpt lat="-18.103134816788618" lon="122.57319391417361"><ele>42.5</ele><time>2026-04-24T05:30:58.001Z</time></trkpt><trkpt lat="-18.102845427630267" lon="122.57329121596095"><ele>42.0</ele><time>2026-04-24T05:30:59.001Z</time></trkpt><trkpt lat="-18.102555496947296" lon="122.57338313022936"><ele>43.0</ele><time>2026-04-24T05:31:00.001Z</time></trkpt><trkpt lat="-18.10226542857508" lon="122.57347793576561"><ele>44.0</ele><time>2026-04-24T05:31:01.001Z</time></trkpt><trkpt lat="-18.10197798254891" lon="122.57357621044736"><ele>44.0</ele><time>2026-04-24T05:31:02.001Z</time></trkpt><trkpt lat="-18.10169117567478" lon="122.57367570353823"><ele>44.0</ele><time>2026-04-24T05:31:03.001Z</time></trkpt><trkpt lat="-18.101404954140957" lon="122.5737729091947"><ele>44.5</ele><time>2026-04-24T05:31:04.001Z</time></trkpt><trkpt lat="-18.101116512924268" lon="122.57386837454196"><ele>45.0</ele><time>2026-04-24T05:31:05.001Z</time></trkpt><trkpt lat="-18.10082447084786" lon="122.57396375372112"><ele>45.0</ele><time>2026-04-24T05:31:06.001Z</time></trkpt><trkpt lat="-18.100533027790476" lon="122.57406015149277"><ele>45.0</ele><time>2026-04-24T05:31:07.001Z</time></trkpt><trkpt lat="-18.100242196935476" lon="122.57415844820368"><ele>45.0</ele><time>2026-04-24T05:31:08.001Z</time></trkpt><trkpt lat="-18.099953722352005" lon="122.57425680473126"><ele>45.0</ele><time>2026-04-24T05:31:09.001Z</time></trkpt><trkpt lat="-18.09966272610829" lon="122.57435654458371"><ele>45.0</ele><time>2026-04-24T05:31:10.001Z</time></trkpt><trkpt lat="-18.099369646673257" lon="122.5744547968345"><ele>45.0</ele><time>2026-04-24T05:31:11.001Z</time></trkpt><trkpt lat="-18.099077674321844" lon="122.5745541706336"><ele>45.0</ele><time>2026-04-24T05:31:12.001Z</time></trkpt><trkpt lat="-18.098785680503543" lon="122.57465470399826"><ele>45.0</ele><time>2026-04-24T05:31:13.001Z</time></trkpt><trkpt lat="-18.09849396017387" lon="122.57475583491212"><ele>45.0</ele><time>2026-04-24T05:31:14.001Z</time></trkpt><trkpt lat="-18.098199805031346" lon="122.5748553796592"><ele>45.0</ele><time>2026-04-24T05:31:15.001Z</time></trkpt><trkpt lat="-18.09790364879198" lon="122.57495497771079"><ele>45.0</ele><time>2026-04-24T05:31:16.001Z</time></trkpt><trkpt lat="-18.09760742848375" lon="122.5750565274452"><ele>45.0</ele><time>2026-04-24T05:31:17.001Z</time></trkpt><trkpt lat="-18.09731074530835" lon="122.57515566622793"><ele>45.0</ele><time>2026-04-24T05:31:18.001Z</time></trkpt><trkpt lat="-18.097014254517113" lon="122.57525315552199"><ele>45.0</ele><time>2026-04-24T05:31:19.001Z</time></trkpt><trkpt lat="-18.096717345718105" lon="122.57535168920526"><ele>45.0</ele><time>2026-04-24T05:31:20.001Z</time></trkpt><trkpt lat="-18.096419196754102" lon="122.57545114943899"><ele>45.0</ele><time>2026-04-24T05:31:21.001Z</time></trkpt><trkpt lat="-18.09612348311034" lon="122.57555300468321"><ele>45.0</ele><time>2026-04-24T05:31:22.001Z</time></trkpt><trkpt lat="-18.095825567616767" lon="122.57565349316228"><ele>45.0</ele><time>2026-04-24T05:31:23.001Z</time></trkpt><trkpt lat="-18.095528676461065" lon="122.57575298731473"><ele>46.0</ele><time>2026-04-24T05:31:24.001Z</time></trkpt><trkpt lat="-18.095231702787324" lon="122.57585266056431"><ele>47.0</ele><time>2026-04-24T05:31:25.001Z</time></trkpt><trkpt lat="-18.094933751245215" lon="122.57594959657406"><ele>46.5</ele><time>2026-04-24T05:31:26.001Z</time></trkpt><trkpt lat="-18.09463313941871" lon="122.57604784689946"><ele>46.0</ele><time>2026-04-24T05:31:27.001Z</time></trkpt><trkpt lat="-18.094336693666623" lon="122.576146464008"><ele>45.5</ele><time>2026-04-24T05:31:28.001Z</time></trkpt><trkpt lat="-18.094039619837464" lon="122.57624585733119"><ele>45.0</ele><time>2026-04-24T05:31:29.001Z</time></trkpt><trkpt lat="-18.093743646891912" lon="122.57634587187994"><ele>45.0</ele><time>2026-04-24T05:31:30.001Z</time></trkpt><trkpt lat="-18.09344961985223" lon="122.5764461352309"><ele>45.0</ele><time>2026-04-24T05:31:31.001Z</time></trkpt><trkpt lat="-18.093156247961407" lon="122.57654737202739"><ele>46.0</ele><time>2026-04-24T05:31:32.001Z</time></trkpt><trkpt lat="-18.092861239378692" lon="122.57664747782529"><ele>47.0</ele><time>2026-04-24T05:31:33.001Z</time></trkpt><trkpt lat="-18.092565280616608" lon="122.57674698269692"><ele>47.5</ele><time>2026-04-24T05:31:34.001Z</time></trkpt><trkpt lat="-18.09226773357254" lon="122.57684852105494"><ele>48.0</ele><time>2026-04-24T05:31:35.001Z</time></trkpt><trkpt lat="-18.091966506459052" lon="122.57695056682762"><ele>47.5</ele><time>2026-04-24T05:31:36.001Z</time></trkpt><trkpt lat="-18.091664229899134" lon="122.57705284036199"><ele>47.0</ele><time>2026-04-24T05:31:37.001Z</time></trkpt><trkpt lat="-18.091362258359787" lon="122.57715441425712"><ele>47.0</ele><time>2026-04-24T05:31:38.001Z</time></trkpt><trkpt lat="-18.091059861601845" lon="122.57725638198448"><ele>47.0</ele><time>2026-04-24T05:31:39.001Z</time></trkpt><trkpt lat="-18.090754297209585" lon="122.57735635834759"><ele>48.0</ele><time>2026-04-24T05:31:40.001Z</time></trkpt><trkpt lat="-18.090451380732436" lon="122.5774580903217"><ele>49.0</ele><time>2026-04-24T05:31:41.001Z</time></trkpt><trkpt lat="-18.090150565196957" lon="122.57755888272006"><ele>49.0</ele><time>2026-04-24T05:31:42.001Z</time></trkpt><trkpt lat="-18.089851262467526" lon="122.57765904564519"><ele>49.0</ele><time>2026-04-24T05:31:43.001Z</time></trkpt><trkpt lat="-18.089555720743746" lon="122.57775889152278"><ele>48.5</ele><time>2026-04-24T05:31:44.001Z</time></trkpt><trkpt lat="-18.089263509872524" lon="122.57785980917279"><ele>48.0</ele><time>2026-04-24T05:31:45.001Z</time></trkpt><trkpt lat="-18.088974784286396" lon="122.5779584078033"><ele>47.0</ele><time>2026-04-24T05:31:46.001Z</time></trkpt><trkpt lat="-18.088682717753883" lon="122.5780585527865"><ele>46.0</ele><time>2026-04-24T05:31:47.001Z</time></trkpt><trkpt lat="-18.088389877791045" lon="122.57815767778541"><ele>45.5</ele><time>2026-04-24T05:31:48.001Z</time></trkpt><trkpt lat="-18.08809591729622" lon="122.57825528340707"><ele>45.0</ele><time>2026-04-24T05:31:49.001Z</time></trkpt><trkpt lat="-18.087799354231443" lon="122.57835328671597"><ele>45.0</ele><time>2026-04-24T05:31:50.001Z</time></trkpt><trkpt lat="-18.087502940537593" lon="122.57845134513674"><ele>45.0</ele><time>2026-04-24T05:31:51.001Z</time></trkpt><trkpt lat="-18.087200520197705" lon="122.57855361238138"><ele>45.5</ele><time>2026-04-24T05:31:52.001Z</time></trkpt><trkpt lat="-18.08689654165759" lon="122.57865836609501"><ele>46.0</ele><time>2026-04-24T05:31:53.001Z</time></trkpt><trkpt lat="-18.086591063304805" lon="122.5787648968403"><ele>46.0</ele><time>2026-04-24T05:31:54Z</time></trkpt><trkpt lat="-18.086283513659833" lon="122.57886907414684"><ele>46.0</ele><time>2026-04-24T05:31:55Z</time></trkpt><trkpt lat="-18.085976901928234" lon="122.57897062347658"><ele>46.0</ele><time>2026-04-24T05:31:56Z</time></trkpt><trkpt lat="-18.08567049148807" lon="122.5790725743793"><ele>46.0</ele><time>2026-04-24T05:31:57Z</time></trkpt><trkpt lat="-18.085364614898655" lon="122.57917160295872"><ele>46.0</ele><time>2026-04-24T05:31:58Z</time></trkpt><trkpt lat="-18.085058805088803" lon="122.57927125969064"><ele>46.0</ele><time>2026-04-24T05:31:59Z</time></trkpt><trkpt lat="-18.08475323964005" lon="122.57937474831549"><ele>46.0</ele><time>2026-04-24T05:32:00Z</time></trkpt><trkpt lat="-18.08445178073241" lon="122.57947833233392"><ele>46.0</ele><time>2026-04-24T05:32:01Z</time></trkpt><trkpt lat="-18.08414975629786" lon="122.57958269686307"><ele>46.0</ele><time>2026-04-24T05:32:02Z</time></trkpt><trkpt lat="-18.08385122058991" lon="122.57968750247"><ele>46.0</ele><time>2026-04-24T05:32:03Z</time></trkpt><trkpt lat="-18.083553973638807" lon="122.57979057702454"><ele>45.0</ele><time>2026-04-24T05:32:04Z</time></trkpt><trkpt lat="-18.083255859429393" lon="122.5798925654677"><ele>44.0</ele><time>2026-04-24T05:32:05Z</time></trkpt><trkpt lat="-18.082955835744684" lon="122.57999340866775"><ele>44.0</ele><time>2026-04-24T05:32:06Z</time></trkpt><trkpt lat="-18.082657906996168" lon="122.58009057485631"><ele>44.0</ele><time>2026-04-24T05:32:07Z</time></trkpt><trkpt lat="-18.08235628412742" lon="122.58019253960161"><ele>45.5</ele><time>2026-04-24T05:32:08Z</time></trkpt><trkpt lat="-18.08205438651175" lon="122.58029401359003"><ele>47.0</ele><time>2026-04-24T05:32:09Z</time></trkpt><trkpt lat="-18.08175423119964" lon="122.58039589681457"><ele>47.0</ele><time>2026-04-24T05:32:10Z</time></trkpt><trkpt lat="-18.08145296632786" lon="122.5804974883162"><ele>47.0</ele><time>2026-04-24T05:32:11Z</time></trkpt><trkpt lat="-18.081151618917147" lon="122.58059777633866"><ele>47.0</ele><time>2026-04-24T05:32:12Z</time></trkpt><trkpt lat="-18.080850474681014" lon="122.5806961695437"><ele>47.0</ele><time>2026-04-24T05:32:13Z</time></trkpt><trkpt lat="-18.080547690155615" lon="122.58079731889646"><ele>47.0</ele><time>2026-04-24T05:32:14Z</time></trkpt><trkpt lat="-18.08024411803899" lon="122.58090188893785"><ele>47.0</ele><time>2026-04-24T05:32:15Z</time></trkpt><trkpt lat="-18.07993827572681" lon="122.5810048152637"><ele>47.5</ele><time>2026-04-24T05:32:16Z</time></trkpt><trkpt lat="-18.079633389041625" lon="122.58110834518857"><ele>48.0</ele><time>2026-04-24T05:32:17Z</time></trkpt><trkpt lat="-18.079327751618628" lon="122.5812135486121"><ele>47.0</ele><time>2026-04-24T05:32:18Z</time></trkpt><trkpt lat="-18.079020498444148" lon="122.58131799329637"><ele>46.0</ele><time>2026-04-24T05:32:19Z</time></trkpt><trkpt lat="-18.07871139744175" lon="122.58142373902899"><ele>46.0</ele><time>2026-04-24T05:32:20Z</time></trkpt><trkpt lat="-18.078401686441627" lon="122.58152890542293"><ele>46.0</ele><time>2026-04-24T05:32:21Z</time></trkpt><trkpt lat="-18.07809499631723" lon="122.58162866196679"><ele>46.0</ele><time>2026-04-24T05:32:22Z</time></trkpt><trkpt lat="-18.077791570640333" lon="122.58172725631766"><ele>46.0</ele><time>2026-04-24T05:32:23Z</time></trkpt><trkpt lat="-18.077488435160063" lon="122.5818295696918"><ele>45.5</ele><time>2026-04-24T05:32:24Z</time></trkpt><trkpt lat="-18.077185822217583" lon="122.58193366660052"><ele>45.0</ele><time>2026-04-24T05:32:25Z</time></trkpt><trkpt lat="-18.076885451962067" lon="122.58203640017214"><ele>45.5</ele><time>2026-04-24T05:32:26Z</time></trkpt><trkpt lat="-18.07658507128254" lon="122.58213604619444"><ele>46.0</ele><time>2026-04-24T05:32:27Z</time></trkpt><trkpt lat="-18.076287254180432" lon="122.58223601388302"><ele>46.0</ele><time>2026-04-24T05:32:28Z</time></trkpt><trkpt lat="-18.075987999342047" lon="122.58233791464177"><ele>46.0</ele><time>2026-04-24T05:32:29Z</time></trkpt><trkpt lat="-18.075691182030447" lon="122.58244023101642"><ele>45.5</ele><time>2026-04-24T05:32:30Z</time></trkpt><trkpt lat="-18.075394137912316" lon="122.58254225305944"><ele>45.0</ele><time>2026-04-24T05:32:31Z</time></trkpt><trkpt lat="-18.075096161863968" lon="122.5826452041471"><ele>45.5</ele><time>2026-04-24T05:32:32Z</time></trkpt><trkpt lat="-18.074793665804673" lon="122.58274349631695"><ele>46.0</ele><time>2026-04-24T05:32:33Z</time></trkpt><trkpt lat="-18.074491284275982" lon="122.5828383910058"><ele>45.5</ele><time>2026-04-24T05:32:34Z</time></trkpt><trkpt lat="-18.074185568482054" lon="122.58293603759695"><ele>45.0</ele><time>2026-04-24T05:32:35Z</time></trkpt><trkpt lat="-18.073881296340858" lon="122.58303499559393"><ele>45.0</ele><time>2026-04-24T05:32:36Z</time></trkpt><trkpt lat="-18.07357805197751" lon="122.5831354909678"><ele>45.0</ele><time>2026-04-24T05:32:37Z</time></trkpt><trkpt lat="-18.073273470543107" lon="122.5832398950339"><ele>44.0</ele><time>2026-04-24T05:32:38Z</time></trkpt><trkpt lat="-18.072971560440305" lon="122.58334417658122"><ele>43.0</ele><time>2026-04-24T05:32:39Z</time></trkpt><trkpt lat="-18.072666653588513" lon="122.5834499220494"><ele>44.0</ele><time>2026-04-24T05:32:40Z</time></trkpt><trkpt lat="-18.072361060217563" lon="122.58355353435823"><ele>45.0</ele><time>2026-04-24T05:32:41Z</time></trkpt><trkpt lat="-18.072059644416104" lon="122.58365356028936"><ele>44.5</ele><time>2026-04-24T05:32:42Z</time></trkpt><trkpt lat="-18.071756736204467" lon="122.5837535875152"><ele>44.0</ele><time>2026-04-24T05:32:43Z</time></trkpt><trkpt lat="-18.07145425585053" lon="122.58385459892276"><ele>43.5</ele><time>2026-04-24T05:32:44Z</time></trkpt><trkpt lat="-18.071148727360697" lon="122.58395906719335"><ele>43.0</ele><time>2026-04-24T05:32:45Z</time></trkpt><trkpt lat="-18.070842467994716" lon="122.58406546667764"><ele>44.0</ele><time>2026-04-24T05:32:46Z</time></trkpt><trkpt lat="-18.070540176363895" lon="122.58417077297749"><ele>45.0</ele><time>2026-04-24T05:32:47Z</time></trkpt><trkpt lat="-18.070240159835695" lon="122.58426981497317"><ele>45.0</ele><time>2026-04-24T05:32:48Z</time></trkpt><trkpt lat="-18.069941481985072" lon="122.5843696263542"><ele>45.0</ele><time>2026-04-24T05:32:49Z</time></trkpt><trkpt lat="-18.06964608631691" lon="122.58447022426493"><ele>44.0</ele><time>2026-04-24T05:32:50Z</time></trkpt><trkpt lat="-18.069352036938202" lon="122.58456822515186"><ele>43.0</ele><time>2026-04-24T05:32:51Z</time></trkpt><trkpt lat="-18.06905798157511" lon="122.58466562558583"><ele>45.0</ele><time>2026-04-24T05:32:52Z</time></trkpt><trkpt lat="-18.068762477706212" lon="122.58476409108415"><ele>47.0</ele><time>2026-04-24T05:32:53Z</time></trkpt><trkpt lat="-18.06846478711538" lon="122.58486366134915"><ele>46.0</ele><time>2026-04-24T05:32:54Z</time></trkpt><trkpt lat="-18.068165540339034" lon="122.58496365298575"><ele>45.0</ele><time>2026-04-24T05:32:55Z</time></trkpt><trkpt lat="-18.067866975181264" lon="122.58506379170049"><ele>45.0</ele><time>2026-04-24T05:32:56Z</time></trkpt><trkpt lat="-18.067569071562893" lon="122.58516352581242"><ele>45.0</ele><time>2026-04-24T05:32:57Z</time></trkpt><trkpt lat="-18.06726743964935" lon="122.58526358388028"><ele>45.0</ele><time>2026-04-24T05:32:58Z</time></trkpt><trkpt lat="-18.06696552711061" lon="122.58536454452273"><ele>45.0</ele><time>2026-04-24T05:32:59Z</time></trkpt><trkpt lat="-18.066664944584236" lon="122.58546592573613"><ele>44.0</ele><time>2026-04-24T05:33:00Z</time></trkpt><trkpt lat="-18.066367274972976" lon="122.58556689184421"><ele>43.0</ele><time>2026-04-24T05:33:01Z</time></trkpt><trkpt lat="-18.066078913090433" lon="122.58566445363522"><ele>43.0</ele><time>2026-04-24T05:33:02Z</time></trkpt><trkpt lat="-18.065813907524056" lon="122.58575305679413"><ele>43.0</ele><time>2026-04-24T05:33:03Z</time></trkpt><trkpt lat="-18.065544126392975" lon="122.5858447936646"><ele>44.5</ele><time>2026-04-24T05:33:04Z</time></trkpt><trkpt lat="-18.065260755930858" lon="122.58593985827818"><ele>46.0</ele><time>2026-04-24T05:33:05Z</time></trkpt><trkpt lat="-18.064971791050375" lon="122.5860377996439"><ele>46.0</ele><time>2026-04-24T05:33:06Z</time></trkpt><trkpt lat="-18.064677396602146" lon="122.58613477249354"><ele>46.0</ele><time>2026-04-24T05:33:07Z</time></trkpt><trkpt lat="-18.064382538671985" lon="122.58623255023323"><ele>45.0</ele><time>2026-04-24T05:33:08.001Z</time></trkpt><trkpt lat="-18.06408420762796" lon="122.58633295636182"><ele>44.0</ele><time>2026-04-24T05:33:09.001Z</time></trkpt><trkpt lat="-18.063785840341644" lon="122.58643536158063"><ele>44.0</ele><time>2026-04-24T05:33:10.001Z</time></trkpt><trkpt lat="-18.06348838005293" lon="122.58653959507934"><ele>44.0</ele><time>2026-04-24T05:33:11.001Z</time></trkpt><trkpt lat="-18.06318925461564" lon="122.58664217743039"><ele>44.0</ele><time>2026-04-24T05:33:12.001Z</time></trkpt><trkpt lat="-18.062886147569216" lon="122.58674412638265"><ele>44.0</ele><time>2026-04-24T05:33:13.001Z</time></trkpt><trkpt lat="-18.062581365462783" lon="122.58684354543492"><ele>44.5</ele><time>2026-04-24T05:33:14.001Z</time></trkpt><trkpt lat="-18.062275628466864" lon="122.58694403699843"><ele>45.0</ele><time>2026-04-24T05:33:15.001Z</time></trkpt><trkpt lat="-18.061970994725026" lon="122.58704431365982"><ele>45.5</ele><time>2026-04-24T05:33:16.001Z</time></trkpt><trkpt lat="-18.061668273420935" lon="122.5871439607447"><ele>46.0</ele><time>2026-04-24T05:33:17.001Z</time></trkpt><trkpt lat="-18.06136306246412" lon="122.58724373264944"><ele>45.0</ele><time>2026-04-24T05:33:18.001Z</time></trkpt><trkpt lat="-18.06105940768072" lon="122.58734721995923"><ele>44.0</ele><time>2026-04-24T05:33:19.001Z</time></trkpt><trkpt lat="-18.060756136470317" lon="122.58744909746214"><ele>44.0</ele><time>2026-04-24T05:33:20.001Z</time></trkpt><trkpt lat="-18.06045338909985" lon="122.58755211870509"><ele>44.0</ele><time>2026-04-24T05:33:21.001Z</time></trkpt><trkpt lat="-18.060153425632926" lon="122.5876572093893"><ele>44.0</ele><time>2026-04-24T05:33:22.001Z</time></trkpt><trkpt lat="-18.059858943629777" lon="122.58775968675657"><ele>44.0</ele><time>2026-04-24T05:33:23.001Z</time></trkpt><trkpt lat="-18.059566003749662" lon="122.58786190692247"><ele>43.0</ele><time>2026-04-24T05:33:24.001Z</time></trkpt><trkpt lat="-18.05927239802225" lon="122.58795955905543"><ele>42.0</ele><time>2026-04-24T05:33:25.001Z</time></trkpt><trkpt lat="-18.05897612820172" lon="122.5880553821425"><ele>42.0</ele><time>2026-04-24T05:33:26.001Z</time></trkpt><trkpt lat="-18.058679009585124" lon="122.58815340618058"><ele>42.0</ele><time>2026-04-24T05:33:27.001Z</time></trkpt><trkpt lat="-18.05838410508635" lon="122.58825128225061"><ele>42.0</ele><time>2026-04-24T05:33:28.001Z</time></trkpt><trkpt lat="-18.058089614142222" lon="122.58835029183075"><ele>42.0</ele><time>2026-04-24T05:33:29.001Z</time></trkpt><trkpt lat="-18.05779158095108" lon="122.58844791114853"><ele>42.0</ele><time>2026-04-24T05:33:30.001Z</time></trkpt><trkpt lat="-18.05749353029586" lon="122.58854777951397"><ele>42.0</ele><time>2026-04-24T05:33:31.001Z</time></trkpt><trkpt lat="-18.05719468394279" lon="122.58864934520726"><ele>41.5</ele><time>2026-04-24T05:33:32.001Z</time></trkpt><trkpt lat="-18.056896712005468" lon="122.58875186522405"><ele>41.0</ele><time>2026-04-24T05:33:33.001Z</time></trkpt><trkpt lat="-18.056598626962614" lon="122.5888564215119"><ele>41.0</ele><time>2026-04-24T05:33:34.001Z</time></trkpt><trkpt lat="-18.056304319250362" lon="122.58895585802973"><ele>41.0</ele><time>2026-04-24T05:33:35.001Z</time></trkpt><trkpt lat="-18.05601133230586" lon="122.58905357934468"><ele>40.5</ele><time>2026-04-24T05:33:36.001Z</time></trkpt><trkpt lat="-18.055718422035067" lon="122.58915187761062"><ele>40.0</ele><time>2026-04-24T05:33:37.001Z</time></trkpt><trkpt lat="-18.055424280386507" lon="122.58924953238464"><ele>40.0</ele><time>2026-04-24T05:33:38.001Z</time></trkpt><trkpt lat="-18.05512830791283" lon="122.58934721779758"><ele>40.0</ele><time>2026-04-24T05:33:39.001Z</time></trkpt><trkpt lat="-18.054835298854098" lon="122.58944487260597"><ele>40.5</ele><time>2026-04-24T05:33:40.001Z</time></trkpt><trkpt lat="-18.054543055892253" lon="122.58954120169426"><ele>41.0</ele><time>2026-04-24T05:33:41.001Z</time></trkpt><trkpt lat="-18.05425106623137" lon="122.58964151872836"><ele>40.0</ele><time>2026-04-24T05:33:42.001Z</time></trkpt><trkpt lat="-18.05395630461293" lon="122.5897411788813"><ele>39.0</ele><time>2026-04-24T05:33:43.001Z</time></trkpt><trkpt lat="-18.053662800667123" lon="122.58984088517924"><ele>39.0</ele><time>2026-04-24T05:33:44.001Z</time></trkpt><trkpt lat="-18.053366243314546" lon="122.58994068525702"><ele>39.0</ele><time>2026-04-24T05:33:45.001Z</time></trkpt><trkpt lat="-18.05306853574057" lon="122.59004107431927"><ele>39.0</ele><time>2026-04-24T05:33:46.001Z</time></trkpt><trkpt lat="-18.052770853440784" lon="122.59014045481123"><ele>39.0</ele><time>2026-04-24T05:33:47.001Z</time></trkpt><trkpt lat="-18.052472976171778" lon="122.59024066944586"><ele>39.5</ele><time>2026-04-24T05:33:48.001Z</time></trkpt><trkpt lat="-18.05217690174969" lon="122.59033916439893"><ele>40.0</ele><time>2026-04-24T05:33:49.001Z</time></trkpt><trkpt lat="-18.05188062502568" lon="122.5904392234585"><ele>38.0</ele><time>2026-04-24T05:33:50.001Z</time></trkpt><trkpt lat="-18.051585146344152" lon="122.59054077205121"><ele>36.0</ele><time>2026-04-24T05:33:51.001Z</time></trkpt><trkpt lat="-18.05129272270291" lon="122.59063979792407"><ele>36.0</ele><time>2026-04-24T05:33:52.001Z</time></trkpt><trkpt lat="-18.05100260006024" lon="122.5907375615097"><ele>36.0</ele><time>2026-04-24T05:33:53.001Z</time></trkpt><trkpt lat="-18.050713637518754" lon="122.59083426955198"><ele>37.0</ele><time>2026-04-24T05:33:54.001Z</time></trkpt><trkpt lat="-18.05042270496947" lon="122.59093226239042"><ele>38.0</ele><time>2026-04-24T05:33:55.001Z</time></trkpt><trkpt lat="-18.050129827946872" lon="122.59103169094908"><ele>38.0</ele><time>2026-04-24T05:33:56.001Z</time></trkpt><trkpt lat="-18.04983486572872" lon="122.59113203399492"><ele>38.0</ele><time>2026-04-24T05:33:57.001Z</time></trkpt><trkpt lat="-18.049538619352234" lon="122.59123296745334"><ele>38.0</ele><time>2026-04-24T05:33:58.001Z</time></trkpt><trkpt lat="-18.049239534208517" lon="122.59133154772577"><ele>38.0</ele><time>2026-04-24T05:33:59.001Z</time></trkpt><trkpt lat="-18.048938421087918" lon="122.59142905388008"><ele>36.5</ele><time>2026-04-24T05:34:00Z</time></trkpt><trkpt lat="-18.048633988994613" lon="122.59152792378087"><ele>35.0</ele><time>2026-04-24T05:34:01Z</time></trkpt><trkpt lat="-18.048327795733435" lon="122.59162941060517"><ele>35.0</ele><time>2026-04-24T05:34:02Z</time></trkpt><trkpt lat="-18.048022596244262" lon="122.59173235963611"><ele>35.0</ele><time>2026-04-24T05:34:03Z</time></trkpt><trkpt lat="-18.047718940839573" lon="122.5918357457979"><ele>34.0</ele><time>2026-04-24T05:34:04Z</time></trkpt><trkpt lat="-18.04741847652175" lon="122.59193701957574"><ele>33.0</ele><time>2026-04-24T05:34:05Z</time></trkpt><trkpt lat="-18.04711621672262" lon="122.59203676538812"><ele>33.0</ele><time>2026-04-24T05:34:06Z</time></trkpt><trkpt lat="-18.046818672237052" lon="122.59213563273033"><ele>33.0</ele><time>2026-04-24T05:34:07Z</time></trkpt><trkpt lat="-18.04652018236147" lon="122.59223702357495"><ele>31.5</ele><time>2026-04-24T05:34:08Z</time></trkpt><trkpt lat="-18.04622031169418" lon="122.59234022730921"><ele>30.0</ele><time>2026-04-24T05:34:09Z</time></trkpt><trkpt lat="-18.045921578425556" lon="122.59244150874574"><ele>29.5</ele><time>2026-04-24T05:34:10Z</time></trkpt><trkpt lat="-18.04562300760062" lon="122.59254228490445"><ele>29.0</ele><time>2026-04-24T05:34:11Z</time></trkpt><trkpt lat="-18.04532444018418" lon="122.59264573889197"><ele>29.0</ele><time>2026-04-24T05:34:12Z</time></trkpt><trkpt lat="-18.04502645836903" lon="122.59274941476988"><ele>29.0</ele><time>2026-04-24T05:34:13Z</time></trkpt><trkpt lat="-18.044729246006764" lon="122.59285270148997"><ele>28.5</ele><time>2026-04-24T05:34:14Z</time></trkpt><trkpt lat="-18.044432179700884" lon="122.59295456480174"><ele>28.0</ele><time>2026-04-24T05:34:15Z</time></trkpt><trkpt lat="-18.04413622343932" lon="122.59305472731579"><ele>28.5</ele><time>2026-04-24T05:34:16Z</time></trkpt><trkpt lat="-18.04383874442959" lon="122.5931523391282"><ele>29.0</ele><time>2026-04-24T05:34:17Z</time></trkpt><trkpt lat="-18.043542746821792" lon="122.59324732273409"><ele>28.0</ele><time>2026-04-24T05:34:18Z</time></trkpt><trkpt lat="-18.043249928299147" lon="122.59334218226503"><ele>27.0</ele><time>2026-04-24T05:34:19Z</time></trkpt><trkpt lat="-18.04296290415748" lon="122.59343743686755"><ele>27.0</ele><time>2026-04-24T05:34:20Z</time></trkpt><trkpt lat="-18.04267279742338" lon="122.59353277333354"><ele>27.0</ele><time>2026-04-24T05:34:21Z</time></trkpt><trkpt lat="-18.04237952333534" lon="122.59363017387058"><ele>27.5</ele><time>2026-04-24T05:34:22Z</time></trkpt><trkpt lat="-18.04208742751187" lon="122.59372958998289"><ele>28.0</ele><time>2026-04-24T05:34:23Z</time></trkpt><trkpt lat="-18.04179308705204" lon="122.59383035129912"><ele>28.0</ele><time>2026-04-24T05:34:24Z</time></trkpt><trkpt lat="-18.041497972580757" lon="122.59393118697945"><ele>28.0</ele><time>2026-04-24T05:34:25Z</time></trkpt><trkpt lat="-18.04120197025742" lon="122.59403352950162"><ele>28.0</ele><time>2026-04-24T05:34:26Z</time></trkpt><trkpt lat="-18.0409040167358" lon="122.59413845279522"><ele>28.0</ele><time>2026-04-24T05:34:27Z</time></trkpt><trkpt lat="-18.040603600504767" lon="122.59423986060479"><ele>28.0</ele><time>2026-04-24T05:34:28Z</time></trkpt><trkpt lat="-18.040299808493938" lon="122.5943412567998"><ele>28.0</ele><time>2026-04-24T05:34:29Z</time></trkpt><trkpt lat="-18.039997575940074" lon="122.59444023312932"><ele>27.0</ele><time>2026-04-24T05:34:30Z</time></trkpt><trkpt lat="-18.039692984331598" lon="122.59454035416077"><ele>26.0</ele><time>2026-04-24T05:34:31Z</time></trkpt><trkpt lat="-18.03938956032929" lon="122.59464119907602"><ele>25.0</ele><time>2026-04-24T05:34:32Z</time></trkpt><trkpt lat="-18.03908412777564" lon="122.5947408508372"><ele>24.0</ele><time>2026-04-24T05:34:33Z</time></trkpt><trkpt lat="-18.03878181824084" lon="122.59484143369936"><ele>24.0</ele><time>2026-04-24T05:34:34Z</time></trkpt><trkpt lat="-18.03848146813352" lon="122.59494107803641"><ele>24.0</ele><time>2026-04-24T05:34:35Z</time></trkpt><trkpt lat="-18.038186112956407" lon="122.59504082984067"><ele>24.5</ele><time>2026-04-24T05:34:36Z</time></trkpt><trkpt lat="-18.03789174023263" lon="122.59514409840602"><ele>25.0</ele><time>2026-04-24T05:34:37Z</time></trkpt><trkpt lat="-18.037595726567417" lon="122.59524432015581"><ele>25.5</ele><time>2026-04-24T05:34:38Z</time></trkpt><trkpt lat="-18.03729659600908" lon="122.5953456986336"><ele>26.0</ele><time>2026-04-24T05:34:39Z</time></trkpt><trkpt lat="-18.036994606873133" lon="122.59544789571432"><ele>26.0</ele><time>2026-04-24T05:34:40Z</time></trkpt><trkpt lat="-18.03669364492462" lon="122.59555120451216"><ele>26.0</ele><time>2026-04-24T05:34:41Z</time></trkpt><trkpt lat="-18.036394224608962" lon="122.59565328397248"><ele>26.0</ele><time>2026-04-24T05:34:42Z</time></trkpt><trkpt lat="-18.036096085296176" lon="122.5957550227075"><ele>26.0</ele><time>2026-04-24T05:34:43Z</time></trkpt><trkpt lat="-18.035797998431462" lon="122.59585511482146"><ele>26.5</ele><time>2026-04-24T05:34:44Z</time></trkpt><trkpt lat="-18.035509388209725" lon="122.59594716094394"><ele>27.0</ele><time>2026-04-24T05:34:45Z</time></trkpt><trkpt lat="-18.035240130794488" lon="122.59603692869806"><ele>26.5</ele><time>2026-04-24T05:34:46Z</time></trkpt><trkpt lat="-18.034968187536617" lon="122.59612735564151"><ele>26.0</ele><time>2026-04-24T05:34:47Z</time></trkpt><trkpt lat="-18.034689706427912" lon="122.5962205043462"><ele>26.0</ele><time>2026-04-24T05:34:48Z</time></trkpt><trkpt lat="-18.034408069407878" lon="122.59631774885229"><ele>26.0</ele><time>2026-04-24T05:34:49Z</time></trkpt><trkpt lat="-18.034125035689357" lon="122.59641326028827"><ele>25.0</ele><time>2026-04-24T05:34:50Z</time></trkpt><trkpt lat="-18.033835991210925" lon="122.59650596140449"><ele>24.0</ele><time>2026-04-24T05:34:51Z</time></trkpt><trkpt lat="-18.033547051394685" lon="122.59660122670961"><ele>26.0</ele><time>2026-04-24T05:34:52Z</time></trkpt><trkpt lat="-18.03325510204005" lon="122.59670322455878"><ele>28.0</ele><time>2026-04-24T05:34:53Z</time></trkpt><trkpt lat="-18.032963016779647" lon="122.59680565016629"><ele>28.0</ele><time>2026-04-24T05:34:54Z</time></trkpt><trkpt lat="-18.032667577932568" lon="122.59690608655062"><ele>28.0</ele><time>2026-04-24T05:34:55Z</time></trkpt><trkpt lat="-18.032367453686053" lon="122.59700548723458"><ele>27.5</ele><time>2026-04-24T05:34:56Z</time></trkpt><trkpt lat="-18.03206905520512" lon="122.59710595403057"><ele>27.0</ele><time>2026-04-24T05:34:57Z</time></trkpt><trkpt lat="-18.03177117321116" lon="122.59720703880687"><ele>27.5</ele><time>2026-04-24T05:34:58Z</time></trkpt><trkpt lat="-18.03147588553897" lon="122.59730513597025"><ele>28.0</ele><time>2026-04-24T05:34:59Z</time></trkpt><trkpt lat="-18.03117531008829" lon="122.59739986766586"><ele>28.0</ele><time>2026-04-24T05:35:00Z</time></trkpt><trkpt lat="-18.03087810702028" lon="122.59749720382412"><ele>28.0</ele><time>2026-04-24T05:35:01Z</time></trkpt><trkpt lat="-18.030584732948057" lon="122.59759811128924"><ele>26.0</ele><time>2026-04-24T05:35:02Z</time></trkpt><trkpt lat="-18.030290975201396" lon="122.59770150150094"><ele>24.0</ele><time>2026-04-24T05:35:03Z</time></trkpt><trkpt lat="-18.02999570757145" lon="122.59780603774098"><ele>23.5</ele><time>2026-04-24T05:35:04Z</time></trkpt><trkpt lat="-18.029700246008098" lon="122.59791402397273"><ele>23.0</ele><time>2026-04-24T05:35:05Z</time></trkpt><trkpt lat="-18.029408438967327" lon="122.59801236157338"><ele>22.5</ele><time>2026-04-24T05:35:06Z</time></trkpt><trkpt lat="-18.029118458873057" lon="122.59810428883675"><ele>22.0</ele><time>2026-04-24T05:35:07Z</time></trkpt><trkpt lat="-18.028831739781893" lon="122.59819854355344"><ele>22.0</ele><time>2026-04-24T05:35:08Z</time></trkpt><trkpt lat="-18.028546836108436" lon="122.59829357325452"><ele>22.0</ele><time>2026-04-24T05:35:09Z</time></trkpt><trkpt lat="-18.028257187922158" lon="122.59839050609403"><ele>23.0</ele><time>2026-04-24T05:35:10Z</time></trkpt><trkpt lat="-18.027967935313043" lon="122.59848497448687"><ele>24.0</ele><time>2026-04-24T05:35:11Z</time></trkpt><trkpt lat="-18.027676648965965" lon="122.59857714829032"><ele>22.5</ele><time>2026-04-24T05:35:12Z</time></trkpt><trkpt lat="-18.027384206186536" lon="122.5986719860128"><ele>21.0</ele><time>2026-04-24T05:35:13Z</time></trkpt><trkpt lat="-18.027090195349636" lon="122.598771563387"><ele>21.0</ele><time>2026-04-24T05:35:14Z</time></trkpt><trkpt lat="-18.026800766959145" lon="122.59887188792727"><ele>21.0</ele><time>2026-04-24T05:35:15Z</time></trkpt><trkpt lat="-18.026511408114857" lon="122.59897176713352"><ele>21.0</ele><time>2026-04-24T05:35:16Z</time></trkpt><trkpt lat="-18.026225289673402" lon="122.59906913509879"><ele>21.0</ele><time>2026-04-24T05:35:17Z</time></trkpt><trkpt lat="-18.025938311715894" lon="122.59915735802365"><ele>21.5</ele><time>2026-04-24T05:35:18Z</time></trkpt><trkpt lat="-18.02565083450044" lon="122.59923863377819"><ele>22.0</ele><time>2026-04-24T05:35:19Z</time></trkpt><trkpt lat="-18.025361966062903" lon="122.59930931370855"><ele>22.0</ele><time>2026-04-24T05:35:20Z</time></trkpt><trkpt lat="-18.025069372827616" lon="122.59936778387971"><ele>22.0</ele><time>2026-04-24T05:35:21Z</time></trkpt><trkpt lat="-18.024775499185488" lon="122.59941481359056"><ele>21.5</ele><time>2026-04-24T05:35:22Z</time></trkpt><trkpt lat="-18.024477969227025" lon="122.59945286097577"><ele>21.0</ele><time>2026-04-24T05:35:23.001Z</time></trkpt><trkpt lat="-18.02417733441378" lon="122.59948437184498"><ele>21.0</ele><time>2026-04-24T05:35:24.001Z</time></trkpt><trkpt lat="-18.023876729795976" lon="122.59950403686281"><ele>21.0</ele><time>2026-04-24T05:35:25.001Z</time></trkpt><trkpt lat="-18.023574250064765" lon="122.59951479272836"><ele>20.0</ele><time>2026-04-24T05:35:26.001Z</time></trkpt><trkpt lat="-18.023271452439175" lon="122.59951472023525"><ele>19.0</ele><time>2026-04-24T05:35:27.001Z</time></trkpt><trkpt lat="-18.022969037357274" lon="122.59950618582229"><ele>19.0</ele><time>2026-04-24T05:35:28.001Z</time></trkpt><trkpt lat="-18.02266874208069" lon="122.5994857483915"><ele>19.0</ele><time>2026-04-24T05:35:29.001Z</time></trkpt><trkpt lat="-18.0223742629691" lon="122.59945302247397"><ele>19.0</ele><time>2026-04-24T05:35:30.001Z</time></trkpt><trkpt lat="-18.022083391523893" lon="122.59940693840294"><ele>19.0</ele><time>2026-04-24T05:35:31.001Z</time></trkpt><trkpt lat="-18.021794926929456" lon="122.5993536634122"><ele>17.5</ele><time>2026-04-24T05:35:32.001Z</time></trkpt><trkpt lat="-18.02150359683858" lon="122.59928877133791"><ele>16.0</ele><time>2026-04-24T05:35:33.001Z</time></trkpt><trkpt lat="-18.021212213372593" lon="122.599211658227"><ele>16.0</ele><time>2026-04-24T05:35:34.001Z</time></trkpt><trkpt lat="-18.020918866183532" lon="122.59912226048564"><ele>16.0</ele><time>2026-04-24T05:35:35.001Z</time></trkpt><trkpt lat="-18.020624943916467" lon="122.59902259281166"><ele>16.5</ele><time>2026-04-24T05:35:36.001Z</time></trkpt><trkpt lat="-18.020331818473267" lon="122.59891532306563"><ele>17.0</ele><time>2026-04-24T05:35:37.001Z</time></trkpt><trkpt lat="-18.020043059567413" lon="122.59879904003266"><ele>16.5</ele><time>2026-04-24T05:35:38.001Z</time></trkpt><trkpt lat="-18.0197513560159" lon="122.5986685085874"><ele>16.0</ele><time>2026-04-24T05:35:39.001Z</time></trkpt><trkpt lat="-18.019463193955577" lon="122.59852745980237"><ele>15.0</ele><time>2026-04-24T05:35:40.001Z</time></trkpt><trkpt lat="-18.019180937348857" lon="122.59837701433173"><ele>14.0</ele><time>2026-04-24T05:35:41.001Z</time></trkpt><trkpt lat="-18.01890310826322" lon="122.59821014957144"><ele>13.5</ele><time>2026-04-24T05:35:42.001Z</time></trkpt><trkpt lat="-18.018633077839965" lon="122.59803024737322"><ele>13.0</ele><time>2026-04-24T05:35:43.001Z</time></trkpt><trkpt lat="-18.018370348723" lon="122.59784183403924"><ele>13.0</ele><time>2026-04-24T05:35:44.001Z</time></trkpt><trkpt lat="-18.018115244887984" lon="122.5976451705283"><ele>13.0</ele><time>2026-04-24T05:35:45.001Z</time></trkpt><trkpt lat="-18.017864193294812" lon="122.59744157937304"><ele>13.0</ele><time>2026-04-24T05:35:46.001Z</time></trkpt><trkpt lat="-18.017613246197307" lon="122.5972333939382"><ele>13.0</ele><time>2026-04-24T05:35:47.001Z</time></trkpt><trkpt lat="-18.017367060927906" lon="122.59702613279862"><ele>12.0</ele><time>2026-04-24T05:35:48.001Z</time></trkpt><trkpt lat="-18.017127068595933" lon="122.59681556827555"><ele>11.0</ele><time>2026-04-24T05:35:49.001Z</time></trkpt><trkpt lat="-18.016888902078374" lon="122.59660929155709"><ele>11.0</ele><time>2026-04-24T05:35:50.001Z</time></trkpt><trkpt lat="-18.016653063789228" lon="122.59640850660284"><ele>11.0</ele><time>2026-04-24T05:35:51.001Z</time></trkpt><trkpt lat="-18.01641576086767" lon="122.5962095984119"><ele>11.0</ele><time>2026-04-24T05:35:52.001Z</time></trkpt><trkpt lat="-18.016180832013575" lon="122.59601437316341"><ele>11.0</ele><time>2026-04-24T05:35:53.001Z</time></trkpt><trkpt lat="-18.01594576449646" lon="122.59582168129059"><ele>12.0</ele><time>2026-04-24T05:35:54.001Z</time></trkpt><trkpt lat="-18.015712301653508" lon="122.59563244588755"><ele>13.0</ele><time>2026-04-24T05:35:55.001Z</time></trkpt><trkpt lat="-18.015480074148023" lon="122.59544156947523"><ele>12.5</ele><time>2026-04-24T05:35:56.001Z</time></trkpt><trkpt lat="-18.015249414978545" lon="122.59524348265234"><ele>12.0</ele><time>2026-04-24T05:35:57.001Z</time></trkpt><trkpt lat="-18.01501789460741" lon="122.59504080434881"><ele>13.0</ele><time>2026-04-24T05:35:58.001Z</time></trkpt><trkpt lat="-18.01477981791243" lon="122.59483893457096"><ele>14.0</ele><time>2026-04-24T05:35:59.001Z</time></trkpt><trkpt lat="-18.014538082422472" lon="122.59463629349221"><ele>12.5</ele><time>2026-04-24T05:36:00.001Z</time></trkpt><trkpt lat="-18.01429075668023" lon="122.59443228341716"><ele>11.0</ele><time>2026-04-24T05:36:01.001Z</time></trkpt><trkpt lat="-18.014042481735157" lon="122.59422444202353"><ele>10.0</ele><time>2026-04-24T05:36:02.001Z</time></trkpt><trkpt lat="-18.013795528880486" lon="122.59401395949668"><ele>9.0</ele><time>2026-04-24T05:36:03.001Z</time></trkpt><trkpt lat="-18.013552124147488" lon="122.59380421064026"><ele>10.0</ele><time>2026-04-24T05:36:04.001Z</time></trkpt><trkpt lat="-18.013308553045427" lon="122.59359403921738"><ele>11.0</ele><time>2026-04-24T05:36:05.001Z</time></trkpt><trkpt lat="-18.013063127350073" lon="122.59338444851495"><ele>11.0</ele><time>2026-04-24T05:36:06Z</time></trkpt><trkpt lat="-18.012816525352477" lon="122.59317668337206"><ele>11.0</ele><time>2026-04-24T05:36:07Z</time></trkpt><trkpt lat="-18.012579737412825" lon="122.59297847584854"><ele>10.0</ele><time>2026-04-24T05:36:08Z</time></trkpt><trkpt lat="-18.012357984143435" lon="122.5927959099071"><ele>9.0</ele><time>2026-04-24T05:36:09Z</time></trkpt><trkpt lat="-18.012133674073308" lon="122.59260792283895"><ele>9.0</ele><time>2026-04-24T05:36:10Z</time></trkpt><trkpt lat="-18.011904687736966" lon="122.5924137763616"><ele>9.0</ele><time>2026-04-24T05:36:11Z</time></trkpt><trkpt lat="-18.011671040974974" lon="122.59221910011743"><ele>8.5</ele><time>2026-04-24T05:36:12Z</time></trkpt><trkpt lat="-18.011445006732295" lon="122.59202627721872"><ele>8.0</ele><time>2026-04-24T05:36:13Z</time></trkpt><trkpt lat="-18.011214091129514" lon="122.59182467019698"><ele>8.0</ele><time>2026-04-24T05:36:14Z</time></trkpt><trkpt lat="-18.010983216384787" lon="122.59162645495545"><ele>8.0</ele><time>2026-04-24T05:36:15Z</time></trkpt><trkpt lat="-18.01074667654892" lon="122.5914274907591"><ele>8.0</ele><time>2026-04-24T05:36:16Z</time></trkpt><trkpt lat="-18.01051312354563" lon="122.59123038147165"><ele>8.0</ele><time>2026-04-24T05:36:17Z</time></trkpt><trkpt lat="-18.010279096807672" lon="122.59103175130998"><ele>8.0</ele><time>2026-04-24T05:36:18Z</time></trkpt><trkpt lat="-18.010042782453507" lon="122.59083146336583"><ele>8.0</ele><time>2026-04-24T05:36:19Z</time></trkpt><trkpt lat="-18.009808093349374" lon="122.59063318038342"><ele>8.0</ele><time>2026-04-24T05:36:20Z</time></trkpt><trkpt lat="-18.009575789577564" lon="122.59043738879353"><ele>8.0</ele><time>2026-04-24T05:36:21Z</time></trkpt><trkpt lat="-18.009343217281295" lon="122.59024359444756"><ele>9.0</ele><time>2026-04-24T05:36:22Z</time></trkpt><trkpt lat="-18.00911047309201" lon="122.59004832179119"><ele>10.0</ele><time>2026-04-24T05:36:23Z</time></trkpt><trkpt lat="-18.00887545175129" lon="122.58985164468437"><ele>10.0</ele><time>2026-04-24T05:36:24Z</time></trkpt><trkpt lat="-18.008641066249" lon="122.589653945108"><ele>10.0</ele><time>2026-04-24T05:36:25Z</time></trkpt><trkpt lat="-18.008406594227978" lon="122.5894555690118"><ele>9.0</ele><time>2026-04-24T05:36:26Z</time></trkpt><trkpt lat="-18.00816995438591" lon="122.58925506316073"><ele>8.0</ele><time>2026-04-24T05:36:27Z</time></trkpt><trkpt lat="-18.007934246283565" lon="122.58905702603194"><ele>8.0</ele><time>2026-04-24T05:36:28Z</time></trkpt><trkpt lat="-18.007699690884845" lon="122.58886019764026"><ele>8.0</ele><time>2026-04-24T05:36:29Z</time></trkpt><trkpt lat="-18.007462225138724" lon="122.588664068062"><ele>8.0</ele><time>2026-04-24T05:36:30Z</time></trkpt><trkpt lat="-18.007222004854242" lon="122.58846486172492"><ele>8.0</ele><time>2026-04-24T05:36:31Z</time></trkpt><trkpt lat="-18.006983112181192" lon="122.58826218501142"><ele>8.0</ele><time>2026-04-24T05:36:32Z</time></trkpt><trkpt lat="-18.006742925864764" lon="122.58805753141999"><ele>8.0</ele><time>2026-04-24T05:36:33Z</time></trkpt><trkpt lat="-18.00650368529064" lon="122.58785467886553"><ele>7.5</ele><time>2026-04-24T05:36:34Z</time></trkpt><trkpt lat="-18.00626889634368" lon="122.58765578387752"><ele>7.0</ele><time>2026-04-24T05:36:35Z</time></trkpt><trkpt lat="-18.006038277091715" lon="122.58745987761138"><ele>7.0</ele><time>2026-04-24T05:36:36Z</time></trkpt><trkpt lat="-18.00580784490857" lon="122.58726465867537"><ele>7.0</ele><time>2026-04-24T05:36:37Z</time></trkpt><trkpt lat="-18.00557549123487" lon="122.58707025480471"><ele>7.5</ele><time>2026-04-24T05:36:38Z</time></trkpt><trkpt lat="-18.005341563126585" lon="122.58687536153296"><ele>8.0</ele><time>2026-04-24T05:36:39Z</time></trkpt><trkpt lat="-18.005106971025118" lon="122.5866782602328"><ele>8.0</ele><time>2026-04-24T05:36:40Z</time></trkpt><trkpt lat="-18.004874379182798" lon="122.58647944378536"><ele>8.0</ele><time>2026-04-24T05:36:41Z</time></trkpt><trkpt lat="-18.004643025233168" lon="122.58628118263846"><ele>8.5</ele><time>2026-04-24T05:36:42Z</time></trkpt><trkpt lat="-18.00441605022939" lon="122.58608809393894"><ele>9.0</ele><time>2026-04-24T05:36:43Z</time></trkpt><trkpt lat="-18.004189484946416" lon="122.58589684809016"><ele>9.5</ele><time>2026-04-24T05:36:44Z</time></trkpt><trkpt lat="-18.003964342849816" lon="122.58570912646589"><ele>10.0</ele><time>2026-04-24T05:36:45Z</time></trkpt><trkpt lat="-18.00374280841472" lon="122.585523418787"><ele>9.0</ele><time>2026-04-24T05:36:46Z</time></trkpt><trkpt lat="-18.003520074871027" lon="122.58533814601287"><ele>8.0</ele><time>2026-04-24T05:36:47Z</time></trkpt><trkpt lat="-18.003298804106528" lon="122.58515140728643"><ele>7.5</ele><time>2026-04-24T05:36:48Z</time></trkpt><trkpt lat="-18.003075166598315" lon="122.58496030796456"><ele>7.0</ele><time>2026-04-24T05:36:49Z</time></trkpt><trkpt lat="-18.00285326723141" lon="122.58476938981892"><ele>7.0</ele><time>2026-04-24T05:36:50Z</time></trkpt><trkpt lat="-18.002631047928062" lon="122.58458063217834"><ele>7.0</ele><time>2026-04-24T05:36:51Z</time></trkpt><trkpt lat="-18.00240747626347" lon="122.58439200011847"><ele>7.0</ele><time>2026-04-24T05:36:52Z</time></trkpt><trkpt lat="-18.00218666987658" lon="122.58420500059137"><ele>7.0</ele><time>2026-04-24T05:36:53Z</time></trkpt><trkpt lat="-18.001973312973448" lon="122.58402699829372"><ele>7.0</ele><time>2026-04-24T05:36:54Z</time></trkpt><trkpt lat="-18.00177284825" lon="122.58385920103599"><ele>7.0</ele><time>2026-04-24T05:36:55Z</time></trkpt><trkpt lat="-18.001576876560794" lon="122.58369669058945"><ele>6.5</ele><time>2026-04-24T05:36:56Z</time></trkpt><trkpt lat="-18.001393378089254" lon="122.58354128999574"><ele>6.0</ele><time>2026-04-24T05:36:57Z</time></trkpt><trkpt lat="-18.00122372210958" lon="122.58339816533227"><ele>6.0</ele><time>2026-04-24T05:36:58Z</time></trkpt><trkpt lat="-18.001056120578983" lon="122.58325806780125"><ele>6.0</ele><time>2026-04-24T05:36:59Z</time></trkpt><trkpt lat="-18.0008832961983" lon="122.58311393448756"><ele>6.0</ele><time>2026-04-24T05:37:00Z</time></trkpt><trkpt lat="-18.000706192369275" lon="122.58296625445375"><ele>6.333333333333334</ele><time>2026-04-24T05:37:01Z</time></trkpt><trkpt lat="-18.000534500305825" lon="122.58281797831638"><ele>6.666666666666667</ele><time>2026-04-24T05:37:02Z</time></trkpt><trkpt lat="-18.000375754439506" lon="122.58268049220895"><ele>7.0</ele><time>2026-04-24T05:37:03Z</time></trkpt><trkpt lat="-18.000221278951106" lon="122.58254873444059"><ele>7.0</ele><time>2026-04-24T05:37:04Z</time></trkpt><trkpt lat="-18.000065609322203" lon="122.58241885367556"><ele>7.0</ele><time>2026-04-24T05:37:05Z</time></trkpt><trkpt lat="-17.999906256978573" lon="122.58228711766859"><ele>7.0</ele><time>2026-04-24T05:37:06Z</time></trkpt><trkpt lat="-17.999748674916574" lon="122.58215456627158"><ele>7.0</ele><time>2026-04-24T05:37:07Z</time></trkpt><trkpt lat="-17.999591939075486" lon="122.58202035919051"><ele>7.0</ele><time>2026-04-24T05:37:08Z</time></trkpt><trkpt lat="-17.999438813273258" lon="122.58189103284664"><ele>7.0</ele><time>2026-04-24T05:37:09Z</time></trkpt><trkpt lat="-17.999295781364516" lon="122.58176863413625"><ele>6.333333333333334</ele><time>2026-04-24T05:37:10Z</time></trkpt><trkpt lat="-17.999161986869165" lon="122.58165339696305"><ele>5.666666666666667</ele><time>2026-04-24T05:37:11Z</time></trkpt><trkpt lat="-17.999033854435268" lon="122.5815452788274"><ele>5.0</ele><time>2026-04-24T05:37:12Z</time></trkpt><trkpt lat="-17.998907215044696" lon="122.5814379841916"><ele>5.0</ele><time>2026-04-24T05:37:13Z</time></trkpt><trkpt lat="-17.99877449202089" lon="122.58132462816316"><ele>5.0</ele><time>2026-04-24T05:37:14Z</time></trkpt><trkpt lat="-17.998641514157722" lon="122.58121122123042"><ele>5.0</ele><time>2026-04-24T05:37:15Z</time></trkpt><trkpt lat="-17.998512759979857" lon="122.58110252867083"><ele>5.333333333333334</ele><time>2026-04-24T05:37:16Z</time></trkpt><trkpt lat="-17.998382900194887" lon="122.58099060226276"><ele>5.666666666666667</ele><time>2026-04-24T05:37:17Z</time></trkpt><trkpt lat="-17.998252840171357" lon="122.58088002080386"><ele>6.0</ele><time>2026-04-24T05:37:18Z</time></trkpt><trkpt lat="-17.998118606163448" lon="122.58076812028152"><ele>6.666666666666666</ele><time>2026-04-24T05:37:19Z</time></trkpt><trkpt lat="-17.997985470873655" lon="122.58065836863032"><ele>7.333333333333333</ele><time>2026-04-24T05:37:20Z</time></trkpt><trkpt lat="-17.99785140531601" lon="122.58054792042381"><ele>8.0</ele><time>2026-04-24T05:37:21Z</time></trkpt><trkpt lat="-17.99771789694039" lon="122.58043642989935"><ele>8.333333333333332</ele><time>2026-04-24T05:37:22Z</time></trkpt><trkpt lat="-17.99758707606158" lon="122.58032412220996"><ele>8.666666666666666</ele><time>2026-04-24T05:37:23Z</time></trkpt><trkpt lat="-17.997456138917197" lon="122.58021258464179"><ele>9.0</ele><time>2026-04-24T05:37:24Z</time></trkpt><trkpt lat="-17.99732485497703" lon="122.58010103238459"><ele>9.666666666666666</ele><time>2026-04-24T05:37:25Z</time></trkpt><trkpt lat="-17.997196950716337" lon="122.57999570970885"><ele>10.333333333333332</ele><time>2026-04-24T05:37:26Z</time></trkpt><trkpt lat="-17.997067117539476" lon="122.57988279915902"><ele>11.0</ele><time>2026-04-24T05:37:27Z</time></trkpt><trkpt lat="-17.99693994204622" lon="122.57977513874822"><ele>11.0</ele><time>2026-04-24T05:37:28Z</time></trkpt><trkpt lat="-17.996813038278795" lon="122.5796673553451"><ele>11.0</ele><time>2026-04-24T05:37:29Z</time></trkpt><trkpt lat="-17.99668808943892" lon="122.57956350807306"><ele>11.0</ele><time>2026-04-24T05:37:30Z</time></trkpt><trkpt lat="-17.99656665867424" lon="122.57946191283644"><ele>9.666666666666666</ele><time>2026-04-24T05:37:31Z</time></trkpt><trkpt lat="-17.996441601374425" lon="122.57936294697808"><ele>8.333333333333334</ele><time>2026-04-24T05:37:32Z</time></trkpt><trkpt lat="-17.9963191157309" lon="122.5792620894784"><ele>7.0</ele><time>2026-04-24T05:37:33Z</time></trkpt><trkpt lat="-17.99619169493633" lon="122.57915761333759"><ele>7.0</ele><time>2026-04-24T05:37:34Z</time></trkpt><trkpt lat="-17.99605983940683" lon="122.57904498316837"><ele>7.0</ele><time>2026-04-24T05:37:35Z</time></trkpt><trkpt lat="-17.995920542188337" lon="122.57892761179416"><ele>7.0</ele><time>2026-04-24T05:37:36Z</time></trkpt><trkpt lat="-17.995775182664406" lon="122.57880454575846"><ele>7.666666666666667</ele><time>2026-04-24T05:37:37Z</time></trkpt><trkpt lat="-17.995621062221957" lon="122.57867372537339"><ele>8.333333333333334</ele><time>2026-04-24T05:37:38Z</time></trkpt><trkpt lat="-17.995467910087154" lon="122.57854426575118"><ele>9.0</ele><time>2026-04-24T05:37:39Z</time></trkpt><trkpt lat="-17.99530869699062" lon="122.5784112153041"><ele>9.0</ele><time>2026-04-24T05:37:40Z</time></trkpt><trkpt lat="-17.995142777062632" lon="122.57827058168361"><ele>9.0</ele><time>2026-04-24T05:37:41Z</time></trkpt><trkpt lat="-17.994963500314558" lon="122.57811946592874"><ele>9.0</ele><time>2026-04-24T05:37:42Z</time></trkpt><trkpt lat="-17.994777808898174" lon="122.57796127310375"><ele>8.5</ele><time>2026-04-24T05:37:43.001Z</time></trkpt><trkpt lat="-17.99458968357681" lon="122.57780139362443"><ele>8.0</ele><time>2026-04-24T05:37:44.001Z</time></trkpt><trkpt lat="-17.99440174759957" lon="122.57764123891748"><ele>8.0</ele><time>2026-04-24T05:37:45.001Z</time></trkpt><trkpt lat="-17.9942067600383" lon="122.57747477179178"><ele>8.0</ele><time>2026-04-24T05:37:46.001Z</time></trkpt><trkpt lat="-17.99400808020961" lon="122.57730496935997"><ele>7.5</ele><time>2026-04-24T05:37:47.001Z</time></trkpt><trkpt lat="-17.99380618059289" lon="122.5771311310519"><ele>7.0</ele><time>2026-04-24T05:37:48.001Z</time></trkpt><trkpt lat="-17.99360707043343" lon="122.57695273014201"><ele>8.5</ele><time>2026-04-24T05:37:49.001Z</time></trkpt><trkpt lat="-17.99341446093648" lon="122.57677273594052"><ele>10.0</ele><time>2026-04-24T05:37:50.001Z</time></trkpt><trkpt lat="-17.99322729788408" lon="122.57658817333137"><ele>10.0</ele><time>2026-04-24T05:37:51.001Z</time></trkpt><trkpt lat="-17.99304145151189" lon="122.5764009802366"><ele>10.0</ele><time>2026-04-24T05:37:52.001Z</time></trkpt><trkpt lat="-17.992860842266413" lon="122.57621206386212"><ele>9.0</ele><time>2026-04-24T05:37:53.001Z</time></trkpt><trkpt lat="-17.992682729783613" lon="122.5760198949923"><ele>8.0</ele><time>2026-04-24T05:37:54.001Z</time></trkpt><trkpt lat="-17.99249949804205" lon="122.57581925464535"><ele>8.0</ele><time>2026-04-24T05:37:55.001Z</time></trkpt><trkpt lat="-17.992312176697027" lon="122.57560948736868"><ele>8.0</ele><time>2026-04-24T05:37:56.001Z</time></trkpt><trkpt lat="-17.99212145875611" lon="122.57539616076645"><ele>8.5</ele><time>2026-04-24T05:37:57.001Z</time></trkpt><trkpt lat="-17.991927059148402" lon="122.57517894898602"><ele>9.0</ele><time>2026-04-24T05:37:58.001Z</time></trkpt><trkpt lat="-17.991725951470286" lon="122.57495630918761"><ele>9.0</ele><time>2026-04-24T05:37:59.001Z</time></trkpt><trkpt lat="-17.991521052606224" lon="122.5747290882363"><ele>9.0</ele><time>2026-04-24T05:38:00.001Z</time></trkpt><trkpt lat="-17.991313267440646" lon="122.57449881045463"><ele>9.5</ele><time>2026-04-24T05:38:01.001Z</time></trkpt><trkpt lat="-17.991103162822686" lon="122.57426352159567"><ele>10.0</ele><time>2026-04-24T05:38:02.001Z</time></trkpt><trkpt lat="-17.990901561445217" lon="122.57403769563031"><ele>10.0</ele><time>2026-04-24T05:38:03.001Z</time></trkpt><trkpt lat="-17.99069268482964" lon="122.57380727296444"><ele>10.0</ele><time>2026-04-24T05:38:04.001Z</time></trkpt><trkpt lat="-17.990481807799235" lon="122.5735733418652"><ele>10.0</ele><time>2026-04-24T05:38:05.001Z</time></trkpt><trkpt lat="-17.990282838509277" lon="122.5733508455505"><ele>10.0</ele><time>2026-04-24T05:38:06.001Z</time></trkpt><trkpt lat="-17.990079015493674" lon="122.57312051541638"><ele>9.5</ele><time>2026-04-24T05:38:07.001Z</time></trkpt><trkpt lat="-17.989871047095555" lon="122.57288541328363"><ele>9.0</ele><time>2026-04-24T05:38:08.001Z</time></trkpt><trkpt lat="-17.989661595054077" lon="122.5726522175641"><ele>9.0</ele><time>2026-04-24T05:38:09.001Z</time></trkpt><trkpt lat="-17.989452597080252" lon="122.57242006268297"><ele>9.0</ele><time>2026-04-24T05:38:10.001Z</time></trkpt><trkpt lat="-17.989241881144856" lon="122.57218611636823"><ele>9.5</ele><time>2026-04-24T05:38:11.001Z</time></trkpt><trkpt lat="-17.989026581075002" lon="122.57194970246418"><ele>10.0</ele><time>2026-04-24T05:38:12Z</time></trkpt><trkpt lat="-17.988809977056484" lon="122.57171169010951"><ele>10.0</ele><time>2026-04-24T05:38:13Z</time></trkpt><trkpt lat="-17.98859159898036" lon="122.57147066398514"><ele>10.0</ele><time>2026-04-24T05:38:14Z</time></trkpt><trkpt lat="-17.988371139316534" lon="122.57122398555875"><ele>10.0</ele><time>2026-04-24T05:38:15Z</time></trkpt><trkpt lat="-17.98815296354172" lon="122.57097448061572"><ele>10.0</ele><time>2026-04-24T05:38:16Z</time></trkpt><trkpt lat="-17.987936440344946" lon="122.57072677874801"><ele>10.0</ele><time>2026-04-24T05:38:17Z</time></trkpt><trkpt lat="-17.987718654321736" lon="122.5704835557077"><ele>10.0</ele><time>2026-04-24T05:38:18Z</time></trkpt><trkpt lat="-17.98750134130108" lon="122.57024420491345"><ele>9.5</ele><time>2026-04-24T05:38:19Z</time></trkpt><trkpt lat="-17.98728839503408" lon="122.57000738423457"><ele>9.0</ele><time>2026-04-24T05:38:20Z</time></trkpt><trkpt lat="-17.987079357150403" lon="122.56977177337274"><ele>9.0</ele><time>2026-04-24T05:38:21Z</time></trkpt><trkpt lat="-17.986870931231564" lon="122.56953798085027"><ele>9.0</ele><time>2026-04-24T05:38:22Z</time></trkpt><trkpt lat="-17.986660473887554" lon="122.56930599542119"><ele>9.5</ele><time>2026-04-24T05:38:23Z</time></trkpt><trkpt lat="-17.98645361351239" lon="122.56907659504674"><ele>10.0</ele><time>2026-04-24T05:38:24Z</time></trkpt><trkpt lat="-17.986243533121062" lon="122.56884669976974"><ele>9.0</ele><time>2026-04-24T05:38:25Z</time></trkpt><trkpt lat="-17.98603254003205" lon="122.56861397663218"><ele>8.0</ele><time>2026-04-24T05:38:26Z</time></trkpt><trkpt lat="-17.985828960658473" lon="122.56838381379715"><ele>8.0</ele><time>2026-04-24T05:38:27Z</time></trkpt><trkpt lat="-17.98561953594918" lon="122.56815036661322"><ele>8.0</ele><time>2026-04-24T05:38:28Z</time></trkpt><trkpt lat="-17.985412494116847" lon="122.56791809865808"><ele>8.0</ele><time>2026-04-24T05:38:29Z</time></trkpt><trkpt lat="-17.98520443837575" lon="122.5676856374293"><ele>8.0</ele><time>2026-04-24T05:38:30Z</time></trkpt><trkpt lat="-17.984997829968492" lon="122.56745217878228"><ele>7.5</ele><time>2026-04-24T05:38:31Z</time></trkpt><trkpt lat="-17.984784284590347" lon="122.56721597303115"><ele>7.0</ele><time>2026-04-24T05:38:32Z</time></trkpt><trkpt lat="-17.98456871065155" lon="122.56697758143353"><ele>6.5</ele><time>2026-04-24T05:38:33Z</time></trkpt><trkpt lat="-17.98435250562864" lon="122.56673861173212"><ele>6.0</ele><time>2026-04-24T05:38:34Z</time></trkpt><trkpt lat="-17.984135697692064" lon="122.56649929097702"><ele>7.0</ele><time>2026-04-24T05:38:35Z</time></trkpt><trkpt lat="-17.98391792613991" lon="122.56625988352178"><ele>8.0</ele><time>2026-04-24T05:38:36Z</time></trkpt><trkpt lat="-17.98370126315905" lon="122.56602140508048"><ele>8.5</ele><time>2026-04-24T05:38:37Z</time></trkpt><trkpt lat="-17.98348462431552" lon="122.56578237881777"><ele>9.0</ele><time>2026-04-24T05:38:38Z</time></trkpt><trkpt lat="-17.98326806812362" lon="122.56554317761349"><ele>9.5</ele><time>2026-04-24T05:38:39Z</time></trkpt><trkpt lat="-17.983052503476205" lon="122.56530146162329"><ele>10.0</ele><time>2026-04-24T05:38:40Z</time></trkpt><trkpt lat="-17.98283808999899" lon="122.56505969925621"><ele>10.0</ele><time>2026-04-24T05:38:41Z</time></trkpt><trkpt lat="-17.9826315768521" lon="122.56482494371569"><ele>10.0</ele><time>2026-04-24T05:38:42Z</time></trkpt><trkpt lat="-17.98243412547753" lon="122.56460603348815"><ele>10.5</ele><time>2026-04-24T05:38:43Z</time></trkpt><trkpt lat="-17.982237499626578" lon="122.56439125428737"><ele>11.0</ele><time>2026-04-24T05:38:44Z</time></trkpt><trkpt lat="-17.982041873436728" lon="122.56417418042162"><ele>11.0</ele><time>2026-04-24T05:38:45Z</time></trkpt><trkpt lat="-17.98184310861336" lon="122.56395097125655"><ele>11.0</ele><time>2026-04-24T05:38:46Z</time></trkpt><trkpt lat="-17.981644437427835" lon="122.5637274089711"><ele>8.5</ele><time>2026-04-24T05:38:47Z</time></trkpt><trkpt lat="-17.981439193843002" lon="122.56349858456826"><ele>6.0</ele><time>2026-04-24T05:38:48Z</time></trkpt><trkpt lat="-17.981229731158592" lon="122.56326659896303"><ele>6.0</ele><time>2026-04-24T05:38:49Z</time></trkpt><trkpt lat="-17.98101947594764" lon="122.56303289199953"><ele>6.0</ele><time>2026-04-24T05:38:50Z</time></trkpt><trkpt lat="-17.980807947486955" lon="122.56279703523765"><ele>7.5</ele><time>2026-04-24T05:38:51Z</time></trkpt><trkpt lat="-17.980595893747335" lon="122.56255570620841"><ele>9.0</ele><time>2026-04-24T05:38:52Z</time></trkpt><trkpt lat="-17.98038328064951" lon="122.56231417542632"><ele>9.0</ele><time>2026-04-24T05:38:53Z</time></trkpt><trkpt lat="-17.980168496226987" lon="122.56207283891749"><ele>9.0</ele><time>2026-04-24T05:38:54Z</time></trkpt><trkpt lat="-17.979952389968847" lon="122.56183337168916"><ele>7.5</ele><time>2026-04-24T05:38:55Z</time></trkpt><trkpt lat="-17.979734728311918" lon="122.56159412135473"><ele>6.0</ele><time>2026-04-24T05:38:56Z</time></trkpt><trkpt lat="-17.979516570877085" lon="122.56135290371944"><ele>7.5</ele><time>2026-04-24T05:38:57Z</time></trkpt><trkpt lat="-17.97929783860399" lon="122.56111223884827"><ele>9.0</ele><time>2026-04-24T05:38:58Z</time></trkpt><trkpt lat="-17.979080516564213" lon="122.56087149612263"><ele>9.5</ele><time>2026-04-24T05:38:59Z</time></trkpt><trkpt lat="-17.97886285540841" lon="122.56062839906498"><ele>10.0</ele><time>2026-04-24T05:39:00Z</time></trkpt><trkpt lat="-17.97864694212365" lon="122.56038490838301"><ele>9.5</ele><time>2026-04-24T05:39:01Z</time></trkpt><trkpt lat="-17.97842893941469" lon="122.56014150104882"><ele>9.0</ele><time>2026-04-24T05:39:02Z</time></trkpt><trkpt lat="-17.978211515759227" lon="122.55990031650333"><ele>9.0</ele><time>2026-04-24T05:39:03Z</time></trkpt><trkpt lat="-17.977992635054633" lon="122.5596594508713"><ele>9.0</ele><time>2026-04-24T05:39:04Z</time></trkpt><trkpt lat="-17.977776556683448" lon="122.55942072166664"><ele>9.0</ele><time>2026-04-24T05:39:05Z</time></trkpt><trkpt lat="-17.97756536876346" lon="122.55918414356387"><ele>9.0</ele><time>2026-04-24T05:39:06Z</time></trkpt><trkpt lat="-17.977355288742896" lon="122.55894775981324"><ele>9.0</ele><time>2026-04-24T05:39:07Z</time></trkpt><trkpt lat="-17.977146416807237" lon="122.55871385163513"><ele>9.0</ele><time>2026-04-24T05:39:08Z</time></trkpt><trkpt lat="-17.97693693615023" lon="122.55848028403422"><ele>9.0</ele><time>2026-04-24T05:39:09Z</time></trkpt><trkpt lat="-17.97672832334355" lon="122.55825059241255"><ele>9.0</ele><time>2026-04-24T05:39:10Z</time></trkpt><trkpt lat="-17.976517928869345" lon="122.55801913396978"><ele>9.5</ele><time>2026-04-24T05:39:11Z</time></trkpt><trkpt lat="-17.97629888769692" lon="122.55778008929032"><ele>10.0</ele><time>2026-04-24T05:39:12Z</time></trkpt><trkpt lat="-17.97608305070695" lon="122.55754050145958"><ele>10.0</ele><time>2026-04-24T05:39:13Z</time></trkpt><trkpt lat="-17.97587567131198" lon="122.55730729283576"><ele>10.0</ele><time>2026-04-24T05:39:14Z</time></trkpt><trkpt lat="-17.97567620898483" lon="122.55707992412181"><ele>9.5</ele><time>2026-04-24T05:39:15Z</time></trkpt><trkpt lat="-17.97547680923151" lon="122.55685399499616"><ele>9.0</ele><time>2026-04-24T05:39:16Z</time></trkpt><trkpt lat="-17.97527235308322" lon="122.55662446704501"><ele>9.0</ele><time>2026-04-24T05:39:17Z</time></trkpt><trkpt lat="-17.97506484044751" lon="122.55639194137488"><ele>9.0</ele><time>2026-04-24T05:39:18Z</time></trkpt><trkpt lat="-17.974853685246458" lon="122.55615624081608"><ele>11.0</ele><time>2026-04-24T05:39:19Z</time></trkpt><trkpt lat="-17.974642874341193" lon="122.55591934302356"><ele>13.0</ele><time>2026-04-24T05:39:20Z</time></trkpt><trkpt lat="-17.97443060875698" lon="122.5556797526476"><ele>13.0</ele><time>2026-04-24T05:39:21Z</time></trkpt><trkpt lat="-17.974216034770148" lon="122.55543808732341"><ele>13.0</ele><time>2026-04-24T05:39:22Z</time></trkpt><trkpt lat="-17.97400113658777" lon="122.5552015293805"><ele>12.5</ele><time>2026-04-24T05:39:23Z</time></trkpt><trkpt lat="-17.973788875919492" lon="122.55496636685383"><ele>12.0</ele><time>2026-04-24T05:39:24Z</time></trkpt><trkpt lat="-17.97357270929033" lon="122.5547285271558"><ele>11.5</ele><time>2026-04-24T05:39:25Z</time></trkpt><trkpt lat="-17.97335699325508" lon="122.55449184381615"><ele>11.0</ele><time>2026-04-24T05:39:26Z</time></trkpt><trkpt lat="-17.973138584811725" lon="122.5542529494818"><ele>11.0</ele><time>2026-04-24T05:39:27Z</time></trkpt><trkpt lat="-17.97292195036802" lon="122.5540150059181"><ele>11.0</ele><time>2026-04-24T05:39:28Z</time></trkpt><trkpt lat="-17.97270927355348" lon="122.55377638690247"><ele>11.0</ele><time>2026-04-24T05:39:29Z</time></trkpt><trkpt lat="-17.97249824184447" lon="122.55353899686818"><ele>11.0</ele><time>2026-04-24T05:39:30Z</time></trkpt><trkpt lat="-17.972287581049976" lon="122.55330458311576"><ele>11.0</ele><time>2026-04-24T05:39:31Z</time></trkpt><trkpt lat="-17.972076929052115" lon="122.55307218304262"><ele>11.0</ele><time>2026-04-24T05:39:32Z</time></trkpt><trkpt lat="-17.971867664989215" lon="122.55284020142857"><ele>10.5</ele><time>2026-04-24T05:39:33Z</time></trkpt><trkpt lat="-17.971655983370628" lon="122.55260564295493"><ele>10.0</ele><time>2026-04-24T05:39:34Z</time></trkpt><trkpt lat="-17.971441327500933" lon="122.55236938941863"><ele>10.0</ele><time>2026-04-24T05:39:35Z</time></trkpt><trkpt lat="-17.971227461078644" lon="122.55213195333398"><ele>10.0</ele><time>2026-04-24T05:39:36Z</time></trkpt><trkpt lat="-17.97101240655239" lon="122.55189110209152"><ele>10.0</ele><time>2026-04-24T05:39:37Z</time></trkpt><trkpt lat="-17.970797741050223" lon="122.55164972704584"><ele>10.0</ele><time>2026-04-24T05:39:38Z</time></trkpt><trkpt lat="-17.970583443608252" lon="122.55140989264024"><ele>10.5</ele><time>2026-04-24T05:39:39Z</time></trkpt><trkpt lat="-17.97036830259183" lon="122.55116985575967"><ele>11.0</ele><time>2026-04-24T05:39:40Z</time></trkpt><trkpt lat="-17.970154537800862" lon="122.55092790766969"><ele>10.0</ele><time>2026-04-24T05:39:41Z</time></trkpt><trkpt lat="-17.96994183109131" lon="122.55068986426666"><ele>9.0</ele><time>2026-04-24T05:39:42Z</time></trkpt><trkpt lat="-17.969731675978075" lon="122.55045695789208"><ele>9.0</ele><time>2026-04-24T05:39:43Z</time></trkpt><trkpt lat="-17.96952729720694" lon="122.55022805426283"><ele>9.0</ele><time>2026-04-24T05:39:44Z</time></trkpt><trkpt lat="-17.969325711355275" lon="122.55000536759864"><ele>9.5</ele><time>2026-04-24T05:39:45Z</time></trkpt><trkpt lat="-17.969125343150193" lon="122.54978425565375"><ele>10.0</ele><time>2026-04-24T05:39:46Z</time></trkpt><trkpt lat="-17.968925988078944" lon="122.54956419411046"><ele>10.0</ele><time>2026-04-24T05:39:47Z</time></trkpt><trkpt lat="-17.968727826445438" lon="122.54934253088048"><ele>10.0</ele><time>2026-04-24T05:39:48Z</time></trkpt><trkpt lat="-17.968527366535028" lon="122.54912156109192"><ele>10.0</ele><time>2026-04-24T05:39:49Z</time></trkpt><trkpt lat="-17.968326084027307" lon="122.54890059402798"><ele>10.0</ele><time>2026-04-24T05:39:50Z</time></trkpt><trkpt lat="-17.968124176060396" lon="122.54867504824468"><ele>10.0</ele><time>2026-04-24T05:39:51Z</time></trkpt><trkpt lat="-17.96792319220387" lon="122.54845114230496"><ele>10.0</ele><time>2026-04-24T05:39:52Z</time></trkpt><trkpt lat="-17.967724851290846" lon="122.5482301972261"><ele>10.0</ele><time>2026-04-24T05:39:53Z</time></trkpt><trkpt lat="-17.96752547735295" lon="122.54800540950205"><ele>10.0</ele><time>2026-04-24T05:39:54Z</time></trkpt><trkpt lat="-17.96732892754388" lon="122.54777925473155"><ele>10.0</ele><time>2026-04-24T05:39:55Z</time></trkpt><trkpt lat="-17.96712995067518" lon="122.54755238266004"><ele>10.0</ele><time>2026-04-24T05:39:56Z</time></trkpt><trkpt lat="-17.96692989073136" lon="122.54732821417117"><ele>10.0</ele><time>2026-04-24T05:39:57Z</time></trkpt><trkpt lat="-17.966726584674454" lon="122.54709885001465"><ele>10.0</ele><time>2026-04-24T05:39:58Z</time></trkpt><trkpt lat="-17.966522081630796" lon="122.5468734354408"><ele>9.5</ele><time>2026-04-24T05:39:59Z</time></trkpt><trkpt lat="-17.966313733234202" lon="122.54664420287811"><ele>9.0</ele><time>2026-04-24T05:40:00Z</time></trkpt><trkpt lat="-17.966108025184933" lon="122.54641899565819"><ele>9.5</ele><time>2026-04-24T05:40:01.001Z</time></trkpt><trkpt lat="-17.96590228469616" lon="122.5461905537101"><ele>10.0</ele><time>2026-04-24T05:40:02.001Z</time></trkpt><trkpt lat="-17.965691514791896" lon="122.54595705569197"><ele>10.0</ele><time>2026-04-24T05:40:03.001Z</time></trkpt><trkpt lat="-17.965479636264348" lon="122.54572439080131"><ele>10.0</ele><time>2026-04-24T05:40:04.001Z</time></trkpt><trkpt lat="-17.9652645463657" lon="122.54548601399749"><ele>10.0</ele><time>2026-04-24T05:40:05.001Z</time></trkpt><trkpt lat="-17.965055146441827" lon="122.54524777009999"><ele>10.0</ele><time>2026-04-24T05:40:06.001Z</time></trkpt><trkpt lat="-17.964847392845254" lon="122.54501322542714"><ele>11.0</ele><time>2026-04-24T05:40:07.001Z</time></trkpt><trkpt lat="-17.964638140415875" lon="122.5447818926063"><ele>12.0</ele><time>2026-04-24T05:40:08.001Z</time></trkpt><trkpt lat="-17.964431778659907" lon="122.54455404256865"><ele>11.5</ele><time>2026-04-24T05:40:09.001Z</time></trkpt><trkpt lat="-17.96422762534172" lon="122.5443268580165"><ele>11.0</ele><time>2026-04-24T05:40:10.001Z</time></trkpt><trkpt lat="-17.96402403023813" lon="122.54410116849799"><ele>10.5</ele><time>2026-04-24T05:40:11.001Z</time></trkpt><trkpt lat="-17.963823812433027" lon="122.54387710787454"><ele>10.0</ele><time>2026-04-24T05:40:12.001Z</time></trkpt><trkpt lat="-17.963618756754745" lon="122.54364860654672"><ele>10.0</ele><time>2026-04-24T05:40:13.001Z</time></trkpt><trkpt lat="-17.963415208124626" lon="122.54342240079774"><ele>10.0</ele><time>2026-04-24T05:40:14.001Z</time></trkpt><trkpt lat="-17.963210152520926" lon="122.5431949047594"><ele>10.0</ele><time>2026-04-24T05:40:15.001Z</time></trkpt><trkpt lat="-17.963002084534054" lon="122.54296770592995"><ele>10.0</ele><time>2026-04-24T05:40:16.001Z</time></trkpt><trkpt lat="-17.96279453113416" lon="122.54273749689233"><ele>10.0</ele><time>2026-04-24T05:40:17.001Z</time></trkpt><trkpt lat="-17.96259927028504" lon="122.54251596750046"><ele>10.0</ele><time>2026-04-24T05:40:18Z</time></trkpt><trkpt lat="-17.96241043754865" lon="122.54230106832475"><ele>9.0</ele><time>2026-04-24T05:40:19Z</time></trkpt><trkpt lat="-17.96221490632414" lon="122.54208405203076"><ele>8.0</ele><time>2026-04-24T05:40:20Z</time></trkpt><trkpt lat="-17.96201653019627" lon="122.54186466426671"><ele>8.0</ele><time>2026-04-24T05:40:21Z</time></trkpt><trkpt lat="-17.961817572966655" lon="122.54164687161312"><ele>8.0</ele><time>2026-04-24T05:40:22Z</time></trkpt><trkpt lat="-17.961614081534318" lon="122.54142579223571"><ele>9.0</ele><time>2026-04-24T05:40:23Z</time></trkpt><trkpt lat="-17.961413513926935" lon="122.54120416259906"><ele>10.0</ele><time>2026-04-24T05:40:24Z</time></trkpt><trkpt lat="-17.961211557546005" lon="122.54098095022971"><ele>10.0</ele><time>2026-04-24T05:40:25Z</time></trkpt><trkpt lat="-17.961009800107657" lon="122.54075662510161"><ele>10.0</ele><time>2026-04-24T05:40:26Z</time></trkpt><trkpt lat="-17.960803458187357" lon="122.54052456383901"><ele>10.5</ele><time>2026-04-24T05:40:27Z</time></trkpt><trkpt lat="-17.96059611156948" lon="122.54029015435259"><ele>11.0</ele><time>2026-04-24T05:40:28Z</time></trkpt><trkpt lat="-17.960387969007222" lon="122.54006011302917"><ele>11.0</ele><time>2026-04-24T05:40:29Z</time></trkpt><trkpt lat="-17.96017617644382" lon="122.5398314244016"><ele>11.0</ele><time>2026-04-24T05:40:30Z</time></trkpt><trkpt lat="-17.95996687070955" lon="122.53960173831247"><ele>9.5</ele><time>2026-04-24T05:40:31Z</time></trkpt><trkpt lat="-17.95975971304186" lon="122.53936652649813"><ele>8.0</ele><time>2026-04-24T05:40:32Z</time></trkpt><trkpt lat="-17.959553694693444" lon="122.53912918319534"><ele>8.0</ele><time>2026-04-24T05:40:33Z</time></trkpt><trkpt lat="-17.95934605188538" lon="122.53889551579077"><ele>8.0</ele><time>2026-04-24T05:40:34Z</time></trkpt><trkpt lat="-17.9591385191068" lon="122.53866516602793"><ele>9.0</ele><time>2026-04-24T05:40:35Z</time></trkpt><trkpt lat="-17.958930431304612" lon="122.53843549768061"><ele>10.0</ele><time>2026-04-24T05:40:36Z</time></trkpt><trkpt lat="-17.958721749538988" lon="122.53820417773485"><ele>10.0</ele><time>2026-04-24T05:40:37Z</time></trkpt><trkpt lat="-17.958512227051664" lon="122.53797140792418"><ele>10.0</ele><time>2026-04-24T05:40:38Z</time></trkpt><trkpt lat="-17.958301256804848" lon="122.53773671337335"><ele>10.0</ele><time>2026-04-24T05:40:39Z</time></trkpt><trkpt lat="-17.95808802586093" lon="122.53749902328069"><ele>10.0</ele><time>2026-04-24T05:40:40Z</time></trkpt><trkpt lat="-17.95787295954368" lon="122.53725913173388"><ele>9.5</ele><time>2026-04-24T05:40:41Z</time></trkpt><trkpt lat="-17.957655479962686" lon="122.53701809843257"><ele>9.0</ele><time>2026-04-24T05:40:42Z</time></trkpt><trkpt lat="-17.957437739836603" lon="122.5367763832405"><ele>8.0</ele><time>2026-04-24T05:40:43Z</time></trkpt><trkpt lat="-17.957221714805435" lon="122.53653583674371"><ele>7.0</ele><time>2026-04-24T05:40:44Z</time></trkpt><trkpt lat="-17.95700464761264" lon="122.53629485311475"><ele>7.0</ele><time>2026-04-24T05:40:45Z</time></trkpt><trkpt lat="-17.956788054734254" lon="122.53605349509978"><ele>7.0</ele><time>2026-04-24T05:40:46Z</time></trkpt><trkpt lat="-17.956572431323245" lon="122.53581545372958"><ele>8.0</ele><time>2026-04-24T05:40:47Z</time></trkpt><trkpt lat="-17.956357325434222" lon="122.53557532995008"><ele>9.0</ele><time>2026-04-24T05:40:48Z</time></trkpt><trkpt lat="-17.95614142168127" lon="122.53533377259498"><ele>9.0</ele><time>2026-04-24T05:40:49Z</time></trkpt><trkpt lat="-17.955925480064256" lon="122.53509479005037"><ele>9.0</ele><time>2026-04-24T05:40:50Z</time></trkpt><trkpt lat="-17.95570773989408" lon="122.53485752572088"><ele>9.0</ele><time>2026-04-24T05:40:51Z</time></trkpt><trkpt lat="-17.955494294884772" lon="122.53462268589918"><ele>9.0</ele><time>2026-04-24T05:40:52Z</time></trkpt><trkpt lat="-17.95528089874362" lon="122.53438377658071"><ele>9.0</ele><time>2026-04-24T05:40:53Z</time></trkpt><trkpt lat="-17.95506887995544" lon="122.53414431634526"><ele>9.0</ele><time>2026-04-24T05:40:54Z</time></trkpt><trkpt lat="-17.954857673488576" lon="122.53390335509532"><ele>9.0</ele><time>2026-04-24T05:40:55Z</time></trkpt><trkpt lat="-17.954645877597965" lon="122.53366571895194"><ele>9.0</ele><time>2026-04-24T05:40:56Z</time></trkpt><trkpt lat="-17.954432074175816" lon="122.53342735317676"><ele>9.0</ele><time>2026-04-24T05:40:57Z</time></trkpt><trkpt lat="-17.954215963027185" lon="122.53318954284632"><ele>9.0</ele><time>2026-04-24T05:40:58Z</time></trkpt><trkpt lat="-17.954001003722304" lon="122.53295362685604"><ele>9.0</ele><time>2026-04-24T05:40:59Z</time></trkpt><trkpt lat="-17.953786489916446" lon="122.53271499117234"><ele>9.0</ele><time>2026-04-24T05:41:00Z</time></trkpt><trkpt lat="-17.953574459550506" lon="122.53247675705846"><ele>9.5</ele><time>2026-04-24T05:41:01Z</time></trkpt><trkpt lat="-17.953363593721274" lon="122.53224219477963"><ele>10.0</ele><time>2026-04-24T05:41:02Z</time></trkpt><trkpt lat="-17.953155381537297" lon="122.53201113883291"><ele>10.5</ele><time>2026-04-24T05:41:03Z</time></trkpt><trkpt lat="-17.952944983019748" lon="122.53177396239941"><ele>11.0</ele><time>2026-04-24T05:41:04Z</time></trkpt><trkpt lat="-17.95273558480299" lon="122.53153811398667"><ele>10.5</ele><time>2026-04-24T05:41:05Z</time></trkpt><trkpt lat="-17.95252205880494" lon="122.53130798979174"><ele>10.0</ele><time>2026-04-24T05:41:06Z</time></trkpt><trkpt lat="-17.95230716854665" lon="122.53108163990247"><ele>10.0</ele><time>2026-04-24T05:41:07Z</time></trkpt><trkpt lat="-17.952096568554587" lon="122.53085127855233"><ele>10.0</ele><time>2026-04-24T05:41:08Z</time></trkpt><trkpt lat="-17.95189270524701" lon="122.53061328425757"><ele>9.5</ele><time>2026-04-24T05:41:09Z</time></trkpt><trkpt lat="-17.95168693097745" lon="122.53037436305486"><ele>9.0</ele><time>2026-04-24T05:41:10Z</time></trkpt><trkpt lat="-17.95148005912659" lon="122.53013871776537"><ele>9.0</ele><time>2026-04-24T05:41:11Z</time></trkpt><trkpt lat="-17.951267289922303" lon="122.52990392989244"><ele>9.0</ele><time>2026-04-24T05:41:12Z</time></trkpt><trkpt lat="-17.951050451902642" lon="122.52966681055955"><ele>9.0</ele><time>2026-04-24T05:41:13Z</time></trkpt><trkpt lat="-17.950834406127893" lon="122.52942722973525"><ele>9.0</ele><time>2026-04-24T05:41:14Z</time></trkpt><trkpt lat="-17.950618109793545" lon="122.52918442551103"><ele>9.0</ele><time>2026-04-24T05:41:15Z</time></trkpt><trkpt lat="-17.950402685889003" lon="122.52894013849404"><ele>9.0</ele><time>2026-04-24T05:41:16Z</time></trkpt><trkpt lat="-17.950183227734566" lon="122.52869563109682"><ele>9.5</ele><time>2026-04-24T05:41:17Z</time></trkpt><trkpt lat="-17.949961695091872" lon="122.52844871623654"><ele>10.0</ele><time>2026-04-24T05:41:18Z</time></trkpt><trkpt lat="-17.949740974345556" lon="122.5282018337721"><ele>10.0</ele><time>2026-04-24T05:41:19Z</time></trkpt><trkpt lat="-17.9495214688402" lon="122.52796033509796"><ele>10.0</ele><time>2026-04-24T05:41:20Z</time></trkpt><trkpt lat="-17.949302556227284" lon="122.52771931004091"><ele>9.5</ele><time>2026-04-24T05:41:21Z</time></trkpt><trkpt lat="-17.949083991382754" lon="122.5274776374492"><ele>9.0</ele><time>2026-04-24T05:41:22Z</time></trkpt><trkpt lat="-17.948869091412647" lon="122.52723577641542"><ele>10.0</ele><time>2026-04-24T05:41:23Z</time></trkpt><trkpt lat="-17.94865481261534" lon="122.52699476621822"><ele>11.0</ele><time>2026-04-24T05:41:24Z</time></trkpt><trkpt lat="-17.94844121287914" lon="122.52675615903291"><ele>10.5</ele><time>2026-04-24T05:41:25Z</time></trkpt><trkpt lat="-17.948225034032802" lon="122.52651610646693"><ele>10.0</ele><time>2026-04-24T05:41:26Z</time></trkpt><trkpt lat="-17.948006514024744" lon="122.52627497657451"><ele>11.0</ele><time>2026-04-24T05:41:27Z</time></trkpt><trkpt lat="-17.947784266267522" lon="122.52603176977142"><ele>12.0</ele><time>2026-04-24T05:41:28Z</time></trkpt><trkpt lat="-17.94756560709388" lon="122.52579113054126"><ele>12.0</ele><time>2026-04-24T05:41:29Z</time></trkpt><trkpt lat="-17.94735012054089" lon="122.52555243931803"><ele>12.0</ele><time>2026-04-24T05:41:30Z</time></trkpt><trkpt lat="-17.947138629614006" lon="122.5253157169556"><ele>11.5</ele><time>2026-04-24T05:41:31Z</time></trkpt><trkpt lat="-17.946926822567335" lon="122.52507806342773"><ele>11.0</ele><time>2026-04-24T05:41:32Z</time></trkpt><trkpt lat="-17.94671359921238" lon="122.52484045383133"><ele>10.5</ele><time>2026-04-24T05:41:33Z</time></trkpt><trkpt lat="-17.946506559326817" lon="122.52460649492618"><ele>10.0</ele><time>2026-04-24T05:41:34Z</time></trkpt><trkpt lat="-17.94629867031995" lon="122.52436958278177"><ele>11.0</ele><time>2026-04-24T05:41:35Z</time></trkpt><trkpt lat="-17.946090318820772" lon="122.52413790341572"><ele>12.0</ele><time>2026-04-24T05:41:36Z</time></trkpt><trkpt lat="-17.945881533369654" lon="122.52390689010771"><ele>12.0</ele><time>2026-04-24T05:41:37Z</time></trkpt><trkpt lat="-17.945673728107526" lon="122.52368077309603"><ele>12.0</ele><time>2026-04-24T05:41:38Z</time></trkpt><trkpt lat="-17.94546365162317" lon="122.52345299687741"><ele>12.0</ele><time>2026-04-24T05:41:39Z</time></trkpt><trkpt lat="-17.94525487508537" lon="122.52321937460789"><ele>12.0</ele><time>2026-04-24T05:41:40Z</time></trkpt><trkpt lat="-17.9450474455653" lon="122.52298849027932"><ele>11.0</ele><time>2026-04-24T05:41:41Z</time></trkpt><trkpt lat="-17.944839347644415" lon="122.52275809154929"><ele>10.0</ele><time>2026-04-24T05:41:42Z</time></trkpt><trkpt lat="-17.944628706870073" lon="122.52252747465955"><ele>10.0</ele><time>2026-04-24T05:41:43Z</time></trkpt><trkpt lat="-17.944414304138558" lon="122.52230144846763"><ele>10.0</ele><time>2026-04-24T05:41:44Z</time></trkpt><trkpt lat="-17.94421548627335" lon="122.52205496382552"><ele>9.5</ele><time>2026-04-24T05:41:45Z</time></trkpt><trkpt lat="-17.943992838351242" lon="122.52182317878712"><ele>9.0</ele><time>2026-04-24T05:41:46Z</time></trkpt><trkpt lat="-17.943786085119637" lon="122.52158386168632"><ele>9.0</ele><time>2026-04-24T05:41:47Z</time></trkpt><trkpt lat="-17.94357135921821" lon="122.52134556883814"><ele>9.0</ele><time>2026-04-24T05:41:48Z</time></trkpt><trkpt lat="-17.94335936909794" lon="122.52110782991772"><ele>9.5</ele><time>2026-04-24T05:41:49Z</time></trkpt><trkpt lat="-17.943147380047012" lon="122.52087069225765"><ele>10.0</ele><time>2026-04-24T05:41:50Z</time></trkpt><trkpt lat="-17.942936895798884" lon="122.52063652321077"><ele>10.0</ele><time>2026-04-24T05:41:51Z</time></trkpt><trkpt lat="-17.942740420885396" lon="122.5204157775057"><ele>10.0</ele><time>2026-04-24T05:41:52Z</time></trkpt><trkpt lat="-17.94254589176194" lon="122.52019669052895"><ele>9.5</ele><time>2026-04-24T05:41:53Z</time></trkpt><trkpt lat="-17.94234260223603" lon="122.51996876235495"><ele>9.0</ele><time>2026-04-24T05:41:54Z</time></trkpt><trkpt lat="-17.94213425779515" lon="122.51973502556416"><ele>9.0</ele><time>2026-04-24T05:41:55Z</time></trkpt><trkpt lat="-17.94191773399842" lon="122.51949608301561"><ele>9.0</ele><time>2026-04-24T05:41:56Z</time></trkpt><trkpt lat="-17.94170470203886" lon="122.51926040470346"><ele>8.0</ele><time>2026-04-24T05:41:57Z</time></trkpt><trkpt lat="-17.94149035143652" lon="122.51902532003504"><ele>7.0</ele><time>2026-04-24T05:41:58Z</time></trkpt><trkpt lat="-17.94127344704069" lon="122.51878302356641"><ele>7.0</ele><time>2026-04-24T05:41:59Z</time></trkpt><trkpt lat="-17.94105595549793" lon="122.51853831504341"><ele>7.0</ele><time>2026-04-24T05:42:00Z</time></trkpt><trkpt lat="-17.940841957015618" lon="122.51829835108016"><ele>7.0</ele><time>2026-04-24T05:42:01Z</time></trkpt><trkpt lat="-17.940635535449978" lon="122.51806390019357"><ele>7.0</ele><time>2026-04-24T05:42:02Z</time></trkpt><trkpt lat="-17.940429038857165" lon="122.51783310562708"><ele>8.0</ele><time>2026-04-24T05:42:03Z</time></trkpt><trkpt lat="-17.94022278688047" lon="122.51760380861423"><ele>9.0</ele><time>2026-04-24T05:42:04Z</time></trkpt><trkpt lat="-17.940015365441656" lon="122.51737996679981"><ele>9.5</ele><time>2026-04-24T05:42:05Z</time></trkpt><trkpt lat="-17.93980798061713" lon="122.51716411679368"><ele>10.0</ele><time>2026-04-24T05:42:06Z</time></trkpt><trkpt lat="-17.939597254838027" lon="122.51694965680369"><ele>9.0</ele><time>2026-04-24T05:42:07Z</time></trkpt><trkpt lat="-17.939379661487493" lon="122.51673562079264"><ele>8.0</ele><time>2026-04-24T05:42:08Z</time></trkpt><trkpt lat="-17.939153511388383" lon="122.51652227542459"><ele>8.0</ele><time>2026-04-24T05:42:09Z</time></trkpt><trkpt lat="-17.938920582254536" lon="122.51630942961009"><ele>8.0</ele><time>2026-04-24T05:42:10Z</time></trkpt><trkpt lat="-17.938679453479146" lon="122.5160996859074"><ele>8.0</ele><time>2026-04-24T05:42:11Z</time></trkpt><trkpt lat="-17.938432826258403" lon="122.51589409345965"><ele>8.0</ele><time>2026-04-24T05:42:12Z</time></trkpt><trkpt lat="-17.938183977929487" lon="122.51569527980247"><ele>8.5</ele><time>2026-04-24T05:42:13Z</time></trkpt><trkpt lat="-17.937930289936876" lon="122.51550138172692"><ele>9.0</ele><time>2026-04-24T05:42:14Z</time></trkpt><trkpt lat="-17.937674596269304" lon="122.51531252274302"><ele>9.0</ele><time>2026-04-24T05:42:15Z</time></trkpt><trkpt lat="-17.937415425433624" lon="122.515131638707"><ele>9.0</ele><time>2026-04-24T05:42:16Z</time></trkpt><trkpt lat="-17.937155010675674" lon="122.5149572185841"><ele>9.0</ele><time>2026-04-24T05:42:17Z</time></trkpt><trkpt lat="-17.93689477935667" lon="122.51478885712528"><ele>9.0</ele><time>2026-04-24T05:42:18Z</time></trkpt><trkpt lat="-17.936630746443505" lon="122.51462184290864"><ele>10.0</ele><time>2026-04-24T05:42:19Z</time></trkpt><trkpt lat="-17.93636473429191" lon="122.51445978602703"><ele>11.0</ele><time>2026-04-24T05:42:20Z</time></trkpt><trkpt lat="-17.936096765532323" lon="122.51430203785664"><ele>11.0</ele><time>2026-04-24T05:42:21Z</time></trkpt><trkpt lat="-17.93582304364083" lon="122.51414991483188"><ele>11.0</ele><time>2026-04-24T05:42:22Z</time></trkpt><trkpt lat="-17.93554630343051" lon="122.51400606659772"><ele>11.0</ele><time>2026-04-24T05:42:23Z</time></trkpt><trkpt lat="-17.935270699892218" lon="122.51386495933613"><ele>11.0</ele><time>2026-04-24T05:42:24Z</time></trkpt><trkpt lat="-17.934993453661843" lon="122.5137257569388"><ele>10.5</ele><time>2026-04-24T05:42:25Z</time></trkpt><trkpt lat="-17.934715483740263" lon="122.51358367212634"><ele>10.0</ele><time>2026-04-24T05:42:26Z</time></trkpt><trkpt lat="-17.93443669702009" lon="122.513442129143"><ele>10.5</ele><time>2026-04-24T05:42:27Z</time></trkpt><trkpt lat="-17.93415827871848" lon="122.51329805079952"><ele>11.0</ele><time>2026-04-24T05:42:28Z</time></trkpt><trkpt lat="-17.933877682861848" lon="122.51315303448067"><ele>11.0</ele><time>2026-04-24T05:42:29Z</time></trkpt><trkpt lat="-17.93359911941863" lon="122.51300826459662"><ele>11.0</ele><time>2026-04-24T05:42:30Z</time></trkpt><trkpt lat="-17.933319722459515" lon="122.5128634719471"><ele>10.5</ele><time>2026-04-24T05:42:31Z</time></trkpt><trkpt lat="-17.933043928423608" lon="122.51271776204713"><ele>10.0</ele><time>2026-04-24T05:42:32Z</time></trkpt><trkpt lat="-17.932769928928828" lon="122.51257439069119"><ele>9.5</ele><time>2026-04-24T05:42:33Z</time></trkpt><trkpt lat="-17.93249475033647" lon="122.51243154927224"><ele>9.0</ele><time>2026-04-24T05:42:34Z</time></trkpt><trkpt lat="-17.932219627349557" lon="122.51229068694825"><ele>9.0</ele><time>2026-04-24T05:42:35Z</time></trkpt><trkpt lat="-17.931946045136872" lon="122.5121509233795"><ele>9.0</ele><time>2026-04-24T05:42:36Z</time></trkpt><trkpt lat="-17.93167127489657" lon="122.51201145610185"><ele>9.0</ele><time>2026-04-24T05:42:37Z</time></trkpt><trkpt lat="-17.931395952920937" lon="122.51187243233258"><ele>9.0</ele><time>2026-04-24T05:42:38Z</time></trkpt><trkpt lat="-17.931121024622477" lon="122.51173001523235"><ele>9.5</ele><time>2026-04-24T05:42:39Z</time></trkpt><trkpt lat="-17.930843787710046" lon="122.5115850131692"><ele>10.0</ele><time>2026-04-24T05:42:40Z</time></trkpt><trkpt lat="-17.93056475811687" lon="122.51144015001609"><ele>10.0</ele><time>2026-04-24T05:42:41Z</time></trkpt><trkpt lat="-17.93028304315442" lon="122.51129539824518"><ele>10.0</ele><time>2026-04-24T05:42:42Z</time></trkpt><trkpt lat="-17.930001095135108" lon="122.51115243779518"><ele>10.0</ele><time>2026-04-24T05:42:43Z</time></trkpt><trkpt lat="-17.92972019789023" lon="122.51100946445666"><ele>10.0</ele><time>2026-04-24T05:42:44Z</time></trkpt><trkpt lat="-17.929440909008786" lon="122.51086584060322"><ele>10.0</ele><time>2026-04-24T05:42:45Z</time></trkpt><trkpt lat="-17.92916573244938" lon="122.51072566745553"><ele>10.0</ele><time>2026-04-24T05:42:46Z</time></trkpt><trkpt lat="-17.928890380421084" lon="122.51058501703791"><ele>10.0</ele><time>2026-04-24T05:42:47Z</time></trkpt><trkpt lat="-17.92861526966767" lon="122.51044336522502"><ele>10.0</ele><time>2026-04-24T05:42:48Z</time></trkpt><trkpt lat="-17.928340406306326" lon="122.51029963282313"><ele>9.0</ele><time>2026-04-24T05:42:49Z</time></trkpt><trkpt lat="-17.928064824774104" lon="122.51015567685019"><ele>8.0</ele><time>2026-04-24T05:42:50Z</time></trkpt><trkpt lat="-17.927788084913445" lon="122.51001121184548"><ele>10.0</ele><time>2026-04-24T05:42:51Z</time></trkpt><trkpt lat="-17.92751368682768" lon="122.50986686511595"><ele>12.0</ele><time>2026-04-24T05:42:52Z</time></trkpt><trkpt lat="-17.927238735572594" lon="122.50972426718153"><ele>12.0</ele><time>2026-04-24T05:42:53Z</time></trkpt><trkpt lat="-17.92696568858959" lon="122.50958235009026"><ele>12.0</ele><time>2026-04-24T05:42:54Z</time></trkpt><trkpt lat="-17.926681511855392" lon="122.50943180114074"><ele>9.5</ele><time>2026-04-24T05:42:55Z</time></trkpt><trkpt lat="-17.92640956819905" lon="122.50929099413504"><ele>7.0</ele><time>2026-04-24T05:42:56Z</time></trkpt><trkpt lat="-17.92613268595609" lon="122.50914931493337"><ele>7.5</ele><time>2026-04-24T05:42:57Z</time></trkpt><trkpt lat="-17.925856732479957" lon="122.50900827971847"><ele>8.0</ele><time>2026-04-24T05:42:58Z</time></trkpt><trkpt lat="-17.92557875197946" lon="122.50886444767083"><ele>9.0</ele><time>2026-04-24T05:42:59Z</time></trkpt><trkpt lat="-17.925301499683847" lon="122.50872015828233"><ele>10.0</ele><time>2026-04-24T05:43:00Z</time></trkpt><trkpt lat="-17.92502440812444" lon="122.50857683155137"><ele>10.0</ele><time>2026-04-24T05:43:01Z</time></trkpt><trkpt lat="-17.92474516354304" lon="122.50843173987067"><ele>10.0</ele><time>2026-04-24T05:43:02Z</time></trkpt><trkpt lat="-17.924465280031935" lon="122.50828647806271"><ele>9.5</ele><time>2026-04-24T05:43:03Z</time></trkpt><trkpt lat="-17.924186301370042" lon="122.50814161618038"><ele>9.0</ele><time>2026-04-24T05:43:04Z</time></trkpt><trkpt lat="-17.923912631952778" lon="122.508001244994"><ele>9.0</ele><time>2026-04-24T05:43:05Z</time></trkpt><trkpt lat="-17.923645692506806" lon="122.50786451967586"><ele>9.0</ele><time>2026-04-24T05:43:06Z</time></trkpt><trkpt lat="-17.923382846594958" lon="122.50772980492907"><ele>9.0</ele><time>2026-04-24T05:43:07Z</time></trkpt><trkpt lat="-17.92312299879885" lon="122.50759975000328"><ele>9.0</ele><time>2026-04-24T05:43:08Z</time></trkpt><trkpt lat="-17.922868826610575" lon="122.50746777390178"><ele>9.0</ele><time>2026-04-24T05:43:09Z</time></trkpt><trkpt lat="-17.922614182835524" lon="122.50733360860903"><ele>9.0</ele><time>2026-04-24T05:43:10Z</time></trkpt><trkpt lat="-17.922353609157945" lon="122.50719738303033"><ele>10.0</ele><time>2026-04-24T05:43:11Z</time></trkpt><trkpt lat="-17.92209413110585" lon="122.5070616981806"><ele>11.0</ele><time>2026-04-24T05:43:12Z</time></trkpt><trkpt lat="-17.921832019408967" lon="122.50692731173828"><ele>12.5</ele><time>2026-04-24T05:43:13Z</time></trkpt><trkpt lat="-17.921559686331406" lon="122.5067868510228"><ele>14.0</ele><time>2026-04-24T05:43:14Z</time></trkpt><trkpt lat="-17.9212848460825" lon="122.50664693632986"><ele>14.0</ele><time>2026-04-24T05:43:15Z</time></trkpt><trkpt lat="-17.921031490633293" lon="122.50652300037959"><ele>14.0</ele><time>2026-04-24T05:43:16Z</time></trkpt><trkpt lat="-17.920777908241636" lon="122.50640440772932"><ele>13.5</ele><time>2026-04-24T05:43:17Z</time></trkpt><trkpt lat="-17.92051014196087" lon="122.50628627129153"><ele>13.0</ele><time>2026-04-24T05:43:18Z</time></trkpt><trkpt lat="-17.920232048950446" lon="122.50617093646851"><ele>13.5</ele><time>2026-04-24T05:43:19Z</time></trkpt><trkpt lat="-17.919948995257883" lon="122.506060298951"><ele>14.0</ele><time>2026-04-24T05:43:20Z</time></trkpt><trkpt lat="-17.919665501631673" lon="122.50595701036065"><ele>14.0</ele><time>2026-04-24T05:43:21Z</time></trkpt><trkpt lat="-17.919376342411883" lon="122.50585637993757"><ele>14.0</ele><time>2026-04-24T05:43:22Z</time></trkpt><trkpt lat="-17.91908037137702" lon="122.50576272285015"><ele>15.0</ele><time>2026-04-24T05:43:23Z</time></trkpt><trkpt lat="-17.918782519277343" lon="122.50567176097613"><ele>16.0</ele><time>2026-04-24T05:43:24Z</time></trkpt><trkpt lat="-17.918478325649932" lon="122.50558562754368"><ele>16.0</ele><time>2026-04-24T05:43:25Z</time></trkpt><trkpt lat="-17.918172409166374" lon="122.5055057003432"><ele>16.0</ele><time>2026-04-24T05:43:26Z</time></trkpt><trkpt lat="-17.91787252190017" lon="122.50543063318267"><ele>16.0</ele><time>2026-04-24T05:43:27Z</time></trkpt><trkpt lat="-17.917590001651995" lon="122.50536487307214"><ele>16.0</ele><time>2026-04-24T05:43:28Z</time></trkpt><trkpt lat="-17.91730770632335" lon="122.50530084862329"><ele>16.0</ele><time>2026-04-24T05:43:29Z</time></trkpt><trkpt lat="-17.91701716863341" lon="122.50524375555273"><ele>16.0</ele><time>2026-04-24T05:43:30Z</time></trkpt><trkpt lat="-17.91671737945011" lon="122.5051958419079"><ele>16.5</ele><time>2026-04-24T05:43:31Z</time></trkpt><trkpt lat="-17.91641897803801" lon="122.50515547834294"><ele>17.0</ele><time>2026-04-24T05:43:32Z</time></trkpt><trkpt lat="-17.916122727227147" lon="122.50511717769689"><ele>18.5</ele><time>2026-04-24T05:43:33Z</time></trkpt><trkpt lat="-17.91582023441908" lon="122.50508608962251"><ele>20.0</ele><time>2026-04-24T05:43:34Z</time></trkpt><trkpt lat="-17.9155162356019" lon="122.50506144759392"><ele>20.0</ele><time>2026-04-24T05:43:35Z</time></trkpt><trkpt lat="-17.91520806676266" lon="122.50504306394605"><ele>20.0</ele><time>2026-04-24T05:43:36Z</time></trkpt><trkpt lat="-17.914894563976535" lon="122.5050298336616"><ele>19.5</ele><time>2026-04-24T05:43:37Z</time></trkpt><trkpt lat="-17.91459018249848" lon="122.50502340075536"><ele>19.0</ele><time>2026-04-24T05:43:38Z</time></trkpt><trkpt lat="-17.914284730217556" lon="122.50502217956564"><ele>19.0</ele><time>2026-04-24T05:43:39Z</time></trkpt><trkpt lat="-17.91398085340288" lon="122.50502354680626"><ele>19.0</ele><time>2026-04-24T05:43:40Z</time></trkpt><trkpt lat="-17.91368064462198" lon="122.50502556766976"><ele>20.0</ele><time>2026-04-24T05:43:41Z</time></trkpt><trkpt lat="-17.913396028584412" lon="122.50502486605629"><ele>21.0</ele><time>2026-04-24T05:43:42Z</time></trkpt><trkpt lat="-17.91313594539766" lon="122.50502461601309"><ele>21.0</ele><time>2026-04-24T05:43:43Z</time></trkpt><trkpt lat="-17.912896066676762" lon="122.50502205891985"><ele>21.0</ele><time>2026-04-24T05:43:44Z</time></trkpt><trkpt lat="-17.9126703191482" lon="122.50501465345907"><ele>21.666666666666668</ele><time>2026-04-24T05:43:45Z</time></trkpt><trkpt lat="-17.912461012500742" lon="122.50500510344594"><ele>22.333333333333336</ele><time>2026-04-24T05:43:46Z</time></trkpt><trkpt lat="-17.912271507678504" lon="122.50499877811434"><ele>23.0</ele><time>2026-04-24T05:43:47Z</time></trkpt><trkpt lat="-17.912096382809942" lon="122.50499437864238"><ele>23.0</ele><time>2026-04-24T05:43:48Z</time></trkpt><trkpt lat="-17.911941516567" lon="122.50499603143108"><ele>23.0</ele><time>2026-04-24T05:43:49Z</time></trkpt><trkpt lat="-17.91180036262504" lon="122.50499726063659"><ele>23.0</ele><time>2026-04-24T05:43:50Z</time></trkpt><trkpt lat="-17.91167473566927" lon="122.50499541218731"><ele>23.0</ele><time>2026-04-24T05:43:51Z</time></trkpt><trkpt lat="-17.911559640422904" lon="122.50499315317504"><ele>23.0</ele><time>2026-04-24T05:43:52Z</time></trkpt><trkpt lat="-17.911460835081527" lon="122.50498815430552"><ele>23.0</ele><time>2026-04-24T05:43:53Z</time></trkpt><trkpt lat="-17.911373428045813" lon="122.5049824464275"><ele>23.0</ele><time>2026-04-24T05:43:54Z</time></trkpt><trkpt lat="-17.91130140297285" lon="122.50498182879215"><ele>23.0</ele><time>2026-04-24T05:43:55Z</time></trkpt><trkpt lat="-17.91123589344104" lon="122.50498281480047"><ele>23.0</ele><time>2026-04-24T05:43:56Z</time></trkpt><trkpt lat="-17.91111872046845" lon="122.50498711569075"><ele>23.0</ele><time>2026-04-24T05:43:58Z</time></trkpt><trkpt lat="-17.911019174987448" lon="122.50498376918516"><ele>23.0</ele><time>2026-04-24T05:44:00Z</time></trkpt><trkpt lat="-17.91092821459003" lon="122.5049786102985"><ele>23.0</ele><time>2026-04-24T05:44:02Z</time></trkpt><trkpt lat="-17.910861142160435" lon="122.5049777906893"><ele>23.0</ele><time>2026-04-24T05:44:04Z</time></trkpt><trkpt lat="-17.910791451799504" lon="122.50496974417669"><ele>23.0</ele><time>2026-04-24T05:44:38Z</time></trkpt><trkpt lat="-17.910717261058785" lon="122.50500950917329"><ele>23.0</ele><time>2026-04-24T05:46:30Z</time></trkpt><trkpt lat="-17.91065414249206" lon="122.50501797296026"><ele>23.0</ele><time>2026-04-24T05:46:31Z</time></trkpt><trkpt lat="-17.910581956302952" lon="122.50501657657553"><ele>23.0</ele><time>2026-04-24T05:46:32Z</time></trkpt><trkpt lat="-17.910493916844068" lon="122.50501729029735"><ele>23.0</ele><time>2026-04-24T05:46:33Z</time></trkpt><trkpt lat="-17.91039014820902" lon="122.50501456390832"><ele>23.0</ele><time>2026-04-24T05:46:34Z</time></trkpt><trkpt lat="-17.910269306504986" lon="122.5050077698977"><ele>23.0</ele><time>2026-04-24T05:46:35Z</time></trkpt><trkpt lat="-17.910137890720375" lon="122.50500123226814"><ele>23.0</ele><time>2026-04-24T05:46:36Z</time></trkpt><trkpt lat="-17.90998542263107" lon="122.50499617450907"><ele>23.0</ele><time>2026-04-24T05:46:37Z</time></trkpt><trkpt lat="-17.909824723908674" lon="122.50499762778391"><ele>23.0</ele><time>2026-04-24T05:46:38Z</time></trkpt><trkpt lat="-17.90965235463743" lon="122.50500124358598"><ele>23.0</ele><time>2026-04-24T05:46:39Z</time></trkpt><trkpt lat="-17.90946906901453" lon="122.5050027588252"><ele>23.0</ele><time>2026-04-24T05:46:40Z</time></trkpt><trkpt lat="-17.909268947676633" lon="122.50500099496678"><ele>23.0</ele><time>2026-04-24T05:46:41Z</time></trkpt><trkpt lat="-17.909065393449396" lon="122.50499843075914"><ele>23.0</ele><time>2026-04-24T05:46:42Z</time></trkpt><trkpt lat="-17.908856977667053" lon="122.50499277479712"><ele>23.333333333333336</ele><time>2026-04-24T05:46:43Z</time></trkpt><trkpt lat="-17.908640369026816" lon="122.50499299148676"><ele>23.666666666666668</ele><time>2026-04-24T05:46:44Z</time></trkpt><trkpt lat="-17.908409761160524" lon="122.50499315399885"><ele>24.0</ele><time>2026-04-24T05:46:45Z</time></trkpt><trkpt lat="-17.908185147017225" lon="122.50499499135204"><ele>24.5</ele><time>2026-04-24T05:46:46Z</time></trkpt><trkpt lat="-17.907957727414956" lon="122.50499483768093"><ele>25.0</ele><time>2026-04-24T05:46:47Z</time></trkpt><trkpt lat="-17.907723702358822" lon="122.50499574348684"><ele>25.5</ele><time>2026-04-24T05:46:48Z</time></trkpt><trkpt lat="-17.907481696366375" lon="122.50499712855654"><ele>26.0</ele><time>2026-04-24T05:46:49Z</time></trkpt><trkpt lat="-17.90723529615696" lon="122.50499462154866"><ele>26.0</ele><time>2026-04-24T05:46:50Z</time></trkpt><trkpt lat="-17.90698279226779" lon="122.5049921197509"><ele>26.0</ele><time>2026-04-24T05:46:51Z</time></trkpt><trkpt lat="-17.906728163020677" lon="122.50499021199475"><ele>25.5</ele><time>2026-04-24T05:46:52Z</time></trkpt><trkpt lat="-17.906467097930538" lon="122.50498996115492"><ele>25.0</ele><time>2026-04-24T05:46:53Z</time></trkpt><trkpt lat="-17.906203172240136" lon="122.50499132658193"><ele>25.0</ele><time>2026-04-24T05:46:54Z</time></trkpt><trkpt lat="-17.90592759190478" lon="122.50499079546995"><ele>25.0</ele><time>2026-04-24T05:46:55Z</time></trkpt><trkpt lat="-17.905642760448" lon="122.50498900675811"><ele>25.0</ele><time>2026-04-24T05:46:56Z</time></trkpt><trkpt lat="-17.905362975765534" lon="122.50498765581305"><ele>25.0</ele><time>2026-04-24T05:46:57Z</time></trkpt><trkpt lat="-17.905086389315407" lon="122.50498838116712"><ele>26.0</ele><time>2026-04-24T05:46:58Z</time></trkpt><trkpt lat="-17.90479624735251" lon="122.50498775288715"><ele>27.0</ele><time>2026-04-24T05:46:59Z</time></trkpt><trkpt lat="-17.904498909313823" lon="122.50498535348625"><ele>26.0</ele><time>2026-04-24T05:47:00Z</time></trkpt><trkpt lat="-17.90420399291333" lon="122.5049820551721"><ele>25.0</ele><time>2026-04-24T05:47:01Z</time></trkpt><trkpt lat="-17.903911271816547" lon="122.50497857901472"><ele>25.0</ele><time>2026-04-24T05:47:02Z</time></trkpt><trkpt lat="-17.90361679702388" lon="122.50497842066892"><ele>25.0</ele><time>2026-04-24T05:47:03Z</time></trkpt><trkpt lat="-17.90331845164757" lon="122.50497957267241"><ele>25.0</ele><time>2026-04-24T05:47:04Z</time></trkpt><trkpt lat="-17.903020432054152" lon="122.50498014548226"><ele>25.0</ele><time>2026-04-24T05:47:05Z</time></trkpt><trkpt lat="-17.902722403006404" lon="122.50498086077177"><ele>24.5</ele><time>2026-04-24T05:47:06Z</time></trkpt><trkpt lat="-17.902426543619125" lon="122.50498094640777"><ele>24.0</ele><time>2026-04-24T05:47:07Z</time></trkpt><trkpt lat="-17.902128353665734" lon="122.50498236830644"><ele>24.0</ele><time>2026-04-24T05:47:08Z</time></trkpt><trkpt lat="-17.901827066932103" lon="122.50498237090035"><ele>24.0</ele><time>2026-04-24T05:47:09Z</time></trkpt><trkpt lat="-17.901524337364677" lon="122.50498058018856"><ele>24.5</ele><time>2026-04-24T05:47:10Z</time></trkpt><trkpt lat="-17.901220716140664" lon="122.50497865799484"><ele>25.0</ele><time>2026-04-24T05:47:11Z</time></trkpt><trkpt lat="-17.9009127654079" lon="122.50497610345361"><ele>25.5</ele><time>2026-04-24T05:47:12Z</time></trkpt><trkpt lat="-17.90060822408303" lon="122.50497377098309"><ele>26.0</ele><time>2026-04-24T05:47:13Z</time></trkpt><trkpt lat="-17.900303132849775" lon="122.50497030293846"><ele>27.5</ele><time>2026-04-24T05:47:14Z</time></trkpt><trkpt lat="-17.899992666455557" lon="122.50496897104628"><ele>29.0</ele><time>2026-04-24T05:47:15Z</time></trkpt><trkpt lat="-17.89968481645589" lon="122.50496842852009"><ele>29.0</ele><time>2026-04-24T05:47:16Z</time></trkpt><trkpt lat="-17.899375607184318" lon="122.5049673486838"><ele>29.0</ele><time>2026-04-24T05:47:17Z</time></trkpt><trkpt lat="-17.899067891847935" lon="122.50496550748068"><ele>28.5</ele><time>2026-04-24T05:47:18Z</time></trkpt><trkpt lat="-17.898759213652212" lon="122.504962120266"><ele>28.0</ele><time>2026-04-24T05:47:19Z</time></trkpt><trkpt lat="-17.898449706761895" lon="122.50496190407002"><ele>27.5</ele><time>2026-04-24T05:47:20Z</time></trkpt><trkpt lat="-17.898139020385265" lon="122.5049616829831"><ele>27.0</ele><time>2026-04-24T05:47:21Z</time></trkpt><trkpt lat="-17.897826682950814" lon="122.5049585609865"><ele>27.0</ele><time>2026-04-24T05:47:22Z</time></trkpt><trkpt lat="-17.897511711215305" lon="122.50495627108758"><ele>27.0</ele><time>2026-04-24T05:47:23Z</time></trkpt><trkpt lat="-17.897191728843527" lon="122.50495664358105"><ele>27.0</ele><time>2026-04-24T05:47:24Z</time></trkpt><trkpt lat="-17.8968694192337" lon="122.50495801996554"><ele>27.0</ele><time>2026-04-24T05:47:25Z</time></trkpt><trkpt lat="-17.89654513931631" lon="122.50495621042585"><ele>27.5</ele><time>2026-04-24T05:47:26Z</time></trkpt><trkpt lat="-17.8962269541179" lon="122.50495107157525"><ele>28.0</ele><time>2026-04-24T05:47:27Z</time></trkpt><trkpt lat="-17.89591274429783" lon="122.50494758543476"><ele>28.0</ele><time>2026-04-24T05:47:28Z</time></trkpt><trkpt lat="-17.895603071961407" lon="122.50494907308018"><ele>28.0</ele><time>2026-04-24T05:47:29Z</time></trkpt><trkpt lat="-17.895293680362098" lon="122.5049522798084"><ele>29.5</ele><time>2026-04-24T05:47:30Z</time></trkpt><trkpt lat="-17.894982257944115" lon="122.50495221272288"><ele>31.0</ele><time>2026-04-24T05:47:31Z</time></trkpt><trkpt lat="-17.89467264065615" lon="122.50494748158982"><ele>31.0</ele><time>2026-04-24T05:47:32Z</time></trkpt><trkpt lat="-17.894362152787714" lon="122.50494631267092"><ele>31.0</ele><time>2026-04-24T05:47:33Z</time></trkpt><trkpt lat="-17.894052169281494" lon="122.50494558944449"><ele>30.0</ele><time>2026-04-24T05:47:34Z</time></trkpt><trkpt lat="-17.893742151983854" lon="122.50494595910837"><ele>29.0</ele><time>2026-04-24T05:47:35Z</time></trkpt><trkpt lat="-17.893429090429134" lon="122.50494665316495"><ele>29.0</ele><time>2026-04-24T05:47:36Z</time></trkpt><trkpt lat="-17.893118412585185" lon="122.50494822872288"><ele>29.0</ele><time>2026-04-24T05:47:37Z</time></trkpt><trkpt lat="-17.892806537675273" lon="122.50494394962291"><ele>29.0</ele><time>2026-04-24T05:47:38Z</time></trkpt><trkpt lat="-17.892496135062785" lon="122.50494016337106"><ele>29.0</ele><time>2026-04-24T05:47:39Z</time></trkpt><trkpt lat="-17.892185604919696" lon="122.50493659378006"><ele>29.0</ele><time>2026-04-24T05:47:40Z</time></trkpt><trkpt lat="-17.891876767059117" lon="122.50493672530726"><ele>29.0</ele><time>2026-04-24T05:47:41Z</time></trkpt><trkpt lat="-17.891568474792578" lon="122.50493844211876"><ele>29.0</ele><time>2026-04-24T05:47:42Z</time></trkpt><trkpt lat="-17.891262050092376" lon="122.5049373471435"><ele>29.0</ele><time>2026-04-24T05:47:43Z</time></trkpt><trkpt lat="-17.890955695893428" lon="122.50493757670502"><ele>28.5</ele><time>2026-04-24T05:47:44Z</time></trkpt><trkpt lat="-17.890647251451412" lon="122.50493847420478"><ele>28.0</ele><time>2026-04-24T05:47:45Z</time></trkpt><trkpt lat="-17.890342673781614" lon="122.50493912636234"><ele>28.5</ele><time>2026-04-24T05:47:46Z</time></trkpt><trkpt lat="-17.890034803111522" lon="122.50493806863317"><ele>29.0</ele><time>2026-04-24T05:47:47Z</time></trkpt><trkpt lat="-17.8897300307526" lon="122.50493554074538"><ele>29.0</ele><time>2026-04-24T05:47:48Z</time></trkpt><trkpt lat="-17.889425166882912" lon="122.50493104328753"><ele>29.0</ele><time>2026-04-24T05:47:49Z</time></trkpt><trkpt lat="-17.889116546597826" lon="122.50492654144962"><ele>29.5</ele><time>2026-04-24T05:47:50Z</time></trkpt><trkpt lat="-17.88880864072655" lon="122.50492322751415"><ele>30.0</ele><time>2026-04-24T05:47:51Z</time></trkpt><trkpt lat="-17.88849790479047" lon="122.50492138557699"><ele>29.0</ele><time>2026-04-24T05:47:52Z</time></trkpt><trkpt lat="-17.888187106229648" lon="122.5049204679742"><ele>28.0</ele><time>2026-04-24T05:47:53Z</time></trkpt><trkpt lat="-17.887875583843268" lon="122.50492150822662"><ele>29.5</ele><time>2026-04-24T05:47:54Z</time></trkpt><trkpt lat="-17.88756112668085" lon="122.50492163745095"><ele>31.0</ele><time>2026-04-24T05:47:55Z</time></trkpt><trkpt lat="-17.88724492882854" lon="122.50492007906047"><ele>31.0</ele><time>2026-04-24T05:47:56Z</time></trkpt><trkpt lat="-17.886930298533926" lon="122.50491749503908"><ele>31.0</ele><time>2026-04-24T05:47:57Z</time></trkpt><trkpt lat="-17.8866156734423" lon="122.50491488111075"><ele>30.0</ele><time>2026-04-24T05:47:58Z</time></trkpt><trkpt lat="-17.886301731374104" lon="122.50491418507251"><ele>29.0</ele><time>2026-04-24T05:47:59Z</time></trkpt><trkpt lat="-17.885989816853684" lon="122.50491470240067"><ele>30.5</ele><time>2026-04-24T05:48:00Z</time></trkpt><trkpt lat="-17.88567945888921" lon="122.50491406586117"><ele>32.0</ele><time>2026-04-24T05:48:01Z</time></trkpt><trkpt lat="-17.885368664321877" lon="122.50491276233086"><ele>32.0</ele><time>2026-04-24T05:48:02Z</time></trkpt><trkpt lat="-17.88506108611871" lon="122.50491164987172"><ele>32.0</ele><time>2026-04-24T05:48:03Z</time></trkpt><trkpt lat="-17.884751095712453" lon="122.50490920903772"><ele>32.0</ele><time>2026-04-24T05:48:04Z</time></trkpt><trkpt lat="-17.88444291847021" lon="122.50490558138232"><ele>32.0</ele><time>2026-04-24T05:48:05Z</time></trkpt><trkpt lat="-17.884134808048504" lon="122.5049053333671"><ele>32.5</ele><time>2026-04-24T05:48:06Z</time></trkpt><trkpt lat="-17.88382418385641" lon="122.50490633206347"><ele>33.0</ele><time>2026-04-24T05:48:07Z</time></trkpt><trkpt lat="-17.883515668187083" lon="122.50490426890192"><ele>33.5</ele><time>2026-04-24T05:48:08Z</time></trkpt><trkpt lat="-17.883208648617437" lon="122.50490340885408"><ele>34.0</ele><time>2026-04-24T05:48:09Z</time></trkpt><trkpt lat="-17.88290371669989" lon="122.50490371441043"><ele>34.0</ele><time>2026-04-24T05:48:10Z</time></trkpt><trkpt lat="-17.882601374910248" lon="122.50489966691794"><ele>34.0</ele><time>2026-04-24T05:48:11Z</time></trkpt><trkpt lat="-17.882300588245972" lon="122.50489898857786"><ele>34.5</ele><time>2026-04-24T05:48:12Z</time></trkpt><trkpt lat="-17.881999607183317" lon="122.5048971779588"><ele>35.0</ele><time>2026-04-24T05:48:13Z</time></trkpt><trkpt lat="-17.881697523192724" lon="122.50489728810372"><ele>35.5</ele><time>2026-04-24T05:48:14Z</time></trkpt><trkpt lat="-17.881394963631973" lon="122.50489745066001"><ele>36.0</ele><time>2026-04-24T05:48:15Z</time></trkpt><trkpt lat="-17.881091283224734" lon="122.50489662820615"><ele>35.0</ele><time>2026-04-24T05:48:16Z</time></trkpt><trkpt lat="-17.88078690194752" lon="122.50489738814626"><ele>34.0</ele><time>2026-04-24T05:48:17Z</time></trkpt><trkpt lat="-17.880479493609275" lon="122.50489565069778"><ele>34.0</ele><time>2026-04-24T05:48:18Z</time></trkpt><trkpt lat="-17.880171278325005" lon="122.50489561744274"><ele>34.0</ele><time>2026-04-24T05:48:19Z</time></trkpt><trkpt lat="-17.87986054330757" lon="122.50489503300548"><ele>34.5</ele><time>2026-04-24T05:48:20Z</time></trkpt><trkpt lat="-17.87955770442617" lon="122.50489889259086"><ele>35.0</ele><time>2026-04-24T05:48:21Z</time></trkpt><trkpt lat="-17.879252286653266" lon="122.50489753510351"><ele>34.0</ele><time>2026-04-24T05:48:22Z</time></trkpt><trkpt lat="-17.878949730612707" lon="122.50489360217288"><ele>33.0</ele><time>2026-04-24T05:48:23Z</time></trkpt><trkpt lat="-17.878644733880787" lon="122.50488944633743"><ele>34.0</ele><time>2026-04-24T05:48:24Z</time></trkpt><trkpt lat="-17.878337575066805" lon="122.50488650415305"><ele>35.0</ele><time>2026-04-24T05:48:25Z</time></trkpt><trkpt lat="-17.878032244623686" lon="122.50488585423189"><ele>35.0</ele><time>2026-04-24T05:48:26Z</time></trkpt><trkpt lat="-17.877727435020283" lon="122.5048857275746"><ele>35.0</ele><time>2026-04-24T05:48:27Z</time></trkpt><trkpt lat="-17.877421842857952" lon="122.50488395571567"><ele>34.0</ele><time>2026-04-24T05:48:28Z</time></trkpt><trkpt lat="-17.87711621352489" lon="122.50488189637827"><ele>33.0</ele><time>2026-04-24T05:48:29Z</time></trkpt><trkpt lat="-17.87681088999257" lon="122.50487984672174"><ele>34.0</ele><time>2026-04-24T05:48:30Z</time></trkpt><trkpt lat="-17.876504533293048" lon="122.5048782284475"><ele>35.0</ele><time>2026-04-24T05:48:31Z</time></trkpt><trkpt lat="-17.876197277457692" lon="122.50487856927452"><ele>35.0</ele><time>2026-04-24T05:48:32Z</time></trkpt><trkpt lat="-17.875891297109995" lon="122.50488061483297"><ele>35.0</ele><time>2026-04-24T05:48:33Z</time></trkpt><trkpt lat="-17.87558926748565" lon="122.50488468557997"><ele>35.0</ele><time>2026-04-24T05:48:34Z</time></trkpt><trkpt lat="-17.875289613434024" lon="122.50488385906294"><ele>35.0</ele><time>2026-04-24T05:48:35Z</time></trkpt><trkpt lat="-17.874990881974554" lon="122.5048792891996"><ele>33.5</ele><time>2026-04-24T05:48:36Z</time></trkpt><trkpt lat="-17.87469080379887" lon="122.50487411110362"><ele>32.0</ele><time>2026-04-24T05:48:37Z</time></trkpt><trkpt lat="-17.87439032428991" lon="122.50487178469855"><ele>31.0</ele><time>2026-04-24T05:48:38Z</time></trkpt><trkpt lat="-17.87408693817758" lon="122.50487599485125"><ele>30.0</ele><time>2026-04-24T05:48:39Z</time></trkpt><trkpt lat="-17.873785145218477" lon="122.50487888570615"><ele>30.0</ele><time>2026-04-24T05:48:40Z</time></trkpt><trkpt lat="-17.873482829320725" lon="122.5048786978663"><ele>30.0</ele><time>2026-04-24T05:48:41Z</time></trkpt><trkpt lat="-17.873181551481593" lon="122.50487281328022"><ele>31.5</ele><time>2026-04-24T05:48:42Z</time></trkpt><trkpt lat="-17.872879317720827" lon="122.50486878923273"><ele>33.0</ele><time>2026-04-24T05:48:43Z</time></trkpt><trkpt lat="-17.87257734072345" lon="122.50486766729352"><ele>33.0</ele><time>2026-04-24T05:48:44Z</time></trkpt><trkpt lat="-17.87227627632849" lon="122.50486623191556"><ele>33.0</ele><time>2026-04-24T05:48:45Z</time></trkpt><trkpt lat="-17.87197709505528" lon="122.50486695939881"><ele>33.5</ele><time>2026-04-24T05:48:46Z</time></trkpt><trkpt lat="-17.871676781688073" lon="122.50486639620739"><ele>34.0</ele><time>2026-04-24T05:48:47Z</time></trkpt><trkpt lat="-17.871375440168045" lon="122.5048657402102"><ele>34.0</ele><time>2026-04-24T05:48:48Z</time></trkpt><trkpt lat="-17.871071577279857" lon="122.50486362191913"><ele>34.0</ele><time>2026-04-24T05:48:49Z</time></trkpt><trkpt lat="-17.870767026876763" lon="122.50486093070566"><ele>32.5</ele><time>2026-04-24T05:48:50Z</time></trkpt><trkpt lat="-17.870462855022215" lon="122.50485804700907"><ele>31.0</ele><time>2026-04-24T05:48:51Z</time></trkpt><trkpt lat="-17.87015673035277" lon="122.50485472897397"><ele>31.5</ele><time>2026-04-24T05:48:52Z</time></trkpt><trkpt lat="-17.869851810812857" lon="122.50485221932257"><ele>32.0</ele><time>2026-04-24T05:48:53Z</time></trkpt><trkpt lat="-17.869547651691423" lon="122.5048511296719"><ele>32.5</ele><time>2026-04-24T05:48:54Z</time></trkpt><trkpt lat="-17.869240891374698" lon="122.50485219953906"><ele>33.0</ele><time>2026-04-24T05:48:55Z</time></trkpt><trkpt lat="-17.868932329749438" lon="122.50485314836304"><ele>33.0</ele><time>2026-04-24T05:48:56Z</time></trkpt><trkpt lat="-17.868626308216328" lon="122.50485369261489"><ele>33.0</ele><time>2026-04-24T05:48:57Z</time></trkpt><trkpt lat="-17.868318398948897" lon="122.50485264011229"><ele>33.5</ele><time>2026-04-24T05:48:58Z</time></trkpt><trkpt lat="-17.868012120899632" lon="122.50484984489219"><ele>34.0</ele><time>2026-04-24T05:48:59Z</time></trkpt><trkpt lat="-17.867704964596605" lon="122.50484449754934"><ele>32.5</ele><time>2026-04-24T05:49:00Z</time></trkpt><trkpt lat="-17.867401495987735" lon="122.50484158012223"><ele>31.0</ele><time>2026-04-24T05:49:01Z</time></trkpt><trkpt lat="-17.867099500257023" lon="122.50484138101159"><ele>31.0</ele><time>2026-04-24T05:49:02Z</time></trkpt><trkpt lat="-17.866796230358226" lon="122.50484190631111"><ele>31.0</ele><time>2026-04-24T05:49:03Z</time></trkpt><trkpt lat="-17.866495050591784" lon="122.50484161435833"><ele>31.0</ele><time>2026-04-24T05:49:04Z</time></trkpt><trkpt lat="-17.866193234877347" lon="122.50483966166487"><ele>31.0</ele><time>2026-04-24T05:49:05Z</time></trkpt><trkpt lat="-17.865890551422673" lon="122.50483819301186"><ele>31.0</ele><time>2026-04-24T05:49:06Z</time></trkpt><trkpt lat="-17.865586725526413" lon="122.50483837027504"><ele>31.0</ele><time>2026-04-24T05:49:07Z</time></trkpt><trkpt lat="-17.865284113151567" lon="122.50483772063373"><ele>30.5</ele><time>2026-04-24T05:49:08Z</time></trkpt><trkpt lat="-17.86497963794046" lon="122.50483590387239"><ele>30.0</ele><time>2026-04-24T05:49:09Z</time></trkpt><trkpt lat="-17.864669911787647" lon="122.50483517748154"><ele>30.0</ele><time>2026-04-24T05:49:10Z</time></trkpt><trkpt lat="-17.864359893699174" lon="122.50483617447928"><ele>30.0</ele><time>2026-04-24T05:49:11Z</time></trkpt><trkpt lat="-17.864052006327864" lon="122.50483603620044"><ele>31.0</ele><time>2026-04-24T05:49:12Z</time></trkpt><trkpt lat="-17.863743196285206" lon="122.50483614358728"><ele>32.0</ele><time>2026-04-24T05:49:13Z</time></trkpt><trkpt lat="-17.86343580013282" lon="122.50483579402085"><ele>32.0</ele><time>2026-04-24T05:49:14Z</time></trkpt><trkpt lat="-17.86312676682561" lon="122.50483270309594"><ele>32.0</ele><time>2026-04-24T05:49:15Z</time></trkpt><trkpt lat="-17.862816837930872" lon="122.50482965599068"><ele>31.5</ele><time>2026-04-24T05:49:16Z</time></trkpt><trkpt lat="-17.86250421224148" lon="122.50482809599185"><ele>31.0</ele><time>2026-04-24T05:49:17Z</time></trkpt><trkpt lat="-17.86219249423146" lon="122.50482692481921"><ele>31.0</ele><time>2026-04-24T05:49:18Z</time></trkpt><trkpt lat="-17.861880357718803" lon="122.50482658618176"><ele>31.0</ele><time>2026-04-24T05:49:19Z</time></trkpt><trkpt lat="-17.861568761819022" lon="122.50482485135622"><ele>31.5</ele><time>2026-04-24T05:49:20Z</time></trkpt><trkpt lat="-17.86125598627106" lon="122.50482392487854"><ele>32.0</ele><time>2026-04-24T05:49:21Z</time></trkpt><trkpt lat="-17.860950536338798" lon="122.50482047038913"><ele>32.0</ele><time>2026-04-24T05:49:22Z</time></trkpt><trkpt lat="-17.86064148381097" lon="122.50481563641434"><ele>32.0</ele><time>2026-04-24T05:49:23Z</time></trkpt><trkpt lat="-17.86033246474213" lon="122.50481274121884"><ele>32.0</ele><time>2026-04-24T05:49:24Z</time></trkpt><trkpt lat="-17.86002529069642" lon="122.50480858122886"><ele>32.0</ele><time>2026-04-24T05:49:25Z</time></trkpt><trkpt lat="-17.859725357996158" lon="122.50479897963996"><ele>32.0</ele><time>2026-04-24T05:49:26Z</time></trkpt><trkpt lat="-17.85943080432173" lon="122.50477747361177"><ele>32.0</ele><time>2026-04-24T05:49:27Z</time></trkpt><trkpt lat="-17.85913857723036" lon="122.50474292110043"><ele>32.0</ele><time>2026-04-24T05:49:28Z</time></trkpt><trkpt lat="-17.858844538725656" lon="122.5047001995093"><ele>32.0</ele><time>2026-04-24T05:49:29Z</time></trkpt><trkpt lat="-17.858553120843485" lon="122.5046515159747"><ele>32.0</ele><time>2026-04-24T05:49:30Z</time></trkpt><trkpt lat="-17.858258675994897" lon="122.5045988013381"><ele>32.0</ele><time>2026-04-24T05:49:31Z</time></trkpt><trkpt lat="-17.857965388779306" lon="122.50454289218987"><ele>32.5</ele><time>2026-04-24T05:49:32Z</time></trkpt><trkpt lat="-17.857669086997742" lon="122.5044831483052"><ele>33.0</ele><time>2026-04-24T05:49:33Z</time></trkpt><trkpt lat="-17.85737108103141" lon="122.50442658860834"><ele>33.5</ele><time>2026-04-24T05:49:34Z</time></trkpt><trkpt lat="-17.85707377300301" lon="122.50437360916253"><ele>34.0</ele><time>2026-04-24T05:49:35Z</time></trkpt><trkpt lat="-17.85677449501455" lon="122.50431925556906"><ele>34.5</ele><time>2026-04-24T05:49:36Z</time></trkpt><trkpt lat="-17.856477403543707" lon="122.50426135936038"><ele>35.0</ele><time>2026-04-24T05:49:37Z</time></trkpt><trkpt lat="-17.856181198405444" lon="122.50420467221916"><ele>34.5</ele><time>2026-04-24T05:49:38Z</time></trkpt><trkpt lat="-17.855890263460342" lon="122.50415208460485"><ele>34.0</ele><time>2026-04-24T05:49:39Z</time></trkpt><trkpt lat="-17.85560752094096" lon="122.50409881552433"><ele>34.0</ele><time>2026-04-24T05:49:40Z</time></trkpt><trkpt lat="-17.855333452408956" lon="122.50404636779439"><ele>34.0</ele><time>2026-04-24T05:49:41Z</time></trkpt><trkpt lat="-17.85506369453746" lon="122.50399676087976"><ele>34.0</ele><time>2026-04-24T05:49:42Z</time></trkpt><trkpt lat="-17.854787692753888" lon="122.50394628769857"><ele>34.0</ele><time>2026-04-24T05:49:43Z</time></trkpt><trkpt lat="-17.854508267475065" lon="122.50389452097406"><ele>34.0</ele><time>2026-04-24T05:49:44Z</time></trkpt><trkpt lat="-17.85422818411824" lon="122.50384247144697"><ele>34.0</ele><time>2026-04-24T05:49:45Z</time></trkpt><trkpt lat="-17.85394419017259" lon="122.50379003128194"><ele>34.0</ele><time>2026-04-24T05:49:46Z</time></trkpt><trkpt lat="-17.85365787079898" lon="122.50373672512141"><ele>34.0</ele><time>2026-04-24T05:49:47Z</time></trkpt><trkpt lat="-17.853372284295887" lon="122.50368074596832"><ele>34.0</ele><time>2026-04-24T05:49:48Z</time></trkpt><trkpt lat="-17.853091973523895" lon="122.5036235294928"><ele>34.0</ele><time>2026-04-24T05:49:49Z</time></trkpt><trkpt lat="-17.852816998184114" lon="122.50356928568864"><ele>34.0</ele><time>2026-04-24T05:49:50Z</time></trkpt><trkpt lat="-17.85254459333232" lon="122.50351835036098"><ele>34.0</ele><time>2026-04-24T05:49:51Z</time></trkpt><trkpt lat="-17.85227540451884" lon="122.5034687967413"><ele>34.0</ele><time>2026-04-24T05:49:52Z</time></trkpt><trkpt lat="-17.852006885908967" lon="122.50341966290324"><ele>34.0</ele><time>2026-04-24T05:49:53Z</time></trkpt><trkpt lat="-17.851740679616828" lon="122.5033700332127"><ele>34.5</ele><time>2026-04-24T05:49:54Z</time></trkpt><trkpt lat="-17.85147667372668" lon="122.503318183237"><ele>35.0</ele><time>2026-04-24T05:49:55Z</time></trkpt><trkpt lat="-17.851216679031328" lon="122.50326803350555"><ele>35.0</ele><time>2026-04-24T05:49:56Z</time></trkpt><trkpt lat="-17.85095955578368" lon="122.50321993807086"><ele>35.0</ele><time>2026-04-24T05:49:57Z</time></trkpt><trkpt lat="-17.850715772628632" lon="122.50317531516424"><ele>35.5</ele><time>2026-04-24T05:49:58Z</time></trkpt><trkpt lat="-17.85046878843863" lon="122.50313130205632"><ele>36.0</ele><time>2026-04-24T05:49:59Z</time></trkpt><trkpt lat="-17.85022114730692" lon="122.50308839815716"><ele>35.5</ele><time>2026-04-24T05:50:00Z</time></trkpt><trkpt lat="-17.849985357325263" lon="122.50304639380724"><ele>35.0</ele><time>2026-04-24T05:50:01Z</time></trkpt><trkpt lat="-17.84976915397136" lon="122.50300992525885"><ele>35.0</ele><time>2026-04-24T05:50:02Z</time></trkpt><trkpt lat="-17.84956592842986" lon="122.5029731660196"><ele>35.0</ele><time>2026-04-24T05:50:03Z</time></trkpt><trkpt lat="-17.849374364216498" lon="122.50293669769927"><ele>35.0</ele><time>2026-04-24T05:50:04Z</time></trkpt><trkpt lat="-17.84920053206573" lon="122.50290237577454"><ele>35.666666666666664</ele><time>2026-04-24T05:50:05Z</time></trkpt><trkpt lat="-17.849035208192934" lon="122.50286963974635"><ele>36.333333333333336</ele><time>2026-04-24T05:50:06Z</time></trkpt><trkpt lat="-17.848879205794653" lon="122.50284239850676"><ele>37.0</ele><time>2026-04-24T05:50:07Z</time></trkpt><trkpt lat="-17.84873239346768" lon="122.50281802863127"><ele>37.0</ele><time>2026-04-24T05:50:08Z</time></trkpt><trkpt lat="-17.848598582818074" lon="122.50279182777203"><ele>37.0</ele><time>2026-04-24T05:50:09Z</time></trkpt><trkpt lat="-17.848487287720555" lon="122.50276027168661"><ele>37.0</ele><time>2026-04-24T05:50:10Z</time></trkpt><trkpt lat="-17.84840078268308" lon="122.50272354058988"><ele>37.0</ele><time>2026-04-24T05:50:11Z</time></trkpt><trkpt lat="-17.848341232964955" lon="122.50268878864617"><ele>37.0</ele><time>2026-04-24T05:50:12Z</time></trkpt><trkpt lat="-17.848276536162782" lon="122.50259897030047"><ele>37.0</ele><time>2026-04-24T05:50:14Z</time></trkpt><trkpt lat="-17.848270894664203" lon="122.5025287457785"><ele>37.0</ele><time>2026-04-24T05:50:15Z</time></trkpt><trkpt lat="-17.84828993705105" lon="122.50244080467606"><ele>37.0</ele><time>2026-04-24T05:50:16Z</time></trkpt><trkpt lat="-17.848327740081455" lon="122.50233594267083"><ele>37.0</ele><time>2026-04-24T05:50:17Z</time></trkpt><trkpt lat="-17.848366220772473" lon="122.5022090391053"><ele>37.0</ele><time>2026-04-24T05:50:18Z</time></trkpt><trkpt lat="-17.848398100109222" lon="122.50205923179955"><ele>37.0</ele><time>2026-04-24T05:50:19Z</time></trkpt><trkpt lat="-17.848423697377836" lon="122.50191464247649"><ele>37.0</ele><time>2026-04-24T05:50:20Z</time></trkpt><trkpt lat="-17.84844528671704" lon="122.5017883701139"><ele>37.0</ele><time>2026-04-24T05:50:21Z</time></trkpt><trkpt lat="-17.848467814984954" lon="122.50165387721381"><ele>37.0</ele><time>2026-04-24T05:50:22Z</time></trkpt><trkpt lat="-17.8484958622294" lon="122.5015065892684"><ele>37.0</ele><time>2026-04-24T05:50:23Z</time></trkpt><trkpt lat="-17.84852610802666" lon="122.50134470986276"><ele>37.0</ele><time>2026-04-24T05:50:24Z</time></trkpt><trkpt lat="-17.848555141710285" lon="122.5011759468785"><ele>37.0</ele><time>2026-04-24T05:50:25Z</time></trkpt><trkpt lat="-17.8485814640042" lon="122.5010343534094"><ele>37.0</ele><time>2026-04-24T05:50:26Z</time></trkpt><trkpt lat="-17.84860410637192" lon="122.5009118589994"><ele>37.0</ele><time>2026-04-24T05:50:27Z</time></trkpt><trkpt lat="-17.8486292595992" lon="122.50077735523939"><ele>37.0</ele><time>2026-04-24T05:50:28Z</time></trkpt><trkpt lat="-17.848652819999565" lon="122.5006215090721"><ele>37.0</ele><time>2026-04-24T05:50:29Z</time></trkpt><trkpt lat="-17.848680571604646" lon="122.5004537255617"><ele>37.333333333333336</ele><time>2026-04-24T05:50:30Z</time></trkpt><trkpt lat="-17.848713924236048" lon="122.50027629030394"><ele>37.666666666666664</ele><time>2026-04-24T05:50:31Z</time></trkpt><trkpt lat="-17.848749262812184" lon="122.50008877473854"><ele>38.0</ele><time>2026-04-24T05:50:32Z</time></trkpt><trkpt lat="-17.84878066605861" lon="122.49990303862421"><ele>38.0</ele><time>2026-04-24T05:50:33Z</time></trkpt><trkpt lat="-17.84881420318792" lon="122.49970680364503"><ele>38.0</ele><time>2026-04-24T05:50:34Z</time></trkpt><trkpt lat="-17.848848563033584" lon="122.4995010289933"><ele>38.0</ele><time>2026-04-24T05:50:35Z</time></trkpt><trkpt lat="-17.848883669208963" lon="122.4992818633348"><ele>38.666666666666664</ele><time>2026-04-24T05:50:36Z</time></trkpt><trkpt lat="-17.848916172055997" lon="122.49905502284236"><ele>39.333333333333336</ele><time>2026-04-24T05:50:37Z</time></trkpt><trkpt lat="-17.848947920628543" lon="122.498830065837"><ele>40.0</ele><time>2026-04-24T05:50:38Z</time></trkpt><trkpt lat="-17.84898064471332" lon="122.4986041653156"><ele>40.5</ele><time>2026-04-24T05:50:39Z</time></trkpt><trkpt lat="-17.84901363057972" lon="122.49836849308322"><ele>41.0</ele><time>2026-04-24T05:50:40Z</time></trkpt><trkpt lat="-17.849049313638847" lon="122.49812345234449"><ele>40.5</ele><time>2026-04-24T05:50:41Z</time></trkpt><trkpt lat="-17.849088127849807" lon="122.4978696195101"><ele>40.0</ele><time>2026-04-24T05:50:42Z</time></trkpt><trkpt lat="-17.84912990514173" lon="122.49760901543279"><ele>40.0</ele><time>2026-04-24T05:50:43Z</time></trkpt><trkpt lat="-17.849173852976875" lon="122.49735827162161"><ele>40.0</ele><time>2026-04-24T05:50:44Z</time></trkpt><trkpt lat="-17.8492192653443" lon="122.49710505235241"><ele>40.5</ele><time>2026-04-24T05:50:45Z</time></trkpt><trkpt lat="-17.84926727228962" lon="122.49684278912925"><ele>41.0</ele><time>2026-04-24T05:50:46Z</time></trkpt><trkpt lat="-17.84931408360343" lon="122.49657554703893"><ele>41.0</ele><time>2026-04-24T05:50:47Z</time></trkpt><trkpt lat="-17.849362684393462" lon="122.49630278688534"><ele>41.0</ele><time>2026-04-24T05:50:48Z</time></trkpt><trkpt lat="-17.84941123299693" lon="122.49602717681121"><ele>40.5</ele><time>2026-04-24T05:50:49Z</time></trkpt><trkpt lat="-17.849458053348705" lon="122.49574666775169"><ele>40.0</ele><time>2026-04-24T05:50:50Z</time></trkpt><trkpt lat="-17.849502143656057" lon="122.49547227714699"><ele>40.5</ele><time>2026-04-24T05:50:51Z</time></trkpt><trkpt lat="-17.849547019668023" lon="122.49520880488849"><ele>41.0</ele><time>2026-04-24T05:50:52Z</time></trkpt><trkpt lat="-17.84959334818957" lon="122.49495367122127"><ele>41.0</ele><time>2026-04-24T05:50:53Z</time></trkpt><trkpt lat="-17.849636667457037" lon="122.49471829798377"><ele>41.0</ele><time>2026-04-24T05:50:54Z</time></trkpt><trkpt lat="-17.849676437955484" lon="122.49448363745206"><ele>41.5</ele><time>2026-04-24T05:50:55Z</time></trkpt><trkpt lat="-17.849717314030496" lon="122.4942422254712"><ele>42.0</ele><time>2026-04-24T05:50:56Z</time></trkpt><trkpt lat="-17.84976096190325" lon="122.49399544257305"><ele>42.0</ele><time>2026-04-24T05:50:57Z</time></trkpt><trkpt lat="-17.849806933504578" lon="122.49374273131886"><ele>42.0</ele><time>2026-04-24T05:50:58Z</time></trkpt><trkpt lat="-17.849851773920786" lon="122.49348226474798"><ele>42.0</ele><time>2026-04-24T05:50:59Z</time></trkpt><trkpt lat="-17.849896742246834" lon="122.49322239410567"><ele>42.0</ele><time>2026-04-24T05:51:00Z</time></trkpt><trkpt lat="-17.84994393694453" lon="122.49296021797264"><ele>43.0</ele><time>2026-04-24T05:51:01Z</time></trkpt><trkpt lat="-17.849990450089642" lon="122.49269217693973"><ele>44.0</ele><time>2026-04-24T05:51:02Z</time></trkpt><trkpt lat="-17.85003543012092" lon="122.49242278488181"><ele>44.0</ele><time>2026-04-24T05:51:03Z</time></trkpt><trkpt lat="-17.85008012281216" lon="122.49216779468748"><ele>44.0</ele><time>2026-04-24T05:51:04Z</time></trkpt><trkpt lat="-17.850121636460415" lon="122.49193048076393"><ele>44.0</ele><time>2026-04-24T05:51:05Z</time></trkpt><trkpt lat="-17.850158869120033" lon="122.49171137996692"><ele>44.0</ele><time>2026-04-24T05:51:06Z</time></trkpt><trkpt lat="-17.850190776265492" lon="122.49152512918172"><ele>44.0</ele><time>2026-04-24T05:51:07Z</time></trkpt><trkpt lat="-17.850223293742324" lon="122.4913302333285"><ele>45.0</ele><time>2026-04-24T05:51:08Z</time></trkpt><trkpt lat="-17.850257658236096" lon="122.49111427725171"><ele>46.0</ele><time>2026-04-24T05:51:09Z</time></trkpt><trkpt lat="-17.85029763309181" lon="122.49088310658102"><ele>47.0</ele><time>2026-04-24T05:51:10Z</time></trkpt><trkpt lat="-17.850344664843682" lon="122.49064175261466"><ele>46.0</ele><time>2026-04-24T05:51:11Z</time></trkpt><trkpt lat="-17.850393457303404" lon="122.4903887451122"><ele>45.0</ele><time>2026-04-24T05:51:12Z</time></trkpt><trkpt lat="-17.850440373968866" lon="122.49012377679168"><ele>45.0</ele><time>2026-04-24T05:51:13Z</time></trkpt><trkpt lat="-17.85048674043346" lon="122.48985455151197"><ele>45.0</ele><time>2026-04-24T05:51:14Z</time></trkpt><trkpt lat="-17.850533619769113" lon="122.4895754956475"><ele>46.0</ele><time>2026-04-24T05:51:15Z</time></trkpt><trkpt lat="-17.85058062285612" lon="122.48928634006602"><ele>47.0</ele><time>2026-04-24T05:51:16Z</time></trkpt><trkpt lat="-17.850630777863778" lon="122.48898801700187"><ele>47.5</ele><time>2026-04-24T05:51:17Z</time></trkpt><trkpt lat="-17.850680821209117" lon="122.48868938454679"><ele>48.0</ele><time>2026-04-24T05:51:18Z</time></trkpt><trkpt lat="-17.850732834325203" lon="122.4883972493089"><ele>48.0</ele><time>2026-04-24T05:51:19Z</time></trkpt><trkpt lat="-17.850785378129643" lon="122.48810162099159"><ele>48.0</ele><time>2026-04-24T05:51:20Z</time></trkpt><trkpt lat="-17.850836251852908" lon="122.48779838996113"><ele>48.0</ele><time>2026-04-24T05:51:21Z</time></trkpt><trkpt lat="-17.850885861439266" lon="122.48749249780509"><ele>48.0</ele><time>2026-04-24T05:51:22Z</time></trkpt><trkpt lat="-17.850938103300123" lon="122.4871835970197"><ele>48.0</ele><time>2026-04-24T05:51:23Z</time></trkpt><trkpt lat="-17.85099190148879" lon="122.48687136835132"><ele>48.0</ele><time>2026-04-24T05:51:24Z</time></trkpt><trkpt lat="-17.851047807664344" lon="122.4865572799119"><ele>49.5</ele><time>2026-04-24T05:51:25Z</time></trkpt><trkpt lat="-17.85110332641446" lon="122.48624632655343"><ele>51.0</ele><time>2026-04-24T05:51:26Z</time></trkpt><trkpt lat="-17.85115801144863" lon="122.48593735512316"><ele>51.0</ele><time>2026-04-24T05:51:27Z</time></trkpt><trkpt lat="-17.851211243851733" lon="122.48562466823577"><ele>51.0</ele><time>2026-04-24T05:51:28Z</time></trkpt><trkpt lat="-17.851263148597805" lon="122.4853109454158"><ele>52.5</ele><time>2026-04-24T05:51:29Z</time></trkpt><trkpt lat="-17.851315054929128" lon="122.48499676019081"><ele>54.0</ele><time>2026-04-24T05:51:30Z</time></trkpt><trkpt lat="-17.851369695930057" lon="122.48468186978194"><ele>52.0</ele><time>2026-04-24T05:51:31Z</time></trkpt><trkpt lat="-17.851424027422045" lon="122.48436765912545"><ele>50.0</ele><time>2026-04-24T05:51:32Z</time></trkpt><trkpt lat="-17.8514792101527" lon="122.48405673382096"><ele>50.5</ele><time>2026-04-24T05:51:33Z</time></trkpt><trkpt lat="-17.851535918766167" lon="122.4837476936723"><ele>51.0</ele><time>2026-04-24T05:51:34Z</time></trkpt><trkpt lat="-17.8515903901672" lon="122.48344147793364"><ele>51.0</ele><time>2026-04-24T05:51:35Z</time></trkpt><trkpt lat="-17.851643957219746" lon="122.48313284559978"><ele>51.0</ele><time>2026-04-24T05:51:36Z</time></trkpt><trkpt lat="-17.851696591699397" lon="122.48282548381253"><ele>51.5</ele><time>2026-04-24T05:51:37Z</time></trkpt><trkpt lat="-17.85174921127609" lon="122.48251746786218"><ele>52.0</ele><time>2026-04-24T05:51:38Z</time></trkpt><trkpt lat="-17.85180240026361" lon="122.48220958417677"><ele>53.5</ele><time>2026-04-24T05:51:39Z</time></trkpt><trkpt lat="-17.851853358955708" lon="122.48189677834544"><ele>55.0</ele><time>2026-04-24T05:51:40Z</time></trkpt><trkpt lat="-17.851903553554585" lon="122.48158253212762"><ele>55.0</ele><time>2026-04-24T05:51:41Z</time></trkpt><trkpt lat="-17.851959903521653" lon="122.48126935083621"><ele>55.0</ele><time>2026-04-24T05:51:42Z</time></trkpt><trkpt lat="-17.852017651852936" lon="122.48095657573407"><ele>54.5</ele><time>2026-04-24T05:51:43Z</time></trkpt><trkpt lat="-17.85207295486218" lon="122.48064158352072"><ele>54.0</ele><time>2026-04-24T05:51:44Z</time></trkpt><trkpt lat="-17.852125179231933" lon="122.48032793384127"><ele>54.0</ele><time>2026-04-24T05:51:45Z</time></trkpt><trkpt lat="-17.85217940016804" lon="122.48001447841135"><ele>54.0</ele><time>2026-04-24T05:51:46Z</time></trkpt><trkpt lat="-17.85223448254156" lon="122.47970197224083"><ele>54.0</ele><time>2026-04-24T05:51:47Z</time></trkpt><trkpt lat="-17.852289435439154" lon="122.47939079866923"><ele>54.0</ele><time>2026-04-24T05:51:48Z</time></trkpt><trkpt lat="-17.852341548470235" lon="122.47908163764863"><ele>54.0</ele><time>2026-04-24T05:51:49Z</time></trkpt><trkpt lat="-17.852392350508442" lon="122.47878255564243"><ele>54.0</ele><time>2026-04-24T05:51:50Z</time></trkpt><trkpt lat="-17.852440058689435" lon="122.4784960297018"><ele>53.5</ele><time>2026-04-24T05:51:51Z</time></trkpt><trkpt lat="-17.852492186521406" lon="122.47821508151118"><ele>53.0</ele><time>2026-04-24T05:51:52Z</time></trkpt><trkpt lat="-17.852542215784375" lon="122.47794105400476"><ele>53.0</ele><time>2026-04-24T05:51:53Z</time></trkpt><trkpt lat="-17.85258878213621" lon="122.47766829844433"><ele>53.0</ele><time>2026-04-24T05:51:54Z</time></trkpt><trkpt lat="-17.852634558145176" lon="122.47739450967167"><ele>53.5</ele><time>2026-04-24T05:51:55Z</time></trkpt><trkpt lat="-17.852682547817604" lon="122.4771230015832"><ele>54.0</ele><time>2026-04-24T05:51:56Z</time></trkpt><trkpt lat="-17.852729957808442" lon="122.47684866091048"><ele>54.5</ele><time>2026-04-24T05:51:57Z</time></trkpt><trkpt lat="-17.85278027026518" lon="122.47656408052367"><ele>55.0</ele><time>2026-04-24T05:51:58Z</time></trkpt><trkpt lat="-17.852828631858944" lon="122.47627453612088"><ele>56.0</ele><time>2026-04-24T05:51:59Z</time></trkpt><trkpt lat="-17.852878880843626" lon="122.47597905373313"><ele>57.0</ele><time>2026-04-24T05:52:00Z</time></trkpt><trkpt lat="-17.852928465811054" lon="122.47567977752315"><ele>56.5</ele><time>2026-04-24T05:52:01Z</time></trkpt><trkpt lat="-17.852992800221788" lon="122.47538321504668"><ele>56.0</ele><time>2026-04-24T05:52:02Z</time></trkpt><trkpt lat="-17.85304314160352" lon="122.4750851079899"><ele>56.0</ele><time>2026-04-24T05:52:03Z</time></trkpt><trkpt lat="-17.853084163283953" lon="122.47478381364031"><ele>56.0</ele><time>2026-04-24T05:52:04Z</time></trkpt><trkpt lat="-17.853142783205048" lon="122.47448660079166"><ele>56.5</ele><time>2026-04-24T05:52:05Z</time></trkpt><trkpt lat="-17.85319892659082" lon="122.47418589729818"><ele>57.0</ele><time>2026-04-24T05:52:06Z</time></trkpt><trkpt lat="-17.853252972487667" lon="122.47388216121544"><ele>57.0</ele><time>2026-04-24T05:52:07Z</time></trkpt><trkpt lat="-17.853305280222482" lon="122.47357313629463"><ele>57.0</ele><time>2026-04-24T05:52:08Z</time></trkpt><trkpt lat="-17.85335724957267" lon="122.47326242352153"><ele>57.0</ele><time>2026-04-24T05:52:09Z</time></trkpt><trkpt lat="-17.853408773730436" lon="122.47295632344951"><ele>57.0</ele><time>2026-04-24T05:52:10Z</time></trkpt><trkpt lat="-17.853461752826203" lon="122.4726506610795"><ele>56.0</ele><time>2026-04-24T05:52:11Z</time></trkpt><trkpt lat="-17.853514189981226" lon="122.47234477058926"><ele>55.0</ele><time>2026-04-24T05:52:12Z</time></trkpt><trkpt lat="-17.85356816130244" lon="122.47203706707118"><ele>54.0</ele><time>2026-04-24T05:52:13Z</time></trkpt><trkpt lat="-17.85362389665684" lon="122.47173167329568"><ele>53.0</ele><time>2026-04-24T05:52:14Z</time></trkpt><trkpt lat="-17.853677538743444" lon="122.47142413670548"><ele>54.0</ele><time>2026-04-24T05:52:15Z</time></trkpt><trkpt lat="-17.853729065028798" lon="122.47112151562364"><ele>55.0</ele><time>2026-04-24T05:52:16Z</time></trkpt><trkpt lat="-17.85378000725275" lon="122.4708195576621"><ele>55.0</ele><time>2026-04-24T05:52:17Z</time></trkpt><trkpt lat="-17.85383099319452" lon="122.47051810885279"><ele>55.0</ele><time>2026-04-24T05:52:18Z</time></trkpt><trkpt lat="-17.853884036946358" lon="122.47021456160435"><ele>54.5</ele><time>2026-04-24T05:52:19Z</time></trkpt><trkpt lat="-17.85394047129807" lon="122.46991122162466"><ele>54.0</ele><time>2026-04-24T05:52:20Z</time></trkpt><trkpt lat="-17.853995424728918" lon="122.46960970353503"><ele>53.0</ele><time>2026-04-24T05:52:21Z</time></trkpt><trkpt lat="-17.854049855817692" lon="122.46930530344225"><ele>52.0</ele><time>2026-04-24T05:52:22Z</time></trkpt><trkpt lat="-17.85410333592866" lon="122.4690016522428"><ele>51.0</ele><time>2026-04-24T05:52:23Z</time></trkpt><trkpt lat="-17.854153220420386" lon="122.46869828968875"><ele>50.0</ele><time>2026-04-24T05:52:24Z</time></trkpt><trkpt lat="-17.854203660550592" lon="122.46839257819285"><ele>50.0</ele><time>2026-04-24T05:52:25Z</time></trkpt><trkpt lat="-17.85425665315584" lon="122.46808895163691"><ele>50.0</ele><time>2026-04-24T05:52:26Z</time></trkpt><trkpt lat="-17.854310162240616" lon="122.4677827979288"><ele>51.0</ele><time>2026-04-24T05:52:27Z</time></trkpt><trkpt lat="-17.85436305288549" lon="122.46747929465656"><ele>52.0</ele><time>2026-04-24T05:52:28Z</time></trkpt><trkpt lat="-17.85441414949518" lon="122.46717116025965"><ele>52.0</ele><time>2026-04-24T05:52:29Z</time></trkpt><trkpt lat="-17.854465493812743" lon="122.46686499392973"><ele>52.0</ele><time>2026-04-24T05:52:30Z</time></trkpt><trkpt lat="-17.85451919453809" lon="122.46655659500999"><ele>51.5</ele><time>2026-04-24T05:52:31Z</time></trkpt><trkpt lat="-17.85457214734832" lon="122.46625001345974"><ele>51.0</ele><time>2026-04-24T05:52:32Z</time></trkpt><trkpt lat="-17.85462477391387" lon="122.465943061603"><ele>51.0</ele><time>2026-04-24T05:52:33Z</time></trkpt><trkpt lat="-17.85467975631473" lon="122.46563841105656"><ele>51.0</ele><time>2026-04-24T05:52:34Z</time></trkpt><trkpt lat="-17.854734711408888" lon="122.46533242204407"><ele>50.5</ele><time>2026-04-24T05:52:35Z</time></trkpt><trkpt lat="-17.854788642078564" lon="122.46502331454192"><ele>50.0</ele><time>2026-04-24T05:52:36Z</time></trkpt><trkpt lat="-17.854841304872053" lon="122.46471587871865"><ele>50.5</ele><time>2026-04-24T05:52:37Z</time></trkpt><trkpt lat="-17.854895010854815" lon="122.46440683634188"><ele>51.0</ele><time>2026-04-24T05:52:38Z</time></trkpt><trkpt lat="-17.85495110452326" lon="122.46409762663099"><ele>51.0</ele><time>2026-04-24T05:52:39Z</time></trkpt><trkpt lat="-17.855008004652106" lon="122.4637853840101"><ele>51.0</ele><time>2026-04-24T05:52:40Z</time></trkpt><trkpt lat="-17.855062711842315" lon="122.46346883385318"><ele>50.5</ele><time>2026-04-24T05:52:41Z</time></trkpt><trkpt lat="-17.855116425073973" lon="122.46315731611111"><ele>50.0</ele><time>2026-04-24T05:52:42Z</time></trkpt><trkpt lat="-17.855172072085647" lon="122.46283911408716"><ele>49.5</ele><time>2026-04-24T05:52:43Z</time></trkpt><trkpt lat="-17.855227588276595" lon="122.46252472945358"><ele>49.0</ele><time>2026-04-24T05:52:44Z</time></trkpt><trkpt lat="-17.85528433122739" lon="122.46221227205407"><ele>49.0</ele><time>2026-04-24T05:52:45Z</time></trkpt><trkpt lat="-17.855338678511806" lon="122.46190070641806"><ele>49.0</ele><time>2026-04-24T05:52:46Z</time></trkpt><trkpt lat="-17.85539099919759" lon="122.46159080633625"><ele>49.0</ele><time>2026-04-24T05:52:47Z</time></trkpt><trkpt lat="-17.855441620859708" lon="122.46128399422763"><ele>49.0</ele><time>2026-04-24T05:52:48Z</time></trkpt><trkpt lat="-17.855492966130523" lon="122.46097441697567"><ele>48.0</ele><time>2026-04-24T05:52:49Z</time></trkpt><trkpt lat="-17.85554577954127" lon="122.46066655291051"><ele>47.0</ele><time>2026-04-24T05:52:50Z</time></trkpt><trkpt lat="-17.855599640828473" lon="122.46035751730238"><ele>46.5</ele><time>2026-04-24T05:52:51Z</time></trkpt><trkpt lat="-17.855653733893206" lon="122.460049707641"><ele>46.0</ele><time>2026-04-24T05:52:52Z</time></trkpt><trkpt lat="-17.8557062646307" lon="122.4597427464543"><ele>46.0</ele><time>2026-04-24T05:52:53Z</time></trkpt><trkpt lat="-17.855761863548167" lon="122.45943447035489"><ele>46.0</ele><time>2026-04-24T05:52:54Z</time></trkpt><trkpt lat="-17.855817400905853" lon="122.4591257269638"><ele>46.0</ele><time>2026-04-24T05:52:55Z</time></trkpt><trkpt lat="-17.85587275688639" lon="122.45881793859573"><ele>46.0</ele><time>2026-04-24T05:52:56Z</time></trkpt><trkpt lat="-17.85592798898955" lon="122.45850904332977"><ele>46.0</ele><time>2026-04-24T05:52:57Z</time></trkpt><trkpt lat="-17.855982296601454" lon="122.45819908023755"><ele>46.0</ele><time>2026-04-24T05:52:58Z</time></trkpt><trkpt lat="-17.85603468584887" lon="122.45789342110372"><ele>46.0</ele><time>2026-04-24T05:52:59Z</time></trkpt><trkpt lat="-17.85608715326038" lon="122.45758862337189"><ele>46.0</ele><time>2026-04-24T05:53:00Z</time></trkpt><trkpt lat="-17.856139393540833" lon="122.45728617242227"><ele>45.5</ele><time>2026-04-24T05:53:01Z</time></trkpt><trkpt lat="-17.856191140129475" lon="122.45698400720953"><ele>45.0</ele><time>2026-04-24T05:53:02Z</time></trkpt><trkpt lat="-17.856241948064522" lon="122.45668159748132"><ele>45.0</ele><time>2026-04-24T05:53:03Z</time></trkpt><trkpt lat="-17.85629577957138" lon="122.45637476151087"><ele>45.0</ele><time>2026-04-24T05:53:04Z</time></trkpt><trkpt lat="-17.85634926817895" lon="122.45606760537675"><ele>45.0</ele><time>2026-04-24T05:53:05Z</time></trkpt><trkpt lat="-17.85640140784654" lon="122.45575798938347"><ele>45.0</ele><time>2026-04-24T05:53:06Z</time></trkpt><trkpt lat="-17.856453062844974" lon="122.45544996143128"><ele>44.5</ele><time>2026-04-24T05:53:07Z</time></trkpt><trkpt lat="-17.856506035818565" lon="122.4551410763018"><ele>44.0</ele><time>2026-04-24T05:53:08Z</time></trkpt><trkpt lat="-17.856560074955425" lon="122.45483102629743"><ele>43.5</ele><time>2026-04-24T05:53:09Z</time></trkpt><trkpt lat="-17.856615660236045" lon="122.45451983165688"><ele>43.0</ele><time>2026-04-24T05:53:10Z</time></trkpt><trkpt lat="-17.856670669940165" lon="122.45421041274412"><ele>43.0</ele><time>2026-04-24T05:53:11Z</time></trkpt><trkpt lat="-17.856723655455486" lon="122.45389966730697"><ele>43.0</ele><time>2026-04-24T05:53:12Z</time></trkpt><trkpt lat="-17.85677493288036" lon="122.45359081584667"><ele>43.5</ele><time>2026-04-24T05:53:13Z</time></trkpt><trkpt lat="-17.85682544423667" lon="122.4532806331565"><ele>44.0</ele><time>2026-04-24T05:53:14Z</time></trkpt><trkpt lat="-17.856878608999967" lon="122.45296970474034"><ele>44.5</ele><time>2026-04-24T05:53:15Z</time></trkpt><trkpt lat="-17.856933979202854" lon="122.45265852701989"><ele>45.0</ele><time>2026-04-24T05:53:16Z</time></trkpt><trkpt lat="-17.85699106463175" lon="122.45234741876038"><ele>45.0</ele><time>2026-04-24T05:53:17Z</time></trkpt><trkpt lat="-17.85704839115688" lon="122.45203322051447"><ele>45.0</ele><time>2026-04-24T05:53:18Z</time></trkpt><trkpt lat="-17.857103114323213" lon="122.45171972591801"><ele>45.0</ele><time>2026-04-24T05:53:19Z</time></trkpt><trkpt lat="-17.8571581770192" lon="122.45140516595407"><ele>45.0</ele><time>2026-04-24T05:53:20Z</time></trkpt><trkpt lat="-17.857210448247947" lon="122.45109520093881"><ele>44.0</ele><time>2026-04-24T05:53:21Z</time></trkpt><trkpt lat="-17.85726175675705" lon="122.45078931750578"><ele>43.0</ele><time>2026-04-24T05:53:22Z</time></trkpt><trkpt lat="-17.857311886809732" lon="122.45048992246332"><ele>42.0</ele><time>2026-04-24T05:53:23Z</time></trkpt><trkpt lat="-17.857363692068894" lon="122.45019243761195"><ele>41.0</ele><time>2026-04-24T05:53:24Z</time></trkpt><trkpt lat="-17.857414903400418" lon="122.44990261524994"><ele>41.0</ele><time>2026-04-24T05:53:25Z</time></trkpt><trkpt lat="-17.85746634135557" lon="122.44960707243295"><ele>41.0</ele><time>2026-04-24T05:53:26Z</time></trkpt><trkpt lat="-17.857516969438205" lon="122.44931876427911"><ele>41.0</ele><time>2026-04-24T05:53:27Z</time></trkpt><trkpt lat="-17.857570197214915" lon="122.4490249594859"><ele>41.0</ele><time>2026-04-24T05:53:28Z</time></trkpt><trkpt lat="-17.85762236384646" lon="122.44872997135738"><ele>43.0</ele><time>2026-04-24T05:53:29Z</time></trkpt><trkpt lat="-17.85767393776907" lon="122.44843165329198"><ele>45.0</ele><time>2026-04-24T05:53:30Z</time></trkpt><trkpt lat="-17.857726007533948" lon="122.44813431378054"><ele>44.0</ele><time>2026-04-24T05:53:31Z</time></trkpt><trkpt lat="-17.857776152673186" lon="122.44784359703658"><ele>43.0</ele><time>2026-04-24T05:53:32Z</time></trkpt><trkpt lat="-17.85782258723301" lon="122.44757058938019"><ele>43.0</ele><time>2026-04-24T05:53:33Z</time></trkpt><trkpt lat="-17.857868590556365" lon="122.44729383399196"><ele>43.0</ele><time>2026-04-24T05:53:34Z</time></trkpt><trkpt lat="-17.857917728363226" lon="122.44700680282827"><ele>42.5</ele><time>2026-04-24T05:53:35Z</time></trkpt><trkpt lat="-17.857968288588978" lon="122.44671986641788"><ele>42.0</ele><time>2026-04-24T05:53:36Z</time></trkpt><trkpt lat="-17.858020795371406" lon="122.44642582563246"><ele>42.0</ele><time>2026-04-24T05:53:37Z</time></trkpt><trkpt lat="-17.858072564881653" lon="122.44613087869342"><ele>42.0</ele><time>2026-04-24T05:53:38Z</time></trkpt><trkpt lat="-17.85812576733488" lon="122.44583083540714"><ele>42.0</ele><time>2026-04-24T05:53:39Z</time></trkpt><trkpt lat="-17.858180901032885" lon="122.44552884391804"><ele>42.0</ele><time>2026-04-24T05:53:40Z</time></trkpt><trkpt lat="-17.858236216090592" lon="122.44522490301947"><ele>42.0</ele><time>2026-04-24T05:53:41Z</time></trkpt><trkpt lat="-17.858289673503158" lon="122.44491579296412"><ele>42.0</ele><time>2026-04-24T05:53:42Z</time></trkpt><trkpt lat="-17.858340520105788" lon="122.44460384963651"><ele>42.0</ele><time>2026-04-24T05:53:43Z</time></trkpt><trkpt lat="-17.858394121961545" lon="122.44429003807015"><ele>42.0</ele><time>2026-04-24T05:53:44Z</time></trkpt><trkpt lat="-17.85844781393217" lon="122.44397788472517"><ele>41.0</ele><time>2026-04-24T05:53:45Z</time></trkpt><trkpt lat="-17.858499133103553" lon="122.4436634732099"><ele>40.0</ele><time>2026-04-24T05:53:46Z</time></trkpt><trkpt lat="-17.858549259890058" lon="122.44334745883208"><ele>40.0</ele><time>2026-04-24T05:53:47Z</time></trkpt><trkpt lat="-17.858597044379568" lon="122.44303581807462"><ele>40.0</ele><time>2026-04-24T05:53:48Z</time></trkpt><trkpt lat="-17.858650501778715" lon="122.44272158059832"><ele>41.0</ele><time>2026-04-24T05:53:49Z</time></trkpt><trkpt lat="-17.85870602101326" lon="122.44241039400129"><ele>42.0</ele><time>2026-04-24T05:53:50Z</time></trkpt><trkpt lat="-17.85876138287212" lon="122.44209996179559"><ele>42.0</ele><time>2026-04-24T05:53:51Z</time></trkpt><trkpt lat="-17.858817775354883" lon="122.44179273423374"><ele>42.0</ele><time>2026-04-24T05:53:52Z</time></trkpt><trkpt lat="-17.858874942032745" lon="122.44148594080379"><ele>41.0</ele><time>2026-04-24T05:53:53Z</time></trkpt><trkpt lat="-17.858931445687787" lon="122.44118036254378"><ele>40.0</ele><time>2026-04-24T05:53:54Z</time></trkpt><trkpt lat="-17.858983805334848" lon="122.44087732844504"><ele>40.0</ele><time>2026-04-24T05:53:55Z</time></trkpt><trkpt lat="-17.859034487749224" lon="122.44057227358894"><ele>40.0</ele><time>2026-04-24T05:53:56Z</time></trkpt><trkpt lat="-17.859086400555903" lon="122.44026731981236"><ele>40.5</ele><time>2026-04-24T05:53:57Z</time></trkpt><trkpt lat="-17.859138147967823" lon="122.43996262100879"><ele>41.0</ele><time>2026-04-24T05:53:58Z</time></trkpt><trkpt lat="-17.859192538151568" lon="122.43965537391962"><ele>40.0</ele><time>2026-04-24T05:53:59Z</time></trkpt><trkpt lat="-17.859247311752856" lon="122.43934701166941"><ele>39.0</ele><time>2026-04-24T05:54:00Z</time></trkpt><trkpt lat="-17.859300715420243" lon="122.4390384743635"><ele>39.5</ele><time>2026-04-24T05:54:01Z</time></trkpt><trkpt lat="-17.859351329314045" lon="122.43873388350337"><ele>40.0</ele><time>2026-04-24T05:54:02Z</time></trkpt><trkpt lat="-17.85940082235201" lon="122.4384271655961"><ele>40.0</ele><time>2026-04-24T05:54:03Z</time></trkpt><trkpt lat="-17.859451840727424" lon="122.43812214172567"><ele>40.0</ele><time>2026-04-24T05:54:04Z</time></trkpt><trkpt lat="-17.859508156894822" lon="122.43781728409746"><ele>39.0</ele><time>2026-04-24T05:54:05Z</time></trkpt><trkpt lat="-17.859566648297005" lon="122.43751030390636"><ele>38.0</ele><time>2026-04-24T05:54:06Z</time></trkpt><trkpt lat="-17.8596226087466" lon="122.43720267080204"><ele>37.5</ele><time>2026-04-24T05:54:07Z</time></trkpt><trkpt lat="-17.85967360295452" lon="122.43690054840916"><ele>37.0</ele><time>2026-04-24T05:54:08Z</time></trkpt><trkpt lat="-17.859723035391895" lon="122.43659728251649"><ele>37.5</ele><time>2026-04-24T05:54:09Z</time></trkpt><trkpt lat="-17.859773237490383" lon="122.43629721626625"><ele>38.0</ele><time>2026-04-24T05:54:10Z</time></trkpt><trkpt lat="-17.859824859131184" lon="122.43599939039468"><ele>38.0</ele><time>2026-04-24T05:54:11Z</time></trkpt><trkpt lat="-17.85987694986469" lon="122.43569849107591"><ele>38.0</ele><time>2026-04-24T05:54:12Z</time></trkpt><trkpt lat="-17.859929669359577" lon="122.43539376053853"><ele>38.5</ele><time>2026-04-24T05:54:13Z</time></trkpt><trkpt lat="-17.859981959085683" lon="122.4350869136095"><ele>39.0</ele><time>2026-04-24T05:54:14Z</time></trkpt><trkpt lat="-17.860034408456613" lon="122.43477741662042"><ele>37.5</ele><time>2026-04-24T05:54:15Z</time></trkpt><trkpt lat="-17.860086086449815" lon="122.43446748464672"><ele>36.0</ele><time>2026-04-24T05:54:16Z</time></trkpt><trkpt lat="-17.860138362977118" lon="122.43415604064941"><ele>36.0</ele><time>2026-04-24T05:54:17Z</time></trkpt><trkpt lat="-17.86019213647682" lon="122.4338427300464"><ele>36.0</ele><time>2026-04-24T05:54:18Z</time></trkpt><trkpt lat="-17.860248085519604" lon="122.43353258191651"><ele>35.5</ele><time>2026-04-24T05:54:19Z</time></trkpt><trkpt lat="-17.860304936100732" lon="122.43322778622495"><ele>35.0</ele><time>2026-04-24T05:54:20Z</time></trkpt><trkpt lat="-17.860363534421616" lon="122.43292223086317"><ele>34.5</ele><time>2026-04-24T05:54:21Z</time></trkpt><trkpt lat="-17.8604191104081" lon="122.4326206653341"><ele>34.0</ele><time>2026-04-24T05:54:22Z</time></trkpt><trkpt lat="-17.860468193576082" lon="122.43231853837918"><ele>34.0</ele><time>2026-04-24T05:54:23Z</time></trkpt><trkpt lat="-17.860514966251674" lon="122.43201837793"><ele>34.0</ele><time>2026-04-24T05:54:24Z</time></trkpt><trkpt lat="-17.860563044810576" lon="122.4317173801094"><ele>34.0</ele><time>2026-04-24T05:54:25Z</time></trkpt><trkpt lat="-17.86061520375618" lon="122.43141192861653"><ele>34.0</ele><time>2026-04-24T05:54:26Z</time></trkpt><trkpt lat="-17.860669207132453" lon="122.43110455836546"><ele>34.0</ele><time>2026-04-24T05:54:27Z</time></trkpt><trkpt lat="-17.860725847548643" lon="122.43079026230974"><ele>34.0</ele><time>2026-04-24T05:54:28Z</time></trkpt><trkpt lat="-17.86077992741148" lon="122.43047338278475"><ele>33.5</ele><time>2026-04-24T05:54:29Z</time></trkpt><trkpt lat="-17.860834097486975" lon="122.4301547925602"><ele>33.0</ele><time>2026-04-24T05:54:30Z</time></trkpt><trkpt lat="-17.860887281657128" lon="122.42983980463539"><ele>33.0</ele><time>2026-04-24T05:54:31Z</time></trkpt><trkpt lat="-17.860940548165384" lon="122.42952301737813"><ele>33.0</ele><time>2026-04-24T05:54:32Z</time></trkpt><trkpt lat="-17.86099423526626" lon="122.42920937124569"><ele>32.5</ele><time>2026-04-24T05:54:33Z</time></trkpt><trkpt lat="-17.861051738726914" lon="122.42889174289044"><ele>32.0</ele><time>2026-04-24T05:54:34Z</time></trkpt><trkpt lat="-17.861108797803865" lon="122.42857441392105"><ele>31.5</ele><time>2026-04-24T05:54:35Z</time></trkpt><trkpt lat="-17.861165646433452" lon="122.42825874009256"><ele>31.0</ele><time>2026-04-24T05:54:36Z</time></trkpt><trkpt lat="-17.861222623875253" lon="122.427942234116"><ele>31.0</ele><time>2026-04-24T05:54:37Z</time></trkpt><trkpt lat="-17.861277911141915" lon="122.42762406275584"><ele>31.0</ele><time>2026-04-24T05:54:38Z</time></trkpt><trkpt lat="-17.8613314114291" lon="122.42731587912566"><ele>30.0</ele><time>2026-04-24T05:54:39Z</time></trkpt><trkpt lat="-17.861384500751246" lon="122.42701096743149"><ele>29.0</ele><time>2026-04-24T05:54:40Z</time></trkpt><trkpt lat="-17.861435247450768" lon="122.42670984811497"><ele>29.0</ele><time>2026-04-24T05:54:41Z</time></trkpt><trkpt lat="-17.861487003835386" lon="122.42640798260388"><ele>29.0</ele><time>2026-04-24T05:54:42Z</time></trkpt><trkpt lat="-17.861538876431958" lon="122.42610734142114"><ele>28.5</ele><time>2026-04-24T05:54:43Z</time></trkpt><trkpt lat="-17.861591133692816" lon="122.42580706170925"><ele>28.0</ele><time>2026-04-24T05:54:44Z</time></trkpt><trkpt lat="-17.861643327384016" lon="122.42551191403109"><ele>29.0</ele><time>2026-04-24T05:54:45Z</time></trkpt><trkpt lat="-17.86169604559042" lon="122.42521375434472"><ele>30.0</ele><time>2026-04-24T05:54:46Z</time></trkpt><trkpt lat="-17.86174803651938" lon="122.42491734459192"><ele>30.0</ele><time>2026-04-24T05:54:47Z</time></trkpt><trkpt lat="-17.861798671893112" lon="122.42462622767107"><ele>30.0</ele><time>2026-04-24T05:54:48Z</time></trkpt><trkpt lat="-17.861851677482015" lon="122.42433520972311"><ele>30.0</ele><time>2026-04-24T05:54:49Z</time></trkpt><trkpt lat="-17.86190206314685" lon="122.42404552148471"><ele>30.0</ele><time>2026-04-24T05:54:50Z</time></trkpt><trkpt lat="-17.86195444714885" lon="122.4237511471599"><ele>29.0</ele><time>2026-04-24T05:54:51Z</time></trkpt><trkpt lat="-17.86200709459106" lon="122.42345394504855"><ele>28.0</ele><time>2026-04-24T05:54:52Z</time></trkpt><trkpt lat="-17.86205946815048" lon="122.42315557878236"><ele>28.0</ele><time>2026-04-24T05:54:53Z</time></trkpt><trkpt lat="-17.862110344829887" lon="122.4228560984324"><ele>28.0</ele><time>2026-04-24T05:54:54Z</time></trkpt><trkpt lat="-17.862162404794887" lon="122.42255727729795"><ele>28.0</ele><time>2026-04-24T05:54:55Z</time></trkpt><trkpt lat="-17.862214583737856" lon="122.42225792648426"><ele>28.0</ele><time>2026-04-24T05:54:56Z</time></trkpt><trkpt lat="-17.862265571981396" lon="122.42196034616074"><ele>28.0</ele><time>2026-04-24T05:54:57Z</time></trkpt><trkpt lat="-17.862314815142426" lon="122.4216643405518"><ele>28.0</ele><time>2026-04-24T05:54:58Z</time></trkpt><trkpt lat="-17.862364970692965" lon="122.4213658890891"><ele>28.0</ele><time>2026-04-24T05:54:59Z</time></trkpt><trkpt lat="-17.86241728733917" lon="122.42106639958642"><ele>28.0</ele><time>2026-04-24T05:55:00Z</time></trkpt><trkpt lat="-17.862470460077436" lon="122.42076839402012"><ele>27.0</ele><time>2026-04-24T05:55:01Z</time></trkpt><trkpt lat="-17.862522530924593" lon="122.42046562212194"><ele>26.0</ele><time>2026-04-24T05:55:02Z</time></trkpt><trkpt lat="-17.862572256637034" lon="122.42016014530007"><ele>26.0</ele><time>2026-04-24T05:55:03Z</time></trkpt><trkpt lat="-17.862622296285807" lon="122.41985311268164"><ele>26.0</ele><time>2026-04-24T05:55:04Z</time></trkpt><trkpt lat="-17.862673636105864" lon="122.41954586312654"><ele>26.0</ele><time>2026-04-24T05:55:05Z</time></trkpt><trkpt lat="-17.862727320614002" lon="122.4192388346075"><ele>26.0</ele><time>2026-04-24T05:55:06Z</time></trkpt><trkpt lat="-17.86278300708638" lon="122.4189289025138"><ele>25.5</ele><time>2026-04-24T05:55:07Z</time></trkpt><trkpt lat="-17.862839227155206" lon="122.41861833547124"><ele>25.0</ele><time>2026-04-24T05:55:08Z</time></trkpt><trkpt lat="-17.862893577026206" lon="122.41830917020029"><ele>25.0</ele><time>2026-04-24T05:55:09Z</time></trkpt><trkpt lat="-17.862946937298634" lon="122.41799765303442"><ele>25.0</ele><time>2026-04-24T05:55:10Z</time></trkpt><trkpt lat="-17.86300088927967" lon="122.41768778428573"><ele>25.5</ele><time>2026-04-24T05:55:11Z</time></trkpt><trkpt lat="-17.863055335518215" lon="122.41737661131047"><ele>26.0</ele><time>2026-04-24T05:55:12Z</time></trkpt><trkpt lat="-17.86311011800538" lon="122.41706074722545"><ele>27.0</ele><time>2026-04-24T05:55:13Z</time></trkpt><trkpt lat="-17.863163376818832" lon="122.41674885356575"><ele>28.0</ele><time>2026-04-24T05:55:14Z</time></trkpt><trkpt lat="-17.863218535081103" lon="122.41643576085885"><ele>28.5</ele><time>2026-04-24T05:55:15Z</time></trkpt><trkpt lat="-17.863270882450344" lon="122.41612545248603"><ele>29.0</ele><time>2026-04-24T05:55:16Z</time></trkpt><trkpt lat="-17.863325128483297" lon="122.41581413019594"><ele>29.0</ele><time>2026-04-24T05:55:17Z</time></trkpt><trkpt lat="-17.86337919347041" lon="122.41550491839615"><ele>29.0</ele><time>2026-04-24T05:55:18Z</time></trkpt><trkpt lat="-17.86343358165655" lon="122.4151958189784"><ele>29.0</ele><time>2026-04-24T05:55:19Z</time></trkpt><trkpt lat="-17.863487144947655" lon="122.41488498857926"><ele>29.0</ele><time>2026-04-24T05:55:20Z</time></trkpt><trkpt lat="-17.863536045900574" lon="122.4145802997666"><ele>28.5</ele><time>2026-04-24T05:55:21Z</time></trkpt><trkpt lat="-17.86358551589976" lon="122.41427731165074"><ele>28.0</ele><time>2026-04-24T05:55:22Z</time></trkpt><trkpt lat="-17.86363132732025" lon="122.4139781449661"><ele>27.0</ele><time>2026-04-24T05:55:23Z</time></trkpt><trkpt lat="-17.863680065324306" lon="122.41368053009268"><ele>26.0</ele><time>2026-04-24T05:55:24Z</time></trkpt><trkpt lat="-17.86373615712973" lon="122.41338384971473"><ele>26.0</ele><time>2026-04-24T05:55:25Z</time></trkpt><trkpt lat="-17.863794182604828" lon="122.41308631264309"><ele>26.0</ele><time>2026-04-24T05:55:26Z</time></trkpt><trkpt lat="-17.863851528455253" lon="122.41278222008049"><ele>26.5</ele><time>2026-04-24T05:55:27Z</time></trkpt><trkpt lat="-17.863906451060274" lon="122.41247655507584"><ele>27.0</ele><time>2026-04-24T05:55:28Z</time></trkpt><trkpt lat="-17.863957994454733" lon="122.41217016502515"><ele>27.5</ele><time>2026-04-24T05:55:29Z</time></trkpt><trkpt lat="-17.864008459267158" lon="122.41186166748429"><ele>28.0</ele><time>2026-04-24T05:55:30Z</time></trkpt><trkpt lat="-17.864058055565547" lon="122.41155448563195"><ele>27.0</ele><time>2026-04-24T05:55:31Z</time></trkpt><trkpt lat="-17.864109244889594" lon="122.4112473842071"><ele>26.0</ele><time>2026-04-24T05:55:32Z</time></trkpt><trkpt lat="-17.864159315015677" lon="122.4109474692679"><ele>26.0</ele><time>2026-04-24T05:55:33Z</time></trkpt><trkpt lat="-17.864212853472" lon="122.41064616996465"><ele>26.0</ele><time>2026-04-24T05:55:34Z</time></trkpt><trkpt lat="-17.86426545402153" lon="122.41034637400149"><ele>26.0</ele><time>2026-04-24T05:55:35Z</time></trkpt><trkpt lat="-17.864318840083435" lon="122.41004803098161"><ele>26.0</ele><time>2026-04-24T05:55:36Z</time></trkpt><trkpt lat="-17.86437230632363" lon="122.40975067852801"><ele>27.0</ele><time>2026-04-24T05:55:37Z</time></trkpt><trkpt lat="-17.864426118378802" lon="122.40945210482438"><ele>28.0</ele><time>2026-04-24T05:55:38Z</time></trkpt><trkpt lat="-17.864476165340893" lon="122.40915376837853"><ele>28.0</ele><time>2026-04-24T05:55:39Z</time></trkpt><trkpt lat="-17.86452655235545" lon="122.40884861573615"><ele>28.0</ele><time>2026-04-24T05:55:40Z</time></trkpt><trkpt lat="-17.864579019134855" lon="122.40854708541652"><ele>28.5</ele><time>2026-04-24T05:55:41Z</time></trkpt><trkpt lat="-17.86463404644032" lon="122.40824366052243"><ele>29.0</ele><time>2026-04-24T05:55:42Z</time></trkpt><trkpt lat="-17.86468665479922" lon="122.40794493077667"><ele>29.0</ele><time>2026-04-24T05:55:43Z</time></trkpt><trkpt lat="-17.86473849912185" lon="122.40764543906575"><ele>29.0</ele><time>2026-04-24T05:55:44Z</time></trkpt><trkpt lat="-17.864791662423738" lon="122.40734529122777"><ele>30.0</ele><time>2026-04-24T05:55:45Z</time></trkpt><trkpt lat="-17.86484510325678" lon="122.40704279409981"><ele>31.0</ele><time>2026-04-24T05:55:46Z</time></trkpt><trkpt lat="-17.864899104598045" lon="122.40674074066715"><ele>31.0</ele><time>2026-04-24T05:55:47Z</time></trkpt><trkpt lat="-17.86495231157351" lon="122.40643786910834"><ele>31.0</ele><time>2026-04-24T05:55:48Z</time></trkpt><trkpt lat="-17.865008303646665" lon="122.40613596752792"><ele>30.5</ele><time>2026-04-24T05:55:49Z</time></trkpt><trkpt lat="-17.8650618785185" lon="122.40583772484838"><ele>30.0</ele><time>2026-04-24T05:55:50Z</time></trkpt><trkpt lat="-17.8651142539725" lon="122.40554031328003"><ele>30.0</ele><time>2026-04-24T05:55:51Z</time></trkpt><trkpt lat="-17.865162412152205" lon="122.40524562316132"><ele>30.0</ele><time>2026-04-24T05:55:52Z</time></trkpt><trkpt lat="-17.86520980702179" lon="122.40495086681993"><ele>30.5</ele><time>2026-04-24T05:55:53Z</time></trkpt><trkpt lat="-17.865259922070518" lon="122.40465516481255"><ele>31.0</ele><time>2026-04-24T05:55:54Z</time></trkpt><trkpt lat="-17.865316136057103" lon="122.40435086142013"><ele>31.0</ele><time>2026-04-24T05:55:55Z</time></trkpt><trkpt lat="-17.865369594296304" lon="122.40404710437691"><ele>31.0</ele><time>2026-04-24T05:55:56Z</time></trkpt><trkpt lat="-17.86542299696775" lon="122.40374127288185"><ele>31.5</ele><time>2026-04-24T05:55:57Z</time></trkpt><trkpt lat="-17.865473889683457" lon="122.40343621265117"><ele>32.0</ele><time>2026-04-24T05:55:58Z</time></trkpt><trkpt lat="-17.86552728459242" lon="122.40312742984524"><ele>31.0</ele><time>2026-04-24T05:55:59Z</time></trkpt><trkpt lat="-17.86557963071944" lon="122.40281792704127"><ele>30.0</ele><time>2026-04-24T05:56:00Z</time></trkpt><trkpt lat="-17.86563019857757" lon="122.4025116958808"><ele>30.0</ele><time>2026-04-24T05:56:01Z</time></trkpt><trkpt lat="-17.865682599279964" lon="122.40220431170707"><ele>30.0</ele><time>2026-04-24T05:56:02Z</time></trkpt><trkpt lat="-17.865734649606612" lon="122.40189938097477"><ele>31.5</ele><time>2026-04-24T05:56:03Z</time></trkpt><trkpt lat="-17.865791115510426" lon="122.40159090704024"><ele>33.0</ele><time>2026-04-24T05:56:04Z</time></trkpt><trkpt lat="-17.8658463762182" lon="122.40128281963372"><ele>33.0</ele><time>2026-04-24T05:56:05Z</time></trkpt><trkpt lat="-17.865899296188076" lon="122.40097593447786"><ele>33.0</ele><time>2026-04-24T05:56:06Z</time></trkpt><trkpt lat="-17.86595274568238" lon="122.40066666630536"><ele>33.5</ele><time>2026-04-24T05:56:07Z</time></trkpt><trkpt lat="-17.86600256249034" lon="122.40036068607057"><ele>34.0</ele><time>2026-04-24T05:56:08Z</time></trkpt><trkpt lat="-17.866054382199422" lon="122.40005556168892"><ele>34.0</ele><time>2026-04-24T05:56:09Z</time></trkpt><trkpt lat="-17.866107057723227" lon="122.39975123430129"><ele>34.0</ele><time>2026-04-24T05:56:10Z</time></trkpt><trkpt lat="-17.866160317936615" lon="122.39944744559851"><ele>31.5</ele><time>2026-04-24T05:56:11Z</time></trkpt><trkpt lat="-17.86621422934072" lon="122.3991456390446"><ele>29.0</ele><time>2026-04-24T05:56:12Z</time></trkpt><trkpt lat="-17.866269347274365" lon="122.39884195077964"><ele>30.5</ele><time>2026-04-24T05:56:13Z</time></trkpt><trkpt lat="-17.866321512071064" lon="122.3985398935152"><ele>32.0</ele><time>2026-04-24T05:56:14Z</time></trkpt><trkpt lat="-17.86637135128991" lon="122.39823784237736"><ele>32.5</ele><time>2026-04-24T05:56:15Z</time></trkpt><trkpt lat="-17.866421981549045" lon="122.39793362803734"><ele>33.0</ele><time>2026-04-24T05:56:16Z</time></trkpt><trkpt lat="-17.866470344961783" lon="122.3976285900188"><ele>33.0</ele><time>2026-04-24T05:56:17Z</time></trkpt><trkpt lat="-17.866517137206607" lon="122.3973339308806"><ele>33.0</ele><time>2026-04-24T05:56:18Z</time></trkpt><trkpt lat="-17.866564546125524" lon="122.39705983515594"><ele>32.5</ele><time>2026-04-24T05:56:19Z</time></trkpt><trkpt lat="-17.866613598897647" lon="122.39677971537502"><ele>32.0</ele><time>2026-04-24T05:56:20Z</time></trkpt><trkpt lat="-17.866666335538095" lon="122.39649204365338"><ele>32.5</ele><time>2026-04-24T05:56:21Z</time></trkpt><trkpt lat="-17.866719652683066" lon="122.39619687941507"><ele>33.0</ele><time>2026-04-24T05:56:22Z</time></trkpt><trkpt lat="-17.866773068177956" lon="122.39589750898438"><ele>32.0</ele><time>2026-04-24T05:56:23Z</time></trkpt><trkpt lat="-17.866828053063827" lon="122.39559286393198"><ele>31.0</ele><time>2026-04-24T05:56:24Z</time></trkpt><trkpt lat="-17.866881449937384" lon="122.39528763320492"><ele>30.5</ele><time>2026-04-24T05:56:25Z</time></trkpt><trkpt lat="-17.866934720538662" lon="122.3949806951851"><ele>30.0</ele><time>2026-04-24T05:56:26Z</time></trkpt><trkpt lat="-17.866986363995885" lon="122.39467443980082"><ele>29.5</ele><time>2026-04-24T05:56:27Z</time></trkpt><trkpt lat="-17.867038454243147" lon="122.39436666774156"><ele>29.0</ele><time>2026-04-24T05:56:28Z</time></trkpt><trkpt lat="-17.867090834443097" lon="122.39405844960577"><ele>30.0</ele><time>2026-04-24T05:56:29Z</time></trkpt><trkpt lat="-17.867145685884232" lon="122.39374778222388"><ele>31.0</ele><time>2026-04-24T05:56:30Z</time></trkpt><trkpt lat="-17.86720151892682" lon="122.39344056807896"><ele>31.0</ele><time>2026-04-24T05:56:31Z</time></trkpt><trkpt lat="-17.867257785430443" lon="122.39313171183281"><ele>31.0</ele><time>2026-04-24T05:56:32Z</time></trkpt><trkpt lat="-17.867314923659702" lon="122.39281966492938"><ele>30.5</ele><time>2026-04-24T05:56:33Z</time></trkpt><trkpt lat="-17.867368219094608" lon="122.39250732873079"><ele>30.0</ele><time>2026-04-24T05:56:34Z</time></trkpt><trkpt lat="-17.86742079022598" lon="122.39219405570067"><ele>30.5</ele><time>2026-04-24T05:56:35Z</time></trkpt><trkpt lat="-17.867472936752637" lon="122.39188506802951"><ele>31.0</ele><time>2026-04-24T05:56:36Z</time></trkpt><trkpt lat="-17.867525987147275" lon="122.39157224964944"><ele>30.5</ele><time>2026-04-24T05:56:37Z</time></trkpt><trkpt lat="-17.86758063868485" lon="122.39125904073917"><ele>30.0</ele><time>2026-04-24T05:56:38Z</time></trkpt><trkpt lat="-17.86763482035102" lon="122.39094602730447"><ele>30.0</ele><time>2026-04-24T05:56:39Z</time></trkpt><trkpt lat="-17.86768779726216" lon="122.39063278341362"><ele>30.0</ele><time>2026-04-24T05:56:40Z</time></trkpt><trkpt lat="-17.867739850829153" lon="122.3903220088645"><ele>29.0</ele><time>2026-04-24T05:56:41Z</time></trkpt><trkpt lat="-17.86779292549692" lon="122.39001223540129"><ele>28.0</ele><time>2026-04-24T05:56:42Z</time></trkpt><trkpt lat="-17.867846682884174" lon="122.38969962204406"><ele>29.0</ele><time>2026-04-24T05:56:43Z</time></trkpt><trkpt lat="-17.86790112894356" lon="122.38938510073375"><ele>30.0</ele><time>2026-04-24T05:56:44Z</time></trkpt><trkpt lat="-17.867956521869807" lon="122.38907049426047"><ele>29.5</ele><time>2026-04-24T05:56:45Z</time></trkpt><trkpt lat="-17.868011603981678" lon="122.38875416220625"><ele>29.0</ele><time>2026-04-24T05:56:46Z</time></trkpt><trkpt lat="-17.868067762192336" lon="122.388435798797"><ele>29.0</ele><time>2026-04-24T05:56:47Z</time></trkpt><trkpt lat="-17.86812395335207" lon="122.38811876896168"><ele>29.0</ele><time>2026-04-24T05:56:48Z</time></trkpt><trkpt lat="-17.86818009256022" lon="122.38779952130318"><ele>29.0</ele><time>2026-04-24T05:56:49Z</time></trkpt><trkpt lat="-17.868235736056498" lon="122.38748051584167"><ele>29.0</ele><time>2026-04-24T05:56:50Z</time></trkpt><trkpt lat="-17.868290982091526" lon="122.38716206221915"><ele>29.0</ele><time>2026-04-24T05:56:51Z</time></trkpt><trkpt lat="-17.868348396997472" lon="122.38684356884677"><ele>29.0</ele><time>2026-04-24T05:56:52Z</time></trkpt><trkpt lat="-17.868404684582814" lon="122.3865247273627"><ele>28.5</ele><time>2026-04-24T05:56:53Z</time></trkpt><trkpt lat="-17.86845789704964" lon="122.38620409535045"><ele>28.0</ele><time>2026-04-24T05:56:54Z</time></trkpt><trkpt lat="-17.86851197763445" lon="122.3858845607317"><ele>28.0</ele><time>2026-04-24T05:56:55Z</time></trkpt><trkpt lat="-17.868567305451798" lon="122.38556584178711"><ele>28.0</ele><time>2026-04-24T05:56:56Z</time></trkpt><trkpt lat="-17.868621993098298" lon="122.38524730480674"><ele>28.0</ele><time>2026-04-24T05:56:57Z</time></trkpt><trkpt lat="-17.868675861601943" lon="122.38493345176266"><ele>28.0</ele><time>2026-04-24T05:56:58Z</time></trkpt><trkpt lat="-17.868728863074956" lon="122.38461733998899"><ele>29.5</ele><time>2026-04-24T05:56:59Z</time></trkpt><trkpt lat="-17.86878156552211" lon="122.38430338299142"><ele>31.0</ele><time>2026-04-24T05:57:00Z</time></trkpt><trkpt lat="-17.868836664429068" lon="122.38398974198007"><ele>30.5</ele><time>2026-04-24T05:57:01Z</time></trkpt><trkpt lat="-17.868893752417193" lon="122.38367728285752"><ele>30.0</ele><time>2026-04-24T05:57:02Z</time></trkpt><trkpt lat="-17.86895009306469" lon="122.38336565364497"><ele>30.0</ele><time>2026-04-24T05:57:03Z</time></trkpt><trkpt lat="-17.869004359827585" lon="122.38305510923536"><ele>30.0</ele><time>2026-04-24T05:57:04Z</time></trkpt><trkpt lat="-17.869055653875613" lon="122.38274498235182"><ele>29.0</ele><time>2026-04-24T05:57:05Z</time></trkpt><trkpt lat="-17.869107723338246" lon="122.38243003952373"><ele>28.0</ele><time>2026-04-24T05:57:06Z</time></trkpt><trkpt lat="-17.869159503915263" lon="122.38211924609305"><ele>28.0</ele><time>2026-04-24T05:57:07Z</time></trkpt><trkpt lat="-17.869214700202786" lon="122.38180703372112"><ele>28.0</ele><time>2026-04-24T05:57:08Z</time></trkpt><trkpt lat="-17.869269542512583" lon="122.38149361442143"><ele>28.0</ele><time>2026-04-24T05:57:09Z</time></trkpt><trkpt lat="-17.869327101297007" lon="122.38117895933715"><ele>28.0</ele><time>2026-04-24T05:57:10Z</time></trkpt><trkpt lat="-17.869382056980466" lon="122.38086325554576"><ele>28.0</ele><time>2026-04-24T05:57:11Z</time></trkpt><trkpt lat="-17.8694348910772" lon="122.38054829099212"><ele>28.0</ele><time>2026-04-24T05:57:12Z</time></trkpt><trkpt lat="-17.869487159437117" lon="122.38023117177147"><ele>28.5</ele><time>2026-04-24T05:57:13Z</time></trkpt><trkpt lat="-17.869539508715835" lon="122.37991428595414"><ele>29.0</ele><time>2026-04-24T05:57:14Z</time></trkpt><trkpt lat="-17.86959300756357" lon="122.37959503144631"><ele>28.0</ele><time>2026-04-24T05:57:15Z</time></trkpt><trkpt lat="-17.86964744857497" lon="122.37927894891835"><ele>27.0</ele><time>2026-04-24T05:57:16Z</time></trkpt><trkpt lat="-17.869704412408737" lon="122.37896451707203"><ele>27.5</ele><time>2026-04-24T05:57:17Z</time></trkpt><trkpt lat="-17.86976358753195" lon="122.37864669648073"><ele>28.0</ele><time>2026-04-24T05:57:18Z</time></trkpt><trkpt lat="-17.869821806160594" lon="122.37832849116286"><ele>28.0</ele><time>2026-04-24T05:57:19Z</time></trkpt><trkpt lat="-17.86987618547362" lon="122.37801477639437"><ele>28.0</ele><time>2026-04-24T05:57:20Z</time></trkpt><trkpt lat="-17.869929781512532" lon="122.377701276692"><ele>28.0</ele><time>2026-04-24T05:57:21Z</time></trkpt><trkpt lat="-17.869982300844818" lon="122.37738568346121"><ele>28.0</ele><time>2026-04-24T05:57:22Z</time></trkpt><trkpt lat="-17.8700346921674" lon="122.37707250481809"><ele>28.5</ele><time>2026-04-24T05:57:23Z</time></trkpt><trkpt lat="-17.870084954587597" lon="122.37675320052777"><ele>29.0</ele><time>2026-04-24T05:57:24Z</time></trkpt><trkpt lat="-17.870137861506535" lon="122.37643044077615"><ele>29.5</ele><time>2026-04-24T05:57:25Z</time></trkpt><trkpt lat="-17.870193554405358" lon="122.37611058877424"><ele>30.0</ele><time>2026-04-24T05:57:26Z</time></trkpt><trkpt lat="-17.87025141315019" lon="122.37578841495026"><ele>30.0</ele><time>2026-04-24T05:57:27Z</time></trkpt><trkpt lat="-17.87030828142029" lon="122.37546737834887"><ele>30.0</ele><time>2026-04-24T05:57:28Z</time></trkpt><trkpt lat="-17.870365052911662" lon="122.37514692695954"><ele>30.0</ele><time>2026-04-24T05:57:29Z</time></trkpt><trkpt lat="-17.870420133208338" lon="122.37483014483563"><ele>30.0</ele><time>2026-04-24T05:57:30Z</time></trkpt><trkpt lat="-17.870472898583568" lon="122.37451853723817"><ele>29.5</ele><time>2026-04-24T05:57:31Z</time></trkpt><trkpt lat="-17.87052309046819" lon="122.3742263279679"><ele>29.0</ele><time>2026-04-24T05:57:32Z</time></trkpt><trkpt lat="-17.87056993587657" lon="122.37394935712634"><ele>29.5</ele><time>2026-04-24T05:57:33Z</time></trkpt><trkpt lat="-17.870611142490812" lon="122.37366853135671"><ele>30.0</ele><time>2026-04-24T05:57:34Z</time></trkpt><trkpt lat="-17.870649879020217" lon="122.37338628675458"><ele>30.0</ele><time>2026-04-24T05:57:35Z</time></trkpt><trkpt lat="-17.87069586983156" lon="122.3730937633815"><ele>30.0</ele><time>2026-04-24T05:57:36Z</time></trkpt><trkpt lat="-17.870747027432955" lon="122.37279283489997"><ele>30.5</ele><time>2026-04-24T05:57:37Z</time></trkpt><trkpt lat="-17.870800815292867" lon="122.37247705879003"><ele>31.0</ele><time>2026-04-24T05:57:38Z</time></trkpt><trkpt lat="-17.870855370229137" lon="122.37214922361161"><ele>31.0</ele><time>2026-04-24T05:57:39Z</time></trkpt><trkpt lat="-17.87090930272322" lon="122.3718137274328"><ele>31.0</ele><time>2026-04-24T05:57:40Z</time></trkpt><trkpt lat="-17.870964556013806" lon="122.37147237834961"><ele>30.5</ele><time>2026-04-24T05:57:41Z</time></trkpt><trkpt lat="-17.871018834426685" lon="122.3711350612768"><ele>30.0</ele><time>2026-04-24T05:57:42Z</time></trkpt><trkpt lat="-17.87107467739797" lon="122.37080245919756"><ele>30.0</ele><time>2026-04-24T05:57:43Z</time></trkpt><trkpt lat="-17.871129475679563" lon="122.37047812445569"><ele>30.0</ele><time>2026-04-24T05:57:44Z</time></trkpt><trkpt lat="-17.87118398510751" lon="122.37015672137304"><ele>30.0</ele><time>2026-04-24T05:57:45Z</time></trkpt><trkpt lat="-17.87124245687997" lon="122.36984259368442"><ele>30.0</ele><time>2026-04-24T05:57:46Z</time></trkpt><trkpt lat="-17.87130815152623" lon="122.36953117089205"><ele>30.5</ele><time>2026-04-24T05:57:47Z</time></trkpt><trkpt lat="-17.871374017051032" lon="122.36922388883758"><ele>31.0</ele><time>2026-04-24T05:57:48Z</time></trkpt><trkpt lat="-17.87143708416634" lon="122.36892122799843"><ele>32.5</ele><time>2026-04-24T05:57:49Z</time></trkpt><trkpt lat="-17.87149472428933" lon="122.36861738509074"><ele>34.0</ele><time>2026-04-24T05:57:50Z</time></trkpt><trkpt lat="-17.871547783782994" lon="122.3683216620251"><ele>34.0</ele><time>2026-04-24T05:57:51Z</time></trkpt><trkpt lat="-17.871598645365243" lon="122.36802776036906"><ele>34.0</ele><time>2026-04-24T05:57:52Z</time></trkpt><trkpt lat="-17.87165132327341" lon="122.36773734117378"><ele>33.5</ele><time>2026-04-24T05:57:53Z</time></trkpt><trkpt lat="-17.87170066248561" lon="122.36746945921766"><ele>33.0</ele><time>2026-04-24T05:57:54Z</time></trkpt><trkpt lat="-17.87174945420373" lon="122.36722140290986"><ele>33.5</ele><time>2026-04-24T05:57:55Z</time></trkpt><trkpt lat="-17.871800388385704" lon="122.36697508739621"><ele>34.0</ele><time>2026-04-24T05:57:56Z</time></trkpt><trkpt lat="-17.871845678179437" lon="122.36673958467951"><ele>34.0</ele><time>2026-04-24T05:57:57Z</time></trkpt><trkpt lat="-17.871884817857147" lon="122.36651957180706"><ele>34.0</ele><time>2026-04-24T05:57:58Z</time></trkpt><trkpt lat="-17.87192398333555" lon="122.36631573623498"><ele>34.0</ele><time>2026-04-24T05:57:59Z</time></trkpt><trkpt lat="-17.87195915927657" lon="122.36614165280102"><ele>34.0</ele><time>2026-04-24T05:58:00Z</time></trkpt><trkpt lat="-17.871992723274907" lon="122.36599108658629"><ele>34.0</ele><time>2026-04-24T05:58:01Z</time></trkpt><trkpt lat="-17.872023018082185" lon="122.36586334842465"><ele>34.0</ele><time>2026-04-24T05:58:02Z</time></trkpt><trkpt lat="-17.872047258696423" lon="122.36575747899701"><ele>34.0</ele><time>2026-04-24T05:58:03Z</time></trkpt><trkpt lat="-17.87206384179763" lon="122.3656716627869"><ele>34.0</ele><time>2026-04-24T05:58:04Z</time></trkpt><trkpt lat="-17.872077079773273" lon="122.36557478218025"><ele>34.0</ele><time>2026-04-24T05:58:06Z</time></trkpt><trkpt lat="-17.872036154480153" lon="122.365468416216"><ele>34.0</ele><time>2026-04-24T06:07:14Z</time></trkpt><trkpt lat="-17.872039991893228" lon="122.36539866229668"><ele>34.0</ele><time>2026-04-24T06:07:15Z</time></trkpt><trkpt lat="-17.87206012007019" lon="122.36531921363093"><ele>34.0</ele><time>2026-04-24T06:07:16Z</time></trkpt><trkpt lat="-17.87208631815355" lon="122.36522604917005"><ele>34.0</ele><time>2026-04-24T06:07:17Z</time></trkpt><trkpt lat="-17.872112717071605" lon="122.36511895644364"><ele>34.0</ele><time>2026-04-24T06:07:18Z</time></trkpt><trkpt lat="-17.87213723065823" lon="122.36499573378411"><ele>34.0</ele><time>2026-04-24T06:07:19Z</time></trkpt><trkpt lat="-17.872157670306276" lon="122.36485766484807"><ele>34.0</ele><time>2026-04-24T06:07:20Z</time></trkpt><trkpt lat="-17.87218181239953" lon="122.36469129189182"><ele>34.0</ele><time>2026-04-24T06:07:21Z</time></trkpt><trkpt lat="-17.872213433852156" lon="122.36450846863953"><ele>33.333333333333336</ele><time>2026-04-24T06:07:22Z</time></trkpt><trkpt lat="-17.87224864080155" lon="122.36431328957798"><ele>32.666666666666664</ele><time>2026-04-24T06:07:23Z</time></trkpt><trkpt lat="-17.872286551879807" lon="122.36409557134236"><ele>32.0</ele><time>2026-04-24T06:07:24Z</time></trkpt><trkpt lat="-17.872324492420827" lon="122.36387237750748"><ele>32.666666666666664</ele><time>2026-04-24T06:07:25Z</time></trkpt><trkpt lat="-17.872359295178768" lon="122.36364593249615"><ele>33.333333333333336</ele><time>2026-04-24T06:07:26Z</time></trkpt><trkpt lat="-17.87239625698973" lon="122.36341148309539"><ele>34.0</ele><time>2026-04-24T06:07:27Z</time></trkpt><trkpt lat="-17.87243706631704" lon="122.36316850567367"><ele>34.5</ele><time>2026-04-24T06:07:28Z</time></trkpt><trkpt lat="-17.87248246512804" lon="122.36291570321417"><ele>35.0</ele><time>2026-04-24T06:07:29Z</time></trkpt><trkpt lat="-17.872528632596257" lon="122.36265733557363"><ele>35.0</ele><time>2026-04-24T06:07:30Z</time></trkpt><trkpt lat="-17.872575686002214" lon="122.36238970110202"><ele>35.0</ele><time>2026-04-24T06:07:31Z</time></trkpt><trkpt lat="-17.872622596533322" lon="122.36211381114073"><ele>33.5</ele><time>2026-04-24T06:07:32Z</time></trkpt><trkpt lat="-17.87266944247254" lon="122.36183712779535"><ele>32.0</ele><time>2026-04-24T06:07:33Z</time></trkpt><trkpt lat="-17.87271558593481" lon="122.36156848427903"><ele>33.5</ele><time>2026-04-24T06:07:34Z</time></trkpt><trkpt lat="-17.872760514441296" lon="122.36129871975639"><ele>35.0</ele><time>2026-04-24T06:07:35Z</time></trkpt><trkpt lat="-17.87280533919906" lon="122.36102699793098"><ele>35.0</ele><time>2026-04-24T06:07:36Z</time></trkpt><trkpt lat="-17.872854150829752" lon="122.36074947262331"><ele>35.0</ele><time>2026-04-24T06:07:37Z</time></trkpt><trkpt lat="-17.872899904962527" lon="122.36047942806755"><ele>35.0</ele><time>2026-04-24T06:07:38Z</time></trkpt><trkpt lat="-17.872946615151502" lon="122.36021574958394"><ele>35.0</ele><time>2026-04-24T06:07:39Z</time></trkpt><trkpt lat="-17.872994072655484" lon="122.35994733664245"><ele>35.0</ele><time>2026-04-24T06:07:40Z</time></trkpt><trkpt lat="-17.873041101376494" lon="122.35967278177375"><ele>35.0</ele><time>2026-04-24T06:07:41Z</time></trkpt><trkpt lat="-17.873088916672884" lon="122.35939379778281"><ele>35.0</ele><time>2026-04-24T06:07:42Z</time></trkpt><trkpt lat="-17.87314181817009" lon="122.35910667804983"><ele>35.0</ele><time>2026-04-24T06:07:43Z</time></trkpt><trkpt lat="-17.8731931260769" lon="122.35881513590891"><ele>35.0</ele><time>2026-04-24T06:07:44Z</time></trkpt><trkpt lat="-17.87324263073477" lon="122.35851881297897"><ele>35.0</ele><time>2026-04-24T06:07:45Z</time></trkpt><trkpt lat="-17.873291194442775" lon="122.3582186971541"><ele>34.5</ele><time>2026-04-24T06:07:46Z</time></trkpt><trkpt lat="-17.873343185372086" lon="122.35791298822913"><ele>34.0</ele><time>2026-04-24T06:07:47Z</time></trkpt><trkpt lat="-17.873396139034675" lon="122.35760368951088"><ele>34.5</ele><time>2026-04-24T06:07:48Z</time></trkpt><trkpt lat="-17.873450149767752" lon="122.35728808068652"><ele>35.0</ele><time>2026-04-24T06:07:49Z</time></trkpt><trkpt lat="-17.8735043755077" lon="122.35697127217651"><ele>35.5</ele><time>2026-04-24T06:07:50Z</time></trkpt><trkpt lat="-17.873561480247282" lon="122.35665346936007"><ele>36.0</ele><time>2026-04-24T06:07:51Z</time></trkpt><trkpt lat="-17.873619430281355" lon="122.35633295648404"><ele>36.0</ele><time>2026-04-24T06:07:52Z</time></trkpt><trkpt lat="-17.873674629224393" lon="122.35601537311274"><ele>36.0</ele><time>2026-04-24T06:07:53Z</time></trkpt><trkpt lat="-17.87372733972617" lon="122.35569805513755"><ele>36.0</ele><time>2026-04-24T06:07:54Z</time></trkpt><trkpt lat="-17.87377813322671" lon="122.35538420708767"><ele>36.0</ele><time>2026-04-24T06:07:55Z</time></trkpt><trkpt lat="-17.873832405180078" lon="122.3550754695545"><ele>36.0</ele><time>2026-04-24T06:07:56Z</time></trkpt><trkpt lat="-17.873886983701095" lon="122.35477263730823"><ele>36.0</ele><time>2026-04-24T06:07:57Z</time></trkpt><trkpt lat="-17.873941751234728" lon="122.35446813795046"><ele>35.5</ele><time>2026-04-24T06:07:58Z</time></trkpt><trkpt lat="-17.873993228201606" lon="122.35416896473589"><ele>35.0</ele><time>2026-04-24T06:07:59Z</time></trkpt><trkpt lat="-17.874043614690358" lon="122.35386860484593"><ele>35.0</ele><time>2026-04-24T06:08:00Z</time></trkpt><trkpt lat="-17.874097822410295" lon="122.35356751934303"><ele>35.0</ele><time>2026-04-24T06:08:01Z</time></trkpt><trkpt lat="-17.87415295447232" lon="122.35327270759251"><ele>35.5</ele><time>2026-04-24T06:08:02Z</time></trkpt><trkpt lat="-17.874206592644082" lon="122.35297512903043"><ele>36.0</ele><time>2026-04-24T06:08:03Z</time></trkpt><trkpt lat="-17.874257825727753" lon="122.35267319877676"><ele>36.0</ele><time>2026-04-24T06:08:04Z</time></trkpt><trkpt lat="-17.874309022330944" lon="122.35237042760834"><ele>36.0</ele><time>2026-04-24T06:08:05Z</time></trkpt><trkpt lat="-17.87436119496157" lon="122.35206463527587"><ele>36.0</ele><time>2026-04-24T06:08:06Z</time></trkpt><trkpt lat="-17.874414550816297" lon="122.35175427516896"><ele>36.0</ele><time>2026-04-24T06:08:07Z</time></trkpt><trkpt lat="-17.87446684572923" lon="122.35144339328106"><ele>36.5</ele><time>2026-04-24T06:08:08Z</time></trkpt><trkpt lat="-17.874521279607023" lon="122.351128950897"><ele>37.0</ele><time>2026-04-24T06:08:09Z</time></trkpt><trkpt lat="-17.87457353919643" lon="122.35081769289675"><ele>38.0</ele><time>2026-04-24T06:08:10Z</time></trkpt><trkpt lat="-17.874625479194208" lon="122.35050437921439"><ele>39.0</ele><time>2026-04-24T06:08:11Z</time></trkpt><trkpt lat="-17.87467726000471" lon="122.3501915762765"><ele>39.0</ele><time>2026-04-24T06:08:12Z</time></trkpt><trkpt lat="-17.87473224763156" lon="122.34987279550943"><ele>39.0</ele><time>2026-04-24T06:08:13Z</time></trkpt><trkpt lat="-17.874788426507394" lon="122.3495510366595"><ele>39.0</ele><time>2026-04-24T06:08:14Z</time></trkpt><trkpt lat="-17.874846063496975" lon="122.34922540512444"><ele>39.0</ele><time>2026-04-24T06:08:15Z</time></trkpt><trkpt lat="-17.874904582937283" lon="122.34889883871931"><ele>38.5</ele><time>2026-04-24T06:08:16Z</time></trkpt><trkpt lat="-17.874962227264145" lon="122.34857450864443"><ele>38.0</ele><time>2026-04-24T06:08:17Z</time></trkpt><trkpt lat="-17.875019576164963" lon="122.34824773007637"><ele>38.5</ele><time>2026-04-24T06:08:18Z</time></trkpt><trkpt lat="-17.875076630308463" lon="122.34791920540846"><ele>39.0</ele><time>2026-04-24T06:08:19Z</time></trkpt><trkpt lat="-17.875133137093894" lon="122.3475879703395"><ele>39.5</ele><time>2026-04-24T06:08:20Z</time></trkpt><trkpt lat="-17.87518760805539" lon="122.3472636889548"><ele>40.0</ele><time>2026-04-24T06:08:21Z</time></trkpt><trkpt lat="-17.87524364446662" lon="122.3469394123381"><ele>40.0</ele><time>2026-04-24T06:08:22Z</time></trkpt><trkpt lat="-17.875301886709984" lon="122.3466127824384"><ele>40.0</ele><time>2026-04-24T06:08:23Z</time></trkpt><trkpt lat="-17.875356958576283" lon="122.34628957863096"><ele>40.5</ele><time>2026-04-24T06:08:24Z</time></trkpt><trkpt lat="-17.875411190836648" lon="122.34596781096616"><ele>41.0</ele><time>2026-04-24T06:08:25Z</time></trkpt><trkpt lat="-17.87546590877098" lon="122.34565332455007"><ele>39.5</ele><time>2026-04-24T06:08:26Z</time></trkpt><trkpt lat="-17.87551877422221" lon="122.34533944736093"><ele>38.0</ele><time>2026-04-24T06:08:27Z</time></trkpt><trkpt lat="-17.875572902534795" lon="122.3450321899201"><ele>38.0</ele><time>2026-04-24T06:08:28Z</time></trkpt><trkpt lat="-17.87562765929695" lon="122.34472885595952"><ele>38.0</ele><time>2026-04-24T06:08:29Z</time></trkpt><trkpt lat="-17.87568114328385" lon="122.34442668992625"><ele>38.5</ele><time>2026-04-24T06:08:30Z</time></trkpt><trkpt lat="-17.87573475078314" lon="122.34411915827619"><ele>39.0</ele><time>2026-04-24T06:08:31Z</time></trkpt><trkpt lat="-17.875787114284922" lon="122.34381454037313"><ele>39.5</ele><time>2026-04-24T06:08:32Z</time></trkpt><trkpt lat="-17.87583874936378" lon="122.3435051096305"><ele>40.0</ele><time>2026-04-24T06:08:33Z</time></trkpt><trkpt lat="-17.875890055258395" lon="122.34319548474573"><ele>41.5</ele><time>2026-04-24T06:08:34Z</time></trkpt><trkpt lat="-17.87594366459327" lon="122.34288491737372"><ele>43.0</ele><time>2026-04-24T06:08:35Z</time></trkpt><trkpt lat="-17.876001334205398" lon="122.34257164664301"><ele>43.0</ele><time>2026-04-24T06:08:36Z</time></trkpt><trkpt lat="-17.87605828111364" lon="122.34225836745345"><ele>43.0</ele><time>2026-04-24T06:08:37Z</time></trkpt><trkpt lat="-17.87611536511101" lon="122.34194619372592"><ele>43.0</ele><time>2026-04-24T06:08:38Z</time></trkpt><trkpt lat="-17.876170078314164" lon="122.3416326173689"><ele>43.0</ele><time>2026-04-24T06:08:39Z</time></trkpt><trkpt lat="-17.876224093670757" lon="122.34131643531457"><ele>43.5</ele><time>2026-04-24T06:08:40Z</time></trkpt><trkpt lat="-17.87627624770018" lon="122.34100012245963"><ele>44.0</ele><time>2026-04-24T06:08:41Z</time></trkpt><trkpt lat="-17.876329682824494" lon="122.34068371697407"><ele>44.0</ele><time>2026-04-24T06:08:42Z</time></trkpt><trkpt lat="-17.876385355699487" lon="122.34036767555071"><ele>44.0</ele><time>2026-04-24T06:08:43Z</time></trkpt><trkpt lat="-17.87644291461572" lon="122.34005048668519"><ele>44.0</ele><time>2026-04-24T06:08:44Z</time></trkpt><trkpt lat="-17.8764969846848" lon="122.3397343951964"><ele>44.0</ele><time>2026-04-24T06:08:45Z</time></trkpt><trkpt lat="-17.87655067272005" lon="122.33941642301312"><ele>43.5</ele><time>2026-04-24T06:08:46Z</time></trkpt><trkpt lat="-17.87660271070359" lon="122.33909941092351"><ele>43.0</ele><time>2026-04-24T06:08:46.999Z</time></trkpt><trkpt lat="-17.87665622599702" lon="122.33878279093585"><ele>44.5</ele><time>2026-04-24T06:08:47.999Z</time></trkpt><trkpt lat="-17.876710479674838" lon="122.33847556599258"><ele>46.0</ele><time>2026-04-24T06:08:48.999Z</time></trkpt><trkpt lat="-17.876765174906264" lon="122.33816971503165"><ele>46.5</ele><time>2026-04-24T06:08:49.999Z</time></trkpt><trkpt lat="-17.87681801724484" lon="122.33786463865106"><ele>47.0</ele><time>2026-04-24T06:08:50.999Z</time></trkpt><trkpt lat="-17.876870398576145" lon="122.33756029659298"><ele>47.0</ele><time>2026-04-24T06:08:51.999Z</time></trkpt><trkpt lat="-17.876922851536587" lon="122.33725392542368"><ele>47.0</ele><time>2026-04-24T06:08:52.999Z</time></trkpt><trkpt lat="-17.87697299163321" lon="122.33695146290214"><ele>47.0</ele><time>2026-04-24T06:08:53.999Z</time></trkpt><trkpt lat="-17.877021559832208" lon="122.33664570726998"><ele>47.0</ele><time>2026-04-24T06:08:54.999Z</time></trkpt><trkpt lat="-17.877071686031595" lon="122.33633941966943"><ele>47.0</ele><time>2026-04-24T06:08:55.999Z</time></trkpt><trkpt lat="-17.877123287329447" lon="122.3360330968622"><ele>47.0</ele><time>2026-04-24T06:08:56.999Z</time></trkpt><trkpt lat="-17.87717518445704" lon="122.33572776484114"><ele>46.5</ele><time>2026-04-24T06:08:57.999Z</time></trkpt><trkpt lat="-17.877226930853347" lon="122.33541717009035"><ele>46.0</ele><time>2026-04-24T06:08:58.999Z</time></trkpt><trkpt lat="-17.877279198788838" lon="122.33510720241662"><ele>46.0</ele><time>2026-04-24T06:08:59.999Z</time></trkpt><trkpt lat="-17.87733517180134" lon="122.33479793874609"><ele>46.0</ele><time>2026-04-24T06:09:00.999Z</time></trkpt><trkpt lat="-17.87739207092308" lon="122.33448188887357"><ele>45.5</ele><time>2026-04-24T06:09:01.999Z</time></trkpt><trkpt lat="-17.877448649376355" lon="122.33416554996118"><ele>45.0</ele><time>2026-04-24T06:09:02.999Z</time></trkpt><trkpt lat="-17.877505834528932" lon="122.3338465399281"><ele>45.0</ele><time>2026-04-24T06:09:03.999Z</time></trkpt><trkpt lat="-17.877560996083783" lon="122.33352654068084"><ele>45.0</ele><time>2026-04-24T06:09:04.999Z</time></trkpt><trkpt lat="-17.87761749106768" lon="122.33320687846117"><ele>45.0</ele><time>2026-04-24T06:09:05.999Z</time></trkpt><trkpt lat="-17.877676007574657" lon="122.33287796249712"><ele>45.0</ele><time>2026-04-24T06:09:06.999Z</time></trkpt><trkpt lat="-17.877729422079085" lon="122.33253660720811"><ele>44.5</ele><time>2026-04-24T06:09:07.999Z</time></trkpt><trkpt lat="-17.877797377283706" lon="122.3321949056007"><ele>44.0</ele><time>2026-04-24T06:09:08.999Z</time></trkpt><trkpt lat="-17.877857050405947" lon="122.33185238686042"><ele>44.0</ele><time>2026-04-24T06:09:09.999Z</time></trkpt><trkpt lat="-17.877916391891578" lon="122.33151706171508"><ele>44.0</ele><time>2026-04-24T06:09:10.999Z</time></trkpt><trkpt lat="-17.877974229086444" lon="122.33118714528102"><ele>44.5</ele><time>2026-04-24T06:09:11.999Z</time></trkpt><trkpt lat="-17.878030667026536" lon="122.3308591687554"><ele>45.0</ele><time>2026-04-24T06:09:12.999Z</time></trkpt><trkpt lat="-17.8780720825167" lon="122.33053255247279"><ele>45.0</ele><time>2026-04-24T06:09:13.999Z</time></trkpt><trkpt lat="-17.878134081753362" lon="122.33021231769408"><ele>45.0</ele><time>2026-04-24T06:09:14.999Z</time></trkpt><trkpt lat="-17.87819444840354" lon="122.32988698546879"><ele>44.5</ele><time>2026-04-24T06:09:15.999Z</time></trkpt><trkpt lat="-17.878252334962834" lon="122.3295614075407"><ele>44.0</ele><time>2026-04-24T06:09:16.999Z</time></trkpt><trkpt lat="-17.87831239749702" lon="122.32924258780943"><ele>44.0</ele><time>2026-04-24T06:09:17.999Z</time></trkpt><trkpt lat="-17.87837226955785" lon="122.32892554738575"><ele>44.0</ele><time>2026-04-24T06:09:18.999Z</time></trkpt><trkpt lat="-17.878428391233665" lon="122.32860803189568"><ele>44.5</ele><time>2026-04-24T06:09:19.999Z</time></trkpt><trkpt lat="-17.878481525607427" lon="122.32829188133908"><ele>45.0</ele><time>2026-04-24T06:09:20.999Z</time></trkpt><trkpt lat="-17.878536995081138" lon="122.32797794128619"><ele>44.0</ele><time>2026-04-24T06:09:21.999Z</time></trkpt><trkpt lat="-17.87859627784121" lon="122.32766936783247"><ele>43.0</ele><time>2026-04-24T06:09:22.999Z</time></trkpt><trkpt lat="-17.87864875767256" lon="122.32735879303267"><ele>44.5</ele><time>2026-04-24T06:09:23.999Z</time></trkpt><trkpt lat="-17.878699539970697" lon="122.32704996865267"><ele>46.0</ele><time>2026-04-24T06:09:24.999Z</time></trkpt><trkpt lat="-17.87875287089343" lon="122.32674236605804"><ele>46.0</ele><time>2026-04-24T06:09:25.999Z</time></trkpt><trkpt lat="-17.87881159499107" lon="122.32643143255228"><ele>46.0</ele><time>2026-04-24T06:09:26.999Z</time></trkpt><trkpt lat="-17.878868337916742" lon="122.3261240687863"><ele>46.0</ele><time>2026-04-24T06:09:27.999Z</time></trkpt><trkpt lat="-17.878920123588827" lon="122.32581207543902"><ele>46.0</ele><time>2026-04-24T06:09:28.999Z</time></trkpt><trkpt lat="-17.878970462895538" lon="122.3254979032767"><ele>45.5</ele><time>2026-04-24T06:09:29.999Z</time></trkpt><trkpt lat="-17.87902452897662" lon="122.32517973677567"><ele>45.0</ele><time>2026-04-24T06:09:30.999Z</time></trkpt><trkpt lat="-17.87908013008029" lon="122.32486185534032"><ele>45.0</ele><time>2026-04-24T06:09:31.999Z</time></trkpt><trkpt lat="-17.879137126472312" lon="122.32454168315105"><ele>45.0</ele><time>2026-04-24T06:09:32.999Z</time></trkpt><trkpt lat="-17.879194100449936" lon="122.32422222357613"><ele>45.0</ele><time>2026-04-24T06:09:33.999Z</time></trkpt><trkpt lat="-17.87925153333383" lon="122.32390137199938"><ele>45.0</ele><time>2026-04-24T06:09:34.999Z</time></trkpt><trkpt lat="-17.87930928112043" lon="122.32357985502549"><ele>46.0</ele><time>2026-04-24T06:09:35.999Z</time></trkpt><trkpt lat="-17.879364987587167" lon="122.32325913135757"><ele>47.0</ele><time>2026-04-24T06:09:36.999Z</time></trkpt><trkpt lat="-17.87941903134973" lon="122.3229404570283"><ele>45.0</ele><time>2026-04-24T06:09:37.999Z</time></trkpt><trkpt lat="-17.879473524103588" lon="122.32262427705953"><ele>43.0</ele><time>2026-04-24T06:09:38.999Z</time></trkpt><trkpt lat="-17.87952820372463" lon="122.32231083505374"><ele>44.0</ele><time>2026-04-24T06:09:39.999Z</time></trkpt><trkpt lat="-17.879582817537152" lon="122.32200110728685"><ele>45.0</ele><time>2026-04-24T06:09:40.999Z</time></trkpt><trkpt lat="-17.879635747177133" lon="122.32169372673644"><ele>45.0</ele><time>2026-04-24T06:09:41.999Z</time></trkpt><trkpt lat="-17.879687665164873" lon="122.32139239014384"><ele>45.0</ele><time>2026-04-24T06:09:42.999Z</time></trkpt><trkpt lat="-17.879740031123724" lon="122.32109378684619"><ele>45.0</ele><time>2026-04-24T06:09:43.999Z</time></trkpt><trkpt lat="-17.87979229126211" lon="122.32079755808078"><ele>45.0</ele><time>2026-04-24T06:09:44.999Z</time></trkpt><trkpt lat="-17.879844672939328" lon="122.32050229552523"><ele>44.5</ele><time>2026-04-24T06:09:45.999Z</time></trkpt><trkpt lat="-17.879895672772353" lon="122.3202072953484"><ele>44.0</ele><time>2026-04-24T06:09:46.999Z</time></trkpt><trkpt lat="-17.87994574269779" lon="122.31991491275194"><ele>44.5</ele><time>2026-04-24T06:09:47.999Z</time></trkpt><trkpt lat="-17.879997879486815" lon="122.31962400053946"><ele>45.0</ele><time>2026-04-24T06:09:48.999Z</time></trkpt><trkpt lat="-17.880050722111704" lon="122.3193311286513"><ele>44.0</ele><time>2026-04-24T06:09:49.999Z</time></trkpt><trkpt lat="-17.88010108887546" lon="122.31903720159983"><ele>43.0</ele><time>2026-04-24T06:09:51Z</time></trkpt><trkpt lat="-17.88015471428797" lon="122.3187393174221"><ele>41.5</ele><time>2026-04-24T06:09:52Z</time></trkpt><trkpt lat="-17.880208643148656" lon="122.3184381331524"><ele>40.0</ele><time>2026-04-24T06:09:53Z</time></trkpt><trkpt lat="-17.880259105250694" lon="122.3181418549793"><ele>40.5</ele><time>2026-04-24T06:09:54Z</time></trkpt><trkpt lat="-17.880307987466892" lon="122.31784619324606"><ele>41.0</ele><time>2026-04-24T06:09:55Z</time></trkpt><trkpt lat="-17.88035666621394" lon="122.31754893037191"><ele>41.0</ele><time>2026-04-24T06:09:56Z</time></trkpt><trkpt lat="-17.88040534941279" lon="122.31725127604543"><ele>41.0</ele><time>2026-04-24T06:09:57Z</time></trkpt><trkpt lat="-17.88045647916097" lon="122.31695481335049"><ele>41.0</ele><time>2026-04-24T06:09:58Z</time></trkpt><trkpt lat="-17.88050455868796" lon="122.31665765739794"><ele>41.0</ele><time>2026-04-24T06:09:59Z</time></trkpt><trkpt lat="-17.880550652363485" lon="122.31636179727619"><ele>40.0</ele><time>2026-04-24T06:10:00Z</time></trkpt><trkpt lat="-17.880599198546125" lon="122.31605743580646"><ele>39.0</ele><time>2026-04-24T06:10:01Z</time></trkpt><trkpt lat="-17.880649706124707" lon="122.3157491656405"><ele>38.5</ele><time>2026-04-24T06:10:02Z</time></trkpt><trkpt lat="-17.880704587724185" lon="122.31543837719022"><ele>38.0</ele><time>2026-04-24T06:10:03Z</time></trkpt><trkpt lat="-17.880760353483115" lon="122.31512551240854"><ele>38.0</ele><time>2026-04-24T06:10:04Z</time></trkpt><trkpt lat="-17.880814393841177" lon="122.31481434009592"><ele>38.0</ele><time>2026-04-24T06:10:05Z</time></trkpt><trkpt lat="-17.88086802656646" lon="122.31450166948791"><ele>37.5</ele><time>2026-04-24T06:10:06Z</time></trkpt><trkpt lat="-17.88092043311255" lon="122.31418961934895"><ele>37.0</ele><time>2026-04-24T06:10:07Z</time></trkpt><trkpt lat="-17.88097576729546" lon="122.31387574673374"><ele>36.5</ele><time>2026-04-24T06:10:08Z</time></trkpt><trkpt lat="-17.881030374737897" lon="122.31356176649903"><ele>36.0</ele><time>2026-04-24T06:10:09Z</time></trkpt><trkpt lat="-17.881084597234864" lon="122.31324315969975"><ele>35.5</ele><time>2026-04-24T06:10:10Z</time></trkpt><trkpt lat="-17.881140992520805" lon="122.31292347314405"><ele>35.0</ele><time>2026-04-24T06:10:11Z</time></trkpt><trkpt lat="-17.88119843111046" lon="122.31260368397031"><ele>35.0</ele><time>2026-04-24T06:10:12Z</time></trkpt><trkpt lat="-17.881255138917236" lon="122.31228765287244"><ele>35.0</ele><time>2026-04-24T06:10:13Z</time></trkpt><trkpt lat="-17.8813094885874" lon="122.31197317208988"><ele>35.5</ele><time>2026-04-24T06:10:14Z</time></trkpt><trkpt lat="-17.881362845369527" lon="122.31166096223237"><ele>36.0</ele><time>2026-04-24T06:10:15Z</time></trkpt><trkpt lat="-17.881416640266405" lon="122.31135048900694"><ele>36.0</ele><time>2026-04-24T06:10:16Z</time></trkpt><trkpt lat="-17.881470109322468" lon="122.31104200485647"><ele>36.0</ele><time>2026-04-24T06:10:17Z</time></trkpt><trkpt lat="-17.881522734492954" lon="122.31073432309145"><ele>36.5</ele><time>2026-04-24T06:10:18Z</time></trkpt><trkpt lat="-17.881575977995034" lon="122.31042377318637"><ele>37.0</ele><time>2026-04-24T06:10:19Z</time></trkpt><trkpt lat="-17.881628487532986" lon="122.31011531116674"><ele>37.0</ele><time>2026-04-24T06:10:20Z</time></trkpt><trkpt lat="-17.88168031595861" lon="122.30980292958166"><ele>37.0</ele><time>2026-04-24T06:10:21Z</time></trkpt><trkpt lat="-17.881732176543895" lon="122.30949316501489"><ele>36.5</ele><time>2026-04-24T06:10:22Z</time></trkpt><trkpt lat="-17.881784958892144" lon="122.30918186966835"><ele>36.0</ele><time>2026-04-24T06:10:23Z</time></trkpt><trkpt lat="-17.881839651814648" lon="122.30886879281937"><ele>35.5</ele><time>2026-04-24T06:10:24Z</time></trkpt><trkpt lat="-17.881895155937002" lon="122.30855712174521"><ele>35.0</ele><time>2026-04-24T06:10:25Z</time></trkpt><trkpt lat="-17.881950193712775" lon="122.30824532758284"><ele>35.0</ele><time>2026-04-24T06:10:26Z</time></trkpt><trkpt lat="-17.88200200258292" lon="122.30793166312999"><ele>35.0</ele><time>2026-04-24T06:10:27Z</time></trkpt><trkpt lat="-17.882054779381725" lon="122.30761004403917"><ele>35.0</ele><time>2026-04-24T06:10:28Z</time></trkpt><trkpt lat="-17.882108709417558" lon="122.30729082543124"><ele>35.0</ele><time>2026-04-24T06:10:29Z</time></trkpt><trkpt lat="-17.882164261971944" lon="122.30696916778815"><ele>35.0</ele><time>2026-04-24T06:10:30Z</time></trkpt><trkpt lat="-17.88222023500894" lon="122.3066480648352"><ele>35.0</ele><time>2026-04-24T06:10:31Z</time></trkpt><trkpt lat="-17.8822773155912" lon="122.3063236490048"><ele>35.0</ele><time>2026-04-24T06:10:32Z</time></trkpt><trkpt lat="-17.88233349453777" lon="122.30600394818836"><ele>35.0</ele><time>2026-04-24T06:10:33Z</time></trkpt><trkpt lat="-17.88238903185573" lon="122.30568125771129"><ele>34.0</ele><time>2026-04-24T06:10:34Z</time></trkpt><trkpt lat="-17.88244386700308" lon="122.30536216950269"><ele>33.0</ele><time>2026-04-24T06:10:35Z</time></trkpt><trkpt lat="-17.88250036550892" lon="122.30504316883898"><ele>32.5</ele><time>2026-04-24T06:10:36Z</time></trkpt><trkpt lat="-17.882556566723235" lon="122.30472207443853"><ele>32.0</ele><time>2026-04-24T06:10:37Z</time></trkpt><trkpt lat="-17.882609946304886" lon="122.30440144892002"><ele>33.0</ele><time>2026-04-24T06:10:38Z</time></trkpt><trkpt lat="-17.88266203244793" lon="122.30407711939"><ele>34.0</ele><time>2026-04-24T06:10:39Z</time></trkpt><trkpt lat="-17.882714734552504" lon="122.30375027332653"><ele>34.0</ele><time>2026-04-24T06:10:40Z</time></trkpt><trkpt lat="-17.88276834894729" lon="122.30342343542354"><ele>34.0</ele><time>2026-04-24T06:10:41Z</time></trkpt><trkpt lat="-17.882823749590088" lon="122.30309799693744"><ele>34.0</ele><time>2026-04-24T06:10:42Z</time></trkpt><trkpt lat="-17.88287913086667" lon="122.30277507298261"><ele>34.0</ele><time>2026-04-24T06:10:43Z</time></trkpt><trkpt lat="-17.88293730485244" lon="122.30245182626678"><ele>34.0</ele><time>2026-04-24T06:10:44Z</time></trkpt><trkpt lat="-17.88299457088632" lon="122.30213279798329"><ele>34.0</ele><time>2026-04-24T06:10:45Z</time></trkpt><trkpt lat="-17.88305023313967" lon="122.30181056397542"><ele>34.0</ele><time>2026-04-24T06:10:46Z</time></trkpt><trkpt lat="-17.88310665230901" lon="122.3014901647446"><ele>34.0</ele><time>2026-04-24T06:10:47Z</time></trkpt><trkpt lat="-17.883164355947283" lon="122.3011711810073"><ele>34.0</ele><time>2026-04-24T06:10:48Z</time></trkpt><trkpt lat="-17.88322124866167" lon="122.30085306001304"><ele>34.0</ele><time>2026-04-24T06:10:49Z</time></trkpt><trkpt lat="-17.88327469789386" lon="122.30053660558085"><ele>35.5</ele><time>2026-04-24T06:10:50Z</time></trkpt><trkpt lat="-17.88332902758719" lon="122.30021795096172"><ele>37.0</ele><time>2026-04-24T06:10:51Z</time></trkpt><trkpt lat="-17.883383143195577" lon="122.29990499292366"><ele>36.0</ele><time>2026-04-24T06:10:52Z</time></trkpt><trkpt lat="-17.883434551772186" lon="122.29959342447492"><ele>35.0</ele><time>2026-04-24T06:10:53Z</time></trkpt><trkpt lat="-17.883485730191996" lon="122.29928383095631"><ele>35.0</ele><time>2026-04-24T06:10:54Z</time></trkpt><trkpt lat="-17.88353764170253" lon="122.29897496855237"><ele>35.0</ele><time>2026-04-24T06:10:55Z</time></trkpt><trkpt lat="-17.88359165677769" lon="122.29866614296657"><ele>34.0</ele><time>2026-04-24T06:10:56Z</time></trkpt><trkpt lat="-17.883645203366353" lon="122.29835942084688"><ele>33.0</ele><time>2026-04-24T06:10:57Z</time></trkpt><trkpt lat="-17.88370038535556" lon="122.29805160820186"><ele>33.0</ele><time>2026-04-24T06:10:58Z</time></trkpt><trkpt lat="-17.88375471329933" lon="122.29774688022431"><ele>33.0</ele><time>2026-04-24T06:10:59Z</time></trkpt><trkpt lat="-17.883808830336882" lon="122.29744215791193"><ele>34.0</ele><time>2026-04-24T06:11:00Z</time></trkpt><trkpt lat="-17.88386189576406" lon="122.29713789893046"><ele>35.0</ele><time>2026-04-24T06:11:01Z</time></trkpt><trkpt lat="-17.883914608021968" lon="122.29683113214588"><ele>35.0</ele><time>2026-04-24T06:11:02Z</time></trkpt><trkpt lat="-17.883967617735006" lon="122.29652304765017"><ele>35.0</ele><time>2026-04-24T06:11:03Z</time></trkpt><trkpt lat="-17.884019582611767" lon="122.29621815862865"><ele>35.0</ele><time>2026-04-24T06:11:04Z</time></trkpt><trkpt lat="-17.88406948295909" lon="122.29591601227492"><ele>35.0</ele><time>2026-04-24T06:11:05Z</time></trkpt><trkpt lat="-17.884118742458465" lon="122.29561534794328"><ele>34.5</ele><time>2026-04-24T06:11:06Z</time></trkpt><trkpt lat="-17.884168300355178" lon="122.29531282768976"><ele>34.0</ele><time>2026-04-24T06:11:07Z</time></trkpt><trkpt lat="-17.884220952388564" lon="122.2950077267565"><ele>35.5</ele><time>2026-04-24T06:11:08Z</time></trkpt><trkpt lat="-17.88427421504392" lon="122.29470364658825"><ele>37.0</ele><time>2026-04-24T06:11:09Z</time></trkpt><trkpt lat="-17.88432825008276" lon="122.2943976430907"><ele>37.0</ele><time>2026-04-24T06:11:10Z</time></trkpt><trkpt lat="-17.884380053955013" lon="122.29409236744137"><ele>37.0</ele><time>2026-04-24T06:11:11Z</time></trkpt><trkpt lat="-17.88443053540736" lon="122.29378805458597"><ele>37.0</ele><time>2026-04-24T06:11:12Z</time></trkpt><trkpt lat="-17.884480113514336" lon="122.29348282605558"><ele>37.0</ele><time>2026-04-24T06:11:13Z</time></trkpt><trkpt lat="-17.884529628494438" lon="122.29317646408332"><ele>36.0</ele><time>2026-04-24T06:11:14Z</time></trkpt><trkpt lat="-17.88457846073462" lon="122.29287072002188"><ele>35.0</ele><time>2026-04-24T06:11:15Z</time></trkpt><trkpt lat="-17.884629254826333" lon="122.29256504633871"><ele>35.0</ele><time>2026-04-24T06:11:16Z</time></trkpt><trkpt lat="-17.88468365910038" lon="122.29225813939503"><ele>35.0</ele><time>2026-04-24T06:11:17Z</time></trkpt><trkpt lat="-17.884740112695255" lon="122.29195333957142"><ele>35.0</ele><time>2026-04-24T06:11:18Z</time></trkpt><trkpt lat="-17.884794607174033" lon="122.29165344177117"><ele>35.0</ele><time>2026-04-24T06:11:19Z</time></trkpt><trkpt lat="-17.884848211635287" lon="122.29135271954084"><ele>35.0</ele><time>2026-04-24T06:11:20Z</time></trkpt><trkpt lat="-17.884902063360546" lon="122.2910538623705"><ele>35.0</ele><time>2026-04-24T06:11:21Z</time></trkpt><trkpt lat="-17.88495442127486" lon="122.2907568688535"><ele>35.5</ele><time>2026-04-24T06:11:22Z</time></trkpt><trkpt lat="-17.88500506372274" lon="122.29046308773059"><ele>36.0</ele><time>2026-04-24T06:11:23Z</time></trkpt><trkpt lat="-17.885054183983435" lon="122.2901687980145"><ele>35.0</ele><time>2026-04-24T06:11:24Z</time></trkpt><trkpt lat="-17.88510129063388" lon="122.28987600280298"><ele>34.0</ele><time>2026-04-24T06:11:25Z</time></trkpt><trkpt lat="-17.885150711365256" lon="122.2895817327873"><ele>33.5</ele><time>2026-04-24T06:11:26Z</time></trkpt><trkpt lat="-17.885200107228368" lon="122.28928730568813"><ele>33.0</ele><time>2026-04-24T06:11:27Z</time></trkpt><trkpt lat="-17.88525041516283" lon="122.28899576399121"><ele>33.0</ele><time>2026-04-24T06:11:28Z</time></trkpt><trkpt lat="-17.885302350625455" lon="122.28870299753537"><ele>33.0</ele><time>2026-04-24T06:11:29Z</time></trkpt><trkpt lat="-17.885352049805835" lon="122.28841284680948"><ele>33.0</ele><time>2026-04-24T06:11:30Z</time></trkpt><trkpt lat="-17.88539878034085" lon="122.2881253022121"><ele>33.0</ele><time>2026-04-24T06:11:31Z</time></trkpt><trkpt lat="-17.885447880480466" lon="122.2878382839339"><ele>33.0</ele><time>2026-04-24T06:11:32Z</time></trkpt><trkpt lat="-17.885498496396472" lon="122.2875485236182"><ele>33.0</ele><time>2026-04-24T06:11:33Z</time></trkpt><trkpt lat="-17.885549445685772" lon="122.28725860302329"><ele>32.5</ele><time>2026-04-24T06:11:34Z</time></trkpt><trkpt lat="-17.885601709139404" lon="122.28696740543899"><ele>32.0</ele><time>2026-04-24T06:11:35Z</time></trkpt><trkpt lat="-17.885654012832312" lon="122.28667923850792"><ele>33.0</ele><time>2026-04-24T06:11:36Z</time></trkpt><trkpt lat="-17.885703323691985" lon="122.28639107284987"><ele>34.0</ele><time>2026-04-24T06:11:37Z</time></trkpt><trkpt lat="-17.885752412915096" lon="122.28610159105816"><ele>34.0</ele><time>2026-04-24T06:11:38Z</time></trkpt><trkpt lat="-17.885801000500553" lon="122.28581240171378"><ele>34.0</ele><time>2026-04-24T06:11:39Z</time></trkpt><trkpt lat="-17.885848119772454" lon="122.28551840547654"><ele>33.5</ele><time>2026-04-24T06:11:40Z</time></trkpt><trkpt lat="-17.885896385288703" lon="122.28522289427059"><ele>33.0</ele><time>2026-04-24T06:11:41Z</time></trkpt><trkpt lat="-17.88594808892821" lon="122.28492897706477"><ele>31.5</ele><time>2026-04-24T06:11:42Z</time></trkpt><trkpt lat="-17.8860002588448" lon="122.28463335288575"><ele>30.0</ele><time>2026-04-24T06:11:43Z</time></trkpt><trkpt lat="-17.8860508761795" lon="122.2843364966651"><ele>30.0</ele><time>2026-04-24T06:11:44Z</time></trkpt><trkpt lat="-17.886102340166353" lon="122.2840373997081"><ele>30.0</ele><time>2026-04-24T06:11:45Z</time></trkpt><trkpt lat="-17.886155195555734" lon="122.28373816685378"><ele>30.5</ele><time>2026-04-24T06:11:46Z</time></trkpt><trkpt lat="-17.886208350095316" lon="122.28343981017062"><ele>31.0</ele><time>2026-04-24T06:11:47Z</time></trkpt><trkpt lat="-17.886258280567823" lon="122.28314859660891"><ele>30.5</ele><time>2026-04-24T06:11:48Z</time></trkpt><trkpt lat="-17.88630807993647" lon="122.2828628805446"><ele>30.0</ele><time>2026-04-24T06:11:49Z</time></trkpt><trkpt lat="-17.886357463404547" lon="122.28258064085783"><ele>30.0</ele><time>2026-04-24T06:11:50Z</time></trkpt><trkpt lat="-17.886406799499838" lon="122.28230104997658"><ele>30.0</ele><time>2026-04-24T06:11:51Z</time></trkpt><trkpt lat="-17.88645200466567" lon="122.28202854555124"><ele>29.5</ele><time>2026-04-24T06:11:52Z</time></trkpt><trkpt lat="-17.886497284847156" lon="122.28175509412162"><ele>29.0</ele><time>2026-04-24T06:11:53Z</time></trkpt><trkpt lat="-17.88654286322774" lon="122.28148275286853"><ele>28.5</ele><time>2026-04-24T06:11:54Z</time></trkpt><trkpt lat="-17.88658863663319" lon="122.28121616894717"><ele>28.0</ele><time>2026-04-24T06:11:55Z</time></trkpt><trkpt lat="-17.886635438555096" lon="122.28094885661717"><ele>28.0</ele><time>2026-04-24T06:11:56Z</time></trkpt><trkpt lat="-17.88668089914137" lon="122.2806833950584"><ele>28.0</ele><time>2026-04-24T06:11:57Z</time></trkpt><trkpt lat="-17.886724382821004" lon="122.28042226109895"><ele>27.5</ele><time>2026-04-24T06:11:58Z</time></trkpt><trkpt lat="-17.88676669152365" lon="122.28016115023956"><ele>27.0</ele><time>2026-04-24T06:11:59Z</time></trkpt><trkpt lat="-17.886807742827973" lon="122.27991637912629"><ele>27.333333333333336</ele><time>2026-04-24T06:12:00Z</time></trkpt><trkpt lat="-17.886848225372958" lon="122.27968689701085"><ele>27.666666666666668</ele><time>2026-04-24T06:12:01Z</time></trkpt><trkpt lat="-17.88688412606174" lon="122.27947105160612"><ele>28.0</ele><time>2026-04-24T06:12:02Z</time></trkpt><trkpt lat="-17.886917330073327" lon="122.27926994379216"><ele>28.0</ele><time>2026-04-24T06:12:03Z</time></trkpt><trkpt lat="-17.886946721186902" lon="122.27907403134729"><ele>28.0</ele><time>2026-04-24T06:12:04Z</time></trkpt><trkpt lat="-17.88696537222715" lon="122.27888860225028"><ele>28.0</ele><time>2026-04-24T06:12:05Z</time></trkpt><trkpt lat="-17.8869673470654" lon="122.27871075708666"><ele>27.666666666666668</ele><time>2026-04-24T06:12:06Z</time></trkpt><trkpt lat="-17.8869539587486" lon="122.27854040538999"><ele>27.333333333333336</ele><time>2026-04-24T06:12:07Z</time></trkpt><trkpt lat="-17.886932781849243" lon="122.2783786141392"><ele>27.0</ele><time>2026-04-24T06:12:08Z</time></trkpt><trkpt lat="-17.886920645589075" lon="122.27822716838227"><ele>26.25</ele><time>2026-04-24T06:12:09Z</time></trkpt><trkpt lat="-17.88692959884502" lon="122.27808692822948"><ele>25.5</ele><time>2026-04-24T06:12:10Z</time></trkpt><trkpt lat="-17.886968368924293" lon="122.27795375389334"><ele>24.75</ele><time>2026-04-24T06:12:11Z</time></trkpt><trkpt lat="-17.887037265558" lon="122.27783622287457"><ele>24.0</ele><time>2026-04-24T06:12:12Z</time></trkpt><trkpt lat="-17.887125720293707" lon="122.2777298963609"><ele>24.0</ele><time>2026-04-24T06:12:13Z</time></trkpt><trkpt lat="-17.887213205309173" lon="122.27761294428953"><ele>24.0</ele><time>2026-04-24T06:12:14Z</time></trkpt><trkpt lat="-17.887276650560448" lon="122.27746995525817"><ele>24.0</ele><time>2026-04-24T06:12:15Z</time></trkpt><trkpt lat="-17.887317472741124" lon="122.27729397394972"><ele>23.333333333333332</ele><time>2026-04-24T06:12:16Z</time></trkpt><trkpt lat="-17.88733795863999" lon="122.27709609169129"><ele>22.666666666666664</ele><time>2026-04-24T06:12:17Z</time></trkpt><trkpt lat="-17.887353561963128" lon="122.27688420013584"><ele>22.0</ele><time>2026-04-24T06:12:18Z</time></trkpt><trkpt lat="-17.88737758452447" lon="122.2766623869312"><ele>22.0</ele><time>2026-04-24T06:12:19Z</time></trkpt><trkpt lat="-17.887407642209595" lon="122.27645129142762"><ele>22.0</ele><time>2026-04-24T06:12:20Z</time></trkpt><trkpt lat="-17.88744408465332" lon="122.27622990960643"><ele>22.0</ele><time>2026-04-24T06:12:21Z</time></trkpt><trkpt lat="-17.887483535976543" lon="122.27599171616232"><ele>23.0</ele><time>2026-04-24T06:12:22Z</time></trkpt><trkpt lat="-17.887526379766943" lon="122.27574830474546"><ele>24.0</ele><time>2026-04-24T06:12:23Z</time></trkpt><trkpt lat="-17.887567512442" lon="122.275513496603"><ele>23.0</ele><time>2026-04-24T06:12:24Z</time></trkpt><trkpt lat="-17.88761035762049" lon="122.275265948306"><ele>22.0</ele><time>2026-04-24T06:12:25Z</time></trkpt><trkpt lat="-17.887654914889755" lon="122.27501436678776"><ele>21.5</ele><time>2026-04-24T06:12:26Z</time></trkpt><trkpt lat="-17.887698677190308" lon="122.27475822694659"><ele>21.0</ele><time>2026-04-24T06:12:27Z</time></trkpt><trkpt lat="-17.8877418241879" lon="122.27449943000602"><ele>21.0</ele><time>2026-04-24T06:12:28Z</time></trkpt><trkpt lat="-17.887786426512985" lon="122.2742356360853"><ele>21.0</ele><time>2026-04-24T06:12:29Z</time></trkpt><trkpt lat="-17.887832368026224" lon="122.27397210504623"><ele>20.5</ele><time>2026-04-24T06:12:30Z</time></trkpt><trkpt lat="-17.887878887088355" lon="122.27370535420326"><ele>20.0</ele><time>2026-04-24T06:12:31Z</time></trkpt><trkpt lat="-17.887928198728723" lon="122.27343457708255"><ele>20.0</ele><time>2026-04-24T06:12:32Z</time></trkpt><trkpt lat="-17.887976935439607" lon="122.2731574864929"><ele>20.0</ele><time>2026-04-24T06:12:33Z</time></trkpt><trkpt lat="-17.888024544316224" lon="122.27287658081872"><ele>19.5</ele><time>2026-04-24T06:12:34Z</time></trkpt><trkpt lat="-17.88807031321639" lon="122.27259407242245"><ele>19.0</ele><time>2026-04-24T06:12:35Z</time></trkpt><trkpt lat="-17.888116149027518" lon="122.27230939039706"><ele>18.5</ele><time>2026-04-24T06:12:36Z</time></trkpt><trkpt lat="-17.888164718436386" lon="122.27202354925674"><ele>18.0</ele><time>2026-04-24T06:12:37Z</time></trkpt><trkpt lat="-17.888211626795794" lon="122.27173616833396"><ele>18.0</ele><time>2026-04-24T06:12:38Z</time></trkpt><trkpt lat="-17.888258440985183" lon="122.27145029433363"><ele>18.0</ele><time>2026-04-24T06:12:39Z</time></trkpt><trkpt lat="-17.888312702098446" lon="122.27116044769939"><ele>18.0</ele><time>2026-04-24T06:12:40Z</time></trkpt><trkpt lat="-17.888366602344437" lon="122.27086804125747"><ele>18.0</ele><time>2026-04-24T06:12:41Z</time></trkpt><trkpt lat="-17.88841847763317" lon="122.27057612319979"><ele>18.5</ele><time>2026-04-24T06:12:42Z</time></trkpt><trkpt lat="-17.888466895451213" lon="122.27028614547052"><ele>19.0</ele><time>2026-04-24T06:12:43Z</time></trkpt><trkpt lat="-17.888516284276392" lon="122.26999477094992"><ele>19.0</ele><time>2026-04-24T06:12:44Z</time></trkpt><trkpt lat="-17.888564662154906" lon="122.26970167776072"><ele>19.0</ele><time>2026-04-24T06:12:45Z</time></trkpt><trkpt lat="-17.88861440526188" lon="122.26941189912"><ele>19.0</ele><time>2026-04-24T06:12:46Z</time></trkpt><trkpt lat="-17.888663054250944" lon="122.26912408674293"><ele>19.0</ele><time>2026-04-24T06:12:47Z</time></trkpt><trkpt lat="-17.888712351975116" lon="122.26883749381265"><ele>17.0</ele><time>2026-04-24T06:12:48Z</time></trkpt><trkpt lat="-17.88876060608009" lon="122.26854985109482"><ele>15.0</ele><time>2026-04-24T06:12:49Z</time></trkpt><trkpt lat="-17.888808022894064" lon="122.26826789490553"><ele>16.0</ele><time>2026-04-24T06:12:50Z</time></trkpt><trkpt lat="-17.888857189919605" lon="122.26798159080023"><ele>17.0</ele><time>2026-04-24T06:12:51Z</time></trkpt><trkpt lat="-17.888904654547783" lon="122.26769975052201"><ele>17.0</ele><time>2026-04-24T06:12:52Z</time></trkpt><trkpt lat="-17.888955749547787" lon="122.26741585946006"><ele>17.0</ele><time>2026-04-24T06:12:53Z</time></trkpt><trkpt lat="-17.889009726797024" lon="122.26713183564304"><ele>16.0</ele><time>2026-04-24T06:12:54Z</time></trkpt><trkpt lat="-17.889064327278334" lon="122.26684790062109"><ele>15.0</ele><time>2026-04-24T06:12:55Z</time></trkpt><trkpt lat="-17.889127159984337" lon="122.2665662876443"><ele>15.0</ele><time>2026-04-24T06:12:56Z</time></trkpt><trkpt lat="-17.889205717342502" lon="122.26629021371261"><ele>15.0</ele><time>2026-04-24T06:12:57Z</time></trkpt><trkpt lat="-17.889297906057518" lon="122.26601603837207"><ele>14.5</ele><time>2026-04-24T06:12:58Z</time></trkpt><trkpt lat="-17.889402990963514" lon="122.2657464857822"><ele>14.0</ele><time>2026-04-24T06:12:59Z</time></trkpt><trkpt lat="-17.88952110602821" lon="122.26548578954898"><ele>14.0</ele><time>2026-04-24T06:13:00Z</time></trkpt><trkpt lat="-17.88965008361228" lon="122.26523817280521"><ele>14.0</ele><time>2026-04-24T06:13:01Z</time></trkpt><trkpt lat="-17.889798942975865" lon="122.26499473597295"><ele>14.0</ele><time>2026-04-24T06:13:02Z</time></trkpt><trkpt lat="-17.889959848537217" lon="122.26475769913625"><ele>14.0</ele><time>2026-04-24T06:13:03Z</time></trkpt><trkpt lat="-17.890129834692093" lon="122.26453129362731"><ele>14.5</ele><time>2026-04-24T06:13:04Z</time></trkpt><trkpt lat="-17.89030837680302" lon="122.26431591248357"><ele>15.0</ele><time>2026-04-24T06:13:05Z</time></trkpt><trkpt lat="-17.8904957581461" lon="122.26410379192585"><ele>15.5</ele><time>2026-04-24T06:13:06Z</time></trkpt><trkpt lat="-17.8906876784148" lon="122.26389302249262"><ele>16.0</ele><time>2026-04-24T06:13:07Z</time></trkpt><trkpt lat="-17.890880765302267" lon="122.26368092938418"><ele>13.5</ele><time>2026-04-24T06:13:08Z</time></trkpt><trkpt lat="-17.891073250025084" lon="122.26346918160486"><ele>11.0</ele><time>2026-04-24T06:13:09Z</time></trkpt><trkpt lat="-17.89126519385816" lon="122.26325755707161"><ele>11.5</ele><time>2026-04-24T06:13:10Z</time></trkpt><trkpt lat="-17.8914554617887" lon="122.26304556228642"><ele>12.0</ele><time>2026-04-24T06:13:11Z</time></trkpt><trkpt lat="-17.89164510796007" lon="122.26283439097118"><ele>12.0</ele><time>2026-04-24T06:13:12Z</time></trkpt><trkpt lat="-17.891834075335435" lon="122.26262422073194"><ele>12.0</ele><time>2026-04-24T06:13:13Z</time></trkpt><trkpt lat="-17.892021313860848" lon="122.26241786040046"><ele>11.5</ele><time>2026-04-24T06:13:14Z</time></trkpt><trkpt lat="-17.89220348284627" lon="122.26221445238266"><ele>11.0</ele><time>2026-04-24T06:13:15Z</time></trkpt><trkpt lat="-17.89238688144212" lon="122.26201096899383"><ele>11.0</ele><time>2026-04-24T06:13:16Z</time></trkpt><trkpt lat="-17.892570474734754" lon="122.26180989645799"><ele>11.0</ele><time>2026-04-24T06:13:17Z</time></trkpt><trkpt lat="-17.892756791135078" lon="122.26160412816509"><ele>10.5</ele><time>2026-04-24T06:13:18Z</time></trkpt><trkpt lat="-17.89293932107813" lon="122.261399662478"><ele>10.0</ele><time>2026-04-24T06:13:19Z</time></trkpt><trkpt lat="-17.89312290896735" lon="122.26119258857544"><ele>10.0</ele><time>2026-04-24T06:13:20Z</time></trkpt><trkpt lat="-17.8933036115905" lon="122.26098661335978"><ele>10.0</ele><time>2026-04-24T06:13:21Z</time></trkpt><trkpt lat="-17.893488402928554" lon="122.2607795372724"><ele>11.0</ele><time>2026-04-24T06:13:22Z</time></trkpt><trkpt lat="-17.893676554666527" lon="122.2605738534115"><ele>12.0</ele><time>2026-04-24T06:13:23Z</time></trkpt><trkpt lat="-17.893867783431734" lon="122.2603653407772"><ele>12.0</ele><time>2026-04-24T06:13:24Z</time></trkpt><trkpt lat="-17.894055628904084" lon="122.26015815913902"><ele>12.0</ele><time>2026-04-24T06:13:25Z</time></trkpt><trkpt lat="-17.894246234309474" lon="122.25994937571468"><ele>10.5</ele><time>2026-04-24T06:13:26Z</time></trkpt><trkpt lat="-17.894435550714757" lon="122.25973990249294"><ele>9.0</ele><time>2026-04-24T06:13:27Z</time></trkpt><trkpt lat="-17.89462215863912" lon="122.25952967767716"><ele>9.0</ele><time>2026-04-24T06:13:28Z</time></trkpt><trkpt lat="-17.894815562702455" lon="122.25931441617465"><ele>9.0</ele><time>2026-04-24T06:13:29Z</time></trkpt><trkpt lat="-17.895005380262226" lon="122.25910132677943"><ele>9.0</ele><time>2026-04-24T06:13:30Z</time></trkpt><trkpt lat="-17.895197533656077" lon="122.25888375068168"><ele>9.0</ele><time>2026-04-24T06:13:31Z</time></trkpt><trkpt lat="-17.895388098548224" lon="122.25866811223953"><ele>9.0</ele><time>2026-04-24T06:13:32Z</time></trkpt><trkpt lat="-17.895582568374618" lon="122.25845182740902"><ele>9.0</ele><time>2026-04-24T06:13:33Z</time></trkpt><trkpt lat="-17.89577642656838" lon="122.25823616016856"><ele>10.0</ele><time>2026-04-24T06:13:34Z</time></trkpt><trkpt lat="-17.895968403889757" lon="122.25802243267222"><ele>11.0</ele><time>2026-04-24T06:13:35Z</time></trkpt><trkpt lat="-17.89615873142674" lon="122.25780889231798"><ele>11.0</ele><time>2026-04-24T06:13:36Z</time></trkpt><trkpt lat="-17.896349111001562" lon="122.25759612143305"><ele>11.0</ele><time>2026-04-24T06:13:37Z</time></trkpt><trkpt lat="-17.896543547789626" lon="122.25738306782947"><ele>10.5</ele><time>2026-04-24T06:13:38Z</time></trkpt><trkpt lat="-17.896739066954925" lon="122.25717119506409"><ele>10.0</ele><time>2026-04-24T06:13:39Z</time></trkpt><trkpt lat="-17.89693082583178" lon="122.25695980203257"><ele>10.0</ele><time>2026-04-24T06:13:40Z</time></trkpt><trkpt lat="-17.897119713336107" lon="122.25674696213058"><ele>10.0</ele><time>2026-04-24T06:13:41Z</time></trkpt><trkpt lat="-17.89730506217671" lon="122.25653713549491"><ele>10.5</ele><time>2026-04-24T06:13:42Z</time></trkpt><trkpt lat="-17.897493974862034" lon="122.25632468960023"><ele>11.0</ele><time>2026-04-24T06:13:43Z</time></trkpt><trkpt lat="-17.89768370938323" lon="122.25611159251942"><ele>11.0</ele><time>2026-04-24T06:13:44Z</time></trkpt><trkpt lat="-17.89787298952504" lon="122.25590095145131"><ele>11.0</ele><time>2026-04-24T06:13:45Z</time></trkpt><trkpt lat="-17.898063741945634" lon="122.25569525812924"><ele>10.5</ele><time>2026-04-24T06:13:46Z</time></trkpt><trkpt lat="-17.898255222432333" lon="122.25549306556522"><ele>10.0</ele><time>2026-04-24T06:13:47Z</time></trkpt><trkpt lat="-17.8984461095361" lon="122.2552882381739"><ele>9.5</ele><time>2026-04-24T06:13:48Z</time></trkpt><trkpt lat="-17.898627019284728" lon="122.25508363928088"><ele>9.0</ele><time>2026-04-24T06:13:49Z</time></trkpt><trkpt lat="-17.89881277655647" lon="122.25487618564055"><ele>9.5</ele><time>2026-04-24T06:13:50Z</time></trkpt><trkpt lat="-17.898997862190463" lon="122.25466866607645"><ele>10.0</ele><time>2026-04-24T06:13:51Z</time></trkpt><trkpt lat="-17.899180908361735" lon="122.25446482142837"><ele>10.5</ele><time>2026-04-24T06:13:52Z</time></trkpt><trkpt lat="-17.89936388000652" lon="122.25426093391488"><ele>11.0</ele><time>2026-04-24T06:13:53Z</time></trkpt><trkpt lat="-17.899545979628915" lon="122.25405939211565"><ele>11.5</ele><time>2026-04-24T06:13:54Z</time></trkpt><trkpt lat="-17.8997313484734" lon="122.25386422584891"><ele>12.0</ele><time>2026-04-24T06:13:55Z</time></trkpt><trkpt lat="-17.899922496811467" lon="122.2536816328451"><ele>12.0</ele><time>2026-04-24T06:13:56Z</time></trkpt><trkpt lat="-17.900128630811793" lon="122.25351073778519"><ele>12.0</ele><time>2026-04-24T06:13:57Z</time></trkpt><trkpt lat="-17.90033654567123" lon="122.2533523688887"><ele>12.0</ele><time>2026-04-24T06:13:58Z</time></trkpt><trkpt lat="-17.90055580375582" lon="122.2532050456738"><ele>12.0</ele><time>2026-04-24T06:13:59Z</time></trkpt><trkpt lat="-17.900782661555663" lon="122.25306820569948"><ele>10.5</ele><time>2026-04-24T06:14:00Z</time></trkpt><trkpt lat="-17.901017495155358" lon="122.25294205985594"><ele>9.0</ele><time>2026-04-24T06:14:01Z</time></trkpt><trkpt lat="-17.901253379301323" lon="122.25282929956866"><ele>9.0</ele><time>2026-04-24T06:14:02Z</time></trkpt><trkpt lat="-17.901479187941245" lon="122.25273521165668"><ele>9.0</ele><time>2026-04-24T06:14:03Z</time></trkpt><trkpt lat="-17.901703239030258" lon="122.25265076990226"><ele>9.5</ele><time>2026-04-24T06:14:04Z</time></trkpt><trkpt lat="-17.901931608022213" lon="122.25256248727013"><ele>10.0</ele><time>2026-04-24T06:14:05Z</time></trkpt><trkpt lat="-17.902162743501215" lon="122.25246570244802"><ele>10.0</ele><time>2026-04-24T06:14:06Z</time></trkpt><trkpt lat="-17.902396716943215" lon="122.25236106207912"><ele>10.0</ele><time>2026-04-24T06:14:07Z</time></trkpt><trkpt lat="-17.90263448805227" lon="122.25225518246839"><ele>11.0</ele><time>2026-04-24T06:14:08Z</time></trkpt><trkpt lat="-17.902872454986767" lon="122.25215436504043"><ele>12.0</ele><time>2026-04-24T06:14:09Z</time></trkpt><trkpt lat="-17.903110895254603" lon="122.25205373184332"><ele>12.0</ele><time>2026-04-24T06:14:10Z</time></trkpt><trkpt lat="-17.9033499523109" lon="122.25195384882436"><ele>12.0</ele><time>2026-04-24T06:14:11Z</time></trkpt><trkpt lat="-17.903594044465905" lon="122.2518521569651"><ele>12.0</ele><time>2026-04-24T06:14:12Z</time></trkpt><trkpt lat="-17.903841958305783" lon="122.25174950750997"><ele>12.0</ele><time>2026-04-24T06:14:13Z</time></trkpt><trkpt lat="-17.90408964355163" lon="122.25164843289691"><ele>11.5</ele><time>2026-04-24T06:14:14Z</time></trkpt><trkpt lat="-17.904336150327584" lon="122.25154609018685"><ele>11.0</ele><time>2026-04-24T06:14:15Z</time></trkpt><trkpt lat="-17.904578846477474" lon="122.25144214020364"><ele>12.0</ele><time>2026-04-24T06:14:16Z</time></trkpt><trkpt lat="-17.904814471810038" lon="122.25134197017054"><ele>13.0</ele><time>2026-04-24T06:14:17Z</time></trkpt><trkpt lat="-17.905049039375083" lon="122.25124360930353"><ele>12.0</ele><time>2026-04-24T06:14:18Z</time></trkpt><trkpt lat="-17.90527923258693" lon="122.25114801872287"><ele>11.0</ele><time>2026-04-24T06:14:19Z</time></trkpt><trkpt lat="-17.90550633523656" lon="122.25105249427475"><ele>11.0</ele><time>2026-04-24T06:14:20Z</time></trkpt><trkpt lat="-17.905732050729313" lon="122.25095769354822"><ele>11.0</ele><time>2026-04-24T06:14:21Z</time></trkpt><trkpt lat="-17.90596345617226" lon="122.25086252026148"><ele>12.0</ele><time>2026-04-24T06:14:22Z</time></trkpt><trkpt lat="-17.90619355734886" lon="122.25076746711973"><ele>13.0</ele><time>2026-04-24T06:14:23Z</time></trkpt><trkpt lat="-17.90642534633664" lon="122.25067297815865"><ele>12.5</ele><time>2026-04-24T06:14:24Z</time></trkpt><trkpt lat="-17.906661394068554" lon="122.25057295963975"><ele>12.0</ele><time>2026-04-24T06:14:25Z</time></trkpt><trkpt lat="-17.906892329703574" lon="122.25047397190669"><ele>12.0</ele><time>2026-04-24T06:14:26Z</time></trkpt><trkpt lat="-17.907126502968605" lon="122.25037443460756"><ele>12.0</ele><time>2026-04-24T06:14:27Z</time></trkpt><trkpt lat="-17.907356658128744" lon="122.25027948756193"><ele>11.5</ele><time>2026-04-24T06:14:28Z</time></trkpt><trkpt lat="-17.907588213820034" lon="122.25018606008402"><ele>11.0</ele><time>2026-04-24T06:14:29Z</time></trkpt><trkpt lat="-17.907815230222575" lon="122.25009101053655"><ele>11.0</ele><time>2026-04-24T06:14:30Z</time></trkpt><trkpt lat="-17.90803546545824" lon="122.24999262089241"><ele>11.0</ele><time>2026-04-24T06:14:31Z</time></trkpt><trkpt lat="-17.908253367685393" lon="122.24989560194915"><ele>10.5</ele><time>2026-04-24T06:14:32Z</time></trkpt><trkpt lat="-17.908475497175395" lon="122.24980506806051"><ele>10.0</ele><time>2026-04-24T06:14:33Z</time></trkpt><trkpt lat="-17.908700033154208" lon="122.2497158949434"><ele>10.0</ele><time>2026-04-24T06:14:34Z</time></trkpt><trkpt lat="-17.908921794088467" lon="122.24962215470438"><ele>10.0</ele><time>2026-04-24T06:14:35Z</time></trkpt><trkpt lat="-17.909150659726574" lon="122.24952515017634"><ele>10.5</ele><time>2026-04-24T06:14:36Z</time></trkpt><trkpt lat="-17.909380545333477" lon="122.24942506704176"><ele>11.0</ele><time>2026-04-24T06:14:37Z</time></trkpt><trkpt lat="-17.909613033496555" lon="122.24932590201664"><ele>11.0</ele><time>2026-04-24T06:14:38Z</time></trkpt><trkpt lat="-17.90984331058881" lon="122.24922928190064"><ele>11.0</ele><time>2026-04-24T06:14:39Z</time></trkpt><trkpt lat="-17.910071614083332" lon="122.2491322834548"><ele>11.5</ele><time>2026-04-24T06:14:40Z</time></trkpt><trkpt lat="-17.910306559444976" lon="122.24903437333137"><ele>12.0</ele><time>2026-04-24T06:14:41Z</time></trkpt><trkpt lat="-17.910541805991713" lon="122.24893649640235"><ele>12.0</ele><time>2026-04-24T06:14:42Z</time></trkpt><trkpt lat="-17.9107780283971" lon="122.24883809311251"><ele>12.0</ele><time>2026-04-24T06:14:43Z</time></trkpt><trkpt lat="-17.91101543561332" lon="122.24873913248881"><ele>12.0</ele><time>2026-04-24T06:14:44Z</time></trkpt><trkpt lat="-17.911255546520717" lon="122.24863962987747"><ele>12.0</ele><time>2026-04-24T06:14:45Z</time></trkpt><trkpt lat="-17.91149302601173" lon="122.24854244116621"><ele>12.0</ele><time>2026-04-24T06:14:46Z</time></trkpt><trkpt lat="-17.911736526520073" lon="122.24844323545379"><ele>12.0</ele><time>2026-04-24T06:14:47Z</time></trkpt><trkpt lat="-17.911978825342274" lon="122.24834054970492"><ele>12.0</ele><time>2026-04-24T06:14:48Z</time></trkpt><trkpt lat="-17.912221828895074" lon="122.24823472275067"><ele>12.0</ele><time>2026-04-24T06:14:49Z</time></trkpt><trkpt lat="-17.912464075851716" lon="122.248129405267"><ele>11.5</ele><time>2026-04-24T06:14:50Z</time></trkpt><trkpt lat="-17.912709374173634" lon="122.24802847761809"><ele>11.0</ele><time>2026-04-24T06:14:51Z</time></trkpt><trkpt lat="-17.912957179320074" lon="122.24792655480927"><ele>11.0</ele><time>2026-04-24T06:14:52Z</time></trkpt><trkpt lat="-17.913204068024246" lon="122.2478262517941"><ele>11.0</ele><time>2026-04-24T06:14:53Z</time></trkpt><trkpt lat="-17.913448022456087" lon="122.24772500298684"><ele>10.5</ele><time>2026-04-24T06:14:54Z</time></trkpt><trkpt lat="-17.913689560468345" lon="122.24762394005468"><ele>10.0</ele><time>2026-04-24T06:14:55Z</time></trkpt><trkpt lat="-17.91392277151925" lon="122.2475260160293"><ele>10.0</ele><time>2026-04-24T06:14:56Z</time></trkpt><trkpt lat="-17.914152238703057" lon="122.24743180211286"><ele>10.0</ele><time>2026-04-24T06:14:57Z</time></trkpt><trkpt lat="-17.914366745777112" lon="122.2473454235784"><ele>12.0</ele><time>2026-04-24T06:14:58Z</time></trkpt><trkpt lat="-17.91458763354267" lon="122.24725338392601"><ele>14.0</ele><time>2026-04-24T06:14:59Z</time></trkpt><trkpt lat="-17.914817529166072" lon="122.24715760855179"><ele>14.0</ele><time>2026-04-24T06:15:00Z</time></trkpt><trkpt lat="-17.91504506737076" lon="122.24705933684265"><ele>14.0</ele><time>2026-04-24T06:15:01Z</time></trkpt><trkpt lat="-17.91526667651489" lon="122.24696352154953"><ele>12.0</ele><time>2026-04-24T06:15:02Z</time></trkpt><trkpt lat="-17.91549308834174" lon="122.24686975488078"><ele>10.0</ele><time>2026-04-24T06:15:03Z</time></trkpt><trkpt lat="-17.915718981785805" lon="122.24677727212007"><ele>10.0</ele><time>2026-04-24T06:15:04Z</time></trkpt><trkpt lat="-17.915948248184744" lon="122.2466808499748"><ele>10.0</ele><time>2026-04-24T06:15:05Z</time></trkpt><trkpt lat="-17.91617940010711" lon="122.24658124011546"><ele>10.0</ele><time>2026-04-24T06:15:06Z</time></trkpt><trkpt lat="-17.91641384778872" lon="122.2464807928948"><ele>10.0</ele><time>2026-04-24T06:15:07Z</time></trkpt><trkpt lat="-17.916646391063093" lon="122.24638231746933"><ele>10.5</ele><time>2026-04-24T06:15:08Z</time></trkpt><trkpt lat="-17.916886639953653" lon="122.24628183715103"><ele>11.0</ele><time>2026-04-24T06:15:09Z</time></trkpt><trkpt lat="-17.917130750719753" lon="122.2461807649672"><ele>11.0</ele><time>2026-04-24T06:15:10Z</time></trkpt><trkpt lat="-17.917378985039367" lon="122.24608032054446"><ele>11.0</ele><time>2026-04-24T06:15:11Z</time></trkpt><trkpt lat="-17.917630826556167" lon="122.24597794418511"><ele>10.5</ele><time>2026-04-24T06:15:12Z</time></trkpt><trkpt lat="-17.917880322031557" lon="122.24587186805458"><ele>10.0</ele><time>2026-04-24T06:15:13Z</time></trkpt><trkpt lat="-17.918129586853826" lon="122.24576255568977"><ele>10.0</ele><time>2026-04-24T06:15:14Z</time></trkpt><trkpt lat="-17.918376725229344" lon="122.24565131981798"><ele>10.0</ele><time>2026-04-24T06:15:15Z</time></trkpt><trkpt lat="-17.91863194227283" lon="122.2455425536556"><ele>11.0</ele><time>2026-04-24T06:15:16Z</time></trkpt><trkpt lat="-17.918891752375675" lon="122.24543744233483"><ele>12.0</ele><time>2026-04-24T06:15:17Z</time></trkpt><trkpt lat="-17.919152621647193" lon="122.24533255666283"><ele>11.0</ele><time>2026-04-24T06:15:18Z</time></trkpt><trkpt lat="-17.919412214682136" lon="122.2452275465784"><ele>10.0</ele><time>2026-04-24T06:15:19Z</time></trkpt><trkpt lat="-17.91967192887031" lon="122.24512093964381"><ele>10.0</ele><time>2026-04-24T06:15:20Z</time></trkpt><trkpt lat="-17.919928263499173" lon="122.24501449979596"><ele>10.0</ele><time>2026-04-24T06:15:21Z</time></trkpt><trkpt lat="-17.920182534015858" lon="122.24490903269597"><ele>10.0</ele><time>2026-04-24T06:15:22Z</time></trkpt><trkpt lat="-17.92043372725634" lon="122.24480602734201"><ele>10.0</ele><time>2026-04-24T06:15:23Z</time></trkpt><trkpt lat="-17.920683159271643" lon="122.24470171657441"><ele>10.5</ele><time>2026-04-24T06:15:24Z</time></trkpt><trkpt lat="-17.920932935400838" lon="122.24459596777189"><ele>11.0</ele><time>2026-04-24T06:15:25Z</time></trkpt><trkpt lat="-17.921182404699646" lon="122.24448848201438"><ele>11.0</ele><time>2026-04-24T06:15:26Z</time></trkpt><trkpt lat="-17.921434664591562" lon="122.24438173416843"><ele>11.0</ele><time>2026-04-24T06:15:27Z</time></trkpt><trkpt lat="-17.921685567538724" lon="122.24427922641705"><ele>11.0</ele><time>2026-04-24T06:15:28Z</time></trkpt><trkpt lat="-17.92193743688748" lon="122.24417561562392"><ele>11.0</ele><time>2026-04-24T06:15:29Z</time></trkpt><trkpt lat="-17.92219290458599" lon="122.24406895431987"><ele>11.0</ele><time>2026-04-24T06:15:30Z</time></trkpt><trkpt lat="-17.92244618436765" lon="122.24396241270847"><ele>11.0</ele><time>2026-04-24T06:15:31Z</time></trkpt><trkpt lat="-17.92270048314774" lon="122.24385630367019"><ele>10.5</ele><time>2026-04-24T06:15:32Z</time></trkpt><trkpt lat="-17.922957078615898" lon="122.24375058519601"><ele>10.0</ele><time>2026-04-24T06:15:33Z</time></trkpt><trkpt lat="-17.923207613406603" lon="122.2436478927122"><ele>10.0</ele><time>2026-04-24T06:15:34Z</time></trkpt><trkpt lat="-17.923460058521535" lon="122.24354386498334"><ele>10.0</ele><time>2026-04-24T06:15:35Z</time></trkpt><trkpt lat="-17.923711820462795" lon="122.24343532402202"><ele>10.0</ele><time>2026-04-24T06:15:36Z</time></trkpt><trkpt lat="-17.92395928040052" lon="122.24332713691858"><ele>10.0</ele><time>2026-04-24T06:15:37Z</time></trkpt><trkpt lat="-17.924210047983465" lon="122.24322169989627"><ele>9.5</ele><time>2026-04-24T06:15:38Z</time></trkpt><trkpt lat="-17.924461569335303" lon="122.24311699251525"><ele>9.0</ele><time>2026-04-24T06:15:39Z</time></trkpt><trkpt lat="-17.924714450108485" lon="122.24301341379628"><ele>9.0</ele><time>2026-04-24T06:15:40Z</time></trkpt><trkpt lat="-17.924969040334613" lon="122.24291017252722"><ele>9.0</ele><time>2026-04-24T06:15:41Z</time></trkpt><trkpt lat="-17.925223093859756" lon="122.24280689944578"><ele>9.5</ele><time>2026-04-24T06:15:42Z</time></trkpt><trkpt lat="-17.925476272122694" lon="122.24270329585035"><ele>10.0</ele><time>2026-04-24T06:15:43Z</time></trkpt><trkpt lat="-17.92573526994418" lon="122.24259772874787"><ele>10.0</ele><time>2026-04-24T06:15:44Z</time></trkpt><trkpt lat="-17.925990657437833" lon="122.24249300054962"><ele>10.0</ele><time>2026-04-24T06:15:45Z</time></trkpt><trkpt lat="-17.926244882033014" lon="122.24238794443103"><ele>10.0</ele><time>2026-04-24T06:15:46Z</time></trkpt><trkpt lat="-17.926497815546135" lon="122.24228312034026"><ele>10.0</ele><time>2026-04-24T06:15:47Z</time></trkpt><trkpt lat="-17.926751404549123" lon="122.24217688351635"><ele>10.0</ele><time>2026-04-24T06:15:48Z</time></trkpt><trkpt lat="-17.927000018249803" lon="122.24207193199987"><ele>10.0</ele><time>2026-04-24T06:15:49Z</time></trkpt><trkpt lat="-17.927250254763248" lon="122.24196587555535"><ele>10.0</ele><time>2026-04-24T06:15:50Z</time></trkpt><trkpt lat="-17.927495528478936" lon="122.24186084347295"><ele>10.0</ele><time>2026-04-24T06:15:51Z</time></trkpt><trkpt lat="-17.92774106220631" lon="122.24175400102256"><ele>9.5</ele><time>2026-04-24T06:15:52Z</time></trkpt><trkpt lat="-17.927979309028608" lon="122.24164874815962"><ele>9.0</ele><time>2026-04-24T06:15:53Z</time></trkpt><trkpt lat="-17.928208475965167" lon="122.24154565218153"><ele>9.5</ele><time>2026-04-24T06:15:54Z</time></trkpt><trkpt lat="-17.928421696424362" lon="122.24144562967382"><ele>10.0</ele><time>2026-04-24T06:15:55Z</time></trkpt><trkpt lat="-17.92862772935971" lon="122.24133914506241"><ele>10.0</ele><time>2026-04-24T06:15:56Z</time></trkpt><trkpt lat="-17.928834552144295" lon="122.24121758635967"><ele>10.0</ele><time>2026-04-24T06:15:57Z</time></trkpt><trkpt lat="-17.929030555685404" lon="122.24108299367816"><ele>10.0</ele><time>2026-04-24T06:15:58Z</time></trkpt><trkpt lat="-17.929208408889917" lon="122.24093931845424"><ele>10.0</ele><time>2026-04-24T06:15:59Z</time></trkpt><trkpt lat="-17.929374659153808" lon="122.2407839903182"><ele>10.0</ele><time>2026-04-24T06:16:00Z</time></trkpt><trkpt lat="-17.92951416739259" lon="122.24063668965135"><ele>10.0</ele><time>2026-04-24T06:16:01Z</time></trkpt><trkpt lat="-17.9296328743515" lon="122.24050077577898"><ele>10.0</ele><time>2026-04-24T06:16:02Z</time></trkpt><trkpt lat="-17.929734676873625" lon="122.24036924415853"><ele>10.0</ele><time>2026-04-24T06:16:03Z</time></trkpt><trkpt lat="-17.929818382324317" lon="122.2402446579241"><ele>10.0</ele><time>2026-04-24T06:16:04Z</time></trkpt><trkpt lat="-17.92988708742717" lon="122.24012977274737"><ele>10.0</ele><time>2026-04-24T06:16:05Z</time></trkpt><trkpt lat="-17.929948046876053" lon="122.2400316593602"><ele>10.0</ele><time>2026-04-24T06:16:06Z</time></trkpt><trkpt lat="-17.930019147926636" lon="122.2399558214644"><ele>10.0</ele><time>2026-04-24T06:16:07Z</time></trkpt><trkpt lat="-17.930105997663507" lon="122.23990840678674"><ele>10.0</ele><time>2026-04-24T06:16:08Z</time></trkpt><trkpt lat="-17.93021001058546" lon="122.23989926371705"><ele>10.0</ele><time>2026-04-24T06:16:09Z</time></trkpt><trkpt lat="-17.93032502519843" lon="122.23992251606322"><ele>10.0</ele><time>2026-04-24T06:16:10Z</time></trkpt><trkpt lat="-17.930451403901678" lon="122.23996589970503"><ele>10.0</ele><time>2026-04-24T06:16:11Z</time></trkpt><trkpt lat="-17.93059388258806" lon="122.2400172186657"><ele>10.0</ele><time>2026-04-24T06:16:12Z</time></trkpt><trkpt lat="-17.930754138840626" lon="122.24006519123922"><ele>9.666666666666668</ele><time>2026-04-24T06:16:13Z</time></trkpt><trkpt lat="-17.930918918547032" lon="122.24009723654501"><ele>9.333333333333334</ele><time>2026-04-24T06:16:14Z</time></trkpt><trkpt lat="-17.931104494621195" lon="122.24011327500736"><ele>9.0</ele><time>2026-04-24T06:16:15Z</time></trkpt><trkpt lat="-17.931309398467477" lon="122.24011571855722"><ele>9.0</ele><time>2026-04-24T06:16:16Z</time></trkpt><trkpt lat="-17.93150629168871" lon="122.2401049343698"><ele>9.0</ele><time>2026-04-24T06:16:17Z</time></trkpt><trkpt lat="-17.93171168617289" lon="122.24007269585482"><ele>9.0</ele><time>2026-04-24T06:16:18Z</time></trkpt><trkpt lat="-17.931923093584064" lon="122.2400103236993"><ele>8.5</ele><time>2026-04-24T06:16:19Z</time></trkpt><trkpt lat="-17.93214152951179" lon="122.23992415346399"><ele>8.0</ele><time>2026-04-24T06:16:20Z</time></trkpt><trkpt lat="-17.932357690290324" lon="122.23982862295533"><ele>8.0</ele><time>2026-04-24T06:16:21Z</time></trkpt><trkpt lat="-17.93256812431046" lon="122.23973448951695"><ele>8.0</ele><time>2026-04-24T06:16:22Z</time></trkpt><trkpt lat="-17.932785986971815" lon="122.23963998171243"><ele>8.0</ele><time>2026-04-24T06:16:23Z</time></trkpt><trkpt lat="-17.933012117035094" lon="122.23954819673898"><ele>8.0</ele><time>2026-04-24T06:16:24Z</time></trkpt><trkpt lat="-17.933241484252132" lon="122.23945565443309"><ele>7.5</ele><time>2026-04-24T06:16:25Z</time></trkpt><trkpt lat="-17.93347393947835" lon="122.23936015022576"><ele>7.0</ele><time>2026-04-24T06:16:26Z</time></trkpt><trkpt lat="-17.933695296370765" lon="122.23927003571174"><ele>7.0</ele><time>2026-04-24T06:16:27Z</time></trkpt><trkpt lat="-17.933917538071793" lon="122.23918501308268"><ele>7.0</ele><time>2026-04-24T06:16:28Z</time></trkpt><trkpt lat="-17.93413184746135" lon="122.23910698138403"><ele>6.5</ele><time>2026-04-24T06:16:29Z</time></trkpt><trkpt lat="-17.93434242917119" lon="122.23902309618637"><ele>6.0</ele><time>2026-04-24T06:16:30Z</time></trkpt><trkpt lat="-17.934552407795728" lon="122.23893496400639"><ele>7.5</ele><time>2026-04-24T06:16:31Z</time></trkpt><trkpt lat="-17.93476428987796" lon="122.23884637357767"><ele>9.0</ele><time>2026-04-24T06:16:32Z</time></trkpt><trkpt lat="-17.934982787657678" lon="122.23875355901089"><ele>9.5</ele><time>2026-04-24T06:16:33Z</time></trkpt><trkpt lat="-17.935207040963732" lon="122.23865365583949"><ele>10.0</ele><time>2026-04-24T06:16:34Z</time></trkpt><trkpt lat="-17.935435401456058" lon="122.23854664142046"><ele>10.0</ele><time>2026-04-24T06:16:35Z</time></trkpt><trkpt lat="-17.935666693634495" lon="122.23843937023554"><ele>10.0</ele><time>2026-04-24T06:16:36Z</time></trkpt><trkpt lat="-17.935899378443576" lon="122.23833555151143"><ele>9.0</ele><time>2026-04-24T06:16:37Z</time></trkpt><trkpt lat="-17.936143596967003" lon="122.23823411712792"><ele>8.0</ele><time>2026-04-24T06:16:38Z</time></trkpt><trkpt lat="-17.936387179294872" lon="122.2381365584076"><ele>9.0</ele><time>2026-04-24T06:16:39Z</time></trkpt><trkpt lat="-17.936633540143767" lon="122.23804260559814"><ele>10.0</ele><time>2026-04-24T06:16:40Z</time></trkpt><trkpt lat="-17.936879377185374" lon="122.2379590707547"><ele>10.0</ele><time>2026-04-24T06:16:41Z</time></trkpt><trkpt lat="-17.93713376303422" lon="122.23789172498796"><ele>10.0</ele><time>2026-04-24T06:16:42Z</time></trkpt><trkpt lat="-17.937389688717523" lon="122.23783432761645"><ele>9.5</ele><time>2026-04-24T06:16:43Z</time></trkpt><trkpt lat="-17.937643085240534" lon="122.23778440287121"><ele>9.0</ele><time>2026-04-24T06:16:44Z</time></trkpt><trkpt lat="-17.93788381544282" lon="122.23774085256775"><ele>9.0</ele><time>2026-04-24T06:16:45Z</time></trkpt><trkpt lat="-17.938119183753102" lon="122.23769552436192"><ele>9.0</ele><time>2026-04-24T06:16:46Z</time></trkpt><trkpt lat="-17.938353032392005" lon="122.2376480700182"><ele>8.5</ele><time>2026-04-24T06:16:47Z</time></trkpt><trkpt lat="-17.938577244728712" lon="122.23760035975695"><ele>8.0</ele><time>2026-04-24T06:16:48Z</time></trkpt><trkpt lat="-17.938796127533006" lon="122.23754677720291"><ele>8.0</ele><time>2026-04-24T06:16:49Z</time></trkpt><trkpt lat="-17.93903184565261" lon="122.23748945044278"><ele>8.0</ele><time>2026-04-24T06:16:50Z</time></trkpt><trkpt lat="-17.9392832879856" lon="122.23744373555418"><ele>9.0</ele><time>2026-04-24T06:16:51Z</time></trkpt><trkpt lat="-17.939538735477413" lon="122.23741070874456"><ele>10.0</ele><time>2026-04-24T06:16:52Z</time></trkpt><trkpt lat="-17.939796650975392" lon="122.23736998611727"><ele>10.0</ele><time>2026-04-24T06:16:53Z</time></trkpt><trkpt lat="-17.940050455958684" lon="122.2373224665951"><ele>10.0</ele><time>2026-04-24T06:16:54Z</time></trkpt><trkpt lat="-17.940305742939913" lon="122.23727235138132"><ele>10.0</ele><time>2026-04-24T06:16:55Z</time></trkpt><trkpt lat="-17.940562528943854" lon="122.23722462993038"><ele>10.0</ele><time>2026-04-24T06:16:56Z</time></trkpt><trkpt lat="-17.94082079347881" lon="122.2371772301709"><ele>9.5</ele><time>2026-04-24T06:16:57Z</time></trkpt><trkpt lat="-17.941083272852897" lon="122.23712958134749"><ele>9.0</ele><time>2026-04-24T06:16:58Z</time></trkpt><trkpt lat="-17.941346086457614" lon="122.2370862490632"><ele>9.0</ele><time>2026-04-24T06:16:59Z</time></trkpt><trkpt lat="-17.941608095423984" lon="122.23704102036126"><ele>9.0</ele><time>2026-04-24T06:17:00Z</time></trkpt><trkpt lat="-17.941856866870992" lon="122.23700012653809"><ele>9.0</ele><time>2026-04-24T06:17:01Z</time></trkpt><trkpt lat="-17.942088474528614" lon="122.23696732963887"><ele>9.0</ele><time>2026-04-24T06:17:02Z</time></trkpt><trkpt lat="-17.94231203733908" lon="122.23694180897637"><ele>9.0</ele><time>2026-04-24T06:17:03Z</time></trkpt><trkpt lat="-17.942528918696212" lon="122.23692542011031"><ele>9.0</ele><time>2026-04-24T06:17:04Z</time></trkpt><trkpt lat="-17.942739296089606" lon="122.23691463891647"><ele>9.0</ele><time>2026-04-24T06:17:05Z</time></trkpt><trkpt lat="-17.942937429955926" lon="122.23690740025256"><ele>8.666666666666666</ele><time>2026-04-24T06:17:06Z</time></trkpt><trkpt lat="-17.9431266266749" lon="122.2369063162495"><ele>8.333333333333332</ele><time>2026-04-24T06:17:07Z</time></trkpt><trkpt lat="-17.943306355712785" lon="122.23691067165569"><ele>8.0</ele><time>2026-04-24T06:17:08Z</time></trkpt><trkpt lat="-17.94348304156956" lon="122.23691474361218"><ele>8.0</ele><time>2026-04-24T06:17:09Z</time></trkpt><trkpt lat="-17.943650260302704" lon="122.2369202335431"><ele>8.0</ele><time>2026-04-24T06:17:10Z</time></trkpt><trkpt lat="-17.943811530533175" lon="122.23692666768802"><ele>8.0</ele><time>2026-04-24T06:17:11Z</time></trkpt><trkpt lat="-17.943962819256384" lon="122.23693562944204"><ele>8.0</ele><time>2026-04-24T06:17:12Z</time></trkpt><trkpt lat="-17.944106327627924" lon="122.23694498815163"><ele>8.0</ele><time>2026-04-24T06:17:13Z</time></trkpt><trkpt lat="-17.944242163290625" lon="122.2369576175395"><ele>8.0</ele><time>2026-04-24T06:17:14Z</time></trkpt><trkpt lat="-17.944368594245546" lon="122.23697252440539"><ele>8.0</ele><time>2026-04-24T06:17:15Z</time></trkpt><trkpt lat="-17.944487773609392" lon="122.23698740069187"><ele>8.5</ele><time>2026-04-24T06:17:16Z</time></trkpt><trkpt lat="-17.9446063744512" lon="122.23700547929833"><ele>9.0</ele><time>2026-04-24T06:17:17Z</time></trkpt><trkpt lat="-17.944727178463058" lon="122.23702592115635"><ele>9.5</ele><time>2026-04-24T06:17:18Z</time></trkpt><trkpt lat="-17.944844933632826" lon="122.23704869917049"><ele>10.0</ele><time>2026-04-24T06:17:19Z</time></trkpt><trkpt lat="-17.944951560961734" lon="122.23707847582439"><ele>9.6</ele><time>2026-04-24T06:17:20Z</time></trkpt><trkpt lat="-17.945048595736942" lon="122.23711511869222"><ele>9.2</ele><time>2026-04-24T06:17:21Z</time></trkpt><trkpt lat="-17.94513820770517" lon="122.23715510596875"><ele>8.8</ele><time>2026-04-24T06:17:22Z</time></trkpt><trkpt lat="-17.94521661707386" lon="122.2371959543352"><ele>8.4</ele><time>2026-04-24T06:17:23Z</time></trkpt><trkpt lat="-17.945295844291707" lon="122.23723494121322"><ele>8.0</ele><time>2026-04-24T06:17:24Z</time></trkpt><trkpt lat="-17.94538270618776" lon="122.23725439143298"><ele>8.0</ele><time>2026-04-24T06:17:25Z</time></trkpt><trkpt lat="-17.945478249460926" lon="122.23728134190962"><ele>8.0</ele><time>2026-04-24T06:17:26Z</time></trkpt><trkpt lat="-17.945592726777573" lon="122.23724206279925"><ele>8.0</ele><time>2026-04-24T06:17:27Z</time></trkpt><trkpt lat="-17.945707633713592" lon="122.23724190170974"><ele>8.0</ele><time>2026-04-24T06:17:28Z</time></trkpt><trkpt lat="-17.945812115660672" lon="122.2372558161204"><ele>8.0</ele><time>2026-04-24T06:17:29Z</time></trkpt><trkpt lat="-17.945903971689695" lon="122.23727318255222"><ele>7.999999999999999</ele><time>2026-04-24T06:17:30Z</time></trkpt><trkpt lat="-17.94598693486886" lon="122.23728956542412"><ele>8.0</ele><time>2026-04-24T06:17:31Z</time></trkpt><trkpt lat="-17.946062150265103" lon="122.23730767561645"><ele>8.0</ele><time>2026-04-24T06:17:32Z</time></trkpt><trkpt lat="-17.946131759874657" lon="122.23733058284549"><ele>8.0</ele><time>2026-04-24T06:17:33Z</time></trkpt><trkpt lat="-17.946197889741146" lon="122.23735219453852"><ele>7.999999999999999</ele><time>2026-04-24T06:17:34Z</time></trkpt><trkpt lat="-17.946267782975415" lon="122.23736909794259"><ele>8.0</ele><time>2026-04-24T06:17:35Z</time></trkpt><trkpt lat="-17.946349300687515" lon="122.23738825796767"><ele>8.0</ele><time>2026-04-24T06:17:36Z</time></trkpt><trkpt lat="-17.94643629023794" lon="122.23741489747037"><ele>8.0</ele><time>2026-04-24T06:17:37Z</time></trkpt><trkpt lat="-17.946525030360455" lon="122.23744484805789"><ele>8.0</ele><time>2026-04-24T06:17:38Z</time></trkpt><trkpt lat="-17.94661825543575" lon="122.23747616373775"><ele>8.0</ele><time>2026-04-24T06:17:39Z</time></trkpt><trkpt lat="-17.946711667406355" lon="122.23751227510583"><ele>8.0</ele><time>2026-04-24T06:17:40Z</time></trkpt><trkpt lat="-17.94680071018095" lon="122.23754888436265"><ele>8.0</ele><time>2026-04-24T06:17:41Z</time></trkpt><trkpt lat="-17.94689221305412" lon="122.23758870559124"><ele>8.0</ele><time>2026-04-24T06:17:42Z</time></trkpt><trkpt lat="-17.946985638818592" lon="122.2376362014597"><ele>8.0</ele><time>2026-04-24T06:17:43Z</time></trkpt><trkpt lat="-17.947081092643664" lon="122.23768833257154"><ele>8.0</ele><time>2026-04-24T06:17:44Z</time></trkpt><trkpt lat="-17.947173982439075" lon="122.23773558968095"><ele>8.0</ele><time>2026-04-24T06:17:45Z</time></trkpt><trkpt lat="-17.94727047536154" lon="122.23778212062606"><ele>8.0</ele><time>2026-04-24T06:17:46Z</time></trkpt><trkpt lat="-17.94736579908319" lon="122.23782195146748"><ele>8.0</ele><time>2026-04-24T06:17:47Z</time></trkpt><trkpt lat="-17.947458494857873" lon="122.23785821135293"><ele>8.0</ele><time>2026-04-24T06:17:48Z</time></trkpt><trkpt lat="-17.947553392642945" lon="122.2378953346773"><ele>8.0</ele><time>2026-04-24T06:17:49Z</time></trkpt><trkpt lat="-17.947649355335372" lon="122.23793655215346"><ele>8.0</ele><time>2026-04-24T06:17:50Z</time></trkpt><trkpt lat="-17.94775445516723" lon="122.23798488625815"><ele>7.75</ele><time>2026-04-24T06:17:51Z</time></trkpt><trkpt lat="-17.947868776220893" lon="122.2380346186819"><ele>7.5</ele><time>2026-04-24T06:17:52Z</time></trkpt><trkpt lat="-17.947990750251783" lon="122.23808250245317"><ele>7.25</ele><time>2026-04-24T06:17:53Z</time></trkpt><trkpt lat="-17.94811914947939" lon="122.23813200334556"><ele>7.0</ele><time>2026-04-24T06:17:54Z</time></trkpt><trkpt lat="-17.94824342195766" lon="122.23818217618305"><ele>7.0</ele><time>2026-04-24T06:17:55Z</time></trkpt><trkpt lat="-17.9483740234944" lon="122.23824202629436"><ele>7.0</ele><time>2026-04-24T06:17:56Z</time></trkpt><trkpt lat="-17.948501415858406" lon="122.23830443622396"><ele>7.0</ele><time>2026-04-24T06:17:57Z</time></trkpt><trkpt lat="-17.94863083500623" lon="122.23837038623913"><ele>7.0</ele><time>2026-04-24T06:17:58Z</time></trkpt><trkpt lat="-17.94875097544741" lon="122.23843207802528"><ele>7.25</ele><time>2026-04-24T06:17:59Z</time></trkpt><trkpt lat="-17.94886960099324" lon="122.23848937355692"><ele>7.5</ele><time>2026-04-24T06:18:00Z</time></trkpt><trkpt lat="-17.94897642327122" lon="122.23853993877837"><ele>7.75</ele><time>2026-04-24T06:18:01Z</time></trkpt><trkpt lat="-17.94906962134829" lon="122.23858461418618"><ele>8.0</ele><time>2026-04-24T06:18:02Z</time></trkpt><trkpt lat="-17.94916121981044" lon="122.23862611182491"><ele>7.6000000000000005</ele><time>2026-04-24T06:18:03Z</time></trkpt><trkpt lat="-17.949249530246497" lon="122.23866617317786"><ele>7.200000000000001</ele><time>2026-04-24T06:18:04Z</time></trkpt><trkpt lat="-17.949335448811937" lon="122.23870701405485"><ele>6.8</ele><time>2026-04-24T06:18:05Z</time></trkpt><trkpt lat="-17.949419734855088" lon="122.23874932597828"><ele>6.4</ele><time>2026-04-24T06:18:06Z</time></trkpt><trkpt lat="-17.949496831902763" lon="122.23879175827318"><ele>6.0</ele><time>2026-04-24T06:18:07Z</time></trkpt><trkpt lat="-17.949575608892406" lon="122.23883442915077"><ele>6.0</ele><time>2026-04-24T06:18:08Z</time></trkpt><trkpt lat="-17.94965981256733" lon="122.23887597382515"><ele>6.0</ele><time>2026-04-24T06:18:09Z</time></trkpt><trkpt lat="-17.949756504264066" lon="122.23892185368229"><ele>6.0</ele><time>2026-04-24T06:18:10Z</time></trkpt><trkpt lat="-17.949863249157623" lon="122.23897484745648"><ele>6.0</ele><time>2026-04-24T06:18:11Z</time></trkpt><trkpt lat="-17.949981645321483" lon="122.23903108981473"><ele>6.0</ele><time>2026-04-24T06:18:12Z</time></trkpt><trkpt lat="-17.950108564982013" lon="122.23908947990078"><ele>7.0</ele><time>2026-04-24T06:18:13Z</time></trkpt><trkpt lat="-17.950229444877756" lon="122.23914528760339"><ele>8.0</ele><time>2026-04-24T06:18:14Z</time></trkpt><trkpt lat="-17.950346575466266" lon="122.23920128298214"><ele>9.0</ele><time>2026-04-24T06:18:15Z</time></trkpt><trkpt lat="-17.95045604994688" lon="122.23925762020032"><ele>10.0</ele><time>2026-04-24T06:18:16Z</time></trkpt><trkpt lat="-17.95055816536469" lon="122.2393090133813"><ele>10.0</ele><time>2026-04-24T06:18:17Z</time></trkpt><trkpt lat="-17.950656274670347" lon="122.2393604087822"><ele>10.0</ele><time>2026-04-24T06:18:18Z</time></trkpt><trkpt lat="-17.950748768164566" lon="122.23940675548404"><ele>10.0</ele><time>2026-04-24T06:18:19Z</time></trkpt><trkpt lat="-17.950838744417013" lon="122.23944769064008"><ele>10.0</ele><time>2026-04-24T06:18:20Z</time></trkpt><trkpt lat="-17.950922718670217" lon="122.23948473216264"><ele>10.0</ele><time>2026-04-24T06:18:21Z</time></trkpt><trkpt lat="-17.95099935553528" lon="122.23952206783528"><ele>9.2</ele><time>2026-04-24T06:18:22Z</time></trkpt><trkpt lat="-17.951075495537033" lon="122.23955962559495"><ele>8.4</ele><time>2026-04-24T06:18:23Z</time></trkpt><trkpt lat="-17.951156076752103" lon="122.2396007832318"><ele>7.6</ele><time>2026-04-24T06:18:24Z</time></trkpt><trkpt lat="-17.951245876804403" lon="122.23964525882734"><ele>6.8</ele><time>2026-04-24T06:18:25Z</time></trkpt><trkpt lat="-17.95134029676598" lon="122.23969127408418"><ele>6.0</ele><time>2026-04-24T06:18:26Z</time></trkpt><trkpt lat="-17.95142854724378" lon="122.23973273930147"><ele>6.0</ele><time>2026-04-24T06:18:27Z</time></trkpt><trkpt lat="-17.951515316480826" lon="122.23977811923983"><ele>6.0</ele><time>2026-04-24T06:18:28Z</time></trkpt><trkpt lat="-17.951593809943784" lon="122.23982351812825"><ele>6.0</ele><time>2026-04-24T06:18:29Z</time></trkpt><trkpt lat="-17.95166620457401" lon="122.23986502263803"><ele>6.0</ele><time>2026-04-24T06:18:30Z</time></trkpt><trkpt lat="-17.951738423134408" lon="122.23990117729673"><ele>6.0</ele><time>2026-04-24T06:18:31Z</time></trkpt><trkpt lat="-17.951816173920456" lon="122.23993393668648"><ele>6.0</ele><time>2026-04-24T06:18:32Z</time></trkpt><trkpt lat="-17.951900236660297" lon="122.23997026014878"><ele>6.166666666666667</ele><time>2026-04-24T06:18:33Z</time></trkpt><trkpt lat="-17.951983106140847" lon="122.24001195985423"><ele>6.333333333333334</ele><time>2026-04-24T06:18:34Z</time></trkpt><trkpt lat="-17.95205604273197" lon="122.24005428153208"><ele>6.5</ele><time>2026-04-24T06:18:35Z</time></trkpt><trkpt lat="-17.95211825518667" lon="122.24009507924286"><ele>6.666666666666667</ele><time>2026-04-24T06:18:36Z</time></trkpt><trkpt lat="-17.95217464512504" lon="122.24013743494264"><ele>6.833333333333334</ele><time>2026-04-24T06:18:37Z</time></trkpt><trkpt lat="-17.9522562240884" lon="122.2402141020618"><ele>7.0</ele><time>2026-04-24T06:18:39Z</time></trkpt><trkpt lat="-17.95232183646484" lon="122.24027991199458"><ele>7.0</ele><time>2026-04-24T06:18:41Z</time></trkpt><trkpt lat="-17.952379552383636" lon="122.24034004544558"><ele>6.999999999999999</ele><time>2026-04-24T06:18:43Z</time></trkpt><trkpt lat="-17.95245025523607" lon="122.24041499001287"><ele>6.999999999999999</ele><time>2026-04-24T06:18:46Z</time></trkpt><trkpt lat="-17.952519739089944" lon="122.24051066547128"><ele>7.0</ele><time>2026-04-24T06:18:48Z</time></trkpt><trkpt lat="-17.952603695376936" lon="122.24061815308278"><ele>7.0</ele><time>2026-04-24T06:18:50Z</time></trkpt><trkpt lat="-17.952664078003533" lon="122.24067164465787"><ele>6.833333333333334</ele><time>2026-04-24T06:18:51Z</time></trkpt><trkpt lat="-17.95272691718997" lon="122.24071109271581"><ele>6.666666666666667</ele><time>2026-04-24T06:18:52Z</time></trkpt><trkpt lat="-17.952791441379805" lon="122.24072579902587"><ele>6.5</ele><time>2026-04-24T06:18:53Z</time></trkpt><trkpt lat="-17.95285856887932" lon="122.24071226684435"><ele>6.333333333333334</ele><time>2026-04-24T06:18:54Z</time></trkpt><trkpt lat="-17.952931840082705" lon="122.24068573091611"><ele>6.166666666666667</ele><time>2026-04-24T06:18:55Z</time></trkpt><trkpt lat="-17.9529734658503" lon="122.24060302434421"><ele>6.0</ele><time>2026-04-24T06:18:56Z</time></trkpt><trkpt lat="-17.95300404067473" lon="122.24051903811342"><ele>6.4</ele><time>2026-04-24T06:18:57Z</time></trkpt><trkpt lat="-17.953011815498144" lon="122.2404135130722"><ele>6.8</ele><time>2026-04-24T06:18:58Z</time></trkpt><trkpt lat="-17.953047094410532" lon="122.24031905046148"><ele>7.200000000000001</ele><time>2026-04-24T06:18:59Z</time></trkpt><trkpt lat="-17.953081730517667" lon="122.24020328210095"><ele>7.6000000000000005</ele><time>2026-04-24T06:19:00Z</time></trkpt><trkpt lat="-17.953135390669207" lon="122.2400889674098"><ele>8.0</ele><time>2026-04-24T06:19:01Z</time></trkpt><trkpt lat="-17.953210232591363" lon="122.23997980349533"><ele>8.0</ele><time>2026-04-24T06:19:02Z</time></trkpt><trkpt lat="-17.953297590972483" lon="122.23986206672721"><ele>8.0</ele><time>2026-04-24T06:19:03Z</time></trkpt><trkpt lat="-17.95338728150821" lon="122.23974217608362"><ele>8.0</ele><time>2026-04-24T06:19:04Z</time></trkpt><trkpt lat="-17.953474218236916" lon="122.23963363680379"><ele>8.0</ele><time>2026-04-24T06:19:05Z</time></trkpt><trkpt lat="-17.95355627528851" lon="122.23953797805574"><ele>8.200000000000001</ele><time>2026-04-24T06:19:06Z</time></trkpt><trkpt lat="-17.953630468107754" lon="122.23944642370353"><ele>8.4</ele><time>2026-04-24T06:19:07Z</time></trkpt><trkpt lat="-17.953696806400675" lon="122.23936053906958"><ele>8.600000000000001</ele><time>2026-04-24T06:19:08Z</time></trkpt><trkpt lat="-17.953756924670575" lon="122.2392844270378"><ele>8.8</ele><time>2026-04-24T06:19:09Z</time></trkpt><trkpt lat="-17.953816261174396" lon="122.23922563341183"><ele>9.0</ele><time>2026-04-24T06:19:10Z</time></trkpt><trkpt lat="-17.953877887825694" lon="122.23918325083405"><ele>9.0</ele><time>2026-04-24T06:19:11Z</time></trkpt><trkpt lat="-17.953964555137432" lon="122.23910061997141"><ele>9.0</ele><time>2026-04-24T06:19:13Z</time></trkpt><trkpt lat="-17.95393129605424" lon="122.2389901963241"><ele>9.0</ele><time>2026-04-24T06:19:15Z</time></trkpt><trkpt lat="-17.953778542128536" lon="122.23892253591941"><ele>9.0</ele><time>2026-04-24T06:19:17Z</time></trkpt><trkpt lat="-17.953679447503664" lon="122.23889118045676"><ele>9.5</ele><time>2026-04-24T06:19:18Z</time></trkpt><trkpt lat="-17.953571738624394" lon="122.23883727721284"><ele>10.0</ele><time>2026-04-24T06:19:19Z</time></trkpt><trkpt lat="-17.95345426486384" lon="122.23875717730562"><ele>10.5</ele><time>2026-04-24T06:19:20Z</time></trkpt><trkpt lat="-17.95332891207264" lon="122.23865342610644"><ele>11.0</ele><time>2026-04-24T06:19:21Z</time></trkpt><trkpt lat="-17.95320829889593" lon="122.23855466604391"><ele>11.0</ele><time>2026-04-24T06:19:22Z</time></trkpt><trkpt lat="-17.9530912330408" lon="122.2384597391953"><ele>11.0</ele><time>2026-04-24T06:19:23Z</time></trkpt><trkpt lat="-17.952984463446203" lon="122.23837175433185"><ele>11.0</ele><time>2026-04-24T06:19:24Z</time></trkpt><trkpt lat="-17.95289423717919" lon="122.2382816176144"><ele>11.0</ele><time>2026-04-24T06:19:25Z</time></trkpt><trkpt lat="-17.952837939772365" lon="122.23818767424333"><ele>10.8</ele><time>2026-04-24T06:19:26Z</time></trkpt><trkpt lat="-17.95281722225929" lon="122.23809023522098"><ele>10.600000000000001</ele><time>2026-04-24T06:19:27Z</time></trkpt><trkpt lat="-17.952849931612658" lon="122.23799585518688"><ele>10.4</ele><time>2026-04-24T06:19:28Z</time></trkpt><trkpt lat="-17.95288072699168" lon="122.23790513946128"><ele>10.2</ele><time>2026-04-24T06:19:29Z</time></trkpt><trkpt lat="-17.9529691697824" lon="122.23784183060785"><ele>10.0</ele><time>2026-04-24T06:19:30Z</time></trkpt><trkpt lat="-17.95304552226655" lon="122.23775295721536"><ele>10.0</ele><time>2026-04-24T06:19:31Z</time></trkpt><trkpt lat="-17.953139287612633" lon="122.23766543366304"><ele>10.0</ele><time>2026-04-24T06:19:32Z</time></trkpt><trkpt lat="-17.953233822847455" lon="122.23756398770969"><ele>10.0</ele><time>2026-04-24T06:19:33Z</time></trkpt><trkpt lat="-17.95332509026736" lon="122.23746344170517"><ele>10.0</ele><time>2026-04-24T06:19:34Z</time></trkpt><trkpt lat="-17.953403646678765" lon="122.23738432348398"><ele>10.0</ele><time>2026-04-24T06:19:35Z</time></trkpt><trkpt lat="-17.953473591766404" lon="122.23731820783999"><ele>10.0</ele><time>2026-04-24T06:19:36Z</time></trkpt><trkpt lat="-17.95356342761317" lon="122.2372479351767"><ele>10.0</ele><time>2026-04-24T06:19:37Z</time></trkpt><trkpt lat="-17.953674660395215" lon="122.23717827690746"><ele>10.0</ele><time>2026-04-24T06:19:38Z</time></trkpt><trkpt lat="-17.953803266810315" lon="122.23711878647177"><ele>10.0</ele><time>2026-04-24T06:19:39Z</time></trkpt><trkpt lat="-17.953934250866354" lon="122.23707285121075"><ele>10.0</ele><time>2026-04-24T06:19:40Z</time></trkpt><trkpt lat="-17.954061367501225" lon="122.2370377888573"><ele>10.0</ele><time>2026-04-24T06:19:41Z</time></trkpt><trkpt lat="-17.95418459830148" lon="122.23701396412895"><ele>10.0</ele><time>2026-04-24T06:19:42Z</time></trkpt><trkpt lat="-17.95430634208812" lon="122.23699424615155"><ele>10.0</ele><time>2026-04-24T06:19:43Z</time></trkpt><trkpt lat="-17.954418952796704" lon="122.23697234001773"><ele>10.0</ele><time>2026-04-24T06:19:44Z</time></trkpt><trkpt lat="-17.954524223922792" lon="122.23694554074507"><ele>10.0</ele><time>2026-04-24T06:19:45Z</time></trkpt><trkpt lat="-17.954643728875496" lon="122.23691263734797"><ele>10.0</ele><time>2026-04-24T06:19:46Z</time></trkpt><trkpt lat="-17.954777682799552" lon="122.23688216977588"><ele>10.0</ele><time>2026-04-24T06:19:47Z</time></trkpt><trkpt lat="-17.954914848148558" lon="122.23686381102945"><ele>10.0</ele><time>2026-04-24T06:19:48Z</time></trkpt><trkpt lat="-17.955032364807018" lon="122.23685252063368"><ele>10.0</ele><time>2026-04-24T06:19:49Z</time></trkpt><trkpt lat="-17.955131582074205" lon="122.23684133840617"><ele>10.0</ele><time>2026-04-24T06:19:50Z</time></trkpt><trkpt lat="-17.955211651772217" lon="122.23683182447645"><ele>10.0</ele><time>2026-04-24T06:19:51Z</time></trkpt><trkpt lat="-17.95528022507337" lon="122.23682484264613"><ele>10.5</ele><time>2026-04-24T06:19:52Z</time></trkpt><trkpt lat="-17.95537118264627" lon="122.23681786660121"><ele>11.0</ele><time>2026-04-24T06:19:54Z</time></trkpt><trkpt lat="-17.95543588816476" lon="122.23682838657548"><ele>11.5</ele><time>2026-04-24T06:19:56Z</time></trkpt><trkpt lat="-17.955515635440623" lon="122.23684241395388"><ele>12.0</ele><time>2026-04-24T06:19:58Z</time></trkpt><trkpt lat="-17.955603020980224" lon="122.23682456662299"><ele>12.499999999999998</ele><time>2026-04-24T06:20:00Z</time></trkpt><trkpt lat="-17.95564933045437" lon="122.23674864728382"><ele>13.0</ele><time>2026-04-24T06:20:02Z</time></trkpt><trkpt lat="-17.95562583210341" lon="122.2366347025654"><ele>12.999999999999998</ele><time>2026-04-24T06:20:04Z</time></trkpt><trkpt lat="-17.955566513125934" lon="122.23654501562304"><ele>13.0</ele><time>2026-04-24T06:20:06Z</time></trkpt><trkpt lat="-17.95556968136971" lon="122.23646861580478"><ele>13.0</ele><time>2026-04-24T06:20:07Z</time></trkpt><trkpt lat="-17.955552840570355" lon="122.23639875036162"><ele>13.0</ele><time>2026-04-24T06:20:08Z</time></trkpt><trkpt lat="-17.955537041591672" lon="122.2363192917171"><ele>12.999999999999998</ele><time>2026-04-24T06:20:09Z</time></trkpt><trkpt lat="-17.95552395353711" lon="122.23623504590684"><ele>13.0</ele><time>2026-04-24T06:20:10Z</time></trkpt><trkpt lat="-17.955512988324994" lon="122.23615095307372"><ele>13.0</ele><time>2026-04-24T06:20:11Z</time></trkpt><trkpt lat="-17.955503073256413" lon="122.23607614164136"><ele>13.0</ele><time>2026-04-24T06:20:12Z</time></trkpt><trkpt lat="-17.955488944932394" lon="122.23600051753756"><ele>13.0</ele><time>2026-04-24T06:20:13Z</time></trkpt><trkpt lat="-17.955474219163225" lon="122.23592539270344"><ele>13.0</ele><time>2026-04-24T06:20:14Z</time></trkpt><trkpt lat="-17.955457803504423" lon="122.23585002926805"><ele>13.0</ele><time>2026-04-24T06:20:15Z</time></trkpt><trkpt lat="-17.955441962035678" lon="122.23578115363011"><ele>13.0</ele><time>2026-04-24T06:20:16Z</time></trkpt><trkpt lat="-17.955427555340403" lon="122.23571369641883"><ele>13.0</ele><time>2026-04-24T06:20:17Z</time></trkpt><trkpt lat="-17.955414859711812" lon="122.23563632038649"><ele>13.2</ele><time>2026-04-24T06:20:18Z</time></trkpt><trkpt lat="-17.955405206968393" lon="122.23555141501701"><ele>13.4</ele><time>2026-04-24T06:20:19Z</time></trkpt><trkpt lat="-17.95539133310479" lon="122.23546966366864"><ele>13.599999999999998</ele><time>2026-04-24T06:20:20Z</time></trkpt><trkpt lat="-17.95538022302303" lon="122.23539823448436"><ele>13.799999999999999</ele><time>2026-04-24T06:20:21Z</time></trkpt><trkpt lat="-17.955377399254406" lon="122.2353068882594"><ele>14.0</ele><time>2026-04-24T06:20:23Z</time></trkpt><trkpt lat="-17.95549138618814" lon="122.23522172804282"><ele>14.0</ele><time>2026-04-24T06:20:27Z</time></trkpt><trkpt lat="-17.955575119446944" lon="122.23520134101916"><ele>13.999999999999998</ele><time>2026-04-24T06:20:28Z</time></trkpt><trkpt lat="-17.955671785011447" lon="122.23518090898027"><ele>13.999999999999998</ele><time>2026-04-24T06:20:29Z</time></trkpt><trkpt lat="-17.955775516454786" lon="122.23516480742761"><ele>14.0</ele><time>2026-04-24T06:20:30Z</time></trkpt><trkpt lat="-17.95588304634716" lon="122.23514473956342"><ele>14.0</ele><time>2026-04-24T06:20:31Z</time></trkpt><trkpt lat="-17.95599974461952" lon="122.23512174390461"><ele>14.25</ele><time>2026-04-24T06:20:32Z</time></trkpt><trkpt lat="-17.956122942872724" lon="122.23509798998285"><ele>14.5</ele><time>2026-04-24T06:20:33Z</time></trkpt><trkpt lat="-17.95623596979256" lon="122.23507718883137"><ele>14.75</ele><time>2026-04-24T06:20:34Z</time></trkpt><trkpt lat="-17.956344018587114" lon="122.23506039849879"><ele>15.0</ele><time>2026-04-24T06:20:35Z</time></trkpt><trkpt lat="-17.956458783174273" lon="122.23504550616113"><ele>15.0</ele><time>2026-04-24T06:20:36Z</time></trkpt><trkpt lat="-17.956591696917556" lon="122.23502886115132"><ele>15.0</ele><time>2026-04-24T06:20:37Z</time></trkpt><trkpt lat="-17.956736505095698" lon="122.23500407313273"><ele>15.0</ele><time>2026-04-24T06:20:38Z</time></trkpt><trkpt lat="-17.956881483070497" lon="122.23497417388856"><ele>15.0</ele><time>2026-04-24T06:20:39Z</time></trkpt><trkpt lat="-17.95702532224998" lon="122.23494299851711"><ele>15.5</ele><time>2026-04-24T06:20:40Z</time></trkpt><trkpt lat="-17.95716788409799" lon="122.23490563848326"><ele>16.0</ele><time>2026-04-24T06:20:41Z</time></trkpt><trkpt lat="-17.95731145237425" lon="122.23486717179021"><ele>16.5</ele><time>2026-04-24T06:20:42Z</time></trkpt><trkpt lat="-17.957456079757517" lon="122.23483509108092"><ele>17.0</ele><time>2026-04-24T06:20:43Z</time></trkpt><trkpt lat="-17.957602041476584" lon="122.23481037100409"><ele>17.0</ele><time>2026-04-24T06:20:44Z</time></trkpt><trkpt lat="-17.957743053840012" lon="122.23478553245678"><ele>17.0</ele><time>2026-04-24T06:20:45Z</time></trkpt><trkpt lat="-17.957884663327654" lon="122.23475790493696"><ele>17.0</ele><time>2026-04-24T06:20:46Z</time></trkpt><trkpt lat="-17.958022050165223" lon="122.23472846036717"><ele>17.0</ele><time>2026-04-24T06:20:47Z</time></trkpt><trkpt lat="-17.95814821331761" lon="122.23470188685332"><ele>17.0</ele><time>2026-04-24T06:20:48Z</time></trkpt><trkpt lat="-17.95828925005345" lon="122.23467311159068"><ele>17.0</ele><time>2026-04-24T06:20:49Z</time></trkpt><trkpt lat="-17.95841762136238" lon="122.2346480172191"><ele>17.0</ele><time>2026-04-24T06:20:50Z</time></trkpt><trkpt lat="-17.95853975790814" lon="122.2346198837433"><ele>17.0</ele><time>2026-04-24T06:20:51Z</time></trkpt><trkpt lat="-17.958667774381073" lon="122.23459087333752"><ele>16.666666666666668</ele><time>2026-04-24T06:20:52Z</time></trkpt><trkpt lat="-17.958819969360594" lon="122.23457530261707"><ele>16.333333333333332</ele><time>2026-04-24T06:20:53Z</time></trkpt><trkpt lat="-17.958990346755346" lon="122.23454138349692"><ele>16.0</ele><time>2026-04-24T06:20:54Z</time></trkpt><trkpt lat="-17.959177684031985" lon="122.23450436051243"><ele>15.666666666666666</ele><time>2026-04-24T06:20:55Z</time></trkpt><trkpt lat="-17.959360267365657" lon="122.23447142303257"><ele>15.333333333333332</ele><time>2026-04-24T06:20:56Z</time></trkpt><trkpt lat="-17.95952516200003" lon="122.234429942874"><ele>15.0</ele><time>2026-04-24T06:20:57Z</time></trkpt><trkpt lat="-17.959679226378363" lon="122.2344135916264"><ele>15.0</ele><time>2026-04-24T06:20:58Z</time></trkpt><trkpt lat="-17.959826008545065" lon="122.23439247031754"><ele>15.0</ele><time>2026-04-24T06:20:59Z</time></trkpt><trkpt lat="-17.95996530395721" lon="122.23436113543596"><ele>15.0</ele><time>2026-04-24T06:21:00Z</time></trkpt><trkpt lat="-17.960105285810137" lon="122.23432333677624"><ele>15.0</ele><time>2026-04-24T06:21:01Z</time></trkpt><trkpt lat="-17.960250403034102" lon="122.23428615137232"><ele>15.5</ele><time>2026-04-24T06:21:02Z</time></trkpt><trkpt lat="-17.960381972902503" lon="122.23426105936095"><ele>16.0</ele><time>2026-04-24T06:21:03Z</time></trkpt><trkpt lat="-17.960504246957456" lon="122.23424681968191"><ele>16.5</ele><time>2026-04-24T06:21:04Z</time></trkpt><trkpt lat="-17.960620721903897" lon="122.23423444778209"><ele>17.0</ele><time>2026-04-24T06:21:05Z</time></trkpt><trkpt lat="-17.960726962306698" lon="122.23421856892512"><ele>17.0</ele><time>2026-04-24T06:21:06Z</time></trkpt><trkpt lat="-17.960823380985484" lon="122.23419821873269"><ele>17.0</ele><time>2026-04-24T06:21:07Z</time></trkpt><trkpt lat="-17.960910046410035" lon="122.2341760308522"><ele>17.0</ele><time>2026-04-24T06:21:08Z</time></trkpt><trkpt lat="-17.960991549906222" lon="122.2341556467551"><ele>17.0</ele><time>2026-04-24T06:21:09Z</time></trkpt><trkpt lat="-17.961064235895346" lon="122.23413823079713"><ele>17.0</ele><time>2026-04-24T06:21:10Z</time></trkpt><trkpt lat="-17.961129747039248" lon="122.23412662717534"><ele>17.0</ele><time>2026-04-24T06:21:11Z</time></trkpt><trkpt lat="-17.961236212235214" lon="122.23412729737248"><ele>17.6</ele><time>2026-04-24T06:21:13Z</time></trkpt><trkpt lat="-17.961333074055084" lon="122.23415110987578"><ele>18.2</ele><time>2026-04-24T06:21:15Z</time></trkpt><trkpt lat="-17.96145229491618" lon="122.23413649270873"><ele>18.8</ele><time>2026-04-24T06:21:17Z</time></trkpt><trkpt lat="-17.961517978532857" lon="122.23410038745381"><ele>19.4</ele><time>2026-04-24T06:21:18Z</time></trkpt><trkpt lat="-17.961596533709393" lon="122.23406016769101"><ele>20.0</ele><time>2026-04-24T06:21:19Z</time></trkpt><trkpt lat="-17.961680261608628" lon="122.23402963693499"><ele>20.4</ele><time>2026-04-24T06:21:20Z</time></trkpt><trkpt lat="-17.961764108861324" lon="122.23400840176635"><ele>20.8</ele><time>2026-04-24T06:21:21Z</time></trkpt><trkpt lat="-17.9618567342786" lon="122.23398636104875"><ele>21.200000000000003</ele><time>2026-04-24T06:21:22Z</time></trkpt><trkpt lat="-17.96195754730495" lon="122.23396502446913"><ele>21.6</ele><time>2026-04-24T06:21:23Z</time></trkpt><trkpt lat="-17.962061694070414" lon="122.23394510672935"><ele>22.0</ele><time>2026-04-24T06:21:24Z</time></trkpt><trkpt lat="-17.962169283316133" lon="122.2339257681469"><ele>22.0</ele><time>2026-04-24T06:21:25Z</time></trkpt><trkpt lat="-17.96227569804824" lon="122.23390744186386"><ele>22.0</ele><time>2026-04-24T06:21:26Z</time></trkpt><trkpt lat="-17.962386128449957" lon="122.23388462778831"><ele>22.0</ele><time>2026-04-24T06:21:27Z</time></trkpt><trkpt lat="-17.962491759012703" lon="122.23386370003306"><ele>22.0</ele><time>2026-04-24T06:21:28Z</time></trkpt><trkpt lat="-17.962598494593877" lon="122.23384679509279"><ele>22.0</ele><time>2026-04-24T06:21:29Z</time></trkpt><trkpt lat="-17.96269920473038" lon="122.2338316813194"><ele>22.0</ele><time>2026-04-24T06:21:30Z</time></trkpt><trkpt lat="-17.96280090501091" lon="122.233810951143"><ele>22.0</ele><time>2026-04-24T06:21:31Z</time></trkpt><trkpt lat="-17.96291974316414" lon="122.23377685928165"><ele>22.0</ele><time>2026-04-24T06:21:32Z</time></trkpt><trkpt lat="-17.963073390403675" lon="122.23376297278502"><ele>22.0</ele><time>2026-04-24T06:21:33Z</time></trkpt><trkpt lat="-17.96323440665773" lon="122.23373306983422"><ele>21.0</ele><time>2026-04-24T06:21:34Z</time></trkpt><trkpt lat="-17.96340874665389" lon="122.23370218404992"><ele>20.0</ele><time>2026-04-24T06:21:35Z</time></trkpt><trkpt lat="-17.963591077173874" lon="122.2336681048206"><ele>19.0</ele><time>2026-04-24T06:21:36Z</time></trkpt><trkpt lat="-17.96375396335449" lon="122.23362079373523"><ele>19.0</ele><time>2026-04-24T06:21:37Z</time></trkpt><trkpt lat="-17.963907690533556" lon="122.23360261619814"><ele>19.0</ele><time>2026-04-24T06:21:38Z</time></trkpt><trkpt lat="-17.964054350786625" lon="122.23358435373058"><ele>19.0</ele><time>2026-04-24T06:21:39Z</time></trkpt><trkpt lat="-17.96418824074982" lon="122.23356385887347"><ele>19.0</ele><time>2026-04-24T06:21:40Z</time></trkpt><trkpt lat="-17.964310897690414" lon="122.2335424036603"><ele>18.833333333333332</ele><time>2026-04-24T06:21:41Z</time></trkpt><trkpt lat="-17.96441775537608" lon="122.23351799684504"><ele>18.666666666666664</ele><time>2026-04-24T06:21:42Z</time></trkpt><trkpt lat="-17.964514336953886" lon="122.23349443990728"><ele>18.5</ele><time>2026-04-24T06:21:43Z</time></trkpt><trkpt lat="-17.964595590769438" lon="122.23347497593672"><ele>18.333333333333332</ele><time>2026-04-24T06:21:44Z</time></trkpt><trkpt lat="-17.964659676806903" lon="122.23346213854886"><ele>18.166666666666668</ele><time>2026-04-24T06:21:45Z</time></trkpt><trkpt lat="-17.964744439469218" lon="122.23345299517047"><ele>18.0</ele><time>2026-04-24T06:21:47Z</time></trkpt><trkpt lat="-17.96481494386109" lon="122.23344986896723"><ele>18.0</ele><time>2026-04-24T06:21:55Z</time></trkpt><trkpt lat="-17.96488055157574" lon="122.23348441736505"><ele>18.0</ele><time>2026-04-24T06:21:56Z</time></trkpt><trkpt lat="-17.96499206734949" lon="122.2334649811452"><ele>18.0</ele><time>2026-04-24T06:21:58Z</time></trkpt><trkpt lat="-17.965053364245794" lon="122.23338152589969"><ele>18.0</ele><time>2026-04-24T06:22:00Z</time></trkpt><trkpt lat="-17.96501635477137" lon="122.23325228356008"><ele>18.0</ele><time>2026-04-24T06:22:02Z</time></trkpt><trkpt lat="-17.964971783544918" lon="122.2331728513919"><ele>18.0</ele><time>2026-04-24T06:22:03Z</time></trkpt><trkpt lat="-17.964938793398986" lon="122.23307806311196"><ele>18.0</ele><time>2026-04-24T06:22:04Z</time></trkpt><trkpt lat="-17.9649152019328" lon="122.23297001633048"><ele>18.0</ele><time>2026-04-24T06:22:05Z</time></trkpt><trkpt lat="-17.96489009999242" lon="122.23284432524515"><ele>18.0</ele><time>2026-04-24T06:22:06Z</time></trkpt><trkpt lat="-17.964870898085362" lon="122.23273349856863"><ele>18.0</ele><time>2026-04-24T06:22:07Z</time></trkpt><trkpt lat="-17.964858378560987" lon="122.23265045920286"><ele>18.0</ele><time>2026-04-24T06:22:08Z</time></trkpt><trkpt lat="-17.964848718373464" lon="122.23258406311845"><ele>18.0</ele><time>2026-04-24T06:22:09Z</time></trkpt><trkpt lat="-17.96483501326467" lon="122.23250017400613"><ele>18.0</ele><time>2026-04-24T06:22:10Z</time></trkpt><trkpt lat="-17.964817198149518" lon="122.23238975537376"><ele>18.0</ele><time>2026-04-24T06:22:11Z</time></trkpt><trkpt lat="-17.964794989652276" lon="122.23226319239411"><ele>18.0</ele><time>2026-04-24T06:22:12Z</time></trkpt><trkpt lat="-17.964770692481572" lon="122.23212400752031"><ele>18.75</ele><time>2026-04-24T06:22:13Z</time></trkpt><trkpt lat="-17.96474351483151" lon="122.23198264849513"><ele>19.5</ele><time>2026-04-24T06:22:14Z</time></trkpt><trkpt lat="-17.96471443180903" lon="122.23183852484156"><ele>20.25</ele><time>2026-04-24T06:22:15Z</time></trkpt><trkpt lat="-17.96468253179493" lon="122.23167618815425"><ele>21.0</ele><time>2026-04-24T06:22:16Z</time></trkpt><trkpt lat="-17.964653049181432" lon="122.23150543733945"><ele>21.0</ele><time>2026-04-24T06:22:17Z</time></trkpt><trkpt lat="-17.96462483552558" lon="122.23133026162206"><ele>21.0</ele><time>2026-04-24T06:22:18Z</time></trkpt><trkpt lat="-17.964598768213747" lon="122.2311635317748"><ele>21.0</ele><time>2026-04-24T06:22:19Z</time></trkpt><trkpt lat="-17.964575783566026" lon="122.23101598949819"><ele>21.0</ele><time>2026-04-24T06:22:20Z</time></trkpt><trkpt lat="-17.964552953285093" lon="122.2308755082747"><ele>21.0</ele><time>2026-04-24T06:22:21Z</time></trkpt><trkpt lat="-17.964529959851326" lon="122.2307497589853"><ele>21.0</ele><time>2026-04-24T06:22:22Z</time></trkpt><trkpt lat="-17.964510890669793" lon="122.23063864149422"><ele>21.0</ele><time>2026-04-24T06:22:23Z</time></trkpt><trkpt lat="-17.964503320362777" lon="122.23053804278919"><ele>21.0</ele><time>2026-04-24T06:22:24Z</time></trkpt><trkpt lat="-17.964512043773958" lon="122.23044101519315"><ele>21.0</ele><time>2026-04-24T06:22:25Z</time></trkpt><trkpt lat="-17.964511071615963" lon="122.23035125520964"><ele>21.0</ele><time>2026-04-24T06:22:26Z</time></trkpt><trkpt lat="-17.964479376163514" lon="122.23026846550152"><ele>21.0</ele><time>2026-04-24T06:22:27Z</time></trkpt><trkpt lat="-17.964437331084632" lon="122.23018734616825"><ele>21.0</ele><time>2026-04-24T06:22:28Z</time></trkpt><trkpt lat="-17.96440789171464" lon="122.23008507570981"><ele>21.0</ele><time>2026-04-24T06:22:29Z</time></trkpt><trkpt lat="-17.964386892956906" lon="122.22996975772057"><ele>21.0</ele><time>2026-04-24T06:22:30Z</time></trkpt><trkpt lat="-17.964368082895668" lon="122.22984273222035"><ele>21.0</ele><time>2026-04-24T06:22:31Z</time></trkpt><trkpt lat="-17.964347321595604" lon="122.22970600667615"><ele>21.0</ele><time>2026-04-24T06:22:32Z</time></trkpt><trkpt lat="-17.964324536438763" lon="122.22957421828086"><ele>21.5</ele><time>2026-04-24T06:22:33Z</time></trkpt><trkpt lat="-17.964300878336022" lon="122.22944787070634"><ele>22.0</ele><time>2026-04-24T06:22:34Z</time></trkpt><trkpt lat="-17.964277281922218" lon="122.22930940128143"><ele>22.5</ele><time>2026-04-24T06:22:35Z</time></trkpt><trkpt lat="-17.964253164190463" lon="122.22916530735478"><ele>23.0</ele><time>2026-04-24T06:22:36Z</time></trkpt><trkpt lat="-17.96422518999884" lon="122.22901170392211"><ele>23.333333333333336</ele><time>2026-04-24T06:22:37Z</time></trkpt><trkpt lat="-17.964196624718912" lon="122.22885377078595"><ele>23.666666666666668</ele><time>2026-04-24T06:22:38Z</time></trkpt><trkpt lat="-17.964167103261122" lon="122.22868505227528"><ele>24.0</ele><time>2026-04-24T06:22:39Z</time></trkpt><trkpt lat="-17.964141122211114" lon="122.22851313568641"><ele>24.0</ele><time>2026-04-24T06:22:40Z</time></trkpt><trkpt lat="-17.964113153673296" lon="122.22834165844671"><ele>24.0</ele><time>2026-04-24T06:22:41Z</time></trkpt><trkpt lat="-17.964083863313263" lon="122.22817816153959"><ele>24.0</ele><time>2026-04-24T06:22:42Z</time></trkpt><trkpt lat="-17.964057164656523" lon="122.22802035507134"><ele>24.0</ele><time>2026-04-24T06:22:43Z</time></trkpt><trkpt lat="-17.964027276508645" lon="122.22786038698831"><ele>24.0</ele><time>2026-04-24T06:22:44Z</time></trkpt><trkpt lat="-17.963996673015828" lon="122.22769446289514"><ele>24.0</ele><time>2026-04-24T06:22:45Z</time></trkpt><trkpt lat="-17.963965359853244" lon="122.22752286456038"><ele>24.0</ele><time>2026-04-24T06:22:46Z</time></trkpt><trkpt lat="-17.963934672489636" lon="122.22735650056806"><ele>24.0</ele><time>2026-04-24T06:22:47Z</time></trkpt><trkpt lat="-17.963909299572165" lon="122.22720534712808"><ele>24.0</ele><time>2026-04-24T06:22:48Z</time></trkpt><trkpt lat="-17.96388525134299" lon="122.22706258279611"><ele>24.0</ele><time>2026-04-24T06:22:49Z</time></trkpt><trkpt lat="-17.96385731158254" lon="122.22692649229944"><ele>24.0</ele><time>2026-04-24T06:22:50Z</time></trkpt><trkpt lat="-17.963826859767213" lon="122.22678991111472"><ele>24.0</ele><time>2026-04-24T06:22:51Z</time></trkpt><trkpt lat="-17.963798341334094" lon="122.22665461938473"><ele>24.0</ele><time>2026-04-24T06:22:52Z</time></trkpt><trkpt lat="-17.963770024732725" lon="122.22651032232704"><ele>24.0</ele><time>2026-04-24T06:22:53Z</time></trkpt><trkpt lat="-17.96374114442684" lon="122.22636632441079"><ele>23.0</ele><time>2026-04-24T06:22:54Z</time></trkpt><trkpt lat="-17.963711869175025" lon="122.22620435440336"><ele>22.0</ele><time>2026-04-24T06:22:55Z</time></trkpt><trkpt lat="-17.963686893355256" lon="122.22601887299192"><ele>21.0</ele><time>2026-04-24T06:22:56Z</time></trkpt><trkpt lat="-17.963658966212137" lon="122.22581705931928"><ele>21.0</ele><time>2026-04-24T06:22:57Z</time></trkpt><trkpt lat="-17.96362656350737" lon="122.22561658403683"><ele>21.0</ele><time>2026-04-24T06:22:58Z</time></trkpt><trkpt lat="-17.963593510952208" lon="122.22541169579387"><ele>21.0</ele><time>2026-04-24T06:22:59Z</time></trkpt><trkpt lat="-17.963559204866947" lon="122.22520830584979"><ele>21.0</ele><time>2026-04-24T06:23:00Z</time></trkpt><trkpt lat="-17.963524434466642" lon="122.22502031358496"><ele>21.0</ele><time>2026-04-24T06:23:01Z</time></trkpt><trkpt lat="-17.963492576121592" lon="122.22484844057838"><ele>21.0</ele><time>2026-04-24T06:23:02Z</time></trkpt><trkpt lat="-17.963460414478966" lon="122.22468579578"><ele>21.0</ele><time>2026-04-24T06:23:03Z</time></trkpt><trkpt lat="-17.963432947940245" lon="122.2245312801808"><ele>21.0</ele><time>2026-04-24T06:23:04Z</time></trkpt><trkpt lat="-17.9634084367615" lon="122.22438544592096"><ele>21.0</ele><time>2026-04-24T06:23:05Z</time></trkpt><trkpt lat="-17.963387111563957" lon="122.2242461531118"><ele>21.0</ele><time>2026-04-24T06:23:06Z</time></trkpt><trkpt lat="-17.963366559325536" lon="122.22411705151217"><ele>21.0</ele><time>2026-04-24T06:23:07Z</time></trkpt><trkpt lat="-17.963345675275903" lon="122.22400018710552"><ele>21.0</ele><time>2026-04-24T06:23:08Z</time></trkpt><trkpt lat="-17.963324962198197" lon="122.22389040459444"><ele>21.0</ele><time>2026-04-24T06:23:09Z</time></trkpt><trkpt lat="-17.963307798939695" lon="122.22379241352431"><ele>21.0</ele><time>2026-04-24T06:23:10Z</time></trkpt><trkpt lat="-17.963296570419462" lon="122.22370787657195"><ele>21.0</ele><time>2026-04-24T06:23:11Z</time></trkpt><trkpt lat="-17.963301003386434" lon="122.22363859712677"><ele>21.0</ele><time>2026-04-24T06:23:12Z</time></trkpt><trkpt lat="-17.96339160268459" lon="122.22355025245712"><ele>21.0</ele><time>2026-04-24T06:23:14Z</time></trkpt><trkpt lat="-17.963478830168334" lon="122.22353234834297"><ele>21.0</ele><time>2026-04-24T06:23:15Z</time></trkpt><trkpt lat="-17.963583922625308" lon="122.22351823814945"><ele>21.0</ele><time>2026-04-24T06:23:16Z</time></trkpt><trkpt lat="-17.96370840492585" lon="122.22349668371665"><ele>21.0</ele><time>2026-04-24T06:23:17Z</time></trkpt><trkpt lat="-17.963850991803007" lon="122.22347060994626"><ele>21.0</ele><time>2026-04-24T06:23:18Z</time></trkpt><trkpt lat="-17.964003271411265" lon="122.22344195221186"><ele>21.0</ele><time>2026-04-24T06:23:19Z</time></trkpt><trkpt lat="-17.964153366455584" lon="122.223412098876"><ele>21.0</ele><time>2026-04-24T06:23:20Z</time></trkpt><trkpt lat="-17.96431289954378" lon="122.22338078164547"><ele>20.666666666666668</ele><time>2026-04-24T06:23:21Z</time></trkpt><trkpt lat="-17.9644797962157" lon="122.2233468653409"><ele>20.333333333333336</ele><time>2026-04-24T06:23:22Z</time></trkpt><trkpt lat="-17.96463974399058" lon="122.22331343095541"><ele>20.0</ele><time>2026-04-24T06:23:23Z</time></trkpt><trkpt lat="-17.964786019058245" lon="122.22328465795357"><ele>20.0</ele><time>2026-04-24T06:23:24Z</time></trkpt><trkpt lat="-17.964917254192496" lon="122.223258785035"><ele>20.0</ele><time>2026-04-24T06:23:25Z</time></trkpt><trkpt lat="-17.965034659422372" lon="122.2232385037762"><ele>20.0</ele><time>2026-04-24T06:23:26Z</time></trkpt><trkpt lat="-17.965142207412722" lon="122.2232212201588"><ele>20.0</ele><time>2026-04-24T06:23:27Z</time></trkpt><trkpt lat="-17.965234665804147" lon="122.223201979226"><ele>19.8</ele><time>2026-04-24T06:23:28Z</time></trkpt><trkpt lat="-17.96531040807765" lon="122.22318960085477"><ele>19.6</ele><time>2026-04-24T06:23:29Z</time></trkpt><trkpt lat="-17.965415191288905" lon="122.22317061167811"><ele>19.4</ele><time>2026-04-24T06:23:31Z</time></trkpt><trkpt lat="-17.965493968893377" lon="122.22314863428953"><ele>19.2</ele><time>2026-04-24T06:23:33Z</time></trkpt><trkpt lat="-17.965430481466594" lon="122.22300510273783"><ele>19.0</ele><time>2026-04-24T06:23:35Z</time></trkpt><trkpt lat="-17.965431957791807" lon="122.22293424158137"><ele>19.666666666666664</ele><time>2026-04-24T06:23:36Z</time></trkpt><trkpt lat="-17.965401070531495" lon="122.22285285634223"><ele>20.333333333333332</ele><time>2026-04-24T06:23:37Z</time></trkpt><trkpt lat="-17.96537485241124" lon="122.22275980378599"><ele>21.0</ele><time>2026-04-24T06:23:38Z</time></trkpt><trkpt lat="-17.965353279648216" lon="122.22267043485301"><ele>21.666666666666668</ele><time>2026-04-24T06:23:39Z</time></trkpt><trkpt lat="-17.96533052090593" lon="122.22258908307379"><ele>22.333333333333336</ele><time>2026-04-24T06:23:40Z</time></trkpt><trkpt lat="-17.96531868927049" lon="122.22250598285919"><ele>23.0</ele><time>2026-04-24T06:23:41Z</time></trkpt><trkpt lat="-17.965319626705647" lon="122.22241692731198"><ele>23.0</ele><time>2026-04-24T06:23:42Z</time></trkpt><trkpt lat="-17.965307432184712" lon="122.22233228427822"><ele>23.0</ele><time>2026-04-24T06:23:43Z</time></trkpt><trkpt lat="-17.96529083791625" lon="122.22226158976429"><ele>23.0</ele><time>2026-04-24T06:23:44Z</time></trkpt><trkpt lat="-17.965275489312088" lon="122.2221557476442"><ele>23.0</ele><time>2026-04-24T06:23:46Z</time></trkpt><trkpt lat="-17.965265579779576" lon="122.22207291029196"><ele>23.0</ele><time>2026-04-24T06:23:48Z</time></trkpt><trkpt lat="-17.965422255285198" lon="122.22203674548852"><ele>23.0</ele><time>2026-04-24T06:23:55Z</time></trkpt><trkpt lat="-17.96544150783782" lon="122.22210223127807"><ele>23.0</ele><time>2026-04-24T06:23:59Z</time></trkpt><trkpt lat="-17.965405081743167" lon="122.22217515584747"><ele>23.0</ele><time>2026-04-24T06:24:56Z</time></trkpt><trkpt lat="-17.965415530148295" lon="122.22224365543562"><ele>23.0</ele><time>2026-04-24T06:25:08Z</time></trkpt><trkpt lat="-17.965481468742492" lon="122.22224422776489"><ele>23.0</ele><time>2026-04-24T06:25:16Z</time></trkpt><trkpt lat="-17.965413602764322" lon="122.22201449167228"><ele>23.0</ele><time>2026-04-24T06:57:14.431Z</time></trkpt><trkpt lat="-17.96537899159825" lon="122.22209568686465"><ele>23.0</ele><time>2026-04-24T06:57:21.006Z</time></trkpt><trkpt lat="-17.965350769044612" lon="122.2220326584441"><ele>23.0</ele><time>2026-04-24T06:58:48.999Z</time></trkpt><trkpt lat="-17.965267482274175" lon="122.22203752507873"><ele>23.0</ele><time>2026-04-24T06:58:51.999Z</time></trkpt><trkpt lat="-17.965187678091556" lon="122.22201499555764"><ele>23.0</ele><time>2026-04-24T06:59:09.999Z</time></trkpt><trkpt lat="-17.965180315871986" lon="122.22193887757965"><ele>23.0</ele><time>2026-04-24T06:59:11.999Z</time></trkpt><trkpt lat="-17.96519893504719" lon="122.22180497684367"><ele>23.0</ele><time>2026-04-24T06:59:13.999Z</time></trkpt><trkpt lat="-17.965195447597026" lon="122.22172824066239"><ele>23.0</ele><time>2026-04-24T06:59:14.999Z</time></trkpt><trkpt lat="-17.96518266302016" lon="122.22164421568735"><ele>23.0</ele><time>2026-04-24T06:59:15.999Z</time></trkpt><trkpt lat="-17.965163266515027" lon="122.2215561853122"><ele>23.0</ele><time>2026-04-24T06:59:16.999Z</time></trkpt><trkpt lat="-17.965144929807103" lon="122.2214657720008"><ele>23.0</ele><time>2026-04-24T06:59:17.999Z</time></trkpt><trkpt lat="-17.96512768801447" lon="122.22137509616272"><ele>23.0</ele><time>2026-04-24T06:59:18.999Z</time></trkpt><trkpt lat="-17.96511173436577" lon="122.22128413141428"><ele>22.666666666666668</ele><time>2026-04-24T06:59:19.999Z</time></trkpt><trkpt lat="-17.96509408489193" lon="122.22119186743754"><ele>22.333333333333336</ele><time>2026-04-24T06:59:20.999Z</time></trkpt><trkpt lat="-17.9650777458579" lon="122.22109544271699"><ele>22.0</ele><time>2026-04-24T06:59:21.999Z</time></trkpt><trkpt lat="-17.96506023294149" lon="122.22099428521929"><ele>21.666666666666668</ele><time>2026-04-24T06:59:22.999Z</time></trkpt><trkpt lat="-17.965047558865106" lon="122.22091195270946"><ele>21.333333333333332</ele><time>2026-04-24T06:59:23.999Z</time></trkpt><trkpt lat="-17.965038946892893" lon="122.22083632456133"><ele>21.0</ele><time>2026-04-24T06:59:24.999Z</time></trkpt><trkpt lat="-17.965025307548235" lon="122.2207426891967"><ele>21.6</ele><time>2026-04-24T06:59:25.999Z</time></trkpt><trkpt lat="-17.96500424470189" lon="122.22063547356304"><ele>22.200000000000003</ele><time>2026-04-24T06:59:26.999Z</time></trkpt><trkpt lat="-17.964978305010504" lon="122.22052536532267"><ele>22.799999999999997</ele><time>2026-04-24T06:59:27.999Z</time></trkpt><trkpt lat="-17.96495632379828" lon="122.22041448090546"><ele>23.4</ele><time>2026-04-24T06:59:28.999Z</time></trkpt><trkpt lat="-17.96493745826682" lon="122.2203119052484"><ele>24.0</ele><time>2026-04-24T06:59:29.999Z</time></trkpt><trkpt lat="-17.964920091346407" lon="122.22021533421797"><ele>24.0</ele><time>2026-04-24T06:59:30.999Z</time></trkpt><trkpt lat="-17.96491014439419" lon="122.22013186528437"><ele>24.0</ele><time>2026-04-24T06:59:31.999Z</time></trkpt><trkpt lat="-17.964872067197962" lon="122.22001481267056"><ele>24.0</ele><time>2026-04-24T06:59:33.999Z</time></trkpt><trkpt lat="-17.965031176537526" lon="122.21986886587092"><ele>24.0</ele><time>2026-04-24T06:59:35.999Z</time></trkpt><trkpt lat="-17.965129175274807" lon="122.21982217922064"><ele>23.25</ele><time>2026-04-24T06:59:36.999Z</time></trkpt><trkpt lat="-17.965238120625408" lon="122.2197676001287"><ele>22.5</ele><time>2026-04-24T06:59:37.999Z</time></trkpt><trkpt lat="-17.965355813091488" lon="122.21969457948698"><ele>21.75</ele><time>2026-04-24T06:59:38.999Z</time></trkpt><trkpt lat="-17.965483454125284" lon="122.21963600523124"><ele>21.0</ele><time>2026-04-24T06:59:39.999Z</time></trkpt><trkpt lat="-17.96561671668504" lon="122.21957708565962"><ele>21.0</ele><time>2026-04-24T06:59:40.999Z</time></trkpt><trkpt lat="-17.965761742208965" lon="122.21951313084004"><ele>21.0</ele><time>2026-04-24T06:59:41.999Z</time></trkpt><trkpt lat="-17.965909751975577" lon="122.21944528951475"><ele>21.0</ele><time>2026-04-24T06:59:42.999Z</time></trkpt><trkpt lat="-17.96604153953728" lon="122.21938059931472"><ele>20.75</ele><time>2026-04-24T06:59:43.999Z</time></trkpt><trkpt lat="-17.96616273701998" lon="122.21931921070433"><ele>20.5</ele><time>2026-04-24T06:59:44.999Z</time></trkpt><trkpt lat="-17.96627230503876" lon="122.21926435543311"><ele>20.25</ele><time>2026-04-24T06:59:45.999Z</time></trkpt><trkpt lat="-17.966370749120042" lon="122.21921594333153"><ele>20.0</ele><time>2026-04-24T06:59:46.999Z</time></trkpt><trkpt lat="-17.966457246021374" lon="122.21917473015115"><ele>20.0</ele><time>2026-04-24T06:59:47.999Z</time></trkpt><trkpt lat="-17.966535225493118" lon="122.21913870335179"><ele>20.0</ele><time>2026-04-24T06:59:48.999Z</time></trkpt><trkpt lat="-17.96659932811068" lon="122.21910049412959"><ele>20.0</ele><time>2026-04-24T06:59:49.999Z</time></trkpt><trkpt lat="-17.966652822017" lon="122.21906025942747"><ele>20.0</ele><time>2026-04-24T06:59:50.999Z</time></trkpt><trkpt lat="-17.966753273648518" lon="122.21901767203546"><ele>20.0</ele><time>2026-04-24T06:59:52.999Z</time></trkpt><trkpt lat="-17.96672954660232" lon="122.21881741739914"><ele>20.333333333333336</ele><time>2026-04-24T06:59:54.999Z</time></trkpt><trkpt lat="-17.966701810057163" lon="122.21875058212613"><ele>20.666666666666668</ele><time>2026-04-24T06:59:55.999Z</time></trkpt><trkpt lat="-17.96666954104348" lon="122.21868727302622"><ele>21.0</ele><time>2026-04-24T06:59:56.999Z</time></trkpt><trkpt lat="-17.96661742452634" lon="122.21860926816083"><ele>21.333333333333332</ele><time>2026-04-24T06:59:58.999Z</time></trkpt><trkpt lat="-17.96655568268728" lon="122.21851990618906"><ele>21.666666666666664</ele><time>2026-04-24T07:00:01.999Z</time></trkpt><trkpt lat="-17.966448448310064" lon="122.2185470904736"><ele>22.0</ele><time>2026-04-24T07:00:02.999Z</time></trkpt><trkpt lat="-17.966368915968072" lon="122.21858600882933"><ele>22.0</ele><time>2026-04-24T07:00:03.999Z</time></trkpt><trkpt lat="-17.966288055299284" lon="122.21863138778103"><ele>22.0</ele><time>2026-04-24T07:00:04.999Z</time></trkpt><trkpt lat="-17.96619403409203" lon="122.21868530907277"><ele>22.0</ele><time>2026-04-24T07:00:05.999Z</time></trkpt><trkpt lat="-17.96608963264311" lon="122.21873998749689"><ele>22.0</ele><time>2026-04-24T07:00:06.999Z</time></trkpt><trkpt lat="-17.965972642034977" lon="122.21879749605975"><ele>22.0</ele><time>2026-04-24T07:00:07.999Z</time></trkpt><trkpt lat="-17.96585175437269" lon="122.21885965480277"><ele>21.75</ele><time>2026-04-24T07:00:08.999Z</time></trkpt><trkpt lat="-17.96574009137616" lon="122.2189202595579"><ele>21.5</ele><time>2026-04-24T07:00:09.999Z</time></trkpt><trkpt lat="-17.965636050973817" lon="122.21897490450675"><ele>21.25</ele><time>2026-04-24T07:00:10.999Z</time></trkpt><trkpt lat="-17.965535058065875" lon="122.21903033661388"><ele>21.0</ele><time>2026-04-24T07:00:11.999Z</time></trkpt><trkpt lat="-17.965439246509067" lon="122.21908478162185"><ele>21.0</ele><time>2026-04-24T07:00:12.999Z</time></trkpt><trkpt lat="-17.96534613426327" lon="122.21913390733901"><ele>21.0</ele><time>2026-04-24T07:00:13.999Z</time></trkpt><trkpt lat="-17.96525518639898" lon="122.21917875721563"><ele>21.0</ele><time>2026-04-24T07:00:14.999Z</time></trkpt><trkpt lat="-17.965167096451886" lon="122.21922407371916"><ele>21.0</ele><time>2026-04-24T07:00:15.999Z</time></trkpt><trkpt lat="-17.965071890984966" lon="122.2192745525582"><ele>21.0</ele><time>2026-04-24T07:00:16.999Z</time></trkpt><trkpt lat="-17.964963501376754" lon="122.21932983982803"><ele>22.25</ele><time>2026-04-24T07:00:17.999Z</time></trkpt><trkpt lat="-17.964849466971256" lon="122.21938892230419"><ele>23.5</ele><time>2026-04-24T07:00:18.999Z</time></trkpt><trkpt lat="-17.964730092976158" lon="122.21944910711771"><ele>24.75</ele><time>2026-04-24T07:00:19.999Z</time></trkpt><trkpt lat="-17.964601238321027" lon="122.21951395722492"><ele>26.0</ele><time>2026-04-24T07:00:20.999Z</time></trkpt><trkpt lat="-17.964473259402705" lon="122.21958078619065"><ele>26.0</ele><time>2026-04-24T07:00:21.999Z</time></trkpt><trkpt lat="-17.964353932667393" lon="122.21964191265648"><ele>26.0</ele><time>2026-04-24T07:00:22.999Z</time></trkpt><trkpt lat="-17.964248613429824" lon="122.21969594037697"><ele>26.0</ele><time>2026-04-24T07:00:23.999Z</time></trkpt><trkpt lat="-17.964149818661816" lon="122.21974746327746"><ele>26.0</ele><time>2026-04-24T07:00:24.999Z</time></trkpt><trkpt lat="-17.964057176392693" lon="122.21979531839035"><ele>25.25</ele><time>2026-04-24T07:00:25.999Z</time></trkpt><trkpt lat="-17.963962573598277" lon="122.21984448972904"><ele>24.5</ele><time>2026-04-24T07:00:26.999Z</time></trkpt><trkpt lat="-17.963855843242467" lon="122.2198978816575"><ele>23.75</ele><time>2026-04-24T07:00:27.999Z</time></trkpt><trkpt lat="-17.963738518107913" lon="122.21995820924957"><ele>23.0</ele><time>2026-04-24T07:00:28.999Z</time></trkpt><trkpt lat="-17.963617722232964" lon="122.22002000534373"><ele>23.0</ele><time>2026-04-24T07:00:29.999Z</time></trkpt><trkpt lat="-17.963499006412682" lon="122.22007812003847"><ele>23.0</ele><time>2026-04-24T07:00:30.999Z</time></trkpt><trkpt lat="-17.96337837172214" lon="122.22013208699897"><ele>23.0</ele><time>2026-04-24T07:00:31.999Z</time></trkpt><trkpt lat="-17.96325208329685" lon="122.2201898365349"><ele>23.0</ele><time>2026-04-24T07:00:32.999Z</time></trkpt><trkpt lat="-17.963129303691616" lon="122.22025311675512"><ele>22.799999999999997</ele><time>2026-04-24T07:00:33.999Z</time></trkpt><trkpt lat="-17.96302218523786" lon="122.2203122731379"><ele>22.6</ele><time>2026-04-24T07:00:34.999Z</time></trkpt><trkpt lat="-17.962932161640758" lon="122.22036348462863"><ele>22.4</ele><time>2026-04-24T07:00:35.999Z</time></trkpt><trkpt lat="-17.962852619884263" lon="122.22041678025766"><ele>22.200000000000003</ele><time>2026-04-24T07:00:36.999Z</time></trkpt><trkpt lat="-17.962798194163348" lon="122.22049393914583"><ele>22.0</ele><time>2026-04-24T07:00:37.999Z</time></trkpt><trkpt lat="-17.962703575201846" lon="122.22051589428428"><ele>22.0</ele><time>2026-04-24T07:00:38.999Z</time></trkpt><trkpt lat="-17.962622107724222" lon="122.22055348347124"><ele>22.0</ele><time>2026-04-24T07:00:39.999Z</time></trkpt><trkpt lat="-17.962556925893026" lon="122.22062773611725"><ele>22.0</ele><time>2026-04-24T07:00:40.999Z</time></trkpt><trkpt lat="-17.962457263960566" lon="122.22067180257847"><ele>22.0</ele><time>2026-04-24T07:00:41.999Z</time></trkpt><trkpt lat="-17.962356495404098" lon="122.22073593246265"><ele>22.0</ele><time>2026-04-24T07:00:42.999Z</time></trkpt><trkpt lat="-17.962232819707104" lon="122.22079460590965"><ele>22.666666666666664</ele><time>2026-04-24T07:00:43.999Z</time></trkpt><trkpt lat="-17.962092509795355" lon="122.22085749090293"><ele>23.333333333333332</ele><time>2026-04-24T07:00:44.999Z</time></trkpt><trkpt lat="-17.961941405411896" lon="122.22090601527653"><ele>24.0</ele><time>2026-04-24T07:00:45.999Z</time></trkpt><trkpt lat="-17.961798927105935" lon="122.22099143848827"><ele>24.0</ele><time>2026-04-24T07:00:46.999Z</time></trkpt><trkpt lat="-17.961635344256464" lon="122.2210651352069"><ele>24.0</ele><time>2026-04-24T07:00:47.999Z</time></trkpt><trkpt lat="-17.961471723577734" lon="122.22113735501522"><ele>24.0</ele><time>2026-04-24T07:00:48.999Z</time></trkpt><trkpt lat="-17.96131173315373" lon="122.22120959917027"><ele>24.0</ele><time>2026-04-24T07:00:49.999Z</time></trkpt><trkpt lat="-17.961155539720863" lon="122.22127771413822"><ele>24.0</ele><time>2026-04-24T07:00:50.999Z</time></trkpt><trkpt lat="-17.961002034994948" lon="122.2213379901982"><ele>24.0</ele><time>2026-04-24T07:00:51.999Z</time></trkpt><trkpt lat="-17.960853544750776" lon="122.22138633203244"><ele>24.0</ele><time>2026-04-24T07:00:52.999Z</time></trkpt><trkpt lat="-17.96070981910216" lon="122.22142773035598"><ele>24.0</ele><time>2026-04-24T07:00:53.999Z</time></trkpt><trkpt lat="-17.96056402919361" lon="122.22146747801101"><ele>24.0</ele><time>2026-04-24T07:00:54.999Z</time></trkpt><trkpt lat="-17.960419816984867" lon="122.22150534643553"><ele>24.0</ele><time>2026-04-24T07:00:55.999Z</time></trkpt><trkpt lat="-17.960284903283476" lon="122.2215366476463"><ele>24.0</ele><time>2026-04-24T07:00:56.999Z</time></trkpt><trkpt lat="-17.96015740113144" lon="122.22156615255885"><ele>24.0</ele><time>2026-04-24T07:00:57.999Z</time></trkpt><trkpt lat="-17.96003775417556" lon="122.22159365793796"><ele>24.0</ele><time>2026-04-24T07:00:58.999Z</time></trkpt><trkpt lat="-17.959918727395927" lon="122.22161750007521"><ele>24.0</ele><time>2026-04-24T07:00:59.999Z</time></trkpt><trkpt lat="-17.95979554692993" lon="122.22164503657268"><ele>23.5</ele><time>2026-04-24T07:01:00.999Z</time></trkpt><trkpt lat="-17.959667712249843" lon="122.22167896508691"><ele>23.0</ele><time>2026-04-24T07:01:01.999Z</time></trkpt><trkpt lat="-17.959537366749533" lon="122.22171745935763"><ele>22.5</ele><time>2026-04-24T07:01:02.999Z</time></trkpt><trkpt lat="-17.959410653234308" lon="122.2217555015302"><ele>22.0</ele><time>2026-04-24T07:01:03.999Z</time></trkpt><trkpt lat="-17.95930000336872" lon="122.22178615902882"><ele>22.0</ele><time>2026-04-24T07:01:04.999Z</time></trkpt><trkpt lat="-17.959188261456358" lon="122.22181607935376"><ele>22.0</ele><time>2026-04-24T07:01:05.999Z</time></trkpt><trkpt lat="-17.959073458327058" lon="122.22184349185643"><ele>22.0</ele><time>2026-04-24T07:01:06.999Z</time></trkpt><trkpt lat="-17.958954024913087" lon="122.22187219406804"><ele>22.0</ele><time>2026-04-24T07:01:07.999Z</time></trkpt><trkpt lat="-17.958830907605897" lon="122.22190354267042"><ele>22.0</ele><time>2026-04-24T07:01:08.999Z</time></trkpt><trkpt lat="-17.95870961703887" lon="122.22193426083645"><ele>22.0</ele><time>2026-04-24T07:01:09.999Z</time></trkpt><trkpt lat="-17.958587285511122" lon="122.22196340425174"><ele>22.0</ele><time>2026-04-24T07:01:10.999Z</time></trkpt><trkpt lat="-17.95846567899688" lon="122.22199134924958"><ele>22.0</ele><time>2026-04-24T07:01:11.999Z</time></trkpt><trkpt lat="-17.958336058241837" lon="122.22202099112323"><ele>22.5</ele><time>2026-04-24T07:01:12.999Z</time></trkpt><trkpt lat="-17.958201479125524" lon="122.22205280515362"><ele>23.0</ele><time>2026-04-24T07:01:13.999Z</time></trkpt><trkpt lat="-17.958065238588635" lon="122.22208760336386"><ele>23.5</ele><time>2026-04-24T07:01:14.999Z</time></trkpt><trkpt lat="-17.95793458160233" lon="122.22212117482825"><ele>24.0</ele><time>2026-04-24T07:01:15.999Z</time></trkpt><trkpt lat="-17.957802101855656" lon="122.22215626201802"><ele>24.0</ele><time>2026-04-24T07:01:16.999Z</time></trkpt><trkpt lat="-17.957664651166684" lon="122.22219438978141"><ele>24.0</ele><time>2026-04-24T07:01:17.999Z</time></trkpt><trkpt lat="-17.95752628498816" lon="122.22223818163489"><ele>24.0</ele><time>2026-04-24T07:01:18.999Z</time></trkpt><trkpt lat="-17.95739355606881" lon="122.222290610145"><ele>24.0</ele><time>2026-04-24T07:01:19.999Z</time></trkpt><trkpt lat="-17.957271689212966" lon="122.22235243646438"><ele>23.75</ele><time>2026-04-24T07:01:20.999Z</time></trkpt><trkpt lat="-17.9571602433938" lon="122.22241692650488"><ele>23.5</ele><time>2026-04-24T07:01:21.999Z</time></trkpt><trkpt lat="-17.957055373009894" lon="122.22248155422353"><ele>23.25</ele><time>2026-04-24T07:01:22.999Z</time></trkpt><trkpt lat="-17.956955580515473" lon="122.22254498374149"><ele>23.0</ele><time>2026-04-24T07:01:23.999Z</time></trkpt><trkpt lat="-17.956855063571844" lon="122.22261062141273"><ele>23.0</ele><time>2026-04-24T07:01:24.999Z</time></trkpt><trkpt lat="-17.956749340793767" lon="122.22268489655269"><ele>23.0</ele><time>2026-04-24T07:01:25.999Z</time></trkpt><trkpt lat="-17.95664820432519" lon="122.22276316463955"><ele>23.0</ele><time>2026-04-24T07:01:26.999Z</time></trkpt><trkpt lat="-17.956558666507732" lon="122.22284136465257"><ele>23.0</ele><time>2026-04-24T07:01:27.999Z</time></trkpt><trkpt lat="-17.956480668244584" lon="122.22291573161584"><ele>22.599999999999998</ele><time>2026-04-24T07:01:28.999Z</time></trkpt><trkpt lat="-17.956404507112936" lon="122.22298881993719"><ele>22.2</ele><time>2026-04-24T07:01:29.999Z</time></trkpt><trkpt lat="-17.956330481266036" lon="122.22306445033118"><ele>21.8</ele><time>2026-04-24T07:01:30.999Z</time></trkpt><trkpt lat="-17.956257773306632" lon="122.22314511243324"><ele>21.4</ele><time>2026-04-24T07:01:31.999Z</time></trkpt><trkpt lat="-17.956197709262334" lon="122.22322044957491"><ele>21.0</ele><time>2026-04-24T07:01:32.999Z</time></trkpt><trkpt lat="-17.956156332524237" lon="122.22327688678216"><ele>20.666666666666668</ele><time>2026-04-24T07:01:33.999Z</time></trkpt><trkpt lat="-17.956102215746238" lon="122.22335049054162"><ele>20.333333333333332</ele><time>2026-04-24T07:01:35.999Z</time></trkpt><trkpt lat="-17.956034005393008" lon="122.22342468186804"><ele>20.0</ele><time>2026-04-24T07:01:37.999Z</time></trkpt><trkpt lat="-17.955948759495975" lon="122.22348499516191"><ele>19.666666666666664</ele><time>2026-04-24T07:01:39.999Z</time></trkpt><trkpt lat="-17.955890113351746" lon="122.2235242337486"><ele>19.333333333333332</ele><time>2026-04-24T07:01:40.999Z</time></trkpt><trkpt lat="-17.95582673579399" lon="122.22358377386695"><ele>19.0</ele><time>2026-04-24T07:01:41.999Z</time></trkpt><trkpt lat="-17.955771908445488" lon="122.22366938020748"><ele>18.75</ele><time>2026-04-24T07:01:42.999Z</time></trkpt><trkpt lat="-17.955740915330676" lon="122.22378301771563"><ele>18.5</ele><time>2026-04-24T07:01:43.999Z</time></trkpt><trkpt lat="-17.9556695233653" lon="122.2238985114454"><ele>18.25</ele><time>2026-04-24T07:01:44.999Z</time></trkpt><trkpt lat="-17.955593831662405" lon="122.22402955816811"><ele>18.0</ele><time>2026-04-24T07:01:45.999Z</time></trkpt><trkpt lat="-17.955502126121033" lon="122.22414961262939"><ele>19.0</ele><time>2026-04-24T07:01:46.999Z</time></trkpt><trkpt lat="-17.955399955667936" lon="122.22427572222858"><ele>20.0</ele><time>2026-04-24T07:01:47.999Z</time></trkpt><trkpt lat="-17.955296685943818" lon="122.22440650668248"><ele>21.0</ele><time>2026-04-24T07:01:48.999Z</time></trkpt><trkpt lat="-17.95518917403837" lon="122.22454430477562"><ele>21.0</ele><time>2026-04-24T07:01:49.999Z</time></trkpt><trkpt lat="-17.95507516345067" lon="122.22469022354758"><ele>21.0</ele><time>2026-04-24T07:01:50.999Z</time></trkpt><trkpt lat="-17.954958819509585" lon="122.22483973478273"><ele>21.0</ele><time>2026-04-24T07:01:51.999Z</time></trkpt><trkpt lat="-17.95484310825138" lon="122.22499158764134"><ele>20.333333333333332</ele><time>2026-04-24T07:01:52.999Z</time></trkpt><trkpt lat="-17.954725830782795" lon="122.22514677196001"><ele>19.666666666666664</ele><time>2026-04-24T07:01:53.999Z</time></trkpt><trkpt lat="-17.95461195654628" lon="122.22530106911101"><ele>19.0</ele><time>2026-04-24T07:01:54.999Z</time></trkpt><trkpt lat="-17.954509779426616" lon="122.22544994515951"><ele>19.0</ele><time>2026-04-24T07:01:55.999Z</time></trkpt><trkpt lat="-17.95442259745864" lon="122.22559468623838"><ele>19.0</ele><time>2026-04-24T07:01:56.999Z</time></trkpt><trkpt lat="-17.954340803211633" lon="122.22573016878653"><ele>19.0</ele><time>2026-04-24T07:01:57.999Z</time></trkpt><trkpt lat="-17.954268435633207" lon="122.22585493900999"><ele>19.0</ele><time>2026-04-24T07:01:58.999Z</time></trkpt><trkpt lat="-17.954207709771527" lon="122.2259682409061"><ele>19.0</ele><time>2026-04-24T07:01:59.999Z</time></trkpt><trkpt lat="-17.954152846925947" lon="122.22607152727082"><ele>19.0</ele><time>2026-04-24T07:02:00.999Z</time></trkpt><trkpt lat="-17.954092565512337" lon="122.22615270545177"><ele>19.0</ele><time>2026-04-24T07:02:01.999Z</time></trkpt><trkpt lat="-17.95402134716944" lon="122.226217857854"><ele>19.0</ele><time>2026-04-24T07:02:02.999Z</time></trkpt><trkpt lat="-17.95396166134795" lon="122.22628567685396"><ele>19.0</ele><time>2026-04-24T07:02:03.999Z</time></trkpt><trkpt lat="-17.953941762457745" lon="122.22636931613113"><ele>19.0</ele><time>2026-04-24T07:02:04.999Z</time></trkpt><trkpt lat="-17.953953261829998" lon="122.22646370729922"><ele>19.0</ele><time>2026-04-24T07:02:05.999Z</time></trkpt><trkpt lat="-17.95397380888075" lon="122.22657060020624"><ele>19.0</ele><time>2026-04-24T07:02:06.999Z</time></trkpt><trkpt lat="-17.953978077582306" lon="122.22669261627524"><ele>19.0</ele><time>2026-04-24T07:02:07.999Z</time></trkpt><trkpt lat="-17.95395708823774" lon="122.22682579044871"><ele>18.75</ele><time>2026-04-24T07:02:08.999Z</time></trkpt><trkpt lat="-17.9539315861973" lon="122.22697100746052"><ele>18.5</ele><time>2026-04-24T07:02:09.999Z</time></trkpt><trkpt lat="-17.953917960035866" lon="122.2271228527466"><ele>18.25</ele><time>2026-04-24T07:02:10.999Z</time></trkpt><trkpt lat="-17.95391556376476" lon="122.22727956509901"><ele>18.0</ele><time>2026-04-24T07:02:11.999Z</time></trkpt><trkpt lat="-17.953916318542667" lon="122.22743321249642"><ele>18.0</ele><time>2026-04-24T07:02:12.999Z</time></trkpt><trkpt lat="-17.953918959026712" lon="122.22757713976499"><ele>18.0</ele><time>2026-04-24T07:02:13.999Z</time></trkpt><trkpt lat="-17.953924691706394" lon="122.22770628230656"><ele>18.0</ele><time>2026-04-24T07:02:14.999Z</time></trkpt><trkpt lat="-17.953932465515166" lon="122.22783361599443"><ele>18.0</ele><time>2026-04-24T07:02:15.999Z</time></trkpt><trkpt lat="-17.95394114635601" lon="122.22794208500636"><ele>18.0</ele><time>2026-04-24T07:02:16.999Z</time></trkpt><trkpt lat="-17.953947735963293" lon="122.22803335536594"><ele>18.0</ele><time>2026-04-24T07:02:17.999Z</time></trkpt><trkpt lat="-17.953972303445525" lon="122.22810533149314"><ele>18.0</ele><time>2026-04-24T07:02:18.999Z</time></trkpt><trkpt lat="-17.953922177358898" lon="122.22818092126363"><ele>18.0</ele><time>2026-04-24T07:02:19.999Z</time></trkpt><trkpt lat="-17.95382908478162" lon="122.22825423547191"><ele>18.0</ele><time>2026-04-24T07:02:21.999Z</time></trkpt><trkpt lat="-17.953736296957583" lon="122.22825440271369"><ele>18.0</ele><time>2026-04-24T07:02:23.999Z</time></trkpt><trkpt lat="-17.953661469910447" lon="122.22826983198661"><ele>18.0</ele><time>2026-04-24T07:02:25.999Z</time></trkpt><trkpt lat="-17.953582754140747" lon="122.2281553122699"><ele>18.0</ele><time>2026-04-24T07:02:27.999Z</time></trkpt><trkpt lat="-17.95353733949476" lon="122.22809349296953"><ele>18.0</ele><time>2026-04-24T07:02:28.999Z</time></trkpt><trkpt lat="-17.953490257715334" lon="122.22803231437143"><ele>18.0</ele><time>2026-04-24T07:02:29.999Z</time></trkpt><trkpt lat="-17.953448359540918" lon="122.22797512329007"><ele>18.0</ele><time>2026-04-24T07:02:30.999Z</time></trkpt><trkpt lat="-17.95335763553224" lon="122.22790054937535"><ele>17.6</ele><time>2026-04-24T07:02:32.999Z</time></trkpt><trkpt lat="-17.953286284773867" lon="122.22789753358337"><ele>17.200000000000003</ele><time>2026-04-24T07:02:33.999Z</time></trkpt><trkpt lat="-17.953197867977888" lon="122.22791190200267"><ele>16.8</ele><time>2026-04-24T07:02:34.999Z</time></trkpt><trkpt lat="-17.953090448456077" lon="122.22793449994411"><ele>16.400000000000002</ele><time>2026-04-24T07:02:35.999Z</time></trkpt><trkpt lat="-17.952980325121477" lon="122.22795903038157"><ele>16.0</ele><time>2026-04-24T07:02:36.999Z</time></trkpt><trkpt lat="-17.952861546223698" lon="122.22798953327677"><ele>16.0</ele><time>2026-04-24T07:02:37.999Z</time></trkpt><trkpt lat="-17.952733709658425" lon="122.22799654625128"><ele>16.0</ele><time>2026-04-24T07:02:38.999Z</time></trkpt><trkpt lat="-17.95262791300044" lon="122.22803596439091"><ele>16.0</ele><time>2026-04-24T07:02:39.999Z</time></trkpt><trkpt lat="-17.9525304985602" lon="122.22803624118953"><ele>16.0</ele><time>2026-04-24T07:02:40.999Z</time></trkpt><trkpt lat="-17.95243470551641" lon="122.22805356022822"><ele>16.0</ele><time>2026-04-24T07:02:41.999Z</time></trkpt><trkpt lat="-17.952337134326303" lon="122.22808306152581"><ele>16.6</ele><time>2026-04-24T07:02:42.999Z</time></trkpt><trkpt lat="-17.952237581732657" lon="122.22810454917318"><ele>17.200000000000003</ele><time>2026-04-24T07:02:43.999Z</time></trkpt><trkpt lat="-17.952137432429083" lon="122.22812679506526"><ele>17.799999999999997</ele><time>2026-04-24T07:02:44.999Z</time></trkpt><trkpt lat="-17.95203813458423" lon="122.22814780318873"><ele>18.4</ele><time>2026-04-24T07:02:45.999Z</time></trkpt><trkpt lat="-17.951952041179474" lon="122.22816538080443"><ele>19.0</ele><time>2026-04-24T07:02:46.999Z</time></trkpt><trkpt lat="-17.951873359539295" lon="122.22818017605326"><ele>18.833333333333332</ele><time>2026-04-24T07:02:47.999Z</time></trkpt><trkpt lat="-17.95180106814781" lon="122.2281959967629"><ele>18.666666666666664</ele><time>2026-04-24T07:02:48.999Z</time></trkpt><trkpt lat="-17.951732888163725" lon="122.22820893017682"><ele>18.5</ele><time>2026-04-24T07:02:49.999Z</time></trkpt><trkpt lat="-17.95161087689392" lon="122.2282354283267"><ele>18.333333333333332</ele><time>2026-04-24T07:02:51.999Z</time></trkpt><trkpt lat="-17.951517417199927" lon="122.22823875256746"><ele>18.166666666666668</ele><time>2026-04-24T07:02:53.999Z</time></trkpt><trkpt lat="-17.95144676339969" lon="122.22825233525317"><ele>18.0</ele><time>2026-04-24T07:02:55.999Z</time></trkpt><trkpt lat="-17.95137667543093" lon="122.22827918732416"><ele>18.0</ele><time>2026-04-24T07:02:57.999Z</time></trkpt><trkpt lat="-17.951283207907316" lon="122.2282977072633"><ele>18.0</ele><time>2026-04-24T07:02:59.999Z</time></trkpt><trkpt lat="-17.951213192852187" lon="122.22831295648912"><ele>18.0</ele><time>2026-04-24T07:03:01.999Z</time></trkpt><trkpt lat="-17.951145827067304" lon="122.22832325975197"><ele>18.0</ele><time>2026-04-24T07:03:03.999Z</time></trkpt><trkpt lat="-17.951095456806932" lon="122.2284652376167"><ele>18.0</ele><time>2026-04-24T07:03:07.999Z</time></trkpt><trkpt lat="-17.951108462848836" lon="122.22853457682561"><ele>18.0</ele><time>2026-04-24T07:03:08.999Z</time></trkpt><trkpt lat="-17.951122613837345" lon="122.22860318316043"><ele>18.0</ele><time>2026-04-24T07:03:09.999Z</time></trkpt><trkpt lat="-17.951153700087715" lon="122.22871292997232"><ele>18.0</ele><time>2026-04-24T07:03:11.999Z</time></trkpt><trkpt lat="-17.951189553266595" lon="122.22879636548409"><ele>18.0</ele><time>2026-04-24T07:03:13.999Z</time></trkpt><trkpt lat="-17.95120254587558" lon="122.22887411624247"><ele>18.0</ele><time>2026-04-24T07:03:15.999Z</time></trkpt><trkpt lat="-17.95123504894767" lon="122.2289334485187"><ele>18.0</ele><time>2026-04-24T07:03:17.999Z</time></trkpt><trkpt lat="-17.95124260534836" lon="122.2290164457937"><ele>18.0</ele><time>2026-04-24T07:03:19.999Z</time></trkpt><trkpt lat="-17.951274075937395" lon="122.22907943763423"><ele>18.0</ele><time>2026-04-24T07:03:21.999Z</time></trkpt><trkpt lat="-17.95128193146185" lon="122.22914764931545"><ele>18.0</ele><time>2026-04-24T07:03:27.999Z</time></trkpt><trkpt lat="-17.95141354792188" lon="122.22916587945923"><ele>18.0</ele><time>2026-04-24T07:03:32.999Z</time></trkpt><trkpt lat="-17.951450860166307" lon="122.22925779039888"><ele>18.0</ele><time>2026-04-24T07:03:36.999Z</time></trkpt><trkpt lat="-17.95149106671955" lon="122.22913505547966"><ele>18.0</ele><time>2026-04-24T07:05:28.077Z</time></trkpt><trkpt lat="-17.95160406129853" lon="122.2288279564262"><ele>18.0</ele><time>2026-04-24T07:05:34.075Z</time></trkpt><trkpt lat="-17.951550011123704" lon="122.22878628899961"><ele>18.0</ele><time>2026-04-24T07:05:35.999Z</time></trkpt><trkpt lat="-17.951513169466097" lon="122.2286114942262"><ele>18.0</ele><time>2026-04-24T07:06:03.571Z</time></trkpt><trkpt lat="-17.951567977255916" lon="122.22854941870925"><ele>18.0</ele><time>2026-04-24T07:06:06.999Z</time></trkpt><trkpt lat="-17.95150048005622" lon="122.22846712354162"><ele>18.0</ele><time>2026-04-24T07:06:13.999Z</time></trkpt><trkpt lat="-17.951406653729716" lon="122.22837243728716"><ele>18.0</ele><time>2026-04-24T07:06:15.999Z</time></trkpt><trkpt lat="-17.951396127744918" lon="122.22849276150099"><ele>18.0</ele><time>2026-04-24T07:06:22.999Z</time></trkpt><trkpt lat="-17.951403626431652" lon="122.22839704054444"><ele>18.0</ele><time>2026-04-24T07:06:29.999Z</time></trkpt><trkpt lat="-17.951471645658078" lon="122.22840480868955"><ele>18.0</ele><time>2026-04-24T07:06:46.999Z</time></trkpt><trkpt lat="-17.951444422743396" lon="122.22847460095574"><ele>18.0</ele><time>2026-04-24T07:06:49.999Z</time></trkpt><trkpt lat="-17.9514212703117" lon="122.22839280691011"><ele>18.0</ele><time>2026-04-24T07:07:04.999Z</time></trkpt><trkpt lat="-17.95140535146167" lon="122.22846808673434"><ele>18.0</ele><time>2026-04-24T07:07:17.999Z</time></trkpt><trkpt lat="-17.951387852853784" lon="122.22835963655828"><ele>18.0</ele><time>2026-04-24T07:07:31.999Z</time></trkpt><trkpt lat="-17.95136479413618" lon="122.22828943305207"><ele>18.0</ele><time>2026-04-24T07:07:32.999Z</time></trkpt><trkpt lat="-17.951305434897517" lon="122.2281157322685"><ele>18.0</ele><time>2026-04-24T07:07:53.076Z</time></trkpt><trkpt lat="-17.95138016607667" lon="122.22805906243043"><ele>18.0</ele><time>2026-04-24T07:07:59.999Z</time></trkpt><trkpt lat="-17.951354337299797" lon="122.22813840980083"><ele>18.0</ele><time>2026-04-24T07:08:07.999Z</time></trkpt><trkpt lat="-17.951391495432752" lon="122.2282847547658"><ele>18.0</ele><time>2026-04-24T07:08:11.999Z</time></trkpt><trkpt lat="-17.951417299672418" lon="122.22835423597053"><ele>18.0</ele><time>2026-04-24T07:08:25.999Z</time></trkpt><trkpt lat="-17.95143712015112" lon="122.22842052528863"><ele>18.0</ele><time>2026-04-24T07:08:31.999Z</time></trkpt><trkpt lat="-17.95144398289437" lon="122.22849977907018"><ele>18.0</ele><time>2026-04-24T07:08:34.999Z</time></trkpt><trkpt lat="-17.95145249927932" lon="122.22841864750696"><ele>18.0</ele><time>2026-04-24T07:08:38.999Z</time></trkpt><trkpt lat="-17.951402767400854" lon="122.22836799170429"><ele>18.000000000000004</ele><time>2026-04-24T07:08:49.999Z</time></trkpt><trkpt lat="-17.951394312610915" lon="122.22829502895796"><ele>18.0</ele><time>2026-04-24T07:08:52.999Z</time></trkpt><trkpt lat="-17.95140852019575" lon="122.22836889992091"><ele>18.0</ele><time>2026-04-24T07:09:49.999Z</time></trkpt><trkpt lat="-17.951406936867862" lon="122.22845309552785"><ele>18.0</ele><time>2026-04-24T07:09:55Z</time></trkpt><trkpt lat="-17.951406517049175" lon="122.22838602276293"><ele>18.0</ele><time>2026-04-24T07:10:02.999Z</time></trkpt><trkpt lat="-17.951383037358603" lon="122.22831214697841"><ele>18.000000000000004</ele><time>2026-04-24T07:10:13.999Z</time></trkpt><trkpt lat="-17.951401844989917" lon="122.22838911956545"><ele>18.0</ele><time>2026-04-24T07:10:30.999Z</time></trkpt><trkpt lat="-17.951455274439038" lon="122.22844347455145"><ele>18.0</ele><time>2026-04-24T07:11:06.999Z</time></trkpt><trkpt lat="-17.95166765998134" lon="122.22839304473403"><ele>18.0</ele><time>2026-04-24T07:11:08.999Z</time></trkpt><trkpt lat="-17.951714640354236" lon="122.2284960152998"><ele>18.0</ele><time>2026-04-24T07:11:09.999Z</time></trkpt><trkpt lat="-17.951780407628632" lon="122.22851628475101"><ele>18.0</ele><time>2026-04-24T07:11:11.999Z</time></trkpt><trkpt lat="-17.95177040398866" lon="122.2286820850327"><ele>18.0</ele><time>2026-04-24T07:11:13.999Z</time></trkpt><trkpt lat="-17.951787752323394" lon="122.22875564625362"><ele>18.0</ele><time>2026-04-24T07:11:14.999Z</time></trkpt><trkpt lat="-17.951579924877596" lon="122.22856182829831"><ele>18.0</ele><time>2026-04-24T07:11:15.999Z</time></trkpt><trkpt lat="-17.951524430854754" lon="122.22850701588611"><ele>18.0</ele><time>2026-04-24T07:11:16.999Z</time></trkpt><trkpt lat="-17.95147870655779" lon="122.22861154501248"><ele>18.0</ele><time>2026-04-24T07:15:12.178Z</time></trkpt><trkpt lat="-17.95169632718716" lon="122.22872829633837"><ele>18.0</ele><time>2026-04-24T07:15:13.01Z</time></trkpt><trkpt lat="-17.951889308656586" lon="122.22893100691532"><ele>15.0</ele><time>2026-04-24T07:17:13.426Z</time></trkpt><trkpt lat="-17.951418212934424" lon="122.22913143481973"><ele>15.0</ele><time>2026-04-24T07:17:34.021Z</time></trkpt><trkpt lat="-17.951403860398813" lon="122.2292061080541"><ele>15.0</ele><time>2026-04-24T07:17:36.031Z</time></trkpt><trkpt lat="-17.951470926766916" lon="122.22921648476499"><ele>15.0</ele><time>2026-04-24T07:17:41.001Z</time></trkpt><trkpt lat="-17.95153253931853" lon="122.22925353487895"><ele>15.0</ele><time>2026-04-24T07:19:28.001Z</time></trkpt><trkpt lat="-17.951601184549656" lon="122.22926322078251"><ele>15.0</ele><time>2026-04-24T07:19:30.001Z</time></trkpt><trkpt lat="-17.951719980221586" lon="122.22922965454941"><ele>15.0</ele><time>2026-04-24T07:19:32.001Z</time></trkpt><trkpt lat="-17.95178571193467" lon="122.22921256065639"><ele>15.166666666666666</ele><time>2026-04-24T07:19:33.001Z</time></trkpt><trkpt lat="-17.951861326716326" lon="122.22919488881165"><ele>15.333333333333332</ele><time>2026-04-24T07:19:34.001Z</time></trkpt><trkpt lat="-17.951944687606034" lon="122.2291762916504"><ele>15.5</ele><time>2026-04-24T07:19:35.001Z</time></trkpt><trkpt lat="-17.952019616870697" lon="122.22914205942966"><ele>15.666666666666666</ele><time>2026-04-24T07:19:36.001Z</time></trkpt><trkpt lat="-17.952091030869653" lon="122.22914760728948"><ele>15.833333333333332</ele><time>2026-04-24T07:19:37.001Z</time></trkpt><trkpt lat="-17.95216347088231" lon="122.22913822922342"><ele>16.0</ele><time>2026-04-24T07:19:38.001Z</time></trkpt><trkpt lat="-17.952237708145756" lon="122.2291293628946"><ele>16.0</ele><time>2026-04-24T07:19:39.001Z</time></trkpt><trkpt lat="-17.952345519029937" lon="122.22911908622032"><ele>16.0</ele><time>2026-04-24T07:19:41.001Z</time></trkpt><trkpt lat="-17.95243459336284" lon="122.2290925655726"><ele>16.0</ele><time>2026-04-24T07:19:43.001Z</time></trkpt><trkpt lat="-17.95256461531564" lon="122.22906579082385"><ele>16.0</ele><time>2026-04-24T07:19:45.001Z</time></trkpt><trkpt lat="-17.952649139649825" lon="122.22904702263627"><ele>16.0</ele><time>2026-04-24T07:19:46.001Z</time></trkpt><trkpt lat="-17.952731744038807" lon="122.22903089640945"><ele>15.8</ele><time>2026-04-24T07:19:47.001Z</time></trkpt><trkpt lat="-17.95283980669948" lon="122.22900547406344"><ele>15.600000000000001</ele><time>2026-04-24T07:19:48.001Z</time></trkpt><trkpt lat="-17.952937573023497" lon="122.22898426243785"><ele>15.4</ele><time>2026-04-24T07:19:49.001Z</time></trkpt><trkpt lat="-17.953022316160936" lon="122.22897019463339"><ele>15.2</ele><time>2026-04-24T07:19:50.001Z</time></trkpt><trkpt lat="-17.953095436102643" lon="122.22895693895384"><ele>15.0</ele><time>2026-04-24T07:19:51.001Z</time></trkpt><trkpt lat="-17.95320183608163" lon="122.22893044286256"><ele>15.0</ele><time>2026-04-24T07:19:53.001Z</time></trkpt><trkpt lat="-17.953335961666575" lon="122.22889930588155"><ele>15.0</ele><time>2026-04-24T07:19:55.001Z</time></trkpt><trkpt lat="-17.953418319475976" lon="122.22888394492298"><ele>15.0</ele><time>2026-04-24T07:19:56.001Z</time></trkpt><trkpt lat="-17.95349613909751" lon="122.22886857380523"><ele>15.0</ele><time>2026-04-24T07:19:57.001Z</time></trkpt><trkpt lat="-17.95359039912163" lon="122.22870145680727"><ele>15.0</ele><time>2026-04-24T07:19:59.001Z</time></trkpt><trkpt lat="-17.9536612340121" lon="122.22868999508174"><ele>15.0</ele><time>2026-04-24T07:20:01.001Z</time></trkpt><trkpt lat="-17.953685646010776" lon="122.22856335368465"><ele>15.0</ele><time>2026-04-24T07:20:05.001Z</time></trkpt><trkpt lat="-17.953644396552658" lon="122.22843670084406"><ele>15.0</ele><time>2026-04-24T07:20:07.001Z</time></trkpt><trkpt lat="-17.953636404729167" lon="122.22836537595643"><ele>15.0</ele><time>2026-04-24T07:20:08.001Z</time></trkpt><trkpt lat="-17.953620053858153" lon="122.22828053243819"><ele>15.0</ele><time>2026-04-24T07:20:10.001Z</time></trkpt><trkpt lat="-17.95362408034269" lon="122.22819709267954"><ele>15.0</ele><time>2026-04-24T07:20:11.001Z</time></trkpt><trkpt lat="-17.953453075384477" lon="122.22829110603462"><ele>15.0</ele><time>2026-04-24T07:20:12.001Z</time></trkpt><trkpt lat="-17.95337078658096" lon="122.2283085414121"><ele>15.0</ele><time>2026-04-24T07:20:14.001Z</time></trkpt><trkpt lat="-17.953363934843814" lon="122.22821728710623"><ele>15.0</ele><time>2026-04-24T07:20:33.001Z</time></trkpt><trkpt lat="-17.953364124244228" lon="122.22813706784494"><ele>15.0</ele><time>2026-04-24T07:27:46Z</time></trkpt><trkpt lat="-17.953325614521212" lon="122.2280744137033"><ele>15.0</ele><time>2026-04-24T07:27:57Z</time></trkpt><trkpt lat="-17.95338962749816" lon="122.22811695907241"><ele>15.0</ele><time>2026-04-24T07:29:23Z</time></trkpt><trkpt lat="-17.95335581231057" lon="122.22819230212377"><ele>15.0</ele><time>2026-04-24T07:29:27Z</time></trkpt><trkpt lat="-17.953239044812204" lon="122.22815648998848"><ele>15.0</ele><time>2026-04-24T07:33:41Z</time></trkpt><trkpt lat="-17.953148626077834" lon="122.22816251048738"><ele>15.0</ele><time>2026-04-24T07:33:43Z</time></trkpt><trkpt lat="-17.953092818349475" lon="122.2282442760243"><ele>15.0</ele><time>2026-04-24T07:33:46Z</time></trkpt><trkpt lat="-17.95311041193457" lon="122.22836861307353"><ele>15.0</ele><time>2026-04-24T07:33:48Z</time></trkpt><trkpt lat="-17.953122964780903" lon="122.2284413438348"><ele>15.0</ele><time>2026-04-24T07:33:49Z</time></trkpt><trkpt lat="-17.953144749824016" lon="122.22855984683406"><ele>15.0</ele><time>2026-04-24T07:33:51Z</time></trkpt><trkpt lat="-17.953155187011205" lon="122.22862940472625"><ele>15.0</ele><time>2026-04-24T07:33:53Z</time></trkpt><trkpt lat="-17.95316113566808" lon="122.22869718231793"><ele>15.0</ele><time>2026-04-24T07:33:58Z</time></trkpt><trkpt lat="-17.953179841901886" lon="122.22880688127498"><ele>15.0</ele><time>2026-04-24T07:34:00Z</time></trkpt><trkpt lat="-17.953189115168716" lon="122.22891741691458"><ele>15.0</ele><time>2026-04-24T07:34:02Z</time></trkpt><trkpt lat="-17.95321531301541" lon="122.22902706828262"><ele>15.0</ele><time>2026-04-24T07:34:04Z</time></trkpt><trkpt lat="-17.953237886763283" lon="122.22913186450074"><ele>15.0</ele><time>2026-04-24T07:34:06Z</time></trkpt><trkpt lat="-17.953242607368615" lon="122.22921622456009"><ele>15.0</ele><time>2026-04-24T07:34:08Z</time></trkpt><trkpt lat="-17.953269675119795" lon="122.22927620726261"><ele>15.0</ele><time>2026-04-24T07:34:14Z</time></trkpt><trkpt lat="-17.953361283647638" lon="122.2293048803975"><ele>15.0</ele><time>2026-04-24T07:34:16Z</time></trkpt><trkpt lat="-17.953434524198403" lon="122.22928986471561"><ele>15.0</ele><time>2026-04-24T07:34:17Z</time></trkpt><trkpt lat="-17.95350581082045" lon="122.229280178953"><ele>15.0</ele><time>2026-04-24T07:34:18Z</time></trkpt><trkpt lat="-17.95356638184254" lon="122.22925743249777"><ele>15.0</ele><time>2026-04-24T07:34:19Z</time></trkpt><trkpt lat="-17.95368277083684" lon="122.22923765656859"><ele>15.0</ele><time>2026-04-24T07:34:21Z</time></trkpt><trkpt lat="-17.95374949713511" lon="122.22928094423051"><ele>15.4</ele><time>2026-04-24T07:34:22Z</time></trkpt><trkpt lat="-17.953855413445474" lon="122.22923579347317"><ele>15.8</ele><time>2026-04-24T07:34:24Z</time></trkpt><trkpt lat="-17.953930627290532" lon="122.22921369881465"><ele>16.2</ele><time>2026-04-24T07:34:25Z</time></trkpt><trkpt lat="-17.954030103543786" lon="122.22918636373802"><ele>16.6</ele><time>2026-04-24T07:34:27Z</time></trkpt><trkpt lat="-17.954105487332953" lon="122.2291990248343"><ele>17.0</ele><time>2026-04-24T07:34:30Z</time></trkpt><trkpt lat="-17.954198379152473" lon="122.22928660095907"><ele>17.0</ele><time>2026-04-24T07:34:32Z</time></trkpt><trkpt lat="-17.954232174446833" lon="122.22935624750818"><ele>17.0</ele><time>2026-04-24T07:34:33Z</time></trkpt><trkpt lat="-17.954257041829806" lon="122.22943983092861"><ele>17.0</ele><time>2026-04-24T07:34:34Z</time></trkpt><trkpt lat="-17.954305268754283" lon="122.22953413802584"><ele>17.0</ele><time>2026-04-24T07:34:35Z</time></trkpt><trkpt lat="-17.954305397743997" lon="122.22966097690703"><ele>17.0</ele><time>2026-04-24T07:34:36Z</time></trkpt><trkpt lat="-17.95432771161398" lon="122.22978211522606"><ele>16.0</ele><time>2026-04-24T07:34:37Z</time></trkpt><trkpt lat="-17.954350009810078" lon="122.22991683667331"><ele>15.0</ele><time>2026-04-24T07:34:38Z</time></trkpt><trkpt lat="-17.954376880792548" lon="122.23006077489352"><ele>14.0</ele><time>2026-04-24T07:34:39Z</time></trkpt><trkpt lat="-17.9544024448528" lon="122.23021086217555"><ele>13.0</ele><time>2026-04-24T07:34:40Z</time></trkpt><trkpt lat="-17.954427535687717" lon="122.23037578545632"><ele>13.0</ele><time>2026-04-24T07:34:41Z</time></trkpt><trkpt lat="-17.95444428080349" lon="122.23054611314197"><ele>13.0</ele><time>2026-04-24T07:34:42Z</time></trkpt><trkpt lat="-17.95445403702006" lon="122.23073285157945"><ele>13.0</ele><time>2026-04-24T07:34:43Z</time></trkpt><trkpt lat="-17.95448723857845" lon="122.23093507493608"><ele>13.666666666666666</ele><time>2026-04-24T07:34:44Z</time></trkpt><trkpt lat="-17.954520856754087" lon="122.23113826172985"><ele>14.333333333333332</ele><time>2026-04-24T07:34:45Z</time></trkpt><trkpt lat="-17.954556268457804" lon="122.23134746060119"><ele>15.0</ele><time>2026-04-24T07:34:46Z</time></trkpt><trkpt lat="-17.95459465164747" lon="122.23157021867604"><ele>15.0</ele><time>2026-04-24T07:34:47Z</time></trkpt><trkpt lat="-17.95463246420409" lon="122.23178966497743"><ele>15.0</ele><time>2026-04-24T07:34:48Z</time></trkpt><trkpt lat="-17.95467064573365" lon="122.23199812966199"><ele>15.0</ele><time>2026-04-24T07:34:49Z</time></trkpt><trkpt lat="-17.95470633306189" lon="122.23220087715131"><ele>15.333333333333332</ele><time>2026-04-24T07:34:50Z</time></trkpt><trkpt lat="-17.954740282352716" lon="122.23239604312099"><ele>15.666666666666666</ele><time>2026-04-24T07:34:51Z</time></trkpt><trkpt lat="-17.954770658951364" lon="122.23257067057288"><ele>16.0</ele><time>2026-04-24T07:34:52Z</time></trkpt><trkpt lat="-17.954797997970147" lon="122.23272783573834"><ele>16.0</ele><time>2026-04-24T07:34:53Z</time></trkpt><trkpt lat="-17.95482006942377" lon="122.23285471899078"><ele>16.0</ele><time>2026-04-24T07:34:54Z</time></trkpt><trkpt lat="-17.95484175567453" lon="122.23297938780979"><ele>16.0</ele><time>2026-04-24T07:34:55Z</time></trkpt><trkpt lat="-17.954863731685947" lon="122.23310572235728"><ele>16.0</ele><time>2026-04-24T07:34:56Z</time></trkpt><trkpt lat="-17.95488801117923" lon="122.23324379697505"><ele>15.5</ele><time>2026-04-24T07:34:57Z</time></trkpt><trkpt lat="-17.954912257014158" lon="122.23338186354057"><ele>15.0</ele><time>2026-04-24T07:34:58Z</time></trkpt><trkpt lat="-17.954930195098196" lon="122.23351610386614"><ele>14.5</ele><time>2026-04-24T07:34:59Z</time></trkpt><trkpt lat="-17.954964652583346" lon="122.23363973667834"><ele>14.0</ele><time>2026-04-24T07:35:00Z</time></trkpt><trkpt lat="-17.9550009187205" lon="122.23376967955663"><ele>14.0</ele><time>2026-04-24T07:35:01Z</time></trkpt><trkpt lat="-17.955032075244983" lon="122.23390227133746"><ele>14.0</ele><time>2026-04-24T07:35:02Z</time></trkpt><trkpt lat="-17.95506795364792" lon="122.23403532247535"><ele>14.0</ele><time>2026-04-24T07:35:03Z</time></trkpt><trkpt lat="-17.955090938723274" lon="122.23416853245877"><ele>14.0</ele><time>2026-04-24T07:35:04Z</time></trkpt><trkpt lat="-17.95511242608848" lon="122.23429381004192"><ele>14.0</ele><time>2026-04-24T07:35:05Z</time></trkpt><trkpt lat="-17.95512713878012" lon="122.23441536203732"><ele>14.0</ele><time>2026-04-24T07:35:06Z</time></trkpt><trkpt lat="-17.955146758902647" lon="122.234538879924"><ele>14.0</ele><time>2026-04-24T07:35:07Z</time></trkpt><trkpt lat="-17.955164121137397" lon="122.23466526703538"><ele>14.0</ele><time>2026-04-24T07:35:08Z</time></trkpt><trkpt lat="-17.955188374851726" lon="122.23479249934958"><ele>14.0</ele><time>2026-04-24T07:35:09Z</time></trkpt><trkpt lat="-17.95520671841443" lon="122.23491297650686"><ele>13.999999999999998</ele><time>2026-04-24T07:35:10Z</time></trkpt><trkpt lat="-17.95522676379613" lon="122.2350254661246"><ele>13.999999999999998</ele><time>2026-04-24T07:35:11Z</time></trkpt><trkpt lat="-17.95524493241008" lon="122.23513343088925"><ele>14.0</ele><time>2026-04-24T07:35:12Z</time></trkpt><trkpt lat="-17.95526182540854" lon="122.23523960164282"><ele>14.0</ele><time>2026-04-24T07:35:13Z</time></trkpt><trkpt lat="-17.955276599077365" lon="122.23535204674094"><ele>14.0</ele><time>2026-04-24T07:35:14Z</time></trkpt><trkpt lat="-17.955292580059368" lon="122.2354687342514"><ele>13.999999999999998</ele><time>2026-04-24T07:35:15Z</time></trkpt><trkpt lat="-17.955309439253735" lon="122.235585737115"><ele>13.999999999999998</ele><time>2026-04-24T07:35:16Z</time></trkpt><trkpt lat="-17.955329521429057" lon="122.23569706169039"><ele>14.0</ele><time>2026-04-24T07:35:17Z</time></trkpt><trkpt lat="-17.955348333572292" lon="122.23581231497921"><ele>14.0</ele><time>2026-04-24T07:35:18Z</time></trkpt><trkpt lat="-17.955370058256335" lon="122.23592862540232"><ele>13.833333333333334</ele><time>2026-04-24T07:35:19Z</time></trkpt><trkpt lat="-17.95538708976021" lon="122.23603436479142"><ele>13.666666666666668</ele><time>2026-04-24T07:35:20Z</time></trkpt><trkpt lat="-17.955405704773217" lon="122.23613067873387"><ele>13.5</ele><time>2026-04-24T07:35:21Z</time></trkpt><trkpt lat="-17.955424766757975" lon="122.23621759405073"><ele>13.333333333333332</ele><time>2026-04-24T07:35:22Z</time></trkpt><trkpt lat="-17.955440672516005" lon="122.23630604291637"><ele>13.166666666666666</ele><time>2026-04-24T07:35:23Z</time></trkpt><trkpt lat="-17.955456668701718" lon="122.23639143763837"><ele>13.0</ele><time>2026-04-24T07:35:24Z</time></trkpt><trkpt lat="-17.955470963546876" lon="122.23646444139014"><ele>13.0</ele><time>2026-04-24T07:35:25Z</time></trkpt><trkpt lat="-17.955481509508736" lon="122.23652989640455"><ele>13.0</ele><time>2026-04-24T07:35:26Z</time></trkpt><trkpt lat="-17.95546529174343" lon="122.23663741888568"><ele>13.0</ele><time>2026-04-24T07:35:28Z</time></trkpt><trkpt lat="-17.955357724250035" lon="122.23673420714992"><ele>13.0</ele><time>2026-04-24T07:35:30Z</time></trkpt><trkpt lat="-17.955270248431372" lon="122.23677205058661"><ele>13.0</ele><time>2026-04-24T07:35:31Z</time></trkpt><trkpt lat="-17.955173628347264" lon="122.23680201173198"><ele>13.0</ele><time>2026-04-24T07:35:32Z</time></trkpt><trkpt lat="-17.95505029246799" lon="122.23682582405624"><ele>13.0</ele><time>2026-04-24T07:35:33Z</time></trkpt><trkpt lat="-17.954918370447793" lon="122.23684952200789"><ele>13.0</ele><time>2026-04-24T07:35:34Z</time></trkpt><trkpt lat="-17.954769344347547" lon="122.23687747023796"><ele>13.0</ele><time>2026-04-24T07:35:35Z</time></trkpt><trkpt lat="-17.95461674621525" lon="122.23690560106972"><ele>12.0</ele><time>2026-04-24T07:35:36Z</time></trkpt><trkpt lat="-17.954463157985067" lon="122.23693330125869"><ele>11.0</ele><time>2026-04-24T07:35:37Z</time></trkpt><trkpt lat="-17.954305723677844" lon="122.23696116626334"><ele>10.0</ele><time>2026-04-24T07:35:38Z</time></trkpt><trkpt lat="-17.954162695760296" lon="122.23698699488361"><ele>10.0</ele><time>2026-04-24T07:35:39Z</time></trkpt><trkpt lat="-17.954018987262444" lon="122.23701486644221"><ele>10.0</ele><time>2026-04-24T07:35:40Z</time></trkpt><trkpt lat="-17.9538968933958" lon="122.23704390670623"><ele>10.0</ele><time>2026-04-24T07:35:41Z</time></trkpt><trkpt lat="-17.95376344351607" lon="122.23708924051931"><ele>10.0</ele><time>2026-04-24T07:35:42Z</time></trkpt><trkpt lat="-17.953627798015923" lon="122.23715655073785"><ele>10.0</ele><time>2026-04-24T07:35:43Z</time></trkpt><trkpt lat="-17.95349578105302" lon="122.23724703848704"><ele>10.0</ele><time>2026-04-24T07:35:44Z</time></trkpt><trkpt lat="-17.95336818829552" lon="122.23735349832444"><ele>10.0</ele><time>2026-04-24T07:35:45Z</time></trkpt><trkpt lat="-17.953258886719517" lon="122.23746590689039"><ele>10.0</ele><time>2026-04-24T07:35:46Z</time></trkpt><trkpt lat="-17.953161311730273" lon="122.2375806195063"><ele>10.0</ele><time>2026-04-24T07:35:47Z</time></trkpt><trkpt lat="-17.953073308689888" lon="122.2376855649179"><ele>10.0</ele><time>2026-04-24T07:35:48Z</time></trkpt><trkpt lat="-17.952989127635856" lon="122.23778110006654"><ele>10.0</ele><time>2026-04-24T07:35:49Z</time></trkpt><trkpt lat="-17.95291228428569" lon="122.23786298759315"><ele>10.0</ele><time>2026-04-24T07:35:50Z</time></trkpt><trkpt lat="-17.952850096563385" lon="122.23793710365862"><ele>10.0</ele><time>2026-04-24T07:35:51Z</time></trkpt><trkpt lat="-17.952810222599442" lon="122.23801544263812"><ele>10.0</ele><time>2026-04-24T07:35:52Z</time></trkpt><trkpt lat="-17.952794390681696" lon="122.23810478060699"><ele>10.0</ele><time>2026-04-24T07:35:53Z</time></trkpt><trkpt lat="-17.952804484719024" lon="122.23819861451976"><ele>10.0</ele><time>2026-04-24T07:35:54Z</time></trkpt><trkpt lat="-17.952844463461695" lon="122.23828714133316"><ele>10.0</ele><time>2026-04-24T07:35:55Z</time></trkpt><trkpt lat="-17.952910797658856" lon="122.23837314712834"><ele>10.25</ele><time>2026-04-24T07:35:56Z</time></trkpt><trkpt lat="-17.952996626967398" lon="122.23844351272157"><ele>10.5</ele><time>2026-04-24T07:35:57Z</time></trkpt><trkpt lat="-17.953095166437304" lon="122.23850857199444"><ele>10.75</ele><time>2026-04-24T07:35:58Z</time></trkpt><trkpt lat="-17.953195132203017" lon="122.2385827139589"><ele>11.0</ele><time>2026-04-24T07:35:59Z</time></trkpt><trkpt lat="-17.95329538448221" lon="122.23866176105041"><ele>11.0</ele><time>2026-04-24T07:36:00Z</time></trkpt><trkpt lat="-17.953387068966023" lon="122.238736163464"><ele>11.0</ele><time>2026-04-24T07:36:01Z</time></trkpt><trkpt lat="-17.953470800659947" lon="122.23880127271053"><ele>11.0</ele><time>2026-04-24T07:36:02Z</time></trkpt><trkpt lat="-17.953546515513747" lon="122.2388609471386"><ele>11.0</ele><time>2026-04-24T07:36:03Z</time></trkpt><trkpt lat="-17.953608846766596" lon="122.23891357821627"><ele>11.0</ele><time>2026-04-24T07:36:04Z</time></trkpt><trkpt lat="-17.953662971740307" lon="122.23896985340781"><ele>10.666666666666666</ele><time>2026-04-24T07:36:05Z</time></trkpt><trkpt lat="-17.95370683873834" lon="122.23902687703917"><ele>10.333333333333332</ele><time>2026-04-24T07:36:06Z</time></trkpt><trkpt lat="-17.95374787806899" lon="122.23907765125357"><ele>10.0</ele><time>2026-04-24T07:36:07Z</time></trkpt><trkpt lat="-17.953772421644416" lon="122.23914691407269"><ele>9.666666666666666</ele><time>2026-04-24T07:36:08Z</time></trkpt><trkpt lat="-17.953791578087017" lon="122.23922241285041"><ele>9.333333333333334</ele><time>2026-04-24T07:36:09Z</time></trkpt><trkpt lat="-17.953670421769452" lon="122.23933524201726"><ele>9.0</ele><time>2026-04-24T07:36:10Z</time></trkpt><trkpt lat="-17.953594554385237" lon="122.23941721991905"><ele>9.0</ele><time>2026-04-24T07:36:11Z</time></trkpt><trkpt lat="-17.953521515811033" lon="122.23951676015895"><ele>9.0</ele><time>2026-04-24T07:36:12Z</time></trkpt><trkpt lat="-17.95343632209649" lon="122.2396314128509"><ele>9.0</ele><time>2026-04-24T07:36:13Z</time></trkpt><trkpt lat="-17.953343681099415" lon="122.23975463437002"><ele>9.0</ele><time>2026-04-24T07:36:14Z</time></trkpt><trkpt lat="-17.95325722993314" lon="122.23987918518648"><ele>8.8</ele><time>2026-04-24T07:36:15Z</time></trkpt><trkpt lat="-17.953179652309057" lon="122.23998193989452"><ele>8.600000000000001</ele><time>2026-04-24T07:36:16Z</time></trkpt><trkpt lat="-17.953114516121563" lon="122.24006034996367"><ele>8.4</ele><time>2026-04-24T07:36:17Z</time></trkpt><trkpt lat="-17.953062929479447" lon="122.24011547773226"><ele>8.200000000000001</ele><time>2026-04-24T07:36:18Z</time></trkpt><trkpt lat="-17.9529764860245" lon="122.24018517215355"><ele>8.0</ele><time>2026-04-24T07:36:20Z</time></trkpt><trkpt lat="-17.95287818350289" lon="122.24023799220464"><ele>8.0</ele><time>2026-04-24T07:36:22Z</time></trkpt><trkpt lat="-17.952759796309635" lon="122.2402600237086"><ele>8.0</ele><time>2026-04-24T07:36:24Z</time></trkpt><trkpt lat="-17.952690141889867" lon="122.24025865385343"><ele>8.0</ele><time>2026-04-24T07:36:25Z</time></trkpt><trkpt lat="-17.952611333343448" lon="122.2402381099413"><ele>8.0</ele><time>2026-04-24T07:36:26Z</time></trkpt><trkpt lat="-17.9524904563371" lon="122.24021073077131"><ele>8.0</ele><time>2026-04-24T07:36:28Z</time></trkpt><trkpt lat="-17.95241470759991" lon="122.24018151570853"><ele>7.833333333333333</ele><time>2026-04-24T07:36:29Z</time></trkpt><trkpt lat="-17.95233750464952" lon="122.24014836219294"><ele>7.666666666666666</ele><time>2026-04-24T07:36:30Z</time></trkpt><trkpt lat="-17.952265730107165" lon="122.24011973528978"><ele>7.5</ele><time>2026-04-24T07:36:31Z</time></trkpt><trkpt lat="-17.952170562050245" lon="122.24007852104883"><ele>7.333333333333334</ele><time>2026-04-24T07:36:33Z</time></trkpt><trkpt lat="-17.95208541061883" lon="122.24003907490876"><ele>7.166666666666667</ele><time>2026-04-24T07:36:35Z</time></trkpt><trkpt lat="-17.952020871950637" lon="122.24001255831905"><ele>7.0</ele><time>2026-04-24T07:36:36Z</time></trkpt><trkpt lat="-17.951941064519787" lon="122.23998051642938"><ele>7.0</ele><time>2026-04-24T07:36:37Z</time></trkpt><trkpt lat="-17.95185800193039" lon="122.23991614807063"><ele>6.999999999999999</ele><time>2026-04-24T07:36:38Z</time></trkpt><trkpt lat="-17.951755641098902" lon="122.23988421159956"><ele>6.999999999999999</ele><time>2026-04-24T07:36:39Z</time></trkpt><trkpt lat="-17.951662061385388" lon="122.239839131783"><ele>7.0</ele><time>2026-04-24T07:36:40Z</time></trkpt><trkpt lat="-17.95156817471438" lon="122.23979165175872"><ele>7.0</ele><time>2026-04-24T07:36:41Z</time></trkpt><trkpt lat="-17.95146907227115" lon="122.23974206164297"><ele>6.75</ele><time>2026-04-24T07:36:42Z</time></trkpt><trkpt lat="-17.951363163461266" lon="122.23969131607782"><ele>6.5</ele><time>2026-04-24T07:36:43Z</time></trkpt><trkpt lat="-17.951248476693042" lon="122.2396342602689"><ele>6.25</ele><time>2026-04-24T07:36:44Z</time></trkpt><trkpt lat="-17.9511359856071" lon="122.23957804231824"><ele>6.0</ele><time>2026-04-24T07:36:45Z</time></trkpt><trkpt lat="-17.951024973208728" lon="122.23952189382044"><ele>6.0</ele><time>2026-04-24T07:36:46Z</time></trkpt><trkpt lat="-17.950930335520148" lon="122.23947568944286"><ele>6.0</ele><time>2026-04-24T07:36:47Z</time></trkpt><trkpt lat="-17.950825573358145" lon="122.2394247144829"><ele>6.0</ele><time>2026-04-24T07:36:48Z</time></trkpt><trkpt lat="-17.950716372302796" lon="122.23937178494228"><ele>6.0</ele><time>2026-04-24T07:36:49Z</time></trkpt><trkpt lat="-17.95058194276464" lon="122.23930640958812"><ele>7.0</ele><time>2026-04-24T07:36:50Z</time></trkpt><trkpt lat="-17.950487555058185" lon="122.23924158384462"><ele>8.0</ele><time>2026-04-24T07:36:51Z</time></trkpt><trkpt lat="-17.950371418862424" lon="122.23918394414432"><ele>9.0</ele><time>2026-04-24T07:36:52Z</time></trkpt><trkpt lat="-17.950246474030074" lon="122.23914118051995"><ele>10.0</ele><time>2026-04-24T07:36:53Z</time></trkpt><trkpt lat="-17.95013073952184" lon="122.23908346580019"><ele>9.25</ele><time>2026-04-24T07:36:54Z</time></trkpt><trkpt lat="-17.950013136433476" lon="122.23902676419846"><ele>8.5</ele><time>2026-04-24T07:36:55Z</time></trkpt><trkpt lat="-17.949893185080366" lon="122.23895140704911"><ele>7.75</ele><time>2026-04-24T07:36:56Z</time></trkpt><trkpt lat="-17.949769563753918" lon="122.23890946795133"><ele>7.0</ele><time>2026-04-24T07:36:57Z</time></trkpt><trkpt lat="-17.949653972219767" lon="122.23885288868811"><ele>6.8</ele><time>2026-04-24T07:36:58Z</time></trkpt><trkpt lat="-17.949545698990356" lon="122.23879995496654"><ele>6.6</ele><time>2026-04-24T07:36:59Z</time></trkpt><trkpt lat="-17.949448200585557" lon="122.23875009872144"><ele>6.3999999999999995</ele><time>2026-04-24T07:37:00Z</time></trkpt><trkpt lat="-17.949358949850904" lon="122.23870582890916"><ele>6.199999999999999</ele><time>2026-04-24T07:37:01Z</time></trkpt><trkpt lat="-17.949277725782196" lon="122.23866708408165"><ele>6.0</ele><time>2026-04-24T07:37:02Z</time></trkpt><trkpt lat="-17.949187996027067" lon="122.23862680956057"><ele>6.4</ele><time>2026-04-24T07:37:03Z</time></trkpt><trkpt lat="-17.949087811031767" lon="122.23857594492307"><ele>6.8</ele><time>2026-04-24T07:37:04Z</time></trkpt><trkpt lat="-17.949018535049955" lon="122.23854132742328"><ele>7.200000000000001</ele><time>2026-04-24T07:37:05Z</time></trkpt><trkpt lat="-17.948939267010967" lon="122.2384845931863"><ele>7.6000000000000005</ele><time>2026-04-24T07:37:06Z</time></trkpt><trkpt lat="-17.948857723134598" lon="122.23844421980507"><ele>8.0</ele><time>2026-04-24T07:37:07Z</time></trkpt><trkpt lat="-17.948772138246262" lon="122.23840160380476"><ele>7.999999999999999</ele><time>2026-04-24T07:37:08Z</time></trkpt><trkpt lat="-17.948701117762248" lon="122.23838180518074"><ele>8.0</ele><time>2026-04-24T07:37:09Z</time></trkpt><trkpt lat="-17.94864066070595" lon="122.23834453057805"><ele>8.0</ele><time>2026-04-24T07:37:10Z</time></trkpt><trkpt lat="-17.948580810486042" lon="122.23831354541815"><ele>8.0</ele><time>2026-04-24T07:37:11Z</time></trkpt><trkpt lat="-17.948517761551077" lon="122.23828748425728"><ele>7.999999999999999</ele><time>2026-04-24T07:37:12Z</time></trkpt><trkpt lat="-17.94840444336868" lon="122.2382269059758"><ele>8.0</ele><time>2026-04-24T07:37:14Z</time></trkpt><trkpt lat="-17.948336865617218" lon="122.2381906177918"><ele>7.833333333333333</ele><time>2026-04-24T07:37:15Z</time></trkpt><trkpt lat="-17.94825727522951" lon="122.23814813906243"><ele>7.666666666666666</ele><time>2026-04-24T07:37:16Z</time></trkpt><trkpt lat="-17.948172743390156" lon="122.23810633579843"><ele>7.5</ele><time>2026-04-24T07:37:17Z</time></trkpt><trkpt lat="-17.948092036706466" lon="122.2380665249738"><ele>7.333333333333334</ele><time>2026-04-24T07:37:18Z</time></trkpt><trkpt lat="-17.948025558199745" lon="122.23803533078913"><ele>7.166666666666667</ele><time>2026-04-24T07:37:19Z</time></trkpt><trkpt lat="-17.947951108784054" lon="122.2379997072666"><ele>7.0</ele><time>2026-04-24T07:37:20Z</time></trkpt><trkpt lat="-17.947870035961305" lon="122.23795839357275"><ele>7.000000000000001</ele><time>2026-04-24T07:37:21Z</time></trkpt><trkpt lat="-17.94778803573398" lon="122.23791594321733"><ele>7.0</ele><time>2026-04-24T07:37:22Z</time></trkpt><trkpt lat="-17.947713596514" lon="122.23788101462533"><ele>7.0</ele><time>2026-04-24T07:37:23Z</time></trkpt><trkpt lat="-17.94764533347849" lon="122.23784971585131"><ele>7.0</ele><time>2026-04-24T07:37:24Z</time></trkpt><trkpt lat="-17.94757365695185" lon="122.23781741250487"><ele>7.000000000000001</ele><time>2026-04-24T07:37:25Z</time></trkpt><trkpt lat="-17.947488334721594" lon="122.23777828362596"><ele>7.0</ele><time>2026-04-24T07:37:26Z</time></trkpt><trkpt lat="-17.947385931677786" lon="122.23773163136724"><ele>7.25</ele><time>2026-04-24T07:37:27Z</time></trkpt><trkpt lat="-17.947263011016503" lon="122.23768260384479"><ele>7.5</ele><time>2026-04-24T07:37:28Z</time></trkpt><trkpt lat="-17.94714382481611" lon="122.2376388114923"><ele>7.75</ele><time>2026-04-24T07:37:29Z</time></trkpt><trkpt lat="-17.947029349959518" lon="122.2375959747314"><ele>8.0</ele><time>2026-04-24T07:37:30Z</time></trkpt><trkpt lat="-17.946925954448623" lon="122.23755562265308"><ele>8.0</ele><time>2026-04-24T07:37:31Z</time></trkpt><trkpt lat="-17.94682702642017" lon="122.23751895251675"><ele>8.0</ele><time>2026-04-24T07:37:32Z</time></trkpt><trkpt lat="-17.94674004053383" lon="122.23748633804959"><ele>8.0</ele><time>2026-04-24T07:37:33Z</time></trkpt><trkpt lat="-17.946650284063743" lon="122.23745825593743"><ele>8.0</ele><time>2026-04-24T07:37:34Z</time></trkpt><trkpt lat="-17.946574549753333" lon="122.23742844251241"><ele>8.0</ele><time>2026-04-24T07:37:35Z</time></trkpt><trkpt lat="-17.94648182478532" lon="122.2374002569876"><ele>8.0</ele><time>2026-04-24T07:37:36Z</time></trkpt><trkpt lat="-17.94638974787078" lon="122.23737801227452"><ele>8.0</ele><time>2026-04-24T07:37:37Z</time></trkpt><trkpt lat="-17.946290133387684" lon="122.23734829312569"><ele>8.0</ele><time>2026-04-24T07:37:38Z</time></trkpt><trkpt lat="-17.946191983317693" lon="122.23731543881782"><ele>8.0</ele><time>2026-04-24T07:37:39Z</time></trkpt><trkpt lat="-17.94609748795815" lon="122.23728295741705"><ele>8.0</ele><time>2026-04-24T07:37:40Z</time></trkpt><trkpt lat="-17.94601632676828" lon="122.23725124644628"><ele>8.0</ele><time>2026-04-24T07:37:41Z</time></trkpt><trkpt lat="-17.945936270693363" lon="122.23723028750531"><ele>8.0</ele><time>2026-04-24T07:37:42Z</time></trkpt><trkpt lat="-17.945863866545118" lon="122.2372152874091"><ele>8.0</ele><time>2026-04-24T07:37:43Z</time></trkpt><trkpt lat="-17.94579843868668" lon="122.23720226827369"><ele>8.0</ele><time>2026-04-24T07:37:44Z</time></trkpt><trkpt lat="-17.94568526064935" lon="122.23716978405722"><ele>8.0</ele><time>2026-04-24T07:37:46Z</time></trkpt><trkpt lat="-17.94557036724697" lon="122.23710663406821"><ele>8.0</ele><time>2026-04-24T07:37:48Z</time></trkpt><trkpt lat="-17.945464205524388" lon="122.23704627656127"><ele>8.0</ele><time>2026-04-24T07:37:50Z</time></trkpt><trkpt lat="-17.945335830250716" lon="122.23700446012185"><ele>8.0</ele><time>2026-04-24T07:37:52Z</time></trkpt><trkpt lat="-17.945255211915722" lon="122.23702561421983"><ele>8.0</ele><time>2026-04-24T07:37:53Z</time></trkpt><trkpt lat="-17.945172251000617" lon="122.23702923962306"><ele>8.0</ele><time>2026-04-24T07:37:54Z</time></trkpt><trkpt lat="-17.945085372022007" lon="122.23703318606434"><ele>8.5</ele><time>2026-04-24T07:37:55Z</time></trkpt><trkpt lat="-17.944991525947227" lon="122.23703166785674"><ele>9.0</ele><time>2026-04-24T07:37:56Z</time></trkpt><trkpt lat="-17.944885278904003" lon="122.23703792906116"><ele>9.5</ele><time>2026-04-24T07:37:57Z</time></trkpt><trkpt lat="-17.944767817401804" lon="122.23699456280663"><ele>10.0</ele><time>2026-04-24T07:37:58Z</time></trkpt><trkpt lat="-17.944624067651834" lon="122.23696681714208"><ele>10.0</ele><time>2026-04-24T07:37:59Z</time></trkpt><trkpt lat="-17.944456709697512" lon="122.23694040937072"><ele>10.0</ele><time>2026-04-24T07:38:00Z</time></trkpt><trkpt lat="-17.944286849190156" lon="122.23691794906922"><ele>10.0</ele><time>2026-04-24T07:38:01Z</time></trkpt><trkpt lat="-17.944107836973238" lon="122.23690105406051"><ele>9.333333333333334</ele><time>2026-04-24T07:38:02Z</time></trkpt><trkpt lat="-17.943910436469082" lon="122.23688650646413"><ele>8.666666666666666</ele><time>2026-04-24T07:38:03Z</time></trkpt><trkpt lat="-17.943710715515035" lon="122.23687996050792"><ele>8.0</ele><time>2026-04-24T07:38:04Z</time></trkpt><trkpt lat="-17.943503282536625" lon="122.23687616378055"><ele>8.0</ele><time>2026-04-24T07:38:05Z</time></trkpt><trkpt lat="-17.943283031752102" lon="122.23687311440163"><ele>8.0</ele><time>2026-04-24T07:38:06Z</time></trkpt><trkpt lat="-17.943051104896245" lon="122.23687225907547"><ele>8.0</ele><time>2026-04-24T07:38:07Z</time></trkpt><trkpt lat="-17.942806621735446" lon="122.23687776490686"><ele>8.0</ele><time>2026-04-24T07:38:08Z</time></trkpt><trkpt lat="-17.94256940777589" lon="122.23688688412263"><ele>8.5</ele><time>2026-04-24T07:38:09Z</time></trkpt><trkpt lat="-17.94233227335908" lon="122.23690221113763"><ele>9.0</ele><time>2026-04-24T07:38:10Z</time></trkpt><trkpt lat="-17.942096053054435" lon="122.23692431076361"><ele>9.0</ele><time>2026-04-24T07:38:11Z</time></trkpt><trkpt lat="-17.941861166563243" lon="122.23695511798364"><ele>9.0</ele><time>2026-04-24T07:38:12Z</time></trkpt><trkpt lat="-17.941623168553566" lon="122.23699674970288"><ele>9.0</ele><time>2026-04-24T07:38:13Z</time></trkpt><trkpt lat="-17.941371001642803" lon="122.23702482900508"><ele>9.0</ele><time>2026-04-24T07:38:14Z</time></trkpt><trkpt lat="-17.941119501560816" lon="122.23707322315758"><ele>9.5</ele><time>2026-04-24T07:38:15Z</time></trkpt><trkpt lat="-17.94086595269033" lon="122.23712346463512"><ele>10.0</ele><time>2026-04-24T07:38:16Z</time></trkpt><trkpt lat="-17.940618449954048" lon="122.23717205024819"><ele>10.0</ele><time>2026-04-24T07:38:17Z</time></trkpt><trkpt lat="-17.940368731255536" lon="122.23722118792753"><ele>10.0</ele><time>2026-04-24T07:38:18Z</time></trkpt><trkpt lat="-17.940121244861317" lon="122.23726949020649"><ele>10.0</ele><time>2026-04-24T07:38:19Z</time></trkpt><trkpt lat="-17.939871322868804" lon="122.2373185499991"><ele>10.0</ele><time>2026-04-24T07:38:20Z</time></trkpt><trkpt lat="-17.939619205360867" lon="122.23736746277791"><ele>10.0</ele><time>2026-04-24T07:38:21Z</time></trkpt><trkpt lat="-17.939365850966574" lon="122.23741674766852"><ele>10.0</ele><time>2026-04-24T07:38:22Z</time></trkpt><trkpt lat="-17.9391138208894" lon="122.23747955577042"><ele>9.0</ele><time>2026-04-24T07:38:23Z</time></trkpt><trkpt lat="-17.9388646922803" lon="122.23752326190831"><ele>8.0</ele><time>2026-04-24T07:38:24Z</time></trkpt><trkpt lat="-17.93861547537786" lon="122.2375682212058"><ele>8.5</ele><time>2026-04-24T07:38:25Z</time></trkpt><trkpt lat="-17.938366532991513" lon="122.23761690602944"><ele>9.0</ele><time>2026-04-24T07:38:26Z</time></trkpt><trkpt lat="-17.938120988978" lon="122.23766711331572"><ele>9.0</ele><time>2026-04-24T07:38:27Z</time></trkpt><trkpt lat="-17.937878786646756" lon="122.23771637702158"><ele>9.0</ele><time>2026-04-24T07:38:28Z</time></trkpt><trkpt lat="-17.937639277633636" lon="122.23776244434126"><ele>9.5</ele><time>2026-04-24T07:38:29Z</time></trkpt><trkpt lat="-17.93740068573708" lon="122.23780460228477"><ele>10.0</ele><time>2026-04-24T07:38:30Z</time></trkpt><trkpt lat="-17.937162135084055" lon="122.23785000395539"><ele>10.0</ele><time>2026-04-24T07:38:31Z</time></trkpt><trkpt lat="-17.936925483533862" lon="122.23790643600799"><ele>10.0</ele><time>2026-04-24T07:38:32Z</time></trkpt><trkpt lat="-17.936695341284697" lon="122.23797261169888"><ele>10.0</ele><time>2026-04-24T07:38:33Z</time></trkpt><trkpt lat="-17.93646437463741" lon="122.23805275251726"><ele>10.0</ele><time>2026-04-24T07:38:34Z</time></trkpt><trkpt lat="-17.936235875913017" lon="122.23814801251852"><ele>10.0</ele><time>2026-04-24T07:38:35Z</time></trkpt><trkpt lat="-17.936006496978354" lon="122.23824955213374"><ele>10.0</ele><time>2026-04-24T07:38:36Z</time></trkpt><trkpt lat="-17.935775201863258" lon="122.23835097767528"><ele>10.0</ele><time>2026-04-24T07:38:37Z</time></trkpt><trkpt lat="-17.93554062652905" lon="122.23844960907292"><ele>10.0</ele><time>2026-04-24T07:38:38Z</time></trkpt><trkpt lat="-17.93530626269148" lon="122.23854927148459"><ele>10.0</ele><time>2026-04-24T07:38:39Z</time></trkpt><trkpt lat="-17.935072492791637" lon="122.23865091352994"><ele>10.0</ele><time>2026-04-24T07:38:40Z</time></trkpt><trkpt lat="-17.93483705421619" lon="122.23875081288514"><ele>9.5</ele><time>2026-04-24T07:38:41Z</time></trkpt><trkpt lat="-17.93460038268844" lon="122.23884954247613"><ele>9.0</ele><time>2026-04-24T07:38:42Z</time></trkpt><trkpt lat="-17.934360008773677" lon="122.23894707977512"><ele>8.0</ele><time>2026-04-24T07:38:43Z</time></trkpt><trkpt lat="-17.934121723499533" lon="122.23904537221135"><ele>7.0</ele><time>2026-04-24T07:38:44Z</time></trkpt><trkpt lat="-17.933881688618577" lon="122.23914652019373"><ele>7.0</ele><time>2026-04-24T07:38:45Z</time></trkpt><trkpt lat="-17.933643932185046" lon="122.23924392558315"><ele>7.0</ele><time>2026-04-24T07:38:46Z</time></trkpt><trkpt lat="-17.933403654550066" lon="122.23934392554348"><ele>7.5</ele><time>2026-04-24T07:38:47Z</time></trkpt><trkpt lat="-17.933166107648322" lon="122.23944455127355"><ele>8.0</ele><time>2026-04-24T07:38:48Z</time></trkpt><trkpt lat="-17.93293057582482" lon="122.2395422803032"><ele>8.0</ele><time>2026-04-24T07:38:49Z</time></trkpt><trkpt lat="-17.932701818708956" lon="122.23963796814618"><ele>8.0</ele><time>2026-04-24T07:38:50Z</time></trkpt><trkpt lat="-17.9324746924103" lon="122.23973311553857"><ele>8.0</ele><time>2026-04-24T07:38:51Z</time></trkpt><trkpt lat="-17.932249827221867" lon="122.23982194288224"><ele>8.0</ele><time>2026-04-24T07:38:52Z</time></trkpt><trkpt lat="-17.932028811402436" lon="122.23990317465919"><ele>8.0</ele><time>2026-04-24T07:38:53Z</time></trkpt><trkpt lat="-17.931812686987943" lon="122.23997081061208"><ele>8.0</ele><time>2026-04-24T07:38:54Z</time></trkpt><trkpt lat="-17.93159472919951" lon="122.240018920401"><ele>8.0</ele><time>2026-04-24T07:38:55Z</time></trkpt><trkpt lat="-17.93137739832992" lon="122.24004649269642"><ele>8.333333333333332</ele><time>2026-04-24T07:38:56Z</time></trkpt><trkpt lat="-17.931176356413907" lon="122.24004810319848"><ele>8.666666666666666</ele><time>2026-04-24T07:38:57Z</time></trkpt><trkpt lat="-17.93099021194403" lon="122.24002574953516"><ele>9.0</ele><time>2026-04-24T07:38:58Z</time></trkpt><trkpt lat="-17.93082324871399" lon="122.23999103226706"><ele>9.25</ele><time>2026-04-24T07:38:59Z</time></trkpt><trkpt lat="-17.930674102814013" lon="122.23995260187702"><ele>9.5</ele><time>2026-04-24T07:39:00Z</time></trkpt><trkpt lat="-17.93054017175396" lon="122.23990630354228"><ele>9.75</ele><time>2026-04-24T07:39:01Z</time></trkpt><trkpt lat="-17.930421095656097" lon="122.23985845951408"><ele>10.0</ele><time>2026-04-24T07:39:02Z</time></trkpt><trkpt lat="-17.93031721671109" lon="122.23981110042334"><ele>10.0</ele><time>2026-04-24T07:39:03Z</time></trkpt><trkpt lat="-17.93023180137302" lon="122.23976962517406"><ele>10.0</ele><time>2026-04-24T07:39:04Z</time></trkpt><trkpt lat="-17.930162823343732" lon="122.2397355789864"><ele>10.0</ele><time>2026-04-24T07:39:05Z</time></trkpt><trkpt lat="-17.930097021101798" lon="122.23971139840145"><ele>10.0</ele><time>2026-04-24T07:39:06Z</time></trkpt><trkpt lat="-17.930027804139236" lon="122.23971303446659"><ele>10.0</ele><time>2026-04-24T07:39:07Z</time></trkpt><trkpt lat="-17.92995110941724" lon="122.23974587646929"><ele>10.0</ele><time>2026-04-24T07:39:08Z</time></trkpt><trkpt lat="-17.929881443660488" lon="122.23981007245374"><ele>10.0</ele><time>2026-04-24T07:39:09Z</time></trkpt><trkpt lat="-17.92981975878521" lon="122.23990604664799"><ele>10.0</ele><time>2026-04-24T07:39:10Z</time></trkpt><trkpt lat="-17.929754650311654" lon="122.24002611377766"><ele>10.0</ele><time>2026-04-24T07:39:11Z</time></trkpt><trkpt lat="-17.929672724858257" lon="122.24015738247604"><ele>10.0</ele><time>2026-04-24T07:39:12Z</time></trkpt><trkpt lat="-17.929573122570893" lon="122.24029494450019"><ele>10.0</ele><time>2026-04-24T07:39:13Z</time></trkpt><trkpt lat="-17.929465841054856" lon="122.24043112928894"><ele>10.0</ele><time>2026-04-24T07:39:14Z</time></trkpt><trkpt lat="-17.929343847566322" lon="122.24057940166169"><ele>10.0</ele><time>2026-04-24T07:39:15Z</time></trkpt><trkpt lat="-17.92920658054578" lon="122.24073754254744"><ele>10.0</ele><time>2026-04-24T07:39:16Z</time></trkpt><trkpt lat="-17.92905719880571" lon="122.24088498841448"><ele>10.0</ele><time>2026-04-24T07:39:17Z</time></trkpt><trkpt lat="-17.92888341015209" lon="122.24102869960547"><ele>10.0</ele><time>2026-04-24T07:39:18Z</time></trkpt><trkpt lat="-17.92869374701289" lon="122.24116983814501"><ele>10.0</ele><time>2026-04-24T07:39:19Z</time></trkpt><trkpt lat="-17.928497743530215" lon="122.24130866566604"><ele>10.0</ele><time>2026-04-24T07:39:20Z</time></trkpt><trkpt lat="-17.928296708040474" lon="122.2414389702237"><ele>9.5</ele><time>2026-04-24T07:39:21Z</time></trkpt><trkpt lat="-17.92808143130454" lon="122.24155276988222"><ele>9.0</ele><time>2026-04-24T07:39:22Z</time></trkpt><trkpt lat="-17.92785121064148" lon="122.24165941502768"><ele>9.0</ele><time>2026-04-24T07:39:23Z</time></trkpt><trkpt lat="-17.927614823673938" lon="122.24176583638473"><ele>9.0</ele><time>2026-04-24T07:39:24Z</time></trkpt><trkpt lat="-17.927378055332536" lon="122.24186986884277"><ele>9.5</ele><time>2026-04-24T07:39:25Z</time></trkpt><trkpt lat="-17.927143371298744" lon="122.2419663529588"><ele>10.0</ele><time>2026-04-24T07:39:26Z</time></trkpt><trkpt lat="-17.926909606971748" lon="122.2420616771829"><ele>9.5</ele><time>2026-04-24T07:39:27Z</time></trkpt><trkpt lat="-17.926677454688345" lon="122.24215715881584"><ele>9.0</ele><time>2026-04-24T07:39:28Z</time></trkpt><trkpt lat="-17.92644141073726" lon="122.24225488135365"><ele>9.5</ele><time>2026-04-24T07:39:29Z</time></trkpt><trkpt lat="-17.926205384454125" lon="122.24235174511884"><ele>10.0</ele><time>2026-04-24T07:39:30Z</time></trkpt><trkpt lat="-17.925966936476495" lon="122.24245012042206"><ele>10.0</ele><time>2026-04-24T07:39:31Z</time></trkpt><trkpt lat="-17.925728609494808" lon="122.24255081414853"><ele>10.0</ele><time>2026-04-24T07:39:32Z</time></trkpt><trkpt lat="-17.925490079749782" lon="122.24265288770984"><ele>10.0</ele><time>2026-04-24T07:39:33Z</time></trkpt><trkpt lat="-17.925251909339234" lon="122.24275424119912"><ele>10.0</ele><time>2026-04-24T07:39:34Z</time></trkpt><trkpt lat="-17.925013339074695" lon="122.24285720526468"><ele>9.5</ele><time>2026-04-24T07:39:35Z</time></trkpt><trkpt lat="-17.924779715871498" lon="122.24295401674509"><ele>9.0</ele><time>2026-04-24T07:39:36Z</time></trkpt><trkpt lat="-17.92454026413691" lon="122.2430508995198"><ele>9.5</ele><time>2026-04-24T07:39:37Z</time></trkpt><trkpt lat="-17.92430663750052" lon="122.24314975500467"><ele>10.0</ele><time>2026-04-24T07:39:38Z</time></trkpt><trkpt lat="-17.924068245911933" lon="122.24324880812212"><ele>10.0</ele><time>2026-04-24T07:39:39Z</time></trkpt><trkpt lat="-17.923829027645954" lon="122.24334416340109"><ele>10.0</ele><time>2026-04-24T07:39:40Z</time></trkpt><trkpt lat="-17.923590868578803" lon="122.2434421328778"><ele>10.0</ele><time>2026-04-24T07:39:41Z</time></trkpt><trkpt lat="-17.92335744545398" lon="122.24354422000135"><ele>10.0</ele><time>2026-04-24T07:39:42Z</time></trkpt><trkpt lat="-17.923125121610784" lon="122.24364379780299"><ele>10.0</ele><time>2026-04-24T07:39:43Z</time></trkpt><trkpt lat="-17.92289211474919" lon="122.24373809411391"><ele>10.0</ele><time>2026-04-24T07:39:44Z</time></trkpt><trkpt lat="-17.922660356635554" lon="122.24383321577892"><ele>10.5</ele><time>2026-04-24T07:39:45Z</time></trkpt><trkpt lat="-17.922433740512307" lon="122.24393034216682"><ele>11.0</ele><time>2026-04-24T07:39:46Z</time></trkpt><trkpt lat="-17.92220821432954" lon="122.24402544768792"><ele>11.0</ele><time>2026-04-24T07:39:47Z</time></trkpt><trkpt lat="-17.921978339057176" lon="122.24412061768693"><ele>11.0</ele><time>2026-04-24T07:39:48Z</time></trkpt><trkpt lat="-17.92174334745691" lon="122.24421544400784"><ele>11.0</ele><time>2026-04-24T07:39:49Z</time></trkpt><trkpt lat="-17.921509965352914" lon="122.2443111434704"><ele>11.0</ele><time>2026-04-24T07:39:50Z</time></trkpt><trkpt lat="-17.921271846415866" lon="122.2444079458015"><ele>11.0</ele><time>2026-04-24T07:39:51Z</time></trkpt><trkpt lat="-17.921031877644047" lon="122.2445049771039"><ele>11.0</ele><time>2026-04-24T07:39:52Z</time></trkpt><trkpt lat="-17.920789041419994" lon="122.24460616203437"><ele>11.0</ele><time>2026-04-24T07:39:53Z</time></trkpt><trkpt lat="-17.920543768360886" lon="122.24470966660111"><ele>11.0</ele><time>2026-04-24T07:39:54Z</time></trkpt><trkpt lat="-17.920297985312903" lon="122.24481416538141"><ele>10.5</ele><time>2026-04-24T07:39:55Z</time></trkpt><trkpt lat="-17.9200504072038" lon="122.24492054587836"><ele>10.0</ele><time>2026-04-24T07:39:56Z</time></trkpt><trkpt lat="-17.91979583965115" lon="122.2450281047557"><ele>10.0</ele><time>2026-04-24T07:39:57Z</time></trkpt><trkpt lat="-17.919540943047135" lon="122.24513487102749"><ele>10.0</ele><time>2026-04-24T07:39:58Z</time></trkpt><trkpt lat="-17.919285251465972" lon="122.24524240947588"><ele>11.0</ele><time>2026-04-24T07:39:59Z</time></trkpt><trkpt lat="-17.919032557962975" lon="122.24534950420518"><ele>12.0</ele><time>2026-04-24T07:40:00Z</time></trkpt><trkpt lat="-17.918779955199252" lon="122.24545575136517"><ele>12.0</ele><time>2026-04-24T07:40:01Z</time></trkpt><trkpt lat="-17.918525559775848" lon="122.24556009722784"><ele>12.0</ele><time>2026-04-24T07:40:02Z</time></trkpt><trkpt lat="-17.918267197869294" lon="122.24566391273486"><ele>11.0</ele><time>2026-04-24T07:40:03Z</time></trkpt><trkpt lat="-17.918012507599762" lon="122.24576866304027"><ele>10.0</ele><time>2026-04-24T07:40:04Z</time></trkpt><trkpt lat="-17.917754478390787" lon="122.24587311839629"><ele>10.5</ele><time>2026-04-24T07:40:05Z</time></trkpt><trkpt lat="-17.91750048439979" lon="122.2459783282593"><ele>11.0</ele><time>2026-04-24T07:40:06Z</time></trkpt><trkpt lat="-17.917243484136577" lon="122.24608842342317"><ele>11.0</ele><time>2026-04-24T07:40:07Z</time></trkpt><trkpt lat="-17.91698619811478" lon="122.24619914192647"><ele>11.0</ele><time>2026-04-24T07:40:08Z</time></trkpt><trkpt lat="-17.916730433889654" lon="122.24630893739665"><ele>10.5</ele><time>2026-04-24T07:40:09Z</time></trkpt><trkpt lat="-17.916474275580587" lon="122.2464174407999"><ele>10.0</ele><time>2026-04-24T07:40:10Z</time></trkpt><trkpt lat="-17.91621734176662" lon="122.24652544649337"><ele>10.0</ele><time>2026-04-24T07:40:11Z</time></trkpt><trkpt lat="-17.9159632035332" lon="122.24662836881511"><ele>10.0</ele><time>2026-04-24T07:40:12Z</time></trkpt><trkpt lat="-17.91570500999669" lon="122.24673324753263"><ele>10.0</ele><time>2026-04-24T07:40:13Z</time></trkpt><trkpt lat="-17.9154533819024" lon="122.24683940570392"><ele>10.0</ele><time>2026-04-24T07:40:14Z</time></trkpt><trkpt lat="-17.915209237649087" lon="122.24695019815418"><ele>12.0</ele><time>2026-04-24T07:40:15Z</time></trkpt><trkpt lat="-17.914965630961778" lon="122.2470593097744"><ele>14.0</ele><time>2026-04-24T07:40:16Z</time></trkpt><trkpt lat="-17.914710789411973" lon="122.24716491903172"><ele>14.0</ele><time>2026-04-24T07:40:17Z</time></trkpt><trkpt lat="-17.914450300979826" lon="122.24726913820008"><ele>14.0</ele><time>2026-04-24T07:40:18Z</time></trkpt><trkpt lat="-17.91418961543847" lon="122.24737317917037"><ele>12.0</ele><time>2026-04-24T07:40:19Z</time></trkpt><trkpt lat="-17.913929597288835" lon="122.24748028604587"><ele>10.0</ele><time>2026-04-24T07:40:20Z</time></trkpt><trkpt lat="-17.913668384236683" lon="122.24758815023377"><ele>10.0</ele><time>2026-04-24T07:40:21Z</time></trkpt><trkpt lat="-17.91340579956804" lon="122.24769586508624"><ele>10.0</ele><time>2026-04-24T07:40:22Z</time></trkpt><trkpt lat="-17.913144422936313" lon="122.2478024359386"><ele>10.5</ele><time>2026-04-24T07:40:23Z</time></trkpt><trkpt lat="-17.912884137818132" lon="122.24791218479535"><ele>11.0</ele><time>2026-04-24T07:40:24Z</time></trkpt><trkpt lat="-17.91262801780493" lon="122.24801947119201"><ele>11.5</ele><time>2026-04-24T07:40:25Z</time></trkpt><trkpt lat="-17.91237087684396" lon="122.24812577706639"><ele>12.0</ele><time>2026-04-24T07:40:26Z</time></trkpt><trkpt lat="-17.912114770687328" lon="122.24823299747847"><ele>12.0</ele><time>2026-04-24T07:40:27Z</time></trkpt><trkpt lat="-17.911856777485823" lon="122.24834161410085"><ele>12.0</ele><time>2026-04-24T07:40:28Z</time></trkpt><trkpt lat="-17.91160006809683" lon="122.2484504246461"><ele>12.0</ele><time>2026-04-24T07:40:29Z</time></trkpt><trkpt lat="-17.911338438428594" lon="122.24856178832435"><ele>12.0</ele><time>2026-04-24T07:40:30Z</time></trkpt><trkpt lat="-17.91107836092936" lon="122.24867141035136"><ele>12.0</ele><time>2026-04-24T07:40:31Z</time></trkpt><trkpt lat="-17.910821195962075" lon="122.24877927247256"><ele>12.0</ele><time>2026-04-24T07:40:32Z</time></trkpt><trkpt lat="-17.910563752298685" lon="122.24888731961084"><ele>12.5</ele><time>2026-04-24T07:40:33Z</time></trkpt><trkpt lat="-17.910308779397862" lon="122.24899566750403"><ele>13.0</ele><time>2026-04-24T07:40:34Z</time></trkpt><trkpt lat="-17.910054627779314" lon="122.24910519434215"><ele>12.0</ele><time>2026-04-24T07:40:35Z</time></trkpt><trkpt lat="-17.90980196772831" lon="122.24921227158819"><ele>11.0</ele><time>2026-04-24T07:40:36Z</time></trkpt><trkpt lat="-17.909552983799646" lon="122.24931684611879"><ele>11.0</ele><time>2026-04-24T07:40:37Z</time></trkpt><trkpt lat="-17.909304308336136" lon="122.24942190851422"><ele>11.0</ele><time>2026-04-24T07:40:38Z</time></trkpt><trkpt lat="-17.909054340627645" lon="122.24952603591936"><ele>10.5</ele><time>2026-04-24T07:40:39Z</time></trkpt><trkpt lat="-17.90880322107789" lon="122.24962876820544"><ele>10.0</ele><time>2026-04-24T07:40:40Z</time></trkpt><trkpt lat="-17.908550156696016" lon="122.2497323842657"><ele>10.5</ele><time>2026-04-24T07:40:41Z</time></trkpt><trkpt lat="-17.908295809608493" lon="122.24983755478802"><ele>11.0</ele><time>2026-04-24T07:40:42Z</time></trkpt><trkpt lat="-17.908041797770444" lon="122.24994370042033"><ele>11.0</ele><time>2026-04-24T07:40:43Z</time></trkpt><trkpt lat="-17.907789176760055" lon="122.25005131850276"><ele>11.0</ele><time>2026-04-24T07:40:44Z</time></trkpt><trkpt lat="-17.90753678148892" lon="122.25016156593485"><ele>11.5</ele><time>2026-04-24T07:40:45Z</time></trkpt><trkpt lat="-17.907281468419562" lon="122.25027054377799"><ele>12.0</ele><time>2026-04-24T07:40:46Z</time></trkpt><trkpt lat="-17.907023225419927" lon="122.25038008699045"><ele>12.0</ele><time>2026-04-24T07:40:47Z</time></trkpt><trkpt lat="-17.90676517803211" lon="122.25048647589927"><ele>12.0</ele><time>2026-04-24T07:40:48Z</time></trkpt><trkpt lat="-17.90650644026045" lon="122.25059383676223"><ele>12.5</ele><time>2026-04-24T07:40:49Z</time></trkpt><trkpt lat="-17.906248732526446" lon="122.25070206280888"><ele>13.0</ele><time>2026-04-24T07:40:50Z</time></trkpt><trkpt lat="-17.905990236423342" lon="122.25081224169254"><ele>12.0</ele><time>2026-04-24T07:40:51Z</time></trkpt><trkpt lat="-17.90573359868347" lon="122.25091946806668"><ele>11.0</ele><time>2026-04-24T07:40:52Z</time></trkpt><trkpt lat="-17.905474919964654" lon="122.25102780957293"><ele>11.0</ele><time>2026-04-24T07:40:53Z</time></trkpt><trkpt lat="-17.90521607075043" lon="122.25113668745226"><ele>11.0</ele><time>2026-04-24T07:40:54Z</time></trkpt><trkpt lat="-17.904958967851684" lon="122.25124164565968"><ele>12.0</ele><time>2026-04-24T07:40:55Z</time></trkpt><trkpt lat="-17.904701259659117" lon="122.25134716411979"><ele>13.0</ele><time>2026-04-24T07:40:56Z</time></trkpt><trkpt lat="-17.904442868338613" lon="122.25145533594892"><ele>12.5</ele><time>2026-04-24T07:40:57Z</time></trkpt><trkpt lat="-17.90418343185328" lon="122.2515662255004"><ele>12.0</ele><time>2026-04-24T07:40:58Z</time></trkpt><trkpt lat="-17.903924500343418" lon="122.25167644045248"><ele>12.0</ele><time>2026-04-24T07:40:59Z</time></trkpt><trkpt lat="-17.903660196178" lon="122.25178763127211"><ele>12.0</ele><time>2026-04-24T07:41:00Z</time></trkpt><trkpt lat="-17.903397502767632" lon="122.25189997319117"><ele>12.0</ele><time>2026-04-24T07:41:01Z</time></trkpt><trkpt lat="-17.9031318483129" lon="122.25201209383108"><ele>12.0</ele><time>2026-04-24T07:41:02Z</time></trkpt><trkpt lat="-17.902865273959762" lon="122.25212337993487"><ele>12.0</ele><time>2026-04-24T07:41:03Z</time></trkpt><trkpt lat="-17.902600695854822" lon="122.25223581970681"><ele>12.0</ele><time>2026-04-24T07:41:04Z</time></trkpt><trkpt lat="-17.90233513550671" lon="122.25234919822881"><ele>11.0</ele><time>2026-04-24T07:41:05Z</time></trkpt><trkpt lat="-17.90207327033272" lon="122.25245985978327"><ele>10.0</ele><time>2026-04-24T07:41:06Z</time></trkpt><trkpt lat="-17.901814530517537" lon="122.25257078667225"><ele>9.5</ele><time>2026-04-24T07:41:07Z</time></trkpt><trkpt lat="-17.90155434012283" lon="122.25268412554362"><ele>9.0</ele><time>2026-04-24T07:41:08Z</time></trkpt><trkpt lat="-17.901296962888146" lon="122.25279824049552"><ele>9.0</ele><time>2026-04-24T07:41:09Z</time></trkpt><trkpt lat="-17.901040259897805" lon="122.25291626287718"><ele>9.0</ele><time>2026-04-24T07:41:10Z</time></trkpt><trkpt lat="-17.90078995329243" lon="122.25304441417148"><ele>10.5</ele><time>2026-04-24T07:41:11Z</time></trkpt><trkpt lat="-17.90054780710173" lon="122.25318952262644"><ele>12.0</ele><time>2026-04-24T07:41:12Z</time></trkpt><trkpt lat="-17.900309880467407" lon="122.25334841028835"><ele>12.0</ele><time>2026-04-24T07:41:13Z</time></trkpt><trkpt lat="-17.90008087668771" lon="122.25351859649031"><ele>12.0</ele><time>2026-04-24T07:41:14Z</time></trkpt><trkpt lat="-17.899860474909254" lon="122.25370118365467"><ele>12.0</ele><time>2026-04-24T07:41:15Z</time></trkpt><trkpt lat="-17.899648808292095" lon="122.2538996913289"><ele>12.0</ele><time>2026-04-24T07:41:16Z</time></trkpt><trkpt lat="-17.899443353755565" lon="122.25411064691774"><ele>11.0</ele><time>2026-04-24T07:41:17Z</time></trkpt><trkpt lat="-17.89923896115897" lon="122.25432782839131"><ele>10.0</ele><time>2026-04-24T07:41:18Z</time></trkpt><trkpt lat="-17.899040796068217" lon="122.25454560644846"><ele>10.0</ele><time>2026-04-24T07:41:19Z</time></trkpt><trkpt lat="-17.898844519053473" lon="122.25476836711532"><ele>10.0</ele><time>2026-04-24T07:41:20Z</time></trkpt><trkpt lat="-17.898651858313645" lon="122.25498773746862"><ele>10.0</ele><time>2026-04-24T07:41:21Z</time></trkpt><trkpt lat="-17.898455158752668" lon="122.25520668436133"><ele>10.0</ele><time>2026-04-24T07:41:22Z</time></trkpt><trkpt lat="-17.898263660961867" lon="122.25541964818949"><ele>10.5</ele><time>2026-04-24T07:41:23Z</time></trkpt><trkpt lat="-17.898070129180468" lon="122.25563436246598"><ele>11.0</ele><time>2026-04-24T07:41:24Z</time></trkpt><trkpt lat="-17.897879920680865" lon="122.25584494194962"><ele>11.0</ele><time>2026-04-24T07:41:25Z</time></trkpt><trkpt lat="-17.897684128534856" lon="122.25605939236289"><ele>11.0</ele><time>2026-04-24T07:41:26Z</time></trkpt><trkpt lat="-17.897491778628073" lon="122.25626615568855"><ele>10.5</ele><time>2026-04-24T07:41:27Z</time></trkpt><trkpt lat="-17.897301458837326" lon="122.25647199672558"><ele>10.0</ele><time>2026-04-24T07:41:28Z</time></trkpt><trkpt lat="-17.89711905823354" lon="122.25667981979191"><ele>10.0</ele><time>2026-04-24T07:41:29Z</time></trkpt><trkpt lat="-17.896933640816425" lon="122.25689112601273"><ele>10.0</ele><time>2026-04-24T07:41:30Z</time></trkpt><trkpt lat="-17.896753978545544" lon="122.25709641047607"><ele>10.5</ele><time>2026-04-24T07:41:31Z</time></trkpt><trkpt lat="-17.896566285831785" lon="122.2573002823189"><ele>11.0</ele><time>2026-04-24T07:41:32Z</time></trkpt><trkpt lat="-17.896377573056355" lon="122.2575067831566"><ele>11.0</ele><time>2026-04-24T07:41:33Z</time></trkpt><trkpt lat="-17.896188742373667" lon="122.25771591220949"><ele>11.0</ele><time>2026-04-24T07:41:34Z</time></trkpt><trkpt lat="-17.895998669329384" lon="122.25792302021713"><ele>10.0</ele><time>2026-04-24T07:41:35Z</time></trkpt><trkpt lat="-17.89580830521145" lon="122.25813429620364"><ele>9.0</ele><time>2026-04-24T07:41:36Z</time></trkpt><trkpt lat="-17.895621034762943" lon="122.25834838720927"><ele>9.0</ele><time>2026-04-24T07:41:37Z</time></trkpt><trkpt lat="-17.895430654022864" lon="122.25856117810014"><ele>9.0</ele><time>2026-04-24T07:41:38Z</time></trkpt><trkpt lat="-17.895237642122822" lon="122.25877647528199"><ele>9.0</ele><time>2026-04-24T07:41:39Z</time></trkpt><trkpt lat="-17.89504476859426" lon="122.25898959564553"><ele>9.0</ele><time>2026-04-24T07:41:40Z</time></trkpt><trkpt lat="-17.894852134992924" lon="122.25920707645521"><ele>9.0</ele><time>2026-04-24T07:41:41Z</time></trkpt><trkpt lat="-17.894663385107183" lon="122.25942381480341"><ele>9.0</ele><time>2026-04-24T07:41:42Z</time></trkpt><trkpt lat="-17.894472036840273" lon="122.25963999759179"><ele>9.0</ele><time>2026-04-24T07:41:43Z</time></trkpt><trkpt lat="-17.89427935881839" lon="122.25985635679365"><ele>9.0</ele><time>2026-04-24T07:41:44Z</time></trkpt><trkpt lat="-17.89408622046067" lon="122.26007288921517"><ele>10.5</ele><time>2026-04-24T07:41:45Z</time></trkpt><trkpt lat="-17.893893202385726" lon="122.26028749671312"><ele>12.0</ele><time>2026-04-24T07:41:46Z</time></trkpt><trkpt lat="-17.89369656889036" lon="122.26050396725884"><ele>12.0</ele><time>2026-04-24T07:41:47Z</time></trkpt><trkpt lat="-17.89350287324987" lon="122.26071656386786"><ele>12.0</ele><time>2026-04-24T07:41:48Z</time></trkpt><trkpt lat="-17.893309435474542" lon="122.26092885183313"><ele>11.0</ele><time>2026-04-24T07:41:49Z</time></trkpt><trkpt lat="-17.893114039440164" lon="122.26114529547037"><ele>10.0</ele><time>2026-04-24T07:41:50Z</time></trkpt><trkpt lat="-17.89291907643425" lon="122.26135736586977"><ele>10.5</ele><time>2026-04-24T07:41:51Z</time></trkpt><trkpt lat="-17.89272285093137" lon="122.26157286260278"><ele>11.0</ele><time>2026-04-24T07:41:52Z</time></trkpt><trkpt lat="-17.892528506424153" lon="122.26179034415236"><ele>11.0</ele><time>2026-04-24T07:41:53Z</time></trkpt><trkpt lat="-17.89233373221405" lon="122.26200624215694"><ele>11.0</ele><time>2026-04-24T07:41:54Z</time></trkpt><trkpt lat="-17.89214296742936" lon="122.26222045522971"><ele>11.5</ele><time>2026-04-24T07:41:55Z</time></trkpt><trkpt lat="-17.891949943865914" lon="122.26243372650083"><ele>12.0</ele><time>2026-04-24T07:41:56Z</time></trkpt><trkpt lat="-17.89175356614962" lon="122.2626501049569"><ele>12.0</ele><time>2026-04-24T07:41:57Z</time></trkpt><trkpt lat="-17.891559799229906" lon="122.26286637176571"><ele>12.0</ele><time>2026-04-24T07:41:58Z</time></trkpt><trkpt lat="-17.891365827820074" lon="122.26308198156528"><ele>11.5</ele><time>2026-04-24T07:41:59Z</time></trkpt><trkpt lat="-17.891172285015177" lon="122.26329536460082"><ele>11.0</ele><time>2026-04-24T07:42:00Z</time></trkpt><trkpt lat="-17.89097765134188" lon="122.26351138084146"><ele>13.5</ele><time>2026-04-24T07:42:01Z</time></trkpt><trkpt lat="-17.890787099511886" lon="122.26372346790984"><ele>16.0</ele><time>2026-04-24T07:42:02Z</time></trkpt><trkpt lat="-17.89059766267294" lon="122.26393654886628"><ele>15.5</ele><time>2026-04-24T07:42:03Z</time></trkpt><trkpt lat="-17.890411754668193" lon="122.26414742096826"><ele>15.0</ele><time>2026-04-24T07:42:04Z</time></trkpt><trkpt lat="-17.89023778066218" lon="122.26435494656279"><ele>14.5</ele><time>2026-04-24T07:42:05Z</time></trkpt><trkpt lat="-17.89006772605138" lon="122.26457067195358"><ele>14.0</ele><time>2026-04-24T07:42:06Z</time></trkpt><trkpt lat="-17.88990445894142" lon="122.26479266024285"><ele>14.0</ele><time>2026-04-24T07:42:07Z</time></trkpt><trkpt lat="-17.889752795731603" lon="122.26502251308142"><ele>14.0</ele><time>2026-04-24T07:42:08Z</time></trkpt><trkpt lat="-17.88961263260447" lon="122.26526456556489"><ele>14.0</ele><time>2026-04-24T07:42:09Z</time></trkpt><trkpt lat="-17.8894839728463" lon="122.2655123868851"><ele>14.0</ele><time>2026-04-24T07:42:10Z</time></trkpt><trkpt lat="-17.88936752143636" lon="122.26576339466504"><ele>14.0</ele><time>2026-04-24T07:42:11Z</time></trkpt><trkpt lat="-17.889265392156613" lon="122.26601606975969"><ele>14.0</ele><time>2026-04-24T07:42:12Z</time></trkpt><trkpt lat="-17.889178192916383" lon="122.26626414180211"><ele>14.5</ele><time>2026-04-24T07:42:13Z</time></trkpt><trkpt lat="-17.889103170293723" lon="122.2665076393801"><ele>15.0</ele><time>2026-04-24T07:42:14Z</time></trkpt><trkpt lat="-17.889041395912866" lon="122.26675680624756"><ele>15.0</ele><time>2026-04-24T07:42:15Z</time></trkpt><trkpt lat="-17.888989672803437" lon="122.26699283718432"><ele>15.0</ele><time>2026-04-24T07:42:16Z</time></trkpt><trkpt lat="-17.88894463933591" lon="122.26722253257415"><ele>15.666666666666668</ele><time>2026-04-24T07:42:17Z</time></trkpt><trkpt lat="-17.888901788097044" lon="122.26744523390583"><ele>16.333333333333336</ele><time>2026-04-24T07:42:18Z</time></trkpt><trkpt lat="-17.888859562553513" lon="122.26766500404315"><ele>17.0</ele><time>2026-04-24T07:42:19Z</time></trkpt><trkpt lat="-17.88881872854889" lon="122.26788911381956"><ele>16.333333333333336</ele><time>2026-04-24T07:42:20Z</time></trkpt><trkpt lat="-17.888783652046687" lon="122.26811859410783"><ele>15.666666666666668</ele><time>2026-04-24T07:42:21Z</time></trkpt><trkpt lat="-17.888744269755648" lon="122.26835439876619"><ele>15.0</ele><time>2026-04-24T07:42:22Z</time></trkpt><trkpt lat="-17.888702518621752" lon="122.26859359337037"><ele>15.0</ele><time>2026-04-24T07:42:23Z</time></trkpt><trkpt lat="-17.888661800593493" lon="122.26883007309078"><ele>15.0</ele><time>2026-04-24T07:42:24Z</time></trkpt><trkpt lat="-17.888621169803905" lon="122.2690700305553"><ele>16.333333333333332</ele><time>2026-04-24T07:42:25Z</time></trkpt><trkpt lat="-17.888581084455417" lon="122.26930118836577"><ele>17.666666666666664</ele><time>2026-04-24T07:42:26Z</time></trkpt><trkpt lat="-17.888540177908443" lon="122.26952160004694"><ele>19.0</ele><time>2026-04-24T07:42:27Z</time></trkpt><trkpt lat="-17.8884965526931" lon="122.26974444270613"><ele>19.0</ele><time>2026-04-24T07:42:28Z</time></trkpt><trkpt lat="-17.88845066450218" lon="122.26997229800459"><ele>19.0</ele><time>2026-04-24T07:42:29Z</time></trkpt><trkpt lat="-17.888405471511703" lon="122.27020448176116"><ele>19.0</ele><time>2026-04-24T07:42:30Z</time></trkpt><trkpt lat="-17.88836234733028" lon="122.27043815154013"><ele>18.5</ele><time>2026-04-24T07:42:31Z</time></trkpt><trkpt lat="-17.888318979788192" lon="122.27067539248918"><ele>18.0</ele><time>2026-04-24T07:42:32Z</time></trkpt><trkpt lat="-17.888277299127772" lon="122.27091451093474"><ele>18.0</ele><time>2026-04-24T07:42:33Z</time></trkpt><trkpt lat="-17.88823911770268" lon="122.27114944985401"><ele>18.0</ele><time>2026-04-24T07:42:34Z</time></trkpt><trkpt lat="-17.88820209339215" lon="122.27137850757079"><ele>18.0</ele><time>2026-04-24T07:42:35Z</time></trkpt><trkpt lat="-17.888164300143593" lon="122.27161401536787"><ele>18.0</ele><time>2026-04-24T07:42:36Z</time></trkpt><trkpt lat="-17.88812477554624" lon="122.2718517075956"><ele>18.0</ele><time>2026-04-24T07:42:37Z</time></trkpt><trkpt lat="-17.88808182867142" lon="122.27208845435729"><ele>18.5</ele><time>2026-04-24T07:42:38Z</time></trkpt><trkpt lat="-17.888038557015893" lon="122.27232766591871"><ele>19.0</ele><time>2026-04-24T07:42:39Z</time></trkpt><trkpt lat="-17.887997010845915" lon="122.27256181925056"><ele>19.0</ele><time>2026-04-24T07:42:40Z</time></trkpt><trkpt lat="-17.887957069922134" lon="122.27279402568855"><ele>19.0</ele><time>2026-04-24T07:42:41Z</time></trkpt><trkpt lat="-17.887918060286307" lon="122.27301685251157"><ele>19.0</ele><time>2026-04-24T07:42:42Z</time></trkpt><trkpt lat="-17.88787685540312" lon="122.27323672145697"><ele>19.333333333333332</ele><time>2026-04-24T07:42:43Z</time></trkpt><trkpt lat="-17.887836947660308" lon="122.27345853264896"><ele>19.666666666666668</ele><time>2026-04-24T07:42:44Z</time></trkpt><trkpt lat="-17.887804259820662" lon="122.27368316092885"><ele>20.0</ele><time>2026-04-24T07:42:45Z</time></trkpt><trkpt lat="-17.88777367523601" lon="122.27390650632331"><ele>20.333333333333336</ele><time>2026-04-24T07:42:46Z</time></trkpt><trkpt lat="-17.887744014799615" lon="122.27411419058383"><ele>20.666666666666668</ele><time>2026-04-24T07:42:47Z</time></trkpt><trkpt lat="-17.8877120025038" lon="122.27431535703947"><ele>21.0</ele><time>2026-04-24T07:42:48Z</time></trkpt><trkpt lat="-17.887678668496847" lon="122.27451776833438"><ele>21.0</ele><time>2026-04-24T07:42:49Z</time></trkpt><trkpt lat="-17.887648922202516" lon="122.27471544638995"><ele>21.0</ele><time>2026-04-24T07:42:50Z</time></trkpt><trkpt lat="-17.88762220866197" lon="122.2749039743813"><ele>21.0</ele><time>2026-04-24T07:42:51Z</time></trkpt><trkpt lat="-17.88759192707076" lon="122.2750827403332"><ele>20.666666666666668</ele><time>2026-04-24T07:42:52Z</time></trkpt><trkpt lat="-17.887557134785997" lon="122.27524933182299"><ele>20.333333333333336</ele><time>2026-04-24T07:42:53Z</time></trkpt><trkpt lat="-17.887514621488272" lon="122.27541065261119"><ele>20.0</ele><time>2026-04-24T07:42:54Z</time></trkpt><trkpt lat="-17.887472028170357" lon="122.2755636209378"><ele>21.0</ele><time>2026-04-24T07:42:55Z</time></trkpt><trkpt lat="-17.887430751111854" lon="122.27570914704773"><ele>22.0</ele><time>2026-04-24T07:42:56Z</time></trkpt><trkpt lat="-17.88739272751473" lon="122.27585142289645"><ele>23.0</ele><time>2026-04-24T07:42:57Z</time></trkpt><trkpt lat="-17.887361640258852" lon="122.27598547102674"><ele>24.0</ele><time>2026-04-24T07:42:58Z</time></trkpt><trkpt lat="-17.8873366984972" lon="122.27611601619567"><ele>24.0</ele><time>2026-04-24T07:42:59Z</time></trkpt><trkpt lat="-17.88731763622539" lon="122.2762444269147"><ele>24.0</ele><time>2026-04-24T07:43:00Z</time></trkpt><trkpt lat="-17.88730384856518" lon="122.27637711212779"><ele>24.0</ele><time>2026-04-24T07:43:01Z</time></trkpt><trkpt lat="-17.887294149320752" lon="122.27651138772752"><ele>24.0</ele><time>2026-04-24T07:43:02Z</time></trkpt><trkpt lat="-17.88728775772813" lon="122.27663944040792"><ele>23.666666666666668</ele><time>2026-04-24T07:43:03Z</time></trkpt><trkpt lat="-17.887282978612944" lon="122.27675522776765"><ele>23.333333333333332</ele><time>2026-04-24T07:43:04Z</time></trkpt><trkpt lat="-17.887272677476627" lon="122.27685979278654"><ele>23.0</ele><time>2026-04-24T07:43:05Z</time></trkpt><trkpt lat="-17.887251601942946" lon="122.27694492090845"><ele>22.666666666666664</ele><time>2026-04-24T07:43:06Z</time></trkpt><trkpt lat="-17.887216496294563" lon="122.27701377768541"><ele>22.333333333333332</ele><time>2026-04-24T07:43:07Z</time></trkpt><trkpt lat="-17.887165691442753" lon="122.27706937472203"><ele>22.0</ele><time>2026-04-24T07:43:08Z</time></trkpt><trkpt lat="-17.887101339670924" lon="122.27711779363692"><ele>22.0</ele><time>2026-04-24T07:43:09Z</time></trkpt><trkpt lat="-17.887024802283882" lon="122.2771601367553"><ele>22.0</ele><time>2026-04-24T07:43:10Z</time></trkpt><trkpt lat="-17.88694370129773" lon="122.2771968989281"><ele>22.0</ele><time>2026-04-24T07:43:11Z</time></trkpt><trkpt lat="-17.886861370286613" lon="122.27724278148318"><ele>22.0</ele><time>2026-04-24T07:43:12Z</time></trkpt><trkpt lat="-17.886788140656915" lon="122.27730465838319"><ele>22.0</ele><time>2026-04-24T07:43:13Z</time></trkpt><trkpt lat="-17.88673148405413" lon="122.27738077776297"><ele>22.400000000000002</ele><time>2026-04-24T07:43:14Z</time></trkpt><trkpt lat="-17.886699219491575" lon="122.27746610815088"><ele>22.8</ele><time>2026-04-24T07:43:15Z</time></trkpt><trkpt lat="-17.88669168929871" lon="122.27756190722913"><ele>23.2</ele><time>2026-04-24T07:43:16Z</time></trkpt><trkpt lat="-17.886701659612662" lon="122.27767004943121"><ele>23.6</ele><time>2026-04-24T07:43:17Z</time></trkpt><trkpt lat="-17.886726833061957" lon="122.27779085175776"><ele>24.0</ele><time>2026-04-24T07:43:18Z</time></trkpt><trkpt lat="-17.886762042996835" lon="122.27792330577974"><ele>24.0</ele><time>2026-04-24T07:43:19Z</time></trkpt><trkpt lat="-17.88680161832535" lon="122.27807022624502"><ele>24.0</ele><time>2026-04-24T07:43:20Z</time></trkpt><trkpt lat="-17.8868402144286" lon="122.27822420979058"><ele>24.0</ele><time>2026-04-24T07:43:21Z</time></trkpt><trkpt lat="-17.886869239555494" lon="122.27839915017329"><ele>25.0</ele><time>2026-04-24T07:43:22Z</time></trkpt><trkpt lat="-17.88688956303225" lon="122.27859800301387"><ele>26.0</ele><time>2026-04-24T07:43:23Z</time></trkpt><trkpt lat="-17.886897835098402" lon="122.27881140893594"><ele>27.0</ele><time>2026-04-24T07:43:24Z</time></trkpt><trkpt lat="-17.886889650073527" lon="122.2790287891319"><ele>27.5</ele><time>2026-04-24T07:43:25Z</time></trkpt><trkpt lat="-17.886866137288866" lon="122.2792606937674"><ele>28.0</ele><time>2026-04-24T07:43:26Z</time></trkpt><trkpt lat="-17.88682417027082" lon="122.27950736246775"><ele>28.0</ele><time>2026-04-24T07:43:27Z</time></trkpt><trkpt lat="-17.88677102474905" lon="122.27976427655221"><ele>28.0</ele><time>2026-04-24T07:43:28Z</time></trkpt><trkpt lat="-17.886716411545155" lon="122.28003659425946"><ele>28.0</ele><time>2026-04-24T07:43:29Z</time></trkpt><trkpt lat="-17.886667927747766" lon="122.28032222981429"><ele>28.0</ele><time>2026-04-24T07:43:30Z</time></trkpt><trkpt lat="-17.88661953458868" lon="122.28060013634875"><ele>28.0</ele><time>2026-04-24T07:43:31Z</time></trkpt><trkpt lat="-17.886568479538987" lon="122.28088321040907"><ele>28.0</ele><time>2026-04-24T07:43:32Z</time></trkpt><trkpt lat="-17.88651941006902" lon="122.28117942569611"><ele>28.5</ele><time>2026-04-24T07:43:33Z</time></trkpt><trkpt lat="-17.886468364944967" lon="122.28148735164035"><ele>29.0</ele><time>2026-04-24T07:43:34Z</time></trkpt><trkpt lat="-17.886417626253298" lon="122.28178550469653"><ele>29.0</ele><time>2026-04-24T07:43:35Z</time></trkpt><trkpt lat="-17.88637008816688" lon="122.28208067906681"><ele>29.0</ele><time>2026-04-24T07:43:36Z</time></trkpt><trkpt lat="-17.886321365452375" lon="122.28237797116495"><ele>29.5</ele><time>2026-04-24T07:43:37Z</time></trkpt><trkpt lat="-17.886274456537937" lon="122.28266953878105"><ele>30.0</ele><time>2026-04-24T07:43:38Z</time></trkpt><trkpt lat="-17.886229444355155" lon="122.28296160898404"><ele>30.5</ele><time>2026-04-24T07:43:39Z</time></trkpt><trkpt lat="-17.886184584265802" lon="122.28325377052957"><ele>31.0</ele><time>2026-04-24T07:43:40Z</time></trkpt><trkpt lat="-17.886139289278844" lon="122.28355040201295"><ele>31.0</ele><time>2026-04-24T07:43:41Z</time></trkpt><trkpt lat="-17.886091720640632" lon="122.28384712071355"><ele>31.0</ele><time>2026-04-24T07:43:42Z</time></trkpt><trkpt lat="-17.88604412885047" lon="122.28413801171045"><ele>30.5</ele><time>2026-04-24T07:43:43Z</time></trkpt><trkpt lat="-17.885994862749442" lon="122.28443278654967"><ele>30.0</ele><time>2026-04-24T07:43:44Z</time></trkpt><trkpt lat="-17.88594594285603" lon="122.28472389967541"><ele>31.5</ele><time>2026-04-24T07:43:45Z</time></trkpt><trkpt lat="-17.8858960052784" lon="122.28501399305983"><ele>33.0</ele><time>2026-04-24T07:43:46Z</time></trkpt><trkpt lat="-17.885845765270346" lon="122.28530479651886"><ele>33.5</ele><time>2026-04-24T07:43:47Z</time></trkpt><trkpt lat="-17.88579576587319" lon="122.28559761987835"><ele>34.0</ele><time>2026-04-24T07:43:48Z</time></trkpt><trkpt lat="-17.885746817471347" lon="122.28588683371854"><ele>34.0</ele><time>2026-04-24T07:43:49Z</time></trkpt><trkpt lat="-17.885698073633307" lon="122.28617991512223"><ele>34.0</ele><time>2026-04-24T07:43:50Z</time></trkpt><trkpt lat="-17.885650368153012" lon="122.28647076695584"><ele>33.0</ele><time>2026-04-24T07:43:51Z</time></trkpt><trkpt lat="-17.885600513880476" lon="122.28676328176049"><ele>32.0</ele><time>2026-04-24T07:43:52Z</time></trkpt><trkpt lat="-17.88555013199871" lon="122.28705830782606"><ele>32.5</ele><time>2026-04-24T07:43:53Z</time></trkpt><trkpt lat="-17.885499901923428" lon="122.28735142184244"><ele>33.0</ele><time>2026-04-24T07:43:54Z</time></trkpt><trkpt lat="-17.885449364628418" lon="122.28764503006823"><ele>33.0</ele><time>2026-04-24T07:43:55Z</time></trkpt><trkpt lat="-17.885397258761266" lon="122.2879384005308"><ele>33.0</ele><time>2026-04-24T07:43:56Z</time></trkpt><trkpt lat="-17.88534557339503" lon="122.28823070261035"><ele>33.0</ele><time>2026-04-24T07:43:57Z</time></trkpt><trkpt lat="-17.885293556087753" lon="122.28852119364629"><ele>33.0</ele><time>2026-04-24T07:43:58Z</time></trkpt><trkpt lat="-17.885241383509438" lon="122.28881019473313"><ele>33.0</ele><time>2026-04-24T07:43:59Z</time></trkpt><trkpt lat="-17.88518995808748" lon="122.28909907814051"><ele>33.0</ele><time>2026-04-24T07:44:00Z</time></trkpt><trkpt lat="-17.88514012090759" lon="122.28938552601065"><ele>34.0</ele><time>2026-04-24T07:44:01Z</time></trkpt><trkpt lat="-17.885091721267234" lon="122.2896706182545"><ele>35.0</ele><time>2026-04-24T07:44:02Z</time></trkpt><trkpt lat="-17.88504193867429" lon="122.28996012642148"><ele>35.5</ele><time>2026-04-24T07:44:03Z</time></trkpt><trkpt lat="-17.884992660457495" lon="122.2902493038192"><ele>36.0</ele><time>2026-04-24T07:44:04Z</time></trkpt><trkpt lat="-17.884943244459876" lon="122.29053946235128"><ele>35.5</ele><time>2026-04-24T07:44:05Z</time></trkpt><trkpt lat="-17.884893703002664" lon="122.29082968326526"><ele>35.0</ele><time>2026-04-24T07:44:06Z</time></trkpt><trkpt lat="-17.884842818538807" lon="122.29112073591337"><ele>35.0</ele><time>2026-04-24T07:44:07Z</time></trkpt><trkpt lat="-17.884794296741273" lon="122.29141161036046"><ele>35.0</ele><time>2026-04-24T07:44:08Z</time></trkpt><trkpt lat="-17.88474465778606" lon="122.29170399663721"><ele>35.0</ele><time>2026-04-24T07:44:09Z</time></trkpt><trkpt lat="-17.88469678232174" lon="122.29199087549341"><ele>35.0</ele><time>2026-04-24T07:44:10Z</time></trkpt><trkpt lat="-17.884648170041185" lon="122.29227853739026"><ele>35.0</ele><time>2026-04-24T07:44:11Z</time></trkpt><trkpt lat="-17.88459782091861" lon="122.29256460650808"><ele>35.0</ele><time>2026-04-24T07:44:12Z</time></trkpt><trkpt lat="-17.88454837618807" lon="122.29284648933438"><ele>36.0</ele><time>2026-04-24T07:44:13Z</time></trkpt><trkpt lat="-17.884497261200856" lon="122.29313225732496"><ele>37.0</ele><time>2026-04-24T07:44:14Z</time></trkpt><trkpt lat="-17.884448108586678" lon="122.29341837384744"><ele>37.0</ele><time>2026-04-24T07:44:15Z</time></trkpt><trkpt lat="-17.884398201822382" lon="122.29370750101049"><ele>37.0</ele><time>2026-04-24T07:44:16Z</time></trkpt><trkpt lat="-17.88434707370123" lon="122.29400032285868"><ele>37.0</ele><time>2026-04-24T07:44:17Z</time></trkpt><trkpt lat="-17.88429787663548" lon="122.2942928712005"><ele>37.0</ele><time>2026-04-24T07:44:18Z</time></trkpt><trkpt lat="-17.884249471558753" lon="122.2945909089443"><ele>35.5</ele><time>2026-04-24T07:44:19Z</time></trkpt><trkpt lat="-17.884202236391182" lon="122.29488806828334"><ele>34.0</ele><time>2026-04-24T07:44:20Z</time></trkpt><trkpt lat="-17.884153001543254" lon="122.29518451307376"><ele>34.0</ele><time>2026-04-24T07:44:21Z</time></trkpt><trkpt lat="-17.88410423268997" lon="122.29547955656784"><ele>34.0</ele><time>2026-04-24T07:44:22Z</time></trkpt><trkpt lat="-17.88405505888483" lon="122.29577603052746"><ele>34.5</ele><time>2026-04-24T07:44:23Z</time></trkpt><trkpt lat="-17.884005298439302" lon="122.29607008210597"><ele>35.0</ele><time>2026-04-24T07:44:24Z</time></trkpt><trkpt lat="-17.883954787405028" lon="122.29636020011843"><ele>35.0</ele><time>2026-04-24T07:44:25Z</time></trkpt><trkpt lat="-17.883903469627715" lon="122.2966485348161"><ele>35.0</ele><time>2026-04-24T07:44:26Z</time></trkpt><trkpt lat="-17.883852264289704" lon="122.296939506964"><ele>35.0</ele><time>2026-04-24T07:44:27Z</time></trkpt><trkpt lat="-17.88380313224272" lon="122.2972319317147"><ele>35.0</ele><time>2026-04-24T07:44:28Z</time></trkpt><trkpt lat="-17.88375361576314" lon="122.2975248381664"><ele>34.0</ele><time>2026-04-24T07:44:29Z</time></trkpt><trkpt lat="-17.883702510334484" lon="122.29782058435278"><ele>33.0</ele><time>2026-04-24T07:44:30Z</time></trkpt><trkpt lat="-17.883650132313463" lon="122.29811268342596"><ele>33.0</ele><time>2026-04-24T07:44:31Z</time></trkpt><trkpt lat="-17.883597128423464" lon="122.29840961164003"><ele>33.0</ele><time>2026-04-24T07:44:32Z</time></trkpt><trkpt lat="-17.883545138592975" lon="122.29870736262336"><ele>34.0</ele><time>2026-04-24T07:44:33Z</time></trkpt><trkpt lat="-17.88349407691424" lon="122.29900361150276"><ele>35.0</ele><time>2026-04-24T07:44:34Z</time></trkpt><trkpt lat="-17.883442318733476" lon="122.2992999684829"><ele>35.0</ele><time>2026-04-24T07:44:35Z</time></trkpt><trkpt lat="-17.883388951131394" lon="122.29959407716713"><ele>35.0</ele><time>2026-04-24T07:44:36Z</time></trkpt><trkpt lat="-17.88333595228225" lon="122.29989126793916"><ele>36.0</ele><time>2026-04-24T07:44:37Z</time></trkpt><trkpt lat="-17.88328618754933" lon="122.30018967403822"><ele>37.0</ele><time>2026-04-24T07:44:38Z</time></trkpt><trkpt lat="-17.883234114867562" lon="122.30048965723654"><ele>35.5</ele><time>2026-04-24T07:44:39Z</time></trkpt><trkpt lat="-17.883183064403774" lon="122.30078994660377"><ele>34.0</ele><time>2026-04-24T07:44:40Z</time></trkpt><trkpt lat="-17.883129566741694" lon="122.30109115106578"><ele>34.0</ele><time>2026-04-24T07:44:41Z</time></trkpt><trkpt lat="-17.883077115445058" lon="122.30138869258776"><ele>34.0</ele><time>2026-04-24T07:44:42Z</time></trkpt><trkpt lat="-17.88302453079291" lon="122.30168290905046"><ele>34.0</ele><time>2026-04-24T07:44:43Z</time></trkpt><trkpt lat="-17.882975108158266" lon="122.30197706453517"><ele>34.0</ele><time>2026-04-24T07:44:44Z</time></trkpt><trkpt lat="-17.882927261716645" lon="122.30226885875952"><ele>34.0</ele><time>2026-04-24T07:44:45Z</time></trkpt><trkpt lat="-17.882880016443867" lon="122.3025621210685"><ele>34.0</ele><time>2026-04-24T07:44:46Z</time></trkpt><trkpt lat="-17.88283272766601" lon="122.30285341689957"><ele>34.0</ele><time>2026-04-24T07:44:47Z</time></trkpt><trkpt lat="-17.882784441306843" lon="122.30314674708252"><ele>34.0</ele><time>2026-04-24T07:44:48Z</time></trkpt><trkpt lat="-17.882733239503253" lon="122.303437039473"><ele>34.0</ele><time>2026-04-24T07:44:49Z</time></trkpt><trkpt lat="-17.882680417814885" lon="122.3037246528622"><ele>34.0</ele><time>2026-04-24T07:44:50Z</time></trkpt><trkpt lat="-17.88262758554182" lon="122.30401012935248"><ele>33.0</ele><time>2026-04-24T07:44:51Z</time></trkpt><trkpt lat="-17.88257962583324" lon="122.30429390331359"><ele>32.0</ele><time>2026-04-24T07:44:52Z</time></trkpt><trkpt lat="-17.8825322503953" lon="122.3045836461918"><ele>32.5</ele><time>2026-04-24T07:44:53Z</time></trkpt><trkpt lat="-17.882485313675012" lon="122.30487084319529"><ele>33.0</ele><time>2026-04-24T07:44:54Z</time></trkpt><trkpt lat="-17.882435936368793" lon="122.30515824051173"><ele>33.0</ele><time>2026-04-24T07:44:55Z</time></trkpt><trkpt lat="-17.882387261066423" lon="122.30544601647848"><ele>33.0</ele><time>2026-04-24T07:44:56Z</time></trkpt><trkpt lat="-17.882337259230223" lon="122.30573108497003"><ele>34.0</ele><time>2026-04-24T07:44:57Z</time></trkpt><trkpt lat="-17.882287334856628" lon="122.30601250812262"><ele>35.0</ele><time>2026-04-24T07:44:58Z</time></trkpt><trkpt lat="-17.882240920577175" lon="122.30629203000504"><ele>34.5</ele><time>2026-04-24T07:44:59Z</time></trkpt><trkpt lat="-17.882196222729196" lon="122.30657228155347"><ele>34.0</ele><time>2026-04-24T07:45:00Z</time></trkpt><trkpt lat="-17.882152416757016" lon="122.30685227570596"><ele>34.0</ele><time>2026-04-24T07:45:01Z</time></trkpt><trkpt lat="-17.88210745984126" lon="122.30713177980482"><ele>34.0</ele><time>2026-04-24T07:45:02Z</time></trkpt><trkpt lat="-17.88205828064056" lon="122.3074079328734"><ele>34.5</ele><time>2026-04-24T07:45:03Z</time></trkpt><trkpt lat="-17.88200724718016" lon="122.30768618210563"><ele>35.0</ele><time>2026-04-24T07:45:04Z</time></trkpt><trkpt lat="-17.88195799307751" lon="122.30796682000079"><ele>35.0</ele><time>2026-04-24T07:45:05Z</time></trkpt><trkpt lat="-17.881909473927475" lon="122.30825029516947"><ele>35.0</ele><time>2026-04-24T07:45:06Z</time></trkpt><trkpt lat="-17.881860708164467" lon="122.3085297062006"><ele>35.0</ele><time>2026-04-24T07:45:07Z</time></trkpt><trkpt lat="-17.881809994591237" lon="122.3088154506231"><ele>35.0</ele><time>2026-04-24T07:45:08Z</time></trkpt><trkpt lat="-17.88176042913542" lon="122.30909825956246"><ele>36.0</ele><time>2026-04-24T07:45:09Z</time></trkpt><trkpt lat="-17.881711938387465" lon="122.30938185208056"><ele>37.0</ele><time>2026-04-24T07:45:10Z</time></trkpt><trkpt lat="-17.88166360976908" lon="122.30966388603902"><ele>37.0</ele><time>2026-04-24T07:45:11Z</time></trkpt><trkpt lat="-17.881615510458158" lon="122.30994701845607"><ele>37.0</ele><time>2026-04-24T07:45:12Z</time></trkpt><trkpt lat="-17.88156560602119" lon="122.31023270049216"><ele>37.0</ele><time>2026-04-24T07:45:13Z</time></trkpt><trkpt lat="-17.881515912162673" lon="122.31051988880208"><ele>37.0</ele><time>2026-04-24T07:45:14Z</time></trkpt><trkpt lat="-17.88146596627171" lon="122.31081176171003"><ele>36.5</ele><time>2026-04-24T07:45:15Z</time></trkpt><trkpt lat="-17.881418620392388" lon="122.31110123843008"><ele>36.0</ele><time>2026-04-24T07:45:16Z</time></trkpt><trkpt lat="-17.88136714693293" lon="122.31139214476153"><ele>36.0</ele><time>2026-04-24T07:45:17Z</time></trkpt><trkpt lat="-17.881312397033987" lon="122.31168419269044"><ele>36.0</ele><time>2026-04-24T07:45:18Z</time></trkpt><trkpt lat="-17.881258101048687" lon="122.31197398338944"><ele>35.5</ele><time>2026-04-24T07:45:19Z</time></trkpt><trkpt lat="-17.881208995194736" lon="122.31226885388752"><ele>35.0</ele><time>2026-04-24T07:45:20Z</time></trkpt><trkpt lat="-17.88116234451942" lon="122.3125614949857"><ele>35.0</ele><time>2026-04-24T07:45:21Z</time></trkpt><trkpt lat="-17.881112816428786" lon="122.31285769805761"><ele>35.0</ele><time>2026-04-24T07:45:22Z</time></trkpt><trkpt lat="-17.881062397557702" lon="122.31315624823213"><ele>35.5</ele><time>2026-04-24T07:45:23Z</time></trkpt><trkpt lat="-17.881012094168526" lon="122.3134529051878"><ele>36.0</ele><time>2026-04-24T07:45:24Z</time></trkpt><trkpt lat="-17.880960928638167" lon="122.31374852539126"><ele>36.5</ele><time>2026-04-24T07:45:25Z</time></trkpt><trkpt lat="-17.880910471979412" lon="122.31404049269511"><ele>37.0</ele><time>2026-04-24T07:45:26Z</time></trkpt><trkpt lat="-17.880858984819316" lon="122.31432669468495"><ele>37.0</ele><time>2026-04-24T07:45:27Z</time></trkpt><trkpt lat="-17.88080848999039" lon="122.31461416251616"><ele>37.0</ele><time>2026-04-24T07:45:28Z</time></trkpt><trkpt lat="-17.880760762627894" lon="122.31489467054537"><ele>37.5</ele><time>2026-04-24T07:45:29Z</time></trkpt><trkpt lat="-17.880715359283144" lon="122.31517435721778"><ele>38.0</ele><time>2026-04-24T07:45:30Z</time></trkpt><trkpt lat="-17.880670418390647" lon="122.315453685783"><ele>38.5</ele><time>2026-04-24T07:45:31Z</time></trkpt><trkpt lat="-17.88062137367832" lon="122.31573549789694"><ele>39.0</ele><time>2026-04-24T07:45:32Z</time></trkpt><trkpt lat="-17.880572276947714" lon="122.3160192800095"><ele>39.0</ele><time>2026-04-24T07:45:33Z</time></trkpt><trkpt lat="-17.880522590140856" lon="122.31630567770439"><ele>39.0</ele><time>2026-04-24T07:45:34Z</time></trkpt><trkpt lat="-17.880474143963976" lon="122.3165948817503"><ele>40.0</ele><time>2026-04-24T07:45:35Z</time></trkpt><trkpt lat="-17.880424229289456" lon="122.31688447787019"><ele>41.0</ele><time>2026-04-24T07:45:36Z</time></trkpt><trkpt lat="-17.88037238963443" lon="122.31717824805503"><ele>41.0</ele><time>2026-04-24T07:45:37Z</time></trkpt><trkpt lat="-17.880320121568047" lon="122.31747688260475"><ele>41.0</ele><time>2026-04-24T07:45:38Z</time></trkpt><trkpt lat="-17.880267828187993" lon="122.31777694558306"><ele>40.5</ele><time>2026-04-24T07:45:39Z</time></trkpt><trkpt lat="-17.880219197703152" lon="122.31806910950144"><ele>40.0</ele><time>2026-04-24T07:45:40Z</time></trkpt><trkpt lat="-17.88017038616416" lon="122.31836208564395"><ele>40.0</ele><time>2026-04-24T07:45:41Z</time></trkpt><trkpt lat="-17.880120956724657" lon="122.31865524463045"><ele>40.0</ele><time>2026-04-24T07:45:42Z</time></trkpt><trkpt lat="-17.8800720783163" lon="122.31894656636614"><ele>42.5</ele><time>2026-04-24T07:45:43Z</time></trkpt><trkpt lat="-17.88002373801997" lon="122.31923809320729"><ele>45.0</ele><time>2026-04-24T07:45:44Z</time></trkpt><trkpt lat="-17.879975587226774" lon="122.31953012984958"><ele>44.5</ele><time>2026-04-24T07:45:45Z</time></trkpt><trkpt lat="-17.8799233767987" lon="122.31981901606625"><ele>44.0</ele><time>2026-04-24T07:45:46Z</time></trkpt><trkpt lat="-17.87986980224239" lon="122.32010851284892"><ele>44.0</ele><time>2026-04-24T07:45:47Z</time></trkpt><trkpt lat="-17.87981735478745" lon="122.32039982412746"><ele>44.0</ele><time>2026-04-24T07:45:48Z</time></trkpt><trkpt lat="-17.8797661130733" lon="122.32069286813295"><ele>44.5</ele><time>2026-04-24T07:45:49Z</time></trkpt><trkpt lat="-17.87971473921616" lon="122.32098521445195"><ele>45.0</ele><time>2026-04-24T07:45:50Z</time></trkpt><trkpt lat="-17.8796613762994" lon="122.32127511612455"><ele>45.0</ele><time>2026-04-24T07:45:51Z</time></trkpt><trkpt lat="-17.87960966695029" lon="122.32156704749057"><ele>45.0</ele><time>2026-04-24T07:45:52Z</time></trkpt><trkpt lat="-17.87956112522401" lon="122.32185665349064"><ele>45.0</ele><time>2026-04-24T07:45:53Z</time></trkpt><trkpt lat="-17.879509019325827" lon="122.32215226666565"><ele>45.0</ele><time>2026-04-24T07:45:54Z</time></trkpt><trkpt lat="-17.879458622084815" lon="122.32244697495375"><ele>44.0</ele><time>2026-04-24T07:45:55Z</time></trkpt><trkpt lat="-17.879407837130575" lon="122.32274278027656"><ele>43.0</ele><time>2026-04-24T07:45:56Z</time></trkpt><trkpt lat="-17.879358037014907" lon="122.32303885779939"><ele>45.0</ele><time>2026-04-24T07:45:57Z</time></trkpt><trkpt lat="-17.879307864752363" lon="122.32333430835875"><ele>47.0</ele><time>2026-04-24T07:45:58Z</time></trkpt><trkpt lat="-17.87925596852276" lon="122.32363319631015"><ele>46.0</ele><time>2026-04-24T07:45:59Z</time></trkpt><trkpt lat="-17.879204033349748" lon="122.32393183518381"><ele>45.0</ele><time>2026-04-24T07:46:00Z</time></trkpt><trkpt lat="-17.879152938780486" lon="122.32423361340607"><ele>45.0</ele><time>2026-04-24T07:46:01Z</time></trkpt><trkpt lat="-17.879101870013578" lon="122.32453622164039"><ele>45.0</ele><time>2026-04-24T07:46:02Z</time></trkpt><trkpt lat="-17.879049356665238" lon="122.32483642311462"><ele>45.0</ele><time>2026-04-24T07:46:03Z</time></trkpt><trkpt lat="-17.87899448658963" lon="122.32513716620234"><ele>45.0</ele><time>2026-04-24T07:46:04Z</time></trkpt><trkpt lat="-17.878941357203686" lon="122.32543860196976"><ele>45.5</ele><time>2026-04-24T07:46:05Z</time></trkpt><trkpt lat="-17.87889027802517" lon="122.32574153504993"><ele>46.0</ele><time>2026-04-24T07:46:06Z</time></trkpt><trkpt lat="-17.878840392961415" lon="122.32604165713919"><ele>46.0</ele><time>2026-04-24T07:46:07Z</time></trkpt><trkpt lat="-17.878786247479553" lon="122.32634187233845"><ele>46.0</ele><time>2026-04-24T07:46:08Z</time></trkpt><trkpt lat="-17.878729849292785" lon="122.32663997532319"><ele>46.0</ele><time>2026-04-24T07:46:09Z</time></trkpt><trkpt lat="-17.878673950329024" lon="122.3269361647046"><ele>46.0</ele><time>2026-04-24T07:46:10Z</time></trkpt><trkpt lat="-17.87862162952738" lon="122.32723281615068"><ele>44.5</ele><time>2026-04-24T07:46:11Z</time></trkpt><trkpt lat="-17.878573423082443" lon="122.32752505912406"><ele>43.0</ele><time>2026-04-24T07:46:12Z</time></trkpt><trkpt lat="-17.878524937420075" lon="122.32781850518589"><ele>44.0</ele><time>2026-04-24T07:46:13Z</time></trkpt><trkpt lat="-17.878475587763337" lon="122.32810967249242"><ele>45.0</ele><time>2026-04-24T07:46:14Z</time></trkpt><trkpt lat="-17.878425811131994" lon="122.32840192501101"><ele>45.0</ele><time>2026-04-24T07:46:15Z</time></trkpt><trkpt lat="-17.878376061688833" lon="122.32869130962702"><ele>45.0</ele><time>2026-04-24T07:46:16Z</time></trkpt><trkpt lat="-17.878323217604173" lon="122.32898097740497"><ele>44.5</ele><time>2026-04-24T07:46:17Z</time></trkpt><trkpt lat="-17.878268992425603" lon="122.32927390721976"><ele>44.0</ele><time>2026-04-24T07:46:18Z</time></trkpt><trkpt lat="-17.878215412990148" lon="122.32957022424509"><ele>44.5</ele><time>2026-04-24T07:46:19Z</time></trkpt><trkpt lat="-17.878164645078982" lon="122.3298653946914"><ele>45.0</ele><time>2026-04-24T07:46:20Z</time></trkpt><trkpt lat="-17.878114602152845" lon="122.33016024575281"><ele>45.0</ele><time>2026-04-24T07:46:21Z</time></trkpt><trkpt lat="-17.8780639684455" lon="122.33045546298398"><ele>45.0</ele><time>2026-04-24T07:46:22Z</time></trkpt><trkpt lat="-17.878014015953987" lon="122.33074817454025"><ele>45.0</ele><time>2026-04-24T07:46:23Z</time></trkpt><trkpt lat="-17.877965735796064" lon="122.33103931378425"><ele>45.0</ele><time>2026-04-24T07:46:24Z</time></trkpt><trkpt lat="-17.877916591521615" lon="122.33132706532598"><ele>44.5</ele><time>2026-04-24T07:46:25Z</time></trkpt><trkpt lat="-17.877864586709688" lon="122.33161480639173"><ele>44.0</ele><time>2026-04-24T07:46:26Z</time></trkpt><trkpt lat="-17.877810138712803" lon="122.33190254027646"><ele>44.0</ele><time>2026-04-24T07:46:27Z</time></trkpt><trkpt lat="-17.877757649114322" lon="122.33219345727585"><ele>44.0</ele><time>2026-04-24T07:46:28Z</time></trkpt><trkpt lat="-17.87770640560995" lon="122.33248592801202"><ele>44.5</ele><time>2026-04-24T07:46:29Z</time></trkpt><trkpt lat="-17.877655627920483" lon="122.3327779127644"><ele>45.0</ele><time>2026-04-24T07:46:30Z</time></trkpt><trkpt lat="-17.877604024183473" lon="122.33307101045004"><ele>45.0</ele><time>2026-04-24T07:46:31Z</time></trkpt><trkpt lat="-17.87755175919054" lon="122.33336369394547"><ele>45.0</ele><time>2026-04-24T07:46:32Z</time></trkpt><trkpt lat="-17.877501554491726" lon="122.33365184519081"><ele>45.0</ele><time>2026-04-24T07:46:33Z</time></trkpt><trkpt lat="-17.877451902637368" lon="122.33394269316013"><ele>45.0</ele><time>2026-04-24T07:46:34Z</time></trkpt><trkpt lat="-17.877404969572346" lon="122.33422831206984"><ele>45.0</ele><time>2026-04-24T07:46:35Z</time></trkpt><trkpt lat="-17.877356812321416" lon="122.33451243078173"><ele>45.0</ele><time>2026-04-24T07:46:36Z</time></trkpt><trkpt lat="-17.877304863689428" lon="122.33479676376815"><ele>45.5</ele><time>2026-04-24T07:46:37Z</time></trkpt><trkpt lat="-17.877252490058297" lon="122.33508077011147"><ele>46.0</ele><time>2026-04-24T07:46:38Z</time></trkpt><trkpt lat="-17.877199501929148" lon="122.3353666612564"><ele>46.5</ele><time>2026-04-24T07:46:39Z</time></trkpt><trkpt lat="-17.877150129289948" lon="122.33564975414575"><ele>47.0</ele><time>2026-04-24T07:46:40Z</time></trkpt><trkpt lat="-17.87710265113127" lon="122.33593466849736"><ele>47.0</ele><time>2026-04-24T07:46:41Z</time></trkpt><trkpt lat="-17.877054810157464" lon="122.33621870549202"><ele>47.0</ele><time>2026-04-24T07:46:42Z</time></trkpt><trkpt lat="-17.87700764316987" lon="122.33650229802042"><ele>47.5</ele><time>2026-04-24T07:46:43Z</time></trkpt><trkpt lat="-17.876961103949636" lon="122.3367853476323"><ele>48.0</ele><time>2026-04-24T07:46:44Z</time></trkpt><trkpt lat="-17.876911431868862" lon="122.3370684393053"><ele>47.5</ele><time>2026-04-24T07:46:45Z</time></trkpt><trkpt lat="-17.876860134611874" lon="122.33735226430184"><ele>47.0</ele><time>2026-04-24T07:46:46Z</time></trkpt><trkpt lat="-17.876806686510417" lon="122.33763257215556"><ele>46.5</ele><time>2026-04-24T07:46:47Z</time></trkpt><trkpt lat="-17.87675540063095" lon="122.33791314679661"><ele>46.0</ele><time>2026-04-24T07:46:48Z</time></trkpt><trkpt lat="-17.876710002383284" lon="122.33819523795445"><ele>46.0</ele><time>2026-04-24T07:46:49Z</time></trkpt><trkpt lat="-17.876663604084726" lon="122.33848646566764"><ele>46.0</ele><time>2026-04-24T07:46:50Z</time></trkpt><trkpt lat="-17.876615434692663" lon="122.33877420343211"><ele>44.5</ele><time>2026-04-24T07:46:51Z</time></trkpt><trkpt lat="-17.87656695311311" lon="122.33906073864425"><ele>43.0</ele><time>2026-04-24T07:46:52Z</time></trkpt><trkpt lat="-17.87651874327779" lon="122.33934799467363"><ele>43.0</ele><time>2026-04-24T07:46:53Z</time></trkpt><trkpt lat="-17.876469530863172" lon="122.33963498578545"><ele>43.0</ele><time>2026-04-24T07:46:54Z</time></trkpt><trkpt lat="-17.876419124389553" lon="122.33992047289226"><ele>43.5</ele><time>2026-04-24T07:46:55Z</time></trkpt><trkpt lat="-17.87636817929776" lon="122.340205951229"><ele>44.0</ele><time>2026-04-24T07:46:56Z</time></trkpt><trkpt lat="-17.8763181022224" lon="122.34049174120288"><ele>44.0</ele><time>2026-04-24T07:46:57Z</time></trkpt><trkpt lat="-17.87626888564279" lon="122.34078086204524"><ele>44.0</ele><time>2026-04-24T07:46:58Z</time></trkpt><trkpt lat="-17.876219881062497" lon="122.3410687764414"><ele>44.0</ele><time>2026-04-24T07:46:59Z</time></trkpt><trkpt lat="-17.876171371062803" lon="122.3413576294871"><ele>44.0</ele><time>2026-04-24T07:47:00Z</time></trkpt><trkpt lat="-17.87612131298304" lon="122.34164880576941"><ele>43.5</ele><time>2026-04-24T07:47:01Z</time></trkpt><trkpt lat="-17.876070435412437" lon="122.341939187284"><ele>43.0</ele><time>2026-04-24T07:47:02Z</time></trkpt><trkpt lat="-17.876018307523022" lon="122.34223308909283"><ele>43.0</ele><time>2026-04-24T07:47:03Z</time></trkpt><trkpt lat="-17.875967824735902" lon="122.34252465919826"><ele>43.0</ele><time>2026-04-24T07:47:04Z</time></trkpt><trkpt lat="-17.87591679675643" lon="122.34281518777382"><ele>41.5</ele><time>2026-04-24T07:47:05Z</time></trkpt><trkpt lat="-17.87586550449824" lon="122.34310292351212"><ele>40.0</ele><time>2026-04-24T07:47:06Z</time></trkpt><trkpt lat="-17.875815247085264" lon="122.34338650837124"><ele>40.0</ele><time>2026-04-24T07:47:07Z</time></trkpt><trkpt lat="-17.875764587372743" lon="122.34366697608466"><ele>40.0</ele><time>2026-04-24T07:47:08Z</time></trkpt><trkpt lat="-17.87571587428496" lon="122.3439434315919"><ele>39.5</ele><time>2026-04-24T07:47:09Z</time></trkpt><trkpt lat="-17.875671236999914" lon="122.34420537217989"><ele>39.0</ele><time>2026-04-24T07:47:10Z</time></trkpt><trkpt lat="-17.875627489937035" lon="122.3444662593251"><ele>38.5</ele><time>2026-04-24T07:47:11Z</time></trkpt><trkpt lat="-17.875582489599218" lon="122.34472925385441"><ele>38.0</ele><time>2026-04-24T07:47:12Z</time></trkpt><trkpt lat="-17.875537177413488" lon="122.34499288294357"><ele>38.0</ele><time>2026-04-24T07:47:13Z</time></trkpt><trkpt lat="-17.875490867384894" lon="122.3452546563276"><ele>38.0</ele><time>2026-04-24T07:47:14Z</time></trkpt><trkpt lat="-17.875444860932635" lon="122.34551810090049"><ele>39.5</ele><time>2026-04-24T07:47:15Z</time></trkpt><trkpt lat="-17.87540084207947" lon="122.34577948697633"><ele>41.0</ele><time>2026-04-24T07:47:16Z</time></trkpt><trkpt lat="-17.8753572777543" lon="122.34604325745974"><ele>41.0</ele><time>2026-04-24T07:47:17Z</time></trkpt><trkpt lat="-17.875314170005968" lon="122.34630536059802"><ele>41.0</ele><time>2026-04-24T07:47:18Z</time></trkpt><trkpt lat="-17.875270405456938" lon="122.34656559446809"><ele>40.5</ele><time>2026-04-24T07:47:19Z</time></trkpt><trkpt lat="-17.875225377620083" lon="122.34682905584457"><ele>40.0</ele><time>2026-04-24T07:47:20Z</time></trkpt><trkpt lat="-17.87517898172657" lon="122.34709135662511"><ele>40.0</ele><time>2026-04-24T07:47:21Z</time></trkpt><trkpt lat="-17.875131315129757" lon="122.34735587454806"><ele>40.0</ele><time>2026-04-24T07:47:22Z</time></trkpt><trkpt lat="-17.8750833799283" lon="122.34762361714196"><ele>39.5</ele><time>2026-04-24T07:47:23Z</time></trkpt><trkpt lat="-17.875035608945062" lon="122.34789375362479"><ele>39.0</ele><time>2026-04-24T07:47:24Z</time></trkpt><trkpt lat="-17.874990515015355" lon="122.34816389137549"><ele>38.5</ele><time>2026-04-24T07:47:25Z</time></trkpt><trkpt lat="-17.87494629884567" lon="122.34843803251886"><ele>38.0</ele><time>2026-04-24T07:47:26Z</time></trkpt><trkpt lat="-17.87489906338754" lon="122.3487087739984"><ele>38.5</ele><time>2026-04-24T07:47:27Z</time></trkpt><trkpt lat="-17.87485265148945" lon="122.34898051981519"><ele>39.0</ele><time>2026-04-24T07:47:28Z</time></trkpt><trkpt lat="-17.874802859582573" lon="122.34925220516284"><ele>39.0</ele><time>2026-04-24T07:47:29Z</time></trkpt><trkpt lat="-17.874753866383642" lon="122.34952242850666"><ele>39.0</ele><time>2026-04-24T07:47:30Z</time></trkpt><trkpt lat="-17.874710038761663" lon="122.34978667652906"><ele>39.0</ele><time>2026-04-24T07:47:31Z</time></trkpt><trkpt lat="-17.87466474144384" lon="122.35005260373406"><ele>39.0</ele><time>2026-04-24T07:47:32Z</time></trkpt><trkpt lat="-17.874620304984454" lon="122.35031805157675"><ele>38.0</ele><time>2026-04-24T07:47:33Z</time></trkpt><trkpt lat="-17.874574684162617" lon="122.35058137935319"><ele>37.0</ele><time>2026-04-24T07:47:34Z</time></trkpt><trkpt lat="-17.874529234860347" lon="122.35084443473714"><ele>37.0</ele><time>2026-04-24T07:47:35Z</time></trkpt><trkpt lat="-17.874481576356327" lon="122.35110759909786"><ele>37.0</ele><time>2026-04-24T07:47:36Z</time></trkpt><trkpt lat="-17.874434623499898" lon="122.35137143824568"><ele>36.5</ele><time>2026-04-24T07:47:37Z</time></trkpt><trkpt lat="-17.874390934239024" lon="122.35163283692069"><ele>36.0</ele><time>2026-04-24T07:47:38Z</time></trkpt><trkpt lat="-17.87434736491967" lon="122.35189904163221"><ele>36.0</ele><time>2026-04-24T07:47:39Z</time></trkpt><trkpt lat="-17.874301247976607" lon="122.35216263629525"><ele>36.0</ele><time>2026-04-24T07:47:40Z</time></trkpt><trkpt lat="-17.874249558831664" lon="122.35243498912368"><ele>36.0</ele><time>2026-04-24T07:47:41Z</time></trkpt><trkpt lat="-17.874201632876122" lon="122.35271239196287"><ele>36.0</ele><time>2026-04-24T07:47:42Z</time></trkpt><trkpt lat="-17.87415599498439" lon="122.35298848206406"><ele>35.5</ele><time>2026-04-24T07:47:43Z</time></trkpt><trkpt lat="-17.874108422493" lon="122.35326646208544"><ele>35.0</ele><time>2026-04-24T07:47:44Z</time></trkpt><trkpt lat="-17.874062019828468" lon="122.35354571747617"><ele>35.0</ele><time>2026-04-24T07:47:45Z</time></trkpt><trkpt lat="-17.87401481979765" lon="122.35382368598351"><ele>35.0</ele><time>2026-04-24T07:47:46Z</time></trkpt><trkpt lat="-17.87396807250599" lon="122.35410086538803"><ele>35.0</ele><time>2026-04-24T07:47:47Z</time></trkpt><trkpt lat="-17.873918221004136" lon="122.35438272158144"><ele>35.0</ele><time>2026-04-24T07:47:48Z</time></trkpt><trkpt lat="-17.873867714082575" lon="122.35466867955147"><ele>35.5</ele><time>2026-04-24T07:47:49Z</time></trkpt><trkpt lat="-17.873817787669392" lon="122.35495652243226"><ele>36.0</ele><time>2026-04-24T07:47:50Z</time></trkpt><trkpt lat="-17.87376631827254" lon="122.35525170008"><ele>36.0</ele><time>2026-04-24T07:47:51Z</time></trkpt><trkpt lat="-17.87371511007154" lon="122.35554621938886"><ele>36.0</ele><time>2026-04-24T07:47:52Z</time></trkpt><trkpt lat="-17.873665091512475" lon="122.3558431398937"><ele>36.0</ele><time>2026-04-24T07:47:53Z</time></trkpt><trkpt lat="-17.873616123688983" lon="122.35614237241106"><ele>36.0</ele><time>2026-04-24T07:47:54Z</time></trkpt><trkpt lat="-17.873562616649174" lon="122.35644525353226"><ele>36.5</ele><time>2026-04-24T07:47:55Z</time></trkpt><trkpt lat="-17.87350629905964" lon="122.35675258988275"><ele>37.0</ele><time>2026-04-24T07:47:56Z</time></trkpt><trkpt lat="-17.873451627894383" lon="122.35705803405219"><ele>35.5</ele><time>2026-04-24T07:47:57Z</time></trkpt><trkpt lat="-17.87339813024143" lon="122.35736687415562"><ele>34.0</ele><time>2026-04-24T07:47:58Z</time></trkpt><trkpt lat="-17.87334576437004" lon="122.35767665601566"><ele>34.0</ele><time>2026-04-24T07:47:59Z</time></trkpt><trkpt lat="-17.873292352549043" lon="122.35799040015661"><ele>34.0</ele><time>2026-04-24T07:48:00Z</time></trkpt><trkpt lat="-17.873237933312392" lon="122.35830497239719"><ele>34.5</ele><time>2026-04-24T07:48:01Z</time></trkpt><trkpt lat="-17.873182322428807" lon="122.35861693600488"><ele>35.0</ele><time>2026-04-24T07:48:02Z</time></trkpt><trkpt lat="-17.87312617713934" lon="122.35893157641111"><ele>35.0</ele><time>2026-04-24T07:48:03Z</time></trkpt><trkpt lat="-17.873073406210555" lon="122.35924487282378"><ele>35.0</ele><time>2026-04-24T07:48:04Z</time></trkpt><trkpt lat="-17.873020564710107" lon="122.35955539741877"><ele>35.0</ele><time>2026-04-24T07:48:05Z</time></trkpt><trkpt lat="-17.8729681429258" lon="122.35986317229262"><ele>35.0</ele><time>2026-04-24T07:48:06Z</time></trkpt><trkpt lat="-17.872915917182965" lon="122.36017052658549"><ele>35.0</ele><time>2026-04-24T07:48:07Z</time></trkpt><trkpt lat="-17.87286294353471" lon="122.36048053284307"><ele>35.0</ele><time>2026-04-24T07:48:08Z</time></trkpt><trkpt lat="-17.872810451052093" lon="122.36078677279362"><ele>35.0</ele><time>2026-04-24T07:48:09Z</time></trkpt><trkpt lat="-17.872759087002123" lon="122.36109328401116"><ele>35.0</ele><time>2026-04-24T07:48:10Z</time></trkpt><trkpt lat="-17.872707088047623" lon="122.36140311778118"><ele>34.0</ele><time>2026-04-24T07:48:11Z</time></trkpt><trkpt lat="-17.87265176464414" lon="122.36171326318885"><ele>33.0</ele><time>2026-04-24T07:48:12Z</time></trkpt><trkpt lat="-17.872597744638522" lon="122.36202562108367"><ele>34.0</ele><time>2026-04-24T07:48:13Z</time></trkpt><trkpt lat="-17.87254203062786" lon="122.36233840506532"><ele>35.0</ele><time>2026-04-24T07:48:14Z</time></trkpt><trkpt lat="-17.87248922237191" lon="122.36263774648945"><ele>35.0</ele><time>2026-04-24T07:48:15Z</time></trkpt><trkpt lat="-17.87243834194183" lon="122.36293134194155"><ele>35.0</ele><time>2026-04-24T07:48:16Z</time></trkpt><trkpt lat="-17.872387084852697" lon="122.3632249007881"><ele>34.5</ele><time>2026-04-24T07:48:17Z</time></trkpt><trkpt lat="-17.87233591874128" lon="122.36352022292772"><ele>34.0</ele><time>2026-04-24T07:48:18Z</time></trkpt><trkpt lat="-17.87228578761248" lon="122.36380527663275"><ele>33.0</ele><time>2026-04-24T07:48:19Z</time></trkpt><trkpt lat="-17.87223975043503" lon="122.3640681423432"><ele>32.0</ele><time>2026-04-24T07:48:20Z</time></trkpt><trkpt lat="-17.87219552582293" lon="122.36433564416869"><ele>32.0</ele><time>2026-04-24T07:48:21Z</time></trkpt><trkpt lat="-17.872148698434856" lon="122.36461259469216"><ele>32.0</ele><time>2026-04-24T07:48:22Z</time></trkpt><trkpt lat="-17.87209985371961" lon="122.36489673108153"><ele>33.0</ele><time>2026-04-24T07:48:23Z</time></trkpt><trkpt lat="-17.872049508878117" lon="122.36518350200478"><ele>34.0</ele><time>2026-04-24T07:48:24Z</time></trkpt><trkpt lat="-17.87200001067992" lon="122.36547651353236"><ele>34.0</ele><time>2026-04-24T07:48:25Z</time></trkpt><trkpt lat="-17.871950316705448" lon="122.36577149033613"><ele>34.0</ele><time>2026-04-24T07:48:26Z</time></trkpt><trkpt lat="-17.87190127039778" lon="122.3660720166336"><ele>34.0</ele><time>2026-04-24T07:48:27Z</time></trkpt><trkpt lat="-17.87185168498347" lon="122.36637230263597"><ele>34.0</ele><time>2026-04-24T07:48:28Z</time></trkpt><trkpt lat="-17.871801047110704" lon="122.36667454278397"><ele>34.0</ele><time>2026-04-24T07:48:29Z</time></trkpt><trkpt lat="-17.871747347339195" lon="122.36697693200757"><ele>34.0</ele><time>2026-04-24T07:48:30Z</time></trkpt><trkpt lat="-17.87169317185141" lon="122.36727784309112"><ele>33.5</ele><time>2026-04-24T07:48:31Z</time></trkpt><trkpt lat="-17.871636732616068" lon="122.36757890273906"><ele>33.0</ele><time>2026-04-24T07:48:32Z</time></trkpt><trkpt lat="-17.87158071107444" lon="122.36787710433828"><ele>33.5</ele><time>2026-04-24T07:48:33Z</time></trkpt><trkpt lat="-17.871525563369577" lon="122.36817347749698"><ele>34.0</ele><time>2026-04-24T07:48:34Z</time></trkpt><trkpt lat="-17.87147471690588" lon="122.36846974931342"><ele>34.0</ele><time>2026-04-24T07:48:35Z</time></trkpt><trkpt lat="-17.871427289830724" lon="122.36876770046494"><ele>34.0</ele><time>2026-04-24T07:48:36Z</time></trkpt><trkpt lat="-17.871379027063202" lon="122.36906708091834"><ele>32.5</ele><time>2026-04-24T07:48:37Z</time></trkpt><trkpt lat="-17.871329168545188" lon="122.3693688321952"><ele>31.0</ele><time>2026-04-24T07:48:38Z</time></trkpt><trkpt lat="-17.871277578892947" lon="122.36966782813772"><ele>30.5</ele><time>2026-04-24T07:48:39Z</time></trkpt><trkpt lat="-17.87122310458855" lon="122.36997044408419"><ele>30.0</ele><time>2026-04-24T07:48:40Z</time></trkpt><trkpt lat="-17.871169970276643" lon="122.37027376056905"><ele>30.0</ele><time>2026-04-24T07:48:41Z</time></trkpt><trkpt lat="-17.871116445020302" lon="122.37058050408466"><ele>30.0</ele><time>2026-04-24T07:48:42Z</time></trkpt><trkpt lat="-17.87106332908365" lon="122.37088763268163"><ele>30.0</ele><time>2026-04-24T07:48:43Z</time></trkpt><trkpt lat="-17.871010471807672" lon="122.37119204026115"><ele>30.0</ele><time>2026-04-24T07:48:44Z</time></trkpt><trkpt lat="-17.870958484710904" lon="122.37149353532419"><ele>30.5</ele><time>2026-04-24T07:48:45Z</time></trkpt><trkpt lat="-17.870908136550383" lon="122.3717906445084"><ele>31.0</ele><time>2026-04-24T07:48:46Z</time></trkpt><trkpt lat="-17.870854967115296" lon="122.37208998601697"><ele>29.5</ele><time>2026-04-24T07:48:47Z</time></trkpt><trkpt lat="-17.870802784853776" lon="122.37238298050964"><ele>28.0</ele><time>2026-04-24T07:48:48Z</time></trkpt><trkpt lat="-17.870751806169544" lon="122.37267350080411"><ele>28.0</ele><time>2026-04-24T07:48:49Z</time></trkpt><trkpt lat="-17.870700035410305" lon="122.37296252235583"><ele>28.0</ele><time>2026-04-24T07:48:50Z</time></trkpt><trkpt lat="-17.870648933011807" lon="122.3732522885843"><ele>29.0</ele><time>2026-04-24T07:48:51Z</time></trkpt><trkpt lat="-17.870598420785686" lon="122.37354233783631"><ele>30.0</ele><time>2026-04-24T07:48:52Z</time></trkpt><trkpt lat="-17.870548464453467" lon="122.37383643416008"><ele>29.5</ele><time>2026-04-24T07:48:53Z</time></trkpt><trkpt lat="-17.87049841797999" lon="122.37413342650296"><ele>29.0</ele><time>2026-04-24T07:48:54Z</time></trkpt><trkpt lat="-17.87044571441354" lon="122.37443405866199"><ele>29.5</ele><time>2026-04-24T07:48:55Z</time></trkpt><trkpt lat="-17.87039331418634" lon="122.37473032583951"><ele>30.0</ele><time>2026-04-24T07:48:56Z</time></trkpt><trkpt lat="-17.870342143686553" lon="122.37502948002026"><ele>30.0</ele><time>2026-04-24T07:48:57Z</time></trkpt><trkpt lat="-17.870288819534714" lon="122.37532792484598"><ele>30.0</ele><time>2026-04-24T07:48:58Z</time></trkpt><trkpt lat="-17.870235748516933" lon="122.3756266429548"><ele>30.0</ele><time>2026-04-24T07:48:59Z</time></trkpt><trkpt lat="-17.870183419383945" lon="122.37592633727598"><ele>30.0</ele><time>2026-04-24T07:49:00Z</time></trkpt><trkpt lat="-17.87013247224147" lon="122.3762287129384"><ele>29.5</ele><time>2026-04-24T07:49:01Z</time></trkpt><trkpt lat="-17.870081632134266" lon="122.37653115499728"><ele>29.0</ele><time>2026-04-24T07:49:02Z</time></trkpt><trkpt lat="-17.870033414410983" lon="122.37683448155649"><ele>29.0</ele><time>2026-04-24T07:49:03Z</time></trkpt><trkpt lat="-17.869984007403033" lon="122.37713778815804"><ele>29.0</ele><time>2026-04-24T07:49:04Z</time></trkpt><trkpt lat="-17.869931871142903" lon="122.37744404258551"><ele>28.5</ele><time>2026-04-24T07:49:05Z</time></trkpt><trkpt lat="-17.869880134608113" lon="122.37775012261854"><ele>28.0</ele><time>2026-04-24T07:49:06Z</time></trkpt><trkpt lat="-17.86982611689608" lon="122.37805653910411"><ele>28.0</ele><time>2026-04-24T07:49:07Z</time></trkpt><trkpt lat="-17.869772908552118" lon="122.3783608373033"><ele>28.0</ele><time>2026-04-24T07:49:08Z</time></trkpt><trkpt lat="-17.86971902578546" lon="122.37866796443394"><ele>27.5</ele><time>2026-04-24T07:49:09Z</time></trkpt><trkpt lat="-17.869667743414013" lon="122.37897343139561"><ele>27.0</ele><time>2026-04-24T07:49:10Z</time></trkpt><trkpt lat="-17.869614221709206" lon="122.37928033001178"><ele>27.0</ele><time>2026-04-24T07:49:11Z</time></trkpt><trkpt lat="-17.869563015032927" lon="122.37958276217006"><ele>27.0</ele><time>2026-04-24T07:49:12Z</time></trkpt><trkpt lat="-17.869512153336473" lon="122.37988841413062"><ele>28.0</ele><time>2026-04-24T07:49:13Z</time></trkpt><trkpt lat="-17.86945874192181" lon="122.38019241753751"><ele>29.0</ele><time>2026-04-24T07:49:14Z</time></trkpt><trkpt lat="-17.869405573771218" lon="122.3804973964774"><ele>28.5</ele><time>2026-04-24T07:49:15Z</time></trkpt><trkpt lat="-17.86935194750657" lon="122.38079984321851"><ele>28.0</ele><time>2026-04-24T07:49:16Z</time></trkpt><trkpt lat="-17.869298273274264" lon="122.38110164337132"><ele>28.0</ele><time>2026-04-24T07:49:17Z</time></trkpt><trkpt lat="-17.869244803571863" lon="122.38140132637345"><ele>28.0</ele><time>2026-04-24T07:49:18Z</time></trkpt><trkpt lat="-17.86919212138395" lon="122.38169759401262"><ele>28.0</ele><time>2026-04-24T07:49:19Z</time></trkpt><trkpt lat="-17.869141971528833" lon="122.38199327768247"><ele>28.0</ele><time>2026-04-24T07:49:20Z</time></trkpt><trkpt lat="-17.86909037629555" lon="122.38229015826623"><ele>27.5</ele><time>2026-04-24T07:49:21Z</time></trkpt><trkpt lat="-17.869041282128876" lon="122.3825824750428"><ele>27.0</ele><time>2026-04-24T07:49:22Z</time></trkpt><trkpt lat="-17.868990892713782" lon="122.38287515061009"><ele>28.5</ele><time>2026-04-24T07:49:23Z</time></trkpt><trkpt lat="-17.86894002781769" lon="122.38316551804196"><ele>30.0</ele><time>2026-04-24T07:49:24Z</time></trkpt><trkpt lat="-17.868891518565142" lon="122.3834562355214"><ele>30.0</ele><time>2026-04-24T07:49:25Z</time></trkpt><trkpt lat="-17.868843423886528" lon="122.38374648696261"><ele>30.0</ele><time>2026-04-24T07:49:26Z</time></trkpt><trkpt lat="-17.868792501914964" lon="122.38403473188086"><ele>30.5</ele><time>2026-04-24T07:49:27Z</time></trkpt><trkpt lat="-17.868744444708" lon="122.38432096223632"><ele>31.0</ele><time>2026-04-24T07:49:28Z</time></trkpt><trkpt lat="-17.868693444502508" lon="122.38461578927433"><ele>29.5</ele><time>2026-04-24T07:49:29Z</time></trkpt><trkpt lat="-17.868642059540733" lon="122.38491117323706"><ele>28.0</ele><time>2026-04-24T07:49:30Z</time></trkpt><trkpt lat="-17.868590503303974" lon="122.38520922847205"><ele>28.0</ele><time>2026-04-24T07:49:31Z</time></trkpt><trkpt lat="-17.86853727949113" lon="122.38550855041971"><ele>28.0</ele><time>2026-04-24T07:49:32Z</time></trkpt><trkpt lat="-17.868485907543043" lon="122.38580773238007"><ele>27.5</ele><time>2026-04-24T07:49:33Z</time></trkpt><trkpt lat="-17.86843400459456" lon="122.38610898886934"><ele>27.0</ele><time>2026-04-24T07:49:34Z</time></trkpt><trkpt lat="-17.86838018136437" lon="122.38641253441156"><ele>28.0</ele><time>2026-04-24T07:49:35Z</time></trkpt><trkpt lat="-17.868326288141812" lon="122.38671873947827"><ele>29.0</ele><time>2026-04-24T07:49:36Z</time></trkpt><trkpt lat="-17.86827285599303" lon="122.3870209995706"><ele>28.0</ele><time>2026-04-24T07:49:37Z</time></trkpt><trkpt lat="-17.8682203150929" lon="122.3873250149838"><ele>27.0</ele><time>2026-04-24T07:49:38Z</time></trkpt><trkpt lat="-17.868165847656496" lon="122.38763101823879"><ele>27.0</ele><time>2026-04-24T07:49:39Z</time></trkpt><trkpt lat="-17.868114061670408" lon="122.38793407244532"><ele>27.0</ele><time>2026-04-24T07:49:40Z</time></trkpt><trkpt lat="-17.86806297275507" lon="122.38823708477076"><ele>28.0</ele><time>2026-04-24T07:49:41Z</time></trkpt><trkpt lat="-17.868011051951054" lon="122.38853818008455"><ele>29.0</ele><time>2026-04-24T07:49:42Z</time></trkpt><trkpt lat="-17.86795734961274" lon="122.38884028637169"><ele>29.5</ele><time>2026-04-24T07:49:43Z</time></trkpt><trkpt lat="-17.86790567785626" lon="122.38913924207164"><ele>30.0</ele><time>2026-04-24T07:49:44Z</time></trkpt><trkpt lat="-17.8678551335483" lon="122.3894388569262"><ele>29.0</ele><time>2026-04-24T07:49:45Z</time></trkpt><trkpt lat="-17.867803351685534" lon="122.38974110058399"><ele>28.0</ele><time>2026-04-24T07:49:46Z</time></trkpt><trkpt lat="-17.867751142512347" lon="122.39004711314104"><ele>28.0</ele><time>2026-04-24T07:49:47Z</time></trkpt><trkpt lat="-17.867696581398548" lon="122.39035195351936"><ele>28.0</ele><time>2026-04-24T07:49:48Z</time></trkpt><trkpt lat="-17.867643037239844" lon="122.39065328234105"><ele>29.0</ele><time>2026-04-24T07:49:49Z</time></trkpt><trkpt lat="-17.867590250323047" lon="122.39095447620845"><ele>30.0</ele><time>2026-04-24T07:49:50Z</time></trkpt><trkpt lat="-17.86753937437624" lon="122.39125439383294"><ele>30.5</ele><time>2026-04-24T07:49:51Z</time></trkpt><trkpt lat="-17.867486868833836" lon="122.39155346249464"><ele>31.0</ele><time>2026-04-24T07:49:52Z</time></trkpt><trkpt lat="-17.86743287028821" lon="122.39185158041384"><ele>31.0</ele><time>2026-04-24T07:49:53Z</time></trkpt><trkpt lat="-17.867380201690143" lon="122.39215055662187"><ele>31.0</ele><time>2026-04-24T07:49:54Z</time></trkpt><trkpt lat="-17.867330359472" lon="122.39244691555474"><ele>31.0</ele><time>2026-04-24T07:49:55Z</time></trkpt><trkpt lat="-17.867281648752677" lon="122.39274272290092"><ele>31.0</ele><time>2026-04-24T07:49:56Z</time></trkpt><trkpt lat="-17.867233960209656" lon="122.39303746429373"><ele>31.0</ele><time>2026-04-24T07:49:57Z</time></trkpt><trkpt lat="-17.867184995395153" lon="122.39333111025704"><ele>31.0</ele><time>2026-04-24T07:49:58Z</time></trkpt><trkpt lat="-17.867136830773067" lon="122.3936207327147"><ele>30.0</ele><time>2026-04-24T07:49:59Z</time></trkpt><trkpt lat="-17.86708562491724" lon="122.39390582442105"><ele>29.0</ele><time>2026-04-24T07:50:00Z</time></trkpt><trkpt lat="-17.867035169241582" lon="122.39419178906452"><ele>29.0</ele><time>2026-04-24T07:50:01Z</time></trkpt><trkpt lat="-17.86698544615302" lon="122.39447935907116"><ele>29.0</ele><time>2026-04-24T07:50:02Z</time></trkpt><trkpt lat="-17.866933798767455" lon="122.39476746971069"><ele>29.5</ele><time>2026-04-24T07:50:03Z</time></trkpt><trkpt lat="-17.866883871997956" lon="122.39505849928317"><ele>30.0</ele><time>2026-04-24T07:50:04Z</time></trkpt><trkpt lat="-17.866830943863228" lon="122.39535312762702"><ele>30.5</ele><time>2026-04-24T07:50:05Z</time></trkpt><trkpt lat="-17.866781400266643" lon="122.39564464170039"><ele>31.0</ele><time>2026-04-24T07:50:06Z</time></trkpt><trkpt lat="-17.866729004679332" lon="122.39593730169882"><ele>31.5</ele><time>2026-04-24T07:50:07Z</time></trkpt><trkpt lat="-17.86667567460054" lon="122.39623322494782"><ele>32.0</ele><time>2026-04-24T07:50:08Z</time></trkpt><trkpt lat="-17.866625186574435" lon="122.39653049960582"><ele>32.0</ele><time>2026-04-24T07:50:09Z</time></trkpt><trkpt lat="-17.866574075964525" lon="122.39683142270503"><ele>32.0</ele><time>2026-04-24T07:50:10Z</time></trkpt><trkpt lat="-17.866525065427496" lon="122.397131039158"><ele>32.5</ele><time>2026-04-24T07:50:11Z</time></trkpt><trkpt lat="-17.866474805023763" lon="122.39743312821403"><ele>33.0</ele><time>2026-04-24T07:50:12Z</time></trkpt><trkpt lat="-17.866423603389332" lon="122.39773136329632"><ele>32.5</ele><time>2026-04-24T07:50:13Z</time></trkpt><trkpt lat="-17.866369419799877" lon="122.39803107679215"><ele>32.0</ele><time>2026-04-24T07:50:14Z</time></trkpt><trkpt lat="-17.866314605849208" lon="122.398326154697"><ele>32.0</ele><time>2026-04-24T07:50:15Z</time></trkpt><trkpt lat="-17.866261884876902" lon="122.39862075010734"><ele>32.0</ele><time>2026-04-24T07:50:16Z</time></trkpt><trkpt lat="-17.86621112850823" lon="122.39891159060174"><ele>30.5</ele><time>2026-04-24T07:50:17Z</time></trkpt><trkpt lat="-17.86615938988933" lon="122.39920885118202"><ele>29.0</ele><time>2026-04-24T07:50:18Z</time></trkpt><trkpt lat="-17.86611038614868" lon="122.39950394745009"><ele>31.5</ele><time>2026-04-24T07:50:19Z</time></trkpt><trkpt lat="-17.86606166136569" lon="122.39979906649874"><ele>34.0</ele><time>2026-04-24T07:50:20Z</time></trkpt><trkpt lat="-17.866017016705367" lon="122.40008902439436"><ele>34.0</ele><time>2026-04-24T07:50:21Z</time></trkpt><trkpt lat="-17.865972145953968" lon="122.4003714046728"><ele>34.0</ele><time>2026-04-24T07:50:22Z</time></trkpt><trkpt lat="-17.86592471865301" lon="122.40065155481389"><ele>33.5</ele><time>2026-04-24T07:50:23Z</time></trkpt><trkpt lat="-17.865878360330118" lon="122.4009333259625"><ele>33.0</ele><time>2026-04-24T07:50:24Z</time></trkpt><trkpt lat="-17.865835801714034" lon="122.40120446870206"><ele>33.0</ele><time>2026-04-24T07:50:25Z</time></trkpt><trkpt lat="-17.865793964915383" lon="122.40147621539826"><ele>33.0</ele><time>2026-04-24T07:50:26Z</time></trkpt><trkpt lat="-17.865748196820917" lon="122.40175457069286"><ele>33.0</ele><time>2026-04-24T07:50:27Z</time></trkpt><trkpt lat="-17.86569861230183" lon="122.40204309945878"><ele>33.0</ele><time>2026-04-24T07:50:28Z</time></trkpt><trkpt lat="-17.86565004996828" lon="122.40234013499649"><ele>31.5</ele><time>2026-04-24T07:50:29Z</time></trkpt><trkpt lat="-17.865601705131247" lon="122.40263750376985"><ele>30.0</ele><time>2026-04-24T07:50:30Z</time></trkpt><trkpt lat="-17.865547598247527" lon="122.40293255441911"><ele>31.0</ele><time>2026-04-24T07:50:31Z</time></trkpt><trkpt lat="-17.865492016624582" lon="122.40321880873906"><ele>32.0</ele><time>2026-04-24T07:50:32Z</time></trkpt><trkpt lat="-17.865433124452363" lon="122.40350213142752"><ele>32.0</ele><time>2026-04-24T07:50:33Z</time></trkpt><trkpt lat="-17.865379215394206" lon="122.40378231383572"><ele>32.0</ele><time>2026-04-24T07:50:34Z</time></trkpt><trkpt lat="-17.865330183569345" lon="122.40406070296291"><ele>31.5</ele><time>2026-04-24T07:50:35Z</time></trkpt><trkpt lat="-17.865283284701896" lon="122.40432869418161"><ele>31.0</ele><time>2026-04-24T07:50:36Z</time></trkpt><trkpt lat="-17.865237322666918" lon="122.40458752568036"><ele>30.5</ele><time>2026-04-24T07:50:37Z</time></trkpt><trkpt lat="-17.86519347104775" lon="122.40484287208774"><ele>30.0</ele><time>2026-04-24T07:50:38Z</time></trkpt><trkpt lat="-17.865149866480348" lon="122.40509391796986"><ele>30.0</ele><time>2026-04-24T07:50:39Z</time></trkpt><trkpt lat="-17.86511045677721" lon="122.40533847454233"><ele>30.0</ele><time>2026-04-24T07:50:40Z</time></trkpt><trkpt lat="-17.865072795894932" lon="122.40560042565653"><ele>30.0</ele><time>2026-04-24T07:50:41Z</time></trkpt><trkpt lat="-17.865039048561236" lon="122.40587454381523"><ele>30.0</ele><time>2026-04-24T07:50:42Z</time></trkpt><trkpt lat="-17.864999828907585" lon="122.4061535610448"><ele>30.5</ele><time>2026-04-24T07:50:43Z</time></trkpt><trkpt lat="-17.864948866719345" lon="122.40643352544484"><ele>31.0</ele><time>2026-04-24T07:50:44Z</time></trkpt><trkpt lat="-17.864888982635588" lon="122.4067158354073"><ele>31.0</ele><time>2026-04-24T07:50:45Z</time></trkpt><trkpt lat="-17.86482131113003" lon="122.40700637818769"><ele>31.0</ele><time>2026-04-24T07:50:46Z</time></trkpt><trkpt lat="-17.86476122050595" lon="122.40730051676913"><ele>30.0</ele><time>2026-04-24T07:50:47Z</time></trkpt><trkpt lat="-17.864705697927597" lon="122.40760154774404"><ele>29.0</ele><time>2026-04-24T07:50:48Z</time></trkpt><trkpt lat="-17.86465592398686" lon="122.40789929310824"><ele>29.0</ele><time>2026-04-24T07:50:49Z</time></trkpt><trkpt lat="-17.86460502877901" lon="122.40819983691794"><ele>29.0</ele><time>2026-04-24T07:50:50Z</time></trkpt><trkpt lat="-17.864553823607203" lon="122.40850329011224"><ele>29.0</ele><time>2026-04-24T07:50:51Z</time></trkpt><trkpt lat="-17.8645019307254" lon="122.40880199502512"><ele>29.0</ele><time>2026-04-24T07:50:52Z</time></trkpt><trkpt lat="-17.86445212991363" lon="122.40909850741734"><ele>28.5</ele><time>2026-04-24T07:50:53Z</time></trkpt><trkpt lat="-17.864399092924273" lon="122.40939293271036"><ele>28.0</ele><time>2026-04-24T07:50:54Z</time></trkpt><trkpt lat="-17.864344773797942" lon="122.4096868202963"><ele>28.0</ele><time>2026-04-24T07:50:55Z</time></trkpt><trkpt lat="-17.86429276302945" lon="122.40997668059445"><ele>28.0</ele><time>2026-04-24T07:50:56Z</time></trkpt><trkpt lat="-17.864242704322088" lon="122.41026280919874"><ele>27.0</ele><time>2026-04-24T07:50:57Z</time></trkpt><trkpt lat="-17.864194111439534" lon="122.41054500281402"><ele>26.0</ele><time>2026-04-24T07:50:58Z</time></trkpt><trkpt lat="-17.864143999576246" lon="122.41082866368653"><ele>26.0</ele><time>2026-04-24T07:50:59Z</time></trkpt><trkpt lat="-17.864094376829744" lon="122.41111183933823"><ele>26.0</ele><time>2026-04-24T07:51:00Z</time></trkpt><trkpt lat="-17.864046509724297" lon="122.41139730982592"><ele>27.0</ele><time>2026-04-24T07:51:01Z</time></trkpt><trkpt lat="-17.86399663021286" lon="122.41168599262538"><ele>28.0</ele><time>2026-04-24T07:51:02Z</time></trkpt><trkpt lat="-17.863947130119758" lon="122.41197289795878"><ele>27.5</ele><time>2026-04-24T07:51:03Z</time></trkpt><trkpt lat="-17.86389742132639" lon="122.41226305943206"><ele>27.0</ele><time>2026-04-24T07:51:04Z</time></trkpt><trkpt lat="-17.863847536581527" lon="122.41255027702834"><ele>27.0</ele><time>2026-04-24T07:51:05Z</time></trkpt><trkpt lat="-17.86379652681406" lon="122.41284412499192"><ele>27.0</ele><time>2026-04-24T07:51:06Z</time></trkpt><trkpt lat="-17.863748245792944" lon="122.41313269609387"><ele>26.5</ele><time>2026-04-24T07:51:07Z</time></trkpt><trkpt lat="-17.86369878130885" lon="122.41342236056573"><ele>26.0</ele><time>2026-04-24T07:51:08Z</time></trkpt><trkpt lat="-17.86364909412128" lon="122.41371367032912"><ele>27.0</ele><time>2026-04-24T07:51:09Z</time></trkpt><trkpt lat="-17.863597808366492" lon="122.41400652506381"><ele>28.0</ele><time>2026-04-24T07:51:10Z</time></trkpt><trkpt lat="-17.863548460451533" lon="122.41429832584905"><ele>28.0</ele><time>2026-04-24T07:51:11Z</time></trkpt><trkpt lat="-17.863497029736045" lon="122.41458979260479"><ele>28.0</ele><time>2026-04-24T07:51:12Z</time></trkpt><trkpt lat="-17.863446773572942" lon="122.41488195925471"><ele>29.0</ele><time>2026-04-24T07:51:13Z</time></trkpt><trkpt lat="-17.863398305723983" lon="122.41517389392489"><ele>30.0</ele><time>2026-04-24T07:51:14Z</time></trkpt><trkpt lat="-17.863348359050303" lon="122.41546614617734"><ele>29.5</ele><time>2026-04-24T07:51:15Z</time></trkpt><trkpt lat="-17.86329713411604" lon="122.41576091952649"><ele>29.0</ele><time>2026-04-24T07:51:16Z</time></trkpt><trkpt lat="-17.86324454503923" lon="122.41605646480946"><ele>28.5</ele><time>2026-04-24T07:51:17Z</time></trkpt><trkpt lat="-17.86319212886163" lon="122.41635267665403"><ele>28.0</ele><time>2026-04-24T07:51:18Z</time></trkpt><trkpt lat="-17.86314050516128" lon="122.41664641875232"><ele>28.0</ele><time>2026-04-24T07:51:19Z</time></trkpt><trkpt lat="-17.86308931549856" lon="122.41694191361383"><ele>28.0</ele><time>2026-04-24T07:51:20Z</time></trkpt><trkpt lat="-17.863039811140002" lon="122.41723476872792"><ele>27.0</ele><time>2026-04-24T07:51:21Z</time></trkpt><trkpt lat="-17.862986891843388" lon="122.41752705041262"><ele>26.0</ele><time>2026-04-24T07:51:22Z</time></trkpt><trkpt lat="-17.86293437299371" lon="122.41781903920338"><ele>25.5</ele><time>2026-04-24T07:51:23Z</time></trkpt><trkpt lat="-17.862883022558716" lon="122.41810896917409"><ele>25.0</ele><time>2026-04-24T07:51:24Z</time></trkpt><trkpt lat="-17.862833505110764" lon="122.4183998826085"><ele>25.0</ele><time>2026-04-24T07:51:25Z</time></trkpt><trkpt lat="-17.862784068691916" lon="122.41869199375495"><ele>25.0</ele><time>2026-04-24T07:51:26Z</time></trkpt><trkpt lat="-17.86273097839918" lon="122.41898518243622"><ele>25.5</ele><time>2026-04-24T07:51:27Z</time></trkpt><trkpt lat="-17.862679505943497" lon="122.41927851126181"><ele>26.0</ele><time>2026-04-24T07:51:28Z</time></trkpt><trkpt lat="-17.862630451669364" lon="122.419571779509"><ele>26.0</ele><time>2026-04-24T07:51:29Z</time></trkpt><trkpt lat="-17.862581363302105" lon="122.41986518912654"><ele>26.0</ele><time>2026-04-24T07:51:30Z</time></trkpt><trkpt lat="-17.862527073086223" lon="122.42015865460758"><ele>26.0</ele><time>2026-04-24T07:51:31Z</time></trkpt><trkpt lat="-17.862475850349778" lon="122.42045172299045"><ele>26.0</ele><time>2026-04-24T07:51:32Z</time></trkpt><trkpt lat="-17.862430608918046" lon="122.42074141272732"><ele>27.0</ele><time>2026-04-24T07:51:33Z</time></trkpt><trkpt lat="-17.862382562118068" lon="122.42103014767038"><ele>28.0</ele><time>2026-04-24T07:51:34Z</time></trkpt><trkpt lat="-17.86233249226221" lon="122.42131888604143"><ele>28.0</ele><time>2026-04-24T07:51:35Z</time></trkpt><trkpt lat="-17.862283249300784" lon="122.42161087186281"><ele>28.0</ele><time>2026-04-24T07:51:36Z</time></trkpt><trkpt lat="-17.86223438524818" lon="122.42190050485723"><ele>28.0</ele><time>2026-04-24T07:51:37Z</time></trkpt><trkpt lat="-17.862183874051695" lon="122.42219002710591"><ele>28.0</ele><time>2026-04-24T07:51:38Z</time></trkpt><trkpt lat="-17.86213130812826" lon="122.42248603796664"><ele>28.0</ele><time>2026-04-24T07:51:39Z</time></trkpt><trkpt lat="-17.86208058229027" lon="122.42278346040463"><ele>28.0</ele><time>2026-04-24T07:51:40Z</time></trkpt><trkpt lat="-17.862030034983697" lon="122.4230786246024"><ele>28.0</ele><time>2026-04-24T07:51:41Z</time></trkpt><trkpt lat="-17.86197803971594" lon="122.42337366349268"><ele>28.0</ele><time>2026-04-24T07:51:42Z</time></trkpt><trkpt lat="-17.861927038643007" lon="122.423664376237"><ele>29.0</ele><time>2026-04-24T07:51:43Z</time></trkpt><trkpt lat="-17.861874951885177" lon="122.42395629240586"><ele>30.0</ele><time>2026-04-24T07:51:44Z</time></trkpt><trkpt lat="-17.86182214640177" lon="122.42424501208268"><ele>30.0</ele><time>2026-04-24T07:51:45Z</time></trkpt><trkpt lat="-17.861775913374963" lon="122.4245376914253"><ele>30.0</ele><time>2026-04-24T07:51:46Z</time></trkpt><trkpt lat="-17.861729262514807" lon="122.42482505707751"><ele>30.0</ele><time>2026-04-24T07:51:47Z</time></trkpt><trkpt lat="-17.86167805972567" lon="122.4251143805719"><ele>30.0</ele><time>2026-04-24T07:51:48Z</time></trkpt><trkpt lat="-17.86162824564215" lon="122.42540628049201"><ele>29.0</ele><time>2026-04-24T07:51:49Z</time></trkpt><trkpt lat="-17.86157586956299" lon="122.42569908928034"><ele>28.0</ele><time>2026-04-24T07:51:50Z</time></trkpt><trkpt lat="-17.861520655025995" lon="122.42599747293934"><ele>28.0</ele><time>2026-04-24T07:51:51Z</time></trkpt><trkpt lat="-17.861468777589426" lon="122.42629168317266"><ele>28.0</ele><time>2026-04-24T07:51:52Z</time></trkpt><trkpt lat="-17.861414525469687" lon="122.42659147917142"><ele>28.5</ele><time>2026-04-24T07:51:53Z</time></trkpt><trkpt lat="-17.861360793203357" lon="122.42689590161272"><ele>29.0</ele><time>2026-04-24T07:51:54Z</time></trkpt><trkpt lat="-17.861307396058496" lon="122.42720591780125"><ele>30.0</ele><time>2026-04-24T07:51:55Z</time></trkpt><trkpt lat="-17.86125590597264" lon="122.42750887323649"><ele>31.0</ele><time>2026-04-24T07:51:56Z</time></trkpt><trkpt lat="-17.861202865607837" lon="122.42781371985146"><ele>32.5</ele><time>2026-04-24T07:51:57Z</time></trkpt><trkpt lat="-17.86115008661628" lon="122.42811699146658"><ele>34.0</ele><time>2026-04-24T07:51:58Z</time></trkpt><trkpt lat="-17.861096986568775" lon="122.4284223740466"><ele>34.0</ele><time>2026-04-24T07:51:59Z</time></trkpt><trkpt lat="-17.861046246098866" lon="122.42872667722379"><ele>34.0</ele><time>2026-04-24T07:52:00Z</time></trkpt><trkpt lat="-17.86099523886745" lon="122.4290309833957"><ele>33.5</ele><time>2026-04-24T07:52:01Z</time></trkpt><trkpt lat="-17.86094187423183" lon="122.42933758834478"><ele>33.0</ele><time>2026-04-24T07:52:02Z</time></trkpt><trkpt lat="-17.860889464341312" lon="122.42963891069955"><ele>33.0</ele><time>2026-04-24T07:52:03Z</time></trkpt><trkpt lat="-17.86084024134951" lon="122.42993820879364"><ele>33.0</ele><time>2026-04-24T07:52:04Z</time></trkpt><trkpt lat="-17.860787479400766" lon="122.43024412755453"><ele>33.5</ele><time>2026-04-24T07:52:05Z</time></trkpt><trkpt lat="-17.860735477550207" lon="122.43054489088941"><ele>34.0</ele><time>2026-04-24T07:52:06Z</time></trkpt><trkpt lat="-17.86068235472454" lon="122.4308440086271"><ele>34.0</ele><time>2026-04-24T07:52:07Z</time></trkpt><trkpt lat="-17.860629404735892" lon="122.43114403364095"><ele>34.0</ele><time>2026-04-24T07:52:08Z</time></trkpt><trkpt lat="-17.86057826389403" lon="122.4314436251158"><ele>34.0</ele><time>2026-04-24T07:52:09Z</time></trkpt><trkpt lat="-17.860527353469053" lon="122.43174115344809"><ele>34.0</ele><time>2026-04-24T07:52:10Z</time></trkpt><trkpt lat="-17.860473823482543" lon="122.43204320694858"><ele>34.0</ele><time>2026-04-24T07:52:11Z</time></trkpt><trkpt lat="-17.860418699916817" lon="122.4323439972859"><ele>34.0</ele><time>2026-04-24T07:52:12Z</time></trkpt><trkpt lat="-17.860364908654425" lon="122.43264708136024"><ele>34.0</ele><time>2026-04-24T07:52:13Z</time></trkpt><trkpt lat="-17.86031237900444" lon="122.43295232802609"><ele>34.0</ele><time>2026-04-24T07:52:14Z</time></trkpt><trkpt lat="-17.86026186379598" lon="122.43325744657568"><ele>34.5</ele><time>2026-04-24T07:52:15Z</time></trkpt><trkpt lat="-17.86021199001494" lon="122.43356040455605"><ele>35.0</ele><time>2026-04-24T07:52:16Z</time></trkpt><trkpt lat="-17.86016255907793" lon="122.4338643783625"><ele>35.5</ele><time>2026-04-24T07:52:17Z</time></trkpt><trkpt lat="-17.860111790855633" lon="122.4341677378836"><ele>36.0</ele><time>2026-04-24T07:52:18Z</time></trkpt><trkpt lat="-17.860058780428503" lon="122.43447021422462"><ele>37.5</ele><time>2026-04-24T07:52:19Z</time></trkpt><trkpt lat="-17.860002364168597" lon="122.43477525680245"><ele>39.0</ele><time>2026-04-24T07:52:20Z</time></trkpt><trkpt lat="-17.85994677660675" lon="122.4350779217785"><ele>39.0</ele><time>2026-04-24T07:52:21Z</time></trkpt><trkpt lat="-17.859893231777242" lon="122.43537522571529"><ele>39.0</ele><time>2026-04-24T07:52:22Z</time></trkpt><trkpt lat="-17.85984216446662" lon="122.43566894351581"><ele>38.5</ele><time>2026-04-24T07:52:23Z</time></trkpt><trkpt lat="-17.859791994957426" lon="122.43596385567011"><ele>38.0</ele><time>2026-04-24T07:52:24Z</time></trkpt><trkpt lat="-17.859743513446766" lon="122.43625627102152"><ele>37.5</ele><time>2026-04-24T07:52:25Z</time></trkpt><trkpt lat="-17.85969489278365" lon="122.4365481158655"><ele>37.0</ele><time>2026-04-24T07:52:26Z</time></trkpt><trkpt lat="-17.85964800995437" lon="122.4368401898747"><ele>37.0</ele><time>2026-04-24T07:52:27Z</time></trkpt><trkpt lat="-17.859602578506955" lon="122.43713023197546"><ele>37.0</ele><time>2026-04-24T07:52:28Z</time></trkpt><trkpt lat="-17.859557202764172" lon="122.43741750180111"><ele>37.5</ele><time>2026-04-24T07:52:29Z</time></trkpt><trkpt lat="-17.859511167662134" lon="122.43770616536338"><ele>38.0</ele><time>2026-04-24T07:52:30Z</time></trkpt><trkpt lat="-17.85946348333356" lon="122.43800454658144"><ele>39.0</ele><time>2026-04-24T07:52:31Z</time></trkpt><trkpt lat="-17.85941563521325" lon="122.43831751621705"><ele>40.0</ele><time>2026-04-24T07:52:32Z</time></trkpt><trkpt lat="-17.85936414685623" lon="122.43863344257389"><ele>39.5</ele><time>2026-04-24T07:52:33Z</time></trkpt><trkpt lat="-17.859309149717095" lon="122.43895282029861"><ele>39.0</ele><time>2026-04-24T07:52:34Z</time></trkpt><trkpt lat="-17.859251448426775" lon="122.43927468611994"><ele>39.0</ele><time>2026-04-24T07:52:35Z</time></trkpt><trkpt lat="-17.85919443762407" lon="122.4396008934837"><ele>39.0</ele><time>2026-04-24T07:52:36Z</time></trkpt><trkpt lat="-17.859139995025505" lon="122.43992433775607"><ele>39.5</ele><time>2026-04-24T07:52:37Z</time></trkpt><trkpt lat="-17.859086180489598" lon="122.44024265305872"><ele>40.0</ele><time>2026-04-24T07:52:38Z</time></trkpt><trkpt lat="-17.859032081008767" lon="122.440558723402"><ele>40.0</ele><time>2026-04-24T07:52:39Z</time></trkpt><trkpt lat="-17.85897220112922" lon="122.44086783736454"><ele>40.0</ele><time>2026-04-24T07:52:40Z</time></trkpt><trkpt lat="-17.85891131581328" lon="122.44117752558499"><ele>41.0</ele><time>2026-04-24T07:52:41Z</time></trkpt><trkpt lat="-17.858852050244927" lon="122.44148819772529"><ele>42.0</ele><time>2026-04-24T07:52:42Z</time></trkpt><trkpt lat="-17.858795284850306" lon="122.44179892125607"><ele>42.0</ele><time>2026-04-24T07:52:43Z</time></trkpt><trkpt lat="-17.85873795857383" lon="122.44210614608642"><ele>42.0</ele><time>2026-04-24T07:52:44Z</time></trkpt><trkpt lat="-17.858682356698644" lon="122.44240704575209"><ele>42.0</ele><time>2026-04-24T07:52:45Z</time></trkpt><trkpt lat="-17.858628072511532" lon="122.44270387666798"><ele>42.0</ele><time>2026-04-24T07:52:46Z</time></trkpt><trkpt lat="-17.85857565773995" lon="122.44299438988685"><ele>41.0</ele><time>2026-04-24T07:52:47Z</time></trkpt><trkpt lat="-17.858524661352213" lon="122.44328487313513"><ele>40.0</ele><time>2026-04-24T07:52:48Z</time></trkpt><trkpt lat="-17.858473509768555" lon="122.44357516573886"><ele>41.0</ele><time>2026-04-24T07:52:49Z</time></trkpt><trkpt lat="-17.85842298847308" lon="122.4438635678061"><ele>42.0</ele><time>2026-04-24T07:52:50Z</time></trkpt><trkpt lat="-17.858369839244027" lon="122.44415448997272"><ele>42.0</ele><time>2026-04-24T07:52:51Z</time></trkpt><trkpt lat="-17.858316733568508" lon="122.4444454225011"><ele>42.0</ele><time>2026-04-24T07:52:52Z</time></trkpt><trkpt lat="-17.858265453232274" lon="122.44474126808075"><ele>43.0</ele><time>2026-04-24T07:52:53Z</time></trkpt><trkpt lat="-17.858216788189264" lon="122.44503573459752"><ele>44.0</ele><time>2026-04-24T07:52:54Z</time></trkpt><trkpt lat="-17.85816579748979" lon="122.4453319172644"><ele>43.0</ele><time>2026-04-24T07:52:55Z</time></trkpt><trkpt lat="-17.858114469252587" lon="122.44562582649525"><ele>42.0</ele><time>2026-04-24T07:52:56Z</time></trkpt><trkpt lat="-17.858062492107972" lon="122.44592145312978"><ele>42.0</ele><time>2026-04-24T07:52:57Z</time></trkpt><trkpt lat="-17.858010259138847" lon="122.44621836924782"><ele>42.0</ele><time>2026-04-24T07:52:58Z</time></trkpt><trkpt lat="-17.857958027820306" lon="122.44651400982188"><ele>42.0</ele><time>2026-04-24T07:52:59Z</time></trkpt><trkpt lat="-17.857906036251634" lon="122.4468092203542"><ele>42.0</ele><time>2026-04-24T07:53:00Z</time></trkpt><trkpt lat="-17.857854084714884" lon="122.44710759932927"><ele>42.5</ele><time>2026-04-24T07:53:01Z</time></trkpt><trkpt lat="-17.85780563177331" lon="122.44740307320383"><ele>43.0</ele><time>2026-04-24T07:53:02Z</time></trkpt><trkpt lat="-17.857757498281934" lon="122.44769819521069"><ele>44.0</ele><time>2026-04-24T07:53:03Z</time></trkpt><trkpt lat="-17.857707207006147" lon="122.4479951234372"><ele>45.0</ele><time>2026-04-24T07:53:04Z</time></trkpt><trkpt lat="-17.857656966167006" lon="122.44828740445675"><ele>44.5</ele><time>2026-04-24T07:53:05Z</time></trkpt><trkpt lat="-17.857606032072802" lon="122.44857900792894"><ele>44.0</ele><time>2026-04-24T07:53:06Z</time></trkpt><trkpt lat="-17.85755425027158" lon="122.44887463646062"><ele>42.5</ele><time>2026-04-24T07:53:07Z</time></trkpt><trkpt lat="-17.857504156667957" lon="122.4491692755979"><ele>41.0</ele><time>2026-04-24T07:53:08Z</time></trkpt><trkpt lat="-17.85745220888492" lon="122.44946788604912"><ele>41.0</ele><time>2026-04-24T07:53:09Z</time></trkpt><trkpt lat="-17.857401098657697" lon="122.449765058836"><ele>41.0</ele><time>2026-04-24T07:53:10Z</time></trkpt><trkpt lat="-17.857348543571074" lon="122.45006456762837"><ele>41.0</ele><time>2026-04-24T07:53:11Z</time></trkpt><trkpt lat="-17.85729589217868" lon="122.45036747442504"><ele>41.0</ele><time>2026-04-24T07:53:12Z</time></trkpt><trkpt lat="-17.857246156359118" lon="122.45066780398857"><ele>42.0</ele><time>2026-04-24T07:53:13Z</time></trkpt><trkpt lat="-17.85719412660326" lon="122.45097074528017"><ele>43.0</ele><time>2026-04-24T07:53:14Z</time></trkpt><trkpt lat="-17.857141444105007" lon="122.45127058474218"><ele>44.0</ele><time>2026-04-24T07:53:15Z</time></trkpt><trkpt lat="-17.857088025945497" lon="122.45157304938549"><ele>45.0</ele><time>2026-04-24T07:53:16Z</time></trkpt><trkpt lat="-17.857033329030074" lon="122.45187450119916"><ele>45.0</ele><time>2026-04-24T07:53:17Z</time></trkpt><trkpt lat="-17.85697880521953" lon="122.45217864345415"><ele>45.0</ele><time>2026-04-24T07:53:18Z</time></trkpt><trkpt lat="-17.856926647171186" lon="122.452483227775"><ele>45.0</ele><time>2026-04-24T07:53:19Z</time></trkpt><trkpt lat="-17.85687550177109" lon="122.45278980738487"><ele>45.0</ele><time>2026-04-24T07:53:20Z</time></trkpt><trkpt lat="-17.85682528671066" lon="122.45309827421974"><ele>45.5</ele><time>2026-04-24T07:53:21Z</time></trkpt><trkpt lat="-17.856773530482993" lon="122.45340768455209"><ele>46.0</ele><time>2026-04-24T07:53:22Z</time></trkpt><trkpt lat="-17.85671884926267" lon="122.45371870449075"><ele>44.5</ele><time>2026-04-24T07:53:23Z</time></trkpt><trkpt lat="-17.856664606288437" lon="122.45402761195098"><ele>43.0</ele><time>2026-04-24T07:53:24Z</time></trkpt><trkpt lat="-17.856608187251563" lon="122.45433701198493"><ele>43.5</ele><time>2026-04-24T07:53:25Z</time></trkpt><trkpt lat="-17.856551723203953" lon="122.45464500469808"><ele>44.0</ele><time>2026-04-24T07:53:26Z</time></trkpt><trkpt lat="-17.85649208230401" lon="122.45494897854677"><ele>44.0</ele><time>2026-04-24T07:53:27Z</time></trkpt><trkpt lat="-17.8564398530844" lon="122.45525217942699"><ele>44.0</ele><time>2026-04-24T07:53:28Z</time></trkpt><trkpt lat="-17.85639138179437" lon="122.45555546348731"><ele>44.5</ele><time>2026-04-24T07:53:29Z</time></trkpt><trkpt lat="-17.856344188036665" lon="122.45585784585894"><ele>45.0</ele><time>2026-04-24T07:53:30Z</time></trkpt><trkpt lat="-17.856294743371834" lon="122.45616282839646"><ele>45.0</ele><time>2026-04-24T07:53:31Z</time></trkpt><trkpt lat="-17.856245141379667" lon="122.45646665175659"><ele>45.0</ele><time>2026-04-24T07:53:32Z</time></trkpt><trkpt lat="-17.856193870143017" lon="122.45677065183061"><ele>45.0</ele><time>2026-04-24T07:53:33Z</time></trkpt><trkpt lat="-17.856137729042512" lon="122.45707862101362"><ele>45.0</ele><time>2026-04-24T07:53:34Z</time></trkpt><trkpt lat="-17.856081061742582" lon="122.4573876451461"><ele>45.5</ele><time>2026-04-24T07:53:35Z</time></trkpt><trkpt lat="-17.85602833844527" lon="122.4576973029969"><ele>46.0</ele><time>2026-04-24T07:53:36Z</time></trkpt><trkpt lat="-17.855976116737114" lon="122.45800989252255"><ele>46.5</ele><time>2026-04-24T07:53:37Z</time></trkpt><trkpt lat="-17.85592115221355" lon="122.45832086746992"><ele>47.0</ele><time>2026-04-24T07:53:38Z</time></trkpt><trkpt lat="-17.85586483509663" lon="122.45863368979552"><ele>46.5</ele><time>2026-04-24T07:53:39Z</time></trkpt><trkpt lat="-17.8558088013669" lon="122.45894739245803"><ele>46.0</ele><time>2026-04-24T07:53:40Z</time></trkpt><trkpt lat="-17.855751759124836" lon="122.45926397598478"><ele>46.0</ele><time>2026-04-24T07:53:41Z</time></trkpt><trkpt lat="-17.85569678527369" lon="122.45957956290198"><ele>46.0</ele><time>2026-04-24T07:53:42Z</time></trkpt><trkpt lat="-17.855641008409364" lon="122.45989855584205"><ele>46.0</ele><time>2026-04-24T07:53:43Z</time></trkpt><trkpt lat="-17.855585863983414" lon="122.46021659062481"><ele>46.0</ele><time>2026-04-24T07:53:44Z</time></trkpt><trkpt lat="-17.855530713043507" lon="122.4605339250219"><ele>46.5</ele><time>2026-04-24T07:53:45Z</time></trkpt><trkpt lat="-17.855477300809273" lon="122.46085218774651"><ele>47.0</ele><time>2026-04-24T07:53:46Z</time></trkpt><trkpt lat="-17.855420686950485" lon="122.46117003000546"><ele>48.0</ele><time>2026-04-24T07:53:47Z</time></trkpt><trkpt lat="-17.855365705845266" lon="122.46148412726359"><ele>49.0</ele><time>2026-04-24T07:53:48Z</time></trkpt><trkpt lat="-17.855310438767923" lon="122.46180158829543"><ele>49.0</ele><time>2026-04-24T07:53:49Z</time></trkpt><trkpt lat="-17.855256034325155" lon="122.46211996142954"><ele>49.0</ele><time>2026-04-24T07:53:50Z</time></trkpt><trkpt lat="-17.855203879040463" lon="122.46243737014251"><ele>49.0</ele><time>2026-04-24T07:53:51Z</time></trkpt><trkpt lat="-17.855149754099287" lon="122.4627578870365"><ele>49.0</ele><time>2026-04-24T07:53:52Z</time></trkpt><trkpt lat="-17.855096716007015" lon="122.46307797646215"><ele>49.5</ele><time>2026-04-24T07:53:53Z</time></trkpt><trkpt lat="-17.85504167579178" lon="122.46339637618189"><ele>50.0</ele><time>2026-04-24T07:53:54Z</time></trkpt><trkpt lat="-17.85498749791946" lon="122.46371185768953"><ele>50.5</ele><time>2026-04-24T07:53:55Z</time></trkpt><trkpt lat="-17.854932031370414" lon="122.46402142300556"><ele>51.0</ele><time>2026-04-24T07:53:56Z</time></trkpt><trkpt lat="-17.85487628298165" lon="122.46433157843212"><ele>50.5</ele><time>2026-04-24T07:53:57Z</time></trkpt><trkpt lat="-17.854820521496244" lon="122.46463783980911"><ele>50.0</ele><time>2026-04-24T07:53:58Z</time></trkpt><trkpt lat="-17.85476404191431" lon="122.46494766621645"><ele>50.0</ele><time>2026-04-24T07:53:59Z</time></trkpt><trkpt lat="-17.85470927427973" lon="122.46525638322393"><ele>50.0</ele><time>2026-04-24T07:54:00Z</time></trkpt><trkpt lat="-17.854655448182637" lon="122.46556622914086"><ele>50.5</ele><time>2026-04-24T07:54:01Z</time></trkpt><trkpt lat="-17.854601056135397" lon="122.46587551269403"><ele>51.0</ele><time>2026-04-24T07:54:02Z</time></trkpt><trkpt lat="-17.85454828264561" lon="122.46618656378273"><ele>51.5</ele><time>2026-04-24T07:54:03Z</time></trkpt><trkpt lat="-17.854495830937864" lon="122.46649506347062"><ele>52.0</ele><time>2026-04-24T07:54:04Z</time></trkpt><trkpt lat="-17.854442630259246" lon="122.46680314184714"><ele>52.0</ele><time>2026-04-24T07:54:05Z</time></trkpt><trkpt lat="-17.854389789133638" lon="122.46710964090163"><ele>52.0</ele><time>2026-04-24T07:54:06Z</time></trkpt><trkpt lat="-17.854337931936218" lon="122.46741515199669"><ele>51.0</ele><time>2026-04-24T07:54:07Z</time></trkpt><trkpt lat="-17.85428606531922" lon="122.46772170622948"><ele>50.0</ele><time>2026-04-24T07:54:08Z</time></trkpt><trkpt lat="-17.854233599945935" lon="122.46802484491198"><ele>50.0</ele><time>2026-04-24T07:54:09Z</time></trkpt><trkpt lat="-17.85417749753644" lon="122.4683334716673"><ele>50.0</ele><time>2026-04-24T07:54:10Z</time></trkpt><trkpt lat="-17.85412173528763" lon="122.4686415221203"><ele>51.0</ele><time>2026-04-24T07:54:11Z</time></trkpt><trkpt lat="-17.854069412061158" lon="122.46895130719312"><ele>52.0</ele><time>2026-04-24T07:54:12Z</time></trkpt><trkpt lat="-17.854017348609887" lon="122.46926122994377"><ele>52.0</ele><time>2026-04-24T07:54:13Z</time></trkpt><trkpt lat="-17.8539636831674" lon="122.4695724900125"><ele>52.0</ele><time>2026-04-24T07:54:14Z</time></trkpt><trkpt lat="-17.853908506287226" lon="122.46988515643051"><ele>53.0</ele><time>2026-04-24T07:54:15Z</time></trkpt><trkpt lat="-17.85385487055374" lon="122.4701983386942"><ele>54.0</ele><time>2026-04-24T07:54:16Z</time></trkpt><trkpt lat="-17.85380264317633" lon="122.47051201442365"><ele>54.5</ele><time>2026-04-24T07:54:17Z</time></trkpt><trkpt lat="-17.853750210758157" lon="122.47082208848164"><ele>55.0</ele><time>2026-04-24T07:54:18Z</time></trkpt><trkpt lat="-17.853694484484553" lon="122.4711317452599"><ele>54.0</ele><time>2026-04-24T07:54:19Z</time></trkpt><trkpt lat="-17.853638799588964" lon="122.47143870292388"><ele>53.0</ele><time>2026-04-24T07:54:20Z</time></trkpt><trkpt lat="-17.853585306614224" lon="122.47174652429783"><ele>53.0</ele><time>2026-04-24T07:54:21Z</time></trkpt><trkpt lat="-17.85353226469" lon="122.47205263254865"><ele>53.0</ele><time>2026-04-24T07:54:22Z</time></trkpt><trkpt lat="-17.853481156371494" lon="122.47235487285154"><ele>54.0</ele><time>2026-04-24T07:54:23Z</time></trkpt><trkpt lat="-17.85343019841522" lon="122.47265554439865"><ele>55.0</ele><time>2026-04-24T07:54:24Z</time></trkpt><trkpt lat="-17.853377502393215" lon="122.47295534183937"><ele>56.0</ele><time>2026-04-24T07:54:25Z</time></trkpt><trkpt lat="-17.85332379339091" lon="122.47325630768064"><ele>57.0</ele><time>2026-04-24T07:54:26Z</time></trkpt><trkpt lat="-17.853270409401517" lon="122.4735572552327"><ele>57.0</ele><time>2026-04-24T07:54:27Z</time></trkpt><trkpt lat="-17.85322035557851" lon="122.47385862388278"><ele>57.0</ele><time>2026-04-24T07:54:28Z</time></trkpt><trkpt lat="-17.853168993290687" lon="122.47416192189704"><ele>57.0</ele><time>2026-04-24T07:54:29Z</time></trkpt><trkpt lat="-17.853115566333464" lon="122.47446849905604"><ele>57.0</ele><time>2026-04-24T07:54:30Z</time></trkpt><trkpt lat="-17.853060823395595" lon="122.47477339616977"><ele>56.5</ele><time>2026-04-24T07:54:31Z</time></trkpt><trkpt lat="-17.85300692476886" lon="122.4750767085641"><ele>56.0</ele><time>2026-04-24T07:54:32Z</time></trkpt><trkpt lat="-17.852955752572246" lon="122.47538057356174"><ele>56.5</ele><time>2026-04-24T07:54:33Z</time></trkpt><trkpt lat="-17.852907022895085" lon="122.47568472545393"><ele>57.0</ele><time>2026-04-24T07:54:34Z</time></trkpt><trkpt lat="-17.852857299648104" lon="122.47598651785873"><ele>56.0</ele><time>2026-04-24T07:54:35Z</time></trkpt><trkpt lat="-17.85280540530053" lon="122.47628955898851"><ele>55.0</ele><time>2026-04-24T07:54:36Z</time></trkpt><trkpt lat="-17.85275336996043" lon="122.476590816876"><ele>55.0</ele><time>2026-04-24T07:54:37Z</time></trkpt><trkpt lat="-17.85270022557397" lon="122.47688603250623"><ele>55.0</ele><time>2026-04-24T07:54:38Z</time></trkpt><trkpt lat="-17.852647853997343" lon="122.47717860911044"><ele>54.0</ele><time>2026-04-24T07:54:39Z</time></trkpt><trkpt lat="-17.85259436881498" lon="122.47747097644726"><ele>53.0</ele><time>2026-04-24T07:54:40Z</time></trkpt><trkpt lat="-17.85254113280869" lon="122.47776011820874"><ele>53.0</ele><time>2026-04-24T07:54:41Z</time></trkpt><trkpt lat="-17.852489625028312" lon="122.47804844541469"><ele>53.0</ele><time>2026-04-24T07:54:42Z</time></trkpt><trkpt lat="-17.852438559807602" lon="122.47833615002493"><ele>53.0</ele><time>2026-04-24T07:54:43Z</time></trkpt><trkpt lat="-17.85238828964556" lon="122.47862623533949"><ele>53.0</ele><time>2026-04-24T07:54:44Z</time></trkpt><trkpt lat="-17.852336065339784" lon="122.4789139186337"><ele>53.5</ele><time>2026-04-24T07:54:45Z</time></trkpt><trkpt lat="-17.852283155399814" lon="122.47920443513166"><ele>54.0</ele><time>2026-04-24T07:54:46Z</time></trkpt><trkpt lat="-17.852231972035053" lon="122.47949835655663"><ele>54.0</ele><time>2026-04-24T07:54:47Z</time></trkpt><trkpt lat="-17.85218356336718" lon="122.4797870164318"><ele>54.0</ele><time>2026-04-24T07:54:48Z</time></trkpt><trkpt lat="-17.852137534346983" lon="122.4800757690827"><ele>54.0</ele><time>2026-04-24T07:54:49Z</time></trkpt><trkpt lat="-17.85209107674544" lon="122.48036365499654"><ele>54.0</ele><time>2026-04-24T07:54:50Z</time></trkpt><trkpt lat="-17.852046770596736" lon="122.48064707483141"><ele>54.0</ele><time>2026-04-24T07:54:51Z</time></trkpt><trkpt lat="-17.851998551989986" lon="122.48093495380007"><ele>54.0</ele><time>2026-04-24T07:54:52Z</time></trkpt><trkpt lat="-17.85194779649757" lon="122.48122511492777"><ele>54.5</ele><time>2026-04-24T07:54:53Z</time></trkpt><trkpt lat="-17.85189237671872" lon="122.48151968496954"><ele>55.0</ele><time>2026-04-24T07:54:54Z</time></trkpt><trkpt lat="-17.8518384647428" lon="122.48181251002711"><ele>54.0</ele><time>2026-04-24T07:54:55Z</time></trkpt><trkpt lat="-17.8517870522997" lon="122.48210733761229"><ele>53.0</ele><time>2026-04-24T07:54:56Z</time></trkpt><trkpt lat="-17.851738076963354" lon="122.48239867900843"><ele>53.0</ele><time>2026-04-24T07:54:57Z</time></trkpt><trkpt lat="-17.851691822832247" lon="122.48268837137488"><ele>53.0</ele><time>2026-04-24T07:54:58Z</time></trkpt><trkpt lat="-17.85164291508761" lon="122.48297970864961"><ele>52.0</ele><time>2026-04-24T07:54:59Z</time></trkpt><trkpt lat="-17.851593043426014" lon="122.48326540360468"><ele>51.0</ele><time>2026-04-24T07:55:00Z</time></trkpt><trkpt lat="-17.851539768137986" lon="122.48355121263177"><ele>50.5</ele><time>2026-04-24T07:55:01Z</time></trkpt><trkpt lat="-17.8514873456734" lon="122.48384440609263"><ele>50.0</ele><time>2026-04-24T07:55:02Z</time></trkpt><trkpt lat="-17.851437750844774" lon="122.48413507102991"><ele>50.0</ele><time>2026-04-24T07:55:03Z</time></trkpt><trkpt lat="-17.85138720789607" lon="122.4844161056958"><ele>50.0</ele><time>2026-04-24T07:55:04Z</time></trkpt><trkpt lat="-17.851340086474426" lon="122.48468389525486"><ele>52.0</ele><time>2026-04-24T07:55:05Z</time></trkpt><trkpt lat="-17.851295366992666" lon="122.48495635593802"><ele>54.0</ele><time>2026-04-24T07:55:06Z</time></trkpt><trkpt lat="-17.851249994730942" lon="122.48523523834054"><ele>52.5</ele><time>2026-04-24T07:55:07Z</time></trkpt><trkpt lat="-17.85120355513108" lon="122.48551597187799"><ele>51.0</ele><time>2026-04-24T07:55:08Z</time></trkpt><trkpt lat="-17.851153736944276" lon="122.48579772416102"><ele>51.0</ele><time>2026-04-24T07:55:09Z</time></trkpt><trkpt lat="-17.85110320623971" lon="122.4860847965139"><ele>51.0</ele><time>2026-04-24T07:55:10Z</time></trkpt><trkpt lat="-17.85105163171569" lon="122.4863735651833"><ele>50.5</ele><time>2026-04-24T07:55:11Z</time></trkpt><trkpt lat="-17.850999541690314" lon="122.48666494407811"><ele>50.0</ele><time>2026-04-24T07:55:12Z</time></trkpt><trkpt lat="-17.850948107145744" lon="122.48695855989962"><ele>49.0</ele><time>2026-04-24T07:55:13Z</time></trkpt><trkpt lat="-17.850896226763627" lon="122.48725387543537"><ele>48.0</ele><time>2026-04-24T07:55:14Z</time></trkpt><trkpt lat="-17.8508437436657" lon="122.48755095730002"><ele>48.0</ele><time>2026-04-24T07:55:15Z</time></trkpt><trkpt lat="-17.850791031791605" lon="122.48784867284098"><ele>48.0</ele><time>2026-04-24T07:55:16Z</time></trkpt><trkpt lat="-17.8507375831381" lon="122.48814695736947"><ele>48.0</ele><time>2026-04-24T07:55:17Z</time></trkpt><trkpt lat="-17.8506852926214" lon="122.48844670434305"><ele>48.0</ele><time>2026-04-24T07:55:18Z</time></trkpt><trkpt lat="-17.850635858314472" lon="122.48874224596385"><ele>47.5</ele><time>2026-04-24T07:55:19Z</time></trkpt><trkpt lat="-17.850585833713282" lon="122.48903910514258"><ele>47.0</ele><time>2026-04-24T07:55:20Z</time></trkpt><trkpt lat="-17.850533626245255" lon="122.48933818426757"><ele>46.0</ele><time>2026-04-24T07:55:21Z</time></trkpt><trkpt lat="-17.850482040231913" lon="122.48963608931598"><ele>45.0</ele><time>2026-04-24T07:55:22Z</time></trkpt><trkpt lat="-17.850431378983238" lon="122.48993480318077"><ele>45.0</ele><time>2026-04-24T07:55:23Z</time></trkpt><trkpt lat="-17.85038111798496" lon="122.49023060675388"><ele>45.0</ele><time>2026-04-24T07:55:24Z</time></trkpt><trkpt lat="-17.85032886365039" lon="122.49052448096417"><ele>46.0</ele><time>2026-04-24T07:55:25Z</time></trkpt><trkpt lat="-17.850279710394595" lon="122.49081829032284"><ele>47.0</ele><time>2026-04-24T07:55:26Z</time></trkpt><trkpt lat="-17.850229314239105" lon="122.49111156176976"><ele>45.5</ele><time>2026-04-24T07:55:27Z</time></trkpt><trkpt lat="-17.850178296311952" lon="122.49140697203046"><ele>44.0</ele><time>2026-04-24T07:55:28Z</time></trkpt><trkpt lat="-17.85012526053833" lon="122.49169891603701"><ele>44.0</ele><time>2026-04-24T07:55:29Z</time></trkpt><trkpt lat="-17.85007269518808" lon="122.49199201567303"><ele>44.0</ele><time>2026-04-24T07:55:30Z</time></trkpt><trkpt lat="-17.850022016907197" lon="122.49228464344131"><ele>44.0</ele><time>2026-04-24T07:55:31Z</time></trkpt><trkpt lat="-17.84997181620092" lon="122.49257358021578"><ele>44.0</ele><time>2026-04-24T07:55:32Z</time></trkpt><trkpt lat="-17.84992028800394" lon="122.49286465403699"><ele>43.0</ele><time>2026-04-24T07:55:33Z</time></trkpt><trkpt lat="-17.849870152556274" lon="122.49315389245236"><ele>42.0</ele><time>2026-04-24T07:55:34Z</time></trkpt><trkpt lat="-17.849819673389995" lon="122.49344602295244"><ele>42.0</ele><time>2026-04-24T07:55:35Z</time></trkpt><trkpt lat="-17.849769799534748" lon="122.49373773118151"><ele>42.0</ele><time>2026-04-24T07:55:36Z</time></trkpt><trkpt lat="-17.849718888062117" lon="122.49403091715881"><ele>42.0</ele><time>2026-04-24T07:55:37Z</time></trkpt><trkpt lat="-17.849666978118766" lon="122.49432331477897"><ele>42.0</ele><time>2026-04-24T07:55:38Z</time></trkpt><trkpt lat="-17.849615826476974" lon="122.4946177954514"><ele>41.5</ele><time>2026-04-24T07:55:39Z</time></trkpt><trkpt lat="-17.84956489801214" lon="122.4949103361361"><ele>41.0</ele><time>2026-04-24T07:55:40Z</time></trkpt><trkpt lat="-17.84951320500264" lon="122.49520114721349"><ele>40.5</ele><time>2026-04-24T07:55:41Z</time></trkpt><trkpt lat="-17.84946176351886" lon="122.49549262697059"><ele>40.0</ele><time>2026-04-24T07:55:42Z</time></trkpt><trkpt lat="-17.849411425151622" lon="122.49578665110758"><ele>40.0</ele><time>2026-04-24T07:55:43Z</time></trkpt><trkpt lat="-17.849362605684497" lon="122.49608187089137"><ele>40.0</ele><time>2026-04-24T07:55:44Z</time></trkpt><trkpt lat="-17.849312087884513" lon="122.49637135898591"><ele>40.5</ele><time>2026-04-24T07:55:45Z</time></trkpt><trkpt lat="-17.84926236104269" lon="122.49665335023799"><ele>41.0</ele><time>2026-04-24T07:55:46Z</time></trkpt><trkpt lat="-17.84921410331344" lon="122.49692544595277"><ele>40.5</ele><time>2026-04-24T07:55:47Z</time></trkpt><trkpt lat="-17.849167645023496" lon="122.49718489236723"><ele>40.0</ele><time>2026-04-24T07:55:48Z</time></trkpt><trkpt lat="-17.849123735735535" lon="122.497433918919"><ele>40.0</ele><time>2026-04-24T07:55:49Z</time></trkpt><trkpt lat="-17.849080834894917" lon="122.49768237835818"><ele>40.0</ele><time>2026-04-24T07:55:50Z</time></trkpt><trkpt lat="-17.849037956905327" lon="122.49793418787642"><ele>40.5</ele><time>2026-04-24T07:55:51Z</time></trkpt><trkpt lat="-17.848997589027103" lon="122.49817971947586"><ele>41.0</ele><time>2026-04-24T07:55:52Z</time></trkpt><trkpt lat="-17.848957155579946" lon="122.49842670162789"><ele>41.0</ele><time>2026-04-24T07:55:53Z</time></trkpt><trkpt lat="-17.848913821612715" lon="122.49867504465124"><ele>41.0</ele><time>2026-04-24T07:55:54Z</time></trkpt><trkpt lat="-17.848869375764842" lon="122.4989234201813"><ele>40.5</ele><time>2026-04-24T07:55:55Z</time></trkpt><trkpt lat="-17.848826520123904" lon="122.49916860436552"><ele>40.0</ele><time>2026-04-24T07:55:56Z</time></trkpt><trkpt lat="-17.848785059840043" lon="122.49941248862595"><ele>39.0</ele><time>2026-04-24T07:55:57Z</time></trkpt><trkpt lat="-17.848742416911406" lon="122.49965812702763"><ele>38.0</ele><time>2026-04-24T07:55:58Z</time></trkpt><trkpt lat="-17.84870202054496" lon="122.49990012850489"><ele>38.0</ele><time>2026-04-24T07:55:59Z</time></trkpt><trkpt lat="-17.848659640354384" lon="122.50015011971307"><ele>38.0</ele><time>2026-04-24T07:56:00Z</time></trkpt><trkpt lat="-17.848615857141578" lon="122.50040896759147"><ele>37.5</ele><time>2026-04-24T07:56:01Z</time></trkpt><trkpt lat="-17.848569619232187" lon="122.50067630121299"><ele>37.0</ele><time>2026-04-24T07:56:02Z</time></trkpt><trkpt lat="-17.848522238377623" lon="122.5009516656354"><ele>37.0</ele><time>2026-04-24T07:56:03Z</time></trkpt><trkpt lat="-17.848474421401814" lon="122.50123147676884"><ele>37.0</ele><time>2026-04-24T07:56:04Z</time></trkpt><trkpt lat="-17.848426875601945" lon="122.50151770488067"><ele>37.0</ele><time>2026-04-24T07:56:05Z</time></trkpt><trkpt lat="-17.84837466746823" lon="122.50180775051824"><ele>37.0</ele><time>2026-04-24T07:56:06Z</time></trkpt><trkpt lat="-17.84831920136047" lon="122.50209755924541"><ele>37.0</ele><time>2026-04-24T07:56:07Z</time></trkpt><trkpt lat="-17.848264882387706" lon="122.50239228962752"><ele>37.0</ele><time>2026-04-24T07:56:08Z</time></trkpt><trkpt lat="-17.848211137948688" lon="122.50268988122544"><ele>37.0</ele><time>2026-04-24T07:56:09Z</time></trkpt><trkpt lat="-17.848158886190117" lon="122.50299001821034"><ele>37.0</ele><time>2026-04-24T07:56:10Z</time></trkpt><trkpt lat="-17.848105440042687" lon="122.50329183681536"><ele>37.0</ele><time>2026-04-24T07:56:11Z</time></trkpt><trkpt lat="-17.848054181715806" lon="122.50359436846706"><ele>37.0</ele><time>2026-04-24T07:56:12Z</time></trkpt><trkpt lat="-17.848004366665148" lon="122.50389995045107"><ele>34.5</ele><time>2026-04-24T07:56:13Z</time></trkpt><trkpt lat="-17.84795187365153" lon="122.50420786331186"><ele>32.0</ele><time>2026-04-24T07:56:14Z</time></trkpt><trkpt lat="-17.847897812244877" lon="122.50451529023971"><ele>31.5</ele><time>2026-04-24T07:56:15Z</time></trkpt><trkpt lat="-17.84784338936548" lon="122.50482233507982"><ele>31.0</ele><time>2026-04-24T07:56:16Z</time></trkpt><trkpt lat="-17.847791553068852" lon="122.50512904333932"><ele>31.5</ele><time>2026-04-24T07:56:17Z</time></trkpt><trkpt lat="-17.84774013373058" lon="122.5054325143109"><ele>32.0</ele><time>2026-04-24T07:56:18Z</time></trkpt><trkpt lat="-17.84768941740162" lon="122.50574053830327"><ele>32.0</ele><time>2026-04-24T07:56:19Z</time></trkpt><trkpt lat="-17.847636404828034" lon="122.50604241006967"><ele>32.0</ele><time>2026-04-24T07:56:20Z</time></trkpt><trkpt lat="-17.847583958292734" lon="122.50634724190363"><ele>31.5</ele><time>2026-04-24T07:56:21Z</time></trkpt><trkpt lat="-17.84753029659816" lon="122.50665038024684"><ele>31.0</ele><time>2026-04-24T07:56:22Z</time></trkpt><trkpt lat="-17.847478509119505" lon="122.50695819024413"><ele>30.5</ele><time>2026-04-24T07:56:23Z</time></trkpt><trkpt lat="-17.847425254628483" lon="122.5072623797936"><ele>30.0</ele><time>2026-04-24T07:56:24Z</time></trkpt><trkpt lat="-17.8473702181129" lon="122.50756928926225"><ele>30.0</ele><time>2026-04-24T07:56:25Z</time></trkpt><trkpt lat="-17.84731499051331" lon="122.507874039018"><ele>30.0</ele><time>2026-04-24T07:56:26Z</time></trkpt><trkpt lat="-17.84726084572825" lon="122.50818063805302"><ele>30.0</ele><time>2026-04-24T07:56:27Z</time></trkpt><trkpt lat="-17.84720749815836" lon="122.50848820678726"><ele>30.0</ele><time>2026-04-24T07:56:28Z</time></trkpt><trkpt lat="-17.847154559126132" lon="122.5087961701706"><ele>29.0</ele><time>2026-04-24T07:56:29Z</time></trkpt><trkpt lat="-17.847101475940914" lon="122.50910384523687"><ele>28.0</ele><time>2026-04-24T07:56:30Z</time></trkpt><trkpt lat="-17.847047317869166" lon="122.50941165231703"><ele>27.5</ele><time>2026-04-24T07:56:31Z</time></trkpt><trkpt lat="-17.84699280757521" lon="122.50971867248319"><ele>27.0</ele><time>2026-04-24T07:56:32Z</time></trkpt><trkpt lat="-17.84693737253071" lon="122.51002999578424"><ele>27.0</ele><time>2026-04-24T07:56:33Z</time></trkpt><trkpt lat="-17.84688417105396" lon="122.51033806261582"><ele>27.0</ele><time>2026-04-24T07:56:34Z</time></trkpt><trkpt lat="-17.846832919975206" lon="122.51064726726804"><ele>26.0</ele><time>2026-04-24T07:56:35Z</time></trkpt><trkpt lat="-17.84678156400672" lon="122.51095749317463"><ele>25.0</ele><time>2026-04-24T07:56:36Z</time></trkpt><trkpt lat="-17.846729087495415" lon="122.51126596617493"><ele>24.5</ele><time>2026-04-24T07:56:37Z</time></trkpt><trkpt lat="-17.846675720119666" lon="122.51157575688235"><ele>24.0</ele><time>2026-04-24T07:56:38Z</time></trkpt><trkpt lat="-17.846621172423063" lon="122.51188339640306"><ele>23.0</ele><time>2026-04-24T07:56:39Z</time></trkpt><trkpt lat="-17.84656693748584" lon="122.51219396423849"><ele>22.0</ele><time>2026-04-24T07:56:40Z</time></trkpt><trkpt lat="-17.84651452817736" lon="122.51250541140166"><ele>22.0</ele><time>2026-04-24T07:56:41Z</time></trkpt><trkpt lat="-17.84645982851219" lon="122.51281741086706"><ele>22.0</ele><time>2026-04-24T07:56:42Z</time></trkpt><trkpt lat="-17.84640527060602" lon="122.51312936401511"><ele>22.5</ele><time>2026-04-24T07:56:43Z</time></trkpt><trkpt lat="-17.846351394147128" lon="122.51343848224549"><ele>23.0</ele><time>2026-04-24T07:56:44Z</time></trkpt><trkpt lat="-17.846297715070033" lon="122.51374695774673"><ele>22.0</ele><time>2026-04-24T07:56:45Z</time></trkpt><trkpt lat="-17.84624384270276" lon="122.5140584369778"><ele>21.0</ele><time>2026-04-24T07:56:46Z</time></trkpt><trkpt lat="-17.846190035153057" lon="122.51437078358684"><ele>20.5</ele><time>2026-04-24T07:56:47Z</time></trkpt><trkpt lat="-17.846137283697228" lon="122.51468319153678"><ele>20.0</ele><time>2026-04-24T07:56:48Z</time></trkpt><trkpt lat="-17.846082661787523" lon="122.51499506825711"><ele>20.0</ele><time>2026-04-24T07:56:49Z</time></trkpt><trkpt lat="-17.846026819802876" lon="122.51530795390978"><ele>20.0</ele><time>2026-04-24T07:56:50Z</time></trkpt><trkpt lat="-17.84597297228816" lon="122.51561797274913"><ele>20.5</ele><time>2026-04-24T07:56:51Z</time></trkpt><trkpt lat="-17.845918106399687" lon="122.51592846157611"><ele>21.0</ele><time>2026-04-24T07:56:52Z</time></trkpt><trkpt lat="-17.84586307803068" lon="122.5162361125166"><ele>20.0</ele><time>2026-04-24T07:56:53Z</time></trkpt><trkpt lat="-17.845808495149264" lon="122.51654446572"><ele>19.0</ele><time>2026-04-24T07:56:54Z</time></trkpt><trkpt lat="-17.845753626157055" lon="122.51685431562859"><ele>18.0</ele><time>2026-04-24T07:56:55Z</time></trkpt><trkpt lat="-17.84569905642783" lon="122.51716051777831"><ele>17.0</ele><time>2026-04-24T07:56:56Z</time></trkpt><trkpt lat="-17.845648651564833" lon="122.5174707024463"><ele>17.0</ele><time>2026-04-24T07:56:57Z</time></trkpt><trkpt lat="-17.845596503132818" lon="122.51778309451186"><ele>17.0</ele><time>2026-04-24T07:56:58Z</time></trkpt><trkpt lat="-17.845542730759018" lon="122.51809525040537"><ele>16.5</ele><time>2026-04-24T07:56:59Z</time></trkpt><trkpt lat="-17.845489528076463" lon="122.51840770587296"><ele>16.0</ele><time>2026-04-24T07:57:00Z</time></trkpt><trkpt lat="-17.84543257126998" lon="122.51872059301863"><ele>17.0</ele><time>2026-04-24T07:57:01Z</time></trkpt><trkpt lat="-17.84537612473771" lon="122.51902898830997"><ele>18.0</ele><time>2026-04-24T07:57:02Z</time></trkpt><trkpt lat="-17.845321468316158" lon="122.51933161716042"><ele>18.0</ele><time>2026-04-24T07:57:03Z</time></trkpt><trkpt lat="-17.845270259707878" lon="122.51963583548779"><ele>18.0</ele><time>2026-04-24T07:57:04Z</time></trkpt><trkpt lat="-17.845221608365012" lon="122.51993216925719"><ele>18.0</ele><time>2026-04-24T07:57:05Z</time></trkpt><trkpt lat="-17.845169679707464" lon="122.5202277960981"><ele>18.0</ele><time>2026-04-24T07:57:06Z</time></trkpt><trkpt lat="-17.845116280149682" lon="122.52052358122654"><ele>17.0</ele><time>2026-04-24T07:57:07Z</time></trkpt><trkpt lat="-17.845064753207865" lon="122.52081808740664"><ele>16.0</ele><time>2026-04-24T07:57:08Z</time></trkpt><trkpt lat="-17.845015606570495" lon="122.52111378848"><ele>16.5</ele><time>2026-04-24T07:57:09Z</time></trkpt><trkpt lat="-17.84496671540822" lon="122.52141429057457"><ele>17.0</ele><time>2026-04-24T07:57:10Z</time></trkpt><trkpt lat="-17.844915837891797" lon="122.52171924009012"><ele>17.0</ele><time>2026-04-24T07:57:11Z</time></trkpt><trkpt lat="-17.844863008804097" lon="122.52202573398694"><ele>17.0</ele><time>2026-04-24T07:57:12Z</time></trkpt><trkpt lat="-17.844809790212857" lon="122.52233159331875"><ele>17.0</ele><time>2026-04-24T07:57:13Z</time></trkpt><trkpt lat="-17.844756450681054" lon="122.52263743309331"><ele>17.0</ele><time>2026-04-24T07:57:14Z</time></trkpt><trkpt lat="-17.844703078880038" lon="122.5229417954491"><ele>17.0</ele><time>2026-04-24T07:57:15Z</time></trkpt><trkpt lat="-17.84464808999097" lon="122.52324846426242"><ele>17.0</ele><time>2026-04-24T07:57:16Z</time></trkpt><trkpt lat="-17.84459290494537" lon="122.52355504021425"><ele>19.0</ele><time>2026-04-24T07:57:17Z</time></trkpt><trkpt lat="-17.844539209249568" lon="122.5238614665929"><ele>21.0</ele><time>2026-04-24T07:57:18Z</time></trkpt><trkpt lat="-17.844483310079724" lon="122.52416815226422"><ele>21.0</ele><time>2026-04-24T07:57:19Z</time></trkpt><trkpt lat="-17.844429586247266" lon="122.52447530396032"><ele>21.0</ele><time>2026-04-24T07:57:20Z</time></trkpt><trkpt lat="-17.844375852210725" lon="122.52478437411705"><ele>21.5</ele><time>2026-04-24T07:57:21Z</time></trkpt><trkpt lat="-17.844323720194573" lon="122.52509012411207"><ele>22.0</ele><time>2026-04-24T07:57:22Z</time></trkpt><trkpt lat="-17.844271303985625" lon="122.52539735292684"><ele>22.0</ele><time>2026-04-24T07:57:23Z</time></trkpt><trkpt lat="-17.84421790882162" lon="122.52570625945759"><ele>22.0</ele><time>2026-04-24T07:57:24Z</time></trkpt><trkpt lat="-17.844163863305482" lon="122.5260142752949"><ele>22.0</ele><time>2026-04-24T07:57:25Z</time></trkpt><trkpt lat="-17.844110126576975" lon="122.52632287011312"><ele>22.0</ele><time>2026-04-24T07:57:26Z</time></trkpt><trkpt lat="-17.844056007999047" lon="122.52663239399584"><ele>22.0</ele><time>2026-04-24T07:57:27Z</time></trkpt><trkpt lat="-17.84400223458807" lon="122.52694283195243"><ele>22.0</ele><time>2026-04-24T07:57:28Z</time></trkpt><trkpt lat="-17.84394990998607" lon="122.52725090492022"><ele>21.5</ele><time>2026-04-24T07:57:29Z</time></trkpt><trkpt lat="-17.84389722411696" lon="122.52755760211943"><ele>21.0</ele><time>2026-04-24T07:57:30Z</time></trkpt><trkpt lat="-17.84384520278271" lon="122.52786073603768"><ele>21.5</ele><time>2026-04-24T07:57:31Z</time></trkpt><trkpt lat="-17.84379141146852" lon="122.52816372891621"><ele>22.0</ele><time>2026-04-24T07:57:32Z</time></trkpt><trkpt lat="-17.843736553007503" lon="122.52846440613556"><ele>22.5</ele><time>2026-04-24T07:57:33Z</time></trkpt><trkpt lat="-17.843678958161004" lon="122.52876285995998"><ele>23.0</ele><time>2026-04-24T07:57:34Z</time></trkpt><trkpt lat="-17.84361417988501" lon="122.5290568961242"><ele>23.0</ele><time>2026-04-24T07:57:35Z</time></trkpt><trkpt lat="-17.84354199200125" lon="122.52932953906341"><ele>23.0</ele><time>2026-04-24T07:57:36Z</time></trkpt><trkpt lat="-17.84345894023898" lon="122.52960012383977"><ele>23.5</ele><time>2026-04-24T07:57:37Z</time></trkpt><trkpt lat="-17.843363402846716" lon="122.52987271974943"><ele>24.0</ele><time>2026-04-24T07:57:38Z</time></trkpt><trkpt lat="-17.843253916032" lon="122.53014349553926"><ele>24.0</ele><time>2026-04-24T07:57:39Z</time></trkpt><trkpt lat="-17.84312731487052" lon="122.53041394990326"><ele>24.0</ele><time>2026-04-24T07:57:40Z</time></trkpt><trkpt lat="-17.842989115360144" lon="122.53067985458173"><ele>24.0</ele><time>2026-04-24T07:57:41Z</time></trkpt><trkpt lat="-17.842842965606675" lon="122.53094288431369"><ele>24.0</ele><time>2026-04-24T07:57:42Z</time></trkpt><trkpt lat="-17.84268804392107" lon="122.53120571933981"><ele>24.5</ele><time>2026-04-24T07:57:43Z</time></trkpt><trkpt lat="-17.84252668250294" lon="122.5314651083144"><ele>25.0</ele><time>2026-04-24T07:57:44Z</time></trkpt><trkpt lat="-17.842360611279354" lon="122.53172289038565"><ele>25.0</ele><time>2026-04-24T07:57:45Z</time></trkpt><trkpt lat="-17.84219253582401" lon="122.53198236990214"><ele>25.0</ele><time>2026-04-24T07:57:46Z</time></trkpt><trkpt lat="-17.842027131505013" lon="122.53224382331558"><ele>24.5</ele><time>2026-04-24T07:57:47Z</time></trkpt><trkpt lat="-17.841861749822417" lon="122.53250801820667"><ele>24.0</ele><time>2026-04-24T07:57:48Z</time></trkpt><trkpt lat="-17.84169795661258" lon="122.53277205130185"><ele>25.0</ele><time>2026-04-24T07:57:49Z</time></trkpt><trkpt lat="-17.84153437681868" lon="122.53303674701594"><ele>26.0</ele><time>2026-04-24T07:57:50Z</time></trkpt><trkpt lat="-17.841367384303947" lon="122.5333001209278"><ele>26.0</ele><time>2026-04-24T07:57:51Z</time></trkpt><trkpt lat="-17.841199788743463" lon="122.53356405810194"><ele>26.0</ele><time>2026-04-24T07:57:52Z</time></trkpt><trkpt lat="-17.841033554486476" lon="122.53382821120927"><ele>26.0</ele><time>2026-04-24T07:57:53Z</time></trkpt><trkpt lat="-17.84086809884035" lon="122.53409367833905"><ele>26.0</ele><time>2026-04-24T07:57:54Z</time></trkpt><trkpt lat="-17.840703269091502" lon="122.53435795994116"><ele>26.0</ele><time>2026-04-24T07:57:55Z</time></trkpt><trkpt lat="-17.84053833396" lon="122.53461987173631"><ele>26.0</ele><time>2026-04-24T07:57:56Z</time></trkpt><trkpt lat="-17.840374030642344" lon="122.53488007174506"><ele>26.0</ele><time>2026-04-24T07:57:57Z</time></trkpt><trkpt lat="-17.840210035023546" lon="122.53513944875141"><ele>26.0</ele><time>2026-04-24T07:57:58Z</time></trkpt><trkpt lat="-17.840045059381232" lon="122.5354006958504"><ele>26.5</ele><time>2026-04-24T07:57:59Z</time></trkpt><trkpt lat="-17.839880571607473" lon="122.53566143098396"><ele>27.0</ele><time>2026-04-24T07:58:00Z</time></trkpt><trkpt lat="-17.83971543045766" lon="122.53592242087282"><ele>27.0</ele><time>2026-04-24T07:58:01Z</time></trkpt><trkpt lat="-17.839552403556137" lon="122.53618259133232"><ele>27.0</ele><time>2026-04-24T07:58:02Z</time></trkpt><trkpt lat="-17.83939053774228" lon="122.53644361093505"><ele>27.0</ele><time>2026-04-24T07:58:03Z</time></trkpt><trkpt lat="-17.839227545245198" lon="122.53670507769091"><ele>27.0</ele><time>2026-04-24T07:58:04Z</time></trkpt><trkpt lat="-17.83906416815809" lon="122.53696622539395"><ele>27.5</ele><time>2026-04-24T07:58:05Z</time></trkpt><trkpt lat="-17.838899557469997" lon="122.53722971698868"><ele>28.0</ele><time>2026-04-24T07:58:06Z</time></trkpt><trkpt lat="-17.83873817228179" lon="122.53749187680604"><ele>28.0</ele><time>2026-04-24T07:58:07Z</time></trkpt><trkpt lat="-17.83857546555359" lon="122.5377547605203"><ele>28.0</ele><time>2026-04-24T07:58:08Z</time></trkpt><trkpt lat="-17.83841049020798" lon="122.538017757283"><ele>27.0</ele><time>2026-04-24T07:58:09Z</time></trkpt><trkpt lat="-17.838244850841072" lon="122.53827856889225"><ele>26.0</ele><time>2026-04-24T07:58:10Z</time></trkpt><trkpt lat="-17.83807819206664" lon="122.53854280812968"><ele>26.5</ele><time>2026-04-24T07:58:11Z</time></trkpt><trkpt lat="-17.837912418650493" lon="122.53880723621931"><ele>27.0</ele><time>2026-04-24T07:58:12Z</time></trkpt><trkpt lat="-17.83774483810201" lon="122.53907549679148"><ele>27.0</ele><time>2026-04-24T07:58:13Z</time></trkpt><trkpt lat="-17.83757874135822" lon="122.53934171490172"><ele>27.0</ele><time>2026-04-24T07:58:14Z</time></trkpt><trkpt lat="-17.837412521292883" lon="122.53960860969967"><ele>27.5</ele><time>2026-04-24T07:58:15Z</time></trkpt><trkpt lat="-17.837245099331962" lon="122.53987431246316"><ele>28.0</ele><time>2026-04-24T07:58:16Z</time></trkpt><trkpt lat="-17.83707705849266" lon="122.54013716678826"><ele>29.0</ele><time>2026-04-24T07:58:17Z</time></trkpt><trkpt lat="-17.836910342662648" lon="122.5404001739788"><ele>30.0</ele><time>2026-04-24T07:58:18Z</time></trkpt><trkpt lat="-17.836745954304412" lon="122.54066366262352"><ele>30.5</ele><time>2026-04-24T07:58:19Z</time></trkpt><trkpt lat="-17.836583197377145" lon="122.54092856896"><ele>31.0</ele><time>2026-04-24T07:58:20Z</time></trkpt><trkpt lat="-17.83641988634071" lon="122.54119245583993"><ele>30.0</ele><time>2026-04-24T07:58:21Z</time></trkpt><trkpt lat="-17.8362557603114" lon="122.54145589687539"><ele>29.0</ele><time>2026-04-24T07:58:22Z</time></trkpt><trkpt lat="-17.836092416876983" lon="122.54171659452084"><ele>29.5</ele><time>2026-04-24T07:58:23Z</time></trkpt><trkpt lat="-17.835926931347316" lon="122.54197898079482"><ele>30.0</ele><time>2026-04-24T07:58:24Z</time></trkpt><trkpt lat="-17.83576322718447" lon="122.54223944100094"><ele>30.0</ele><time>2026-04-24T07:58:25Z</time></trkpt><trkpt lat="-17.835603417001437" lon="122.54249661495015"><ele>30.0</ele><time>2026-04-24T07:58:26Z</time></trkpt><trkpt lat="-17.835441140374257" lon="122.5427552590785"><ele>29.0</ele><time>2026-04-24T07:58:27Z</time></trkpt><trkpt lat="-17.83527720117498" lon="122.5430145284484"><ele>28.0</ele><time>2026-04-24T07:58:28Z</time></trkpt><trkpt lat="-17.83511738853318" lon="122.54327282539201"><ele>28.0</ele><time>2026-04-24T07:58:29Z</time></trkpt><trkpt lat="-17.834954854948023" lon="122.54353363024094"><ele>28.0</ele><time>2026-04-24T07:58:30Z</time></trkpt><trkpt lat="-17.834793054015957" lon="122.5437924343048"><ele>27.5</ele><time>2026-04-24T07:58:31Z</time></trkpt><trkpt lat="-17.834628873430734" lon="122.54405157364482"><ele>27.0</ele><time>2026-04-24T07:58:32Z</time></trkpt><trkpt lat="-17.83446543024283" lon="122.54431000868159"><ele>26.5</ele><time>2026-04-24T07:58:33Z</time></trkpt><trkpt lat="-17.834298079822265" lon="122.54457213944814"><ele>26.0</ele><time>2026-04-24T07:58:34Z</time></trkpt><trkpt lat="-17.834131670920257" lon="122.54483521022132"><ele>26.0</ele><time>2026-04-24T07:58:35Z</time></trkpt><trkpt lat="-17.833964446381604" lon="122.54509817532777"><ele>26.0</ele><time>2026-04-24T07:58:36Z</time></trkpt><trkpt lat="-17.83379974157688" lon="122.54535963971037"><ele>27.0</ele><time>2026-04-24T07:58:37Z</time></trkpt><trkpt lat="-17.833634310834785" lon="122.54562316426879"><ele>28.0</ele><time>2026-04-24T07:58:38Z</time></trkpt><trkpt lat="-17.833468589524088" lon="122.54588727040979"><ele>28.0</ele><time>2026-04-24T07:58:39Z</time></trkpt><trkpt lat="-17.8333017192882" lon="122.54615149417546"><ele>28.0</ele><time>2026-04-24T07:58:40Z</time></trkpt><trkpt lat="-17.833134584263124" lon="122.54641635325531"><ele>27.5</ele><time>2026-04-24T07:58:41Z</time></trkpt><trkpt lat="-17.832969122897794" lon="122.54668405116675"><ele>27.0</ele><time>2026-04-24T07:58:42Z</time></trkpt><trkpt lat="-17.83280244525013" lon="122.54695345558746"><ele>26.0</ele><time>2026-04-24T07:58:43Z</time></trkpt><trkpt lat="-17.832635147431272" lon="122.54722109201339"><ele>25.0</ele><time>2026-04-24T07:58:44Z</time></trkpt><trkpt lat="-17.832467366888626" lon="122.54749017541208"><ele>25.0</ele><time>2026-04-24T07:58:45Z</time></trkpt><trkpt lat="-17.83229973004593" lon="122.54775855446775"><ele>25.0</ele><time>2026-04-24T07:58:46Z</time></trkpt><trkpt lat="-17.83213250836765" lon="122.5480275548756"><ele>24.0</ele><time>2026-04-24T07:58:47Z</time></trkpt><trkpt lat="-17.831963193825413" lon="122.54829620223276"><ele>23.0</ele><time>2026-04-24T07:58:48Z</time></trkpt><trkpt lat="-17.83179360976782" lon="122.54856330434342"><ele>23.0</ele><time>2026-04-24T07:58:49Z</time></trkpt><trkpt lat="-17.831622039923918" lon="122.54883132659009"><ele>23.0</ele><time>2026-04-24T07:58:50Z</time></trkpt><trkpt lat="-17.831449354157094" lon="122.54910199407745"><ele>23.0</ele><time>2026-04-24T07:58:51Z</time></trkpt><trkpt lat="-17.83128076072916" lon="122.54937259360435"><ele>23.0</ele><time>2026-04-24T07:58:52Z</time></trkpt><trkpt lat="-17.83111068477604" lon="122.5496455934849"><ele>22.0</ele><time>2026-04-24T07:58:53Z</time></trkpt><trkpt lat="-17.830942827621776" lon="122.54991599950634"><ele>21.0</ele><time>2026-04-24T07:58:54Z</time></trkpt><trkpt lat="-17.83077528132487" lon="122.55018669044523"><ele>22.0</ele><time>2026-04-24T07:58:55Z</time></trkpt><trkpt lat="-17.830607127491543" lon="122.55045484563234"><ele>23.0</ele><time>2026-04-24T07:58:56Z</time></trkpt><trkpt lat="-17.830438811252545" lon="122.5507235500814"><ele>23.0</ele><time>2026-04-24T07:58:57Z</time></trkpt><trkpt lat="-17.830269141723818" lon="122.55099159516263"><ele>23.0</ele><time>2026-04-24T07:58:58Z</time></trkpt><trkpt lat="-17.830099985712273" lon="122.55126202614076"><ele>22.0</ele><time>2026-04-24T07:58:59Z</time></trkpt><trkpt lat="-17.829930713968814" lon="122.55153319373282"><ele>21.0</ele><time>2026-04-24T07:59:00Z</time></trkpt><trkpt lat="-17.829761895904344" lon="122.5518014409026"><ele>20.0</ele><time>2026-04-24T07:59:01Z</time></trkpt><trkpt lat="-17.82959424832969" lon="122.5520690351835"><ele>19.0</ele><time>2026-04-24T07:59:02Z</time></trkpt><trkpt lat="-17.8294253769482" lon="122.55233506401338"><ele>18.5</ele><time>2026-04-24T07:59:03Z</time></trkpt><trkpt lat="-17.82925892597021" lon="122.55260114027723"><ele>18.0</ele><time>2026-04-24T07:59:04Z</time></trkpt><trkpt lat="-17.82909362108242" lon="122.55286581592219"><ele>18.0</ele><time>2026-04-24T07:59:05Z</time></trkpt><trkpt lat="-17.82892882712592" lon="122.55312812870689"><ele>18.0</ele><time>2026-04-24T07:59:06Z</time></trkpt><trkpt lat="-17.82876288326951" lon="122.55339170879438"><ele>18.0</ele><time>2026-04-24T07:59:07Z</time></trkpt><trkpt lat="-17.82859594427417" lon="122.55365702829933"><ele>18.0</ele><time>2026-04-24T07:59:08Z</time></trkpt><trkpt lat="-17.828427712823053" lon="122.5539240453953"><ele>19.0</ele><time>2026-04-24T07:59:09Z</time></trkpt><trkpt lat="-17.828259557249687" lon="122.55419007366758"><ele>20.0</ele><time>2026-04-24T07:59:10Z</time></trkpt><trkpt lat="-17.828092977802264" lon="122.55445404389978"><ele>19.0</ele><time>2026-04-24T07:59:11Z</time></trkpt><trkpt lat="-17.82792753936919" lon="122.55471913872574"><ele>18.0</ele><time>2026-04-24T07:59:12Z</time></trkpt><trkpt lat="-17.82776021625476" lon="122.55498403531283"><ele>17.0</ele><time>2026-04-24T07:59:13Z</time></trkpt><trkpt lat="-17.827592895228246" lon="122.55524635237978"><ele>16.0</ele><time>2026-04-24T07:59:14Z</time></trkpt><trkpt lat="-17.82742783389842" lon="122.55551226895027"><ele>16.0</ele><time>2026-04-24T07:59:15Z</time></trkpt><trkpt lat="-17.827263790155623" lon="122.55577977560901"><ele>16.0</ele><time>2026-04-24T07:59:16Z</time></trkpt><trkpt lat="-17.827096526663833" lon="122.55604574607896"><ele>16.5</ele><time>2026-04-24T07:59:17Z</time></trkpt><trkpt lat="-17.826927457394753" lon="122.55631009335328"><ele>17.0</ele><time>2026-04-24T07:59:18Z</time></trkpt><trkpt lat="-17.826755767642194" lon="122.5565773858505"><ele>17.5</ele><time>2026-04-24T07:59:19Z</time></trkpt><trkpt lat="-17.826586163110207" lon="122.55684526489453"><ele>18.0</ele><time>2026-04-24T07:59:20Z</time></trkpt><trkpt lat="-17.826412738607743" lon="122.55711693134023"><ele>18.0</ele><time>2026-04-24T07:59:21Z</time></trkpt><trkpt lat="-17.82624346171206" lon="122.55738594304813"><ele>18.0</ele><time>2026-04-24T07:59:22Z</time></trkpt><trkpt lat="-17.82607142447364" lon="122.55765792671008"><ele>18.5</ele><time>2026-04-24T07:59:23Z</time></trkpt><trkpt lat="-17.82590098900606" lon="122.55793477521215"><ele>19.0</ele><time>2026-04-24T07:59:24Z</time></trkpt><trkpt lat="-17.825729419082215" lon="122.55821229715401"><ele>19.0</ele><time>2026-04-24T07:59:25Z</time></trkpt><trkpt lat="-17.82556008109168" lon="122.55848360355031"><ele>19.0</ele><time>2026-04-24T07:59:26Z</time></trkpt><trkpt lat="-17.82539201195872" lon="122.5587503403207"><ele>18.0</ele><time>2026-04-24T07:59:27Z</time></trkpt><trkpt lat="-17.825223073241858" lon="122.55901434022687"><ele>17.0</ele><time>2026-04-24T07:59:28Z</time></trkpt><trkpt lat="-17.825057384843888" lon="122.55927507016402"><ele>16.5</ele><time>2026-04-24T07:59:29Z</time></trkpt><trkpt lat="-17.824896395335877" lon="122.55953205509796"><ele>16.0</ele><time>2026-04-24T07:59:30Z</time></trkpt><trkpt lat="-17.824736494086526" lon="122.55979113043828"><ele>17.0</ele><time>2026-04-24T07:59:31Z</time></trkpt><trkpt lat="-17.824576932072514" lon="122.56004688358256"><ele>18.0</ele><time>2026-04-24T07:59:32Z</time></trkpt><trkpt lat="-17.824417724460616" lon="122.56030048180374"><ele>18.5</ele><time>2026-04-24T07:59:33Z</time></trkpt><trkpt lat="-17.824262075692364" lon="122.56055797738406"><ele>19.0</ele><time>2026-04-24T07:59:34Z</time></trkpt><trkpt lat="-17.824111496131632" lon="122.56081942084325"><ele>19.0</ele><time>2026-04-24T07:59:35Z</time></trkpt><trkpt lat="-17.823968977600178" lon="122.56108886206236"><ele>19.0</ele><time>2026-04-24T07:59:36Z</time></trkpt><trkpt lat="-17.823837980771554" lon="122.56136765988735"><ele>18.0</ele><time>2026-04-24T07:59:37Z</time></trkpt><trkpt lat="-17.823720546342777" lon="122.56165308343937"><ele>17.0</ele><time>2026-04-24T07:59:38Z</time></trkpt><trkpt lat="-17.823618089973294" lon="122.56194594868582"><ele>17.5</ele><time>2026-04-24T07:59:39Z</time></trkpt><trkpt lat="-17.823535070188818" lon="122.56224506841208"><ele>18.0</ele><time>2026-04-24T07:59:40Z</time></trkpt><trkpt lat="-17.82347112901018" lon="122.56254741389006"><ele>18.0</ele><time>2026-04-24T07:59:41Z</time></trkpt><trkpt lat="-17.82342012749" lon="122.56285319651548"><ele>18.0</ele><time>2026-04-24T07:59:42Z</time></trkpt><trkpt lat="-17.823382011091585" lon="122.56316032219883"><ele>18.0</ele><time>2026-04-24T07:59:43Z</time></trkpt><trkpt lat="-17.8233556030861" lon="122.56346947798114"><ele>18.0</ele><time>2026-04-24T07:59:44Z</time></trkpt><trkpt lat="-17.823344179776548" lon="122.56378426614269"><ele>18.0</ele><time>2026-04-24T07:59:45Z</time></trkpt><trkpt lat="-17.823343505878498" lon="122.5641034356926"><ele>18.0</ele><time>2026-04-24T07:59:46Z</time></trkpt><trkpt lat="-17.823351967966538" lon="122.56442142717802"><ele>17.5</ele><time>2026-04-24T07:59:47Z</time></trkpt><trkpt lat="-17.82335944697653" lon="122.56474004587174"><ele>17.0</ele><time>2026-04-24T07:59:48Z</time></trkpt><trkpt lat="-17.823360893326296" lon="122.56505965599995"><ele>17.5</ele><time>2026-04-24T07:59:49Z</time></trkpt><trkpt lat="-17.82335880861344" lon="122.56537875991148"><ele>18.0</ele><time>2026-04-24T07:59:50Z</time></trkpt><trkpt lat="-17.823354606069945" lon="122.56569885558055"><ele>18.0</ele><time>2026-04-24T07:59:51Z</time></trkpt><trkpt lat="-17.823352758025216" lon="122.56601503377922"><ele>18.0</ele><time>2026-04-24T07:59:52Z</time></trkpt><trkpt lat="-17.823348955463885" lon="122.56665027471152"><ele>17.5</ele><time>2026-04-24T07:59:54Z</time></trkpt><trkpt lat="-17.82334425573818" lon="122.56696227611714"><ele>17.0</ele><time>2026-04-24T07:59:55Z</time></trkpt><trkpt lat="-17.82334212221935" lon="122.56727471140786"><ele>17.0</ele><time>2026-04-24T07:59:56Z</time></trkpt><trkpt lat="-17.82334300252573" lon="122.56758518914268"><ele>17.0</ele><time>2026-04-24T07:59:57Z</time></trkpt><trkpt lat="-17.82334238025348" lon="122.56789788746141"><ele>17.0</ele><time>2026-04-24T07:59:58Z</time></trkpt><trkpt lat="-17.82334201513698" lon="122.5682142840364"><ele>17.0</ele><time>2026-04-24T07:59:59Z</time></trkpt><trkpt lat="-17.823340521746978" lon="122.56853160149778"><ele>16.5</ele><time>2026-04-24T08:00:00Z</time></trkpt><trkpt lat="-17.823338798606198" lon="122.568850587931"><ele>16.0</ele><time>2026-04-24T08:00:01Z</time></trkpt><trkpt lat="-17.823335651519145" lon="122.56916906931882"><ele>16.0</ele><time>2026-04-24T08:00:02Z</time></trkpt><trkpt lat="-17.82333373235512" lon="122.56948948066675"><ele>16.0</ele><time>2026-04-24T08:00:03Z</time></trkpt><trkpt lat="-17.823331753429" lon="122.56981035577307"><ele>16.0</ele><time>2026-04-24T08:00:04Z</time></trkpt><trkpt lat="-17.823330367783747" lon="122.57013345175443"><ele>16.0</ele><time>2026-04-24T08:00:05Z</time></trkpt><trkpt lat="-17.82332903108406" lon="122.57045487255108"><ele>17.0</ele><time>2026-04-24T08:00:06Z</time></trkpt><trkpt lat="-17.823329111046124" lon="122.57077889797105"><ele>18.0</ele><time>2026-04-24T08:00:07Z</time></trkpt><trkpt lat="-17.823330615738314" lon="122.57109996922506"><ele>17.5</ele><time>2026-04-24T08:00:08Z</time></trkpt><trkpt lat="-17.823332433636494" lon="122.57142515115937"><ele>17.0</ele><time>2026-04-24T08:00:09Z</time></trkpt><trkpt lat="-17.82333331937557" lon="122.57174720494181"><ele>17.0</ele><time>2026-04-24T08:00:10Z</time></trkpt><trkpt lat="-17.82333339942513" lon="122.57206800594007"><ele>17.0</ele><time>2026-04-24T08:00:11Z</time></trkpt><trkpt lat="-17.823332132864397" lon="122.57238783144972"><ele>17.0</ele><time>2026-04-24T08:00:12Z</time></trkpt><trkpt lat="-17.82333142758415" lon="122.57270601493097"><ele>17.0</ele><time>2026-04-24T08:00:13Z</time></trkpt><trkpt lat="-17.823330194003407" lon="122.57302337180458"><ele>17.5</ele><time>2026-04-24T08:00:14Z</time></trkpt><trkpt lat="-17.82332947861921" lon="122.57334576965953"><ele>18.0</ele><time>2026-04-24T08:00:15Z</time></trkpt><trkpt lat="-17.8233285254579" lon="122.57366459410169"><ele>17.0</ele><time>2026-04-24T08:00:16Z</time></trkpt><trkpt lat="-17.82332699141648" lon="122.57398265790351"><ele>16.0</ele><time>2026-04-24T08:00:17Z</time></trkpt><trkpt lat="-17.823325456213595" lon="122.57430110952036"><ele>17.0</ele><time>2026-04-24T08:00:18Z</time></trkpt><trkpt lat="-17.823324445258265" lon="122.57462182182175"><ele>18.0</ele><time>2026-04-24T08:00:19Z</time></trkpt><trkpt lat="-17.823325929534946" lon="122.57494009608016"><ele>18.0</ele><time>2026-04-24T08:00:20Z</time></trkpt><trkpt lat="-17.823326508918594" lon="122.57525969073667"><ele>18.0</ele><time>2026-04-24T08:00:21Z</time></trkpt><trkpt lat="-17.823326043453395" lon="122.57558002446497"><ele>18.0</ele><time>2026-04-24T08:00:22Z</time></trkpt><trkpt lat="-17.82332392894929" lon="122.57589991525323"><ele>18.0</ele><time>2026-04-24T08:00:23Z</time></trkpt><trkpt lat="-17.82332089287216" lon="122.5762190570978"><ele>18.0</ele><time>2026-04-24T08:00:24Z</time></trkpt><trkpt lat="-17.823317841517387" lon="122.57653748678688"><ele>18.0</ele><time>2026-04-24T08:00:25Z</time></trkpt><trkpt lat="-17.823314466820893" lon="122.57685870481825"><ele>18.0</ele><time>2026-04-24T08:00:26Z</time></trkpt><trkpt lat="-17.823312789544627" lon="122.57717399066723"><ele>18.0</ele><time>2026-04-24T08:00:27Z</time></trkpt><trkpt lat="-17.823310681272567" lon="122.57747429623508"><ele>18.0</ele><time>2026-04-24T08:00:28Z</time></trkpt><trkpt lat="-17.823308433432103" lon="122.57776778262686"><ele>18.0</ele><time>2026-04-24T08:00:29Z</time></trkpt><trkpt lat="-17.823308958795128" lon="122.57807174259953"><ele>18.0</ele><time>2026-04-24T08:00:30Z</time></trkpt><trkpt lat="-17.82331031331514" lon="122.57838259367252"><ele>18.0</ele><time>2026-04-24T08:00:31Z</time></trkpt><trkpt lat="-17.823308620929385" lon="122.5786983824485"><ele>17.5</ele><time>2026-04-24T08:00:32Z</time></trkpt><trkpt lat="-17.823305506943278" lon="122.57901267512491"><ele>17.0</ele><time>2026-04-24T08:00:33Z</time></trkpt><trkpt lat="-17.82330133651903" lon="122.57932829494874"><ele>17.0</ele><time>2026-04-24T08:00:34Z</time></trkpt><trkpt lat="-17.823297770321645" lon="122.57964799248222"><ele>17.0</ele><time>2026-04-24T08:00:35Z</time></trkpt><trkpt lat="-17.82329623262972" lon="122.57996765300754"><ele>17.0</ele><time>2026-04-24T08:00:36Z</time></trkpt><trkpt lat="-17.823296840634775" lon="122.58029018615474"><ele>17.0</ele><time>2026-04-24T08:00:37Z</time></trkpt><trkpt lat="-17.823297626812508" lon="122.5806096973142"><ele>17.5</ele><time>2026-04-24T08:00:38Z</time></trkpt><trkpt lat="-17.823298628468393" lon="122.58093115187263"><ele>18.0</ele><time>2026-04-24T08:00:39Z</time></trkpt><trkpt lat="-17.823297815672543" lon="122.58124999791194"><ele>18.0</ele><time>2026-04-24T08:00:40Z</time></trkpt><trkpt lat="-17.823295645964876" lon="122.58156893741712"><ele>18.0</ele><time>2026-04-24T08:00:41Z</time></trkpt><trkpt lat="-17.82329347588595" lon="122.58188490509997"><ele>18.5</ele><time>2026-04-24T08:00:42Z</time></trkpt><trkpt lat="-17.823293170300783" lon="122.58220478575336"><ele>19.0</ele><time>2026-04-24T08:00:43Z</time></trkpt><trkpt lat="-17.823292647919512" lon="122.58251836369996"><ele>19.0</ele><time>2026-04-24T08:00:44Z</time></trkpt><trkpt lat="-17.82329331213729" lon="122.58283328333788"><ele>19.0</ele><time>2026-04-24T08:00:45Z</time></trkpt><trkpt lat="-17.82329333064998" lon="122.58314831544351"><ele>18.5</ele><time>2026-04-24T08:00:46Z</time></trkpt><trkpt lat="-17.823293420292426" lon="122.58346297859305"><ele>18.0</ele><time>2026-04-24T08:00:47Z</time></trkpt><trkpt lat="-17.823292973042996" lon="122.58377641606289"><ele>18.0</ele><time>2026-04-24T08:00:48Z</time></trkpt><trkpt lat="-17.823293120709884" lon="122.58409031730203"><ele>18.0</ele><time>2026-04-24T08:00:49Z</time></trkpt><trkpt lat="-17.82329311667492" lon="122.58440202861493"><ele>19.0</ele><time>2026-04-24T08:00:50Z</time></trkpt><trkpt lat="-17.82329226812166" lon="122.58471478775228"><ele>20.0</ele><time>2026-04-24T08:00:51Z</time></trkpt><trkpt lat="-17.823291134007" lon="122.58502676719071"><ele>20.0</ele><time>2026-04-24T08:00:52Z</time></trkpt><trkpt lat="-17.823290269804463" lon="122.58533995274458"><ele>20.0</ele><time>2026-04-24T08:00:53Z</time></trkpt><trkpt lat="-17.823289032638833" lon="122.58565889837087"><ele>20.0</ele><time>2026-04-24T08:00:54Z</time></trkpt><trkpt lat="-17.823287365214988" lon="122.58597811580032"><ele>20.0</ele><time>2026-04-24T08:00:55Z</time></trkpt><trkpt lat="-17.82328634583566" lon="122.5862964292987"><ele>19.5</ele><time>2026-04-24T08:00:56Z</time></trkpt><trkpt lat="-17.823286472668833" lon="122.58661169570387"><ele>19.0</ele><time>2026-04-24T08:00:57Z</time></trkpt><trkpt lat="-17.823285385382377" lon="122.5869265950757"><ele>17.5</ele><time>2026-04-24T08:00:58Z</time></trkpt><trkpt lat="-17.823284544608946" lon="122.58724045264391"><ele>16.0</ele><time>2026-04-24T08:00:59Z</time></trkpt><trkpt lat="-17.823283537055758" lon="122.58755668865379"><ele>16.5</ele><time>2026-04-24T08:01:00Z</time></trkpt><trkpt lat="-17.82328169635674" lon="122.5878722269799"><ele>17.0</ele><time>2026-04-24T08:01:01Z</time></trkpt><trkpt lat="-17.8232802493381" lon="122.58818776230231"><ele>17.0</ele><time>2026-04-24T08:01:02Z</time></trkpt><trkpt lat="-17.82328113071823" lon="122.58850405302906"><ele>17.0</ele><time>2026-04-24T08:01:03Z</time></trkpt><trkpt lat="-17.823282163939673" lon="122.58881671271013"><ele>17.0</ele><time>2026-04-24T08:01:04Z</time></trkpt><trkpt lat="-17.823283033179163" lon="122.5891278925088"><ele>17.0</ele><time>2026-04-24T08:01:05Z</time></trkpt><trkpt lat="-17.823279981655077" lon="122.58942895102732"><ele>18.5</ele><time>2026-04-24T08:01:06Z</time></trkpt><trkpt lat="-17.823275212083068" lon="122.58972681794138"><ele>20.0</ele><time>2026-04-24T08:01:07Z</time></trkpt><trkpt lat="-17.823272039078073" lon="122.59002117176908"><ele>20.0</ele><time>2026-04-24T08:01:08Z</time></trkpt><trkpt lat="-17.82327208964044" lon="122.5903225967781"><ele>20.0</ele><time>2026-04-24T08:01:09Z</time></trkpt><trkpt lat="-17.823272994644714" lon="122.59062247215108"><ele>19.5</ele><time>2026-04-24T08:01:10Z</time></trkpt><trkpt lat="-17.82327284360873" lon="122.59092156707408"><ele>19.0</ele><time>2026-04-24T08:01:11Z</time></trkpt><trkpt lat="-17.823271100219866" lon="122.5912174025973"><ele>19.0</ele><time>2026-04-24T08:01:12Z</time></trkpt><trkpt lat="-17.823269183956594" lon="122.59151161456631"><ele>19.0</ele><time>2026-04-24T08:01:13Z</time></trkpt><trkpt lat="-17.823267823575083" lon="122.591812199819"><ele>19.0</ele><time>2026-04-24T08:01:13.999Z</time></trkpt><trkpt lat="-17.82326904539604" lon="122.59212142584899"><ele>19.0</ele><time>2026-04-24T08:01:14.999Z</time></trkpt><trkpt lat="-17.823277840210654" lon="122.59244108117605"><ele>19.0</ele><time>2026-04-24T08:01:15.999Z</time></trkpt><trkpt lat="-17.823267940042182" lon="122.5927595521863"><ele>19.0</ele><time>2026-04-24T08:01:16.999Z</time></trkpt><trkpt lat="-17.823266748851022" lon="122.59307845031482"><ele>19.0</ele><time>2026-04-24T08:01:17.999Z</time></trkpt><trkpt lat="-17.823265594865603" lon="122.59339277823986"><ele>19.0</ele><time>2026-04-24T08:01:18.999Z</time></trkpt><trkpt lat="-17.823264511938287" lon="122.59370432816728"><ele>20.0</ele><time>2026-04-24T08:01:19.999Z</time></trkpt><trkpt lat="-17.823277622978303" lon="122.59401772247774"><ele>21.0</ele><time>2026-04-24T08:01:20.999Z</time></trkpt><trkpt lat="-17.82327164333631" lon="122.59432861071703"><ele>21.0</ele><time>2026-04-24T08:01:21.999Z</time></trkpt><trkpt lat="-17.82326417707654" lon="122.59463649075167"><ele>21.0</ele><time>2026-04-24T08:01:22.999Z</time></trkpt><trkpt lat="-17.823259482670135" lon="122.59494946075198"><ele>21.0</ele><time>2026-04-24T08:01:23.999Z</time></trkpt><trkpt lat="-17.82325774387901" lon="122.59525798495082"><ele>21.0</ele><time>2026-04-24T08:01:24.999Z</time></trkpt><trkpt lat="-17.823254776658416" lon="122.59556524961675"><ele>21.0</ele><time>2026-04-24T08:01:25.999Z</time></trkpt><trkpt lat="-17.82325324831019" lon="122.5958694321718"><ele>21.0</ele><time>2026-04-24T08:01:26.999Z</time></trkpt><trkpt lat="-17.823250377210393" lon="122.5961729396965"><ele>20.0</ele><time>2026-04-24T08:01:27.999Z</time></trkpt><trkpt lat="-17.823247349794187" lon="122.59647754311825"><ele>19.0</ele><time>2026-04-24T08:01:28.999Z</time></trkpt><trkpt lat="-17.823245852755193" lon="122.59678157777277"><ele>20.0</ele><time>2026-04-24T08:01:29.999Z</time></trkpt><trkpt lat="-17.823245125250985" lon="122.59708217521985"><ele>21.0</ele><time>2026-04-24T08:01:30.999Z</time></trkpt><trkpt lat="-17.82324201446947" lon="122.59738407074349"><ele>21.0</ele><time>2026-04-24T08:01:31.999Z</time></trkpt><trkpt lat="-17.823239885083666" lon="122.59768791781396"><ele>21.0</ele><time>2026-04-24T08:01:32.999Z</time></trkpt><trkpt lat="-17.823236155711623" lon="122.59799110023404"><ele>22.0</ele><time>2026-04-24T08:01:33.999Z</time></trkpt><trkpt lat="-17.823232906522144" lon="122.59829523393888"><ele>23.0</ele><time>2026-04-24T08:01:34.999Z</time></trkpt><trkpt lat="-17.823230453986582" lon="122.59860100332394"><ele>22.5</ele><time>2026-04-24T08:01:35.999Z</time></trkpt><trkpt lat="-17.823228990749847" lon="122.5989076595384"><ele>22.0</ele><time>2026-04-24T08:01:36.999Z</time></trkpt><trkpt lat="-17.823228172292847" lon="122.59921189669082"><ele>21.0</ele><time>2026-04-24T08:01:37.999Z</time></trkpt><trkpt lat="-17.823228141942742" lon="122.59951809678233"><ele>20.0</ele><time>2026-04-24T08:01:38.999Z</time></trkpt><trkpt lat="-17.8232268174997" lon="122.59982372331493"><ele>20.0</ele><time>2026-04-24T08:01:39.999Z</time></trkpt><trkpt lat="-17.823224257263256" lon="122.60012843054751"><ele>20.0</ele><time>2026-04-24T08:01:40.999Z</time></trkpt><trkpt lat="-17.823222336659587" lon="122.60043545333794"><ele>21.0</ele><time>2026-04-24T08:01:41.999Z</time></trkpt><trkpt lat="-17.823221688632493" lon="122.60074159806986"><ele>22.0</ele><time>2026-04-24T08:01:42.999Z</time></trkpt><trkpt lat="-17.823221254490587" lon="122.60104926689439"><ele>23.0</ele><time>2026-04-24T08:01:43.999Z</time></trkpt><trkpt lat="-17.8232227751608" lon="122.60135571696051"><ele>24.0</ele><time>2026-04-24T08:01:44.999Z</time></trkpt><trkpt lat="-17.823224322418344" lon="122.60166288580719"><ele>24.0</ele><time>2026-04-24T08:01:45.999Z</time></trkpt><trkpt lat="-17.823224595345348" lon="122.60197070157943"><ele>24.0</ele><time>2026-04-24T08:01:46.999Z</time></trkpt><trkpt lat="-17.823222845503306" lon="122.60228028152551"><ele>24.5</ele><time>2026-04-24T08:01:47.999Z</time></trkpt><trkpt lat="-17.8232174070955" lon="122.60259009693053"><ele>25.0</ele><time>2026-04-24T08:01:48.999Z</time></trkpt><trkpt lat="-17.823211589231175" lon="122.60290234149306"><ele>25.0</ele><time>2026-04-24T08:01:49.999Z</time></trkpt><trkpt lat="-17.823210016466305" lon="122.60321342513868"><ele>25.0</ele><time>2026-04-24T08:01:50.999Z</time></trkpt><trkpt lat="-17.823209262696206" lon="122.6035267978121"><ele>24.5</ele><time>2026-04-24T08:01:51.999Z</time></trkpt><trkpt lat="-17.82321021986821" lon="122.60384022965613"><ele>24.0</ele><time>2026-04-24T08:01:52.999Z</time></trkpt><trkpt lat="-17.823211718290402" lon="122.60415431162097"><ele>24.0</ele><time>2026-04-24T08:01:53.999Z</time></trkpt><trkpt lat="-17.823211939433595" lon="122.60446874919731"><ele>24.0</ele><time>2026-04-24T08:01:54.999Z</time></trkpt><trkpt lat="-17.82321179000688" lon="122.60478160434185"><ele>25.0</ele><time>2026-04-24T08:01:55.999Z</time></trkpt><trkpt lat="-17.823210690054548" lon="122.60509289481625"><ele>26.0</ele><time>2026-04-24T08:01:56.999Z</time></trkpt><trkpt lat="-17.82320811540784" lon="122.60540490146062"><ele>27.0</ele><time>2026-04-24T08:01:57.999Z</time></trkpt><trkpt lat="-17.823205058215116" lon="122.60571596390642"><ele>28.0</ele><time>2026-04-24T08:01:59Z</time></trkpt><trkpt lat="-17.823203727438127" lon="122.60602655866155"><ele>28.5</ele><time>2026-04-24T08:02:00Z</time></trkpt><trkpt lat="-17.823202169764112" lon="122.60633849779092"><ele>29.0</ele><time>2026-04-24T08:02:01Z</time></trkpt><trkpt lat="-17.823200064198165" lon="122.60664999728752"><ele>29.0</ele><time>2026-04-24T08:02:02Z</time></trkpt><trkpt lat="-17.823198285745615" lon="122.60696225366158"><ele>29.0</ele><time>2026-04-24T08:02:03Z</time></trkpt><trkpt lat="-17.823196335000812" lon="122.6072746469633"><ele>28.0</ele><time>2026-04-24T08:02:04Z</time></trkpt><trkpt lat="-17.823195503942653" lon="122.60758672086293"><ele>27.0</ele><time>2026-04-24T08:02:05Z</time></trkpt><trkpt lat="-17.82319549854922" lon="122.60789872933907"><ele>26.5</ele><time>2026-04-24T08:02:06Z</time></trkpt><trkpt lat="-17.823196089149178" lon="122.60821242771176"><ele>26.0</ele><time>2026-04-24T08:02:07Z</time></trkpt><trkpt lat="-17.82319476763151" lon="122.60852201257644"><ele>26.5</ele><time>2026-04-24T08:02:08Z</time></trkpt><trkpt lat="-17.8231918426283" lon="122.60883273048132"><ele>27.0</ele><time>2026-04-24T08:02:09Z</time></trkpt><trkpt lat="-17.82318974611598" lon="122.60914379585081"><ele>27.0</ele><time>2026-04-24T08:02:10Z</time></trkpt><trkpt lat="-17.823188425105446" lon="122.6094568556605"><ele>27.0</ele><time>2026-04-24T08:02:11Z</time></trkpt><trkpt lat="-17.823188255435" lon="122.60977099538849"><ele>27.5</ele><time>2026-04-24T08:02:12Z</time></trkpt><trkpt lat="-17.823188151216403" lon="122.61008402123474"><ele>28.0</ele><time>2026-04-24T08:02:13Z</time></trkpt><trkpt lat="-17.82318595619363" lon="122.61039877997173"><ele>28.0</ele><time>2026-04-24T08:02:14Z</time></trkpt><trkpt lat="-17.823183382755378" lon="122.61071298817981"><ele>28.0</ele><time>2026-04-24T08:02:15Z</time></trkpt><trkpt lat="-17.823179685883193" lon="122.61102639503575"><ele>29.0</ele><time>2026-04-24T08:02:16Z</time></trkpt><trkpt lat="-17.82317598632437" lon="122.61134180572859"><ele>30.0</ele><time>2026-04-24T08:02:17Z</time></trkpt><trkpt lat="-17.823174124825982" lon="122.61165346976406"><ele>30.0</ele><time>2026-04-24T08:02:18Z</time></trkpt><trkpt lat="-17.82317295305615" lon="122.611967495664"><ele>30.0</ele><time>2026-04-24T08:02:19Z</time></trkpt><trkpt lat="-17.82317197219326" lon="122.6122813783187"><ele>28.5</ele><time>2026-04-24T08:02:20Z</time></trkpt><trkpt lat="-17.82317107258328" lon="122.61259401108263"><ele>27.0</ele><time>2026-04-24T08:02:21Z</time></trkpt><trkpt lat="-17.823169988634344" lon="122.61290740134972"><ele>26.5</ele><time>2026-04-24T08:02:22Z</time></trkpt><trkpt lat="-17.8231667230847" lon="122.61322113357866"><ele>26.0</ele><time>2026-04-24T08:02:23Z</time></trkpt><trkpt lat="-17.8231631374267" lon="122.61353354614391"><ele>26.5</ele><time>2026-04-24T08:02:24Z</time></trkpt><trkpt lat="-17.823159846506762" lon="122.61384281840594"><ele>27.0</ele><time>2026-04-24T08:02:25Z</time></trkpt><trkpt lat="-17.82315729771888" lon="122.61415416110829"><ele>27.0</ele><time>2026-04-24T08:02:26Z</time></trkpt><trkpt lat="-17.8231556479255" lon="122.61446640470149"><ele>27.0</ele><time>2026-04-24T08:02:27Z</time></trkpt><trkpt lat="-17.82315661519418" lon="122.61478119109532"><ele>27.5</ele><time>2026-04-24T08:02:28Z</time></trkpt><trkpt lat="-17.82315862159446" lon="122.61509458328159"><ele>28.0</ele><time>2026-04-24T08:02:29Z</time></trkpt><trkpt lat="-17.82315796516603" lon="122.61540789474437"><ele>28.0</ele><time>2026-04-24T08:02:30Z</time></trkpt><trkpt lat="-17.8231561502166" lon="122.6157229216325"><ele>28.0</ele><time>2026-04-24T08:02:31Z</time></trkpt><trkpt lat="-17.82315405324832" lon="122.61603872699037"><ele>27.0</ele><time>2026-04-24T08:02:32Z</time></trkpt><trkpt lat="-17.823153027569163" lon="122.61635443319533"><ele>26.0</ele><time>2026-04-24T08:02:33Z</time></trkpt><trkpt lat="-17.823150946923842" lon="122.61667096038471"><ele>26.0</ele><time>2026-04-24T08:02:34Z</time></trkpt><trkpt lat="-17.823147680094742" lon="122.61698576434992"><ele>26.0</ele><time>2026-04-24T08:02:34.999Z</time></trkpt><trkpt lat="-17.823144574585367" lon="122.6173027954778"><ele>27.0</ele><time>2026-04-24T08:02:35.999Z</time></trkpt><trkpt lat="-17.823142672688437" lon="122.61761990660167"><ele>28.0</ele><time>2026-04-24T08:02:36.999Z</time></trkpt><trkpt lat="-17.823140777618036" lon="122.61793444604781"><ele>28.5</ele><time>2026-04-24T08:02:37.999Z</time></trkpt><trkpt lat="-17.823138569350203" lon="122.61824796371097"><ele>29.0</ele><time>2026-04-24T08:02:38.999Z</time></trkpt><trkpt lat="-17.82313508267531" lon="122.61856357128872"><ele>29.0</ele><time>2026-04-24T08:02:39.999Z</time></trkpt><trkpt lat="-17.82313238845121" lon="122.61887482361233"><ele>29.0</ele><time>2026-04-24T08:02:40.999Z</time></trkpt><trkpt lat="-17.823130041208476" lon="122.61918918791382"><ele>28.0</ele><time>2026-04-24T08:02:41.999Z</time></trkpt><trkpt lat="-17.823127836493857" lon="122.61950526710042"><ele>27.0</ele><time>2026-04-24T08:02:42.999Z</time></trkpt><trkpt lat="-17.823128110315604" lon="122.6198201376522"><ele>27.0</ele><time>2026-04-24T08:02:43.999Z</time></trkpt><trkpt lat="-17.82312855016949" lon="122.62013752436425"><ele>27.0</ele><time>2026-04-24T08:02:44.999Z</time></trkpt><trkpt lat="-17.823126773767854" lon="122.62045710917438"><ele>27.5</ele><time>2026-04-24T08:02:45.999Z</time></trkpt><trkpt lat="-17.823124681255273" lon="122.62077680350193"><ele>28.0</ele><time>2026-04-24T08:02:46.999Z</time></trkpt><trkpt lat="-17.823123124206504" lon="122.62109344386987"><ele>27.0</ele><time>2026-04-24T08:02:47.999Z</time></trkpt><trkpt lat="-17.823119935863218" lon="122.62141192962123"><ele>26.0</ele><time>2026-04-24T08:02:48.999Z</time></trkpt><trkpt lat="-17.823117942053226" lon="122.6217307656885"><ele>25.5</ele><time>2026-04-24T08:02:49.999Z</time></trkpt><trkpt lat="-17.823115079605287" lon="122.62205107660654"><ele>25.0</ele><time>2026-04-24T08:02:50.999Z</time></trkpt><trkpt lat="-17.82311265493918" lon="122.62236822608152"><ele>25.0</ele><time>2026-04-24T08:02:51.999Z</time></trkpt><trkpt lat="-17.823112723597994" lon="122.62268718299076"><ele>25.0</ele><time>2026-04-24T08:02:52.999Z</time></trkpt><trkpt lat="-17.82311323883373" lon="122.62300837373773"><ele>24.5</ele><time>2026-04-24T08:02:53.999Z</time></trkpt><trkpt lat="-17.823112609687275" lon="122.62333199031883"><ele>24.0</ele><time>2026-04-24T08:02:54.999Z</time></trkpt><trkpt lat="-17.82311041077665" lon="122.62365186479724"><ele>24.0</ele><time>2026-04-24T08:02:55.999Z</time></trkpt><trkpt lat="-17.82310591056838" lon="122.62397457354884"><ele>24.0</ele><time>2026-04-24T08:02:56.999Z</time></trkpt><trkpt lat="-17.82310088448717" lon="122.6242936151331"><ele>25.0</ele><time>2026-04-24T08:02:57.999Z</time></trkpt><trkpt lat="-17.823097062913916" lon="122.62461352125592"><ele>26.0</ele><time>2026-04-24T08:02:58.999Z</time></trkpt><trkpt lat="-17.82309364847152" lon="122.62493709455669"><ele>26.0</ele><time>2026-04-24T08:02:59.999Z</time></trkpt><trkpt lat="-17.82309063687048" lon="122.62525998724212"><ele>26.0</ele><time>2026-04-24T08:03:00.999Z</time></trkpt><trkpt lat="-17.82308929859206" lon="122.62558273432855"><ele>24.5</ele><time>2026-04-24T08:03:01.999Z</time></trkpt><trkpt lat="-17.823088995633636" lon="122.62590772457733"><ele>23.0</ele><time>2026-04-24T08:03:02.999Z</time></trkpt><trkpt lat="-17.823088881703942" lon="122.6262335144324"><ele>22.0</ele><time>2026-04-24T08:03:03.999Z</time></trkpt><trkpt lat="-17.823088552454102" lon="122.62655672498975"><ele>21.0</ele><time>2026-04-24T08:03:04.999Z</time></trkpt><trkpt lat="-17.823085630893996" lon="122.62688100122212"><ele>21.0</ele><time>2026-04-24T08:03:05.999Z</time></trkpt><trkpt lat="-17.823082928424" lon="122.62720428613501"><ele>21.0</ele><time>2026-04-24T08:03:06.999Z</time></trkpt><trkpt lat="-17.823082701158008" lon="122.62752191413729"><ele>21.5</ele><time>2026-04-24T08:03:07.999Z</time></trkpt><trkpt lat="-17.823080407316542" lon="122.62784259217185"><ele>22.0</ele><time>2026-04-24T08:03:08.999Z</time></trkpt><trkpt lat="-17.823077957701074" lon="122.62816007920047"><ele>22.0</ele><time>2026-04-24T08:03:09.999Z</time></trkpt><trkpt lat="-17.823073950661286" lon="122.62847551933105"><ele>22.0</ele><time>2026-04-24T08:03:10.999Z</time></trkpt><trkpt lat="-17.823065385201982" lon="122.62878929668354"><ele>21.5</ele><time>2026-04-24T08:03:11.999Z</time></trkpt><trkpt lat="-17.823050102738346" lon="122.62909890089308"><ele>21.0</ele><time>2026-04-24T08:03:12.999Z</time></trkpt><trkpt lat="-17.823023094985952" lon="122.62940803849403"><ele>20.5</ele><time>2026-04-24T08:03:13.999Z</time></trkpt><trkpt lat="-17.822953738800692" lon="122.62970885813135"><ele>20.0</ele><time>2026-04-24T08:03:14.999Z</time></trkpt><trkpt lat="-17.822882244189987" lon="122.63001482392913"><ele>20.5</ele><time>2026-04-24T08:03:15.999Z</time></trkpt><trkpt lat="-17.822896734971536" lon="122.63034348950404"><ele>21.0</ele><time>2026-04-24T08:03:16.999Z</time></trkpt><trkpt lat="-17.822839220486372" lon="122.63065250214838"><ele>21.0</ele><time>2026-04-24T08:03:17.999Z</time></trkpt><trkpt lat="-17.822773534822236" lon="122.63095744918697"><ele>21.0</ele><time>2026-04-24T08:03:18.999Z</time></trkpt><trkpt lat="-17.822700217839973" lon="122.63126205434457"><ele>21.5</ele><time>2026-04-24T08:03:19.999Z</time></trkpt><trkpt lat="-17.82262356517025" lon="122.63156321347415"><ele>22.0</ele><time>2026-04-24T08:03:20.999Z</time></trkpt><trkpt lat="-17.822544150047516" lon="122.6318641996983"><ele>22.5</ele><time>2026-04-24T08:03:21.999Z</time></trkpt><trkpt lat="-17.822460704931945" lon="122.6321620885728"><ele>23.0</ele><time>2026-04-24T08:03:22.999Z</time></trkpt><trkpt lat="-17.822374170807144" lon="122.63246125525693"><ele>23.0</ele><time>2026-04-24T08:03:23.999Z</time></trkpt><trkpt lat="-17.822290487256765" lon="122.63275607468648"><ele>23.0</ele><time>2026-04-24T08:03:24.999Z</time></trkpt><trkpt lat="-17.82221281859522" lon="122.63303998276474"><ele>22.5</ele><time>2026-04-24T08:03:25.999Z</time></trkpt><trkpt lat="-17.822139025406017" lon="122.63331003484498"><ele>22.0</ele><time>2026-04-24T08:03:26.999Z</time></trkpt><trkpt lat="-17.822068690785773" lon="122.63358396737624"><ele>21.5</ele><time>2026-04-24T08:03:27.999Z</time></trkpt><trkpt lat="-17.82199820923693" lon="122.63386531231622"><ele>21.0</ele><time>2026-04-24T08:03:28.999Z</time></trkpt><trkpt lat="-17.82192098529899" lon="122.634144803496"><ele>21.0</ele><time>2026-04-24T08:03:29.999Z</time></trkpt><trkpt lat="-17.821838495002794" lon="122.63441900306455"><ele>21.0</ele><time>2026-04-24T08:03:30.999Z</time></trkpt><trkpt lat="-17.821756774518576" lon="122.63468520453955"><ele>21.0</ele><time>2026-04-24T08:03:31.999Z</time></trkpt><trkpt lat="-17.821680000495522" lon="122.63494453408214"><ele>21.0</ele><time>2026-04-24T08:03:32.999Z</time></trkpt><trkpt lat="-17.821606587421122" lon="122.63520374723312"><ele>21.0</ele><time>2026-04-24T08:03:33.999Z</time></trkpt><trkpt lat="-17.82153434391082" lon="122.63546586020425"><ele>21.0</ele><time>2026-04-24T08:03:34.999Z</time></trkpt><trkpt lat="-17.8214611873901" lon="122.63573339426708"><ele>21.0</ele><time>2026-04-24T08:03:35.999Z</time></trkpt><trkpt lat="-17.82139036281126" lon="122.63599526826405"><ele>21.0</ele><time>2026-04-24T08:03:36.999Z</time></trkpt><trkpt lat="-17.821318633235173" lon="122.6362551091338"><ele>21.0</ele><time>2026-04-24T08:03:37.999Z</time></trkpt><trkpt lat="-17.82124354188045" lon="122.63651753242056"><ele>21.0</ele><time>2026-04-24T08:03:38.999Z</time></trkpt><trkpt lat="-17.821171851585802" lon="122.63678281154604"><ele>21.0</ele><time>2026-04-24T08:03:39.999Z</time></trkpt><trkpt lat="-17.821103862558985" lon="122.6370559153691"><ele>21.0</ele><time>2026-04-24T08:03:40.999Z</time></trkpt><trkpt lat="-17.821032059725262" lon="122.63734651514446"><ele>20.5</ele><time>2026-04-24T08:03:41.999Z</time></trkpt><trkpt lat="-17.82095227440931" lon="122.63765017647816"><ele>20.0</ele><time>2026-04-24T08:03:42.999Z</time></trkpt><trkpt lat="-17.820870115356804" lon="122.63795562884519"><ele>19.5</ele><time>2026-04-24T08:03:43.999Z</time></trkpt><trkpt lat="-17.82078983935164" lon="122.63825771170612"><ele>19.0</ele><time>2026-04-24T08:03:44.999Z</time></trkpt><trkpt lat="-17.82070728694214" lon="122.63855473104906"><ele>20.0</ele><time>2026-04-24T08:03:45.999Z</time></trkpt><trkpt lat="-17.820621441727535" lon="122.63884913773447"><ele>21.0</ele><time>2026-04-24T08:03:46.999Z</time></trkpt><trkpt lat="-17.820528905476976" lon="122.6391394846909"><ele>21.0</ele><time>2026-04-24T08:03:47.999Z</time></trkpt><trkpt lat="-17.82043398313255" lon="122.63942594835036"><ele>21.0</ele><time>2026-04-24T08:03:48.999Z</time></trkpt><trkpt lat="-17.82034327842396" lon="122.6397154811875"><ele>20.5</ele><time>2026-04-24T08:03:49.999Z</time></trkpt><trkpt lat="-17.8202591757443" lon="122.64000236054082"><ele>20.0</ele><time>2026-04-24T08:03:50.999Z</time></trkpt><trkpt lat="-17.820180596893664" lon="122.6402933813212"><ele>20.0</ele><time>2026-04-24T08:03:51.999Z</time></trkpt><trkpt lat="-17.82010196068843" lon="122.64058360518953"><ele>20.0</ele><time>2026-04-24T08:03:52.999Z</time></trkpt><trkpt lat="-17.82002176993316" lon="122.64087543484384"><ele>21.0</ele><time>2026-04-24T08:03:53.999Z</time></trkpt><trkpt lat="-17.819941264671126" lon="122.64116445510646"><ele>22.0</ele><time>2026-04-24T08:03:54.999Z</time></trkpt><trkpt lat="-17.81985998670266" lon="122.64145374478746"><ele>22.0</ele><time>2026-04-24T08:03:55.999Z</time></trkpt><trkpt lat="-17.81977786585302" lon="122.64174310061215"><ele>22.0</ele><time>2026-04-24T08:03:56.999Z</time></trkpt><trkpt lat="-17.819697274472453" lon="122.64203174777053"><ele>21.5</ele><time>2026-04-24T08:03:57.999Z</time></trkpt><trkpt lat="-17.819616375310588" lon="122.64232071568246"><ele>21.0</ele><time>2026-04-24T08:03:58.999Z</time></trkpt><trkpt lat="-17.8195354107038" lon="122.64260789774778"><ele>20.5</ele><time>2026-04-24T08:03:59.999Z</time></trkpt><trkpt lat="-17.819455431909077" lon="122.64289768711679"><ele>20.0</ele><time>2026-04-24T08:04:00.999Z</time></trkpt><trkpt lat="-17.819374976022402" lon="122.64318704438644"><ele>20.0</ele><time>2026-04-24T08:04:01.999Z</time></trkpt><trkpt lat="-17.819295753908293" lon="122.64347917815054"><ele>20.0</ele><time>2026-04-24T08:04:02.999Z</time></trkpt><trkpt lat="-17.81921646824106" lon="122.6437684712357"><ele>20.5</ele><time>2026-04-24T08:04:04Z</time></trkpt><trkpt lat="-17.8191367055471" lon="122.64405856685738"><ele>21.0</ele><time>2026-04-24T08:04:05Z</time></trkpt><trkpt lat="-17.819057014868914" lon="122.64434750683766"><ele>22.0</ele><time>2026-04-24T08:04:06Z</time></trkpt><trkpt lat="-17.818975344359817" lon="122.64463465880245"><ele>23.0</ele><time>2026-04-24T08:04:07Z</time></trkpt><trkpt lat="-17.818891949868767" lon="122.64492016301749"><ele>23.0</ele><time>2026-04-24T08:04:08Z</time></trkpt><trkpt lat="-17.818811701851157" lon="122.64520338528261"><ele>23.0</ele><time>2026-04-24T08:04:09Z</time></trkpt><trkpt lat="-17.818734880141744" lon="122.6454896186803"><ele>21.5</ele><time>2026-04-24T08:04:10Z</time></trkpt><trkpt lat="-17.818656460308347" lon="122.64577279815218"><ele>20.0</ele><time>2026-04-24T08:04:11Z</time></trkpt><trkpt lat="-17.818575770563054" lon="122.64605570482021"><ele>20.0</ele><time>2026-04-24T08:04:12Z</time></trkpt><trkpt lat="-17.818496394271076" lon="122.64633670318959"><ele>20.0</ele><time>2026-04-24T08:04:13Z</time></trkpt><trkpt lat="-17.818418272367865" lon="122.64662015344173"><ele>20.5</ele><time>2026-04-24T08:04:14Z</time></trkpt><trkpt lat="-17.81834091460385" lon="122.64690337350683"><ele>21.0</ele><time>2026-04-24T08:04:15Z</time></trkpt><trkpt lat="-17.818264890842546" lon="122.64718412089445"><ele>21.0</ele><time>2026-04-24T08:04:16Z</time></trkpt><trkpt lat="-17.81818839417076" lon="122.64746661738134"><ele>21.0</ele><time>2026-04-24T08:04:17Z</time></trkpt><trkpt lat="-17.81811131443246" lon="122.64774765096591"><ele>22.0</ele><time>2026-04-24T08:04:18Z</time></trkpt><trkpt lat="-17.818033311976986" lon="122.64802921782935"><ele>23.0</ele><time>2026-04-24T08:04:19Z</time></trkpt><trkpt lat="-17.81795378019534" lon="122.64830759510511"><ele>23.0</ele><time>2026-04-24T08:04:20Z</time></trkpt><trkpt lat="-17.817871995271414" lon="122.64858658216065"><ele>23.0</ele><time>2026-04-24T08:04:21Z</time></trkpt><trkpt lat="-17.81779280078607" lon="122.64886655020214"><ele>22.0</ele><time>2026-04-24T08:04:22Z</time></trkpt><trkpt lat="-17.817714654631708" lon="122.64914719505944"><ele>21.0</ele><time>2026-04-24T08:04:23Z</time></trkpt><trkpt lat="-17.817637362060186" lon="122.64943036920155"><ele>20.0</ele><time>2026-04-24T08:04:24Z</time></trkpt><trkpt lat="-17.817560910590625" lon="122.64971949228922"><ele>19.0</ele><time>2026-04-24T08:04:25Z</time></trkpt><trkpt lat="-17.817480779508642" lon="122.65001229926207"><ele>19.5</ele><time>2026-04-24T08:04:26Z</time></trkpt><trkpt lat="-17.81739767797023" lon="122.65030832930043"><ele>20.0</ele><time>2026-04-24T08:04:27Z</time></trkpt><trkpt lat="-17.81731440497149" lon="122.65060592334918"><ele>20.0</ele><time>2026-04-24T08:04:28Z</time></trkpt><trkpt lat="-17.817231957669176" lon="122.6509032711123"><ele>20.0</ele><time>2026-04-24T08:04:29Z</time></trkpt><trkpt lat="-17.817147173418498" lon="122.65119942992776"><ele>20.0</ele><time>2026-04-24T08:04:30Z</time></trkpt><trkpt lat="-17.81706055007391" lon="122.65149865796974"><ele>20.0</ele><time>2026-04-24T08:04:31Z</time></trkpt><trkpt lat="-17.816976444683455" lon="122.65179558982727"><ele>20.5</ele><time>2026-04-24T08:04:32Z</time></trkpt><trkpt lat="-17.816894207858226" lon="122.65209368073278"><ele>21.0</ele><time>2026-04-24T08:04:33Z</time></trkpt><trkpt lat="-17.816811617923484" lon="122.65239210648889"><ele>21.0</ele><time>2026-04-24T08:04:34Z</time></trkpt><trkpt lat="-17.81673006634293" lon="122.65268861323524"><ele>21.0</ele><time>2026-04-24T08:04:35Z</time></trkpt><trkpt lat="-17.816649482068108" lon="122.65298421719616"><ele>21.0</ele><time>2026-04-24T08:04:36Z</time></trkpt><trkpt lat="-17.816566823161708" lon="122.65327983025921"><ele>21.0</ele><time>2026-04-24T08:04:37Z</time></trkpt><trkpt lat="-17.816485618070118" lon="122.65357468943671"><ele>21.5</ele><time>2026-04-24T08:04:38Z</time></trkpt><trkpt lat="-17.81640298131505" lon="122.65386898065059"><ele>22.0</ele><time>2026-04-24T08:04:39Z</time></trkpt><trkpt lat="-17.81632181523587" lon="122.65416171739552"><ele>21.5</ele><time>2026-04-24T08:04:40Z</time></trkpt><trkpt lat="-17.816239213015322" lon="122.65445736003187"><ele>21.0</ele><time>2026-04-24T08:04:41Z</time></trkpt><trkpt lat="-17.81615736793503" lon="122.65475237297048"><ele>21.0</ele><time>2026-04-24T08:04:42Z</time></trkpt><trkpt lat="-17.816073759626722" lon="122.65504812585701"><ele>21.0</ele><time>2026-04-24T08:04:43Z</time></trkpt><trkpt lat="-17.81599438451914" lon="122.65534474751826"><ele>21.0</ele><time>2026-04-24T08:04:44Z</time></trkpt><trkpt lat="-17.81591315411669" lon="122.65564416405363"><ele>21.0</ele><time>2026-04-24T08:04:45Z</time></trkpt><trkpt lat="-17.815833543768196" lon="122.65594625275413"><ele>21.5</ele><time>2026-04-24T08:04:46Z</time></trkpt><trkpt lat="-17.815759052379228" lon="122.65624837844507"><ele>22.0</ele><time>2026-04-24T08:04:47Z</time></trkpt><trkpt lat="-17.81569256117157" lon="122.65655211318976"><ele>22.0</ele><time>2026-04-24T08:04:48Z</time></trkpt><trkpt lat="-17.81563479515336" lon="122.65685609192808"><ele>22.0</ele><time>2026-04-24T08:04:49Z</time></trkpt><trkpt lat="-17.81558243277442" lon="122.65716510183911"><ele>21.5</ele><time>2026-04-24T08:04:50Z</time></trkpt><trkpt lat="-17.815534765229543" lon="122.65747709341137"><ele>21.0</ele><time>2026-04-24T08:04:51Z</time></trkpt><trkpt lat="-17.815494369781515" lon="122.65778813102403"><ele>21.0</ele><time>2026-04-24T08:04:52Z</time></trkpt><trkpt lat="-17.815462630385014" lon="122.65809997929924"><ele>21.0</ele><time>2026-04-24T08:04:53Z</time></trkpt><trkpt lat="-17.81544329524885" lon="122.65841064356985"><ele>21.0</ele><time>2026-04-24T08:04:54Z</time></trkpt><trkpt lat="-17.815430792657427" lon="122.65872659234742"><ele>21.0</ele><time>2026-04-24T08:04:55Z</time></trkpt><trkpt lat="-17.81542947876784" lon="122.6590403036904"><ele>21.0</ele><time>2026-04-24T08:04:56Z</time></trkpt><trkpt lat="-17.815433960112532" lon="122.65935389235929"><ele>21.0</ele><time>2026-04-24T08:04:57Z</time></trkpt><trkpt lat="-17.815444043919047" lon="122.65966617929027"><ele>20.5</ele><time>2026-04-24T08:04:58Z</time></trkpt><trkpt lat="-17.81545899845306" lon="122.65997808658527"><ele>20.0</ele><time>2026-04-24T08:04:59Z</time></trkpt><trkpt lat="-17.815477872732767" lon="122.66028818365906"><ele>20.0</ele><time>2026-04-24T08:05:00Z</time></trkpt><trkpt lat="-17.815497145154588" lon="122.66060216474096"><ele>20.0</ele><time>2026-04-24T08:05:01Z</time></trkpt><trkpt lat="-17.815516352681307" lon="122.66091245316049"><ele>20.5</ele><time>2026-04-24T08:05:02Z</time></trkpt><trkpt lat="-17.815534273831748" lon="122.66122553982999"><ele>21.0</ele><time>2026-04-24T08:05:03Z</time></trkpt><trkpt lat="-17.815551355488925" lon="122.66153479558508"><ele>21.0</ele><time>2026-04-24T08:05:04Z</time></trkpt><trkpt lat="-17.81556645917881" lon="122.66184714018692"><ele>21.0</ele><time>2026-04-24T08:05:05Z</time></trkpt><trkpt lat="-17.815579499251022" lon="122.66216130826376"><ele>21.0</ele><time>2026-04-24T08:05:06Z</time></trkpt><trkpt lat="-17.81559284652127" lon="122.66247638759677"><ele>21.0</ele><time>2026-04-24T08:05:07Z</time></trkpt><trkpt lat="-17.815607348116814" lon="122.66278967183507"><ele>21.0</ele><time>2026-04-24T08:05:07.999Z</time></trkpt><trkpt lat="-17.81562522202644" lon="122.6631023263846"><ele>21.0</ele><time>2026-04-24T08:05:08.999Z</time></trkpt><trkpt lat="-17.815641054343086" lon="122.66341352481452"><ele>20.5</ele><time>2026-04-24T08:05:09.999Z</time></trkpt><trkpt lat="-17.815657809973168" lon="122.66372840316527"><ele>20.0</ele><time>2026-04-24T08:05:10.999Z</time></trkpt><trkpt lat="-17.815673555318597" lon="122.66404182054944"><ele>20.0</ele><time>2026-04-24T08:05:11.999Z</time></trkpt><trkpt lat="-17.81568888765241" lon="122.66435693518096"><ele>20.0</ele><time>2026-04-24T08:05:12.999Z</time></trkpt><trkpt lat="-17.815704530864945" lon="122.66467367648498"><ele>20.0</ele><time>2026-04-24T08:05:13.999Z</time></trkpt><trkpt lat="-17.815720721929146" lon="122.6649906707891"><ele>20.0</ele><time>2026-04-24T08:05:14.999Z</time></trkpt><trkpt lat="-17.815737356912837" lon="122.66530922097299"><ele>20.0</ele><time>2026-04-24T08:05:15.999Z</time></trkpt><trkpt lat="-17.815754663677094" lon="122.66563084497018"><ele>20.0</ele><time>2026-04-24T08:05:16.999Z</time></trkpt><trkpt lat="-17.815770702228818" lon="122.6659511245501"><ele>20.0</ele><time>2026-04-24T08:05:17.999Z</time></trkpt><trkpt lat="-17.81578601415759" lon="122.66627273164663"><ele>20.0</ele><time>2026-04-24T08:05:18.999Z</time></trkpt><trkpt lat="-17.81580201331158" lon="122.66659383124552"><ele>20.0</ele><time>2026-04-24T08:05:19.999Z</time></trkpt><trkpt lat="-17.81581807245453" lon="122.66691216655919"><ele>20.0</ele><time>2026-04-24T08:05:20.999Z</time></trkpt><trkpt lat="-17.81583461132599" lon="122.66723118206899"><ele>19.5</ele><time>2026-04-24T08:05:21.999Z</time></trkpt><trkpt lat="-17.81585097856644" lon="122.6675523041945"><ele>19.0</ele><time>2026-04-24T08:05:22.999Z</time></trkpt><trkpt lat="-17.815867298626188" lon="122.6678695614393"><ele>18.5</ele><time>2026-04-24T08:05:23.999Z</time></trkpt><trkpt lat="-17.81588282533688" lon="122.66818828638073"><ele>18.0</ele><time>2026-04-24T08:05:24.999Z</time></trkpt><trkpt lat="-17.815897205751394" lon="122.6685085523102"><ele>18.0</ele><time>2026-04-24T08:05:25.999Z</time></trkpt><trkpt lat="-17.815910552977872" lon="122.6688268074865"><ele>18.0</ele><time>2026-04-24T08:05:26.999Z</time></trkpt><trkpt lat="-17.815924781425114" lon="122.66914114840579"><ele>17.5</ele><time>2026-04-24T08:05:27.999Z</time></trkpt><trkpt lat="-17.815940592751627" lon="122.66945752820035"><ele>17.0</ele><time>2026-04-24T08:05:28.999Z</time></trkpt><trkpt lat="-17.81595733973066" lon="122.66977279037859"><ele>17.0</ele><time>2026-04-24T08:05:29.999Z</time></trkpt><trkpt lat="-17.815973525981885" lon="122.67008859642586"><ele>17.0</ele><time>2026-04-24T08:05:30.999Z</time></trkpt><trkpt lat="-17.81598993589275" lon="122.67040586264503"><ele>16.5</ele><time>2026-04-24T08:05:31.999Z</time></trkpt><trkpt lat="-17.81600714470947" lon="122.67072310163216"><ele>16.0</ele><time>2026-04-24T08:05:32.999Z</time></trkpt><trkpt lat="-17.81602428709183" lon="122.67104047607333"><ele>16.0</ele><time>2026-04-24T08:05:33.999Z</time></trkpt><trkpt lat="-17.816040448876997" lon="122.67135834364304"><ele>16.0</ele><time>2026-04-24T08:05:34.999Z</time></trkpt><trkpt lat="-17.816055788590642" lon="122.67167710701662"><ele>16.5</ele><time>2026-04-24T08:05:35.999Z</time></trkpt><trkpt lat="-17.81607175436167" lon="122.6719952931317"><ele>17.0</ele><time>2026-04-24T08:05:36.999Z</time></trkpt><trkpt lat="-17.816087403605113" lon="122.67231131449822"><ele>17.0</ele><time>2026-04-24T08:05:37.999Z</time></trkpt><trkpt lat="-17.816103124141932" lon="122.67262502191488"><ele>17.0</ele><time>2026-04-24T08:05:38.999Z</time></trkpt><trkpt lat="-17.81611905526152" lon="122.67294049628487"><ele>17.0</ele><time>2026-04-24T08:05:39.999Z</time></trkpt><trkpt lat="-17.816134405018293" lon="122.67325441758896"><ele>17.0</ele><time>2026-04-24T08:05:40.999Z</time></trkpt><trkpt lat="-17.816148651492902" lon="122.67356715014647"><ele>17.5</ele><time>2026-04-24T08:05:41.999Z</time></trkpt><trkpt lat="-17.816161108811848" lon="122.67387905540737"><ele>18.0</ele><time>2026-04-24T08:05:42.999Z</time></trkpt><trkpt lat="-17.8161746758034" lon="122.67419210578045"><ele>18.0</ele><time>2026-04-24T08:05:43.999Z</time></trkpt><trkpt lat="-17.81619011783661" lon="122.67450404565392"><ele>18.0</ele><time>2026-04-24T08:05:44.999Z</time></trkpt><trkpt lat="-17.816205075739116" lon="122.67481554474318"><ele>18.0</ele><time>2026-04-24T08:05:45.999Z</time></trkpt><trkpt lat="-17.816221147984695" lon="122.67512672618545"><ele>18.0</ele><time>2026-04-24T08:05:46.999Z</time></trkpt><trkpt lat="-17.816236710609576" lon="122.67543545824296"><ele>18.0</ele><time>2026-04-24T08:05:47.999Z</time></trkpt><trkpt lat="-17.816253718290184" lon="122.6757454314666"><ele>18.0</ele><time>2026-04-24T08:05:48.999Z</time></trkpt><trkpt lat="-17.81627056716176" lon="122.67605706184312"><ele>18.5</ele><time>2026-04-24T08:05:49.999Z</time></trkpt><trkpt lat="-17.81628711506014" lon="122.67636647122838"><ele>19.0</ele><time>2026-04-24T08:05:50.999Z</time></trkpt><trkpt lat="-17.816301769936246" lon="122.67667371075864"><ele>19.5</ele><time>2026-04-24T08:05:51.999Z</time></trkpt><trkpt lat="-17.816315715483483" lon="122.67698271357834"><ele>20.0</ele><time>2026-04-24T08:05:52.999Z</time></trkpt><trkpt lat="-17.816328736822324" lon="122.67728920986205"><ele>20.0</ele><time>2026-04-24T08:05:53.999Z</time></trkpt><trkpt lat="-17.816341535114173" lon="122.67759753254265"><ele>20.0</ele><time>2026-04-24T08:05:54.999Z</time></trkpt><trkpt lat="-17.81635515258236" lon="122.67790585245383"><ele>20.5</ele><time>2026-04-24T08:05:55.999Z</time></trkpt><trkpt lat="-17.816371538111643" lon="122.67821304455063"><ele>21.0</ele><time>2026-04-24T08:05:57Z</time></trkpt><trkpt lat="-17.816387737648725" lon="122.67851631938849"><ele>20.5</ele><time>2026-04-24T08:05:58Z</time></trkpt><trkpt lat="-17.816404807461755" lon="122.67881663124199"><ele>20.0</ele><time>2026-04-24T08:05:59Z</time></trkpt><trkpt lat="-17.816420077402906" lon="122.67911490278458"><ele>20.0</ele><time>2026-04-24T08:06:00Z</time></trkpt><trkpt lat="-17.81643628671046" lon="122.67941133927205"><ele>20.0</ele><time>2026-04-24T08:06:01Z</time></trkpt><trkpt lat="-17.816449920869676" lon="122.67971077595837"><ele>19.0</ele><time>2026-04-24T08:06:02Z</time></trkpt><trkpt lat="-17.81646099298228" lon="122.68000810848967"><ele>18.0</ele><time>2026-04-24T08:06:03Z</time></trkpt><trkpt lat="-17.816472237811528" lon="122.68030659439518"><ele>18.0</ele><time>2026-04-24T08:06:04Z</time></trkpt><trkpt lat="-17.81648630714896" lon="122.68060542447527"><ele>18.0</ele><time>2026-04-24T08:06:05Z</time></trkpt><trkpt lat="-17.81650117724519" lon="122.6809024219303"><ele>18.5</ele><time>2026-04-24T08:06:06Z</time></trkpt><trkpt lat="-17.816515587814056" lon="122.6811995496795"><ele>19.0</ele><time>2026-04-24T08:06:07Z</time></trkpt><trkpt lat="-17.8165308937406" lon="122.68149868867725"><ele>19.0</ele><time>2026-04-24T08:06:08Z</time></trkpt><trkpt lat="-17.816546271456538" lon="122.68179641473112"><ele>19.0</ele><time>2026-04-24T08:06:09Z</time></trkpt><trkpt lat="-17.816560764282116" lon="122.68209489485818"><ele>19.0</ele><time>2026-04-24T08:06:10Z</time></trkpt><trkpt lat="-17.81657567132251" lon="122.68239169638605"><ele>19.0</ele><time>2026-04-24T08:06:11Z</time></trkpt><trkpt lat="-17.816590598165178" lon="122.6826929289256"><ele>18.0</ele><time>2026-04-24T08:06:12Z</time></trkpt><trkpt lat="-17.816605632852294" lon="122.68299455704617"><ele>17.0</ele><time>2026-04-24T08:06:13Z</time></trkpt><trkpt lat="-17.81662061819893" lon="122.68329944861911"><ele>18.0</ele><time>2026-04-24T08:06:14Z</time></trkpt><trkpt lat="-17.81663484911088" lon="122.68360501265978"><ele>19.0</ele><time>2026-04-24T08:06:15Z</time></trkpt><trkpt lat="-17.81664982984809" lon="122.6839111508923"><ele>19.0</ele><time>2026-04-24T08:06:16Z</time></trkpt><trkpt lat="-17.816664874949957" lon="122.6842156847364"><ele>19.0</ele><time>2026-04-24T08:06:17Z</time></trkpt><trkpt lat="-17.816680002312886" lon="122.68452020249053"><ele>19.0</ele><time>2026-04-24T08:06:18Z</time></trkpt><trkpt lat="-17.81669618349856" lon="122.6848268911433"><ele>19.0</ele><time>2026-04-24T08:06:19Z</time></trkpt><trkpt lat="-17.816715243643483" lon="122.68513350248637"><ele>20.0</ele><time>2026-04-24T08:06:20Z</time></trkpt><trkpt lat="-17.816738594075336" lon="122.68543981990005"><ele>21.0</ele><time>2026-04-24T08:06:21Z</time></trkpt><trkpt lat="-17.816768202191408" lon="122.68574375407589"><ele>21.0</ele><time>2026-04-24T08:06:22Z</time></trkpt><trkpt lat="-17.816807986470145" lon="122.68604783450118"><ele>21.0</ele><time>2026-04-24T08:06:23Z</time></trkpt><trkpt lat="-17.816855793288962" lon="122.6863498218123"><ele>20.5</ele><time>2026-04-24T08:06:24Z</time></trkpt><trkpt lat="-17.816913532474775" lon="122.68665149623685"><ele>20.0</ele><time>2026-04-24T08:06:25Z</time></trkpt><trkpt lat="-17.816979657443902" lon="122.6869515509145"><ele>19.0</ele><time>2026-04-24T08:06:26Z</time></trkpt><trkpt lat="-17.817053778746605" lon="122.68725152128512"><ele>18.0</ele><time>2026-04-24T08:06:27Z</time></trkpt><trkpt lat="-17.817132145802166" lon="122.68754973745315"><ele>18.0</ele><time>2026-04-24T08:06:28Z</time></trkpt><trkpt lat="-17.81721340059132" lon="122.68784899781804"><ele>18.0</ele><time>2026-04-24T08:06:29Z</time></trkpt><trkpt lat="-17.817297499523402" lon="122.68814590092745"><ele>18.0</ele><time>2026-04-24T08:06:30Z</time></trkpt><trkpt lat="-17.817381471824497" lon="122.68843516678818"><ele>18.0</ele><time>2026-04-24T08:06:31Z</time></trkpt><trkpt lat="-17.817462472152616" lon="122.68872523498457"><ele>18.0</ele><time>2026-04-24T08:06:32Z</time></trkpt><trkpt lat="-17.817538895645974" lon="122.68901428176498"><ele>18.0</ele><time>2026-04-24T08:06:33Z</time></trkpt><trkpt lat="-17.817613061545465" lon="122.68930468940167"><ele>18.0</ele><time>2026-04-24T08:06:34Z</time></trkpt><trkpt lat="-17.81768828071836" lon="122.68959802598415"><ele>18.0</ele><time>2026-04-24T08:06:35Z</time></trkpt><trkpt lat="-17.81776445759095" lon="122.68989208969144"><ele>18.0</ele><time>2026-04-24T08:06:36Z</time></trkpt><trkpt lat="-17.817845426488017" lon="122.69018820527532"><ele>18.0</ele><time>2026-04-24T08:06:37Z</time></trkpt><trkpt lat="-17.81792792286759" lon="122.69048645306815"><ele>18.0</ele><time>2026-04-24T08:06:38Z</time></trkpt><trkpt lat="-17.818010752810327" lon="122.69078666009243"><ele>18.0</ele><time>2026-04-24T08:06:39Z</time></trkpt><trkpt lat="-17.818094566363428" lon="122.69108839465842"><ele>19.0</ele><time>2026-04-24T08:06:40Z</time></trkpt><trkpt lat="-17.81817831146363" lon="122.6913875906766"><ele>20.0</ele><time>2026-04-24T08:06:41Z</time></trkpt><trkpt lat="-17.81826167491357" lon="122.69169028457985"><ele>21.5</ele><time>2026-04-24T08:06:42Z</time></trkpt><trkpt lat="-17.8183441394921" lon="122.69199063604592"><ele>23.0</ele><time>2026-04-24T08:06:43Z</time></trkpt><trkpt lat="-17.818425089339158" lon="122.69229290927683"><ele>22.0</ele><time>2026-04-24T08:06:44Z</time></trkpt><trkpt lat="-17.818503462697972" lon="122.69259632903601"><ele>21.0</ele><time>2026-04-24T08:06:45Z</time></trkpt><trkpt lat="-17.818577229946396" lon="122.6929009932819"><ele>21.0</ele><time>2026-04-24T08:06:46Z</time></trkpt><trkpt lat="-17.818646777112825" lon="122.69320411873588"><ele>21.0</ele><time>2026-04-24T08:06:47Z</time></trkpt><trkpt lat="-17.81871673245611" lon="122.69351095592648"><ele>20.5</ele><time>2026-04-24T08:06:48Z</time></trkpt><trkpt lat="-17.81878613014646" lon="122.69381834585428"><ele>20.0</ele><time>2026-04-24T08:06:49Z</time></trkpt><trkpt lat="-17.818858246118083" lon="122.69412724440541"><ele>19.5</ele><time>2026-04-24T08:06:50Z</time></trkpt><trkpt lat="-17.8189303415086" lon="122.6944280448231"><ele>19.0</ele><time>2026-04-24T08:06:51Z</time></trkpt><trkpt lat="-17.819001711268807" lon="122.69473129138973"><ele>19.0</ele><time>2026-04-24T08:06:52Z</time></trkpt><trkpt lat="-17.819075464953727" lon="122.69502893293605"><ele>19.0</ele><time>2026-04-24T08:06:53Z</time></trkpt><trkpt lat="-17.819150814231175" lon="122.69532855396928"><ele>19.5</ele><time>2026-04-24T08:06:54Z</time></trkpt><trkpt lat="-17.819226204259994" lon="122.69562698959379"><ele>20.0</ele><time>2026-04-24T08:06:55Z</time></trkpt><trkpt lat="-17.819297044993768" lon="122.69592703077927"><ele>20.5</ele><time>2026-04-24T08:06:56Z</time></trkpt><trkpt lat="-17.819365796707924" lon="122.69622705866382"><ele>21.0</ele><time>2026-04-24T08:06:57Z</time></trkpt><trkpt lat="-17.819435281633424" lon="122.69652337507301"><ele>21.0</ele><time>2026-04-24T08:06:58Z</time></trkpt><trkpt lat="-17.81950643354413" lon="122.69681972991569"><ele>21.0</ele><time>2026-04-24T08:06:59Z</time></trkpt><trkpt lat="-17.81957735251098" lon="122.69711611063877"><ele>20.0</ele><time>2026-04-24T08:07:00Z</time></trkpt><trkpt lat="-17.819647232189364" lon="122.69741147752111"><ele>19.0</ele><time>2026-04-24T08:07:01Z</time></trkpt><trkpt lat="-17.819716168327965" lon="122.69770829479002"><ele>19.0</ele><time>2026-04-24T08:07:02Z</time></trkpt><trkpt lat="-17.819787713674575" lon="122.69800518734806"><ele>19.0</ele><time>2026-04-24T08:07:03Z</time></trkpt><trkpt lat="-17.819858025958393" lon="122.6983038360211"><ele>18.5</ele><time>2026-04-24T08:07:04Z</time></trkpt><trkpt lat="-17.819928736168244" lon="122.69860259450188"><ele>18.0</ele><time>2026-04-24T08:07:05Z</time></trkpt><trkpt lat="-17.819998401017095" lon="122.6989018657044"><ele>18.0</ele><time>2026-04-24T08:07:06Z</time></trkpt><trkpt lat="-17.820068132230883" lon="122.69919802450188"><ele>18.0</ele><time>2026-04-24T08:07:07Z</time></trkpt><trkpt lat="-17.820135126379803" lon="122.69949399718013"><ele>19.5</ele><time>2026-04-24T08:07:08Z</time></trkpt><trkpt lat="-17.8202008416212" lon="122.69978405615461"><ele>21.0</ele><time>2026-04-24T08:07:09Z</time></trkpt><trkpt lat="-17.820259591831384" lon="122.70007800923659"><ele>20.0</ele><time>2026-04-24T08:07:10Z</time></trkpt><trkpt lat="-17.820309356458225" lon="122.70037532266095"><ele>19.0</ele><time>2026-04-24T08:07:11Z</time></trkpt><trkpt lat="-17.820346983913378" lon="122.7006741786206"><ele>19.0</ele><time>2026-04-24T08:07:12Z</time></trkpt><trkpt lat="-17.8203716727134" lon="122.7009738798545"><ele>19.0</ele><time>2026-04-24T08:07:13Z</time></trkpt><trkpt lat="-17.820384258147286" lon="122.70127465115489"><ele>19.5</ele><time>2026-04-24T08:07:14Z</time></trkpt><trkpt lat="-17.820380665049733" lon="122.7015709401496"><ele>20.0</ele><time>2026-04-24T08:07:15Z</time></trkpt><trkpt lat="-17.820364889464955" lon="122.70186808317625"><ele>19.5</ele><time>2026-04-24T08:07:16Z</time></trkpt><trkpt lat="-17.820338908705008" lon="122.70216209081046"><ele>19.0</ele><time>2026-04-24T08:07:17Z</time></trkpt><trkpt lat="-17.820303033789962" lon="122.7024557975463"><ele>19.0</ele><time>2026-04-24T08:07:18Z</time></trkpt><trkpt lat="-17.82025744714672" lon="122.7027474318718"><ele>19.0</ele><time>2026-04-24T08:07:19Z</time></trkpt><trkpt lat="-17.820204389463704" lon="122.70303734481274"><ele>20.0</ele><time>2026-04-24T08:07:20Z</time></trkpt><trkpt lat="-17.82014970702567" lon="122.70332803047013"><ele>21.0</ele><time>2026-04-24T08:07:21Z</time></trkpt><trkpt lat="-17.820096960204566" lon="122.70361925139474"><ele>21.0</ele><time>2026-04-24T08:07:22Z</time></trkpt><trkpt lat="-17.820043735283793" lon="122.70391201139503"><ele>21.0</ele><time>2026-04-24T08:07:22.999Z</time></trkpt><trkpt lat="-17.819990721749196" lon="122.70420430703768"><ele>21.0</ele><time>2026-04-24T08:07:23.999Z</time></trkpt><trkpt lat="-17.819938355428754" lon="122.70449787658471"><ele>21.0</ele><time>2026-04-24T08:07:24.999Z</time></trkpt><trkpt lat="-17.819888202257115" lon="122.70479135819423"><ele>21.0</ele><time>2026-04-24T08:07:25.999Z</time></trkpt><trkpt lat="-17.819836528313033" lon="122.70508404185435"><ele>21.0</ele><time>2026-04-24T08:07:26.999Z</time></trkpt><trkpt lat="-17.819787213704437" lon="122.7053654538123"><ele>20.0</ele><time>2026-04-24T08:07:27.999Z</time></trkpt><trkpt lat="-17.819739884460404" lon="122.70563308618716"><ele>19.0</ele><time>2026-04-24T08:07:28.999Z</time></trkpt><trkpt lat="-17.81969283176242" lon="122.70590448414868"><ele>19.0</ele><time>2026-04-24T08:07:29.999Z</time></trkpt><trkpt lat="-17.819642089062377" lon="122.70618859798584"><ele>19.0</ele><time>2026-04-24T08:07:30.999Z</time></trkpt><trkpt lat="-17.819589945763134" lon="122.70648050026492"><ele>19.0</ele><time>2026-04-24T08:07:31.999Z</time></trkpt><trkpt lat="-17.819537395501104" lon="122.70677444210912"><ele>19.0</ele><time>2026-04-24T08:07:32.999Z</time></trkpt><trkpt lat="-17.819483308458754" lon="122.70707218247611"><ele>18.5</ele><time>2026-04-24T08:07:33.999Z</time></trkpt><trkpt lat="-17.819429297765208" lon="122.7073729902393"><ele>18.0</ele><time>2026-04-24T08:07:34.999Z</time></trkpt><trkpt lat="-17.819375291907324" lon="122.70767530403819"><ele>18.0</ele><time>2026-04-24T08:07:35.999Z</time></trkpt><trkpt lat="-17.81932110259896" lon="122.7079788822611"><ele>18.0</ele><time>2026-04-24T08:07:36.999Z</time></trkpt><trkpt lat="-17.819265653198315" lon="122.70828191518176"><ele>18.5</ele><time>2026-04-24T08:07:37.999Z</time></trkpt><trkpt lat="-17.819209625001175" lon="122.70858650341535"><ele>19.0</ele><time>2026-04-24T08:07:38.999Z</time></trkpt><trkpt lat="-17.819155773675053" lon="122.70888894468294"><ele>19.0</ele><time>2026-04-24T08:07:39.999Z</time></trkpt><trkpt lat="-17.81910244801579" lon="122.70919131134453"><ele>19.0</ele><time>2026-04-24T08:07:40.999Z</time></trkpt><trkpt lat="-17.819050089392608" lon="122.70949317792349"><ele>19.0</ele><time>2026-04-24T08:07:41.999Z</time></trkpt><trkpt lat="-17.818996774604642" lon="122.70979561396861"><ele>19.0</ele><time>2026-04-24T08:07:42.999Z</time></trkpt><trkpt lat="-17.818946827426863" lon="122.71009700598553"><ele>18.5</ele><time>2026-04-24T08:07:43.999Z</time></trkpt><trkpt lat="-17.818896156453633" lon="122.71039731412826"><ele>18.0</ele><time>2026-04-24T08:07:44.999Z</time></trkpt><trkpt lat="-17.818844383052777" lon="122.71069348879884"><ele>18.0</ele><time>2026-04-24T08:07:45.999Z</time></trkpt><trkpt lat="-17.81879235040742" lon="122.7109888575207"><ele>18.0</ele><time>2026-04-24T08:07:46.999Z</time></trkpt><trkpt lat="-17.818740412622052" lon="122.71128333690046"><ele>18.5</ele><time>2026-04-24T08:07:47.999Z</time></trkpt><trkpt lat="-17.818688414926207" lon="122.71157595309323"><ele>19.0</ele><time>2026-04-24T08:07:48.999Z</time></trkpt><trkpt lat="-17.818638105949884" lon="122.71186841382725"><ele>19.0</ele><time>2026-04-24T08:07:49.999Z</time></trkpt><trkpt lat="-17.818588516939307" lon="122.71215864356556"><ele>19.0</ele><time>2026-04-24T08:07:50.999Z</time></trkpt><trkpt lat="-17.818540739994074" lon="122.71244662686618"><ele>19.0</ele><time>2026-04-24T08:07:51.999Z</time></trkpt><trkpt lat="-17.818500909262156" lon="122.71273552890078"><ele>19.0</ele><time>2026-04-24T08:07:52.999Z</time></trkpt><trkpt lat="-17.818471289949816" lon="122.71302429721368"><ele>19.0</ele><time>2026-04-24T08:07:53.999Z</time></trkpt><trkpt lat="-17.818449155647702" lon="122.71331438070598"><ele>19.0</ele><time>2026-04-24T08:07:54.999Z</time></trkpt><trkpt lat="-17.818438678295283" lon="122.71360221135312"><ele>20.0</ele><time>2026-04-24T08:07:55.999Z</time></trkpt><trkpt lat="-17.81844155201115" lon="122.71388991025866"><ele>21.0</ele><time>2026-04-24T08:07:56.999Z</time></trkpt><trkpt lat="-17.818452657628935" lon="122.71417625705236"><ele>21.5</ele><time>2026-04-24T08:07:57.999Z</time></trkpt><trkpt lat="-17.818463306034168" lon="122.71446175282068"><ele>22.0</ele><time>2026-04-24T08:07:58.999Z</time></trkpt><trkpt lat="-17.818478223170796" lon="122.71474678393875"><ele>21.5</ele><time>2026-04-24T08:07:59.999Z</time></trkpt><trkpt lat="-17.818501614753696" lon="122.7150320933179"><ele>21.0</ele><time>2026-04-24T08:08:00.999Z</time></trkpt><trkpt lat="-17.818530273102237" lon="122.71531538850992"><ele>21.0</ele><time>2026-04-24T08:08:01.999Z</time></trkpt><trkpt lat="-17.818555147717923" lon="122.71560137461816"><ele>21.0</ele><time>2026-04-24T08:08:02.999Z</time></trkpt><trkpt lat="-17.818578909406597" lon="122.7158865298356"><ele>20.5</ele><time>2026-04-24T08:08:03.999Z</time></trkpt><trkpt lat="-17.818602194665115" lon="122.71617633567813"><ele>20.0</ele><time>2026-04-24T08:08:04.999Z</time></trkpt><trkpt lat="-17.818620193259" lon="122.71646442548482"><ele>20.0</ele><time>2026-04-24T08:08:05.999Z</time></trkpt><trkpt lat="-17.818635989575842" lon="122.71675478364568"><ele>20.0</ele><time>2026-04-24T08:08:06.999Z</time></trkpt><trkpt lat="-17.818656962520933" lon="122.71704229743276"><ele>20.5</ele><time>2026-04-24T08:08:07.999Z</time></trkpt><trkpt lat="-17.818682506512474" lon="122.71733326194948"><ele>21.0</ele><time>2026-04-24T08:08:08.999Z</time></trkpt><trkpt lat="-17.81870798141324" lon="122.71762155143867"><ele>21.0</ele><time>2026-04-24T08:08:09.999Z</time></trkpt><trkpt lat="-17.818733231536736" lon="122.71791131563997"><ele>21.0</ele><time>2026-04-24T08:08:10.999Z</time></trkpt><trkpt lat="-17.818758994819753" lon="122.71819822146759"><ele>21.0</ele><time>2026-04-24T08:08:11.999Z</time></trkpt><trkpt lat="-17.818784532820818" lon="122.71848485894274"><ele>21.0</ele><time>2026-04-24T08:08:12.999Z</time></trkpt><trkpt lat="-17.818807415044617" lon="122.71877145033527"><ele>21.0</ele><time>2026-04-24T08:08:13.999Z</time></trkpt><trkpt lat="-17.81883186764232" lon="122.7190595172404"><ele>21.0</ele><time>2026-04-24T08:08:14.999Z</time></trkpt><trkpt lat="-17.81885903761741" lon="122.71934319345505"><ele>21.5</ele><time>2026-04-24T08:08:15.999Z</time></trkpt><trkpt lat="-17.81888700881262" lon="122.71962758851312"><ele>22.0</ele><time>2026-04-24T08:08:16.999Z</time></trkpt><trkpt lat="-17.818915985495703" lon="122.71991352613477"><ele>22.0</ele><time>2026-04-24T08:08:17.999Z</time></trkpt><trkpt lat="-17.818941495881575" lon="122.72019841844501"><ele>22.0</ele><time>2026-04-24T08:08:18.999Z</time></trkpt><trkpt lat="-17.818962410608016" lon="122.72048283914174"><ele>21.5</ele><time>2026-04-24T08:08:19.999Z</time></trkpt><trkpt lat="-17.818982147086327" lon="122.72076952299389"><ele>21.0</ele><time>2026-04-24T08:08:20.998Z</time></trkpt><trkpt lat="-17.819003975047938" lon="122.72105733922942"><ele>20.5</ele><time>2026-04-24T08:08:21.998Z</time></trkpt><trkpt lat="-17.819025105454376" lon="122.72134530900043"><ele>20.0</ele><time>2026-04-24T08:08:22.998Z</time></trkpt><trkpt lat="-17.819046563803926" lon="122.72163309153129"><ele>20.0</ele><time>2026-04-24T08:08:23.998Z</time></trkpt><trkpt lat="-17.819068071440583" lon="122.72192588902261"><ele>20.0</ele><time>2026-04-24T08:08:24.998Z</time></trkpt><trkpt lat="-17.819092790866648" lon="122.72221933622225"><ele>20.0</ele><time>2026-04-24T08:08:25.997Z</time></trkpt><trkpt lat="-17.819119440271553" lon="122.72251540724417"><ele>20.0</ele><time>2026-04-24T08:08:26.997Z</time></trkpt><trkpt lat="-17.81914737177595" lon="122.72281370950127"><ele>20.0</ele><time>2026-04-24T08:08:27.997Z</time></trkpt><trkpt lat="-17.81917400046287" lon="122.72311009742894"><ele>20.0</ele><time>2026-04-24T08:08:28.997Z</time></trkpt><trkpt lat="-17.819198509785274" lon="122.72341114338562"><ele>20.0</ele><time>2026-04-24T08:08:29.997Z</time></trkpt><trkpt lat="-17.81922017301021" lon="122.72371310118625"><ele>20.0</ele><time>2026-04-24T08:08:30.997Z</time></trkpt><trkpt lat="-17.81924244955085" lon="122.72401592831795"><ele>20.0</ele><time>2026-04-24T08:08:31.997Z</time></trkpt><trkpt lat="-17.81926649855182" lon="122.72431975003592"><ele>20.0</ele><time>2026-04-24T08:08:32.997Z</time></trkpt><trkpt lat="-17.819290850107766" lon="122.72462489313394"><ele>19.5</ele><time>2026-04-24T08:08:33.996Z</time></trkpt><trkpt lat="-17.819315232561994" lon="122.72492871767028"><ele>19.0</ele><time>2026-04-24T08:08:34.996Z</time></trkpt><trkpt lat="-17.819341228465177" lon="122.7252337813454"><ele>20.0</ele><time>2026-04-24T08:08:35.996Z</time></trkpt><trkpt lat="-17.8193662804044" lon="122.72553455294675"><ele>21.0</ele><time>2026-04-24T08:08:36.996Z</time></trkpt><trkpt lat="-17.819391850815048" lon="122.72583468628011"><ele>20.5</ele><time>2026-04-24T08:08:37.996Z</time></trkpt><trkpt lat="-17.819418067800818" lon="122.72613680492084"><ele>20.0</ele><time>2026-04-24T08:08:38.996Z</time></trkpt><trkpt lat="-17.819443792153194" lon="122.72643482559133"><ele>20.0</ele><time>2026-04-24T08:08:39.996Z</time></trkpt><trkpt lat="-17.819468277225514" lon="122.72673465961753"><ele>20.0</ele><time>2026-04-24T08:08:40.996Z</time></trkpt><trkpt lat="-17.819493978596626" lon="122.72703596902507"><ele>20.0</ele><time>2026-04-24T08:08:41.996Z</time></trkpt><trkpt lat="-17.819520246026894" lon="122.72733976581272"><ele>20.0</ele><time>2026-04-24T08:08:42.996Z</time></trkpt><trkpt lat="-17.819546585479397" lon="122.72764253502592"><ele>20.0</ele><time>2026-04-24T08:08:43.996Z</time></trkpt><trkpt lat="-17.81957042067897" lon="122.72794514031324"><ele>20.0</ele><time>2026-04-24T08:08:44.996Z</time></trkpt><trkpt lat="-17.81959412303875" lon="122.72824646510105"><ele>20.0</ele><time>2026-04-24T08:08:45.996Z</time></trkpt><trkpt lat="-17.81961778177636" lon="122.72854235040282"><ele>20.0</ele><time>2026-04-24T08:08:46.996Z</time></trkpt><trkpt lat="-17.819641753836727" lon="122.72883511195853"><ele>20.5</ele><time>2026-04-24T08:08:47.996Z</time></trkpt><trkpt lat="-17.819666097229145" lon="122.72912521509221"><ele>21.0</ele><time>2026-04-24T08:08:48.996Z</time></trkpt><trkpt lat="-17.81969088699178" lon="122.72941826160853"><ele>21.0</ele><time>2026-04-24T08:08:49.996Z</time></trkpt><trkpt lat="-17.819716089503725" lon="122.72971211396872"><ele>21.0</ele><time>2026-04-24T08:08:50.995Z</time></trkpt><trkpt lat="-17.819741339322416" lon="122.73000705831761"><ele>20.5</ele><time>2026-04-24T08:08:51.995Z</time></trkpt><trkpt lat="-17.819765269392732" lon="122.73030648962857"><ele>20.0</ele><time>2026-04-24T08:08:52.995Z</time></trkpt><trkpt lat="-17.819789692062216" lon="122.73060327055471"><ele>20.0</ele><time>2026-04-24T08:08:53.995Z</time></trkpt><trkpt lat="-17.819814205898535" lon="122.73090377803587"><ele>20.0</ele><time>2026-04-24T08:08:54.995Z</time></trkpt><trkpt lat="-17.81983903578028" lon="122.73120245982024"><ele>20.5</ele><time>2026-04-24T08:08:55.995Z</time></trkpt><trkpt lat="-17.819863963775248" lon="122.73149829530159"><ele>21.0</ele><time>2026-04-24T08:08:56.995Z</time></trkpt><trkpt lat="-17.819888740001485" lon="122.73179511319536"><ele>22.0</ele><time>2026-04-24T08:08:57.995Z</time></trkpt><trkpt lat="-17.819913499982427" lon="122.73209294410016"><ele>23.0</ele><time>2026-04-24T08:08:58.995Z</time></trkpt><trkpt lat="-17.81993524788171" lon="122.73238783601697"><ele>23.0</ele><time>2026-04-24T08:08:59.995Z</time></trkpt><trkpt lat="-17.819957042167328" lon="122.7326833067317"><ele>23.0</ele><time>2026-04-24T08:09:00.995Z</time></trkpt><trkpt lat="-17.81998075870239" lon="122.73298110074796"><ele>23.0</ele><time>2026-04-24T08:09:01.995Z</time></trkpt><trkpt lat="-17.820005447205105" lon="122.7332765863548"><ele>23.0</ele><time>2026-04-24T08:09:02.995Z</time></trkpt><trkpt lat="-17.820031560327624" lon="122.7335735309945"><ele>23.0</ele><time>2026-04-24T08:09:03.995Z</time></trkpt><trkpt lat="-17.820056533733318" lon="122.73387032880326"><ele>23.0</ele><time>2026-04-24T08:09:04.995Z</time></trkpt><trkpt lat="-17.820081167407714" lon="122.73416650248186"><ele>22.5</ele><time>2026-04-24T08:09:05.995Z</time></trkpt><trkpt lat="-17.820106092964227" lon="122.73446485413326"><ele>22.0</ele><time>2026-04-24T08:09:06.995Z</time></trkpt><trkpt lat="-17.820131840593593" lon="122.73476121553749"><ele>22.5</ele><time>2026-04-24T08:09:07.995Z</time></trkpt><trkpt lat="-17.820156415954973" lon="122.7350594760721"><ele>23.0</ele><time>2026-04-24T08:09:08.995Z</time></trkpt><trkpt lat="-17.820175923036363" lon="122.73535986201802"><ele>23.5</ele><time>2026-04-24T08:09:09.995Z</time></trkpt><trkpt lat="-17.820191007571083" lon="122.73565892984725"><ele>24.0</ele><time>2026-04-24T08:09:10.995Z</time></trkpt><trkpt lat="-17.820198709838554" lon="122.7359580324817"><ele>24.5</ele><time>2026-04-24T08:09:11.995Z</time></trkpt><trkpt lat="-17.82019523927461" lon="122.73625770538014"><ele>25.0</ele><time>2026-04-24T08:09:12.995Z</time></trkpt><trkpt lat="-17.820177621193892" lon="122.73655594361665"><ele>24.0</ele><time>2026-04-24T08:09:13.995Z</time></trkpt><trkpt lat="-17.82014447858285" lon="122.73685515608878"><ele>23.0</ele><time>2026-04-24T08:09:14.995Z</time></trkpt><trkpt lat="-17.820099370065552" lon="122.73715557912605"><ele>23.0</ele><time>2026-04-24T08:09:15.995Z</time></trkpt><trkpt lat="-17.82004216789382" lon="122.73745695385458"><ele>23.0</ele><time>2026-04-24T08:09:16.995Z</time></trkpt><trkpt lat="-17.819976139750267" lon="122.73775710716839"><ele>23.5</ele><time>2026-04-24T08:09:17.995Z</time></trkpt><trkpt lat="-17.819901810820173" lon="122.73805521521845"><ele>24.0</ele><time>2026-04-24T08:09:18.995Z</time></trkpt><trkpt lat="-17.81981800175907" lon="122.73835270435183"><ele>24.5</ele><time>2026-04-24T08:09:19.995Z</time></trkpt><trkpt lat="-17.819729999124423" lon="122.73864723603162"><ele>25.0</ele><time>2026-04-24T08:09:20.995Z</time></trkpt><trkpt lat="-17.819639851136586" lon="122.73894119671989"><ele>25.0</ele><time>2026-04-24T08:09:21.995Z</time></trkpt><trkpt lat="-17.819550975555206" lon="122.73923249266669"><ele>25.0</ele><time>2026-04-24T08:09:22.995Z</time></trkpt><trkpt lat="-17.81946253596355" lon="122.73952368218546"><ele>25.0</ele><time>2026-04-24T08:09:23.995Z</time></trkpt><trkpt lat="-17.81937593151344" lon="122.73981501906077"><ele>25.0</ele><time>2026-04-24T08:09:24.995Z</time></trkpt><trkpt lat="-17.81929166596779" lon="122.74010841201518"><ele>24.5</ele><time>2026-04-24T08:09:25.995Z</time></trkpt><trkpt lat="-17.819204456952228" lon="122.74040731670377"><ele>24.0</ele><time>2026-04-24T08:09:26.995Z</time></trkpt><trkpt lat="-17.819118152184938" lon="122.7407042489782"><ele>24.0</ele><time>2026-04-24T08:09:27.995Z</time></trkpt><trkpt lat="-17.819032392458695" lon="122.74099884264405"><ele>24.0</ele><time>2026-04-24T08:09:28.995Z</time></trkpt><trkpt lat="-17.81894489690199" lon="122.741291922437"><ele>23.5</ele><time>2026-04-24T08:09:29.995Z</time></trkpt><trkpt lat="-17.818855473105106" lon="122.74158096776077"><ele>23.0</ele><time>2026-04-24T08:09:30.995Z</time></trkpt><trkpt lat="-17.818766768895664" lon="122.74186532057489"><ele>24.0</ele><time>2026-04-24T08:09:31.995Z</time></trkpt><trkpt lat="-17.81868034730801" lon="122.74214825003205"><ele>25.0</ele><time>2026-04-24T08:09:32.995Z</time></trkpt><trkpt lat="-17.818595546851608" lon="122.74243025878897"><ele>25.0</ele><time>2026-04-24T08:09:33.995Z</time></trkpt><trkpt lat="-17.81851454385286" lon="122.7427097207706"><ele>25.0</ele><time>2026-04-24T08:09:34.995Z</time></trkpt><trkpt lat="-17.81843527637182" lon="122.74298804303436"><ele>24.5</ele><time>2026-04-24T08:09:35.995Z</time></trkpt><trkpt lat="-17.81835297062648" lon="122.74326380348282"><ele>24.0</ele><time>2026-04-24T08:09:36.995Z</time></trkpt><trkpt lat="-17.81827159524275" lon="122.74353845987513"><ele>24.0</ele><time>2026-04-24T08:09:37.995Z</time></trkpt><trkpt lat="-17.818190416541736" lon="122.74381191921074"><ele>24.0</ele><time>2026-04-24T08:09:38.995Z</time></trkpt><trkpt lat="-17.818105039821866" lon="122.74408749356"><ele>24.0</ele><time>2026-04-24T08:09:39.995Z</time></trkpt><trkpt lat="-17.818020641832245" lon="122.74435986819823"><ele>24.0</ele><time>2026-04-24T08:09:40.995Z</time></trkpt><trkpt lat="-17.817938138850405" lon="122.7446330029317"><ele>24.0</ele><time>2026-04-24T08:09:41.995Z</time></trkpt><trkpt lat="-17.81785684788362" lon="122.74490465268707"><ele>24.0</ele><time>2026-04-24T08:09:42.995Z</time></trkpt><trkpt lat="-17.817775380005646" lon="122.74517792571795"><ele>24.5</ele><time>2026-04-24T08:09:43.995Z</time></trkpt><trkpt lat="-17.817694464467902" lon="122.7454505819582"><ele>25.0</ele><time>2026-04-24T08:09:44.995Z</time></trkpt><trkpt lat="-17.817616304985123" lon="122.74572443515972"><ele>25.0</ele><time>2026-04-24T08:09:45.995Z</time></trkpt><trkpt lat="-17.817538195515176" lon="122.74599614707994"><ele>25.0</ele><time>2026-04-24T08:09:46.995Z</time></trkpt><trkpt lat="-17.817457989806776" lon="122.74626753875924"><ele>25.0</ele><time>2026-04-24T08:09:47.995Z</time></trkpt><trkpt lat="-17.817377295744517" lon="122.74653621140617"><ele>25.0</ele><time>2026-04-24T08:09:48.995Z</time></trkpt><trkpt lat="-17.817296718909855" lon="122.74680334095518"><ele>24.5</ele><time>2026-04-24T08:09:49.995Z</time></trkpt><trkpt lat="-17.81721218999275" lon="122.74706984656115"><ele>24.0</ele><time>2026-04-24T08:09:50.995Z</time></trkpt><trkpt lat="-17.81713048406216" lon="122.7473373972661"><ele>24.0</ele><time>2026-04-24T08:09:51.995Z</time></trkpt><trkpt lat="-17.81704967191351" lon="122.74760306660126"><ele>24.0</ele><time>2026-04-24T08:09:52.995Z</time></trkpt><trkpt lat="-17.81697114072563" lon="122.74786946397359"><ele>24.5</ele><time>2026-04-24T08:09:53.995Z</time></trkpt><trkpt lat="-17.816892069712946" lon="122.74813808726823"><ele>25.0</ele><time>2026-04-24T08:09:54.995Z</time></trkpt><trkpt lat="-17.816814127862866" lon="122.74840346524476"><ele>25.5</ele><time>2026-04-24T08:09:55.995Z</time></trkpt><trkpt lat="-17.81673569158723" lon="122.74867184079358"><ele>26.0</ele><time>2026-04-24T08:09:56.995Z</time></trkpt><trkpt lat="-17.81665879120886" lon="122.74893781914183"><ele>26.0</ele><time>2026-04-24T08:09:57.995Z</time></trkpt><trkpt lat="-17.81657850742849" lon="122.74920820134537"><ele>26.0</ele><time>2026-04-24T08:09:58.995Z</time></trkpt><trkpt lat="-17.81649874326981" lon="122.74947975049854"><ele>25.5</ele><time>2026-04-24T08:09:59.995Z</time></trkpt><trkpt lat="-17.81641606595191" lon="122.74975511812221"><ele>25.0</ele><time>2026-04-24T08:10:00.995Z</time></trkpt><trkpt lat="-17.81633491039873" lon="122.75003436557472"><ele>24.5</ele><time>2026-04-24T08:10:01.995Z</time></trkpt><trkpt lat="-17.816251687225535" lon="122.75031407359961"><ele>24.0</ele><time>2026-04-24T08:10:02.995Z</time></trkpt><trkpt lat="-17.816167489180355" lon="122.75059459012157"><ele>24.0</ele><time>2026-04-24T08:10:03.995Z</time></trkpt><trkpt lat="-17.81608051864668" lon="122.75087522612924"><ele>24.0</ele><time>2026-04-24T08:10:04.995Z</time></trkpt><trkpt lat="-17.815997883850976" lon="122.75115694030475"><ele>25.0</ele><time>2026-04-24T08:10:05.995Z</time></trkpt><trkpt lat="-17.815914230335704" lon="122.75143772605573"><ele>26.0</ele><time>2026-04-24T08:10:06.995Z</time></trkpt><trkpt lat="-17.815830220105088" lon="122.75171775757178"><ele>26.0</ele><time>2026-04-24T08:10:07.995Z</time></trkpt><trkpt lat="-17.81574691377705" lon="122.75199861998539"><ele>26.0</ele><time>2026-04-24T08:10:08.994Z</time></trkpt><trkpt lat="-17.815664211758744" lon="122.75227916381604"><ele>26.0</ele><time>2026-04-24T08:10:09.994Z</time></trkpt><trkpt lat="-17.815578621878633" lon="122.75255975869085"><ele>26.0</ele><time>2026-04-24T08:10:10.994Z</time></trkpt><trkpt lat="-17.81549334397068" lon="122.7528425217486"><ele>25.5</ele><time>2026-04-24T08:10:11.995Z</time></trkpt><trkpt lat="-17.815407374666645" lon="122.75312753367946"><ele>25.0</ele><time>2026-04-24T08:10:12.995Z</time></trkpt><trkpt lat="-17.81532155529459" lon="122.75341176443484"><ele>25.0</ele><time>2026-04-24T08:10:13.995Z</time></trkpt><trkpt lat="-17.815235348968343" lon="122.75369733238581"><ele>25.0</ele><time>2026-04-24T08:10:14.995Z</time></trkpt><trkpt lat="-17.81514946752288" lon="122.75398515062408"><ele>24.5</ele><time>2026-04-24T08:10:15.996Z</time></trkpt><trkpt lat="-17.815062501563837" lon="122.75427289001624"><ele>24.0</ele><time>2026-04-24T08:10:16.996Z</time></trkpt><trkpt lat="-17.81497635149732" lon="122.75456056648822"><ele>24.0</ele><time>2026-04-24T08:10:17.996Z</time></trkpt><trkpt lat="-17.814890470123622" lon="122.75485017632887"><ele>24.0</ele><time>2026-04-24T08:10:18.996Z</time></trkpt><trkpt lat="-17.814804769388548" lon="122.75513954478559"><ele>26.0</ele><time>2026-04-24T08:10:19.997Z</time></trkpt><trkpt lat="-17.814719187409548" lon="122.75542681022486"><ele>28.0</ele><time>2026-04-24T08:10:20.997Z</time></trkpt><trkpt lat="-17.81463592663209" lon="122.7557130002294"><ele>28.0</ele><time>2026-04-24T08:10:21.997Z</time></trkpt><trkpt lat="-17.814551464044403" lon="122.75599782292043"><ele>28.0</ele><time>2026-04-24T08:10:22.997Z</time></trkpt><trkpt lat="-17.81446637214647" lon="122.75628304657373"><ele>28.0</ele><time>2026-04-24T08:10:23.997Z</time></trkpt><trkpt lat="-17.814382990633113" lon="122.75656375604036"><ele>28.0</ele><time>2026-04-24T08:10:24.997Z</time></trkpt><trkpt lat="-17.814297548211616" lon="122.75684152746587"><ele>28.5</ele><time>2026-04-24T08:10:25.997Z</time></trkpt><trkpt lat="-17.814213303740303" lon="122.75711917617451"><ele>29.0</ele><time>2026-04-24T08:10:26.998Z</time></trkpt><trkpt lat="-17.814133201974265" lon="122.75739713269957"><ele>29.0</ele><time>2026-04-24T08:10:27.998Z</time></trkpt><trkpt lat="-17.81405214642329" lon="122.75767423177568"><ele>29.0</ele><time>2026-04-24T08:10:28.998Z</time></trkpt><trkpt lat="-17.81397124157307" lon="122.75794997498576"><ele>29.0</ele><time>2026-04-24T08:10:29.998Z</time></trkpt><trkpt lat="-17.813890486476826" lon="122.75822401101156"><ele>29.0</ele><time>2026-04-24T08:10:30.998Z</time></trkpt><trkpt lat="-17.813808231881794" lon="122.75850367096173"><ele>28.5</ele><time>2026-04-24T08:10:31.998Z</time></trkpt><trkpt lat="-17.81372447976493" lon="122.75878531347335"><ele>28.0</ele><time>2026-04-24T08:10:32.998Z</time></trkpt><trkpt lat="-17.81363801171388" lon="122.75906425401135"><ele>28.0</ele><time>2026-04-24T08:10:33.998Z</time></trkpt><trkpt lat="-17.81355254411112" lon="122.7593476215911"><ele>28.0</ele><time>2026-04-24T08:10:34.998Z</time></trkpt><trkpt lat="-17.813469018299283" lon="122.75963183193122"><ele>27.5</ele><time>2026-04-24T08:10:35.998Z</time></trkpt><trkpt lat="-17.81338371807923" lon="122.75992125969607"><ele>27.0</ele><time>2026-04-24T08:10:36.998Z</time></trkpt><trkpt lat="-17.813298593199583" lon="122.76020879543103"><ele>26.5</ele><time>2026-04-24T08:10:37.998Z</time></trkpt><trkpt lat="-17.813211449229698" lon="122.7604969044664"><ele>26.0</ele><time>2026-04-24T08:10:38.999Z</time></trkpt><trkpt lat="-17.81312731247432" lon="122.76078400656672"><ele>26.5</ele><time>2026-04-24T08:10:39.999Z</time></trkpt><trkpt lat="-17.813041106296065" lon="122.76107187527255"><ele>27.0</ele><time>2026-04-24T08:10:40.999Z</time></trkpt><trkpt lat="-17.812955202791652" lon="122.76135976765268"><ele>27.0</ele><time>2026-04-24T08:10:41.999Z</time></trkpt><trkpt lat="-17.81286946950296" lon="122.76164875517024"><ele>27.0</ele><time>2026-04-24T08:10:42.999Z</time></trkpt><trkpt lat="-17.812782470612333" lon="122.76193717613896"><ele>27.0</ele><time>2026-04-24T08:10:43.999Z</time></trkpt><trkpt lat="-17.812693805660537" lon="122.76222376909004"><ele>27.0</ele><time>2026-04-24T08:10:44.999Z</time></trkpt><trkpt lat="-17.81260589758393" lon="122.76251119325923"><ele>26.0</ele><time>2026-04-24T08:10:45.999Z</time></trkpt><trkpt lat="-17.812520270285553" lon="122.76279975569666"><ele>25.0</ele><time>2026-04-24T08:10:46.999Z</time></trkpt><trkpt lat="-17.812437769979685" lon="122.76308472431948"><ele>26.0</ele><time>2026-04-24T08:10:47.999Z</time></trkpt><trkpt lat="-17.81227439291781" lon="122.76364918830706"><ele>26.0</ele><time>2026-04-24T08:10:49.999Z</time></trkpt><trkpt lat="-17.812191699248665" lon="122.7639281911698"><ele>26.0</ele><time>2026-04-24T08:10:50.999Z</time></trkpt><trkpt lat="-17.812107329020165" lon="122.76420897142053"><ele>25.5</ele><time>2026-04-24T08:10:51.999Z</time></trkpt><trkpt lat="-17.812021389649527" lon="122.76448953166026"><ele>25.0</ele><time>2026-04-24T08:10:52.999Z</time></trkpt><trkpt lat="-17.811938902760787" lon="122.76476976121612"><ele>25.0</ele><time>2026-04-24T08:10:53.999Z</time></trkpt><trkpt lat="-17.811859347224004" lon="122.76504939453358"><ele>25.0</ele><time>2026-04-24T08:10:54.999Z</time></trkpt><trkpt lat="-17.811781673089243" lon="122.7653275477416"><ele>25.5</ele><time>2026-04-24T08:10:55.999Z</time></trkpt><trkpt lat="-17.81170048206636" lon="122.76560645441934"><ele>26.0</ele><time>2026-04-24T08:10:56.999Z</time></trkpt><trkpt lat="-17.811615090866944" lon="122.76588938097295"><ele>26.0</ele><time>2026-04-24T08:10:57.999Z</time></trkpt><trkpt lat="-17.81152921782295" lon="122.76617136221707"><ele>26.0</ele><time>2026-04-24T08:10:58.999Z</time></trkpt><trkpt lat="-17.8114434138616" lon="122.76645368958765"><ele>26.0</ele><time>2026-04-24T08:10:59.999Z</time></trkpt><trkpt lat="-17.811359579023364" lon="122.76673489939218"><ele>26.0</ele><time>2026-04-24T08:11:00.999Z</time></trkpt><trkpt lat="-17.811275454942866" lon="122.76701554291351"><ele>27.0</ele><time>2026-04-24T08:11:01.999Z</time></trkpt><trkpt lat="-17.811191226844752" lon="122.767293212798"><ele>28.0</ele><time>2026-04-24T08:11:02.999Z</time></trkpt><trkpt lat="-17.811109174253172" lon="122.76756212203824"><ele>28.0</ele><time>2026-04-24T08:11:03.999Z</time></trkpt><trkpt lat="-17.811032024813546" lon="122.76781367271118"><ele>28.0</ele><time>2026-04-24T08:11:04.999Z</time></trkpt><trkpt lat="-17.81095414235104" lon="122.76806687945778"><ele>28.5</ele><time>2026-04-24T08:11:05.999Z</time></trkpt><trkpt lat="-17.810875386224343" lon="122.76832974224467"><ele>29.0</ele><time>2026-04-24T08:11:06.999Z</time></trkpt><trkpt lat="-17.81079684343556" lon="122.76859532825135"><ele>30.0</ele><time>2026-04-24T08:11:07.999Z</time></trkpt><trkpt lat="-17.810717990315528" lon="122.76886614511591"><ele>31.0</ele><time>2026-04-24T08:11:08.999Z</time></trkpt><trkpt lat="-17.810636744526473" lon="122.76913945777609"><ele>30.0</ele><time>2026-04-24T08:11:09.999Z</time></trkpt><trkpt lat="-17.81055360442027" lon="122.76941655578466"><ele>29.0</ele><time>2026-04-24T08:11:10.999Z</time></trkpt><trkpt lat="-17.81046704616672" lon="122.76969608408157"><ele>29.0</ele><time>2026-04-24T08:11:11.999Z</time></trkpt><trkpt lat="-17.81038011274296" lon="122.7699783619706"><ele>29.0</ele><time>2026-04-24T08:11:12.999Z</time></trkpt><trkpt lat="-17.81029389496597" lon="122.77026302214215"><ele>29.0</ele><time>2026-04-24T08:11:13.999Z</time></trkpt><trkpt lat="-17.810208749309304" lon="122.77054849580608"><ele>29.0</ele><time>2026-04-24T08:11:14.999Z</time></trkpt><trkpt lat="-17.81012512165068" lon="122.7708308792589"><ele>29.0</ele><time>2026-04-24T08:11:15.999Z</time></trkpt><trkpt lat="-17.8100412318665" lon="122.77111635733856"><ele>29.0</ele><time>2026-04-24T08:11:16.999Z</time></trkpt><trkpt lat="-17.809958500937217" lon="122.77140063026124"><ele>29.0</ele><time>2026-04-24T08:11:17.999Z</time></trkpt><trkpt lat="-17.809875492512877" lon="122.7716822217822"><ele>29.0</ele><time>2026-04-24T08:11:18.999Z</time></trkpt><trkpt lat="-17.809793350468365" lon="122.7719601014808"><ele>29.5</ele><time>2026-04-24T08:11:19.999Z</time></trkpt><trkpt lat="-17.80971241075204" lon="122.77223591746564"><ele>30.0</ele><time>2026-04-24T08:11:20.999Z</time></trkpt><trkpt lat="-17.809631107441117" lon="122.77250995646192"><ele>29.5</ele><time>2026-04-24T08:11:21.999Z</time></trkpt><trkpt lat="-17.80954859431103" lon="122.77278646322328"><ele>29.0</ele><time>2026-04-24T08:11:22.999Z</time></trkpt><trkpt lat="-17.80946447932932" lon="122.77306420271981"><ele>29.0</ele><time>2026-04-24T08:11:23.999Z</time></trkpt><trkpt lat="-17.809378838307588" lon="122.77334072937073"><ele>29.0</ele><time>2026-04-24T08:11:24.999Z</time></trkpt><trkpt lat="-17.809293417689727" lon="122.77361289926485"><ele>29.0</ele><time>2026-04-24T08:11:25.999Z</time></trkpt><trkpt lat="-17.809209303692523" lon="122.77388724760132"><ele>29.0</ele><time>2026-04-24T08:11:26.999Z</time></trkpt><trkpt lat="-17.80912628186543" lon="122.77416090234497"><ele>29.0</ele><time>2026-04-24T08:11:27.999Z</time></trkpt><trkpt lat="-17.809043614682643" lon="122.77443692256897"><ele>29.0</ele><time>2026-04-24T08:11:28.999Z</time></trkpt><trkpt lat="-17.808960053974786" lon="122.77471551368802"><ele>29.0</ele><time>2026-04-24T08:11:29.999Z</time></trkpt><trkpt lat="-17.80887616562466" lon="122.77500045763207"><ele>29.0</ele><time>2026-04-24T08:11:30.999Z</time></trkpt><trkpt lat="-17.808791797059467" lon="122.77528639191429"><ele>28.5</ele><time>2026-04-24T08:11:31.999Z</time></trkpt><trkpt lat="-17.808707683844187" lon="122.7755725036045"><ele>28.0</ele><time>2026-04-24T08:11:32.999Z</time></trkpt><trkpt lat="-17.808622554496143" lon="122.77585952390648"><ele>28.5</ele><time>2026-04-24T08:11:33.999Z</time></trkpt><trkpt lat="-17.80853799490327" lon="122.77614791589075"><ele>29.0</ele><time>2026-04-24T08:11:34.999Z</time></trkpt><trkpt lat="-17.808450778682925" lon="122.77644003889995"><ele>29.5</ele><time>2026-04-24T08:11:35.999Z</time></trkpt><trkpt lat="-17.808364053912257" lon="122.77673203670307"><ele>30.0</ele><time>2026-04-24T08:11:36.999Z</time></trkpt><trkpt lat="-17.80827824699272" lon="122.77702375709293"><ele>29.0</ele><time>2026-04-24T08:11:37.999Z</time></trkpt><trkpt lat="-17.808190490037223" lon="122.77731779089854"><ele>28.0</ele><time>2026-04-24T08:11:38.999Z</time></trkpt><trkpt lat="-17.808101760739238" lon="122.77761253368722"><ele>28.0</ele><time>2026-04-24T08:11:39.999Z</time></trkpt><trkpt lat="-17.808015017703195" lon="122.77790577410056"><ele>28.0</ele><time>2026-04-24T08:11:40.999Z</time></trkpt><trkpt lat="-17.807928382960164" lon="122.77819762892427"><ele>28.0</ele><time>2026-04-24T08:11:41.999Z</time></trkpt><trkpt lat="-17.807842382306735" lon="122.77848746307352"><ele>28.0</ele><time>2026-04-24T08:11:42.999Z</time></trkpt><trkpt lat="-17.807754659502947" lon="122.77877737584555"><ele>28.0</ele><time>2026-04-24T08:11:43.999Z</time></trkpt><trkpt lat="-17.80767041072346" lon="122.77906090920743"><ele>28.0</ele><time>2026-04-24T08:11:44.999Z</time></trkpt><trkpt lat="-17.807587839505647" lon="122.77934143007273"><ele>29.0</ele><time>2026-04-24T08:11:45.999Z</time></trkpt><trkpt lat="-17.807505243528055" lon="122.77962006990396"><ele>30.0</ele><time>2026-04-24T08:11:46.999Z</time></trkpt><trkpt lat="-17.807422137692527" lon="122.77989991958523"><ele>30.0</ele><time>2026-04-24T08:11:47.999Z</time></trkpt><trkpt lat="-17.807339375018646" lon="122.78017811507043"><ele>30.0</ele><time>2026-04-24T08:11:48.999Z</time></trkpt><trkpt lat="-17.807254201891315" lon="122.78045890340472"><ele>30.5</ele><time>2026-04-24T08:11:49.999Z</time></trkpt><trkpt lat="-17.807172804363077" lon="122.78073338086352"><ele>31.0</ele><time>2026-04-24T08:11:50.999Z</time></trkpt><trkpt lat="-17.80709033410746" lon="122.78101384051045"><ele>30.5</ele><time>2026-04-24T08:11:51.999Z</time></trkpt><trkpt lat="-17.80700944327998" lon="122.78129113406162"><ele>30.0</ele><time>2026-04-24T08:11:52.999Z</time></trkpt><trkpt lat="-17.806927965532736" lon="122.78156901524387"><ele>30.0</ele><time>2026-04-24T08:11:53.999Z</time></trkpt><trkpt lat="-17.806844661640106" lon="122.78184949758322"><ele>30.0</ele><time>2026-04-24T08:11:54.999Z</time></trkpt><trkpt lat="-17.80676256844413" lon="122.78212896943326"><ele>30.0</ele><time>2026-04-24T08:11:55.999Z</time></trkpt><trkpt lat="-17.8066785302466" lon="122.7824106009522"><ele>30.0</ele><time>2026-04-24T08:11:56.999Z</time></trkpt><trkpt lat="-17.80659400148714" lon="122.78269437252983"><ele>30.0</ele><time>2026-04-24T08:11:57.999Z</time></trkpt><trkpt lat="-17.806508253521724" lon="122.7829788823758"><ele>30.0</ele><time>2026-04-24T08:11:58.999Z</time></trkpt><trkpt lat="-17.8064232151236" lon="122.78326318939666"><ele>29.5</ele><time>2026-04-24T08:11:59.999Z</time></trkpt><trkpt lat="-17.80633885033039" lon="122.78354873791783"><ele>29.0</ele><time>2026-04-24T08:12:00.999Z</time></trkpt><trkpt lat="-17.80625250303602" lon="122.7838374644231"><ele>29.0</ele><time>2026-04-24T08:12:01.999Z</time></trkpt><trkpt lat="-17.80616650100725" lon="122.78412694534744"><ele>29.0</ele><time>2026-04-24T08:12:02.999Z</time></trkpt><trkpt lat="-17.806080997420946" lon="122.78441522597844"><ele>30.0</ele><time>2026-04-24T08:12:03.999Z</time></trkpt><trkpt lat="-17.805995197807857" lon="122.78470147879798"><ele>31.0</ele><time>2026-04-24T08:12:04.999Z</time></trkpt><trkpt lat="-17.80590897867839" lon="122.78498656874326"><ele>30.5</ele><time>2026-04-24T08:12:05.999Z</time></trkpt><trkpt lat="-17.805821364058648" lon="122.7852718640836"><ele>30.0</ele><time>2026-04-24T08:12:06.999Z</time></trkpt><trkpt lat="-17.805740034936516" lon="122.78555315137147"><ele>30.0</ele><time>2026-04-24T08:12:07.999Z</time></trkpt><trkpt lat="-17.805657973439953" lon="122.78583583442533"><ele>30.0</ele><time>2026-04-24T08:12:08.999Z</time></trkpt><trkpt lat="-17.805576178423788" lon="122.7861150390068"><ele>30.5</ele><time>2026-04-24T08:12:09.999Z</time></trkpt><trkpt lat="-17.805489758314504" lon="122.7863961323347"><ele>31.0</ele><time>2026-04-24T08:12:10.999Z</time></trkpt><trkpt lat="-17.80540754425613" lon="122.78667393974645"><ele>31.0</ele><time>2026-04-24T08:12:11.999Z</time></trkpt><trkpt lat="-17.805326248667566" lon="122.7869568066805"><ele>31.0</ele><time>2026-04-24T08:12:12.999Z</time></trkpt><trkpt lat="-17.805242255376346" lon="122.78724197777"><ele>30.5</ele><time>2026-04-24T08:12:13.999Z</time></trkpt><trkpt lat="-17.80515595558977" lon="122.7875289229531"><ele>30.0</ele><time>2026-04-24T08:12:14.999Z</time></trkpt><trkpt lat="-17.805070977314415" lon="122.78781765622914"><ele>30.0</ele><time>2026-04-24T08:12:15.999Z</time></trkpt><trkpt lat="-17.80498366883819" lon="122.78810617943672"><ele>30.0</ele><time>2026-04-24T08:12:16.999Z</time></trkpt><trkpt lat="-17.804896196590928" lon="122.78839111861234"><ele>29.0</ele><time>2026-04-24T08:12:17.999Z</time></trkpt><trkpt lat="-17.804806964724154" lon="122.7886756517241"><ele>28.0</ele><time>2026-04-24T08:12:18.999Z</time></trkpt><trkpt lat="-17.80471438855802" lon="122.78895812727824"><ele>28.0</ele><time>2026-04-24T08:12:19.999Z</time></trkpt><trkpt lat="-17.804616495600918" lon="122.78923837049643"><ele>28.0</ele><time>2026-04-24T08:12:20.999Z</time></trkpt><trkpt lat="-17.804509316684808" lon="122.78951457984405"><ele>30.0</ele><time>2026-04-24T08:12:21.999Z</time></trkpt><trkpt lat="-17.80439135148832" lon="122.78978846148755"><ele>32.0</ele><time>2026-04-24T08:12:22.999Z</time></trkpt><trkpt lat="-17.80426801563032" lon="122.79005891681972"><ele>31.5</ele><time>2026-04-24T08:12:23.999Z</time></trkpt><trkpt lat="-17.804138119806353" lon="122.79032761406675"><ele>31.0</ele><time>2026-04-24T08:12:24.999Z</time></trkpt><trkpt lat="-17.804004741298456" lon="122.79059540504021"><ele>31.0</ele><time>2026-04-24T08:12:25.999Z</time></trkpt><trkpt lat="-17.803869825952987" lon="122.79085908796006"><ele>31.0</ele><time>2026-04-24T08:12:26.999Z</time></trkpt><trkpt lat="-17.803734051763712" lon="122.79111954662503"><ele>31.5</ele><time>2026-04-24T08:12:27.999Z</time></trkpt><trkpt lat="-17.803596401872447" lon="122.7913805692593"><ele>32.0</ele><time>2026-04-24T08:12:28.999Z</time></trkpt><trkpt lat="-17.80345863177809" lon="122.79164268143239"><ele>32.0</ele><time>2026-04-24T08:12:29.999Z</time></trkpt><trkpt lat="-17.803323802719905" lon="122.79190221011079"><ele>32.0</ele><time>2026-04-24T08:12:30.999Z</time></trkpt><trkpt lat="-17.803189786716406" lon="122.79216449718042"><ele>32.0</ele><time>2026-04-24T08:12:31.999Z</time></trkpt><trkpt lat="-17.80305770298282" lon="122.79242522323966"><ele>32.0</ele><time>2026-04-24T08:12:32.999Z</time></trkpt><trkpt lat="-17.802922377241238" lon="122.79269001415479"><ele>32.0</ele><time>2026-04-24T08:12:33.999Z</time></trkpt><trkpt lat="-17.80278632909684" lon="122.79295311688118"><ele>32.0</ele><time>2026-04-24T08:12:34.999Z</time></trkpt><trkpt lat="-17.802651853724647" lon="122.79321532985814"><ele>32.0</ele><time>2026-04-24T08:12:35.999Z</time></trkpt><trkpt lat="-17.80251773508428" lon="122.7934783023472"><ele>32.0</ele><time>2026-04-24T08:12:36.999Z</time></trkpt><trkpt lat="-17.8023816351864" lon="122.79374260611358"><ele>31.5</ele><time>2026-04-24T08:12:37.999Z</time></trkpt><trkpt lat="-17.80224821017017" lon="122.79400267316973"><ele>31.0</ele><time>2026-04-24T08:12:38.999Z</time></trkpt><trkpt lat="-17.802117267957623" lon="122.79426247287648"><ele>31.5</ele><time>2026-04-24T08:12:39.999Z</time></trkpt><trkpt lat="-17.801985445865654" lon="122.79452510989104"><ele>32.0</ele><time>2026-04-24T08:12:40.999Z</time></trkpt><trkpt lat="-17.801850371786674" lon="122.79478883204493"><ele>32.5</ele><time>2026-04-24T08:12:41.999Z</time></trkpt><trkpt lat="-17.801715657083065" lon="122.7950504856301"><ele>33.0</ele><time>2026-04-24T08:12:42.999Z</time></trkpt><trkpt lat="-17.801578914421512" lon="122.79531546458296"><ele>32.0</ele><time>2026-04-24T08:12:43.999Z</time></trkpt><trkpt lat="-17.801443141081602" lon="122.79558137368846"><ele>31.0</ele><time>2026-04-24T08:12:44.999Z</time></trkpt><trkpt lat="-17.801306408743294" lon="122.7958501329089"><ele>31.0</ele><time>2026-04-24T08:12:45.999Z</time></trkpt><trkpt lat="-17.80116963057808" lon="122.79612076347028"><ele>31.0</ele><time>2026-04-24T08:12:46.999Z</time></trkpt><trkpt lat="-17.801031889807735" lon="122.79639467635853"><ele>31.0</ele><time>2026-04-24T08:12:47.999Z</time></trkpt><trkpt lat="-17.800892207497892" lon="122.7966675920482"><ele>31.0</ele><time>2026-04-24T08:12:48.999Z</time></trkpt><trkpt lat="-17.800751558821958" lon="122.79693789673298"><ele>32.0</ele><time>2026-04-24T08:12:49.999Z</time></trkpt><trkpt lat="-17.800610748486744" lon="122.79720840593676"><ele>33.0</ele><time>2026-04-24T08:12:50.999Z</time></trkpt><trkpt lat="-17.800469369679586" lon="122.79748217932864"><ele>33.5</ele><time>2026-04-24T08:12:51.999Z</time></trkpt><trkpt lat="-17.800329832033885" lon="122.79775577877751"><ele>34.0</ele><time>2026-04-24T08:12:52.999Z</time></trkpt><trkpt lat="-17.800189975464573" lon="122.79802908137384"><ele>34.0</ele><time>2026-04-24T08:12:53.999Z</time></trkpt><trkpt lat="-17.800049119811902" lon="122.79830269483408"><ele>34.0</ele><time>2026-04-24T08:12:54.999Z</time></trkpt><trkpt lat="-17.799909633278926" lon="122.79857563648251"><ele>33.0</ele><time>2026-04-24T08:12:55.999Z</time></trkpt><trkpt lat="-17.79977307353615" lon="122.7988474914764"><ele>32.0</ele><time>2026-04-24T08:12:56.999Z</time></trkpt><trkpt lat="-17.799635499896475" lon="122.79911512022508"><ele>32.5</ele><time>2026-04-24T08:12:57.999Z</time></trkpt><trkpt lat="-17.799498381909356" lon="122.79938127882052"><ele>33.0</ele><time>2026-04-24T08:12:58.999Z</time></trkpt><trkpt lat="-17.799361591370257" lon="122.79964677832"><ele>33.5</ele><time>2026-04-24T08:12:59.999Z</time></trkpt><trkpt lat="-17.79922310655812" lon="122.79991557942805"><ele>34.0</ele><time>2026-04-24T08:13:00.999Z</time></trkpt><trkpt lat="-17.79908433910589" lon="122.8001851467862"><ele>34.0</ele><time>2026-04-24T08:13:01.999Z</time></trkpt><trkpt lat="-17.79894719584197" lon="122.80045384613362"><ele>34.0</ele><time>2026-04-24T08:13:02.999Z</time></trkpt><trkpt lat="-17.798811137390917" lon="122.80072218406906"><ele>34.0</ele><time>2026-04-24T08:13:03.999Z</time></trkpt><trkpt lat="-17.798674429248724" lon="122.80099087023336"><ele>34.0</ele><time>2026-04-24T08:13:04.999Z</time></trkpt><trkpt lat="-17.79853725306251" lon="122.80125998801498"><ele>34.0</ele><time>2026-04-24T08:13:05.999Z</time></trkpt><trkpt lat="-17.79840228470056" lon="122.80152993295339"><ele>34.0</ele><time>2026-04-24T08:13:06.999Z</time></trkpt><trkpt lat="-17.798264603306702" lon="122.80180075228132"><ele>34.0</ele><time>2026-04-24T08:13:07.999Z</time></trkpt><trkpt lat="-17.798125271251365" lon="122.8020730973677"><ele>34.0</ele><time>2026-04-24T08:13:08.999Z</time></trkpt><trkpt lat="-17.797987824949175" lon="122.8023420088561"><ele>34.0</ele><time>2026-04-24T08:13:09.999Z</time></trkpt><trkpt lat="-17.797848174786857" lon="122.80261293571671"><ele>34.0</ele><time>2026-04-24T08:13:10.999Z</time></trkpt><trkpt lat="-17.79770796770946" lon="122.80288153294373"><ele>33.5</ele><time>2026-04-24T08:13:11.999Z</time></trkpt><trkpt lat="-17.79756831338735" lon="122.80315121652049"><ele>33.0</ele><time>2026-04-24T08:13:12.999Z</time></trkpt><trkpt lat="-17.797432961814547" lon="122.8034198855242"><ele>33.5</ele><time>2026-04-24T08:13:13.999Z</time></trkpt><trkpt lat="-17.79729589243578" lon="122.80368803007275"><ele>34.0</ele><time>2026-04-24T08:13:14.999Z</time></trkpt><trkpt lat="-17.797158213317456" lon="122.80395526688868"><ele>34.0</ele><time>2026-04-24T08:13:15.999Z</time></trkpt><trkpt lat="-17.79702076397404" lon="122.80422227468354"><ele>34.0</ele><time>2026-04-24T08:13:16.999Z</time></trkpt><trkpt lat="-17.79688491850449" lon="122.80449108513136"><ele>34.0</ele><time>2026-04-24T08:13:17.999Z</time></trkpt><trkpt lat="-17.796749235303718" lon="122.8047588110199"><ele>34.0</ele><time>2026-04-24T08:13:18.999Z</time></trkpt><trkpt lat="-17.796612871279763" lon="122.8050237056162"><ele>33.5</ele><time>2026-04-24T08:13:19.999Z</time></trkpt><trkpt lat="-17.796478525469055" lon="122.80528664399363"><ele>33.0</ele><time>2026-04-24T08:13:20.999Z</time></trkpt><trkpt lat="-17.796342240673834" lon="122.80554858766261"><ele>33.0</ele><time>2026-04-24T08:13:21.999Z</time></trkpt><trkpt lat="-17.796206940854045" lon="122.80580934604265"><ele>33.0</ele><time>2026-04-24T08:13:22.999Z</time></trkpt><trkpt lat="-17.796074447747515" lon="122.8060689822821"><ele>33.5</ele><time>2026-04-24T08:13:23.999Z</time></trkpt><trkpt lat="-17.795939538909902" lon="122.80633091879977"><ele>34.0</ele><time>2026-04-24T08:13:24.999Z</time></trkpt><trkpt lat="-17.795809170563803" lon="122.80659169027024"><ele>33.5</ele><time>2026-04-24T08:13:25.999Z</time></trkpt><trkpt lat="-17.795676877961906" lon="122.80685128660888"><ele>33.0</ele><time>2026-04-24T08:13:26.999Z</time></trkpt><trkpt lat="-17.795545491787074" lon="122.80711106488226"><ele>33.0</ele><time>2026-04-24T08:13:27.999Z</time></trkpt><trkpt lat="-17.795410742264917" lon="122.80737427949798"><ele>33.0</ele><time>2026-04-24T08:13:28.999Z</time></trkpt><trkpt lat="-17.79527965334884" lon="122.80763567172964"><ele>33.5</ele><time>2026-04-24T08:13:29.999Z</time></trkpt><trkpt lat="-17.79514747887069" lon="122.8078984060999"><ele>34.0</ele><time>2026-04-24T08:13:30.999Z</time></trkpt><trkpt lat="-17.795014137117494" lon="122.80816272838649"><ele>34.0</ele><time>2026-04-24T08:13:31.999Z</time></trkpt><trkpt lat="-17.794878823392477" lon="122.80842359256502"><ele>34.0</ele><time>2026-04-24T08:13:32.999Z</time></trkpt><trkpt lat="-17.794741681248684" lon="122.80868759245215"><ele>34.5</ele><time>2026-04-24T08:13:33.999Z</time></trkpt><trkpt lat="-17.794605258069847" lon="122.80895111149607"><ele>35.0</ele><time>2026-04-24T08:13:34.999Z</time></trkpt><trkpt lat="-17.79446837850687" lon="122.80921422505952"><ele>34.5</ele><time>2026-04-24T08:13:35.999Z</time></trkpt><trkpt lat="-17.794333132518126" lon="122.80947665527668"><ele>34.0</ele><time>2026-04-24T08:13:36.999Z</time></trkpt><trkpt lat="-17.794197852192283" lon="122.80974020872819"><ele>34.0</ele><time>2026-04-24T08:13:37.999Z</time></trkpt><trkpt lat="-17.794063975650147" lon="122.81000437963071"><ele>34.0</ele><time>2026-04-24T08:13:38.999Z</time></trkpt><trkpt lat="-17.793928305101602" lon="122.81026872003174"><ele>34.0</ele><time>2026-04-24T08:13:39.999Z</time></trkpt><trkpt lat="-17.793790860338376" lon="122.81053376893384"><ele>34.0</ele><time>2026-04-24T08:13:40.999Z</time></trkpt><trkpt lat="-17.79365328823389" lon="122.81079900306844"><ele>34.0</ele><time>2026-04-24T08:13:41.999Z</time></trkpt><trkpt lat="-17.793517341303648" lon="122.81106452456243"><ele>34.0</ele><time>2026-04-24T08:13:42.999Z</time></trkpt><trkpt lat="-17.793381125074095" lon="122.81133197650863"><ele>34.0</ele><time>2026-04-24T08:13:43.999Z</time></trkpt><trkpt lat="-17.793245838762985" lon="122.8116011960176"><ele>34.0</ele><time>2026-04-24T08:13:44.999Z</time></trkpt><trkpt lat="-17.79310907218861" lon="122.81187016208897"><ele>34.0</ele><time>2026-04-24T08:13:45.999Z</time></trkpt><trkpt lat="-17.79297283064412" lon="122.81213846446398"><ele>34.0</ele><time>2026-04-24T08:13:46.999Z</time></trkpt><trkpt lat="-17.79283745174817" lon="122.81240597503262"><ele>34.0</ele><time>2026-04-24T08:13:47.999Z</time></trkpt><trkpt lat="-17.792699013628415" lon="122.81267565355319"><ele>34.0</ele><time>2026-04-24T08:13:48.999Z</time></trkpt><trkpt lat="-17.792561540783048" lon="122.81294392920465"><ele>34.5</ele><time>2026-04-24T08:13:49.999Z</time></trkpt><trkpt lat="-17.79242250329728" lon="122.81321390341297"><ele>35.0</ele><time>2026-04-24T08:13:50.999Z</time></trkpt><trkpt lat="-17.79228569687555" lon="122.81348440406383"><ele>35.0</ele><time>2026-04-24T08:13:51.999Z</time></trkpt><trkpt lat="-17.792147734662066" lon="122.81375355696161"><ele>35.0</ele><time>2026-04-24T08:13:52.999Z</time></trkpt><trkpt lat="-17.79200976870409" lon="122.8140213666496"><ele>35.0</ele><time>2026-04-24T08:13:53.999Z</time></trkpt><trkpt lat="-17.791873563383188" lon="122.81428969120789"><ele>35.0</ele><time>2026-04-24T08:13:54.999Z</time></trkpt><trkpt lat="-17.791739037396233" lon="122.81455591001207"><ele>35.0</ele><time>2026-04-24T08:13:55.999Z</time></trkpt><trkpt lat="-17.791601446237525" lon="122.81482204585335"><ele>35.0</ele><time>2026-04-24T08:13:56.999Z</time></trkpt><trkpt lat="-17.791462877733274" lon="122.81508934303625"><ele>34.5</ele><time>2026-04-24T08:13:57.999Z</time></trkpt><trkpt lat="-17.791327103273193" lon="122.81535718475855"><ele>34.0</ele><time>2026-04-24T08:13:58.999Z</time></trkpt><trkpt lat="-17.79119351189433" lon="122.81562530314699"><ele>34.0</ele><time>2026-04-24T08:13:59.999Z</time></trkpt><trkpt lat="-17.791060242534964" lon="122.81588765785908"><ele>34.0</ele><time>2026-04-24T08:14:00.999Z</time></trkpt><trkpt lat="-17.79093305081227" lon="122.81613276575871"><ele>35.0</ele><time>2026-04-24T08:14:01.999Z</time></trkpt><trkpt lat="-17.790807115779355" lon="122.81636992242598"><ele>36.0</ele><time>2026-04-24T08:14:02.999Z</time></trkpt><trkpt lat="-17.790679506249084" lon="122.81661476337784"><ele>36.0</ele><time>2026-04-24T08:14:03.999Z</time></trkpt><trkpt lat="-17.790550127052057" lon="122.81686685644505"><ele>36.0</ele><time>2026-04-24T08:14:04.999Z</time></trkpt><trkpt lat="-17.79042083510205" lon="122.81712245620933"><ele>36.0</ele><time>2026-04-24T08:14:05.999Z</time></trkpt><trkpt lat="-17.790291456538746" lon="122.81737677532077"><ele>36.0</ele><time>2026-04-24T08:14:06.999Z</time></trkpt><trkpt lat="-17.79015939098728" lon="122.81763534375008"><ele>36.0</ele><time>2026-04-24T08:14:07.999Z</time></trkpt><trkpt lat="-17.79002649631881" lon="122.81789393662746"><ele>36.0</ele><time>2026-04-24T08:14:08.999Z</time></trkpt><trkpt lat="-17.78989244864005" lon="122.81815315410049"><ele>36.0</ele><time>2026-04-24T08:14:09.999Z</time></trkpt><trkpt lat="-17.7897587489503" lon="122.81841348426678"><ele>36.0</ele><time>2026-04-24T08:14:10.999Z</time></trkpt><trkpt lat="-17.78962403939604" lon="122.81867806225618"><ele>37.5</ele><time>2026-04-24T08:14:11.999Z</time></trkpt><trkpt lat="-17.78948952350917" lon="122.81894228094487"><ele>39.0</ele><time>2026-04-24T08:14:12.999Z</time></trkpt><trkpt lat="-17.789355238385454" lon="122.81920528260277"><ele>38.0</ele><time>2026-04-24T08:14:13.999Z</time></trkpt><trkpt lat="-17.78922047810601" lon="122.8194715396403"><ele>37.0</ele><time>2026-04-24T08:14:14.999Z</time></trkpt><trkpt lat="-17.789087524353683" lon="122.81973474720515"><ele>37.0</ele><time>2026-04-24T08:14:15.999Z</time></trkpt><trkpt lat="-17.788955935108955" lon="122.81999388299154"><ele>37.0</ele><time>2026-04-24T08:14:16.999Z</time></trkpt><trkpt lat="-17.788826014876864" lon="122.82025692813225"><ele>37.0</ele><time>2026-04-24T08:14:17.999Z</time></trkpt><trkpt lat="-17.78870114720481" lon="122.82052181257502"><ele>37.0</ele><time>2026-04-24T08:14:18.999Z</time></trkpt><trkpt lat="-17.788579093255425" lon="122.82078814672573"><ele>37.0</ele><time>2026-04-24T08:14:19.999Z</time></trkpt><trkpt lat="-17.78845839730822" lon="122.82105798875904"><ele>37.0</ele><time>2026-04-24T08:14:20.999Z</time></trkpt><trkpt lat="-17.788341810330326" lon="122.82133021778758"><ele>37.0</ele><time>2026-04-24T08:14:21.999Z</time></trkpt><trkpt lat="-17.7882308912156" lon="122.82160591004087"><ele>37.0</ele><time>2026-04-24T08:14:22.999Z</time></trkpt><trkpt lat="-17.788128404399284" lon="122.82188404630283"><ele>36.0</ele><time>2026-04-24T08:14:23.999Z</time></trkpt><trkpt lat="-17.78802972089406" lon="122.82216474666048"><ele>35.0</ele><time>2026-04-24T08:14:24.999Z</time></trkpt><trkpt lat="-17.7879376314569" lon="122.82244999576858"><ele>35.0</ele><time>2026-04-24T08:14:25.999Z</time></trkpt><trkpt lat="-17.787850886619985" lon="122.8227397637331"><ele>35.0</ele><time>2026-04-24T08:14:26.999Z</time></trkpt><trkpt lat="-17.787765005580177" lon="122.82302854528675"><ele>35.0</ele><time>2026-04-24T08:14:27.999Z</time></trkpt><trkpt lat="-17.787678616950913" lon="122.8233142877206"><ele>35.0</ele><time>2026-04-24T08:14:28.999Z</time></trkpt><trkpt lat="-17.787591116528414" lon="122.82360461509268"><ele>35.5</ele><time>2026-04-24T08:14:29.999Z</time></trkpt><trkpt lat="-17.787501649246558" lon="122.82389282833803"><ele>36.0</ele><time>2026-04-24T08:14:30.999Z</time></trkpt><trkpt lat="-17.787409660015676" lon="122.82418000424096"><ele>35.0</ele><time>2026-04-24T08:14:31.999Z</time></trkpt><trkpt lat="-17.787314490090036" lon="122.82447308883373"><ele>34.0</ele><time>2026-04-24T08:14:32.999Z</time></trkpt><trkpt lat="-17.78722043828974" lon="122.8247637211875"><ele>34.0</ele><time>2026-04-24T08:14:33.999Z</time></trkpt><trkpt lat="-17.787126260915358" lon="122.82505508977175"><ele>34.0</ele><time>2026-04-24T08:14:34.999Z</time></trkpt><trkpt lat="-17.787037086761046" lon="122.82534625734635"><ele>34.5</ele><time>2026-04-24T08:14:35.999Z</time></trkpt><trkpt lat="-17.78694782239546" lon="122.82563881249811"><ele>35.0</ele><time>2026-04-24T08:14:36.999Z</time></trkpt><trkpt lat="-17.786858770925328" lon="122.82593206902565"><ele>34.5</ele><time>2026-04-24T08:14:37.999Z</time></trkpt><trkpt lat="-17.786769883535968" lon="122.82622368357073"><ele>34.0</ele><time>2026-04-24T08:14:38.999Z</time></trkpt><trkpt lat="-17.786679537230377" lon="122.82651707113007"><ele>34.0</ele><time>2026-04-24T08:14:39.999Z</time></trkpt><trkpt lat="-17.786588381485647" lon="122.82681173810309"><ele>34.0</ele><time>2026-04-24T08:14:40.999Z</time></trkpt><trkpt lat="-17.786497292761972" lon="122.82710580776588"><ele>34.0</ele><time>2026-04-24T08:14:41.999Z</time></trkpt><trkpt lat="-17.78640642454754" lon="122.82739833482952"><ele>34.0</ele><time>2026-04-24T08:14:42.999Z</time></trkpt><trkpt lat="-17.786315051051798" lon="122.82769525876587"><ele>35.0</ele><time>2026-04-24T08:14:43.999Z</time></trkpt><trkpt lat="-17.78622593178508" lon="122.82798975301819"><ele>36.0</ele><time>2026-04-24T08:14:44.999Z</time></trkpt><trkpt lat="-17.786137694921326" lon="122.82828567587411"><ele>36.5</ele><time>2026-04-24T08:14:45.999Z</time></trkpt><trkpt lat="-17.78604857258391" lon="122.8285801798032"><ele>37.0</ele><time>2026-04-24T08:14:46.999Z</time></trkpt><trkpt lat="-17.78595509775571" lon="122.82887532202655"><ele>37.0</ele><time>2026-04-24T08:14:47.999Z</time></trkpt><trkpt lat="-17.785862168456557" lon="122.82917101675132"><ele>37.0</ele><time>2026-04-24T08:14:48.999Z</time></trkpt><trkpt lat="-17.785768100129197" lon="122.829466452068"><ele>38.0</ele><time>2026-04-24T08:14:49.999Z</time></trkpt><trkpt lat="-17.785673246715653" lon="122.82976035579556"><ele>39.0</ele><time>2026-04-24T08:14:50.999Z</time></trkpt><trkpt lat="-17.785583397652015" lon="122.83005546872239"><ele>38.5</ele><time>2026-04-24T08:14:51.999Z</time></trkpt><trkpt lat="-17.785495051581027" lon="122.83035178015267"><ele>38.0</ele><time>2026-04-24T08:14:52.999Z</time></trkpt><trkpt lat="-17.785405331804903" lon="122.83064940559711"><ele>38.0</ele><time>2026-04-24T08:14:53.999Z</time></trkpt><trkpt lat="-17.78531725135562" lon="122.83094763121719"><ele>38.0</ele><time>2026-04-24T08:14:54.999Z</time></trkpt><trkpt lat="-17.785227090042323" lon="122.83124312805144"><ele>37.0</ele><time>2026-04-24T08:14:55.999Z</time></trkpt><trkpt lat="-17.785135329392467" lon="122.83153988737267"><ele>36.0</ele><time>2026-04-24T08:14:56.999Z</time></trkpt><trkpt lat="-17.785043114571856" lon="122.83183506814878"><ele>36.0</ele><time>2026-04-24T08:14:57.999Z</time></trkpt><trkpt lat="-17.78495212136034" lon="122.8321279090244"><ele>36.0</ele><time>2026-04-24T08:14:58.999Z</time></trkpt><trkpt lat="-17.784860317681478" lon="122.83242083633618"><ele>36.0</ele><time>2026-04-24T08:14:59.999Z</time></trkpt><trkpt lat="-17.784768998319404" lon="122.83271357771329"><ele>36.0</ele><time>2026-04-24T08:15:00.999Z</time></trkpt><trkpt lat="-17.784677509174102" lon="122.83300291488293"><ele>36.0</ele><time>2026-04-24T08:15:01.999Z</time></trkpt><trkpt lat="-17.784588882938376" lon="122.83329213731662"><ele>36.0</ele><time>2026-04-24T08:15:02.999Z</time></trkpt><trkpt lat="-17.784499469279513" lon="122.83358113339519"><ele>36.0</ele><time>2026-04-24T08:15:03.999Z</time></trkpt><trkpt lat="-17.784408670549055" lon="122.83387021739382"><ele>36.0</ele><time>2026-04-24T08:15:04.999Z</time></trkpt><trkpt lat="-17.78431788739055" lon="122.83415959224374"><ele>36.5</ele><time>2026-04-24T08:15:05.999Z</time></trkpt><trkpt lat="-17.784229172349495" lon="122.83444882490055"><ele>37.0</ele><time>2026-04-24T08:15:06.999Z</time></trkpt><trkpt lat="-17.784140538655393" lon="122.83474060189464"><ele>37.0</ele><time>2026-04-24T08:15:07.999Z</time></trkpt><trkpt lat="-17.784049842252433" lon="122.8350315862216"><ele>37.0</ele><time>2026-04-24T08:15:08.999Z</time></trkpt><trkpt lat="-17.783957224388892" lon="122.8353248250973"><ele>37.5</ele><time>2026-04-24T08:15:09.999Z</time></trkpt><trkpt lat="-17.783865506912633" lon="122.83561761647425"><ele>38.0</ele><time>2026-04-24T08:15:10.999Z</time></trkpt><trkpt lat="-17.78377183510856" lon="122.83591047341746"><ele>38.5</ele><time>2026-04-24T08:15:11.999Z</time></trkpt><trkpt lat="-17.783679481824176" lon="122.83620588354282"><ele>39.0</ele><time>2026-04-24T08:15:12.999Z</time></trkpt><trkpt lat="-17.783588809444435" lon="122.8365005891957"><ele>38.0</ele><time>2026-04-24T08:15:13.999Z</time></trkpt><trkpt lat="-17.78349733646531" lon="122.83679606978546"><ele>37.0</ele><time>2026-04-24T08:15:14.999Z</time></trkpt><trkpt lat="-17.78340574651971" lon="122.83709130993606"><ele>37.0</ele><time>2026-04-24T08:15:15.999Z</time></trkpt><trkpt lat="-17.783315925889408" lon="122.8373843765447"><ele>37.0</ele><time>2026-04-24T08:15:16.999Z</time></trkpt><trkpt lat="-17.783225644092372" lon="122.83767755898667"><ele>37.5</ele><time>2026-04-24T08:15:17.999Z</time></trkpt><trkpt lat="-17.783136877263725" lon="122.83796495576712"><ele>38.0</ele><time>2026-04-24T08:15:18.999Z</time></trkpt><trkpt lat="-17.783047565909722" lon="122.83825573116575"><ele>37.0</ele><time>2026-04-24T08:15:19.999Z</time></trkpt><trkpt lat="-17.78295800158763" lon="122.83854624441427"><ele>36.0</ele><time>2026-04-24T08:15:20.999Z</time></trkpt><trkpt lat="-17.782868072195203" lon="122.83883720599565"><ele>36.0</ele><time>2026-04-24T08:15:21.999Z</time></trkpt><trkpt lat="-17.78277790632343" lon="122.83912894915912"><ele>36.0</ele><time>2026-04-24T08:15:22.999Z</time></trkpt><trkpt lat="-17.78268738607482" lon="122.83941862118364"><ele>37.5</ele><time>2026-04-24T08:15:23.999Z</time></trkpt><trkpt lat="-17.782600047172192" lon="122.83970267372989"><ele>39.0</ele><time>2026-04-24T08:15:24.999Z</time></trkpt><trkpt lat="-17.782513576902144" lon="122.83998412273316"><ele>38.5</ele><time>2026-04-24T08:15:25.999Z</time></trkpt><trkpt lat="-17.78242614363369" lon="122.8402678756521"><ele>38.0</ele><time>2026-04-24T08:15:26.999Z</time></trkpt><trkpt lat="-17.78233889623406" lon="122.84055565073372"><ele>38.0</ele><time>2026-04-24T08:15:27.999Z</time></trkpt><trkpt lat="-17.782249783237237" lon="122.84084365007908"><ele>38.0</ele><time>2026-04-24T08:15:28.999Z</time></trkpt><trkpt lat="-17.782161178834325" lon="122.84113104109964"><ele>38.5</ele><time>2026-04-24T08:15:29.999Z</time></trkpt><trkpt lat="-17.782070983007515" lon="122.8414214632973"><ele>39.0</ele><time>2026-04-24T08:15:30.999Z</time></trkpt><trkpt lat="-17.781981793388844" lon="122.84171082708072"><ele>38.5</ele><time>2026-04-24T08:15:31.999Z</time></trkpt><trkpt lat="-17.78189258701362" lon="122.84200211569275"><ele>38.0</ele><time>2026-04-24T08:15:32.999Z</time></trkpt><trkpt lat="-17.78180005574162" lon="122.84229450346501"><ele>38.0</ele><time>2026-04-24T08:15:33.999Z</time></trkpt><trkpt lat="-17.78170877027186" lon="122.84258725243993"><ele>38.0</ele><time>2026-04-24T08:15:34.999Z</time></trkpt><trkpt lat="-17.781617335422073" lon="122.84288340744548"><ele>38.0</ele><time>2026-04-24T08:15:35.999Z</time></trkpt><trkpt lat="-17.781525552788363" lon="122.84318332705655"><ele>38.0</ele><time>2026-04-24T08:15:36.999Z</time></trkpt><trkpt lat="-17.781433973049218" lon="122.8434816638155"><ele>38.5</ele><time>2026-04-24T08:15:37.999Z</time></trkpt><trkpt lat="-17.781342022635" lon="122.8437806808131"><ele>39.0</ele><time>2026-04-24T08:15:38.999Z</time></trkpt><trkpt lat="-17.781248299996314" lon="122.84408155384246"><ele>38.0</ele><time>2026-04-24T08:15:39.999Z</time></trkpt><trkpt lat="-17.78115500584083" lon="122.8443821474597"><ele>37.0</ele><time>2026-04-24T08:15:40.999Z</time></trkpt><trkpt lat="-17.78106187944096" lon="122.84468120614379"><ele>37.5</ele><time>2026-04-24T08:15:41.999Z</time></trkpt><trkpt lat="-17.780968270504445" lon="122.8449793245861"><ele>38.0</ele><time>2026-04-24T08:15:42.999Z</time></trkpt><trkpt lat="-17.780876373101616" lon="122.84527551233315"><ele>38.0</ele><time>2026-04-24T08:15:43.999Z</time></trkpt><trkpt lat="-17.780786168329495" lon="122.84556988406626"><ele>38.0</ele><time>2026-04-24T08:15:44.999Z</time></trkpt><trkpt lat="-17.780696794605422" lon="122.84586371963415"><ele>38.0</ele><time>2026-04-24T08:15:45.999Z</time></trkpt><trkpt lat="-17.780607961409757" lon="122.84615929279127"><ele>38.0</ele><time>2026-04-24T08:15:46.999Z</time></trkpt><trkpt lat="-17.78052202760082" lon="122.84644844170774"><ele>38.0</ele><time>2026-04-24T08:15:47.999Z</time></trkpt><trkpt lat="-17.7804345418132" lon="122.84673629954763"><ele>38.0</ele><time>2026-04-24T08:15:48.999Z</time></trkpt><trkpt lat="-17.78034461883962" lon="122.84701985850907"><ele>38.0</ele><time>2026-04-24T08:15:49.999Z</time></trkpt><trkpt lat="-17.780253756571067" lon="122.84730291795061"><ele>38.0</ele><time>2026-04-24T08:15:50.999Z</time></trkpt><trkpt lat="-17.78016328873061" lon="122.84758815671272"><ele>38.5</ele><time>2026-04-24T08:15:51.999Z</time></trkpt><trkpt lat="-17.780072817349108" lon="122.84787398118235"><ele>39.0</ele><time>2026-04-24T08:15:52.999Z</time></trkpt><trkpt lat="-17.77998499521426" lon="122.84815919344"><ele>39.0</ele><time>2026-04-24T08:15:53.999Z</time></trkpt><trkpt lat="-17.779892988275538" lon="122.8484488256629"><ele>39.0</ele><time>2026-04-24T08:15:54.999Z</time></trkpt><trkpt lat="-17.779801445898176" lon="122.84873734203073"><ele>39.0</ele><time>2026-04-24T08:15:55.999Z</time></trkpt><trkpt lat="-17.7797113908314" lon="122.84902790402344"><ele>39.0</ele><time>2026-04-24T08:15:57Z</time></trkpt><trkpt lat="-17.77961954228771" lon="122.84931902184789"><ele>39.5</ele><time>2026-04-24T08:15:58Z</time></trkpt><trkpt lat="-17.779529373380058" lon="122.84961410657402"><ele>40.0</ele><time>2026-04-24T08:15:59Z</time></trkpt><trkpt lat="-17.779439426166412" lon="122.8499110847689"><ele>39.0</ele><time>2026-04-24T08:16:00Z</time></trkpt><trkpt lat="-17.779349032780235" lon="122.85021036577655"><ele>38.0</ele><time>2026-04-24T08:16:01Z</time></trkpt><trkpt lat="-17.779259219579586" lon="122.85050544023512"><ele>38.0</ele><time>2026-04-24T08:16:02Z</time></trkpt><trkpt lat="-17.77917136692179" lon="122.85079793657994"><ele>38.0</ele><time>2026-04-24T08:16:03Z</time></trkpt><trkpt lat="-17.77908801659385" lon="122.8510711686935"><ele>38.0</ele><time>2026-04-24T08:16:04Z</time></trkpt><trkpt lat="-17.77900284498251" lon="122.85133975981506"><ele>38.0</ele><time>2026-04-24T08:16:05Z</time></trkpt><trkpt lat="-17.778916061161574" lon="122.85161698795163"><ele>38.5</ele><time>2026-04-24T08:16:06Z</time></trkpt><trkpt lat="-17.778827185964133" lon="122.85189950804997"><ele>39.0</ele><time>2026-04-24T08:16:07Z</time></trkpt><trkpt lat="-17.778737850622573" lon="122.85218379437946"><ele>39.0</ele><time>2026-04-24T08:16:08Z</time></trkpt><trkpt lat="-17.77864921280582" lon="122.85247327471365"><ele>39.0</ele><time>2026-04-24T08:16:09Z</time></trkpt><trkpt lat="-17.77855994727898" lon="122.8527641674925"><ele>38.0</ele><time>2026-04-24T08:16:10Z</time></trkpt><trkpt lat="-17.778470508515667" lon="122.85306035954375"><ele>37.0</ele><time>2026-04-24T08:16:11Z</time></trkpt><trkpt lat="-17.778378738548902" lon="122.85335887444866"><ele>37.5</ele><time>2026-04-24T08:16:12Z</time></trkpt><trkpt lat="-17.778284885405895" lon="122.85365682771545"><ele>38.0</ele><time>2026-04-24T08:16:13Z</time></trkpt><trkpt lat="-17.77819084503823" lon="122.85395143388993"><ele>38.0</ele><time>2026-04-24T08:16:14Z</time></trkpt><trkpt lat="-17.778098165036813" lon="122.8542479035728"><ele>38.0</ele><time>2026-04-24T08:16:15Z</time></trkpt><trkpt lat="-17.778005754372508" lon="122.85454540425458"><ele>37.5</ele><time>2026-04-24T08:16:16Z</time></trkpt><trkpt lat="-17.77791499535834" lon="122.85484126016937"><ele>37.0</ele><time>2026-04-24T08:16:17Z</time></trkpt><trkpt lat="-17.777825219778418" lon="122.85513658694414"><ele>38.0</ele><time>2026-04-24T08:16:18Z</time></trkpt><trkpt lat="-17.7777332643006" lon="122.85543055179554"><ele>39.0</ele><time>2026-04-24T08:16:19Z</time></trkpt><trkpt lat="-17.777641734216342" lon="122.85572409705914"><ele>39.0</ele><time>2026-04-24T08:16:20Z</time></trkpt><trkpt lat="-17.777553113525805" lon="122.85602223575845"><ele>39.0</ele><time>2026-04-24T08:16:21Z</time></trkpt><trkpt lat="-17.777464684167878" lon="122.85632012316516"><ele>39.0</ele><time>2026-04-24T08:16:22Z</time></trkpt><trkpt lat="-17.777376908065943" lon="122.85661677798596"><ele>39.0</ele><time>2026-04-24T08:16:23Z</time></trkpt><trkpt lat="-17.777287314204713" lon="122.8569150784935"><ele>39.0</ele><time>2026-04-24T08:16:24Z</time></trkpt><trkpt lat="-17.777194786446742" lon="122.85721214751436"><ele>39.0</ele><time>2026-04-24T08:16:25Z</time></trkpt><trkpt lat="-17.777098565518862" lon="122.8575096418569"><ele>39.0</ele><time>2026-04-24T08:16:26Z</time></trkpt><trkpt lat="-17.777002410134163" lon="122.85780795901547"><ele>39.0</ele><time>2026-04-24T08:16:26.999Z</time></trkpt><trkpt lat="-17.77690815949252" lon="122.8581058831215"><ele>39.0</ele><time>2026-04-24T08:16:27.999Z</time></trkpt><trkpt lat="-17.776813246997236" lon="122.8584051405439"><ele>39.0</ele><time>2026-04-24T08:16:28.999Z</time></trkpt><trkpt lat="-17.776718106048722" lon="122.85870808645979"><ele>38.5</ele><time>2026-04-24T08:16:29.999Z</time></trkpt><trkpt lat="-17.776626419637118" lon="122.85900938992636"><ele>38.0</ele><time>2026-04-24T08:16:30.999Z</time></trkpt><trkpt lat="-17.77653273185636" lon="122.85930964811415"><ele>38.0</ele><time>2026-04-24T08:16:31.999Z</time></trkpt><trkpt lat="-17.776438615043975" lon="122.85960952727523"><ele>38.0</ele><time>2026-04-24T08:16:32.999Z</time></trkpt><trkpt lat="-17.776345186068664" lon="122.85990768282397"><ele>38.5</ele><time>2026-04-24T08:16:33.999Z</time></trkpt><trkpt lat="-17.77625424361997" lon="122.86020926693053"><ele>39.0</ele><time>2026-04-24T08:16:34.999Z</time></trkpt><trkpt lat="-17.776167016481686" lon="122.86050747700781"><ele>39.0</ele><time>2026-04-24T08:16:35.999Z</time></trkpt><trkpt lat="-17.776078081923888" lon="122.86080588189998"><ele>39.0</ele><time>2026-04-24T08:16:36.999Z</time></trkpt><trkpt lat="-17.77598670405624" lon="122.86110361107109"><ele>39.0</ele><time>2026-04-24T08:16:37.999Z</time></trkpt><trkpt lat="-17.775894312450053" lon="122.8614006769286"><ele>39.0</ele><time>2026-04-24T08:16:38.999Z</time></trkpt><trkpt lat="-17.77580187414959" lon="122.86169656244437"><ele>38.5</ele><time>2026-04-24T08:16:39.999Z</time></trkpt><trkpt lat="-17.77571012193007" lon="122.86199298412316"><ele>38.0</ele><time>2026-04-24T08:16:40.999Z</time></trkpt><trkpt lat="-17.775618279826105" lon="122.8622888783586"><ele>38.0</ele><time>2026-04-24T08:16:41.999Z</time></trkpt><trkpt lat="-17.77552779040728" lon="122.86258307622128"><ele>38.0</ele><time>2026-04-24T08:16:42.999Z</time></trkpt><trkpt lat="-17.775438901110554" lon="122.86287655790228"><ele>38.0</ele><time>2026-04-24T08:16:43.999Z</time></trkpt><trkpt lat="-17.775347978605957" lon="122.86317023784616"><ele>38.0</ele><time>2026-04-24T08:16:44.999Z</time></trkpt><trkpt lat="-17.77525625392957" lon="122.86346563875416"><ele>39.0</ele><time>2026-04-24T08:16:45.999Z</time></trkpt><trkpt lat="-17.775163410714566" lon="122.86376206066548"><ele>40.0</ele><time>2026-04-24T08:16:46.999Z</time></trkpt><trkpt lat="-17.775072026869655" lon="122.86405492353967"><ele>39.5</ele><time>2026-04-24T08:16:47.999Z</time></trkpt><trkpt lat="-17.774983392464705" lon="122.86434870037775"><ele>39.0</ele><time>2026-04-24T08:16:48.999Z</time></trkpt><trkpt lat="-17.774895379676245" lon="122.86464636046207"><ele>39.0</ele><time>2026-04-24T08:16:49.999Z</time></trkpt><trkpt lat="-17.77481045433564" lon="122.86494074450735"><ele>39.0</ele><time>2026-04-24T08:16:50.999Z</time></trkpt><trkpt lat="-17.7747293850612" lon="122.86523686474254"><ele>39.5</ele><time>2026-04-24T08:16:51.999Z</time></trkpt><trkpt lat="-17.774657623986563" lon="122.86553361143598"><ele>40.0</ele><time>2026-04-24T08:16:52.999Z</time></trkpt><trkpt lat="-17.774598793379337" lon="122.86583482361128"><ele>40.5</ele><time>2026-04-24T08:16:53.999Z</time></trkpt><trkpt lat="-17.77454808386657" lon="122.86613775029464"><ele>41.0</ele><time>2026-04-24T08:16:54.999Z</time></trkpt><trkpt lat="-17.774505122897036" lon="122.86644026255938"><ele>41.0</ele><time>2026-04-24T08:16:55.999Z</time></trkpt><trkpt lat="-17.774469577007125" lon="122.86674574062076"><ele>41.0</ele><time>2026-04-24T08:16:56.999Z</time></trkpt><trkpt lat="-17.774441605542375" lon="122.8670539013811"><ele>41.0</ele><time>2026-04-24T08:16:57.999Z</time></trkpt><trkpt lat="-17.774416593406553" lon="122.8673670758326"><ele>41.0</ele><time>2026-04-24T08:16:58.999Z</time></trkpt><trkpt lat="-17.77439528224152" lon="122.86767791463615"><ele>41.0</ele><time>2026-04-24T08:16:59.999Z</time></trkpt><trkpt lat="-17.77437508382061" lon="122.8679894879176"><ele>41.0</ele><time>2026-04-24T08:17:00.999Z</time></trkpt><trkpt lat="-17.77435398519235" lon="122.8682995144074"><ele>40.0</ele><time>2026-04-24T08:17:01.999Z</time></trkpt><trkpt lat="-17.774330578893323" lon="122.86860882471575"><ele>39.0</ele><time>2026-04-24T08:17:02.999Z</time></trkpt><trkpt lat="-17.7743082571535" lon="122.86891400963937"><ele>39.0</ele><time>2026-04-24T08:17:03.999Z</time></trkpt><trkpt lat="-17.774283845515924" lon="122.86921908837652"><ele>39.0</ele><time>2026-04-24T08:17:04.999Z</time></trkpt><trkpt lat="-17.77425990621478" lon="122.86952350201652"><ele>38.5</ele><time>2026-04-24T08:17:05.999Z</time></trkpt><trkpt lat="-17.774239943226444" lon="122.86982865469932"><ele>38.0</ele><time>2026-04-24T08:17:06.999Z</time></trkpt><trkpt lat="-17.77422102307325" lon="122.87013158729367"><ele>39.0</ele><time>2026-04-24T08:17:07.999Z</time></trkpt><trkpt lat="-17.7742023735587" lon="122.87043196651376"><ele>40.0</ele><time>2026-04-24T08:17:08.999Z</time></trkpt><trkpt lat="-17.774184450444935" lon="122.87072898960332"><ele>39.5</ele><time>2026-04-24T08:17:09.999Z</time></trkpt><trkpt lat="-17.77416571983937" lon="122.87102349742396"><ele>39.0</ele><time>2026-04-24T08:17:10.999Z</time></trkpt><trkpt lat="-17.774145198739777" lon="122.87131390732232"><ele>39.0</ele><time>2026-04-24T08:17:11.999Z</time></trkpt><trkpt lat="-17.774122555589575" lon="122.87160144479455"><ele>39.0</ele><time>2026-04-24T08:17:12.999Z</time></trkpt><trkpt lat="-17.774099812283385" lon="122.8718861348683"><ele>40.0</ele><time>2026-04-24T08:17:13.999Z</time></trkpt><trkpt lat="-17.774077817002198" lon="122.87217085092499"><ele>41.0</ele><time>2026-04-24T08:17:14.999Z</time></trkpt><trkpt lat="-17.77405393652324" lon="122.87244722907423"><ele>40.5</ele><time>2026-04-24T08:17:15.999Z</time></trkpt><trkpt lat="-17.774030391698545" lon="122.87272821871902"><ele>40.0</ele><time>2026-04-24T08:17:16.999Z</time></trkpt><trkpt lat="-17.77401160964177" lon="122.87300377239657"><ele>40.0</ele><time>2026-04-24T08:17:17.999Z</time></trkpt><trkpt lat="-17.77399403294962" lon="122.87327942359282"><ele>40.0</ele><time>2026-04-24T08:17:19Z</time></trkpt><trkpt lat="-17.773977199453405" lon="122.87355372112457"><ele>40.0</ele><time>2026-04-24T08:17:20Z</time></trkpt><trkpt lat="-17.773958430921066" lon="122.87383848094285"><ele>40.0</ele><time>2026-04-24T08:17:21Z</time></trkpt><trkpt lat="-17.77393962568463" lon="122.87411365615445"><ele>42.0</ele><time>2026-04-24T08:17:22Z</time></trkpt><trkpt lat="-17.77391884387065" lon="122.87439672788881"><ele>44.0</ele><time>2026-04-24T08:17:23Z</time></trkpt><trkpt lat="-17.77390234952649" lon="122.87467613510404"><ele>44.0</ele><time>2026-04-24T08:17:24Z</time></trkpt><trkpt lat="-17.77388210694593" lon="122.8749599231787"><ele>44.0</ele><time>2026-04-24T08:17:25Z</time></trkpt><trkpt lat="-17.77385891734857" lon="122.87524434050175"><ele>43.5</ele><time>2026-04-24T08:17:26Z</time></trkpt><trkpt lat="-17.77383514156233" lon="122.87552554194892"><ele>43.0</ele><time>2026-04-24T08:17:27Z</time></trkpt><trkpt lat="-17.77381274689192" lon="122.87580640601992"><ele>42.5</ele><time>2026-04-24T08:17:28Z</time></trkpt><trkpt lat="-17.77379239656234" lon="122.87609166108724"><ele>42.0</ele><time>2026-04-24T08:17:29Z</time></trkpt><trkpt lat="-17.7737734416606" lon="122.87637727219682"><ele>42.0</ele><time>2026-04-24T08:17:30Z</time></trkpt><trkpt lat="-17.773752513523466" lon="122.87666218341926"><ele>42.0</ele><time>2026-04-24T08:17:31Z</time></trkpt><trkpt lat="-17.773730003212837" lon="122.87694489164437"><ele>42.0</ele><time>2026-04-24T08:17:32Z</time></trkpt><trkpt lat="-17.773705075674734" lon="122.87723031681243"><ele>42.0</ele><time>2026-04-24T08:17:33Z</time></trkpt><trkpt lat="-17.773670467547145" lon="122.87751316360274"><ele>42.5</ele><time>2026-04-24T08:17:34Z</time></trkpt><trkpt lat="-17.77362180497017" lon="122.87779850275204"><ele>43.0</ele><time>2026-04-24T08:17:35Z</time></trkpt><trkpt lat="-17.77356609313525" lon="122.8780823455368"><ele>42.5</ele><time>2026-04-24T08:17:36Z</time></trkpt><trkpt lat="-17.773495656131725" lon="122.87836126334028"><ele>42.0</ele><time>2026-04-24T08:17:37Z</time></trkpt><trkpt lat="-17.77341230808446" lon="122.87863423874934"><ele>42.0</ele><time>2026-04-24T08:17:38Z</time></trkpt><trkpt lat="-17.77331630753314" lon="122.87890531578243"><ele>42.0</ele><time>2026-04-24T08:17:39Z</time></trkpt><trkpt lat="-17.773210950306243" lon="122.8791798682265"><ele>41.5</ele><time>2026-04-24T08:17:40Z</time></trkpt><trkpt lat="-17.773098550051085" lon="122.87945290979717"><ele>41.0</ele><time>2026-04-24T08:17:41Z</time></trkpt><trkpt lat="-17.772978330453093" lon="122.87972048548359"><ele>41.0</ele><time>2026-04-24T08:17:42Z</time></trkpt><trkpt lat="-17.77285047962779" lon="122.87998200482714"><ele>41.0</ele><time>2026-04-24T08:17:43Z</time></trkpt><trkpt lat="-17.77271047679589" lon="122.88024040784406"><ele>41.5</ele><time>2026-04-24T08:17:44Z</time></trkpt><trkpt lat="-17.772562685310323" lon="122.88049525316438"><ele>42.0</ele><time>2026-04-24T08:17:45Z</time></trkpt><trkpt lat="-17.7724086570517" lon="122.88074421451448"><ele>41.5</ele><time>2026-04-24T08:17:46Z</time></trkpt><trkpt lat="-17.772246389179124" lon="122.88098884625228"><ele>41.0</ele><time>2026-04-24T08:17:47Z</time></trkpt><trkpt lat="-17.772077895015396" lon="122.88122078215716"><ele>41.0</ele><time>2026-04-24T08:17:48Z</time></trkpt><trkpt lat="-17.771896511726503" lon="122.88144197128976"><ele>41.0</ele><time>2026-04-24T08:17:49Z</time></trkpt><trkpt lat="-17.77170608284488" lon="122.88165367061394"><ele>40.5</ele><time>2026-04-24T08:17:50Z</time></trkpt><trkpt lat="-17.771507764085936" lon="122.88185949570712"><ele>40.0</ele><time>2026-04-24T08:17:51Z</time></trkpt><trkpt lat="-17.771300770732665" lon="122.88206336651328"><ele>40.0</ele><time>2026-04-24T08:17:52Z</time></trkpt><trkpt lat="-17.771090050881874" lon="122.88226106803603"><ele>40.0</ele><time>2026-04-24T08:17:53Z</time></trkpt><trkpt lat="-17.77087880492161" lon="122.88245097235728"><ele>39.0</ele><time>2026-04-24T08:17:54Z</time></trkpt><trkpt lat="-17.770654684293657" lon="122.88263441758133"><ele>38.0</ele><time>2026-04-24T08:17:55Z</time></trkpt><trkpt lat="-17.77042680044348" lon="122.88281346622885"><ele>38.5</ele><time>2026-04-24T08:17:56Z</time></trkpt><trkpt lat="-17.770189688125633" lon="122.8829924970641"><ele>39.0</ele><time>2026-04-24T08:17:57Z</time></trkpt><trkpt lat="-17.769957323707203" lon="122.88316947316156"><ele>39.0</ele><time>2026-04-24T08:17:58Z</time></trkpt><trkpt lat="-17.769726878537362" lon="122.8833499259401"><ele>39.0</ele><time>2026-04-24T08:17:59Z</time></trkpt><trkpt lat="-17.76949710972906" lon="122.88353351913035"><ele>41.0</ele><time>2026-04-24T08:18:00Z</time></trkpt><trkpt lat="-17.769271788653697" lon="122.88371324136837"><ele>43.0</ele><time>2026-04-24T08:18:01Z</time></trkpt><trkpt lat="-17.769042652893745" lon="122.88389558257515"><ele>43.0</ele><time>2026-04-24T08:18:02Z</time></trkpt><trkpt lat="-17.76881615127246" lon="122.88407683843747"><ele>43.0</ele><time>2026-04-24T08:18:03Z</time></trkpt><trkpt lat="-17.768589011864126" lon="122.88425986194775"><ele>43.0</ele><time>2026-04-24T08:18:04Z</time></trkpt><trkpt lat="-17.768360109978374" lon="122.88444219552773"><ele>43.0</ele><time>2026-04-24T08:18:05Z</time></trkpt><trkpt lat="-17.768128659038094" lon="122.88462381128927"><ele>43.0</ele><time>2026-04-24T08:18:06Z</time></trkpt><trkpt lat="-17.7678987716971" lon="122.88480474173177"><ele>43.0</ele><time>2026-04-24T08:18:07Z</time></trkpt><trkpt lat="-17.767669085304743" lon="122.88498762757986"><ele>42.5</ele><time>2026-04-24T08:18:08Z</time></trkpt><trkpt lat="-17.767443345174314" lon="122.88517914150836"><ele>42.0</ele><time>2026-04-24T08:18:09Z</time></trkpt><trkpt lat="-17.767223464574123" lon="122.88537878909804"><ele>42.0</ele><time>2026-04-24T08:18:10Z</time></trkpt><trkpt lat="-17.767011482898" lon="122.88558530350579"><ele>42.0</ele><time>2026-04-24T08:18:11Z</time></trkpt><trkpt lat="-17.766807911068334" lon="122.88580216475968"><ele>42.5</ele><time>2026-04-24T08:18:12Z</time></trkpt><trkpt lat="-17.76661292166313" lon="122.88602324146643"><ele>43.0</ele><time>2026-04-24T08:18:13Z</time></trkpt><trkpt lat="-17.766423093277755" lon="122.88625315387158"><ele>43.0</ele><time>2026-04-24T08:18:14Z</time></trkpt><trkpt lat="-17.766242752817654" lon="122.88648837589017"><ele>43.0</ele><time>2026-04-24T08:18:15Z</time></trkpt><trkpt lat="-17.76606793582564" lon="122.88673096711797"><ele>43.5</ele><time>2026-04-24T08:18:16Z</time></trkpt><trkpt lat="-17.765900600015325" lon="122.88698150795919"><ele>44.0</ele><time>2026-04-24T08:18:17Z</time></trkpt><trkpt lat="-17.76574566411018" lon="122.88723379962245"><ele>44.0</ele><time>2026-04-24T08:18:18Z</time></trkpt><trkpt lat="-17.765600359595233" lon="122.88749451332876"><ele>44.0</ele><time>2026-04-24T08:18:19Z</time></trkpt><trkpt lat="-17.76546366102844" lon="122.88775867869494"><ele>43.5</ele><time>2026-04-24T08:18:20Z</time></trkpt><trkpt lat="-17.765334527738553" lon="122.88802643398849"><ele>43.0</ele><time>2026-04-24T08:18:21Z</time></trkpt><trkpt lat="-17.765211751844337" lon="122.88829571424586"><ele>43.0</ele><time>2026-04-24T08:18:22Z</time></trkpt><trkpt lat="-17.76509623114559" lon="122.88857133084421"><ele>43.0</ele><time>2026-04-24T08:18:23Z</time></trkpt><trkpt lat="-17.764992952657092" lon="122.88884973100384"><ele>43.0</ele><time>2026-04-24T08:18:24Z</time></trkpt><trkpt lat="-17.764898768206976" lon="122.88913553523118"><ele>43.0</ele><time>2026-04-24T08:18:25Z</time></trkpt><trkpt lat="-17.76481682833499" lon="122.88942226998344"><ele>42.5</ele><time>2026-04-24T08:18:26Z</time></trkpt><trkpt lat="-17.76474018142736" lon="122.88971724042196"><ele>42.0</ele><time>2026-04-24T08:18:27Z</time></trkpt><trkpt lat="-17.764670607420214" lon="122.89001568087637"><ele>42.0</ele><time>2026-04-24T08:18:28Z</time></trkpt><trkpt lat="-17.76460492909888" lon="122.89031277168277"><ele>42.0</ele><time>2026-04-24T08:18:29Z</time></trkpt><trkpt lat="-17.764538114012694" lon="122.8906071729609"><ele>42.0</ele><time>2026-04-24T08:18:30Z</time></trkpt><trkpt lat="-17.764467843637135" lon="122.89090166507756"><ele>42.0</ele><time>2026-04-24T08:18:31Z</time></trkpt><trkpt lat="-17.764395260088033" lon="122.89119598178851"><ele>43.5</ele><time>2026-04-24T08:18:32Z</time></trkpt><trkpt lat="-17.764321440597488" lon="122.8914893260611"><ele>45.0</ele><time>2026-04-24T08:18:32.999Z</time></trkpt><trkpt lat="-17.76424523459072" lon="122.89178300856237"><ele>45.0</ele><time>2026-04-24T08:18:33.999Z</time></trkpt><trkpt lat="-17.764168958485904" lon="122.89207638445728"><ele>45.0</ele><time>2026-04-24T08:18:34.999Z</time></trkpt><trkpt lat="-17.764094863961336" lon="122.89236720219138"><ele>45.5</ele><time>2026-04-24T08:18:35.999Z</time></trkpt><trkpt lat="-17.764026453040376" lon="122.89265438556625"><ele>46.0</ele><time>2026-04-24T08:18:36.999Z</time></trkpt><trkpt lat="-17.763959259079222" lon="122.89294568826058"><ele>46.0</ele><time>2026-04-24T08:18:37.999Z</time></trkpt><trkpt lat="-17.76389059714276" lon="122.89323505876474"><ele>46.0</ele><time>2026-04-24T08:18:38.999Z</time></trkpt><trkpt lat="-17.763822392287473" lon="122.89352355165846"><ele>46.5</ele><time>2026-04-24T08:18:39.999Z</time></trkpt><trkpt lat="-17.763754520098196" lon="122.89380997928717"><ele>47.0</ele><time>2026-04-24T08:18:40.999Z</time></trkpt><trkpt lat="-17.763683020610067" lon="122.894099486151"><ele>47.0</ele><time>2026-04-24T08:18:41.999Z</time></trkpt><trkpt lat="-17.763611838192645" lon="122.8943844891746"><ele>47.0</ele><time>2026-04-24T08:18:42.999Z</time></trkpt><trkpt lat="-17.76354196888006" lon="122.89467135622455"><ele>47.0</ele><time>2026-04-24T08:18:43.999Z</time></trkpt><trkpt lat="-17.763472813224077" lon="122.89495867440402"><ele>47.0</ele><time>2026-04-24T08:18:44.999Z</time></trkpt><trkpt lat="-17.76340530542252" lon="122.89524392084624"><ele>46.5</ele><time>2026-04-24T08:18:45.999Z</time></trkpt><trkpt lat="-17.763337759779706" lon="122.89552791044814"><ele>46.0</ele><time>2026-04-24T08:18:46.999Z</time></trkpt><trkpt lat="-17.763270157987098" lon="122.89580802426525"><ele>45.5</ele><time>2026-04-24T08:18:47.999Z</time></trkpt><trkpt lat="-17.763205965059896" lon="122.89608816555985"><ele>45.0</ele><time>2026-04-24T08:18:48.999Z</time></trkpt><trkpt lat="-17.763145234098747" lon="122.89636561232273"><ele>45.0</ele><time>2026-04-24T08:18:49.999Z</time></trkpt><trkpt lat="-17.763081205938764" lon="122.8966410279807"><ele>45.0</ele><time>2026-04-24T08:18:50.999Z</time></trkpt><trkpt lat="-17.76301319381342" lon="122.89691277978798"><ele>44.5</ele><time>2026-04-24T08:18:51.999Z</time></trkpt><trkpt lat="-17.762944527758737" lon="122.89718018805841"><ele>44.0</ele><time>2026-04-24T08:18:52.999Z</time></trkpt><trkpt lat="-17.76287348026467" lon="122.89745007652904"><ele>43.5</ele><time>2026-04-24T08:18:53.999Z</time></trkpt><trkpt lat="-17.762801208643783" lon="122.89772566573875"><ele>43.0</ele><time>2026-04-24T08:18:54.999Z</time></trkpt><trkpt lat="-17.762731409029975" lon="122.89800276659011"><ele>43.0</ele><time>2026-04-24T08:18:55.999Z</time></trkpt><trkpt lat="-17.762662315763965" lon="122.89828140696234"><ele>43.0</ele><time>2026-04-24T08:18:56.999Z</time></trkpt><trkpt lat="-17.76259233180047" lon="122.89856576270464"><ele>43.0</ele><time>2026-04-24T08:18:57.999Z</time></trkpt><trkpt lat="-17.762519486220707" lon="122.89885349073728"><ele>43.0</ele><time>2026-04-24T08:18:58.999Z</time></trkpt><trkpt lat="-17.762448254928962" lon="122.89914403411531"><ele>44.0</ele><time>2026-04-24T08:18:59.999Z</time></trkpt><trkpt lat="-17.76238008894539" lon="122.89943497449266"><ele>45.0</ele><time>2026-04-24T08:19:00.999Z</time></trkpt><trkpt lat="-17.762311259836483" lon="122.89972878593198"><ele>45.0</ele><time>2026-04-24T08:19:01.999Z</time></trkpt><trkpt lat="-17.762240715043475" lon="122.9000249561003"><ele>45.0</ele><time>2026-04-24T08:19:02.999Z</time></trkpt><trkpt lat="-17.76216991719757" lon="122.90031903709995"><ele>44.0</ele><time>2026-04-24T08:19:03.999Z</time></trkpt><trkpt lat="-17.76209649400019" lon="122.90061345230873"><ele>43.0</ele><time>2026-04-24T08:19:04.999Z</time></trkpt><trkpt lat="-17.76202355602608" lon="122.90090684579225"><ele>43.5</ele><time>2026-04-24T08:19:05.999Z</time></trkpt><trkpt lat="-17.76195255230655" lon="122.9012014635114"><ele>44.0</ele><time>2026-04-24T08:19:06.999Z</time></trkpt><trkpt lat="-17.761883390954186" lon="122.90149457411998"><ele>44.0</ele><time>2026-04-24T08:19:07.999Z</time></trkpt><trkpt lat="-17.76181292869644" lon="122.90178713148826"><ele>44.0</ele><time>2026-04-24T08:19:08.999Z</time></trkpt><trkpt lat="-17.761743025782284" lon="122.90207756257061"><ele>44.0</ele><time>2026-04-24T08:19:09.999Z</time></trkpt><trkpt lat="-17.76167179626291" lon="122.90236693956619"><ele>44.0</ele><time>2026-04-24T08:19:10.999Z</time></trkpt><trkpt lat="-17.761600611609413" lon="122.90265580359714"><ele>44.0</ele><time>2026-04-24T08:19:11.999Z</time></trkpt><trkpt lat="-17.76152876053183" lon="122.9029463380313"><ele>44.0</ele><time>2026-04-24T08:19:12.999Z</time></trkpt><trkpt lat="-17.76145847425426" lon="122.90323903440238"><ele>44.0</ele><time>2026-04-24T08:19:13.999Z</time></trkpt><trkpt lat="-17.761386841422695" lon="122.90353264435802"><ele>44.0</ele><time>2026-04-24T08:19:14.999Z</time></trkpt><trkpt lat="-17.761314399033832" lon="122.90382559096884"><ele>44.0</ele><time>2026-04-24T08:19:15.999Z</time></trkpt><trkpt lat="-17.761242795934105" lon="122.90411830118867"><ele>44.0</ele><time>2026-04-24T08:19:16.999Z</time></trkpt><trkpt lat="-17.76117338746262" lon="122.90440636442499"><ele>43.5</ele><time>2026-04-24T08:19:17.999Z</time></trkpt><trkpt lat="-17.761104796373935" lon="122.9046991637211"><ele>43.0</ele><time>2026-04-24T08:19:18.999Z</time></trkpt><trkpt lat="-17.76103591952201" lon="122.90498942152"><ele>43.5</ele><time>2026-04-24T08:19:19.999Z</time></trkpt><trkpt lat="-17.760963474647028" lon="122.9052802905072"><ele>44.0</ele><time>2026-04-24T08:19:20.999Z</time></trkpt><trkpt lat="-17.76089091005946" lon="122.905571645971"><ele>44.0</ele><time>2026-04-24T08:19:21.999Z</time></trkpt><trkpt lat="-17.760817902641342" lon="122.90586262910709"><ele>44.0</ele><time>2026-04-24T08:19:22.999Z</time></trkpt><trkpt lat="-17.760746127364786" lon="122.90615544027953"><ele>44.5</ele><time>2026-04-24T08:19:23.999Z</time></trkpt><trkpt lat="-17.76067411026219" lon="122.9064505682557"><ele>45.0</ele><time>2026-04-24T08:19:24.999Z</time></trkpt><trkpt lat="-17.760603004462897" lon="122.90674603222708"><ele>45.5</ele><time>2026-04-24T08:19:25.999Z</time></trkpt><trkpt lat="-17.760530719154364" lon="122.90703920477502"><ele>46.0</ele><time>2026-04-24T08:19:26.999Z</time></trkpt><trkpt lat="-17.760458941919275" lon="122.90732848502938"><ele>45.5</ele><time>2026-04-24T08:19:27.999Z</time></trkpt><trkpt lat="-17.76038705365965" lon="122.90761351618414"><ele>45.0</ele><time>2026-04-24T08:19:28.999Z</time></trkpt><trkpt lat="-17.76031486880334" lon="122.90789830591402"><ele>45.0</ele><time>2026-04-24T08:19:29.999Z</time></trkpt><trkpt lat="-17.760245169945104" lon="122.90818656303927"><ele>45.0</ele><time>2026-04-24T08:19:30.999Z</time></trkpt><trkpt lat="-17.76017632286395" lon="122.9084744691764"><ele>45.5</ele><time>2026-04-24T08:19:31.999Z</time></trkpt><trkpt lat="-17.76011072413669" lon="122.90876230477386"><ele>46.0</ele><time>2026-04-24T08:19:32.999Z</time></trkpt><trkpt lat="-17.760043499545894" lon="122.9090506024426"><ele>46.5</ele><time>2026-04-24T08:19:33.999Z</time></trkpt><trkpt lat="-17.759972632781288" lon="122.90934148407972"><ele>47.0</ele><time>2026-04-24T08:19:34.999Z</time></trkpt><trkpt lat="-17.75990250329852" lon="122.90963266614281"><ele>47.0</ele><time>2026-04-24T08:19:35.999Z</time></trkpt><trkpt lat="-17.759831480627874" lon="122.90992272851739"><ele>47.0</ele><time>2026-04-24T08:19:36.999Z</time></trkpt><trkpt lat="-17.759759276796967" lon="122.91021635155803"><ele>46.5</ele><time>2026-04-24T08:19:37.999Z</time></trkpt><trkpt lat="-17.75968802004871" lon="122.91050593596864"><ele>46.0</ele><time>2026-04-24T08:19:38.999Z</time></trkpt><trkpt lat="-17.759617907351107" lon="122.91079871335802"><ele>46.0</ele><time>2026-04-24T08:19:39.999Z</time></trkpt><trkpt lat="-17.759546392466255" lon="122.91109117892626"><ele>46.0</ele><time>2026-04-24T08:19:40.999Z</time></trkpt><trkpt lat="-17.75947403973376" lon="122.91137863407033"><ele>46.0</ele><time>2026-04-24T08:19:41.999Z</time></trkpt><trkpt lat="-17.75940188085006" lon="122.9116703361188"><ele>46.0</ele><time>2026-04-24T08:19:42.999Z</time></trkpt><trkpt lat="-17.75933060296584" lon="122.91196286311202"><ele>46.5</ele><time>2026-04-24T08:19:43.999Z</time></trkpt><trkpt lat="-17.759261962465327" lon="122.91225476662746"><ele>47.0</ele><time>2026-04-24T08:19:44.999Z</time></trkpt><trkpt lat="-17.759190677125524" lon="122.91254650333497"><ele>46.5</ele><time>2026-04-24T08:19:45.999Z</time></trkpt><trkpt lat="-17.759118094223393" lon="122.91284355420899"><ele>46.0</ele><time>2026-04-24T08:19:46.999Z</time></trkpt><trkpt lat="-17.759047168478904" lon="122.91313965153442"><ele>46.5</ele><time>2026-04-24T08:19:47.999Z</time></trkpt><trkpt lat="-17.758975637823088" lon="122.91343622000022"><ele>47.0</ele><time>2026-04-24T08:19:48.999Z</time></trkpt><trkpt lat="-17.758903418922067" lon="122.91373268280658"><ele>47.0</ele><time>2026-04-24T08:19:49.999Z</time></trkpt><trkpt lat="-17.758832425769636" lon="122.91402803586054"><ele>47.0</ele><time>2026-04-24T08:19:51Z</time></trkpt><trkpt lat="-17.75876146999452" lon="122.91432121468856"><ele>47.5</ele><time>2026-04-24T08:19:52Z</time></trkpt><trkpt lat="-17.758689260965667" lon="122.91461530941484"><ele>48.0</ele><time>2026-04-24T08:19:53Z</time></trkpt><trkpt lat="-17.758615302531382" lon="122.91490937183046"><ele>48.0</ele><time>2026-04-24T08:19:54Z</time></trkpt><trkpt lat="-17.758543030765527" lon="122.91520516931233"><ele>48.0</ele><time>2026-04-24T08:19:55Z</time></trkpt><trkpt lat="-17.75846986292947" lon="122.9155070595706"><ele>48.5</ele><time>2026-04-24T08:19:56Z</time></trkpt><trkpt lat="-17.758395913054425" lon="122.91581192046303"><ele>49.0</ele><time>2026-04-24T08:19:57Z</time></trkpt><trkpt lat="-17.75832168996715" lon="122.91611575725824"><ele>49.5</ele><time>2026-04-24T08:19:58Z</time></trkpt><trkpt lat="-17.758248149142947" lon="122.91642060878785"><ele>50.0</ele><time>2026-04-24T08:19:59Z</time></trkpt><trkpt lat="-17.758171571935623" lon="122.9167264651727"><ele>50.0</ele><time>2026-04-24T08:20:00Z</time></trkpt><trkpt lat="-17.758096002733144" lon="122.91703338481301"><ele>50.0</ele><time>2026-04-24T08:20:01Z</time></trkpt><trkpt lat="-17.75801987217366" lon="122.91734060956377"><ele>50.0</ele><time>2026-04-24T08:20:02Z</time></trkpt><trkpt lat="-17.757943587670045" lon="122.91764732181714"><ele>50.0</ele><time>2026-04-24T08:20:03Z</time></trkpt><trkpt lat="-17.75786932861753" lon="122.91795184231592"><ele>50.0</ele><time>2026-04-24T08:20:04Z</time></trkpt><trkpt lat="-17.757797986545373" lon="122.91825331765446"><ele>50.0</ele><time>2026-04-24T08:20:05Z</time></trkpt><trkpt lat="-17.757727816963087" lon="122.91855212450797"><ele>49.0</ele><time>2026-04-24T08:20:06Z</time></trkpt><trkpt lat="-17.757655893569176" lon="122.91884800101758"><ele>48.0</ele><time>2026-04-24T08:20:07Z</time></trkpt><trkpt lat="-17.757586037841865" lon="122.91914089126091"><ele>48.0</ele><time>2026-04-24T08:20:08Z</time></trkpt><trkpt lat="-17.757514110571098" lon="122.91942713660974"><ele>48.0</ele><time>2026-04-24T08:20:09Z</time></trkpt><trkpt lat="-17.75744590809465" lon="122.9196984829405"><ele>48.0</ele><time>2026-04-24T08:20:10Z</time></trkpt><trkpt lat="-17.757378790989716" lon="122.91997394744038"><ele>48.0</ele><time>2026-04-24T08:20:11Z</time></trkpt><trkpt lat="-17.7573114783729" lon="122.92025679765172"><ele>48.0</ele><time>2026-04-24T08:20:12Z</time></trkpt><trkpt lat="-17.757244153960887" lon="122.920541082291"><ele>48.0</ele><time>2026-04-24T08:20:13Z</time></trkpt><trkpt lat="-17.75717513224262" lon="122.9208272874206"><ele>48.5</ele><time>2026-04-24T08:20:14Z</time></trkpt><trkpt lat="-17.75710628981399" lon="122.92111264215886"><ele>49.0</ele><time>2026-04-24T08:20:15Z</time></trkpt><trkpt lat="-17.7570357364901" lon="122.92139947252794"><ele>49.0</ele><time>2026-04-24T08:20:16Z</time></trkpt><trkpt lat="-17.756964988127624" lon="122.9216891551158"><ele>49.0</ele><time>2026-04-24T08:20:17Z</time></trkpt><trkpt lat="-17.756894313368687" lon="122.92197761358719"><ele>49.0</ele><time>2026-04-24T08:20:18Z</time></trkpt><trkpt lat="-17.756823764547924" lon="122.92226658084392"><ele>49.0</ele><time>2026-04-24T08:20:19Z</time></trkpt><trkpt lat="-17.756754327542748" lon="122.92255405491079"><ele>48.5</ele><time>2026-04-24T08:20:20Z</time></trkpt><trkpt lat="-17.756684071478087" lon="122.92283959650634"><ele>48.0</ele><time>2026-04-24T08:20:21Z</time></trkpt><trkpt lat="-17.75661172451539" lon="122.92312594543161"><ele>48.5</ele><time>2026-04-24T08:20:22Z</time></trkpt><trkpt lat="-17.75654086963256" lon="122.923410867799"><ele>49.0</ele><time>2026-04-24T08:20:23Z</time></trkpt><trkpt lat="-17.756470742868387" lon="122.92370009226417"><ele>49.0</ele><time>2026-04-24T08:20:24Z</time></trkpt><trkpt lat="-17.756401406231547" lon="122.92398827913983"><ele>49.0</ele><time>2026-04-24T08:20:25Z</time></trkpt><trkpt lat="-17.75633090729427" lon="122.92428115257171"><ele>50.5</ele><time>2026-04-24T08:20:26Z</time></trkpt><trkpt lat="-17.75625951997791" lon="122.9245719121621"><ele>52.0</ele><time>2026-04-24T08:20:27Z</time></trkpt><trkpt lat="-17.7561871063295" lon="122.92486102842395"><ele>52.0</ele><time>2026-04-24T08:20:28Z</time></trkpt><trkpt lat="-17.756111657274523" lon="122.92514562539596"><ele>52.0</ele><time>2026-04-24T08:20:29Z</time></trkpt><trkpt lat="-17.756029897682502" lon="122.92542968508084"><ele>51.5</ele><time>2026-04-24T08:20:30Z</time></trkpt><trkpt lat="-17.755939339184188" lon="122.92570763727029"><ele>51.0</ele><time>2026-04-24T08:20:31Z</time></trkpt><trkpt lat="-17.755838994164925" lon="122.92598369074405"><ele>50.5</ele><time>2026-04-24T08:20:32Z</time></trkpt><trkpt lat="-17.75573010526917" lon="122.92625926135354"><ele>50.0</ele><time>2026-04-24T08:20:33Z</time></trkpt><trkpt lat="-17.755613116983817" lon="122.92653175309104"><ele>52.0</ele><time>2026-04-24T08:20:34Z</time></trkpt><trkpt lat="-17.755487234854623" lon="122.92680496286415"><ele>54.0</ele><time>2026-04-24T08:20:35Z</time></trkpt><trkpt lat="-17.7553583667816" lon="122.9270773444169"><ele>54.0</ele><time>2026-04-24T08:20:36Z</time></trkpt><trkpt lat="-17.755225315462187" lon="122.9273483275248"><ele>54.0</ele><time>2026-04-24T08:20:37Z</time></trkpt><trkpt lat="-17.755093360765986" lon="122.92761499830576"><ele>53.5</ele><time>2026-04-24T08:20:38Z</time></trkpt><trkpt lat="-17.754961895141882" lon="122.9278820048231"><ele>53.0</ele><time>2026-04-24T08:20:38.999Z</time></trkpt><trkpt lat="-17.754832574662597" lon="122.92815026984772"><ele>53.0</ele><time>2026-04-24T08:20:39.999Z</time></trkpt><trkpt lat="-17.754702324180567" lon="122.9284193468146"><ele>53.0</ele><time>2026-04-24T08:20:40.999Z</time></trkpt><trkpt lat="-17.754572211096367" lon="122.92869163759046"><ele>53.0</ele><time>2026-04-24T08:20:41.999Z</time></trkpt><trkpt lat="-17.75444305025031" lon="122.92896332739315"><ele>53.0</ele><time>2026-04-24T08:20:42.999Z</time></trkpt><trkpt lat="-17.754315499911147" lon="122.9292349950928"><ele>53.0</ele><time>2026-04-24T08:20:43.999Z</time></trkpt><trkpt lat="-17.754190308271692" lon="122.92950573557049"><ele>53.0</ele><time>2026-04-24T08:20:44.999Z</time></trkpt><trkpt lat="-17.75406270742602" lon="122.92977211385076"><ele>53.0</ele><time>2026-04-24T08:20:45.999Z</time></trkpt><trkpt lat="-17.75393325296358" lon="122.93003985341979"><ele>53.0</ele><time>2026-04-24T08:20:46.999Z</time></trkpt><trkpt lat="-17.753805064971253" lon="122.93030479994036"><ele>53.0</ele><time>2026-04-24T08:20:47.999Z</time></trkpt><trkpt lat="-17.753675403329307" lon="122.93056652653891"><ele>53.0</ele><time>2026-04-24T08:20:48.999Z</time></trkpt><trkpt lat="-17.7535460136549" lon="122.93082677854909"><ele>53.5</ele><time>2026-04-24T08:20:49.999Z</time></trkpt><trkpt lat="-17.753420152797975" lon="122.93108642553797"><ele>54.0</ele><time>2026-04-24T08:20:50.999Z</time></trkpt><trkpt lat="-17.753298800237314" lon="122.93134320717185"><ele>54.0</ele><time>2026-04-24T08:20:51.999Z</time></trkpt><trkpt lat="-17.75317589935121" lon="122.93160147215511"><ele>54.0</ele><time>2026-04-24T08:20:52.999Z</time></trkpt><trkpt lat="-17.753049862646222" lon="122.93185978207487"><ele>53.5</ele><time>2026-04-24T08:20:53.999Z</time></trkpt><trkpt lat="-17.75292258599568" lon="122.93212079550183"><ele>53.0</ele><time>2026-04-24T08:20:54.999Z</time></trkpt><trkpt lat="-17.752794572277356" lon="122.9323859909914"><ele>53.0</ele><time>2026-04-24T08:20:55.999Z</time></trkpt><trkpt lat="-17.75266706841998" lon="122.93265432076947"><ele>53.0</ele><time>2026-04-24T08:20:56.999Z</time></trkpt><trkpt lat="-17.752537179382433" lon="122.9329245384737"><ele>53.0</ele><time>2026-04-24T08:20:57.999Z</time></trkpt><trkpt lat="-17.75240851522436" lon="122.93319220383235"><ele>53.0</ele><time>2026-04-24T08:20:58.999Z</time></trkpt><trkpt lat="-17.752279193203666" lon="122.9334632257207"><ele>53.0</ele><time>2026-04-24T08:20:59.999Z</time></trkpt><trkpt lat="-17.752150397718243" lon="122.93373094390424"><ele>53.0</ele><time>2026-04-24T08:21:00.999Z</time></trkpt><trkpt lat="-17.752022278727054" lon="122.93399620894591"><ele>53.5</ele><time>2026-04-24T08:21:01.999Z</time></trkpt><trkpt lat="-17.751893633657467" lon="122.93426332080718"><ele>54.0</ele><time>2026-04-24T08:21:02.999Z</time></trkpt><trkpt lat="-17.75176510671779" lon="122.93453089768765"><ele>54.0</ele><time>2026-04-24T08:21:03.999Z</time></trkpt><trkpt lat="-17.75163948908283" lon="122.93479550453853"><ele>54.0</ele><time>2026-04-24T08:21:05Z</time></trkpt><trkpt lat="-17.75151348022281" lon="122.93505829530689"><ele>54.0</ele><time>2026-04-24T08:21:06Z</time></trkpt><trkpt lat="-17.751385440855458" lon="122.93532236986438"><ele>54.0</ele><time>2026-04-24T08:21:07Z</time></trkpt><trkpt lat="-17.751259705450035" lon="122.93558245164935"><ele>54.0</ele><time>2026-04-24T08:21:08Z</time></trkpt><trkpt lat="-17.75113099072097" lon="122.93584467629968"><ele>54.0</ele><time>2026-04-24T08:21:09Z</time></trkpt><trkpt lat="-17.751004726959973" lon="122.93610585430322"><ele>53.5</ele><time>2026-04-24T08:21:10Z</time></trkpt><trkpt lat="-17.750878713336977" lon="122.93636770544293"><ele>53.0</ele><time>2026-04-24T08:21:11Z</time></trkpt><trkpt lat="-17.750752706691124" lon="122.93663061166613"><ele>53.5</ele><time>2026-04-24T08:21:12Z</time></trkpt><trkpt lat="-17.750625633470165" lon="122.93689323298096"><ele>54.0</ele><time>2026-04-24T08:21:13Z</time></trkpt><trkpt lat="-17.750499636893174" lon="122.9371564976334"><ele>54.0</ele><time>2026-04-24T08:21:14Z</time></trkpt><trkpt lat="-17.750373469811414" lon="122.93742248295898"><ele>54.0</ele><time>2026-04-24T08:21:15Z</time></trkpt><trkpt lat="-17.750246377585302" lon="122.93768895901398"><ele>54.5</ele><time>2026-04-24T08:21:16Z</time></trkpt><trkpt lat="-17.750122327278092" lon="122.93795527465417"><ele>55.0</ele><time>2026-04-24T08:21:17Z</time></trkpt><trkpt lat="-17.749994767021224" lon="122.93822224868379"><ele>55.0</ele><time>2026-04-24T08:21:18Z</time></trkpt><trkpt lat="-17.7498670445783" lon="122.93848989730597"><ele>55.0</ele><time>2026-04-24T08:21:19Z</time></trkpt><trkpt lat="-17.7497369920321" lon="122.9387599176347"><ele>55.0</ele><time>2026-04-24T08:21:20Z</time></trkpt><trkpt lat="-17.749607398377467" lon="122.93903134659898"><ele>55.0</ele><time>2026-04-24T08:21:21Z</time></trkpt><trkpt lat="-17.749475435396928" lon="122.93930321800586"><ele>56.0</ele><time>2026-04-24T08:21:22Z</time></trkpt><trkpt lat="-17.74934336336946" lon="122.93957635788745"><ele>57.0</ele><time>2026-04-24T08:21:23Z</time></trkpt><trkpt lat="-17.749213226188274" lon="122.93984677739485"><ele>56.5</ele><time>2026-04-24T08:21:24Z</time></trkpt><trkpt lat="-17.74908088354901" lon="122.94011855140714"><ele>56.0</ele><time>2026-04-24T08:21:25Z</time></trkpt><trkpt lat="-17.748947192657436" lon="122.94039244139874"><ele>56.0</ele><time>2026-04-24T08:21:26Z</time></trkpt><trkpt lat="-17.748813220446827" lon="122.94067303603055"><ele>56.0</ele><time>2026-04-24T08:21:27Z</time></trkpt><trkpt lat="-17.748679937465397" lon="122.94095217291918"><ele>56.0</ele><time>2026-04-24T08:21:28Z</time></trkpt><trkpt lat="-17.748546545619114" lon="122.9412311659974"><ele>56.0</ele><time>2026-04-24T08:21:29Z</time></trkpt><trkpt lat="-17.74841716198593" lon="122.94150245117768"><ele>56.5</ele><time>2026-04-24T08:21:30Z</time></trkpt><trkpt lat="-17.748287529325253" lon="122.941774320668"><ele>57.0</ele><time>2026-04-24T08:21:31Z</time></trkpt><trkpt lat="-17.748160297807743" lon="122.94204069999603"><ele>57.0</ele><time>2026-04-24T08:21:32Z</time></trkpt><trkpt lat="-17.748034925729655" lon="122.94230704449281"><ele>57.0</ele><time>2026-04-24T08:21:33Z</time></trkpt><trkpt lat="-17.747908136325687" lon="122.94257565604705"><ele>57.5</ele><time>2026-04-24T08:21:34Z</time></trkpt><trkpt lat="-17.747781411038698" lon="122.94284324085694"><ele>58.0</ele><time>2026-04-24T08:21:35Z</time></trkpt><trkpt lat="-17.747653706615864" lon="122.94311133736062"><ele>58.0</ele><time>2026-04-24T08:21:36Z</time></trkpt><trkpt lat="-17.74752420226484" lon="122.94338038543543"><ele>58.0</ele><time>2026-04-24T08:21:37Z</time></trkpt><trkpt lat="-17.747393625124104" lon="122.94364772723327"><ele>58.5</ele><time>2026-04-24T08:21:38Z</time></trkpt><trkpt lat="-17.747262849421826" lon="122.94391420940046"><ele>59.0</ele><time>2026-04-24T08:21:39Z</time></trkpt><trkpt lat="-17.747135879394527" lon="122.94417613418408"><ele>59.0</ele><time>2026-04-24T08:21:40Z</time></trkpt><trkpt lat="-17.747007257346386" lon="122.94444245779354"><ele>59.0</ele><time>2026-04-24T08:21:41Z</time></trkpt><trkpt lat="-17.746879630439434" lon="122.94470625931594"><ele>59.0</ele><time>2026-04-24T08:21:42Z</time></trkpt><trkpt lat="-17.746746959605712" lon="122.94497458109154"><ele>59.0</ele><time>2026-04-24T08:21:43Z</time></trkpt><trkpt lat="-17.746622025790046" lon="122.94523524595567"><ele>59.0</ele><time>2026-04-24T08:21:44Z</time></trkpt><trkpt lat="-17.746496101584814" lon="122.94550054851986"><ele>59.0</ele><time>2026-04-24T08:21:45Z</time></trkpt><trkpt lat="-17.746369883301934" lon="122.94577104068533"><ele>59.0</ele><time>2026-04-24T08:21:46Z</time></trkpt><trkpt lat="-17.746244707444777" lon="122.94603698494635"><ele>59.0</ele><time>2026-04-24T08:21:47Z</time></trkpt><trkpt lat="-17.74611513202461" lon="122.94630430846156"><ele>59.5</ele><time>2026-04-24T08:21:48Z</time></trkpt><trkpt lat="-17.745986804676576" lon="122.94657138133635"><ele>60.0</ele><time>2026-04-24T08:21:49Z</time></trkpt><trkpt lat="-17.745858966949275" lon="122.94683862197098"><ele>60.0</ele><time>2026-04-24T08:21:50Z</time></trkpt><trkpt lat="-17.745729721979124" lon="122.94710814330931"><ele>60.0</ele><time>2026-04-24T08:21:51Z</time></trkpt><trkpt lat="-17.74559911166799" lon="122.94738004043667"><ele>61.0</ele><time>2026-04-24T08:21:52Z</time></trkpt><trkpt lat="-17.745465482720235" lon="122.94765316409789"><ele>62.0</ele><time>2026-04-24T08:21:53Z</time></trkpt><trkpt lat="-17.745333396058903" lon="122.94792568954121"><ele>61.5</ele><time>2026-04-24T08:21:54Z</time></trkpt><trkpt lat="-17.745200059210276" lon="122.9481995347023"><ele>61.0</ele><time>2026-04-24T08:21:55Z</time></trkpt><trkpt lat="-17.745068424167748" lon="122.94847517096602"><ele>62.0</ele><time>2026-04-24T08:21:56Z</time></trkpt><trkpt lat="-17.744936169914563" lon="122.94875265591939"><ele>63.0</ele><time>2026-04-24T08:21:57Z</time></trkpt><trkpt lat="-17.744803044104295" lon="122.94903155541807"><ele>63.5</ele><time>2026-04-24T08:21:58Z</time></trkpt><trkpt lat="-17.744669261352925" lon="122.94930720158806"><ele>64.0</ele><time>2026-04-24T08:21:59Z</time></trkpt><trkpt lat="-17.744534575317935" lon="122.9495813499555"><ele>64.0</ele><time>2026-04-24T08:22:00Z</time></trkpt><trkpt lat="-17.74440208778068" lon="122.94985477111864"><ele>64.0</ele><time>2026-04-24T08:22:01Z</time></trkpt><trkpt lat="-17.74427124184264" lon="122.95012967023932"><ele>64.5</ele><time>2026-04-24T08:22:02Z</time></trkpt><trkpt lat="-17.74413777348784" lon="122.95040570069992"><ele>65.0</ele><time>2026-04-24T08:22:03Z</time></trkpt><trkpt lat="-17.74400584564485" lon="122.95068393665143"><ele>65.0</ele><time>2026-04-24T08:22:04Z</time></trkpt><trkpt lat="-17.74387311078187" lon="122.95096399753467"><ele>65.0</ele><time>2026-04-24T08:22:05Z</time></trkpt><trkpt lat="-17.743741410208134" lon="122.95124320899792"><ele>65.0</ele><time>2026-04-24T08:22:06Z</time></trkpt><trkpt lat="-17.74360888102816" lon="122.9515227009251"><ele>65.0</ele><time>2026-04-24T08:22:07Z</time></trkpt><trkpt lat="-17.74347472180025" lon="122.95179912123987"><ele>65.0</ele><time>2026-04-24T08:22:08Z</time></trkpt><trkpt lat="-17.743342833298282" lon="122.95207301765352"><ele>65.0</ele><time>2026-04-24T08:22:09Z</time></trkpt><trkpt lat="-17.743210774115514" lon="122.95234890730669"><ele>66.0</ele><time>2026-04-24T08:22:10Z</time></trkpt><trkpt lat="-17.74307683658726" lon="122.95262414859509"><ele>67.0</ele><time>2026-04-24T08:22:11Z</time></trkpt><trkpt lat="-17.74294446712368" lon="122.95290006718818"><ele>67.0</ele><time>2026-04-24T08:22:12Z</time></trkpt><trkpt lat="-17.742812767198693" lon="122.95317477387658"><ele>67.0</ele><time>2026-04-24T08:22:13Z</time></trkpt><trkpt lat="-17.742681137525896" lon="122.95344812594865"><ele>67.0</ele><time>2026-04-24T08:22:14Z</time></trkpt><trkpt lat="-17.74255210899803" lon="122.95371845432855"><ele>67.0</ele><time>2026-04-24T08:22:15Z</time></trkpt><trkpt lat="-17.742423719259914" lon="122.95399111589717"><ele>67.5</ele><time>2026-04-24T08:22:16Z</time></trkpt><trkpt lat="-17.74229315801876" lon="122.95426555839111"><ele>68.0</ele><time>2026-04-24T08:22:17Z</time></trkpt><trkpt lat="-17.742165632528945" lon="122.95453673973981"><ele>68.0</ele><time>2026-04-24T08:22:18Z</time></trkpt><trkpt lat="-17.742035431546455" lon="122.95480669864796"><ele>68.0</ele><time>2026-04-24T08:22:19Z</time></trkpt><trkpt lat="-17.741906071044994" lon="122.95507555637082"><ele>69.0</ele><time>2026-04-24T08:22:20Z</time></trkpt><trkpt lat="-17.741772660671195" lon="122.95534780094154"><ele>70.0</ele><time>2026-04-24T08:22:21Z</time></trkpt><trkpt lat="-17.74164190334099" lon="122.95561719339017"><ele>70.0</ele><time>2026-04-24T08:22:22Z</time></trkpt><trkpt lat="-17.741509259449007" lon="122.95588811501648"><ele>70.0</ele><time>2026-04-24T08:22:23Z</time></trkpt><trkpt lat="-17.741380119493236" lon="122.9561585764184"><ele>70.0</ele><time>2026-04-24T08:22:24Z</time></trkpt><trkpt lat="-17.74124659992641" lon="122.95643186960346"><ele>70.0</ele><time>2026-04-24T08:22:25Z</time></trkpt><trkpt lat="-17.74111619249313" lon="122.95670462299373"><ele>70.5</ele><time>2026-04-24T08:22:26Z</time></trkpt><trkpt lat="-17.74098403497639" lon="122.95698106088241"><ele>71.0</ele><time>2026-04-24T08:22:27Z</time></trkpt><trkpt lat="-17.740850266568152" lon="122.9572568700915"><ele>71.0</ele><time>2026-04-24T08:22:28.001Z</time></trkpt><trkpt lat="-17.74071748207421" lon="122.95753066575428"><ele>71.0</ele><time>2026-04-24T08:22:29.001Z</time></trkpt><trkpt lat="-17.740587254257573" lon="122.95780490715437"><ele>72.0</ele><time>2026-04-24T08:22:30.001Z</time></trkpt><trkpt lat="-17.7404598970683" lon="122.95808075998731"><ele>73.0</ele><time>2026-04-24T08:22:31.001Z</time></trkpt><trkpt lat="-17.740327538156194" lon="122.95835512089758"><ele>73.5</ele><time>2026-04-24T08:22:32.001Z</time></trkpt><trkpt lat="-17.74019607575012" lon="122.95862948653249"><ele>74.0</ele><time>2026-04-24T08:22:33.001Z</time></trkpt><trkpt lat="-17.74006700662876" lon="122.95889852381693"><ele>74.0</ele><time>2026-04-24T08:22:34.001Z</time></trkpt><trkpt lat="-17.73993537403612" lon="122.9591715904568"><ele>74.0</ele><time>2026-04-24T08:22:35.001Z</time></trkpt><trkpt lat="-17.73980585618793" lon="122.95944190327256"><ele>73.5</ele><time>2026-04-24T08:22:36.001Z</time></trkpt><trkpt lat="-17.7396750312874" lon="122.95971369875025"><ele>73.0</ele><time>2026-04-24T08:22:37.001Z</time></trkpt><trkpt lat="-17.73954435065466" lon="122.95998770564863"><ele>74.0</ele><time>2026-04-24T08:22:38.001Z</time></trkpt><trkpt lat="-17.739414029333215" lon="122.96026192785475"><ele>75.0</ele><time>2026-04-24T08:22:39.001Z</time></trkpt><trkpt lat="-17.739282381613354" lon="122.96053648929612"><ele>75.0</ele><time>2026-04-24T08:22:40.001Z</time></trkpt><trkpt lat="-17.739148982749757" lon="122.96081101539825"><ele>75.0</ele><time>2026-04-24T08:22:41.001Z</time></trkpt><trkpt lat="-17.7390154427631" lon="122.96108707708467"><ele>75.5</ele><time>2026-04-24T08:22:42.001Z</time></trkpt><trkpt lat="-17.738881133979955" lon="122.96136473567455"><ele>76.0</ele><time>2026-04-24T08:22:43.001Z</time></trkpt><trkpt lat="-17.738747885838738" lon="122.96164292369897"><ele>76.0</ele><time>2026-04-24T08:22:44.001Z</time></trkpt><trkpt lat="-17.738613829629642" lon="122.96192336108562"><ele>76.0</ele><time>2026-04-24T08:22:45.001Z</time></trkpt><trkpt lat="-17.73848146967803" lon="122.9622030755523"><ele>76.0</ele><time>2026-04-24T08:22:46.001Z</time></trkpt><trkpt lat="-17.738348994032858" lon="122.96248534099787"><ele>76.0</ele><time>2026-04-24T08:22:47.001Z</time></trkpt><trkpt lat="-17.73821730938542" lon="122.96276461193618"><ele>76.5</ele><time>2026-04-24T08:22:48.001Z</time></trkpt><trkpt lat="-17.738085088576927" lon="122.9630383381975"><ele>77.0</ele><time>2026-04-24T08:22:49.001Z</time></trkpt><trkpt lat="-17.73795938343325" lon="122.96329312201865"><ele>77.0</ele><time>2026-04-24T08:22:50.001Z</time></trkpt><trkpt lat="-17.737834661393904" lon="122.96354934773332"><ele>77.0</ele><time>2026-04-24T08:22:51.001Z</time></trkpt><trkpt lat="-17.737704447835966" lon="122.96381491144906"><ele>77.0</ele><time>2026-04-24T08:22:52.001Z</time></trkpt><trkpt lat="-17.737573043927462" lon="122.96408481968739"><ele>77.0</ele><time>2026-04-24T08:22:53.001Z</time></trkpt><trkpt lat="-17.73744145888113" lon="122.96435661946599"><ele>77.5</ele><time>2026-04-24T08:22:54.001Z</time></trkpt><trkpt lat="-17.7373113495445" lon="122.96462958643757"><ele>78.0</ele><time>2026-04-24T08:22:55.001Z</time></trkpt><trkpt lat="-17.73718147286184" lon="122.96490645987029"><ele>78.5</ele><time>2026-04-24T08:22:56.001Z</time></trkpt><trkpt lat="-17.737049622898944" lon="122.96518581068754"><ele>79.0</ele><time>2026-04-24T08:22:57.001Z</time></trkpt><trkpt lat="-17.736916031721076" lon="122.96546451782014"><ele>79.0</ele><time>2026-04-24T08:22:58.001Z</time></trkpt><trkpt lat="-17.73678008785219" lon="122.96574579960397"><ele>79.0</ele><time>2026-04-24T08:22:59.001Z</time></trkpt><trkpt lat="-17.73664406988736" lon="122.96602813776249"><ele>79.0</ele><time>2026-04-24T08:23:00.001Z</time></trkpt><trkpt lat="-17.736508580840457" lon="122.96630863123188"><ele>79.0</ele><time>2026-04-24T08:23:01.001Z</time></trkpt><trkpt lat="-17.736373287995683" lon="122.9665883842122"><ele>80.0</ele><time>2026-04-24T08:23:02.001Z</time></trkpt><trkpt lat="-17.736237351234536" lon="122.96687362501073"><ele>81.0</ele><time>2026-04-24T08:23:03.001Z</time></trkpt><trkpt lat="-17.736102487601865" lon="122.9671564678825"><ele>80.5</ele><time>2026-04-24T08:23:04.001Z</time></trkpt><trkpt lat="-17.735969936390415" lon="122.96743893825196"><ele>80.0</ele><time>2026-04-24T08:23:05.001Z</time></trkpt><trkpt lat="-17.735833811914798" lon="122.96772467916368"><ele>80.0</ele><time>2026-04-24T08:23:06.001Z</time></trkpt><trkpt lat="-17.73569610601263" lon="122.96801072160672"><ele>80.0</ele><time>2026-04-24T08:23:07.001Z</time></trkpt><trkpt lat="-17.735557707284944" lon="122.96829663702007"><ele>80.5</ele><time>2026-04-24T08:23:08.001Z</time></trkpt><trkpt lat="-17.735418643655805" lon="122.9685843610603"><ele>81.0</ele><time>2026-04-24T08:23:09.001Z</time></trkpt><trkpt lat="-17.73527800039181" lon="122.96887362586432"><ele>81.5</ele><time>2026-04-24T08:23:10.001Z</time></trkpt><trkpt lat="-17.73513938669616" lon="122.96916358401211"><ele>82.0</ele><time>2026-04-24T08:23:11.001Z</time></trkpt><trkpt lat="-17.73500125546805" lon="122.96945244793773"><ele>82.5</ele><time>2026-04-24T08:23:12.001Z</time></trkpt><trkpt lat="-17.734861065603038" lon="122.9697427208158"><ele>83.0</ele><time>2026-04-24T08:23:13.001Z</time></trkpt><trkpt lat="-17.734722627459732" lon="122.97003332772485"><ele>82.0</ele><time>2026-04-24T08:23:14.001Z</time></trkpt><trkpt lat="-17.73458486631067" lon="122.97032073072867"><ele>81.0</ele><time>2026-04-24T08:23:15.001Z</time></trkpt><trkpt lat="-17.734446710498045" lon="122.97061009604933"><ele>82.5</ele><time>2026-04-24T08:23:16.001Z</time></trkpt><trkpt lat="-17.734309298865348" lon="122.97089986638353"><ele>84.0</ele><time>2026-04-24T08:23:17.001Z</time></trkpt><trkpt lat="-17.734171405418184" lon="122.97118999871094"><ele>84.0</ele><time>2026-04-24T08:23:18.001Z</time></trkpt><trkpt lat="-17.73403269152428" lon="122.97147844980488"><ele>84.0</ele><time>2026-04-24T08:23:19.001Z</time></trkpt><trkpt lat="-17.733891569781353" lon="122.97176847756812"><ele>83.5</ele><time>2026-04-24T08:23:20.001Z</time></trkpt><trkpt lat="-17.733751743937304" lon="122.97205736816966"><ele>83.0</ele><time>2026-04-24T08:23:21.001Z</time></trkpt><trkpt lat="-17.733612504140968" lon="122.97234400129054"><ele>83.0</ele><time>2026-04-24T08:23:22.001Z</time></trkpt><trkpt lat="-17.733471244688836" lon="122.97263456680521"><ele>83.0</ele><time>2026-04-24T08:23:23.001Z</time></trkpt><trkpt lat="-17.73333134345355" lon="122.97292500636169"><ele>83.0</ele><time>2026-04-24T08:23:24.001Z</time></trkpt><trkpt lat="-17.733193492392363" lon="122.97321455790376"><ele>83.0</ele><time>2026-04-24T08:23:25.001Z</time></trkpt><trkpt lat="-17.733053132888546" lon="122.97350770166062"><ele>83.5</ele><time>2026-04-24T08:23:26.001Z</time></trkpt><trkpt lat="-17.732914541456353" lon="122.97379740485336"><ele>84.0</ele><time>2026-04-24T08:23:27.001Z</time></trkpt><trkpt lat="-17.732775522212606" lon="122.97408665972831"><ele>84.0</ele><time>2026-04-24T08:23:28.001Z</time></trkpt><trkpt lat="-17.732636516820776" lon="122.97437518874445"><ele>84.0</ele><time>2026-04-24T08:23:29.001Z</time></trkpt><trkpt lat="-17.732498006648168" lon="122.97466120834255"><ele>84.0</ele><time>2026-04-24T08:23:30.001Z</time></trkpt><trkpt lat="-17.732360912022596" lon="122.97494403101535"><ele>84.0</ele><time>2026-04-24T08:23:31.001Z</time></trkpt><trkpt lat="-17.732225900530185" lon="122.97522659328249"><ele>83.5</ele><time>2026-04-24T08:23:32.001Z</time></trkpt><trkpt lat="-17.732092415820702" lon="122.9755100596591"><ele>83.0</ele><time>2026-04-24T08:23:33.001Z</time></trkpt><trkpt lat="-17.731957953301684" lon="122.97579297804114"><ele>83.0</ele><time>2026-04-24T08:23:34.001Z</time></trkpt><trkpt lat="-17.731820572408505" lon="122.9760794611244"><ele>83.0</ele><time>2026-04-24T08:23:35.001Z</time></trkpt><trkpt lat="-17.731680684009618" lon="122.97636775318888"><ele>83.0</ele><time>2026-04-24T08:23:36.001Z</time></trkpt><trkpt lat="-17.731541476858933" lon="122.97665559192154"><ele>83.0</ele><time>2026-04-24T08:23:37.001Z</time></trkpt><trkpt lat="-17.731400872155085" lon="122.97694422420912"><ele>83.0</ele><time>2026-04-24T08:23:38.001Z</time></trkpt><trkpt lat="-17.73125976835639" lon="122.97723296899397"><ele>83.0</ele><time>2026-04-24T08:23:39.001Z</time></trkpt><trkpt lat="-17.731122494069517" lon="122.97752364858411"><ele>82.0</ele><time>2026-04-24T08:23:40.001Z</time></trkpt><trkpt lat="-17.730983064520366" lon="122.97781673290058"><ele>81.0</ele><time>2026-04-24T08:23:41.001Z</time></trkpt><trkpt lat="-17.73084572925776" lon="122.97810624647215"><ele>81.5</ele><time>2026-04-24T08:23:42.001Z</time></trkpt><trkpt lat="-17.730705889898886" lon="122.97839808254662"><ele>82.0</ele><time>2026-04-24T08:23:43.001Z</time></trkpt><trkpt lat="-17.730567675963346" lon="122.97868794241852"><ele>82.0</ele><time>2026-04-24T08:23:44.001Z</time></trkpt><trkpt lat="-17.730429923488796" lon="122.97897718936227"><ele>82.0</ele><time>2026-04-24T08:23:45.001Z</time></trkpt><trkpt lat="-17.73029098061232" lon="122.97926661445582"><ele>81.0</ele><time>2026-04-24T08:23:46.001Z</time></trkpt><trkpt lat="-17.730152200487595" lon="122.97955652200496"><ele>80.0</ele><time>2026-04-24T08:23:47.001Z</time></trkpt><trkpt lat="-17.730015259262377" lon="122.97984413475865"><ele>80.5</ele><time>2026-04-24T08:23:48.001Z</time></trkpt><trkpt lat="-17.729877707838895" lon="122.98013270886847"><ele>81.0</ele><time>2026-04-24T08:23:49.001Z</time></trkpt><trkpt lat="-17.729740266007276" lon="122.98042199583004"><ele>81.0</ele><time>2026-04-24T08:23:50.001Z</time></trkpt><trkpt lat="-17.729600923159406" lon="122.9807084213375"><ele>81.0</ele><time>2026-04-24T08:23:51.001Z</time></trkpt><trkpt lat="-17.729462726151528" lon="122.98099286555332"><ele>80.5</ele><time>2026-04-24T08:23:52.001Z</time></trkpt><trkpt lat="-17.72932656695544" lon="122.98127687167614"><ele>80.0</ele><time>2026-04-24T08:23:53.001Z</time></trkpt><trkpt lat="-17.72918893778626" lon="122.9815603618086"><ele>79.5</ele><time>2026-04-24T08:23:54.001Z</time></trkpt><trkpt lat="-17.729052058243866" lon="122.98184606368056"><ele>79.0</ele><time>2026-04-24T08:23:55.001Z</time></trkpt><trkpt lat="-17.72891463955017" lon="122.98213146363072"><ele>79.0</ele><time>2026-04-24T08:23:56.001Z</time></trkpt><trkpt lat="-17.728777238208348" lon="122.98241689263727"><ele>79.0</ele><time>2026-04-24T08:23:57.001Z</time></trkpt><trkpt lat="-17.728640268110798" lon="122.98270529459528"><ele>79.5</ele><time>2026-04-24T08:23:58.001Z</time></trkpt><trkpt lat="-17.72850311384902" lon="122.98299393575465"><ele>80.0</ele><time>2026-04-24T08:23:59.001Z</time></trkpt><trkpt lat="-17.72836644131731" lon="122.98328241962392"><ele>80.0</ele><time>2026-04-24T08:24:00.001Z</time></trkpt><trkpt lat="-17.728231178981673" lon="122.98357370197414"><ele>80.0</ele><time>2026-04-24T08:24:01.001Z</time></trkpt><trkpt lat="-17.728094429787088" lon="122.98386507842973"><ele>80.0</ele><time>2026-04-24T08:24:02.001Z</time></trkpt><trkpt lat="-17.727954045902877" lon="122.98415575854341"><ele>80.0</ele><time>2026-04-24T08:24:03.001Z</time></trkpt><trkpt lat="-17.72781299841361" lon="122.98444688048016"><ele>79.5</ele><time>2026-04-24T08:24:04.001Z</time></trkpt><trkpt lat="-17.72767257029511" lon="122.9847381185883"><ele>79.0</ele><time>2026-04-24T08:24:05.001Z</time></trkpt><trkpt lat="-17.72753398820366" lon="122.98502592508162"><ele>78.5</ele><time>2026-04-24T08:24:06.001Z</time></trkpt><trkpt lat="-17.727394514872" lon="122.98531602072914"><ele>78.0</ele><time>2026-04-24T08:24:07.001Z</time></trkpt><trkpt lat="-17.727254814615144" lon="122.9856094692453"><ele>78.0</ele><time>2026-04-24T08:24:08.001Z</time></trkpt><trkpt lat="-17.727116681428125" lon="122.98589938398943"><ele>78.0</ele><time>2026-04-24T08:24:09.001Z</time></trkpt><trkpt lat="-17.726977140274776" lon="122.98618951728005"><ele>77.5</ele><time>2026-04-24T08:24:10.001Z</time></trkpt><trkpt lat="-17.72683540718029" lon="122.98648014781446"><ele>77.0</ele><time>2026-04-24T08:24:11.001Z</time></trkpt><trkpt lat="-17.72669602221879" lon="122.98676847402433"><ele>76.5</ele><time>2026-04-24T08:24:12.001Z</time></trkpt><trkpt lat="-17.726556105025274" lon="122.98706063831993"><ele>76.0</ele><time>2026-04-24T08:24:13.001Z</time></trkpt><trkpt lat="-17.726415067124275" lon="122.98734954746095"><ele>77.0</ele><time>2026-04-24T08:24:14.001Z</time></trkpt><trkpt lat="-17.726272927285052" lon="122.98763714105557"><ele>78.0</ele><time>2026-04-24T08:24:15.001Z</time></trkpt><trkpt lat="-17.72613295228813" lon="122.98792377936833"><ele>77.5</ele><time>2026-04-24T08:24:16.001Z</time></trkpt><trkpt lat="-17.725992965449972" lon="122.98821626605773"><ele>77.0</ele><time>2026-04-24T08:24:17.001Z</time></trkpt><trkpt lat="-17.72585774131548" lon="122.98850301839039"><ele>76.5</ele><time>2026-04-24T08:24:18.001Z</time></trkpt><trkpt lat="-17.725722767689042" lon="122.98878798767288"><ele>76.0</ele><time>2026-04-24T08:24:19.001Z</time></trkpt><trkpt lat="-17.72558824006071" lon="122.98907011108489"><ele>76.5</ele><time>2026-04-24T08:24:20.001Z</time></trkpt><trkpt lat="-17.725456145585806" lon="122.98935016992226"><ele>77.0</ele><time>2026-04-24T08:24:21.001Z</time></trkpt><trkpt lat="-17.725324527140227" lon="122.9896284130959"><ele>77.0</ele><time>2026-04-24T08:24:22.001Z</time></trkpt><trkpt lat="-17.725195117463834" lon="122.98990436608689"><ele>77.0</ele><time>2026-04-24T08:24:23.001Z</time></trkpt><trkpt lat="-17.72506336526782" lon="122.99018019201577"><ele>77.5</ele><time>2026-04-24T08:24:24.001Z</time></trkpt><trkpt lat="-17.72492958249393" lon="122.99045847872766"><ele>78.0</ele><time>2026-04-24T08:24:25.001Z</time></trkpt><trkpt lat="-17.72479424038544" lon="122.99073512063067"><ele>78.0</ele><time>2026-04-24T08:24:26.001Z</time></trkpt><trkpt lat="-17.724660900847322" lon="122.99100961124365"><ele>78.0</ele><time>2026-04-24T08:24:27.001Z</time></trkpt><trkpt lat="-17.72453088113253" lon="122.99128750654506"><ele>78.0</ele><time>2026-04-24T08:24:28.001Z</time></trkpt><trkpt lat="-17.724401092984735" lon="122.99156654178442"><ele>78.0</ele><time>2026-04-24T08:24:29.001Z</time></trkpt><trkpt lat="-17.724268315275125" lon="122.99184474304421"><ele>77.5</ele><time>2026-04-24T08:24:30.001Z</time></trkpt><trkpt lat="-17.724132119587896" lon="122.99212091602814"><ele>77.0</ele><time>2026-04-24T08:24:31.001Z</time></trkpt><trkpt lat="-17.723996773903792" lon="122.99239754348066"><ele>77.0</ele><time>2026-04-24T08:24:32.001Z</time></trkpt><trkpt lat="-17.723860931445483" lon="122.9926748998994"><ele>77.0</ele><time>2026-04-24T08:24:33.001Z</time></trkpt><trkpt lat="-17.723728637743204" lon="122.99295315808455"><ele>77.0</ele><time>2026-04-24T08:24:34.001Z</time></trkpt><trkpt lat="-17.72359444945648" lon="122.99323303101399"><ele>77.0</ele><time>2026-04-24T08:24:35.001Z</time></trkpt><trkpt lat="-17.723460347896868" lon="122.99351433602465"><ele>77.5</ele><time>2026-04-24T08:24:36.001Z</time></trkpt><trkpt lat="-17.723324113435403" lon="122.9937972878365"><ele>78.0</ele><time>2026-04-24T08:24:37.001Z</time></trkpt><trkpt lat="-17.723189816596243" lon="122.99408139753767"><ele>79.0</ele><time>2026-04-24T08:24:38.001Z</time></trkpt><trkpt lat="-17.72305533854956" lon="122.99436519436733"><ele>80.0</ele><time>2026-04-24T08:24:39.001Z</time></trkpt><trkpt lat="-17.722920798669474" lon="122.99464802733337"><ele>80.0</ele><time>2026-04-24T08:24:40.001Z</time></trkpt><trkpt lat="-17.72278586596476" lon="122.99492768578244"><ele>80.0</ele><time>2026-04-24T08:24:41.001Z</time></trkpt><trkpt lat="-17.722648816216246" lon="122.99520922918596"><ele>80.0</ele><time>2026-04-24T08:24:42.001Z</time></trkpt><trkpt lat="-17.722514792053676" lon="122.9954887350853"><ele>80.0</ele><time>2026-04-24T08:24:43.001Z</time></trkpt><trkpt lat="-17.722380940384213" lon="122.99576752792036"><ele>80.5</ele><time>2026-04-24T08:24:44.001Z</time></trkpt><trkpt lat="-17.722247976976735" lon="122.99604827864336"><ele>81.0</ele><time>2026-04-24T08:24:45.001Z</time></trkpt><trkpt lat="-17.72211495020859" lon="122.99632606541077"><ele>81.0</ele><time>2026-04-24T08:24:46.001Z</time></trkpt><trkpt lat="-17.721979647567764" lon="122.99660536402844"><ele>81.0</ele><time>2026-04-24T08:24:47.001Z</time></trkpt><trkpt lat="-17.721845446437563" lon="122.99688478883334"><ele>81.0</ele><time>2026-04-24T08:24:48.001Z</time></trkpt><trkpt lat="-17.721713250007156" lon="122.99716554521463"><ele>81.0</ele><time>2026-04-24T08:24:49.001Z</time></trkpt><trkpt lat="-17.721580609171685" lon="122.99744553507823"><ele>80.5</ele><time>2026-04-24T08:24:50.001Z</time></trkpt><trkpt lat="-17.721446129493785" lon="122.99772651579808"><ele>80.0</ele><time>2026-04-24T08:24:51.001Z</time></trkpt><trkpt lat="-17.721309662434912" lon="122.99800379516265"><ele>80.0</ele><time>2026-04-24T08:24:52.001Z</time></trkpt><trkpt lat="-17.72117205740723" lon="122.99828422528407"><ele>80.0</ele><time>2026-04-24T08:24:53.001Z</time></trkpt><trkpt lat="-17.721035823496297" lon="122.99856703784205"><ele>80.5</ele><time>2026-04-24T08:24:54.001Z</time></trkpt><trkpt lat="-17.720899655778993" lon="122.99884940854302"><ele>81.0</ele><time>2026-04-24T08:24:55.001Z</time></trkpt><trkpt lat="-17.72076116956429" lon="122.99913605227216"><ele>82.0</ele><time>2026-04-24T08:24:56.001Z</time></trkpt><trkpt lat="-17.720628429309922" lon="122.9994172042086"><ele>83.0</ele><time>2026-04-24T08:24:57.001Z</time></trkpt><trkpt lat="-17.720494549496827" lon="122.99969969460437"><ele>83.0</ele><time>2026-04-24T08:24:58.001Z</time></trkpt><trkpt lat="-17.72035768483034" lon="122.99998641187858"><ele>83.0</ele><time>2026-04-24T08:24:59.001Z</time></trkpt><trkpt lat="-17.72022543744522" lon="123.00026739910302"><ele>83.0</ele><time>2026-04-24T08:25:00.001Z</time></trkpt><trkpt lat="-17.72008753979839" lon="123.00055529409023"><ele>83.0</ele><time>2026-04-24T08:25:01.001Z</time></trkpt><trkpt lat="-17.71994960386557" lon="123.00083823595114"><ele>83.0</ele><time>2026-04-24T08:25:02.001Z</time></trkpt><trkpt lat="-17.719808506998863" lon="123.00112387997254"><ele>83.0</ele><time>2026-04-24T08:25:03.001Z</time></trkpt><trkpt lat="-17.71966719645964" lon="123.00141074915527"><ele>83.0</ele><time>2026-04-24T08:25:04.001Z</time></trkpt><trkpt lat="-17.71952915613438" lon="123.00169628107686"><ele>83.0</ele><time>2026-04-24T08:25:05.001Z</time></trkpt><trkpt lat="-17.719392947763964" lon="123.00198025167717"><ele>83.0</ele><time>2026-04-24T08:25:06.001Z</time></trkpt><trkpt lat="-17.719258991447596" lon="123.00226241264122"><ele>83.0</ele><time>2026-04-24T08:25:07.001Z</time></trkpt><trkpt lat="-17.719126634251516" lon="123.00254191530179"><ele>84.0</ele><time>2026-04-24T08:25:08.001Z</time></trkpt><trkpt lat="-17.718995333602763" lon="123.00281645903569"><ele>85.0</ele><time>2026-04-24T08:25:09.001Z</time></trkpt><trkpt lat="-17.718865193336132" lon="123.00308828207886"><ele>85.5</ele><time>2026-04-24T08:25:10.001Z</time></trkpt><trkpt lat="-17.718735468951234" lon="123.0033528382899"><ele>86.0</ele><time>2026-04-24T08:25:11.001Z</time></trkpt><trkpt lat="-17.718606380260535" lon="123.00361443597986"><ele>85.0</ele><time>2026-04-24T08:25:12.001Z</time></trkpt><trkpt lat="-17.718478259995226" lon="123.00387997019455"><ele>84.0</ele><time>2026-04-24T08:25:13.001Z</time></trkpt><trkpt lat="-17.718352738844096" lon="123.00414560570087"><ele>84.0</ele><time>2026-04-24T08:25:14.001Z</time></trkpt><trkpt lat="-17.7182284366284" lon="123.00441107619604"><ele>84.0</ele><time>2026-04-24T08:25:15.001Z</time></trkpt><trkpt lat="-17.718108204419288" lon="123.00467059784978"><ele>84.0</ele><time>2026-04-24T08:25:16.001Z</time></trkpt><trkpt lat="-17.71798731653094" lon="123.0049290472833"><ele>84.0</ele><time>2026-04-24T08:25:17.001Z</time></trkpt><trkpt lat="-17.71786502408167" lon="123.00518904319246"><ele>85.0</ele><time>2026-04-24T08:25:18.001Z</time></trkpt><trkpt lat="-17.71774093678202" lon="123.00544794433601"><ele>86.0</ele><time>2026-04-24T08:25:19.001Z</time></trkpt><trkpt lat="-17.717614601981683" lon="123.00570342785436"><ele>87.0</ele><time>2026-04-24T08:25:20.001Z</time></trkpt><trkpt lat="-17.71748440229888" lon="123.00595855407992"><ele>88.0</ele><time>2026-04-24T08:25:21.001Z</time></trkpt><trkpt lat="-17.717356206468235" lon="123.00621877291897"><ele>88.0</ele><time>2026-04-24T08:25:22.001Z</time></trkpt><trkpt lat="-17.717231830349924" lon="123.0064799810411"><ele>88.0</ele><time>2026-04-24T08:25:23.001Z</time></trkpt><trkpt lat="-17.71710433596331" lon="123.00674711280872"><ele>87.5</ele><time>2026-04-24T08:25:24.001Z</time></trkpt><trkpt lat="-17.716978833335585" lon="123.00701362378186"><ele>87.0</ele><time>2026-04-24T08:25:25.001Z</time></trkpt><trkpt lat="-17.716850296951268" lon="123.0072819523429"><ele>86.5</ele><time>2026-04-24T08:25:26.001Z</time></trkpt><trkpt lat="-17.71671957710527" lon="123.00755322797697"><ele>86.0</ele><time>2026-04-24T08:25:27.001Z</time></trkpt><trkpt lat="-17.716588419496244" lon="123.00782790581586"><ele>86.0</ele><time>2026-04-24T08:25:28.001Z</time></trkpt><trkpt lat="-17.716456697461222" lon="123.00810819446497"><ele>86.0</ele><time>2026-04-24T08:25:29.001Z</time></trkpt><trkpt lat="-17.716324269787638" lon="123.00838841152245"><ele>87.0</ele><time>2026-04-24T08:25:30.001Z</time></trkpt><trkpt lat="-17.7161889441331" lon="123.00867241593727"><ele>88.0</ele><time>2026-04-24T08:25:31.001Z</time></trkpt><trkpt lat="-17.71605243762606" lon="123.0089573203823"><ele>88.5</ele><time>2026-04-24T08:25:32.001Z</time></trkpt><trkpt lat="-17.715915228625775" lon="123.00924418976031"><ele>89.0</ele><time>2026-04-24T08:25:33.001Z</time></trkpt><trkpt lat="-17.715776361737085" lon="123.00953097078954"><ele>89.0</ele><time>2026-04-24T08:25:34.001Z</time></trkpt><trkpt lat="-17.715636361110665" lon="123.0098194074834"><ele>89.0</ele><time>2026-04-24T08:25:35.001Z</time></trkpt><trkpt lat="-17.715495751108467" lon="123.01010878192197"><ele>89.0</ele><time>2026-04-24T08:25:36.001Z</time></trkpt><trkpt lat="-17.71535580466484" lon="123.01039912544395"><ele>89.0</ele><time>2026-04-24T08:25:37.001Z</time></trkpt><trkpt lat="-17.715217767964695" lon="123.0106882239438"><ele>89.5</ele><time>2026-04-24T08:25:38.001Z</time></trkpt><trkpt lat="-17.71508099857183" lon="123.010974856923"><ele>90.0</ele><time>2026-04-24T08:25:39.001Z</time></trkpt><trkpt lat="-17.714945996589588" lon="123.01126270834281"><ele>90.0</ele><time>2026-04-24T08:25:40.001Z</time></trkpt><trkpt lat="-17.71481041264171" lon="123.01154643889247"><ele>90.0</ele><time>2026-04-24T08:25:41.001Z</time></trkpt><trkpt lat="-17.71467398899007" lon="123.01183233604299"><ele>91.5</ele><time>2026-04-24T08:25:42.001Z</time></trkpt><trkpt lat="-17.714536908983142" lon="123.01211777342775"><ele>93.0</ele><time>2026-04-24T08:25:43.001Z</time></trkpt><trkpt lat="-17.71439930228877" lon="123.01240158002855"><ele>93.5</ele><time>2026-04-24T08:25:44.001Z</time></trkpt><trkpt lat="-17.714261105250973" lon="123.01268707757902"><ele>94.0</ele><time>2026-04-24T08:25:45.001Z</time></trkpt><trkpt lat="-17.714123782979424" lon="123.01297305316861"><ele>94.0</ele><time>2026-04-24T08:25:46.001Z</time></trkpt><trkpt lat="-17.713991301777085" lon="123.0132559719865"><ele>94.0</ele><time>2026-04-24T08:25:47.001Z</time></trkpt><trkpt lat="-17.713863622854156" lon="123.01353857301291"><ele>94.5</ele><time>2026-04-24T08:25:48.001Z</time></trkpt><trkpt lat="-17.713738355981775" lon="123.01381598472288"><ele>95.0</ele><time>2026-04-24T08:25:49.001Z</time></trkpt><trkpt lat="-17.713609393489147" lon="123.01409226641107"><ele>94.5</ele><time>2026-04-24T08:25:50.001Z</time></trkpt><trkpt lat="-17.713473928409936" lon="123.01437325321494"><ele>94.0</ele><time>2026-04-24T08:25:51.001Z</time></trkpt><trkpt lat="-17.713335954991706" lon="123.0146546418801"><ele>94.0</ele><time>2026-04-24T08:25:52.001Z</time></trkpt><trkpt lat="-17.713201342894788" lon="123.01493705474387"><ele>94.0</ele><time>2026-04-24T08:25:53.001Z</time></trkpt><trkpt lat="-17.71306684684796" lon="123.01522026267281"><ele>95.0</ele><time>2026-04-24T08:25:54.001Z</time></trkpt><trkpt lat="-17.712931550234845" lon="123.0155112863909"><ele>96.0</ele><time>2026-04-24T08:25:55.001Z</time></trkpt><trkpt lat="-17.71279204749692" lon="123.0158108246671"><ele>95.5</ele><time>2026-04-24T08:25:56.001Z</time></trkpt><trkpt lat="-17.712637447878954" lon="123.01610282724565"><ele>95.0</ele><time>2026-04-24T08:25:57.001Z</time></trkpt><trkpt lat="-17.712497760604222" lon="123.01639618568618"><ele>96.0</ele><time>2026-04-24T08:25:58.001Z</time></trkpt><trkpt lat="-17.71236022969205" lon="123.01668635410118"><ele>97.0</ele><time>2026-04-24T08:25:59.001Z</time></trkpt><trkpt lat="-17.71222156603616" lon="123.01697201673538"><ele>97.0</ele><time>2026-04-24T08:26:00.001Z</time></trkpt><trkpt lat="-17.71208452875644" lon="123.01725532864437"><ele>97.0</ele><time>2026-04-24T08:26:01.001Z</time></trkpt><trkpt lat="-17.711949411484095" lon="123.01753717695198"><ele>97.5</ele><time>2026-04-24T08:26:02.001Z</time></trkpt><trkpt lat="-17.711817401171068" lon="123.01781254429137"><ele>98.0</ele><time>2026-04-24T08:26:03.001Z</time></trkpt><trkpt lat="-17.71168745007027" lon="123.01808431995173"><ele>99.0</ele><time>2026-04-24T08:26:04.001Z</time></trkpt><trkpt lat="-17.71155995844264" lon="123.01834933113891"><ele>100.0</ele><time>2026-04-24T08:26:05.001Z</time></trkpt><trkpt lat="-17.711433752416845" lon="123.01861139991246"><ele>100.0</ele><time>2026-04-24T08:26:06.001Z</time></trkpt><trkpt lat="-17.71131278543467" lon="123.01887782782438"><ele>100.0</ele><time>2026-04-24T08:26:07.001Z</time></trkpt><trkpt lat="-17.711172389448766" lon="123.01913887381916"><ele>100.5</ele><time>2026-04-24T08:26:08.001Z</time></trkpt><trkpt lat="-17.711037752065096" lon="123.01939927477076"><ele>101.0</ele><time>2026-04-24T08:26:09.001Z</time></trkpt><trkpt lat="-17.710907248672243" lon="123.01966351512515"><ele>101.0</ele><time>2026-04-24T08:26:10.001Z</time></trkpt><trkpt lat="-17.710779691700363" lon="123.01993132503051"><ele>101.0</ele><time>2026-04-24T08:26:11.001Z</time></trkpt><trkpt lat="-17.710650820658202" lon="123.02020229373551"><ele>101.5</ele><time>2026-04-24T08:26:12.001Z</time></trkpt><trkpt lat="-17.710519197575742" lon="123.02047338572784"><ele>102.0</ele><time>2026-04-24T08:26:13.001Z</time></trkpt><trkpt lat="-17.71038654246506" lon="123.02074857996355"><ele>102.0</ele><time>2026-04-24T08:26:14.001Z</time></trkpt><trkpt lat="-17.71025676791763" lon="123.02102258532959"><ele>102.0</ele><time>2026-04-24T08:26:15.001Z</time></trkpt><trkpt lat="-17.710122884877283" lon="123.02130098309159"><ele>102.5</ele><time>2026-04-24T08:26:16.001Z</time></trkpt><trkpt lat="-17.70998955739958" lon="123.02157894980152"><ele>103.0</ele><time>2026-04-24T08:26:17.001Z</time></trkpt><trkpt lat="-17.709855179768162" lon="123.02185996710426"><ele>103.0</ele><time>2026-04-24T08:26:18.001Z</time></trkpt><trkpt lat="-17.709719717317338" lon="123.02214130570772"><ele>103.0</ele><time>2026-04-24T08:26:19.001Z</time></trkpt><trkpt lat="-17.709583191750323" lon="123.02242642798443"><ele>103.0</ele><time>2026-04-24T08:26:20.001Z</time></trkpt><trkpt lat="-17.709445514119302" lon="123.02271145196782"><ele>103.0</ele><time>2026-04-24T08:26:21.001Z</time></trkpt><trkpt lat="-17.70930838879639" lon="123.02299410170914"><ele>103.0</ele><time>2026-04-24T08:26:22.001Z</time></trkpt><trkpt lat="-17.70917180234676" lon="123.02327629561387"><ele>103.0</ele><time>2026-04-24T08:26:23.001Z</time></trkpt><trkpt lat="-17.709036979097494" lon="123.02355838743098"><ele>104.5</ele><time>2026-04-24T08:26:24.001Z</time></trkpt><trkpt lat="-17.708900928799014" lon="123.02384065645529"><ele>106.0</ele><time>2026-04-24T08:26:25.001Z</time></trkpt><trkpt lat="-17.70876401882938" lon="123.02412626194818"><ele>106.5</ele><time>2026-04-24T08:26:26.001Z</time></trkpt><trkpt lat="-17.708628199269416" lon="123.02441007948904"><ele>107.0</ele><time>2026-04-24T08:26:27.001Z</time></trkpt><trkpt lat="-17.70849432864093" lon="123.02469130975025"><ele>107.5</ele><time>2026-04-24T08:26:28.001Z</time></trkpt><trkpt lat="-17.708361178897633" lon="123.02497014190472"><ele>108.0</ele><time>2026-04-24T08:26:29.001Z</time></trkpt><trkpt lat="-17.708227512874274" lon="123.02525199939265"><ele>108.0</ele><time>2026-04-24T08:26:30.001Z</time></trkpt><trkpt lat="-17.70809280825155" lon="123.02553343444181"><ele>108.0</ele><time>2026-04-24T08:26:31.001Z</time></trkpt><trkpt lat="-17.707958745364866" lon="123.02581430003193"><ele>108.0</ele><time>2026-04-24T08:26:32.001Z</time></trkpt><trkpt lat="-17.70782324555138" lon="123.0260984368073"><ele>108.0</ele><time>2026-04-24T08:26:33.001Z</time></trkpt><trkpt lat="-17.7076870599995" lon="123.0263830651342"><ele>109.0</ele><time>2026-04-24T08:26:34.001Z</time></trkpt><trkpt lat="-17.70755076481334" lon="123.02666484186321"><ele>110.0</ele><time>2026-04-24T08:26:35.001Z</time></trkpt><trkpt lat="-17.70741555204611" lon="123.02694926305544"><ele>110.0</ele><time>2026-04-24T08:26:36.001Z</time></trkpt><trkpt lat="-17.707279505872858" lon="123.02723405107845"><ele>110.0</ele><time>2026-04-24T08:26:37.001Z</time></trkpt><trkpt lat="-17.707141859021082" lon="123.02751959145063"><ele>110.0</ele><time>2026-04-24T08:26:38.001Z</time></trkpt><trkpt lat="-17.70700568993841" lon="123.0278009174279"><ele>110.0</ele><time>2026-04-24T08:26:39.001Z</time></trkpt><trkpt lat="-17.706868074711945" lon="123.02808352749506"><ele>110.0</ele><time>2026-04-24T08:26:40.001Z</time></trkpt><trkpt lat="-17.706730397846034" lon="123.02836604172019"><ele>110.0</ele><time>2026-04-24T08:26:41.001Z</time></trkpt><trkpt lat="-17.70659349716847" lon="123.02864941004796"><ele>110.0</ele><time>2026-04-24T08:26:42.001Z</time></trkpt><trkpt lat="-17.706456620656546" lon="123.02893738623126"><ele>110.0</ele><time>2026-04-24T08:26:43.001Z</time></trkpt><trkpt lat="-17.706321257625248" lon="123.02922319004546"><ele>110.0</ele><time>2026-04-24T08:26:44.001Z</time></trkpt><trkpt lat="-17.706184440256877" lon="123.02951083152055"><ele>110.0</ele><time>2026-04-24T08:26:45.001Z</time></trkpt><trkpt lat="-17.706048211262658" lon="123.02979603217807"><ele>110.5</ele><time>2026-04-24T08:26:46.001Z</time></trkpt><trkpt lat="-17.70590881908942" lon="123.03008469913539"><ele>111.0</ele><time>2026-04-24T08:26:47.001Z</time></trkpt><trkpt lat="-17.705768124819254" lon="123.03037279601885"><ele>111.0</ele><time>2026-04-24T08:26:48.001Z</time></trkpt><trkpt lat="-17.70563001574033" lon="123.03066232313886"><ele>111.0</ele><time>2026-04-24T08:26:49.001Z</time></trkpt><trkpt lat="-17.70549314758824" lon="123.03095278681535"><ele>111.0</ele><time>2026-04-24T08:26:50.001Z</time></trkpt><trkpt lat="-17.705357171545998" lon="123.0312423682365"><ele>111.0</ele><time>2026-04-24T08:26:51.001Z</time></trkpt><trkpt lat="-17.705219772272297" lon="123.03153107545225"><ele>111.5</ele><time>2026-04-24T08:26:52.001Z</time></trkpt><trkpt lat="-17.705082357320276" lon="123.03181594660292"><ele>112.0</ele><time>2026-04-24T08:26:53.001Z</time></trkpt><trkpt lat="-17.70494518357892" lon="123.03209928000265"><ele>112.0</ele><time>2026-04-24T08:26:54.001Z</time></trkpt><trkpt lat="-17.70480901053359" lon="123.03237915608828"><ele>112.0</ele><time>2026-04-24T08:26:55.001Z</time></trkpt><trkpt lat="-17.704675644316907" lon="123.03265208143928"><ele>111.5</ele><time>2026-04-24T08:26:56.001Z</time></trkpt><trkpt lat="-17.704548945475544" lon="123.03291053646456"><ele>111.0</ele><time>2026-04-24T08:26:57.001Z</time></trkpt><trkpt lat="-17.704428175914096" lon="123.03316188152515"><ele>111.0</ele><time>2026-04-24T08:26:58.001Z</time></trkpt><trkpt lat="-17.70430195644924" lon="123.03342507879721"><ele>111.0</ele><time>2026-04-24T08:26:59.001Z</time></trkpt><trkpt lat="-17.70417144309947" lon="123.03369286592257"><ele>111.0</ele><time>2026-04-24T08:27:00.001Z</time></trkpt><trkpt lat="-17.70404055539229" lon="123.03396136151464"><ele>111.0</ele><time>2026-04-24T08:27:01.001Z</time></trkpt><trkpt lat="-17.70391163738007" lon="123.03423058801864"><ele>111.0</ele><time>2026-04-24T08:27:02.001Z</time></trkpt><trkpt lat="-17.703786551205038" lon="123.03450020399626"><ele>111.0</ele><time>2026-04-24T08:27:03.001Z</time></trkpt><trkpt lat="-17.703661905576084" lon="123.0347722331196"><ele>111.5</ele><time>2026-04-24T08:27:04.001Z</time></trkpt><trkpt lat="-17.703536860795683" lon="123.03504287968434"><ele>112.0</ele><time>2026-04-24T08:27:05.001Z</time></trkpt><trkpt lat="-17.703406720651564" lon="123.03531766613824"><ele>112.0</ele><time>2026-04-24T08:27:06.001Z</time></trkpt><trkpt lat="-17.703271744207026" lon="123.03559380257387"><ele>112.0</ele><time>2026-04-24T08:27:07.001Z</time></trkpt><trkpt lat="-17.703135248062" lon="123.03586814265398"><ele>112.0</ele><time>2026-04-24T08:27:08.001Z</time></trkpt><trkpt lat="-17.702999703069338" lon="123.03614521758146"><ele>112.0</ele><time>2026-04-24T08:27:09.001Z</time></trkpt><trkpt lat="-17.702864844026404" lon="123.03642238884048"><ele>111.5</ele><time>2026-04-24T08:27:10.001Z</time></trkpt><trkpt lat="-17.70272920012839" lon="123.03670101676923"><ele>111.0</ele><time>2026-04-24T08:27:11.001Z</time></trkpt><trkpt lat="-17.702597189701606" lon="123.03697568732322"><ele>111.0</ele><time>2026-04-24T08:27:12.001Z</time></trkpt><trkpt lat="-17.702465360837383" lon="123.03724989702172"><ele>111.0</ele><time>2026-04-24T08:27:13.001Z</time></trkpt><trkpt lat="-17.702335246868397" lon="123.03752445369436"><ele>110.5</ele><time>2026-04-24T08:27:14.001Z</time></trkpt><trkpt lat="-17.702206280391486" lon="123.03779818799794"><ele>110.0</ele><time>2026-04-24T08:27:15.001Z</time></trkpt><trkpt lat="-17.702076192364544" lon="123.0380739710282"><ele>110.5</ele><time>2026-04-24T08:27:16.001Z</time></trkpt><trkpt lat="-17.70194505916068" lon="123.03834744862043"><ele>111.0</ele><time>2026-04-24T08:27:17.001Z</time></trkpt><trkpt lat="-17.701809818637752" lon="123.03862435520341"><ele>111.0</ele><time>2026-04-24T08:27:18.001Z</time></trkpt><trkpt lat="-17.70167439503612" lon="123.03890392720211"><ele>111.0</ele><time>2026-04-24T08:27:19.001Z</time></trkpt><trkpt lat="-17.701537715397077" lon="123.03918572047249"><ele>111.0</ele><time>2026-04-24T08:27:20.001Z</time></trkpt><trkpt lat="-17.70140286634549" lon="123.03946701923908"><ele>111.0</ele><time>2026-04-24T08:27:21.001Z</time></trkpt><trkpt lat="-17.701266911242417" lon="123.03974925701394"><ele>110.5</ele><time>2026-04-24T08:27:22.001Z</time></trkpt><trkpt lat="-17.701133967669175" lon="123.04002599618319"><ele>110.0</ele><time>2026-04-24T08:27:23.001Z</time></trkpt><trkpt lat="-17.701000953062255" lon="123.04030349413134"><ele>110.0</ele><time>2026-04-24T08:27:24.001Z</time></trkpt><trkpt lat="-17.700868310789087" lon="123.04057887233768"><ele>110.0</ele><time>2026-04-24T08:27:25.001Z</time></trkpt><trkpt lat="-17.700734908486368" lon="123.04085681702286"><ele>110.0</ele><time>2026-04-24T08:27:26.001Z</time></trkpt><trkpt lat="-17.700603461868308" lon="123.04113472591526"><ele>110.0</ele><time>2026-04-24T08:27:27.001Z</time></trkpt><trkpt lat="-17.700468771686417" lon="123.04141490835377"><ele>109.5</ele><time>2026-04-24T08:27:28.001Z</time></trkpt><trkpt lat="-17.700332530834398" lon="123.04169338724986"><ele>109.0</ele><time>2026-04-24T08:27:29.001Z</time></trkpt><trkpt lat="-17.700197573106948" lon="123.04197293185769"><ele>109.0</ele><time>2026-04-24T08:27:30.001Z</time></trkpt><trkpt lat="-17.700064530350737" lon="123.04225496234596"><ele>109.0</ele><time>2026-04-24T08:27:31.001Z</time></trkpt><trkpt lat="-17.69993067893011" lon="123.04253635468054"><ele>109.0</ele><time>2026-04-24T08:27:32.001Z</time></trkpt><trkpt lat="-17.69979530664125" lon="123.04281926361132"><ele>109.0</ele><time>2026-04-24T08:27:33.001Z</time></trkpt><trkpt lat="-17.699657504637297" lon="123.04310035557837"><ele>108.5</ele><time>2026-04-24T08:27:34.001Z</time></trkpt><trkpt lat="-17.699517681699266" lon="123.04338368023431"><ele>108.0</ele><time>2026-04-24T08:27:35.001Z</time></trkpt><trkpt lat="-17.699381302463735" lon="123.04366534204776"><ele>108.0</ele><time>2026-04-24T08:27:36.001Z</time></trkpt><trkpt lat="-17.699247197338874" lon="123.04394675124608"><ele>108.0</ele><time>2026-04-24T08:27:37.001Z</time></trkpt><trkpt lat="-17.699114599165476" lon="123.04422820617117"><ele>108.5</ele><time>2026-04-24T08:27:38.001Z</time></trkpt><trkpt lat="-17.698983486363026" lon="123.04450610231413"><ele>109.0</ele><time>2026-04-24T08:27:39.001Z</time></trkpt><trkpt lat="-17.69885482862269" lon="123.04478331129899"><ele>108.0</ele><time>2026-04-24T08:27:40.001Z</time></trkpt><trkpt lat="-17.69872322957993" lon="123.04505778438568"><ele>107.0</ele><time>2026-04-24T08:27:41.001Z</time></trkpt><trkpt lat="-17.698591826861445" lon="123.04533218309147"><ele>107.5</ele><time>2026-04-24T08:27:42.001Z</time></trkpt><trkpt lat="-17.698461244091913" lon="123.04560535428344"><ele>108.0</ele><time>2026-04-24T08:27:43.001Z</time></trkpt><trkpt lat="-17.698327941827177" lon="123.04587574772383"><ele>108.0</ele><time>2026-04-24T08:27:44.001Z</time></trkpt><trkpt lat="-17.698194111820275" lon="123.04614796456421"><ele>108.0</ele><time>2026-04-24T08:27:45.001Z</time></trkpt><trkpt lat="-17.69806391076323" lon="123.04642062145315"><ele>109.0</ele><time>2026-04-24T08:27:46.001Z</time></trkpt><trkpt lat="-17.697931251457298" lon="123.04669869164636"><ele>110.0</ele><time>2026-04-24T08:27:47.001Z</time></trkpt><trkpt lat="-17.697797796033342" lon="123.04697504243165"><ele>109.0</ele><time>2026-04-24T08:27:48.001Z</time></trkpt><trkpt lat="-17.697665087186053" lon="123.04725112650574"><ele>108.0</ele><time>2026-04-24T08:27:49.001Z</time></trkpt><trkpt lat="-17.697534015620167" lon="123.04752582453848"><ele>108.0</ele><time>2026-04-24T08:27:50.001Z</time></trkpt><trkpt lat="-17.697404013274284" lon="123.04780061855504"><ele>108.0</ele><time>2026-04-24T08:27:51.001Z</time></trkpt><trkpt lat="-17.69727291526369" lon="123.04807652134569"><ele>107.5</ele><time>2026-04-24T08:27:52.001Z</time></trkpt><trkpt lat="-17.697145280846275" lon="123.0483491009825"><ele>107.0</ele><time>2026-04-24T08:27:53.001Z</time></trkpt><trkpt lat="-17.69701833145647" lon="123.04862092735148"><ele>106.5</ele><time>2026-04-24T08:27:54.001Z</time></trkpt><trkpt lat="-17.69688857956842" lon="123.04889168743783"><ele>106.0</ele><time>2026-04-24T08:27:55.001Z</time></trkpt><trkpt lat="-17.696757300017605" lon="123.04916049536199"><ele>106.0</ele><time>2026-04-24T08:27:56.001Z</time></trkpt><trkpt lat="-17.69662843700961" lon="123.04942854366061"><ele>106.0</ele><time>2026-04-24T08:27:57.001Z</time></trkpt><trkpt lat="-17.696497850111086" lon="123.04969775854069"><ele>105.5</ele><time>2026-04-24T08:27:58.001Z</time></trkpt><trkpt lat="-17.69637051928587" lon="123.04996389365043"><ele>105.0</ele><time>2026-04-24T08:27:59.001Z</time></trkpt><trkpt lat="-17.696240490895054" lon="123.05023052621532"><ele>105.0</ele><time>2026-04-24T08:28:00.001Z</time></trkpt><trkpt lat="-17.696114808885994" lon="123.05049537286922"><ele>105.0</ele><time>2026-04-24T08:28:01.001Z</time></trkpt><trkpt lat="-17.69598941570524" lon="123.05075787055705"><ele>103.5</ele><time>2026-04-24T08:28:02.001Z</time></trkpt><trkpt lat="-17.695864936746432" lon="123.05101557706595"><ele>102.0</ele><time>2026-04-24T08:28:03.001Z</time></trkpt><trkpt lat="-17.695739603471445" lon="123.05127183434995"><ele>102.0</ele><time>2026-04-24T08:28:04.001Z</time></trkpt><trkpt lat="-17.695614893295918" lon="123.05152758417815"><ele>102.0</ele><time>2026-04-24T08:28:05.001Z</time></trkpt><trkpt lat="-17.695494177067456" lon="123.05178177544546"><ele>102.0</ele><time>2026-04-24T08:28:06.001Z</time></trkpt><trkpt lat="-17.69537556908851" lon="123.05203233567678"><ele>102.0</ele><time>2026-04-24T08:28:07.001Z</time></trkpt><trkpt lat="-17.69525516692218" lon="123.05228543806534"><ele>102.0</ele><time>2026-04-24T08:28:08.001Z</time></trkpt><trkpt lat="-17.695135255811955" lon="123.05253609579417"><ele>102.0</ele><time>2026-04-24T08:28:09.001Z</time></trkpt><trkpt lat="-17.69501524928433" lon="123.05278675787761"><ele>102.0</ele><time>2026-04-24T08:28:10.001Z</time></trkpt><trkpt lat="-17.69489514777096" lon="123.05303618553059"><ele>102.0</ele><time>2026-04-24T08:28:11.001Z</time></trkpt><trkpt lat="-17.69476915068284" lon="123.05328891143975"><ele>101.5</ele><time>2026-04-24T08:28:12.001Z</time></trkpt><trkpt lat="-17.694644009620337" lon="123.0535427532147"><ele>101.0</ele><time>2026-04-24T08:28:13.001Z</time></trkpt><trkpt lat="-17.694517437812564" lon="123.05379756886366"><ele>101.0</ele><time>2026-04-24T08:28:14.001Z</time></trkpt><trkpt lat="-17.694394970639873" lon="123.05405589049171"><ele>101.0</ele><time>2026-04-24T08:28:15.001Z</time></trkpt><trkpt lat="-17.69427332037607" lon="123.05431649066944"><ele>101.0</ele><time>2026-04-24T08:28:16.001Z</time></trkpt><trkpt lat="-17.69414851501391" lon="123.05457350450294"><ele>101.0</ele><time>2026-04-24T08:28:17.001Z</time></trkpt><trkpt lat="-17.694025702774663" lon="123.0548310528055"><ele>100.5</ele><time>2026-04-24T08:28:18.001Z</time></trkpt><trkpt lat="-17.693902621385863" lon="123.05509016218939"><ele>100.0</ele><time>2026-04-24T08:28:19.001Z</time></trkpt><trkpt lat="-17.69377597765838" lon="123.05534764195927"><ele>100.0</ele><time>2026-04-24T08:28:20.001Z</time></trkpt><trkpt lat="-17.693649667330508" lon="123.05560360230783"><ele>100.0</ele><time>2026-04-24T08:28:21.001Z</time></trkpt><trkpt lat="-17.69352326566323" lon="123.05586316530382"><ele>100.0</ele><time>2026-04-24T08:28:22.001Z</time></trkpt><trkpt lat="-17.69340119482413" lon="123.05612172026395"><ele>100.0</ele><time>2026-04-24T08:28:23.001Z</time></trkpt><trkpt lat="-17.693277906670442" lon="123.05638179872953"><ele>99.0</ele><time>2026-04-24T08:28:24.001Z</time></trkpt><trkpt lat="-17.693152928412992" lon="123.05663722440538"><ele>98.0</ele><time>2026-04-24T08:28:25.001Z</time></trkpt><trkpt lat="-17.69302807239521" lon="123.05689559515676"><ele>98.0</ele><time>2026-04-24T08:28:26.001Z</time></trkpt><trkpt lat="-17.692905912646985" lon="123.05715554403541"><ele>98.0</ele><time>2026-04-24T08:28:27.001Z</time></trkpt><trkpt lat="-17.692780657480423" lon="123.05741849818386"><ele>98.0</ele><time>2026-04-24T08:28:28.001Z</time></trkpt><trkpt lat="-17.69265608391708" lon="123.05767777518224"><ele>98.0</ele><time>2026-04-24T08:28:29.001Z</time></trkpt><trkpt lat="-17.692531170339514" lon="123.05793761600124"><ele>98.0</ele><time>2026-04-24T08:28:30.001Z</time></trkpt><trkpt lat="-17.692406389794385" lon="123.05819812459383"><ele>98.0</ele><time>2026-04-24T08:28:31.001Z</time></trkpt><trkpt lat="-17.692282489874614" lon="123.05845837288798"><ele>97.0</ele><time>2026-04-24T08:28:32.001Z</time></trkpt><trkpt lat="-17.6921581612489" lon="123.05871861975741"><ele>96.0</ele><time>2026-04-24T08:28:33.001Z</time></trkpt><trkpt lat="-17.69203433272156" lon="123.05897744593028"><ele>97.0</ele><time>2026-04-24T08:28:34.001Z</time></trkpt><trkpt lat="-17.6919095862299" lon="123.05923779245587"><ele>98.0</ele><time>2026-04-24T08:28:35.001Z</time></trkpt><trkpt lat="-17.691783312000926" lon="123.05949561840127"><ele>98.0</ele><time>2026-04-24T08:28:36.001Z</time></trkpt><trkpt lat="-17.691657210663738" lon="123.05975573565749"><ele>98.0</ele><time>2026-04-24T08:28:37.001Z</time></trkpt><trkpt lat="-17.691532726486106" lon="123.06001673429945"><ele>97.0</ele><time>2026-04-24T08:28:38.001Z</time></trkpt><trkpt lat="-17.691405656863004" lon="123.0602803706199"><ele>96.0</ele><time>2026-04-24T08:28:39.001Z</time></trkpt><trkpt lat="-17.69127684849258" lon="123.06054415560573"><ele>96.0</ele><time>2026-04-24T08:28:40.001Z</time></trkpt><trkpt lat="-17.691148940015296" lon="123.0608087250019"><ele>96.0</ele><time>2026-04-24T08:28:41.001Z</time></trkpt><trkpt lat="-17.69102284673972" lon="123.06107390298668"><ele>96.0</ele><time>2026-04-24T08:28:42.001Z</time></trkpt><trkpt lat="-17.6908985099942" lon="123.06133798663949"><ele>96.0</ele><time>2026-04-24T08:28:43.001Z</time></trkpt><trkpt lat="-17.690773089587378" lon="123.06160257110984"><ele>95.0</ele><time>2026-04-24T08:28:44.001Z</time></trkpt><trkpt lat="-17.69064810157283" lon="123.06186259714663"><ele>94.0</ele><time>2026-04-24T08:28:45.001Z</time></trkpt><trkpt lat="-17.69051798339593" lon="123.06212275370555"><ele>94.0</ele><time>2026-04-24T08:28:46.001Z</time></trkpt><trkpt lat="-17.690388288726187" lon="123.06238611017213"><ele>94.0</ele><time>2026-04-24T08:28:47.001Z</time></trkpt><trkpt lat="-17.690260173012327" lon="123.06264862887913"><ele>94.0</ele><time>2026-04-24T08:28:48.001Z</time></trkpt><trkpt lat="-17.69013407585029" lon="123.06291206310041"><ele>94.0</ele><time>2026-04-24T08:28:49.001Z</time></trkpt><trkpt lat="-17.690009164237598" lon="123.06317555515065"><ele>94.0</ele><time>2026-04-24T08:28:50.001Z</time></trkpt><trkpt lat="-17.689885209510155" lon="123.06343953646112"><ele>94.0</ele><time>2026-04-24T08:28:51.001Z</time></trkpt><trkpt lat="-17.689764061707834" lon="123.06370173820171"><ele>94.0</ele><time>2026-04-24T08:28:52.001Z</time></trkpt><trkpt lat="-17.689642880147346" lon="123.06396367328134"><ele>94.0</ele><time>2026-04-24T08:28:53.001Z</time></trkpt><trkpt lat="-17.689517860239523" lon="123.06422269872039"><ele>94.0</ele><time>2026-04-24T08:28:54.001Z</time></trkpt><trkpt lat="-17.689393713516505" lon="123.0644800291429"><ele>94.0</ele><time>2026-04-24T08:28:55.001Z</time></trkpt><trkpt lat="-17.68926768286683" lon="123.06473784262815"><ele>93.5</ele><time>2026-04-24T08:28:56.001Z</time></trkpt><trkpt lat="-17.689141881231347" lon="123.06499219114303"><ele>93.0</ele><time>2026-04-24T08:28:57.001Z</time></trkpt><trkpt lat="-17.689014149024963" lon="123.0652481582089"><ele>93.0</ele><time>2026-04-24T08:28:58.001Z</time></trkpt><trkpt lat="-17.68889062227977" lon="123.06550320782522"><ele>93.0</ele><time>2026-04-24T08:28:59.001Z</time></trkpt><trkpt lat="-17.688769401569044" lon="123.06575864572578"><ele>93.0</ele><time>2026-04-24T08:29:00.001Z</time></trkpt><trkpt lat="-17.688646393874702" lon="123.06601491661763"><ele>93.0</ele><time>2026-04-24T08:29:01.001Z</time></trkpt><trkpt lat="-17.688522982017588" lon="123.06626946747997"><ele>93.0</ele><time>2026-04-24T08:29:02.001Z</time></trkpt><trkpt lat="-17.688397926844086" lon="123.06652705449932"><ele>93.0</ele><time>2026-04-24T08:29:03.001Z</time></trkpt><trkpt lat="-17.68827675805519" lon="123.06678196370481"><ele>93.5</ele><time>2026-04-24T08:29:04.001Z</time></trkpt><trkpt lat="-17.688156527545214" lon="123.06703900452045"><ele>94.0</ele><time>2026-04-24T08:29:05.001Z</time></trkpt><trkpt lat="-17.688035065543442" lon="123.06729399222529"><ele>93.5</ele><time>2026-04-24T08:29:06.001Z</time></trkpt><trkpt lat="-17.68791138038417" lon="123.06754883393195"><ele>93.0</ele><time>2026-04-24T08:29:07.001Z</time></trkpt><trkpt lat="-17.687787627114645" lon="123.06779951620334"><ele>93.0</ele><time>2026-04-24T08:29:08.001Z</time></trkpt><trkpt lat="-17.687664897501115" lon="123.06805016699757"><ele>93.0</ele><time>2026-04-24T08:29:09.001Z</time></trkpt><trkpt lat="-17.687544430283154" lon="123.0682992730406"><ele>92.5</ele><time>2026-04-24T08:29:10.001Z</time></trkpt><trkpt lat="-17.68742441516111" lon="123.06854893531654"><ele>92.0</ele><time>2026-04-24T08:29:11.001Z</time></trkpt><trkpt lat="-17.687308146472887" lon="123.06879735586627"><ele>92.0</ele><time>2026-04-24T08:29:12.001Z</time></trkpt><trkpt lat="-17.687189149308413" lon="123.06904460906347"><ele>92.0</ele><time>2026-04-24T08:29:13.001Z</time></trkpt><trkpt lat="-17.687069520937584" lon="123.06928980915549"><ele>92.0</ele><time>2026-04-24T08:29:14.001Z</time></trkpt><trkpt lat="-17.686952119061914" lon="123.06953426620417"><ele>92.0</ele><time>2026-04-24T08:29:15.001Z</time></trkpt><trkpt lat="-17.68683383909589" lon="123.0697805586149"><ele>92.0</ele><time>2026-04-24T08:29:16.001Z</time></trkpt><trkpt lat="-17.68671565565428" lon="123.07002600307749"><ele>92.0</ele><time>2026-04-24T08:29:17.001Z</time></trkpt><trkpt lat="-17.686597867514052" lon="123.07027262330911"><ele>92.0</ele><time>2026-04-24T08:29:18.001Z</time></trkpt><trkpt lat="-17.68647975554102" lon="123.07052217378958"><ele>92.0</ele><time>2026-04-24T08:29:19.001Z</time></trkpt><trkpt lat="-17.686360029322536" lon="123.07077555353194"><ele>92.0</ele><time>2026-04-24T08:29:20.001Z</time></trkpt><trkpt lat="-17.68623728558039" lon="123.07103072772364"><ele>92.0</ele><time>2026-04-24T08:29:21.001Z</time></trkpt><trkpt lat="-17.68611363233922" lon="123.07128607809183"><ele>92.5</ele><time>2026-04-24T08:29:22.001Z</time></trkpt><trkpt lat="-17.685991165581207" lon="123.07154102624165"><ele>93.0</ele><time>2026-04-24T08:29:23.001Z</time></trkpt><trkpt lat="-17.685868960029246" lon="123.07179586754494"><ele>93.0</ele><time>2026-04-24T08:29:24.001Z</time></trkpt><trkpt lat="-17.68574884184805" lon="123.07205018458987"><ele>93.0</ele><time>2026-04-24T08:29:25.001Z</time></trkpt><trkpt lat="-17.685628408968313" lon="123.07230450950856"><ele>92.5</ele><time>2026-04-24T08:29:26.001Z</time></trkpt><trkpt lat="-17.685508465040204" lon="123.072556150496"><ele>92.0</ele><time>2026-04-24T08:29:27.001Z</time></trkpt><trkpt lat="-17.685389233897123" lon="123.07280695276788"><ele>92.0</ele><time>2026-04-24T08:29:28.001Z</time></trkpt><trkpt lat="-17.685270442598917" lon="123.07305357364827"><ele>92.0</ele><time>2026-04-24T08:29:29.001Z</time></trkpt><trkpt lat="-17.685149219925975" lon="123.07330235922157"><ele>93.5</ele><time>2026-04-24T08:29:30.001Z</time></trkpt><trkpt lat="-17.685029809031136" lon="123.07355041757329"><ele>95.0</ele><time>2026-04-24T08:29:31.001Z</time></trkpt><trkpt lat="-17.684910378980973" lon="123.07379543886879"><ele>95.0</ele><time>2026-04-24T08:29:32.001Z</time></trkpt><trkpt lat="-17.684790057236544" lon="123.07404103829788"><ele>95.0</ele><time>2026-04-24T08:29:33.001Z</time></trkpt><trkpt lat="-17.684673572949844" lon="123.07428415369426"><ele>94.0</ele><time>2026-04-24T08:29:34.001Z</time></trkpt><trkpt lat="-17.684554484984012" lon="123.07453415541998"><ele>93.0</ele><time>2026-04-24T08:29:35.001Z</time></trkpt><trkpt lat="-17.684435476775583" lon="123.0747833274786"><ele>93.5</ele><time>2026-04-24T08:29:36.001Z</time></trkpt><trkpt lat="-17.68431307733614" lon="123.07504123790197"><ele>94.0</ele><time>2026-04-24T08:29:37.001Z</time></trkpt><trkpt lat="-17.68418836556541" lon="123.07530044125043"><ele>94.0</ele><time>2026-04-24T08:29:38.001Z</time></trkpt><trkpt lat="-17.6840628596486" lon="123.07556671172445"><ele>94.0</ele><time>2026-04-24T08:29:39.001Z</time></trkpt><trkpt lat="-17.68393861132387" lon="123.0758312136991"><ele>93.5</ele><time>2026-04-24T08:29:40.001Z</time></trkpt><trkpt lat="-17.683809642532193" lon="123.07609325830587"><ele>93.0</ele><time>2026-04-24T08:29:41.001Z</time></trkpt><trkpt lat="-17.68367680044615" lon="123.0763555786853"><ele>93.0</ele><time>2026-04-24T08:29:42.001Z</time></trkpt><trkpt lat="-17.683547535383155" lon="123.07662028667455"><ele>93.0</ele><time>2026-04-24T08:29:43.001Z</time></trkpt><trkpt lat="-17.6834176032036" lon="123.07688962466143"><ele>93.0</ele><time>2026-04-24T08:29:44.001Z</time></trkpt><trkpt lat="-17.68328761171018" lon="123.07716013704113"><ele>93.0</ele><time>2026-04-24T08:29:45.001Z</time></trkpt><trkpt lat="-17.683158528183963" lon="123.07742911895812"><ele>93.0</ele><time>2026-04-24T08:29:46.001Z</time></trkpt><trkpt lat="-17.683030381118648" lon="123.07769685369001"><ele>93.0</ele><time>2026-04-24T08:29:47.001Z</time></trkpt><trkpt lat="-17.682902582668415" lon="123.077960111107"><ele>93.0</ele><time>2026-04-24T08:29:48.001Z</time></trkpt><trkpt lat="-17.682772465350283" lon="123.07822326164039"><ele>93.0</ele><time>2026-04-24T08:29:49.001Z</time></trkpt><trkpt lat="-17.682639409847546" lon="123.07848547191513"><ele>92.5</ele><time>2026-04-24T08:29:50.001Z</time></trkpt><trkpt lat="-17.682501076781566" lon="123.07874486747227"><ele>92.0</ele><time>2026-04-24T08:29:51.001Z</time></trkpt><trkpt lat="-17.682355449464122" lon="123.07899925389319"><ele>92.5</ele><time>2026-04-24T08:29:52.001Z</time></trkpt><trkpt lat="-17.682200197067885" lon="123.0792509920139"><ele>93.0</ele><time>2026-04-24T08:29:53.001Z</time></trkpt><trkpt lat="-17.682036305122566" lon="123.07949762552495"><ele>95.0</ele><time>2026-04-24T08:29:54.001Z</time></trkpt><trkpt lat="-17.68186402903509" lon="123.07973412251403"><ele>97.0</ele><time>2026-04-24T08:29:55.001Z</time></trkpt><trkpt lat="-17.681686180855955" lon="123.07996149510024"><ele>97.0</ele><time>2026-04-24T08:29:56.001Z</time></trkpt><trkpt lat="-17.681505103771524" lon="123.08018552783936"><ele>97.0</ele><time>2026-04-24T08:29:57.001Z</time></trkpt><trkpt lat="-17.681329366681297" lon="123.08040989332086"><ele>97.0</ele><time>2026-04-24T08:29:58.001Z</time></trkpt><trkpt lat="-17.681154126795818" lon="123.08064307405823"><ele>97.0</ele><time>2026-04-24T08:29:59.001Z</time></trkpt><trkpt lat="-17.68097992507936" lon="123.0808781972841"><ele>98.0</ele><time>2026-04-24T08:30:00.001Z</time></trkpt><trkpt lat="-17.68080410831071" lon="123.08111225393733"><ele>99.0</ele><time>2026-04-24T08:30:01.001Z</time></trkpt><trkpt lat="-17.68062742100034" lon="123.08134658941722"><ele>99.0</ele><time>2026-04-24T08:30:02.001Z</time></trkpt><trkpt lat="-17.680450846070435" lon="123.08158017362877"><ele>99.0</ele><time>2026-04-24T08:30:03.001Z</time></trkpt><trkpt lat="-17.68027231475249" lon="123.08181843639584"><ele>98.0</ele><time>2026-04-24T08:30:04.001Z</time></trkpt><trkpt lat="-17.680092601748317" lon="123.08205617644833"><ele>97.0</ele><time>2026-04-24T08:30:05.001Z</time></trkpt><trkpt lat="-17.679913153983737" lon="123.08229535412669"><ele>97.0</ele><time>2026-04-24T08:30:06.001Z</time></trkpt><trkpt lat="-17.679735364168376" lon="123.08253263914575"><ele>97.0</ele><time>2026-04-24T08:30:07.001Z</time></trkpt><trkpt lat="-17.67955854782152" lon="123.08277053196807"><ele>97.5</ele><time>2026-04-24T08:30:08.001Z</time></trkpt><trkpt lat="-17.67938038428777" lon="123.08300845083423"><ele>98.0</ele><time>2026-04-24T08:30:09.001Z</time></trkpt><trkpt lat="-17.679200598066263" lon="123.08324785567241"><ele>99.5</ele><time>2026-04-24T08:30:10.001Z</time></trkpt><trkpt lat="-17.679018658962377" lon="123.08348820137886"><ele>101.0</ele><time>2026-04-24T08:30:11.001Z</time></trkpt><trkpt lat="-17.67883651552274" lon="123.0837284323326"><ele>101.0</ele><time>2026-04-24T08:30:12.001Z</time></trkpt><trkpt lat="-17.678655256079555" lon="123.08396911318744"><ele>101.0</ele><time>2026-04-24T08:30:13.001Z</time></trkpt><trkpt lat="-17.67847350294425" lon="123.08420890676774"><ele>101.5</ele><time>2026-04-24T08:30:14.001Z</time></trkpt><trkpt lat="-17.678293679225362" lon="123.08444619376222"><ele>102.0</ele><time>2026-04-24T08:30:15.001Z</time></trkpt><trkpt lat="-17.678116466458338" lon="123.08468298826443"><ele>102.0</ele><time>2026-04-24T08:30:16.001Z</time></trkpt><trkpt lat="-17.677940941910546" lon="123.08492073875509"><ele>102.0</ele><time>2026-04-24T08:30:17.001Z</time></trkpt><trkpt lat="-17.677767972497264" lon="123.08515640405463"><ele>103.5</ele><time>2026-04-24T08:30:18.001Z</time></trkpt><trkpt lat="-17.677594769491755" lon="123.08539133984738"><ele>105.0</ele><time>2026-04-24T08:30:19.001Z</time></trkpt><trkpt lat="-17.677417512994325" lon="123.0856287133337"><ele>105.0</ele><time>2026-04-24T08:30:20.001Z</time></trkpt><trkpt lat="-17.677239571297296" lon="123.08586335569747"><ele>105.0</ele><time>2026-04-24T08:30:21.001Z</time></trkpt><trkpt lat="-17.67705905162109" lon="123.08609732364964"><ele>105.5</ele><time>2026-04-24T08:30:22.001Z</time></trkpt><trkpt lat="-17.676878474625465" lon="123.08633316323882"><ele>106.0</ele><time>2026-04-24T08:30:23.001Z</time></trkpt><trkpt lat="-17.6766995002747" lon="123.08656950357536"><ele>106.5</ele><time>2026-04-24T08:30:24.001Z</time></trkpt><trkpt lat="-17.676519727363544" lon="123.0868067576675"><ele>107.0</ele><time>2026-04-24T08:30:25.001Z</time></trkpt><trkpt lat="-17.676341198982612" lon="123.08704627547326"><ele>107.0</ele><time>2026-04-24T08:30:26.001Z</time></trkpt><trkpt lat="-17.676162946177215" lon="123.08728451229732"><ele>107.0</ele><time>2026-04-24T08:30:27.001Z</time></trkpt><trkpt lat="-17.675988270457" lon="123.08752222323295"><ele>107.0</ele><time>2026-04-24T08:30:28.001Z</time></trkpt><trkpt lat="-17.675825228581996" lon="123.08774514087922"><ele>107.0</ele><time>2026-04-24T08:30:29.001Z</time></trkpt><trkpt lat="-17.675670763232848" lon="123.08796807329809"><ele>107.0</ele><time>2026-04-24T08:30:30.001Z</time></trkpt><trkpt lat="-17.67552138287557" lon="123.088197938397"><ele>107.0</ele><time>2026-04-24T08:30:31.001Z</time></trkpt><trkpt lat="-17.675380457885588" lon="123.08843840383649"><ele>107.5</ele><time>2026-04-24T08:30:32.001Z</time></trkpt><trkpt lat="-17.67524958366937" lon="123.08869253372735"><ele>108.0</ele><time>2026-04-24T08:30:33.001Z</time></trkpt><trkpt lat="-17.67513010782091" lon="123.08895464397041"><ele>107.5</ele><time>2026-04-24T08:30:34.001Z</time></trkpt><trkpt lat="-17.67498027999561" lon="123.08920292718192"><ele>107.0</ele><time>2026-04-24T08:30:35.001Z</time></trkpt><trkpt lat="-17.67491950366634" lon="123.08950389002099"><ele>107.0</ele><time>2026-04-24T08:30:36.001Z</time></trkpt><trkpt lat="-17.674825734071185" lon="123.08978529505094"><ele>107.0</ele><time>2026-04-24T08:30:37.001Z</time></trkpt><trkpt lat="-17.674740881494845" lon="123.09007273958815"><ele>107.0</ele><time>2026-04-24T08:30:38.001Z</time></trkpt><trkpt lat="-17.67466778601458" lon="123.09036210598795"><ele>107.0</ele><time>2026-04-24T08:30:39.001Z</time></trkpt><trkpt lat="-17.674605961600776" lon="123.09065295738196"><ele>106.5</ele><time>2026-04-24T08:30:40.001Z</time></trkpt><trkpt lat="-17.674550476231772" lon="123.09094519059008"><ele>106.0</ele><time>2026-04-24T08:30:41.001Z</time></trkpt><trkpt lat="-17.67449630478773" lon="123.09123848440564"><ele>106.0</ele><time>2026-04-24T08:30:42.001Z</time></trkpt><trkpt lat="-17.674442101097863" lon="123.09153196138982"><ele>106.0</ele><time>2026-04-24T08:30:43.001Z</time></trkpt><trkpt lat="-17.67438679769042" lon="123.09182324277195"><ele>107.0</ele><time>2026-04-24T08:30:44.001Z</time></trkpt><trkpt lat="-17.67432648468179" lon="123.09211205764919"><ele>108.0</ele><time>2026-04-24T08:30:45.001Z</time></trkpt><trkpt lat="-17.674266193176866" lon="123.09240222755344"><ele>107.0</ele><time>2026-04-24T08:30:46.001Z</time></trkpt><trkpt lat="-17.67420653089327" lon="123.09269145654365"><ele>106.0</ele><time>2026-04-24T08:30:47.001Z</time></trkpt><trkpt lat="-17.674147110982847" lon="123.09298355182302"><ele>105.5</ele><time>2026-04-24T08:30:48.001Z</time></trkpt><trkpt lat="-17.674089638100515" lon="123.09327503847736"><ele>105.0</ele><time>2026-04-24T08:30:49.001Z</time></trkpt><trkpt lat="-17.674032572414255" lon="123.09356661743226"><ele>105.0</ele><time>2026-04-24T08:30:50.001Z</time></trkpt><trkpt lat="-17.67397533742232" lon="123.0938589388162"><ele>105.0</ele><time>2026-04-24T08:30:51.001Z</time></trkpt><trkpt lat="-17.673920676733662" lon="123.09415191356639"><ele>104.5</ele><time>2026-04-24T08:30:52.001Z</time></trkpt><trkpt lat="-17.673865437445308" lon="123.09444457824407"><ele>104.0</ele><time>2026-04-24T08:30:53.001Z</time></trkpt><trkpt lat="-17.67380954744609" lon="123.0947378058737"><ele>104.0</ele><time>2026-04-24T08:30:54.001Z</time></trkpt><trkpt lat="-17.673755514612683" lon="123.0950268434268"><ele>104.0</ele><time>2026-04-24T08:30:55.001Z</time></trkpt><trkpt lat="-17.673700206089546" lon="123.09531506148308"><ele>104.0</ele><time>2026-04-24T08:30:56.001Z</time></trkpt><trkpt lat="-17.673646008378523" lon="123.09560436668617"><ele>104.0</ele><time>2026-04-24T08:30:57.001Z</time></trkpt><trkpt lat="-17.673589442905" lon="123.0958943102088"><ele>103.5</ele><time>2026-04-24T08:30:58.001Z</time></trkpt><trkpt lat="-17.673533732792404" lon="123.09618514284938"><ele>103.0</ele><time>2026-04-24T08:30:59.001Z</time></trkpt><trkpt lat="-17.673476202803652" lon="123.09647686373334"><ele>103.0</ele><time>2026-04-24T08:31:00.001Z</time></trkpt><trkpt lat="-17.673417935603755" lon="123.09677061460894"><ele>103.0</ele><time>2026-04-24T08:31:01.001Z</time></trkpt><trkpt lat="-17.673356438231615" lon="123.09706630070883"><ele>103.0</ele><time>2026-04-24T08:31:02.001Z</time></trkpt><trkpt lat="-17.673290476474385" lon="123.09736078747814"><ele>103.0</ele><time>2026-04-24T08:31:03.001Z</time></trkpt><trkpt lat="-17.67321543784277" lon="123.09765415046401"><ele>102.5</ele><time>2026-04-24T08:31:04.001Z</time></trkpt><trkpt lat="-17.673128043116915" lon="123.09795017556783"><ele>102.0</ele><time>2026-04-24T08:31:05.001Z</time></trkpt><trkpt lat="-17.6730297362278" lon="123.09824158903702"><ele>101.5</ele><time>2026-04-24T08:31:06.001Z</time></trkpt><trkpt lat="-17.672920841154895" lon="123.09853356636586"><ele>101.0</ele><time>2026-04-24T08:31:07.001Z</time></trkpt><trkpt lat="-17.67280920580874" lon="123.0988208946101"><ele>100.5</ele><time>2026-04-24T08:31:08Z</time></trkpt><trkpt lat="-17.67268739653352" lon="123.09910778364835"><ele>100.0</ele><time>2026-04-24T08:31:09Z</time></trkpt><trkpt lat="-17.67256044310036" lon="123.09939013838816"><ele>100.0</ele><time>2026-04-24T08:31:10Z</time></trkpt><trkpt lat="-17.672428634006927" lon="123.09966551701571"><ele>100.0</ele><time>2026-04-24T08:31:11Z</time></trkpt><trkpt lat="-17.67229532424577" lon="123.09993891353733"><ele>98.5</ele><time>2026-04-24T08:31:12Z</time></trkpt><trkpt lat="-17.672158114440226" lon="123.10021217548416"><ele>97.0</ele><time>2026-04-24T08:31:13Z</time></trkpt><trkpt lat="-17.672023418809182" lon="123.10048008822163"><ele>97.0</ele><time>2026-04-24T08:31:14Z</time></trkpt><trkpt lat="-17.671896571591315" lon="123.10074438489978"><ele>97.0</ele><time>2026-04-24T08:31:15Z</time></trkpt><trkpt lat="-17.671772710560372" lon="123.10101442952245"><ele>95.5</ele><time>2026-04-24T08:31:16Z</time></trkpt><trkpt lat="-17.67165007459694" lon="123.10128438840755"><ele>94.0</ele><time>2026-04-24T08:31:17Z</time></trkpt><trkpt lat="-17.671526810745828" lon="123.10155241796845"><ele>94.0</ele><time>2026-04-24T08:31:18Z</time></trkpt><trkpt lat="-17.671396574385838" lon="123.10182219093353"><ele>94.0</ele><time>2026-04-24T08:31:19Z</time></trkpt><trkpt lat="-17.67125968038524" lon="123.10209584035223"><ele>94.0</ele><time>2026-04-24T08:31:20Z</time></trkpt><trkpt lat="-17.67112246119852" lon="123.10237304716034"><ele>94.0</ele><time>2026-04-24T08:31:21Z</time></trkpt><trkpt lat="-17.670983583714733" lon="123.10265176040707"><ele>93.5</ele><time>2026-04-24T08:31:22Z</time></trkpt><trkpt lat="-17.67084640323852" lon="123.1029306449666"><ele>93.0</ele><time>2026-04-24T08:31:23Z</time></trkpt><trkpt lat="-17.670710752440254" lon="123.1032102383266"><ele>91.5</ele><time>2026-04-24T08:31:24Z</time></trkpt><trkpt lat="-17.67057592044536" lon="123.10348915570101"><ele>90.0</ele><time>2026-04-24T08:31:25Z</time></trkpt><trkpt lat="-17.6704424280783" lon="123.1037688752747"><ele>90.0</ele><time>2026-04-24T08:31:26Z</time></trkpt><trkpt lat="-17.67030956784725" lon="123.10404735936011"><ele>90.0</ele><time>2026-04-24T08:31:27Z</time></trkpt><trkpt lat="-17.67017614290147" lon="123.10432589000396"><ele>88.5</ele><time>2026-04-24T08:31:28Z</time></trkpt><trkpt lat="-17.670042462555283" lon="123.1046042739786"><ele>87.0</ele><time>2026-04-24T08:31:29Z</time></trkpt><trkpt lat="-17.669909251852182" lon="123.10488406236477"><ele>87.5</ele><time>2026-04-24T08:31:30Z</time></trkpt><trkpt lat="-17.669779048522976" lon="123.10516120159402"><ele>88.0</ele><time>2026-04-24T08:31:31Z</time></trkpt><trkpt lat="-17.669643529329683" lon="123.10543923595648"><ele>88.0</ele><time>2026-04-24T08:31:32Z</time></trkpt><trkpt lat="-17.669508206167766" lon="123.10571689052036"><ele>88.0</ele><time>2026-04-24T08:31:33Z</time></trkpt><trkpt lat="-17.669372995935717" lon="123.10599488455244"><ele>87.0</ele><time>2026-04-24T08:31:34Z</time></trkpt><trkpt lat="-17.669237994177713" lon="123.1062725580295"><ele>86.0</ele><time>2026-04-24T08:31:35.001Z</time></trkpt><trkpt lat="-17.669103582804397" lon="123.10654943684914"><ele>85.5</ele><time>2026-04-24T08:31:36.001Z</time></trkpt><trkpt lat="-17.668972295635022" lon="123.10681653109664"><ele>85.0</ele><time>2026-04-24T08:31:37.001Z</time></trkpt><trkpt lat="-17.66884345822658" lon="123.10708441693372"><ele>85.0</ele><time>2026-04-24T08:31:38.001Z</time></trkpt><trkpt lat="-17.66871954284485" lon="123.10735234009087"><ele>85.0</ele><time>2026-04-24T08:31:39.001Z</time></trkpt><trkpt lat="-17.668592608429538" lon="123.10761941679625"><ele>85.5</ele><time>2026-04-24T08:31:40.001Z</time></trkpt><trkpt lat="-17.668462599878946" lon="123.10789008993976"><ele>86.0</ele><time>2026-04-24T08:31:41.001Z</time></trkpt><trkpt lat="-17.668331758116235" lon="123.10816368750812"><ele>86.5</ele><time>2026-04-24T08:31:42.001Z</time></trkpt><trkpt lat="-17.668198952820145" lon="123.10843908318002"><ele>87.0</ele><time>2026-04-24T08:31:43.001Z</time></trkpt><trkpt lat="-17.6680664769034" lon="123.10871407737997"><ele>87.0</ele><time>2026-04-24T08:31:44.001Z</time></trkpt><trkpt lat="-17.66793232579052" lon="123.10899078736932"><ele>87.0</ele><time>2026-04-24T08:31:45.001Z</time></trkpt><trkpt lat="-17.667797354252873" lon="123.10926985085256"><ele>86.5</ele><time>2026-04-24T08:31:46.001Z</time></trkpt><trkpt lat="-17.66766112087733" lon="123.10954834496602"><ele>86.0</ele><time>2026-04-24T08:31:47.001Z</time></trkpt><trkpt lat="-17.667526202073297" lon="123.10982677116009"><ele>86.5</ele><time>2026-04-24T08:31:48.001Z</time></trkpt><trkpt lat="-17.667390932704638" lon="123.11010451976361"><ele>87.0</ele><time>2026-04-24T08:31:49.001Z</time></trkpt><trkpt lat="-17.667258330219237" lon="123.11037937603125"><ele>87.0</ele><time>2026-04-24T08:31:50.001Z</time></trkpt><trkpt lat="-17.667130129220226" lon="123.11065319086873"><ele>87.0</ele><time>2026-04-24T08:31:51.001Z</time></trkpt><trkpt lat="-17.667003381148746" lon="123.11092310699891"><ele>87.0</ele><time>2026-04-24T08:31:52.001Z</time></trkpt><trkpt lat="-17.666872454630315" lon="123.11119622750485"><ele>87.0</ele><time>2026-04-24T08:31:53.001Z</time></trkpt><trkpt lat="-17.666744719286754" lon="123.11146412453412"><ele>86.0</ele><time>2026-04-24T08:31:54.001Z</time></trkpt><trkpt lat="-17.666618150008716" lon="123.11172977791949"><ele>85.0</ele><time>2026-04-24T08:31:55.001Z</time></trkpt><trkpt lat="-17.666489991885662" lon="123.11199189519733"><ele>85.0</ele><time>2026-04-24T08:31:56.001Z</time></trkpt><trkpt lat="-17.666359658268718" lon="123.11225604871893"><ele>85.0</ele><time>2026-04-24T08:31:57.001Z</time></trkpt><trkpt lat="-17.666229251264863" lon="123.11252228554183"><ele>85.0</ele><time>2026-04-24T08:31:58.001Z</time></trkpt><trkpt lat="-17.666099243083742" lon="123.11279270849417"><ele>85.0</ele><time>2026-04-24T08:31:59.001Z</time></trkpt><trkpt lat="-17.66597075724716" lon="123.11305956267209"><ele>85.0</ele><time>2026-04-24T08:32:00.001Z</time></trkpt><trkpt lat="-17.665841486393084" lon="123.11332667314704"><ele>85.0</ele><time>2026-04-24T08:32:01.001Z</time></trkpt><trkpt lat="-17.665712669600797" lon="123.11359304748241"><ele>85.0</ele><time>2026-04-24T08:32:02.001Z</time></trkpt><trkpt lat="-17.665581808181837" lon="123.11386646559157"><ele>85.0</ele><time>2026-04-24T08:32:03.001Z</time></trkpt><trkpt lat="-17.66544951352193" lon="123.11414227543241"><ele>85.0</ele><time>2026-04-24T08:32:04.001Z</time></trkpt><trkpt lat="-17.665315821266528" lon="123.11442025745089"><ele>85.0</ele><time>2026-04-24T08:32:05.001Z</time></trkpt><trkpt lat="-17.665182041777154" lon="123.11469893992816"><ele>85.0</ele><time>2026-04-24T08:32:06.001Z</time></trkpt><trkpt lat="-17.66504919495608" lon="123.11497588600389"><ele>85.0</ele><time>2026-04-24T08:32:07.001Z</time></trkpt><trkpt lat="-17.66491686948784" lon="123.11525569661309"><ele>85.0</ele><time>2026-04-24T08:32:08.001Z</time></trkpt><trkpt lat="-17.664786510594286" lon="123.11553470508315"><ele>85.0</ele><time>2026-04-24T08:32:09.001Z</time></trkpt><trkpt lat="-17.664660010714325" lon="123.11581001732476"><ele>85.0</ele><time>2026-04-24T08:32:10.001Z</time></trkpt><trkpt lat="-17.664531361700494" lon="123.11608227732388"><ele>85.0</ele><time>2026-04-24T08:32:11.001Z</time></trkpt><trkpt lat="-17.664398052012565" lon="123.11635446137626"><ele>85.0</ele><time>2026-04-24T08:32:12.001Z</time></trkpt><trkpt lat="-17.66426187875988" lon="123.11662578644231"><ele>85.0</ele><time>2026-04-24T08:32:13.001Z</time></trkpt><trkpt lat="-17.664126466222" lon="123.1168996232831"><ele>85.0</ele><time>2026-04-24T08:32:14.001Z</time></trkpt><trkpt lat="-17.663992260656357" lon="123.1171714908133"><ele>85.0</ele><time>2026-04-24T08:32:15.001Z</time></trkpt><trkpt lat="-17.663859144048377" lon="123.11744447767916"><ele>86.0</ele><time>2026-04-24T08:32:16.001Z</time></trkpt><trkpt lat="-17.66372566854486" lon="123.11771774425502"><ele>87.0</ele><time>2026-04-24T08:32:17.001Z</time></trkpt><trkpt lat="-17.66359514477543" lon="123.11798951666114"><ele>87.0</ele><time>2026-04-24T08:32:18.001Z</time></trkpt><trkpt lat="-17.663467148071575" lon="123.11826094636203"><ele>87.0</ele><time>2026-04-24T08:32:19.001Z</time></trkpt><trkpt lat="-17.663341011408107" lon="123.11852596061547"><ele>87.0</ele><time>2026-04-24T08:32:20.001Z</time></trkpt><trkpt lat="-17.663213525904553" lon="123.11879583440256"><ele>87.0</ele><time>2026-04-24T08:32:21.001Z</time></trkpt><trkpt lat="-17.663082980905845" lon="123.11906715972609"><ele>86.5</ele><time>2026-04-24T08:32:22.001Z</time></trkpt><trkpt lat="-17.66295436185564" lon="123.11933279305546"><ele>86.0</ele><time>2026-04-24T08:32:23.001Z</time></trkpt><trkpt lat="-17.66282948316322" lon="123.11958833552842"><ele>86.0</ele><time>2026-04-24T08:32:24.001Z</time></trkpt><trkpt lat="-17.662706473595346" lon="123.11983488924302"><ele>86.0</ele><time>2026-04-24T08:32:25.001Z</time></trkpt><trkpt lat="-17.66258022473127" lon="123.12009246009566"><ele>86.0</ele><time>2026-04-24T08:32:26.001Z</time></trkpt><trkpt lat="-17.662449103086708" lon="123.12036073641542"><ele>86.0</ele><time>2026-04-24T08:32:27.001Z</time></trkpt><trkpt lat="-17.662318718789745" lon="123.12063335388254"><ele>86.5</ele><time>2026-04-24T08:32:28.001Z</time></trkpt><trkpt lat="-17.66218690749837" lon="123.12091341654279"><ele>87.0</ele><time>2026-04-24T08:32:29.001Z</time></trkpt><trkpt lat="-17.662053595826105" lon="123.1211944823827"><ele>86.5</ele><time>2026-04-24T08:32:30.001Z</time></trkpt><trkpt lat="-17.661918059587812" lon="123.12148002372145"><ele>86.0</ele><time>2026-04-24T08:32:31.001Z</time></trkpt><trkpt lat="-17.661781914667344" lon="123.12176523136014"><ele>86.0</ele><time>2026-04-24T08:32:32.001Z</time></trkpt><trkpt lat="-17.66164639417529" lon="123.12204731587114"><ele>86.0</ele><time>2026-04-24T08:32:33.001Z</time></trkpt><trkpt lat="-17.66151245685241" lon="123.12232986069978"><ele>86.0</ele><time>2026-04-24T08:32:34.001Z</time></trkpt><trkpt lat="-17.661380833446717" lon="123.12260792879412"><ele>86.0</ele><time>2026-04-24T08:32:35.001Z</time></trkpt><trkpt lat="-17.661248440703194" lon="123.12288323928163"><ele>86.0</ele><time>2026-04-24T08:32:36.001Z</time></trkpt><trkpt lat="-17.66111427691459" lon="123.12315810956873"><ele>86.0</ele><time>2026-04-24T08:32:37.001Z</time></trkpt><trkpt lat="-17.660980026179917" lon="123.12343083898982"><ele>86.0</ele><time>2026-04-24T08:32:38.001Z</time></trkpt><trkpt lat="-17.660846261514386" lon="123.12370140705416"><ele>86.0</ele><time>2026-04-24T08:32:39.001Z</time></trkpt><trkpt lat="-17.6607129601849" lon="123.12397364294853"><ele>86.0</ele><time>2026-04-24T08:32:40.001Z</time></trkpt><trkpt lat="-17.660580836712906" lon="123.12424828145161"><ele>86.0</ele><time>2026-04-24T08:32:41.001Z</time></trkpt><trkpt lat="-17.660449589828" lon="123.12452148127733"><ele>86.0</ele><time>2026-04-24T08:32:42.001Z</time></trkpt><trkpt lat="-17.66031912577217" lon="123.12479279990445"><ele>86.0</ele><time>2026-04-24T08:32:43.001Z</time></trkpt><trkpt lat="-17.660188484970643" lon="123.12506318278963"><ele>86.5</ele><time>2026-04-24T08:32:44.001Z</time></trkpt><trkpt lat="-17.660057889648662" lon="123.12533524030292"><ele>87.0</ele><time>2026-04-24T08:32:45.001Z</time></trkpt><trkpt lat="-17.659927752252152" lon="123.12560745992108"><ele>86.0</ele><time>2026-04-24T08:32:46.001Z</time></trkpt><trkpt lat="-17.659797715762522" lon="123.1258807066512"><ele>85.0</ele><time>2026-04-24T08:32:47.001Z</time></trkpt><trkpt lat="-17.659667839900496" lon="123.12615329984959"><ele>85.0</ele><time>2026-04-24T08:32:48.001Z</time></trkpt><trkpt lat="-17.65953609282199" lon="123.12642790674992"><ele>85.0</ele><time>2026-04-24T08:32:49.001Z</time></trkpt><trkpt lat="-17.65940234260472" lon="123.12670226622096"><ele>85.5</ele><time>2026-04-24T08:32:50.001Z</time></trkpt><trkpt lat="-17.659269679180085" lon="123.1269771004292"><ele>86.0</ele><time>2026-04-24T08:32:51.001Z</time></trkpt><trkpt lat="-17.659136173098968" lon="123.12725437674335"><ele>85.5</ele><time>2026-04-24T08:32:52.001Z</time></trkpt><trkpt lat="-17.65900409436965" lon="123.1275300314604"><ele>85.0</ele><time>2026-04-24T08:32:53.001Z</time></trkpt><trkpt lat="-17.65887112381066" lon="123.12780592861202"><ele>85.0</ele><time>2026-04-24T08:32:54.001Z</time></trkpt><trkpt lat="-17.658737598262828" lon="123.12808433642317"><ele>85.0</ele><time>2026-04-24T08:32:55.001Z</time></trkpt><trkpt lat="-17.658603226345832" lon="123.12836288124586"><ele>84.0</ele><time>2026-04-24T08:32:56.001Z</time></trkpt><trkpt lat="-17.658467128772607" lon="123.12864551735743"><ele>83.0</ele><time>2026-04-24T08:32:57.001Z</time></trkpt><trkpt lat="-17.658332933446932" lon="123.12892689816297"><ele>82.5</ele><time>2026-04-24T08:32:58.001Z</time></trkpt><trkpt lat="-17.658196030126675" lon="123.1292111831562"><ele>82.0</ele><time>2026-04-24T08:32:59.001Z</time></trkpt><trkpt lat="-17.658059196536225" lon="123.12948967697741"><ele>82.0</ele><time>2026-04-24T08:33:00.001Z</time></trkpt><trkpt lat="-17.657923212500044" lon="123.12976857778989"><ele>82.0</ele><time>2026-04-24T08:33:01.001Z</time></trkpt><trkpt lat="-17.65778961755981" lon="123.13004832676974"><ele>83.5</ele><time>2026-04-24T08:33:02.001Z</time></trkpt><trkpt lat="-17.657655266149792" lon="123.13032881052212"><ele>85.0</ele><time>2026-04-24T08:33:03.001Z</time></trkpt><trkpt lat="-17.657519493486046" lon="123.13060889612476"><ele>84.5</ele><time>2026-04-24T08:33:04.001Z</time></trkpt><trkpt lat="-17.65738484284078" lon="123.13088905458594"><ele>84.0</ele><time>2026-04-24T08:33:05.001Z</time></trkpt><trkpt lat="-17.657248365872697" lon="123.1311716658006"><ele>84.0</ele><time>2026-04-24T08:33:06.001Z</time></trkpt><trkpt lat="-17.657110429530917" lon="123.13145458830918"><ele>84.0</ele><time>2026-04-24T08:33:07.001Z</time></trkpt><trkpt lat="-17.656972880465553" lon="123.13173841261705"><ele>84.0</ele><time>2026-04-24T08:33:08.001Z</time></trkpt><trkpt lat="-17.656838458559545" lon="123.1320206562755"><ele>84.0</ele><time>2026-04-24T08:33:09.001Z</time></trkpt><trkpt lat="-17.65670112494241" lon="123.13230614578688"><ele>82.5</ele><time>2026-04-24T08:33:10.001Z</time></trkpt><trkpt lat="-17.656565305820198" lon="123.13258980801929"><ele>81.0</ele><time>2026-04-24T08:33:11.001Z</time></trkpt><trkpt lat="-17.656428650191316" lon="123.13287167252042"><ele>81.0</ele><time>2026-04-24T08:33:12.001Z</time></trkpt><trkpt lat="-17.65629219984106" lon="123.13315326174387"><ele>81.0</ele><time>2026-04-24T08:33:13.001Z</time></trkpt><trkpt lat="-17.656155775210966" lon="123.13343692984613"><ele>82.5</ele><time>2026-04-24T08:33:14Z</time></trkpt><trkpt lat="-17.656021916357048" lon="123.13371661640683"><ele>84.0</ele><time>2026-04-24T08:33:15Z</time></trkpt><trkpt lat="-17.655888026938776" lon="123.13399795581417"><ele>82.5</ele><time>2026-04-24T08:33:16Z</time></trkpt><trkpt lat="-17.655755441272333" lon="123.13427620773707"><ele>81.0</ele><time>2026-04-24T08:33:17Z</time></trkpt><trkpt lat="-17.655619272869306" lon="123.13455565281402"><ele>81.0</ele><time>2026-04-24T08:33:18Z</time></trkpt><trkpt lat="-17.655482340941973" lon="123.13483557044435"><ele>81.0</ele><time>2026-04-24T08:33:19Z</time></trkpt><trkpt lat="-17.655347696288807" lon="123.13511425877806"><ele>81.5</ele><time>2026-04-24T08:33:20Z</time></trkpt><trkpt lat="-17.655213552053542" lon="123.13539304930073"><ele>82.0</ele><time>2026-04-24T08:33:21Z</time></trkpt><trkpt lat="-17.655079555879038" lon="123.13567190091288"><ele>81.5</ele><time>2026-04-24T08:33:22Z</time></trkpt><trkpt lat="-17.654948116386073" lon="123.1359487570657"><ele>81.0</ele><time>2026-04-24T08:33:23Z</time></trkpt><trkpt lat="-17.6548150964905" lon="123.13622622195176"><ele>81.0</ele><time>2026-04-24T08:33:24Z</time></trkpt><trkpt lat="-17.654682134583428" lon="123.13650376558266"><ele>81.0</ele><time>2026-04-24T08:33:25Z</time></trkpt><trkpt lat="-17.654548336227982" lon="123.13678213961585"><ele>81.5</ele><time>2026-04-24T08:33:26Z</time></trkpt><trkpt lat="-17.654414041045644" lon="123.13706038570255"><ele>82.0</ele><time>2026-04-24T08:33:27Z</time></trkpt><trkpt lat="-17.6542791645982" lon="123.13733816939067"><ele>81.5</ele><time>2026-04-24T08:33:28Z</time></trkpt><trkpt lat="-17.654146371235722" lon="123.13761372574179"><ele>81.0</ele><time>2026-04-24T08:33:29Z</time></trkpt><trkpt lat="-17.65401431971531" lon="123.13789022405894"><ele>81.0</ele><time>2026-04-24T08:33:30Z</time></trkpt><trkpt lat="-17.653883311010514" lon="123.13816583467927"><ele>81.0</ele><time>2026-04-24T08:33:31Z</time></trkpt><trkpt lat="-17.653749885918625" lon="123.13844163317279"><ele>81.0</ele><time>2026-04-24T08:33:32Z</time></trkpt><trkpt lat="-17.65361533761811" lon="123.138717875175"><ele>81.0</ele><time>2026-04-24T08:33:33Z</time></trkpt><trkpt lat="-17.653480324647653" lon="123.13899456307608"><ele>81.0</ele><time>2026-04-24T08:33:34Z</time></trkpt><trkpt lat="-17.65334681644397" lon="123.13927136908889"><ele>81.0</ele><time>2026-04-24T08:33:35Z</time></trkpt><trkpt lat="-17.653213680282217" lon="123.13955020680415"><ele>81.0</ele><time>2026-04-24T08:33:36Z</time></trkpt><trkpt lat="-17.65308088001683" lon="123.1398296198718"><ele>81.0</ele><time>2026-04-24T08:33:37Z</time></trkpt><trkpt lat="-17.65294944525643" lon="123.14010809752139"><ele>80.5</ele><time>2026-04-24T08:33:38Z</time></trkpt><trkpt lat="-17.652817096013457" lon="123.14038848130515"><ele>80.0</ele><time>2026-04-24T08:33:39Z</time></trkpt><trkpt lat="-17.65268355698992" lon="123.14066743320915"><ele>79.0</ele><time>2026-04-24T08:33:40Z</time></trkpt><trkpt lat="-17.652550116132407" lon="123.14094551593497"><ele>78.0</ele><time>2026-04-24T08:33:41.001Z</time></trkpt><trkpt lat="-17.65241605527681" lon="123.1412243466847"><ele>78.0</ele><time>2026-04-24T08:33:42.001Z</time></trkpt><trkpt lat="-17.652284048029916" lon="123.1415037464325"><ele>78.0</ele><time>2026-04-24T08:33:43.001Z</time></trkpt><trkpt lat="-17.652017892324672" lon="123.14205887994383"><ele>78.5</ele><time>2026-04-24T08:33:45.001Z</time></trkpt><trkpt lat="-17.651884838499118" lon="123.1423365346698"><ele>79.0</ele><time>2026-04-24T08:33:46.001Z</time></trkpt><trkpt lat="-17.651753641174775" lon="123.14261053414123"><ele>79.0</ele><time>2026-04-24T08:33:47.001Z</time></trkpt><trkpt lat="-17.651620634186166" lon="123.14288329423594"><ele>79.0</ele><time>2026-04-24T08:33:48.001Z</time></trkpt><trkpt lat="-17.651486474366674" lon="123.14315570492258"><ele>79.0</ele><time>2026-04-24T08:33:49.001Z</time></trkpt><trkpt lat="-17.65135573986279" lon="123.14342445700032"><ele>79.0</ele><time>2026-04-24T08:33:50.001Z</time></trkpt><trkpt lat="-17.65122758313896" lon="123.14369277183943"><ele>79.0</ele><time>2026-04-24T08:33:51.001Z</time></trkpt><trkpt lat="-17.651099133481303" lon="123.14395752531493"><ele>79.0</ele><time>2026-04-24T08:33:52.001Z</time></trkpt><trkpt lat="-17.650969886185855" lon="123.1442224668496"><ele>79.0</ele><time>2026-04-24T08:33:53.001Z</time></trkpt><trkpt lat="-17.65083981241751" lon="123.1444892509856"><ele>79.0</ele><time>2026-04-24T08:33:54.001Z</time></trkpt><trkpt lat="-17.650708532267327" lon="123.14476011046895"><ele>79.0</ele><time>2026-04-24T08:33:55.001Z</time></trkpt><trkpt lat="-17.650577371015313" lon="123.14503084259712"><ele>79.0</ele><time>2026-04-24T08:33:56.001Z</time></trkpt><trkpt lat="-17.65044399682593" lon="123.14530503823592"><ele>79.0</ele><time>2026-04-24T08:33:57.001Z</time></trkpt><trkpt lat="-17.650311069529575" lon="123.14557870558433"><ele>79.0</ele><time>2026-04-24T08:33:58.001Z</time></trkpt><trkpt lat="-17.650179403823113" lon="123.14584994469911"><ele>78.5</ele><time>2026-04-24T08:33:59.001Z</time></trkpt><trkpt lat="-17.65004689230715" lon="123.14612513792315"><ele>78.0</ele><time>2026-04-24T08:34:00.001Z</time></trkpt><trkpt lat="-17.64991654949301" lon="123.14640070843733"><ele>78.0</ele><time>2026-04-24T08:34:01.001Z</time></trkpt><trkpt lat="-17.64978504004637" lon="123.14667499411529"><ele>78.0</ele><time>2026-04-24T08:34:02.001Z</time></trkpt><trkpt lat="-17.649654478124734" lon="123.14694778542041"><ele>78.0</ele><time>2026-04-24T08:34:03.001Z</time></trkpt><trkpt lat="-17.649525761010416" lon="123.1472195294018"><ele>78.0</ele><time>2026-04-24T08:34:04.001Z</time></trkpt><trkpt lat="-17.649398440622452" lon="123.14748869871482"><ele>77.0</ele><time>2026-04-24T08:34:05.001Z</time></trkpt><trkpt lat="-17.649271112262305" lon="123.14775512912543"><ele>76.0</ele><time>2026-04-24T08:34:06.001Z</time></trkpt><trkpt lat="-17.64914299309616" lon="123.14801907041725"><ele>77.0</ele><time>2026-04-24T08:34:07.001Z</time></trkpt><trkpt lat="-17.649015203447235" lon="123.1482837477625"><ele>78.0</ele><time>2026-04-24T08:34:08.001Z</time></trkpt><trkpt lat="-17.648886980637805" lon="123.14854776720557"><ele>78.0</ele><time>2026-04-24T08:34:09.001Z</time></trkpt><trkpt lat="-17.648760888426636" lon="123.14881116669736"><ele>78.0</ele><time>2026-04-24T08:34:10.001Z</time></trkpt><trkpt lat="-17.64863608099647" lon="123.14907097942432"><ele>78.0</ele><time>2026-04-24T08:34:11.001Z</time></trkpt><trkpt lat="-17.64851163494049" lon="123.14933137571542"><ele>78.0</ele><time>2026-04-24T08:34:12.001Z</time></trkpt><trkpt lat="-17.648387130506485" lon="123.14959295344703"><ele>78.0</ele><time>2026-04-24T08:34:13.001Z</time></trkpt><trkpt lat="-17.648263035548197" lon="123.14985369176247"><ele>78.0</ele><time>2026-04-24T08:34:14.001Z</time></trkpt><trkpt lat="-17.648137004781425" lon="123.15011450752057"><ele>76.0</ele><time>2026-04-24T08:34:15.001Z</time></trkpt><trkpt lat="-17.64801274129622" lon="123.15037475281972"><ele>74.0</ele><time>2026-04-24T08:34:16.001Z</time></trkpt><trkpt lat="-17.647887701453055" lon="123.15063331383931"><ele>74.0</ele><time>2026-04-24T08:34:17.001Z</time></trkpt><trkpt lat="-17.64776633735338" lon="123.15089022899669"><ele>74.0</ele><time>2026-04-24T08:34:18.001Z</time></trkpt><trkpt lat="-17.647642857796328" lon="123.15114853074607"><ele>74.0</ele><time>2026-04-24T08:34:19.001Z</time></trkpt><trkpt lat="-17.64751665594712" lon="123.15140764392868"><ele>74.0</ele><time>2026-04-24T08:34:20.001Z</time></trkpt><trkpt lat="-17.647389133574787" lon="123.15166924245936"><ele>73.5</ele><time>2026-04-24T08:34:21.001Z</time></trkpt><trkpt lat="-17.647262513722424" lon="123.15193411980061"><ele>73.0</ele><time>2026-04-24T08:34:22.001Z</time></trkpt><trkpt lat="-17.647137668620882" lon="123.15219975550096"><ele>72.5</ele><time>2026-04-24T08:34:23.001Z</time></trkpt><trkpt lat="-17.647008919486694" lon="123.15246821942922"><ele>72.0</ele><time>2026-04-24T08:34:24.001Z</time></trkpt><trkpt lat="-17.646877322004674" lon="123.15273429441888"><ele>72.0</ele><time>2026-04-24T08:34:25.001Z</time></trkpt><trkpt lat="-17.64674520734189" lon="123.1529997143308"><ele>72.0</ele><time>2026-04-24T08:34:26.001Z</time></trkpt><trkpt lat="-17.64661633608363" lon="123.15326175030019"><ele>72.0</ele><time>2026-04-24T08:34:27.001Z</time></trkpt><trkpt lat="-17.64648889862803" lon="123.15352838503803"><ele>72.0</ele><time>2026-04-24T08:34:28.001Z</time></trkpt><trkpt lat="-17.646362419926998" lon="123.15379577217534"><ele>72.0</ele><time>2026-04-24T08:34:29.001Z</time></trkpt><trkpt lat="-17.646234366428338" lon="123.15406510884989"><ele>72.0</ele><time>2026-04-24T08:34:30.001Z</time></trkpt><trkpt lat="-17.646105614251223" lon="123.15433289660032"><ele>72.0</ele><time>2026-04-24T08:34:31.001Z</time></trkpt><trkpt lat="-17.645983687506817" lon="123.15458474639848"><ele>72.0</ele><time>2026-04-24T08:34:32.001Z</time></trkpt><trkpt lat="-17.645861044956256" lon="123.15483194477332"><ele>71.5</ele><time>2026-04-24T08:34:33.001Z</time></trkpt><trkpt lat="-17.645734008454962" lon="123.15509302239427"><ele>71.0</ele><time>2026-04-24T08:34:34.001Z</time></trkpt><trkpt lat="-17.645603073815824" lon="123.1553613760634"><ele>71.0</ele><time>2026-04-24T08:34:35.001Z</time></trkpt><trkpt lat="-17.645474682435626" lon="123.15563220036861"><ele>71.0</ele><time>2026-04-24T08:34:36.001Z</time></trkpt><trkpt lat="-17.645345777265796" lon="123.1558989180817"><ele>69.5</ele><time>2026-04-24T08:34:37.001Z</time></trkpt><trkpt lat="-17.645213519330813" lon="123.15617068068103"><ele>68.0</ele><time>2026-04-24T08:34:38.001Z</time></trkpt><trkpt lat="-17.645082679113663" lon="123.15644050507467"><ele>68.5</ele><time>2026-04-24T08:34:39.001Z</time></trkpt><trkpt lat="-17.644950025594678" lon="123.15671300742828"><ele>69.0</ele><time>2026-04-24T08:34:40.001Z</time></trkpt><trkpt lat="-17.644818734399987" lon="123.15698839461638"><ele>69.0</ele><time>2026-04-24T08:34:41.001Z</time></trkpt><trkpt lat="-17.64468794308918" lon="123.15726382702512"><ele>69.0</ele><time>2026-04-24T08:34:42.001Z</time></trkpt><trkpt lat="-17.64455673960512" lon="123.15753854944083"><ele>68.5</ele><time>2026-04-24T08:34:43.001Z</time></trkpt><trkpt lat="-17.644426185239563" lon="123.15780814587251"><ele>68.0</ele><time>2026-04-24T08:34:44.001Z</time></trkpt><trkpt lat="-17.644296082988795" lon="123.15807918334188"><ele>68.0</ele><time>2026-04-24T08:34:45.001Z</time></trkpt><trkpt lat="-17.644163918528207" lon="123.15835412137353"><ele>68.0</ele><time>2026-04-24T08:34:46.001Z</time></trkpt><trkpt lat="-17.644032137027803" lon="123.15863011167902"><ele>68.0</ele><time>2026-04-24T08:34:47.001Z</time></trkpt><trkpt lat="-17.64389905803003" lon="123.1589027595295"><ele>68.0</ele><time>2026-04-24T08:34:48.001Z</time></trkpt><trkpt lat="-17.643765319502737" lon="123.1591768144725"><ele>68.0</ele><time>2026-04-24T08:34:49.001Z</time></trkpt><trkpt lat="-17.64363431244035" lon="123.15945273241876"><ele>68.0</ele><time>2026-04-24T08:34:50.001Z</time></trkpt><trkpt lat="-17.643502870313416" lon="123.1597238939678"><ele>67.0</ele><time>2026-04-24T08:34:51.001Z</time></trkpt><trkpt lat="-17.643369046112877" lon="123.1599979044505"><ele>66.0</ele><time>2026-04-24T08:34:52.001Z</time></trkpt><trkpt lat="-17.643236298532088" lon="123.16027124734016"><ele>66.0</ele><time>2026-04-24T08:34:53.001Z</time></trkpt><trkpt lat="-17.643105017212854" lon="123.16054540369458"><ele>66.0</ele><time>2026-04-24T08:34:54.001Z</time></trkpt><trkpt lat="-17.642974384316805" lon="123.16082153321283"><ele>66.0</ele><time>2026-04-24T08:34:55.001Z</time></trkpt><trkpt lat="-17.64284271473682" lon="123.16109701086285"><ele>66.0</ele><time>2026-04-24T08:34:56.001Z</time></trkpt><trkpt lat="-17.642708658729074" lon="123.16137519139127"><ele>65.5</ele><time>2026-04-24T08:34:57.001Z</time></trkpt><trkpt lat="-17.642573791669257" lon="123.16165233515969"><ele>65.0</ele><time>2026-04-24T08:34:58.001Z</time></trkpt><trkpt lat="-17.642440130838175" lon="123.16193000439165"><ele>65.0</ele><time>2026-04-24T08:34:59.001Z</time></trkpt><trkpt lat="-17.64230804866461" lon="123.16220599429342"><ele>65.0</ele><time>2026-04-24T08:35:00.001Z</time></trkpt><trkpt lat="-17.64217987832749" lon="123.16248242279052"><ele>65.0</ele><time>2026-04-24T08:35:01.001Z</time></trkpt><trkpt lat="-17.64205241198811" lon="123.1627564280001"><ele>65.0</ele><time>2026-04-24T08:35:02.001Z</time></trkpt><trkpt lat="-17.641920701165294" lon="123.16302975323482"><ele>62.5</ele><time>2026-04-24T08:35:03.001Z</time></trkpt><trkpt lat="-17.64178831618866" lon="123.16329961440977"><ele>60.0</ele><time>2026-04-24T08:35:04.001Z</time></trkpt><trkpt lat="-17.64165750924186" lon="123.16356992444177"><ele>60.0</ele><time>2026-04-24T08:35:05.001Z</time></trkpt><trkpt lat="-17.64152763880742" lon="123.16383974252882"><ele>60.0</ele><time>2026-04-24T08:35:06.001Z</time></trkpt><trkpt lat="-17.64139852208753" lon="123.16410841000052"><ele>60.5</ele><time>2026-04-24T08:35:07.001Z</time></trkpt><trkpt lat="-17.641272028563176" lon="123.16437856938084"><ele>61.0</ele><time>2026-04-24T08:35:08.001Z</time></trkpt><trkpt lat="-17.641149730128152" lon="123.16465405602716"><ele>60.5</ele><time>2026-04-24T08:35:09.001Z</time></trkpt><trkpt lat="-17.641034048387386" lon="123.16493609887573"><ele>60.0</ele><time>2026-04-24T08:35:10.001Z</time></trkpt><trkpt lat="-17.640930209407212" lon="123.16522297231657"><ele>60.0</ele><time>2026-04-24T08:35:11.001Z</time></trkpt><trkpt lat="-17.64083708253993" lon="123.16551705062876"><ele>60.0</ele><time>2026-04-24T08:35:12.001Z</time></trkpt><trkpt lat="-17.64075805524363" lon="123.16581357243713"><ele>59.0</ele><time>2026-04-24T08:35:13.001Z</time></trkpt><trkpt lat="-17.640690493853903" lon="123.16611483765558"><ele>58.0</ele><time>2026-04-24T08:35:14.001Z</time></trkpt><trkpt lat="-17.64063827568872" lon="123.16641602874323"><ele>57.5</ele><time>2026-04-24T08:35:15.001Z</time></trkpt><trkpt lat="-17.640601188409075" lon="123.16671985070424"><ele>57.0</ele><time>2026-04-24T08:35:16.001Z</time></trkpt><trkpt lat="-17.640577769082075" lon="123.16702175697458"><ele>57.0</ele><time>2026-04-24T08:35:17.001Z</time></trkpt><trkpt lat="-17.64056715499329" lon="123.16732500218673"><ele>57.0</ele><time>2026-04-24T08:35:18.001Z</time></trkpt><trkpt lat="-17.640569420018" lon="123.16762780762204"><ele>57.0</ele><time>2026-04-24T08:35:19.001Z</time></trkpt><trkpt lat="-17.640582355825128" lon="123.1679301299596"><ele>57.0</ele><time>2026-04-24T08:35:20.001Z</time></trkpt><trkpt lat="-17.640606730303006" lon="123.16823072536462"><ele>57.0</ele><time>2026-04-24T08:35:21.001Z</time></trkpt><trkpt lat="-17.64064105998362" lon="123.1685283274928"><ele>57.0</ele><time>2026-04-24T08:35:22.001Z</time></trkpt><trkpt lat="-17.640684463796585" lon="123.16882444502724"><ele>56.5</ele><time>2026-04-24T08:35:23.001Z</time></trkpt><trkpt lat="-17.640737260196204" lon="123.169117018102"><ele>56.0</ele><time>2026-04-24T08:35:24.001Z</time></trkpt><trkpt lat="-17.640793984208738" lon="123.16940706777382"><ele>56.0</ele><time>2026-04-24T08:35:25.001Z</time></trkpt><trkpt lat="-17.64084685915793" lon="123.16970175518979"><ele>56.0</ele><time>2026-04-24T08:35:26.001Z</time></trkpt><trkpt lat="-17.640894895464957" lon="123.16999646753747"><ele>55.5</ele><time>2026-04-24T08:35:27.001Z</time></trkpt><trkpt lat="-17.640943641690626" lon="123.17028936723051"><ele>55.0</ele><time>2026-04-24T08:35:28.001Z</time></trkpt><trkpt lat="-17.64099377702787" lon="123.17058176934486"><ele>55.0</ele><time>2026-04-24T08:35:29.001Z</time></trkpt><trkpt lat="-17.64104310515415" lon="123.17087580672148"><ele>55.0</ele><time>2026-04-24T08:35:30.001Z</time></trkpt><trkpt lat="-17.64109118346065" lon="123.17116692767117"><ele>55.0</ele><time>2026-04-24T08:35:31.001Z</time></trkpt><trkpt lat="-17.641138166410958" lon="123.17145808847579"><ele>55.0</ele><time>2026-04-24T08:35:32.001Z</time></trkpt><trkpt lat="-17.641184719459847" lon="123.17174756621138"><ele>55.0</ele><time>2026-04-24T08:35:33Z</time></trkpt><trkpt lat="-17.64123081107711" lon="123.17203649022929"><ele>55.0</ele><time>2026-04-24T08:35:34Z</time></trkpt><trkpt lat="-17.641278032830726" lon="123.17232378253962"><ele>55.0</ele><time>2026-04-24T08:35:35Z</time></trkpt><trkpt lat="-17.641327210405993" lon="123.1726145698344"><ele>55.0</ele><time>2026-04-24T08:35:36.001Z</time></trkpt><trkpt lat="-17.641376029807866" lon="123.17290316595545"><ele>54.0</ele><time>2026-04-24T08:35:37.001Z</time></trkpt><trkpt lat="-17.641423319819154" lon="123.17319188197872"><ele>53.0</ele><time>2026-04-24T08:35:38.001Z</time></trkpt><trkpt lat="-17.64147152341184" lon="123.17348000331059"><ele>53.0</ele><time>2026-04-24T08:35:39.001Z</time></trkpt><trkpt lat="-17.641520106263993" lon="123.1737689062482"><ele>53.0</ele><time>2026-04-24T08:35:40.001Z</time></trkpt><trkpt lat="-17.641568437254985" lon="123.17406184565615"><ele>54.0</ele><time>2026-04-24T08:35:41.001Z</time></trkpt><trkpt lat="-17.641618440263215" lon="123.17435442586489"><ele>55.0</ele><time>2026-04-24T08:35:42.001Z</time></trkpt><trkpt lat="-17.64166809181886" lon="123.17464872463934"><ele>54.0</ele><time>2026-04-24T08:35:43.001Z</time></trkpt><trkpt lat="-17.641716769252174" lon="123.1749412986968"><ele>53.0</ele><time>2026-04-24T08:35:44.001Z</time></trkpt><trkpt lat="-17.641765961582944" lon="123.17523376282638"><ele>53.0</ele><time>2026-04-24T08:35:45.001Z</time></trkpt><trkpt lat="-17.641814837036954" lon="123.17552575940785"><ele>53.0</ele><time>2026-04-24T08:35:46.001Z</time></trkpt><trkpt lat="-17.641864486010775" lon="123.17581605822382"><ele>53.5</ele><time>2026-04-24T08:35:47.001Z</time></trkpt><trkpt lat="-17.641907378313984" lon="123.17610668877806"><ele>54.0</ele><time>2026-04-24T08:35:48.001Z</time></trkpt><trkpt lat="-17.641950054421024" lon="123.17639513006468"><ele>54.5</ele><time>2026-04-24T08:35:49.001Z</time></trkpt><trkpt lat="-17.64199293481664" lon="123.17668083039418"><ele>55.0</ele><time>2026-04-24T08:35:50.001Z</time></trkpt><trkpt lat="-17.64204184997852" lon="123.17696607065855"><ele>55.0</ele><time>2026-04-24T08:35:51.001Z</time></trkpt><trkpt lat="-17.642095821420284" lon="123.17725344637225"><ele>55.0</ele><time>2026-04-24T08:35:52.001Z</time></trkpt><trkpt lat="-17.642148500200292" lon="123.17754210554052"><ele>54.5</ele><time>2026-04-24T08:35:53.001Z</time></trkpt><trkpt lat="-17.642197912463537" lon="123.1778339790038"><ele>54.0</ele><time>2026-04-24T08:35:54.001Z</time></trkpt><trkpt lat="-17.64224573551732" lon="123.17812719630248"><ele>53.0</ele><time>2026-04-24T08:35:55.001Z</time></trkpt><trkpt lat="-17.642293322472973" lon="123.17842262301363"><ele>52.0</ele><time>2026-04-24T08:35:56.001Z</time></trkpt><trkpt lat="-17.642341511153" lon="123.17871761627785"><ele>52.0</ele><time>2026-04-24T08:35:57.001Z</time></trkpt><trkpt lat="-17.642389890362892" lon="123.17901459647405"><ele>52.0</ele><time>2026-04-24T08:35:58.001Z</time></trkpt><trkpt lat="-17.64243947041206" lon="123.17931330392908"><ele>52.0</ele><time>2026-04-24T08:35:59.001Z</time></trkpt><trkpt lat="-17.64249059169339" lon="123.17961891913947"><ele>52.0</ele><time>2026-04-24T08:36:00.001Z</time></trkpt><trkpt lat="-17.642541298665584" lon="123.17992504005319"><ele>52.0</ele><time>2026-04-24T08:36:01.001Z</time></trkpt><trkpt lat="-17.642589742998858" lon="123.18023155439475"><ele>52.0</ele><time>2026-04-24T08:36:02.001Z</time></trkpt><trkpt lat="-17.642637053580174" lon="123.1805380920979"><ele>51.5</ele><time>2026-04-24T08:36:03.001Z</time></trkpt><trkpt lat="-17.642686232443708" lon="123.18084344771373"><ele>51.0</ele><time>2026-04-24T08:36:04.001Z</time></trkpt><trkpt lat="-17.642734622556805" lon="123.18114752520096"><ele>51.0</ele><time>2026-04-24T08:36:05.001Z</time></trkpt><trkpt lat="-17.642785991103228" lon="123.18145066234115"><ele>51.0</ele><time>2026-04-24T08:36:06.001Z</time></trkpt><trkpt lat="-17.64283718020076" lon="123.18175129002992"><ele>51.5</ele><time>2026-04-24T08:36:07.001Z</time></trkpt><trkpt lat="-17.642888304633537" lon="123.18205297227485"><ele>52.0</ele><time>2026-04-24T08:36:08.001Z</time></trkpt><trkpt lat="-17.642937850939326" lon="123.18235740319001"><ele>52.5</ele><time>2026-04-24T08:36:09.001Z</time></trkpt><trkpt lat="-17.642987217583546" lon="123.18266153782697"><ele>53.0</ele><time>2026-04-24T08:36:10.001Z</time></trkpt><trkpt lat="-17.64303655446085" lon="123.18296555073702"><ele>53.0</ele><time>2026-04-24T08:36:11.001Z</time></trkpt><trkpt lat="-17.64308583095196" lon="123.18326470504152"><ele>53.0</ele><time>2026-04-24T08:36:12.001Z</time></trkpt><trkpt lat="-17.643134988994888" lon="123.18356371971211"><ele>53.0</ele><time>2026-04-24T08:36:13.001Z</time></trkpt><trkpt lat="-17.643185484667363" lon="123.18386221193964"><ele>53.0</ele><time>2026-04-24T08:36:14.001Z</time></trkpt><trkpt lat="-17.643236515736337" lon="123.18416462792838"><ele>52.5</ele><time>2026-04-24T08:36:15.001Z</time></trkpt><trkpt lat="-17.643288881907033" lon="123.18446645626855"><ele>52.0</ele><time>2026-04-24T08:36:16.001Z</time></trkpt><trkpt lat="-17.64334042376453" lon="123.18477220302898"><ele>52.5</ele><time>2026-04-24T08:36:17.001Z</time></trkpt><trkpt lat="-17.643390764251784" lon="123.18508114306283"><ele>53.0</ele><time>2026-04-24T08:36:18.001Z</time></trkpt><trkpt lat="-17.643440377073734" lon="123.18538800650711"><ele>52.5</ele><time>2026-04-24T08:36:19.001Z</time></trkpt><trkpt lat="-17.643490525327415" lon="123.18569526272809"><ele>52.0</ele><time>2026-04-24T08:36:20.001Z</time></trkpt><trkpt lat="-17.643541486757336" lon="123.18600061967234"><ele>52.0</ele><time>2026-04-24T08:36:21.001Z</time></trkpt><trkpt lat="-17.643593646401026" lon="123.18630463020301"><ele>52.0</ele><time>2026-04-24T08:36:22.001Z</time></trkpt><trkpt lat="-17.643645704713954" lon="123.18661127973117"><ele>52.5</ele><time>2026-04-24T08:36:23.001Z</time></trkpt><trkpt lat="-17.64369993627257" lon="123.18691697813291"><ele>53.0</ele><time>2026-04-24T08:36:24.001Z</time></trkpt><trkpt lat="-17.64375307733531" lon="123.18721794250416"><ele>53.0</ele><time>2026-04-24T08:36:25.001Z</time></trkpt><trkpt lat="-17.64380374352295" lon="123.18751592643108"><ele>53.0</ele><time>2026-04-24T08:36:26.001Z</time></trkpt><trkpt lat="-17.643850362770937" lon="123.18781548958592"><ele>53.0</ele><time>2026-04-24T08:36:27.001Z</time></trkpt><trkpt lat="-17.643896326289607" lon="123.18811878452041"><ele>53.0</ele><time>2026-04-24T08:36:28.001Z</time></trkpt><trkpt lat="-17.64394178503214" lon="123.1884236529154"><ele>53.0</ele><time>2026-04-24T08:36:29.001Z</time></trkpt><trkpt lat="-17.643989761015717" lon="123.1887299393032"><ele>53.0</ele><time>2026-04-24T08:36:30.001Z</time></trkpt><trkpt lat="-17.644040224093054" lon="123.18903304471759"><ele>53.5</ele><time>2026-04-24T08:36:31.001Z</time></trkpt><trkpt lat="-17.644091815828578" lon="123.18933470594165"><ele>54.0</ele><time>2026-04-24T08:36:32.001Z</time></trkpt><trkpt lat="-17.64414270034762" lon="123.18963350298925"><ele>53.5</ele><time>2026-04-24T08:36:33.001Z</time></trkpt><trkpt lat="-17.64419221246989" lon="123.18993154612372"><ele>53.0</ele><time>2026-04-24T08:36:34.001Z</time></trkpt><trkpt lat="-17.644243778585086" lon="123.19022698231393"><ele>53.0</ele><time>2026-04-24T08:36:35.001Z</time></trkpt><trkpt lat="-17.644293274330163" lon="123.19052255899496"><ele>53.0</ele><time>2026-04-24T08:36:36.001Z</time></trkpt><trkpt lat="-17.64433909210032" lon="123.1908178044255"><ele>53.5</ele><time>2026-04-24T08:36:37.001Z</time></trkpt><trkpt lat="-17.644383863034868" lon="123.191111418196"><ele>54.0</ele><time>2026-04-24T08:36:38.001Z</time></trkpt><trkpt lat="-17.6444317009383" lon="123.19140708855012"><ele>54.5</ele><time>2026-04-24T08:36:39.001Z</time></trkpt><trkpt lat="-17.6444822252383" lon="123.19170635213837"><ele>55.0</ele><time>2026-04-24T08:36:40.001Z</time></trkpt><trkpt lat="-17.644534050938297" lon="123.19200739733725"><ele>55.0</ele><time>2026-04-24T08:36:41.001Z</time></trkpt><trkpt lat="-17.644586163546077" lon="123.19231240988414"><ele>55.0</ele><time>2026-04-24T08:36:42.001Z</time></trkpt><trkpt lat="-17.64463826371043" lon="123.19261943816876"><ele>55.0</ele><time>2026-04-24T08:36:43.001Z</time></trkpt><trkpt lat="-17.64468867086135" lon="123.19292606241336"><ele>55.0</ele><time>2026-04-24T08:36:44.001Z</time></trkpt><trkpt lat="-17.644739004903197" lon="123.19323228844215"><ele>55.0</ele><time>2026-04-24T08:36:45.001Z</time></trkpt><trkpt lat="-17.6447890816958" lon="123.19353520589209"><ele>55.0</ele><time>2026-04-24T08:36:46.001Z</time></trkpt><trkpt lat="-17.644839169806076" lon="123.19383989402063"><ele>55.5</ele><time>2026-04-24T08:36:47.001Z</time></trkpt><trkpt lat="-17.644889170556883" lon="123.1941469477581"><ele>56.0</ele><time>2026-04-24T08:36:48.001Z</time></trkpt><trkpt lat="-17.64493783726938" lon="123.19445416986699"><ele>56.0</ele><time>2026-04-24T08:36:49.001Z</time></trkpt><trkpt lat="-17.644987637307523" lon="123.19476212297818"><ele>56.0</ele><time>2026-04-24T08:36:50.001Z</time></trkpt><trkpt lat="-17.645038954875485" lon="123.19506887467206"><ele>56.5</ele><time>2026-04-24T08:36:51.001Z</time></trkpt><trkpt lat="-17.64509051930084" lon="123.19537859301506"><ele>57.0</ele><time>2026-04-24T08:36:52.001Z</time></trkpt><trkpt lat="-17.64514191157055" lon="123.19568723468477"><ele>57.0</ele><time>2026-04-24T08:36:53.001Z</time></trkpt><trkpt lat="-17.645192943303158" lon="123.19599527269354"><ele>57.0</ele><time>2026-04-24T08:36:54.001Z</time></trkpt><trkpt lat="-17.645243770203585" lon="123.19630186307307"><ele>57.0</ele><time>2026-04-24T08:36:55.001Z</time></trkpt><trkpt lat="-17.645295144041565" lon="123.19661060536632"><ele>57.0</ele><time>2026-04-24T08:36:56.001Z</time></trkpt><trkpt lat="-17.645346634029053" lon="123.19691858747404"><ele>57.0</ele><time>2026-04-24T08:36:57.001Z</time></trkpt><trkpt lat="-17.645398641922355" lon="123.19722722381873"><ele>57.0</ele><time>2026-04-24T08:36:58.001Z</time></trkpt><trkpt lat="-17.645449913218595" lon="123.19753789977982"><ele>57.0</ele><time>2026-04-24T08:36:59.001Z</time></trkpt><trkpt lat="-17.64550232602522" lon="123.19784787924767"><ele>57.0</ele><time>2026-04-24T08:37:00.001Z</time></trkpt><trkpt lat="-17.645553794134035" lon="123.19815807269383"><ele>56.5</ele><time>2026-04-24T08:37:01.001Z</time></trkpt><trkpt lat="-17.645604507145478" lon="123.19846837538343"><ele>56.0</ele><time>2026-04-24T08:37:02.001Z</time></trkpt><trkpt lat="-17.64565670661337" lon="123.19878174318546"><ele>56.5</ele><time>2026-04-24T08:37:03.001Z</time></trkpt><trkpt lat="-17.64570820257388" lon="123.19909739215947"><ele>57.0</ele><time>2026-04-24T08:37:04.001Z</time></trkpt><trkpt lat="-17.6457586792771" lon="123.19941282143108"><ele>57.0</ele><time>2026-04-24T08:37:05.001Z</time></trkpt><trkpt lat="-17.645808628378823" lon="123.19972827974786"><ele>57.0</ele><time>2026-04-24T08:37:06.001Z</time></trkpt><trkpt lat="-17.645857137615472" lon="123.20003511539275"><ele>55.5</ele><time>2026-04-24T08:37:07.001Z</time></trkpt><trkpt lat="-17.64590243847555" lon="123.20031989598259"><ele>54.0</ele><time>2026-04-24T08:37:08.001Z</time></trkpt><trkpt lat="-17.645947701501523" lon="123.20060451204134"><ele>55.0</ele><time>2026-04-24T08:37:09.001Z</time></trkpt><trkpt lat="-17.645995090096044" lon="123.20089400558747"><ele>56.0</ele><time>2026-04-24T08:37:10.001Z</time></trkpt><trkpt lat="-17.6460428148159" lon="123.20118829054749"><ele>56.0</ele><time>2026-04-24T08:37:11.001Z</time></trkpt><trkpt lat="-17.646091334571665" lon="123.20148787071076"><ele>56.0</ele><time>2026-04-24T08:37:12.001Z</time></trkpt><trkpt lat="-17.646142183371204" lon="123.20178708731657"><ele>55.5</ele><time>2026-04-24T08:37:13.001Z</time></trkpt><trkpt lat="-17.64619498123106" lon="123.20209244891873"><ele>55.0</ele><time>2026-04-24T08:37:14.001Z</time></trkpt><trkpt lat="-17.646246290528044" lon="123.20240137081883"><ele>55.0</ele><time>2026-04-24T08:37:15.001Z</time></trkpt><trkpt lat="-17.64629642915988" lon="123.2027107762735"><ele>55.0</ele><time>2026-04-24T08:37:16.001Z</time></trkpt><trkpt lat="-17.64634731334244" lon="123.20301913249554"><ele>54.5</ele><time>2026-04-24T08:37:17.001Z</time></trkpt><trkpt lat="-17.64640039796193" lon="123.20332630945204"><ele>54.0</ele><time>2026-04-24T08:37:18.001Z</time></trkpt><trkpt lat="-17.64645435095033" lon="123.20363746511971"><ele>54.0</ele><time>2026-04-24T08:37:19.001Z</time></trkpt><trkpt lat="-17.646505595454574" lon="123.20394803990739"><ele>54.0</ele><time>2026-04-24T08:37:20.001Z</time></trkpt><trkpt lat="-17.646556486657804" lon="123.20426236322535"><ele>54.0</ele><time>2026-04-24T08:37:21.001Z</time></trkpt><trkpt lat="-17.64660732612091" lon="123.20457388119365"><ele>54.0</ele><time>2026-04-24T08:37:22.001Z</time></trkpt><trkpt lat="-17.64666033673749" lon="123.20488553650765"><ele>54.0</ele><time>2026-04-24T08:37:23.001Z</time></trkpt><trkpt lat="-17.646711780277112" lon="123.20518999309927"><ele>54.0</ele><time>2026-04-24T08:37:24.001Z</time></trkpt><trkpt lat="-17.646763145967608" lon="123.20548865041414"><ele>54.0</ele><time>2026-04-24T08:37:25.001Z</time></trkpt><trkpt lat="-17.646812662740498" lon="123.20577632979004"><ele>54.0</ele><time>2026-04-24T08:37:26.001Z</time></trkpt><trkpt lat="-17.646859794413327" lon="123.20605331894137"><ele>54.0</ele><time>2026-04-24T08:37:27.001Z</time></trkpt><trkpt lat="-17.646904668357543" lon="123.2063255055741"><ele>54.0</ele><time>2026-04-24T08:37:28.001Z</time></trkpt><trkpt lat="-17.64694724401026" lon="123.20658923988259"><ele>54.0</ele><time>2026-04-24T08:37:29.001Z</time></trkpt><trkpt lat="-17.646992305176585" lon="123.20684865437093"><ele>54.0</ele><time>2026-04-24T08:37:30.001Z</time></trkpt><trkpt lat="-17.647037885444526" lon="123.20710599107495"><ele>54.0</ele><time>2026-04-24T08:37:31.001Z</time></trkpt><trkpt lat="-17.64708211295886" lon="123.20736092195415"><ele>54.0</ele><time>2026-04-24T08:37:32.001Z</time></trkpt><trkpt lat="-17.647125427414856" lon="123.20761588549124"><ele>54.0</ele><time>2026-04-24T08:37:33.001Z</time></trkpt><trkpt lat="-17.647167333621486" lon="123.20786786907668"><ele>54.0</ele><time>2026-04-24T08:37:34.001Z</time></trkpt><trkpt lat="-17.64720924852797" lon="123.20811968221105"><ele>55.0</ele><time>2026-04-24T08:37:35.001Z</time></trkpt><trkpt lat="-17.64725112847079" lon="123.20836986171463"><ele>56.0</ele><time>2026-04-24T08:37:36.001Z</time></trkpt><trkpt lat="-17.647290664717005" lon="123.20862123765392"><ele>56.0</ele><time>2026-04-24T08:37:37.001Z</time></trkpt><trkpt lat="-17.64732911286287" lon="123.2088744502646"><ele>56.0</ele><time>2026-04-24T08:37:38.001Z</time></trkpt><trkpt lat="-17.64736874880923" lon="123.20913383065391"><ele>55.5</ele><time>2026-04-24T08:37:39.001Z</time></trkpt><trkpt lat="-17.647410689513393" lon="123.20940365383021"><ele>55.0</ele><time>2026-04-24T08:37:40.001Z</time></trkpt><trkpt lat="-17.64745348362594" lon="123.20967985754197"><ele>54.0</ele><time>2026-04-24T08:37:41.001Z</time></trkpt><trkpt lat="-17.647497267555863" lon="123.20995833090919"><ele>53.0</ele><time>2026-04-24T08:37:42.001Z</time></trkpt><trkpt lat="-17.647541613037678" lon="123.21024105455459"><ele>53.0</ele><time>2026-04-24T08:37:43.001Z</time></trkpt><trkpt lat="-17.64758688963423" lon="123.21052609095497"><ele>53.0</ele><time>2026-04-24T08:37:44.001Z</time></trkpt><trkpt lat="-17.647633982136437" lon="123.21081772079671"><ele>53.5</ele><time>2026-04-24T08:37:45.001Z</time></trkpt><trkpt lat="-17.647682243010795" lon="123.21111359214368"><ele>54.0</ele><time>2026-04-24T08:37:46.001Z</time></trkpt><trkpt lat="-17.647732182724198" lon="123.21141370511789"><ele>54.0</ele><time>2026-04-24T08:37:47.001Z</time></trkpt><trkpt lat="-17.647782298996955" lon="123.2117141182697"><ele>54.0</ele><time>2026-04-24T08:37:48.001Z</time></trkpt><trkpt lat="-17.64783384892357" lon="123.2120129569856"><ele>54.0</ele><time>2026-04-24T08:37:49.001Z</time></trkpt><trkpt lat="-17.64788492099651" lon="123.21231085351968"><ele>54.0</ele><time>2026-04-24T08:37:50.001Z</time></trkpt><trkpt lat="-17.64793709515273" lon="123.21260647841208"><ele>54.0</ele><time>2026-04-24T08:37:51.001Z</time></trkpt><trkpt lat="-17.647986330751294" lon="123.21290182482794"><ele>54.0</ele><time>2026-04-24T08:37:52.001Z</time></trkpt><trkpt lat="-17.64803425426991" lon="123.21319583007046"><ele>54.0</ele><time>2026-04-24T08:37:53.001Z</time></trkpt><trkpt lat="-17.648083661452585" lon="123.21349362132624"><ele>54.0</ele><time>2026-04-24T08:37:54.001Z</time></trkpt><trkpt lat="-17.64813406391004" lon="123.21379545644444"><ele>53.5</ele><time>2026-04-24T08:37:55.001Z</time></trkpt><trkpt lat="-17.648184069348524" lon="123.21409984533378"><ele>53.0</ele><time>2026-04-24T08:37:56.001Z</time></trkpt><trkpt lat="-17.648230674606943" lon="123.21440327225065"><ele>53.0</ele><time>2026-04-24T08:37:57.001Z</time></trkpt><trkpt lat="-17.648278389211523" lon="123.21470744404465"><ele>53.0</ele><time>2026-04-24T08:37:58.001Z</time></trkpt><trkpt lat="-17.64832912309274" lon="123.21501096744538"><ele>52.0</ele><time>2026-04-24T08:37:59.001Z</time></trkpt><trkpt lat="-17.64837876218033" lon="123.21531570384013"><ele>51.0</ele><time>2026-04-24T08:38:00.001Z</time></trkpt><trkpt lat="-17.648428741225707" lon="123.21562001102261"><ele>51.0</ele><time>2026-04-24T08:38:01.001Z</time></trkpt><trkpt lat="-17.6484792906783" lon="123.21592408632128"><ele>51.0</ele><time>2026-04-24T08:38:02.001Z</time></trkpt><trkpt lat="-17.648530977338368" lon="123.21622433646452"><ele>51.5</ele><time>2026-04-24T08:38:03.001Z</time></trkpt><trkpt lat="-17.64858272794354" lon="123.2165279310854"><ele>52.0</ele><time>2026-04-24T08:38:04.001Z</time></trkpt><trkpt lat="-17.648633547155356" lon="123.21682877202585"><ele>52.0</ele><time>2026-04-24T08:38:05.001Z</time></trkpt><trkpt lat="-17.648682022618814" lon="123.21713110720415"><ele>52.0</ele><time>2026-04-24T08:38:06.001Z</time></trkpt><trkpt lat="-17.64873170876846" lon="123.21743326775257"><ele>52.0</ele><time>2026-04-24T08:38:07.001Z</time></trkpt><trkpt lat="-17.648781754396072" lon="123.21773530212108"><ele>52.0</ele><time>2026-04-24T08:38:08.001Z</time></trkpt><trkpt lat="-17.648831996666335" lon="123.21803872166836"><ele>52.5</ele><time>2026-04-24T08:38:09.001Z</time></trkpt><trkpt lat="-17.648883957837537" lon="123.2183416742623"><ele>53.0</ele><time>2026-04-24T08:38:10.001Z</time></trkpt><trkpt lat="-17.648934398457115" lon="123.21864552478881"><ele>53.0</ele><time>2026-04-24T08:38:11.001Z</time></trkpt><trkpt lat="-17.648985083941316" lon="123.21895259565497"><ele>53.0</ele><time>2026-04-24T08:38:12.001Z</time></trkpt><trkpt lat="-17.649035692976287" lon="123.21926004977733"><ele>53.0</ele><time>2026-04-24T08:38:13.001Z</time></trkpt><trkpt lat="-17.649088644211822" lon="123.21956801761011"><ele>53.0</ele><time>2026-04-24T08:38:14.001Z</time></trkpt><trkpt lat="-17.649141057905485" lon="123.21987538379938"><ele>52.5</ele><time>2026-04-24T08:38:15.001Z</time></trkpt><trkpt lat="-17.649191329139835" lon="123.22018143909595"><ele>52.0</ele><time>2026-04-24T08:38:16.001Z</time></trkpt><trkpt lat="-17.649241033610927" lon="123.22048755019976"><ele>51.0</ele><time>2026-04-24T08:38:17.001Z</time></trkpt><trkpt lat="-17.649289608109523" lon="123.22079404498162"><ele>50.0</ele><time>2026-04-24T08:38:18.001Z</time></trkpt><trkpt lat="-17.649338582636368" lon="123.22109988067334"><ele>50.0</ele><time>2026-04-24T08:38:19.001Z</time></trkpt><trkpt lat="-17.649387330926995" lon="123.22140740828473"><ele>50.0</ele><time>2026-04-24T08:38:20.001Z</time></trkpt><trkpt lat="-17.64943701714573" lon="123.22171337045022"><ele>50.0</ele><time>2026-04-24T08:38:21.001Z</time></trkpt><trkpt lat="-17.649487106087864" lon="123.22201882122273"><ele>50.0</ele><time>2026-04-24T08:38:22.001Z</time></trkpt><trkpt lat="-17.64953572882859" lon="123.22232700303451"><ele>50.0</ele><time>2026-04-24T08:38:23.001Z</time></trkpt><trkpt lat="-17.649586524239183" lon="123.22263178987187"><ele>50.0</ele><time>2026-04-24T08:38:24.001Z</time></trkpt><trkpt lat="-17.649639686825527" lon="123.22293847800175"><ele>50.5</ele><time>2026-04-24T08:38:25.001Z</time></trkpt><trkpt lat="-17.649691952051047" lon="123.22324721008702"><ele>51.0</ele><time>2026-04-24T08:38:26.001Z</time></trkpt><trkpt lat="-17.649744310642674" lon="123.22355793935839"><ele>51.0</ele><time>2026-04-24T08:38:27.001Z</time></trkpt><trkpt lat="-17.649796266430858" lon="123.22387224662803"><ele>51.0</ele><time>2026-04-24T08:38:28.001Z</time></trkpt><trkpt lat="-17.64984638698459" lon="123.22418776846355"><ele>51.0</ele><time>2026-04-24T08:38:29.001Z</time></trkpt><trkpt lat="-17.649897851920183" lon="123.22450478561822"><ele>51.0</ele><time>2026-04-24T08:38:30.001Z</time></trkpt><trkpt lat="-17.649950280210824" lon="123.22482225552618"><ele>50.0</ele><time>2026-04-24T08:38:31.001Z</time></trkpt><trkpt lat="-17.65000402348944" lon="123.22514191007963"><ele>49.0</ele><time>2026-04-24T08:38:32.001Z</time></trkpt><trkpt lat="-17.650058222903628" lon="123.22546251596258"><ele>49.5</ele><time>2026-04-24T08:38:33.001Z</time></trkpt><trkpt lat="-17.650111415874907" lon="123.22578373336977"><ele>50.0</ele><time>2026-04-24T08:38:34.001Z</time></trkpt><trkpt lat="-17.650163902843914" lon="123.22610449213502"><ele>50.0</ele><time>2026-04-24T08:38:35.001Z</time></trkpt><trkpt lat="-17.65021607772348" lon="123.22642525205606"><ele>50.0</ele><time>2026-04-24T08:38:36.001Z</time></trkpt><trkpt lat="-17.650269410907804" lon="123.2267450438362"><ele>50.0</ele><time>2026-04-24T08:38:37.001Z</time></trkpt><trkpt lat="-17.65032403452535" lon="123.22706266690716"><ele>50.0</ele><time>2026-04-24T08:38:38.001Z</time></trkpt><trkpt lat="-17.650376196832607" lon="123.22737832501906"><ele>49.0</ele><time>2026-04-24T08:38:39.001Z</time></trkpt><trkpt lat="-17.65042847134818" lon="123.2276949734578"><ele>48.0</ele><time>2026-04-24T08:38:40.001Z</time></trkpt><trkpt lat="-17.65047742218549" lon="123.22800950168671"><ele>48.0</ele><time>2026-04-24T08:38:41.001Z</time></trkpt><trkpt lat="-17.65053080184686" lon="123.22832227859662"><ele>48.0</ele><time>2026-04-24T08:38:42.001Z</time></trkpt><trkpt lat="-17.650585451369135" lon="123.22863638195732"><ele>48.0</ele><time>2026-04-24T08:38:43.001Z</time></trkpt><trkpt lat="-17.650638524577737" lon="123.22894892947792"><ele>48.0</ele><time>2026-04-24T08:38:44.001Z</time></trkpt><trkpt lat="-17.650689926199938" lon="123.22926211771946"><ele>48.0</ele><time>2026-04-24T08:38:45.001Z</time></trkpt><trkpt lat="-17.65074002154857" lon="123.22957616276707"><ele>48.0</ele><time>2026-04-24T08:38:46.001Z</time></trkpt><trkpt lat="-17.650790530269862" lon="123.22989135066432"><ele>48.0</ele><time>2026-04-24T08:38:47.001Z</time></trkpt><trkpt lat="-17.650841185053455" lon="123.23020652860717"><ele>48.0</ele><time>2026-04-24T08:38:48.001Z</time></trkpt><trkpt lat="-17.650894730210215" lon="123.23052329631972"><ele>48.5</ele><time>2026-04-24T08:38:49.001Z</time></trkpt><trkpt lat="-17.650950483436446" lon="123.23084014980186"><ele>49.0</ele><time>2026-04-24T08:38:50.001Z</time></trkpt><trkpt lat="-17.651003730792585" lon="123.23115751815543"><ele>49.0</ele><time>2026-04-24T08:38:51.001Z</time></trkpt><trkpt lat="-17.651055687141266" lon="123.23147343366078"><ele>49.0</ele><time>2026-04-24T08:38:52.001Z</time></trkpt><trkpt lat="-17.651105751283552" lon="123.23178582174312"><ele>49.0</ele><time>2026-04-24T08:38:53.001Z</time></trkpt><trkpt lat="-17.651155737305537" lon="123.23209987227699"><ele>49.0</ele><time>2026-04-24T08:38:54.001Z</time></trkpt><trkpt lat="-17.651207434198493" lon="123.2324158721296"><ele>49.0</ele><time>2026-04-24T08:38:55.001Z</time></trkpt><trkpt lat="-17.651259800304064" lon="123.23273413374018"><ele>49.0</ele><time>2026-04-24T08:38:56.001Z</time></trkpt><trkpt lat="-17.6513127722482" lon="123.23305134787279"><ele>48.5</ele><time>2026-04-24T08:38:57.001Z</time></trkpt><trkpt lat="-17.65136856024282" lon="123.23337481565282"><ele>48.0</ele><time>2026-04-24T08:38:58.001Z</time></trkpt><trkpt lat="-17.65142366192716" lon="123.23369570446881"><ele>47.0</ele><time>2026-04-24T08:38:59.001Z</time></trkpt><trkpt lat="-17.65147810002752" lon="123.23401810165414"><ele>46.0</ele><time>2026-04-24T08:39:00.001Z</time></trkpt><trkpt lat="-17.651532430256722" lon="123.23434251437163"><ele>46.0</ele><time>2026-04-24T08:39:01.001Z</time></trkpt><trkpt lat="-17.651586291013153" lon="123.23466648296295"><ele>46.0</ele><time>2026-04-24T08:39:02.001Z</time></trkpt><trkpt lat="-17.65163887572954" lon="123.23498917429666"><ele>46.0</ele><time>2026-04-24T08:39:03.001Z</time></trkpt><trkpt lat="-17.65169155513671" lon="123.23531094254093"><ele>46.0</ele><time>2026-04-24T08:39:04.001Z</time></trkpt><trkpt lat="-17.651742533365084" lon="123.23562603215065"><ele>46.5</ele><time>2026-04-24T08:39:05.001Z</time></trkpt><trkpt lat="-17.651792315011118" lon="123.23593737044273"><ele>47.0</ele><time>2026-04-24T08:39:06.001Z</time></trkpt><trkpt lat="-17.65184331998876" lon="123.23624654130133"><ele>46.5</ele><time>2026-04-24T08:39:07.001Z</time></trkpt><trkpt lat="-17.651891866256868" lon="123.23655383411456"><ele>46.0</ele><time>2026-04-24T08:39:08.001Z</time></trkpt><trkpt lat="-17.651940381540346" lon="123.23685687665349"><ele>45.5</ele><time>2026-04-24T08:39:09.001Z</time></trkpt><trkpt lat="-17.651990699398663" lon="123.23716164832949"><ele>45.0</ele><time>2026-04-24T08:39:10.001Z</time></trkpt><trkpt lat="-17.652041854136495" lon="123.23746498002365"><ele>45.0</ele><time>2026-04-24T08:39:11.001Z</time></trkpt><trkpt lat="-17.6520939112963" lon="123.23776862166824"><ele>45.0</ele><time>2026-04-24T08:39:12.001Z</time></trkpt><trkpt lat="-17.652145820327643" lon="123.23806786650178"><ele>45.0</ele><time>2026-04-24T08:39:13.001Z</time></trkpt><trkpt lat="-17.652196234276676" lon="123.238366242023"><ele>45.0</ele><time>2026-04-24T08:39:14.001Z</time></trkpt><trkpt lat="-17.652245527938266" lon="123.23865921952292"><ele>45.0</ele><time>2026-04-24T08:39:15.001Z</time></trkpt><trkpt lat="-17.652292636567033" lon="123.23895282890496"><ele>45.0</ele><time>2026-04-24T08:39:16.001Z</time></trkpt><trkpt lat="-17.65234147761755" lon="123.23924466681787"><ele>45.0</ele><time>2026-04-24T08:39:17.001Z</time></trkpt><trkpt lat="-17.652391164098493" lon="123.23953592916675"><ele>45.0</ele><time>2026-04-24T08:39:18.001Z</time></trkpt><trkpt lat="-17.652439951452187" lon="123.23983321935975"><ele>44.5</ele><time>2026-04-24T08:39:19.001Z</time></trkpt><trkpt lat="-17.65248777906531" lon="123.24013825056764"><ele>44.0</ele><time>2026-04-24T08:39:20.001Z</time></trkpt><trkpt lat="-17.652536533473885" lon="123.24044656110551"><ele>44.5</ele><time>2026-04-24T08:39:21.001Z</time></trkpt><trkpt lat="-17.652587479427513" lon="123.24075659158318"><ele>45.0</ele><time>2026-04-24T08:39:22.001Z</time></trkpt><trkpt lat="-17.652638791799568" lon="123.24106823191016"><ele>45.0</ele><time>2026-04-24T08:39:23.001Z</time></trkpt><trkpt lat="-17.652690596223117" lon="123.24137914686763"><ele>45.0</ele><time>2026-04-24T08:39:24.001Z</time></trkpt><trkpt lat="-17.652741912519247" lon="123.24168808427147"><ele>44.5</ele><time>2026-04-24T08:39:25.001Z</time></trkpt><trkpt lat="-17.65279437961071" lon="123.24199989789194"><ele>44.0</ele><time>2026-04-24T08:39:26.001Z</time></trkpt><trkpt lat="-17.652846099993212" lon="123.2423131002765"><ele>43.5</ele><time>2026-04-24T08:39:27.001Z</time></trkpt><trkpt lat="-17.652896350902733" lon="123.24262690466415"><ele>43.0</ele><time>2026-04-24T08:39:28.001Z</time></trkpt><trkpt lat="-17.652948392760145" lon="123.24293988508158"><ele>42.5</ele><time>2026-04-24T08:39:29.001Z</time></trkpt><trkpt lat="-17.65300146641536" lon="123.24325335030416"><ele>42.0</ele><time>2026-04-24T08:39:30.001Z</time></trkpt><trkpt lat="-17.65305382874206" lon="123.24356744942777"><ele>42.0</ele><time>2026-04-24T08:39:31.001Z</time></trkpt><trkpt lat="-17.65310498585024" lon="123.24387796008463"><ele>42.0</ele><time>2026-04-24T08:39:32.001Z</time></trkpt><trkpt lat="-17.65315557372584" lon="123.24419214430414"><ele>42.0</ele><time>2026-04-24T08:39:33.001Z</time></trkpt><trkpt lat="-17.65320740143126" lon="123.24450359607059"><ele>42.0</ele><time>2026-04-24T08:39:34.001Z</time></trkpt><trkpt lat="-17.65325897952119" lon="123.244817627561"><ele>42.0</ele><time>2026-04-24T08:39:35.001Z</time></trkpt><trkpt lat="-17.65331035634283" lon="123.24513250566297"><ele>42.0</ele><time>2026-04-24T08:39:36.001Z</time></trkpt><trkpt lat="-17.653361285441232" lon="123.2454475045145"><ele>41.5</ele><time>2026-04-24T08:39:37.001Z</time></trkpt><trkpt lat="-17.653412384888085" lon="123.24576161495816"><ele>41.0</ele><time>2026-04-24T08:39:38.001Z</time></trkpt><trkpt lat="-17.653463396182822" lon="123.2460736625608"><ele>41.0</ele><time>2026-04-24T08:39:39.001Z</time></trkpt><trkpt lat="-17.65351563124034" lon="123.2463842823989"><ele>41.0</ele><time>2026-04-24T08:39:40.001Z</time></trkpt><trkpt lat="-17.653566179495183" lon="123.24669378170495"><ele>40.0</ele><time>2026-04-24T08:39:41.001Z</time></trkpt><trkpt lat="-17.653617107914435" lon="123.24700306771251"><ele>39.0</ele><time>2026-04-24T08:39:42.001Z</time></trkpt><trkpt lat="-17.65366813503476" lon="123.24730846700663"><ele>39.0</ele><time>2026-04-24T08:39:43.001Z</time></trkpt><trkpt lat="-17.65372011931922" lon="123.24761259577345"><ele>39.0</ele><time>2026-04-24T08:39:44.001Z</time></trkpt><trkpt lat="-17.653772828641593" lon="123.2479163587155"><ele>38.5</ele><time>2026-04-24T08:39:45.001Z</time></trkpt><trkpt lat="-17.653823037758517" lon="123.24822320784601"><ele>38.0</ele><time>2026-04-24T08:39:46.001Z</time></trkpt><trkpt lat="-17.65387227944585" lon="123.24852892390271"><ele>38.0</ele><time>2026-04-24T08:39:47.001Z</time></trkpt><trkpt lat="-17.6539231689445" lon="123.24883717942363"><ele>38.0</ele><time>2026-04-24T08:39:48.001Z</time></trkpt><trkpt lat="-17.65397352514236" lon="123.2491460480934"><ele>38.0</ele><time>2026-04-24T08:39:49.001Z</time></trkpt><trkpt lat="-17.65402434847196" lon="123.24945725389428"><ele>38.0</ele><time>2026-04-24T08:39:50.001Z</time></trkpt><trkpt lat="-17.654075528257852" lon="123.24977127517485"><ele>38.0</ele><time>2026-04-24T08:39:51.001Z</time></trkpt><trkpt lat="-17.65412878476237" lon="123.25008688196033"><ele>38.0</ele><time>2026-04-24T08:39:52.001Z</time></trkpt><trkpt lat="-17.65418147690533" lon="123.25040196293362"><ele>37.0</ele><time>2026-04-24T08:39:53.001Z</time></trkpt><trkpt lat="-17.654235761566202" lon="123.25071566948887"><ele>36.0</ele><time>2026-04-24T08:39:54.001Z</time></trkpt><trkpt lat="-17.654290322585183" lon="123.25103111821116"><ele>36.0</ele><time>2026-04-24T08:39:55.001Z</time></trkpt><trkpt lat="-17.65434278167476" lon="123.25133716645381"><ele>36.0</ele><time>2026-04-24T08:39:56.001Z</time></trkpt><trkpt lat="-17.654388481294603" lon="123.25162519433658"><ele>36.5</ele><time>2026-04-24T08:39:57.001Z</time></trkpt><trkpt lat="-17.654434956932867" lon="123.25191778175038"><ele>37.0</ele><time>2026-04-24T08:39:58.001Z</time></trkpt><trkpt lat="-17.65448533359362" lon="123.25221586715456"><ele>36.0</ele><time>2026-04-24T08:39:59.001Z</time></trkpt><trkpt lat="-17.65453670852452" lon="123.25251983688644"><ele>35.0</ele><time>2026-04-24T08:40:00.001Z</time></trkpt><trkpt lat="-17.654586122484314" lon="123.25282884040158"><ele>35.0</ele><time>2026-04-24T08:40:01Z</time></trkpt><trkpt lat="-17.654637541475225" lon="123.2531371705993"><ele>35.0</ele><time>2026-04-24T08:40:02Z</time></trkpt><trkpt lat="-17.65468882627138" lon="123.25344674859248"><ele>35.0</ele><time>2026-04-24T08:40:03Z</time></trkpt><trkpt lat="-17.65473957502848" lon="123.25375577972044"><ele>35.0</ele><time>2026-04-24T08:40:04Z</time></trkpt><trkpt lat="-17.654787607215898" lon="123.25406731804358"><ele>35.0</ele><time>2026-04-24T08:40:05Z</time></trkpt><trkpt lat="-17.654832606563712" lon="123.25437561567246"><ele>35.0</ele><time>2026-04-24T08:40:06Z</time></trkpt><trkpt lat="-17.654878532548455" lon="123.25468327851007"><ele>34.0</ele><time>2026-04-24T08:40:07Z</time></trkpt><trkpt lat="-17.654929286918914" lon="123.25498828877355"><ele>33.0</ele><time>2026-04-24T08:40:08Z</time></trkpt><trkpt lat="-17.654980692137347" lon="123.25528910608085"><ele>33.0</ele><time>2026-04-24T08:40:09Z</time></trkpt><trkpt lat="-17.6550331961166" lon="123.25558961662117"><ele>33.0</ele><time>2026-04-24T08:40:10Z</time></trkpt><trkpt lat="-17.655083508047134" lon="123.25588687518079"><ele>33.0</ele><time>2026-04-24T08:40:11Z</time></trkpt><trkpt lat="-17.655133974877906" lon="123.25618387433782"><ele>33.0</ele><time>2026-04-24T08:40:12.001Z</time></trkpt><trkpt lat="-17.65518476076299" lon="123.25648161143677"><ele>33.0</ele><time>2026-04-24T08:40:13.001Z</time></trkpt><trkpt lat="-17.655233384446614" lon="123.25677705669212"><ele>33.0</ele><time>2026-04-24T08:40:14.001Z</time></trkpt><trkpt lat="-17.655281766254333" lon="123.25707381474876"><ele>32.5</ele><time>2026-04-24T08:40:15.001Z</time></trkpt><trkpt lat="-17.655329484336665" lon="123.25737003932082"><ele>32.0</ele><time>2026-04-24T08:40:16.001Z</time></trkpt><trkpt lat="-17.655379405858227" lon="123.25766855701643"><ele>32.0</ele><time>2026-04-24T08:40:17.001Z</time></trkpt><trkpt lat="-17.65543027513762" lon="123.25796840764421"><ele>32.0</ele><time>2026-04-24T08:40:18.001Z</time></trkpt><trkpt lat="-17.655482019005085" lon="123.25826620275316"><ele>32.0</ele><time>2026-04-24T08:40:19.001Z</time></trkpt><trkpt lat="-17.655533466883774" lon="123.2585643831753"><ele>32.0</ele><time>2026-04-24T08:40:20.001Z</time></trkpt><trkpt lat="-17.655582770864925" lon="123.2588622288063"><ele>31.5</ele><time>2026-04-24T08:40:21.001Z</time></trkpt><trkpt lat="-17.655629407037853" lon="123.25915813607801"><ele>31.0</ele><time>2026-04-24T08:40:22.001Z</time></trkpt><trkpt lat="-17.655678339388093" lon="123.25945548017778"><ele>31.0</ele><time>2026-04-24T08:40:23.001Z</time></trkpt><trkpt lat="-17.65572929000064" lon="123.25975392871241"><ele>31.0</ele><time>2026-04-24T08:40:24.001Z</time></trkpt><trkpt lat="-17.655779689994645" lon="123.2600520978144"><ele>31.0</ele><time>2026-04-24T08:40:25.001Z</time></trkpt><trkpt lat="-17.655829523898937" lon="123.26035520089115"><ele>31.0</ele><time>2026-04-24T08:40:26.001Z</time></trkpt><trkpt lat="-17.65588054334669" lon="123.26066113995111"><ele>31.0</ele><time>2026-04-24T08:40:27.001Z</time></trkpt><trkpt lat="-17.655931054104364" lon="123.26096807053554"><ele>31.0</ele><time>2026-04-24T08:40:28.001Z</time></trkpt><trkpt lat="-17.655980590288763" lon="123.26127667007191"><ele>32.0</ele><time>2026-04-24T08:40:29.001Z</time></trkpt><trkpt lat="-17.656031583147513" lon="123.26158540082947"><ele>33.0</ele><time>2026-04-24T08:40:30.001Z</time></trkpt><trkpt lat="-17.65607917457373" lon="123.26189254204658"><ele>33.0</ele><time>2026-04-24T08:40:31.001Z</time></trkpt><trkpt lat="-17.65612624055063" lon="123.26219909535787"><ele>33.0</ele><time>2026-04-24T08:40:32.001Z</time></trkpt><trkpt lat="-17.656179012103564" lon="123.26250256501883"><ele>32.5</ele><time>2026-04-24T08:40:33.001Z</time></trkpt><trkpt lat="-17.656235819624694" lon="123.26280769825887"><ele>32.0</ele><time>2026-04-24T08:40:34.001Z</time></trkpt><trkpt lat="-17.65629419212963" lon="123.26311213299017"><ele>32.5</ele><time>2026-04-24T08:40:35.001Z</time></trkpt><trkpt lat="-17.65634737489907" lon="123.26341587350338"><ele>33.0</ele><time>2026-04-24T08:40:36.001Z</time></trkpt><trkpt lat="-17.656394174697844" lon="123.26371974467712"><ele>32.5</ele><time>2026-04-24T08:40:37.001Z</time></trkpt><trkpt lat="-17.656437168469818" lon="123.26402406939032"><ele>32.0</ele><time>2026-04-24T08:40:38.001Z</time></trkpt><trkpt lat="-17.656482645138354" lon="123.26432891027603"><ele>32.0</ele><time>2026-04-24T08:40:39.001Z</time></trkpt><trkpt lat="-17.656531449705476" lon="123.26463260588281"><ele>32.0</ele><time>2026-04-24T08:40:40.001Z</time></trkpt><trkpt lat="-17.65658201562024" lon="123.26493777569148"><ele>31.5</ele><time>2026-04-24T08:40:41.001Z</time></trkpt><trkpt lat="-17.656634153883246" lon="123.26524204760844"><ele>31.0</ele><time>2026-04-24T08:40:42.001Z</time></trkpt><trkpt lat="-17.65668622668064" lon="123.26554577454434"><ele>31.0</ele><time>2026-04-24T08:40:43.001Z</time></trkpt><trkpt lat="-17.656737926916527" lon="123.26585225630184"><ele>31.0</ele><time>2026-04-24T08:40:44.001Z</time></trkpt><trkpt lat="-17.656789276012237" lon="123.26616010652708"><ele>30.0</ele><time>2026-04-24T08:40:45.001Z</time></trkpt><trkpt lat="-17.656840737737152" lon="123.2664665967112"><ele>29.0</ele><time>2026-04-24T08:40:46.001Z</time></trkpt><trkpt lat="-17.65689312958407" lon="123.26677403411038"><ele>29.0</ele><time>2026-04-24T08:40:47.001Z</time></trkpt><trkpt lat="-17.656945177187573" lon="123.26708211501507"><ele>29.0</ele><time>2026-04-24T08:40:48.001Z</time></trkpt><trkpt lat="-17.656996231789147" lon="123.26739364791844"><ele>29.0</ele><time>2026-04-24T08:40:49.001Z</time></trkpt><trkpt lat="-17.65704710366961" lon="123.26770543405317"><ele>29.0</ele><time>2026-04-24T08:40:50.001Z</time></trkpt><trkpt lat="-17.657099093698214" lon="123.26802091615944"><ele>29.5</ele><time>2026-04-24T08:40:51.001Z</time></trkpt><trkpt lat="-17.657151221089787" lon="123.26833689347588"><ele>30.0</ele><time>2026-04-24T08:40:52.001Z</time></trkpt><trkpt lat="-17.65720376246963" lon="123.26865165819872"><ele>30.5</ele><time>2026-04-24T08:40:53.001Z</time></trkpt><trkpt lat="-17.65725646323029" lon="123.26896921864592"><ele>31.0</ele><time>2026-04-24T08:40:54.001Z</time></trkpt><trkpt lat="-17.65730930989944" lon="123.2692843427821"><ele>31.0</ele><time>2026-04-24T08:40:55.001Z</time></trkpt><trkpt lat="-17.65736129538687" lon="123.26959948569528"><ele>31.0</ele><time>2026-04-24T08:40:56.001Z</time></trkpt><trkpt lat="-17.65741428411668" lon="123.26991541088867"><ele>30.5</ele><time>2026-04-24T08:40:57.001Z</time></trkpt><trkpt lat="-17.657465814395863" lon="123.27023220798915"><ele>30.0</ele><time>2026-04-24T08:40:58.001Z</time></trkpt><trkpt lat="-17.65751549106544" lon="123.2705501941084"><ele>31.0</ele><time>2026-04-24T08:40:59.001Z</time></trkpt><trkpt lat="-17.657564865967327" lon="123.27086761273692"><ele>32.0</ele><time>2026-04-24T08:41:00.001Z</time></trkpt><trkpt lat="-17.657616463865914" lon="123.27118105835036"><ele>31.0</ele><time>2026-04-24T08:41:01.001Z</time></trkpt><trkpt lat="-17.657669833826326" lon="123.27149492190324"><ele>30.0</ele><time>2026-04-24T08:41:02.001Z</time></trkpt><trkpt lat="-17.65773001061366" lon="123.27180488579548"><ele>30.5</ele><time>2026-04-24T08:41:03.001Z</time></trkpt><trkpt lat="-17.657806377009468" lon="123.27211056317047"><ele>31.0</ele><time>2026-04-24T08:41:04.001Z</time></trkpt><trkpt lat="-17.65789853459547" lon="123.27241635112446"><ele>29.5</ele><time>2026-04-24T08:41:05.001Z</time></trkpt><trkpt lat="-17.658000827706886" lon="123.27272046598651"><ele>28.0</ele><time>2026-04-24T08:41:06.001Z</time></trkpt><trkpt lat="-17.65811155487047" lon="123.27301890772065"><ele>28.5</ele><time>2026-04-24T08:41:07.001Z</time></trkpt><trkpt lat="-17.658235095755966" lon="123.27330872271936"><ele>29.0</ele><time>2026-04-24T08:41:08.001Z</time></trkpt><trkpt lat="-17.658367225706353" lon="123.27358849287975"><ele>29.0</ele><time>2026-04-24T08:41:09.001Z</time></trkpt><trkpt lat="-17.65850992397742" lon="123.27385167031846"><ele>29.0</ele><time>2026-04-24T08:41:10.001Z</time></trkpt><trkpt lat="-17.658660078026152" lon="123.27410059516292"><ele>28.5</ele><time>2026-04-24T08:41:11.001Z</time></trkpt><trkpt lat="-17.658815884951043" lon="123.27433716068171"><ele>28.0</ele><time>2026-04-24T08:41:12.001Z</time></trkpt><trkpt lat="-17.658975513968905" lon="123.27456274002853"><ele>28.5</ele><time>2026-04-24T08:41:13.001Z</time></trkpt><trkpt lat="-17.659134493990003" lon="123.27478505954925"><ele>29.0</ele><time>2026-04-24T08:41:14.001Z</time></trkpt><trkpt lat="-17.659289504901917" lon="123.27501028794414"><ele>29.0</ele><time>2026-04-24T08:41:15.001Z</time></trkpt><trkpt lat="-17.659443445761855" lon="123.27524124779971"><ele>29.0</ele><time>2026-04-24T08:41:16.001Z</time></trkpt><trkpt lat="-17.65959706096553" lon="123.27547375984506"><ele>28.5</ele><time>2026-04-24T08:41:17.001Z</time></trkpt><trkpt lat="-17.659752731352285" lon="123.27571318522766"><ele>28.0</ele><time>2026-04-24T08:41:18.001Z</time></trkpt><trkpt lat="-17.65990881475487" lon="123.27595236043629"><ele>28.0</ele><time>2026-04-24T08:41:19.001Z</time></trkpt><trkpt lat="-17.660066149759047" lon="123.2761913026363"><ele>28.0</ele><time>2026-04-24T08:41:20.001Z</time></trkpt><trkpt lat="-17.66022616381561" lon="123.27643184561148"><ele>27.5</ele><time>2026-04-24T08:41:21.001Z</time></trkpt><trkpt lat="-17.66038959200313" lon="123.27667214410876"><ele>27.0</ele><time>2026-04-24T08:41:22.001Z</time></trkpt><trkpt lat="-17.660550782978884" lon="123.27691194726917"><ele>27.0</ele><time>2026-04-24T08:41:23.001Z</time></trkpt><trkpt lat="-17.660712878530617" lon="123.27715216985032"><ele>27.0</ele><time>2026-04-24T08:41:24.001Z</time></trkpt><trkpt lat="-17.66087552153512" lon="123.27739550584047"><ele>27.0</ele><time>2026-04-24T08:41:25.001Z</time></trkpt><trkpt lat="-17.661038264456028" lon="123.2776420096586"><ele>27.0</ele><time>2026-04-24T08:41:26.001Z</time></trkpt><trkpt lat="-17.661202389123424" lon="123.27788873720348"><ele>27.5</ele><time>2026-04-24T08:41:27.001Z</time></trkpt><trkpt lat="-17.661367024222248" lon="123.27813691035063"><ele>28.0</ele><time>2026-04-24T08:41:28.001Z</time></trkpt><trkpt lat="-17.661530246827322" lon="123.27838516651691"><ele>28.0</ele><time>2026-04-24T08:41:29.001Z</time></trkpt><trkpt lat="-17.6616939999003" lon="123.27863174135734"><ele>28.0</ele><time>2026-04-24T08:41:30.001Z</time></trkpt><trkpt lat="-17.661855927868913" lon="123.2788767259412"><ele>27.5</ele><time>2026-04-24T08:41:31.001Z</time></trkpt><trkpt lat="-17.662019331118003" lon="123.27912211481171"><ele>27.0</ele><time>2026-04-24T08:41:32.001Z</time></trkpt><trkpt lat="-17.662185696117433" lon="123.27936941507384"><ele>27.0</ele><time>2026-04-24T08:41:33.001Z</time></trkpt><trkpt lat="-17.662352424921412" lon="123.27961843370126"><ele>27.0</ele><time>2026-04-24T08:41:34.001Z</time></trkpt><trkpt lat="-17.662517734147215" lon="123.27986695870625"><ele>26.5</ele><time>2026-04-24T08:41:35.001Z</time></trkpt><trkpt lat="-17.662681638038645" lon="123.28011456445824"><ele>26.0</ele><time>2026-04-24T08:41:36.001Z</time></trkpt><trkpt lat="-17.662847787612566" lon="123.28036329385512"><ele>25.0</ele><time>2026-04-24T08:41:37.001Z</time></trkpt><trkpt lat="-17.663013930079252" lon="123.2806099339421"><ele>24.0</ele><time>2026-04-24T08:41:38Z</time></trkpt><trkpt lat="-17.663177690866817" lon="123.28085774016553"><ele>24.0</ele><time>2026-04-24T08:41:39Z</time></trkpt><trkpt lat="-17.663342916900355" lon="123.281105475415"><ele>24.0</ele><time>2026-04-24T08:41:40Z</time></trkpt><trkpt lat="-17.663508545298157" lon="123.2813502306404"><ele>24.0</ele><time>2026-04-24T08:41:41Z</time></trkpt><trkpt lat="-17.663674674063397" lon="123.28159348367433"><ele>24.0</ele><time>2026-04-24T08:41:42Z</time></trkpt><trkpt lat="-17.663838097232667" lon="123.28183683950341"><ele>24.0</ele><time>2026-04-24T08:41:43Z</time></trkpt><trkpt lat="-17.664001214627522" lon="123.28208063945016"><ele>24.0</ele><time>2026-04-24T08:41:44Z</time></trkpt><trkpt lat="-17.664164424702694" lon="123.28232317710567"><ele>23.5</ele><time>2026-04-24T08:41:45Z</time></trkpt><trkpt lat="-17.664326650514568" lon="123.28256484130692"><ele>23.0</ele><time>2026-04-24T08:41:46Z</time></trkpt><trkpt lat="-17.664487809659253" lon="123.2828075645602"><ele>23.5</ele><time>2026-04-24T08:41:47Z</time></trkpt><trkpt lat="-17.664648697155585" lon="123.28305086519305"><ele>24.0</ele><time>2026-04-24T08:41:48Z</time></trkpt><trkpt lat="-17.664812316271043" lon="123.2832943318772"><ele>24.0</ele><time>2026-04-24T08:41:49Z</time></trkpt><trkpt lat="-17.66497736969137" lon="123.28353861835222"><ele>24.0</ele><time>2026-04-24T08:41:50Z</time></trkpt><trkpt lat="-17.66514560355501" lon="123.28378585359492"><ele>24.5</ele><time>2026-04-24T08:41:51Z</time></trkpt><trkpt lat="-17.66531434825783" lon="123.28403516615505"><ele>25.0</ele><time>2026-04-24T08:41:52Z</time></trkpt><trkpt lat="-17.665483786001104" lon="123.28429101739103"><ele>25.0</ele><time>2026-04-24T08:41:53Z</time></trkpt><trkpt lat="-17.665652518651026" lon="123.2845486782421"><ele>25.0</ele><time>2026-04-24T08:41:54Z</time></trkpt><trkpt lat="-17.665822700813525" lon="123.28480292498566"><ele>25.0</ele><time>2026-04-24T08:41:55Z</time></trkpt><trkpt lat="-17.66599289717476" lon="123.28505231818149"><ele>25.0</ele><time>2026-04-24T08:41:56Z</time></trkpt><trkpt lat="-17.666164380978955" lon="123.28530230910614"><ele>24.5</ele><time>2026-04-24T08:41:57Z</time></trkpt><trkpt lat="-17.66633258296636" lon="123.28554859303915"><ele>24.0</ele><time>2026-04-24T08:41:58Z</time></trkpt><trkpt lat="-17.666498220622614" lon="123.28579656739076"><ele>24.0</ele><time>2026-04-24T08:41:59Z</time></trkpt><trkpt lat="-17.666658576047393" lon="123.2860428053142"><ele>24.0</ele><time>2026-04-24T08:42:00Z</time></trkpt><trkpt lat="-17.666818253898235" lon="123.2862851285012"><ele>24.0</ele><time>2026-04-24T08:42:01Z</time></trkpt><trkpt lat="-17.666977948315665" lon="123.28652511497012"><ele>24.0</ele><time>2026-04-24T08:42:02Z</time></trkpt><trkpt lat="-17.66713424390481" lon="123.28676460596839"><ele>24.0</ele><time>2026-04-24T08:42:03Z</time></trkpt><trkpt lat="-17.66728435993904" lon="123.28701122885896"><ele>24.0</ele><time>2026-04-24T08:42:04Z</time></trkpt><trkpt lat="-17.667423137435303" lon="123.2872667228418"><ele>24.5</ele><time>2026-04-24T08:42:05Z</time></trkpt><trkpt lat="-17.667544871206644" lon="123.28753489824858"><ele>25.0</ele><time>2026-04-24T08:42:06Z</time></trkpt><trkpt lat="-17.66765591284955" lon="123.28781433383409"><ele>25.5</ele><time>2026-04-24T08:42:07Z</time></trkpt><trkpt lat="-17.667749680675907" lon="123.28809987946045"><ele>26.0</ele><time>2026-04-24T08:42:08Z</time></trkpt><trkpt lat="-17.66782651578119" lon="123.28839269154118"><ele>26.0</ele><time>2026-04-24T08:42:09Z</time></trkpt><trkpt lat="-17.667873149247285" lon="123.28869768227896"><ele>26.0</ele><time>2026-04-24T08:42:10Z</time></trkpt><trkpt lat="-17.667917612954824" lon="123.28900271053475"><ele>26.5</ele><time>2026-04-24T08:42:11Z</time></trkpt><trkpt lat="-17.66794823955423" lon="123.28930863667425"><ele>27.0</ele><time>2026-04-24T08:42:12Z</time></trkpt><trkpt lat="-17.66797983620895" lon="123.28961613208406"><ele>26.5</ele><time>2026-04-24T08:42:13Z</time></trkpt><trkpt lat="-17.667972819367392" lon="123.289924847812"><ele>26.0</ele><time>2026-04-24T08:42:14Z</time></trkpt><trkpt lat="-17.667953100125793" lon="123.29023758590655"><ele>26.0</ele><time>2026-04-24T08:42:15Z</time></trkpt><trkpt lat="-17.667926156174598" lon="123.29054865867239"><ele>26.0</ele><time>2026-04-24T08:42:16Z</time></trkpt><trkpt lat="-17.667896553665756" lon="123.29085459295611"><ele>26.0</ele><time>2026-04-24T08:42:17Z</time></trkpt><trkpt lat="-17.667871021056424" lon="123.2911573100752"><ele>26.0</ele><time>2026-04-24T08:42:18Z</time></trkpt><trkpt lat="-17.667847487867977" lon="123.29146003147264"><ele>26.0</ele><time>2026-04-24T08:42:19Z</time></trkpt><trkpt lat="-17.66782599300579" lon="123.29176432917832"><ele>26.0</ele><time>2026-04-24T08:42:20Z</time></trkpt><trkpt lat="-17.66781115468655" lon="123.29206903132257"><ele>26.0</ele><time>2026-04-24T08:42:21Z</time></trkpt><trkpt lat="-17.667798134563785" lon="123.29237671009572"><ele>26.0</ele><time>2026-04-24T08:42:22Z</time></trkpt><trkpt lat="-17.66778761788007" lon="123.29268329763268"><ele>26.0</ele><time>2026-04-24T08:42:23Z</time></trkpt><trkpt lat="-17.667752386574207" lon="123.29299191326236"><ele>26.0</ele><time>2026-04-24T08:42:24Z</time></trkpt><trkpt lat="-17.667731340323655" lon="123.29329641297309"><ele>26.0</ele><time>2026-04-24T08:42:25Z</time></trkpt><trkpt lat="-17.667710928348303" lon="123.29360154742162"><ele>26.0</ele><time>2026-04-24T08:42:26Z</time></trkpt><trkpt lat="-17.667691040797795" lon="123.29390427176004"><ele>25.5</ele><time>2026-04-24T08:42:27Z</time></trkpt><trkpt lat="-17.66767284700023" lon="123.29420572297613"><ele>25.0</ele><time>2026-04-24T08:42:28Z</time></trkpt><trkpt lat="-17.667663405719544" lon="123.29451027539986"><ele>25.5</ele><time>2026-04-24T08:42:29Z</time></trkpt><trkpt lat="-17.667624527902827" lon="123.29481933781929"><ele>26.0</ele><time>2026-04-24T08:42:30Z</time></trkpt><trkpt lat="-17.667597051584163" lon="123.2951265406812"><ele>26.0</ele><time>2026-04-24T08:42:31Z</time></trkpt><trkpt lat="-17.667580943351613" lon="123.29543372875202"><ele>26.0</ele><time>2026-04-24T08:42:32Z</time></trkpt><trkpt lat="-17.667564893643224" lon="123.29574167809204"><ele>26.5</ele><time>2026-04-24T08:42:33Z</time></trkpt><trkpt lat="-17.66754674580157" lon="123.296047678719"><ele>27.0</ele><time>2026-04-24T08:42:34Z</time></trkpt><trkpt lat="-17.667527288120425" lon="123.29635026672076"><ele>27.5</ele><time>2026-04-24T08:42:35Z</time></trkpt><trkpt lat="-17.66750749109211" lon="123.29664311665971"><ele>28.0</ele><time>2026-04-24T08:42:36Z</time></trkpt><trkpt lat="-17.667485500137808" lon="123.29693044765858"><ele>28.0</ele><time>2026-04-24T08:42:37Z</time></trkpt><trkpt lat="-17.667464916407198" lon="123.29722695086244"><ele>28.0</ele><time>2026-04-24T08:42:38Z</time></trkpt><trkpt lat="-17.66744497168583" lon="123.29753010688395"><ele>28.0</ele><time>2026-04-24T08:42:39Z</time></trkpt><trkpt lat="-17.667426644558372" lon="123.29783433012898"><ele>28.0</ele><time>2026-04-24T08:42:40Z</time></trkpt><trkpt lat="-17.66740619742705" lon="123.29813982152078"><ele>28.0</ele><time>2026-04-24T08:42:41Z</time></trkpt><trkpt lat="-17.66738501156226" lon="123.29844627044203"><ele>28.0</ele><time>2026-04-24T08:42:42Z</time></trkpt><trkpt lat="-17.66736513450439" lon="123.29875300071359"><ele>28.5</ele><time>2026-04-24T08:42:43Z</time></trkpt><trkpt lat="-17.66734569322736" lon="123.2990589545285"><ele>29.0</ele><time>2026-04-24T08:42:44Z</time></trkpt><trkpt lat="-17.667327965381038" lon="123.29936817814166"><ele>29.0</ele><time>2026-04-24T08:42:45Z</time></trkpt><trkpt lat="-17.667309406872207" lon="123.2996791534996"><ele>29.0</ele><time>2026-04-24T08:42:46Z</time></trkpt><trkpt lat="-17.66728836123405" lon="123.29998681282643"><ele>28.0</ele><time>2026-04-24T08:42:47Z</time></trkpt><trkpt lat="-17.667269918218427" lon="123.30029295792102"><ele>27.0</ele><time>2026-04-24T08:42:48Z</time></trkpt><trkpt lat="-17.667250695041666" lon="123.30059965019299"><ele>27.0</ele><time>2026-04-24T08:42:49Z</time></trkpt><trkpt lat="-17.667229215762376" lon="123.30090712040095"><ele>27.0</ele><time>2026-04-24T08:42:50Z</time></trkpt><trkpt lat="-17.667205323457946" lon="123.30121524198516"><ele>27.0</ele><time>2026-04-24T08:42:51Z</time></trkpt><trkpt lat="-17.66717965853157" lon="123.30152292457318"><ele>27.0</ele><time>2026-04-24T08:42:52Z</time></trkpt><trkpt lat="-17.667154610991243" lon="123.30183138870322"><ele>27.0</ele><time>2026-04-24T08:42:53Z</time></trkpt><trkpt lat="-17.667129634462423" lon="123.30213756553236"><ele>27.0</ele><time>2026-04-24T08:42:54Z</time></trkpt><trkpt lat="-17.667107428165416" lon="123.30244395090784"><ele>28.0</ele><time>2026-04-24T08:42:55Z</time></trkpt><trkpt lat="-17.667087210767605" lon="123.30274564802555"><ele>29.0</ele><time>2026-04-24T08:42:56Z</time></trkpt><trkpt lat="-17.66706896549255" lon="123.30304865714578"><ele>29.0</ele><time>2026-04-24T08:42:57Z</time></trkpt><trkpt lat="-17.667048408233917" lon="123.30334814658734"><ele>29.0</ele><time>2026-04-24T08:42:58Z</time></trkpt><trkpt lat="-17.66702741558713" lon="123.30364943719125"><ele>28.5</ele><time>2026-04-24T08:42:59Z</time></trkpt><trkpt lat="-17.667006901068806" lon="123.30395318768254"><ele>28.0</ele><time>2026-04-24T08:43:00Z</time></trkpt><trkpt lat="-17.66698673717581" lon="123.30425607540724"><ele>28.0</ele><time>2026-04-24T08:43:01Z</time></trkpt><trkpt lat="-17.666967850223756" lon="123.30456110141502"><ele>28.0</ele><time>2026-04-24T08:43:02Z</time></trkpt><trkpt lat="-17.666951001567103" lon="123.30486491751162"><ele>28.0</ele><time>2026-04-24T08:43:03Z</time></trkpt><trkpt lat="-17.66693288383331" lon="123.30517034599593"><ele>28.0</ele><time>2026-04-24T08:43:04Z</time></trkpt><trkpt lat="-17.666912717096075" lon="123.30547598954111"><ele>29.0</ele><time>2026-04-24T08:43:05Z</time></trkpt><trkpt lat="-17.666890948385586" lon="123.30578119658433"><ele>30.0</ele><time>2026-04-24T08:43:06Z</time></trkpt><trkpt lat="-17.666869743758443" lon="123.30609092235666"><ele>30.0</ele><time>2026-04-24T08:43:07Z</time></trkpt><trkpt lat="-17.666848055516024" lon="123.30639983174471"><ele>30.0</ele><time>2026-04-24T08:43:08Z</time></trkpt><trkpt lat="-17.666827984791407" lon="123.30671075739849"><ele>29.5</ele><time>2026-04-24T08:43:09Z</time></trkpt><trkpt lat="-17.66680782768035" lon="123.30702172028802"><ele>29.0</ele><time>2026-04-24T08:43:10Z</time></trkpt><trkpt lat="-17.666787566120814" lon="123.30733231798843"><ele>28.5</ele><time>2026-04-24T08:43:11Z</time></trkpt><trkpt lat="-17.666766231649564" lon="123.30764662870108"><ele>28.0</ele><time>2026-04-24T08:43:12Z</time></trkpt><trkpt lat="-17.666743827535946" lon="123.30796175867215"><ele>29.0</ele><time>2026-04-24T08:43:13Z</time></trkpt><trkpt lat="-17.666722042226713" lon="123.308274585758"><ele>30.0</ele><time>2026-04-24T08:43:14Z</time></trkpt><trkpt lat="-17.66669984683029" lon="123.30858760527266"><ele>30.0</ele><time>2026-04-24T08:43:15Z</time></trkpt><trkpt lat="-17.666678017587103" lon="123.30889938159721"><ele>30.0</ele><time>2026-04-24T08:43:16Z</time></trkpt><trkpt lat="-17.666655085042603" lon="123.30921816021136"><ele>30.5</ele><time>2026-04-24T08:43:17Z</time></trkpt><trkpt lat="-17.666634480192666" lon="123.30953390261341"><ele>31.0</ele><time>2026-04-24T08:43:18Z</time></trkpt><trkpt lat="-17.66661524150017" lon="123.30984997470078"><ele>30.0</ele><time>2026-04-24T08:43:19Z</time></trkpt><trkpt lat="-17.6665939862062" lon="123.31016554171552"><ele>29.0</ele><time>2026-04-24T08:43:20Z</time></trkpt><trkpt lat="-17.666573065725874" lon="123.31048083165146"><ele>29.5</ele><time>2026-04-24T08:43:21Z</time></trkpt><trkpt lat="-17.666551800700738" lon="123.31079498334451"><ele>30.0</ele><time>2026-04-24T08:43:22Z</time></trkpt><trkpt lat="-17.66653018921559" lon="123.31110695410675"><ele>29.0</ele><time>2026-04-24T08:43:23Z</time></trkpt><trkpt lat="-17.66650800872035" lon="123.31142038902256"><ele>28.0</ele><time>2026-04-24T08:43:24Z</time></trkpt><trkpt lat="-17.666486049372597" lon="123.31173059600896"><ele>28.0</ele><time>2026-04-24T08:43:25Z</time></trkpt><trkpt lat="-17.666464705967346" lon="123.31204187067732"><ele>28.0</ele><time>2026-04-24T08:43:26Z</time></trkpt><trkpt lat="-17.666444344356194" lon="123.31235293995195"><ele>27.5</ele><time>2026-04-24T08:43:27Z</time></trkpt><trkpt lat="-17.66642603839036" lon="123.31266222067111"><ele>27.0</ele><time>2026-04-24T08:43:28Z</time></trkpt><trkpt lat="-17.666406916758923" lon="123.31297316060616"><ele>27.0</ele><time>2026-04-24T08:43:29Z</time></trkpt><trkpt lat="-17.66638533869405" lon="123.31328185272817"><ele>27.0</ele><time>2026-04-24T08:43:30Z</time></trkpt><trkpt lat="-17.66636331447424" lon="123.31359338643942"><ele>27.0</ele><time>2026-04-24T08:43:31Z</time></trkpt><trkpt lat="-17.66634128412638" lon="123.31390161028223"><ele>27.0</ele><time>2026-04-24T08:43:32Z</time></trkpt><trkpt lat="-17.66632098617863" lon="123.3142139912975"><ele>26.0</ele><time>2026-04-24T08:43:33Z</time></trkpt><trkpt lat="-17.66630242312934" lon="123.31452019195831"><ele>25.0</ele><time>2026-04-24T08:43:34Z</time></trkpt><trkpt lat="-17.666282426198805" lon="123.31483041957162"><ele>25.0</ele><time>2026-04-24T08:43:35Z</time></trkpt><trkpt lat="-17.666264106844075" lon="123.31513920532913"><ele>25.0</ele><time>2026-04-24T08:43:36Z</time></trkpt><trkpt lat="-17.66624388929959" lon="123.31544421220043"><ele>25.5</ele><time>2026-04-24T08:43:37Z</time></trkpt><trkpt lat="-17.6662222457532" lon="123.31575038635532"><ele>26.0</ele><time>2026-04-24T08:43:38Z</time></trkpt><trkpt lat="-17.666199656603432" lon="123.31605369418746"><ele>26.0</ele><time>2026-04-24T08:43:39Z</time></trkpt><trkpt lat="-17.666176661706285" lon="123.3163559737093"><ele>26.0</ele><time>2026-04-24T08:43:40Z</time></trkpt><trkpt lat="-17.66615510141848" lon="123.31665638279836"><ele>25.0</ele><time>2026-04-24T08:43:41Z</time></trkpt><trkpt lat="-17.66613481987263" lon="123.31695602635719"><ele>24.0</ele><time>2026-04-24T08:43:42Z</time></trkpt><trkpt lat="-17.666114376618612" lon="123.31725795445017"><ele>26.0</ele><time>2026-04-24T08:43:43Z</time></trkpt><trkpt lat="-17.666093212555438" lon="123.31756279855635"><ele>28.0</ele><time>2026-04-24T08:43:44Z</time></trkpt><trkpt lat="-17.666073497667075" lon="123.31787041711735"><ele>27.5</ele><time>2026-04-24T08:43:45Z</time></trkpt><trkpt lat="-17.666053995036663" lon="123.31818151675196"><ele>27.0</ele><time>2026-04-24T08:43:46Z</time></trkpt><trkpt lat="-17.666033589459065" lon="123.3184912871802"><ele>27.0</ele><time>2026-04-24T08:43:47Z</time></trkpt><trkpt lat="-17.666011648205536" lon="123.31879975090453"><ele>27.0</ele><time>2026-04-24T08:43:48Z</time></trkpt><trkpt lat="-17.66598755221568" lon="123.31910666545946"><ele>27.0</ele><time>2026-04-24T08:43:49Z</time></trkpt><trkpt lat="-17.6659654120236" lon="123.31941313804461"><ele>27.0</ele><time>2026-04-24T08:43:50Z</time></trkpt><trkpt lat="-17.665944502014167" lon="123.31971667603973"><ele>26.0</ele><time>2026-04-24T08:43:51Z</time></trkpt><trkpt lat="-17.665924967073146" lon="123.32002301948907"><ele>25.0</ele><time>2026-04-24T08:43:52Z</time></trkpt><trkpt lat="-17.66591207916783" lon="123.32032849482191"><ele>25.0</ele><time>2026-04-24T08:43:53Z</time></trkpt><trkpt lat="-17.665907794408003" lon="123.32063590676994"><ele>25.0</ele><time>2026-04-24T08:43:54Z</time></trkpt><trkpt lat="-17.66591454180018" lon="123.32094431575115"><ele>25.0</ele><time>2026-04-24T08:43:55Z</time></trkpt><trkpt lat="-17.665932446589125" lon="123.32125558090102"><ele>25.0</ele><time>2026-04-24T08:43:56Z</time></trkpt><trkpt lat="-17.665959773097118" lon="123.32156669896017"><ele>25.5</ele><time>2026-04-24T08:43:57Z</time></trkpt><trkpt lat="-17.66599704082721" lon="123.32187602156444"><ele>26.0</ele><time>2026-04-24T08:43:58Z</time></trkpt><trkpt lat="-17.666042468357073" lon="123.32218433994592"><ele>26.0</ele><time>2026-04-24T08:43:59Z</time></trkpt><trkpt lat="-17.666094110167002" lon="123.32248904402589"><ele>26.0</ele><time>2026-04-24T08:44:00Z</time></trkpt><trkpt lat="-17.666150134213563" lon="123.32279010650493"><ele>25.5</ele><time>2026-04-24T08:44:01Z</time></trkpt><trkpt lat="-17.666205877315853" lon="123.3230941262693"><ele>25.0</ele><time>2026-04-24T08:44:02Z</time></trkpt><trkpt lat="-17.666257604016852" lon="123.32340061552829"><ele>25.0</ele><time>2026-04-24T08:44:03Z</time></trkpt><trkpt lat="-17.666308779802353" lon="123.32370511333261"><ele>25.0</ele><time>2026-04-24T08:44:04Z</time></trkpt><trkpt lat="-17.666359104941638" lon="123.32400691044113"><ele>25.5</ele><time>2026-04-24T08:44:05Z</time></trkpt><trkpt lat="-17.66640681717913" lon="123.32430586593969"><ele>26.0</ele><time>2026-04-24T08:44:06Z</time></trkpt><trkpt lat="-17.666454367222876" lon="123.32459856141146"><ele>26.5</ele><time>2026-04-24T08:44:07Z</time></trkpt><trkpt lat="-17.666502714747978" lon="123.32488881916542"><ele>27.0</ele><time>2026-04-24T08:44:08Z</time></trkpt><trkpt lat="-17.666550197273267" lon="123.32517842825276"><ele>27.0</ele><time>2026-04-24T08:44:09Z</time></trkpt><trkpt lat="-17.666596286619956" lon="123.3254711640361"><ele>27.0</ele><time>2026-04-24T08:44:10Z</time></trkpt><trkpt lat="-17.66664440705853" lon="123.32576712845376"><ele>26.5</ele><time>2026-04-24T08:44:11Z</time></trkpt><trkpt lat="-17.666694015182024" lon="123.3260652542457"><ele>26.0</ele><time>2026-04-24T08:44:12Z</time></trkpt><trkpt lat="-17.666744487257695" lon="123.32636642070408"><ele>25.0</ele><time>2026-04-24T08:44:13Z</time></trkpt><trkpt lat="-17.66679466005252" lon="123.32666376488486"><ele>24.0</ele><time>2026-04-24T08:44:14Z</time></trkpt><trkpt lat="-17.666839329960975" lon="123.32694337362643"><ele>24.0</ele><time>2026-04-24T08:44:15Z</time></trkpt><trkpt lat="-17.666880679450994" lon="123.32720777463223"><ele>24.0</ele><time>2026-04-24T08:44:16Z</time></trkpt><trkpt lat="-17.666925561855575" lon="123.32747647917235"><ele>23.5</ele><time>2026-04-24T08:44:17Z</time></trkpt><trkpt lat="-17.666973781716482" lon="123.32775171842158"><ele>23.0</ele><time>2026-04-24T08:44:18Z</time></trkpt><trkpt lat="-17.667024817222927" lon="123.32803224708968"><ele>22.0</ele><time>2026-04-24T08:44:19Z</time></trkpt><trkpt lat="-17.66707544604783" lon="123.32831593938639"><ele>21.0</ele><time>2026-04-24T08:44:20Z</time></trkpt><trkpt lat="-17.66712464553851" lon="123.32860690500382"><ele>21.0</ele><time>2026-04-24T08:44:21Z</time></trkpt><trkpt lat="-17.66717458563955" lon="123.32890378766258"><ele>21.0</ele><time>2026-04-24T08:44:22Z</time></trkpt><trkpt lat="-17.667224689425765" lon="123.32920402808442"><ele>21.0</ele><time>2026-04-24T08:44:23Z</time></trkpt><trkpt lat="-17.667275728363492" lon="123.32951049333508"><ele>21.0</ele><time>2026-04-24T08:44:24Z</time></trkpt><trkpt lat="-17.667325892496613" lon="123.32981496678617"><ele>20.5</ele><time>2026-04-24T08:44:25Z</time></trkpt><trkpt lat="-17.667375970067834" lon="123.33012440865201"><ele>20.0</ele><time>2026-04-24T08:44:26Z</time></trkpt><trkpt lat="-17.66742591935442" lon="123.33043426247507"><ele>19.5</ele><time>2026-04-24T08:44:27Z</time></trkpt><trkpt lat="-17.667478503393205" lon="123.33074672970267"><ele>19.0</ele><time>2026-04-24T08:44:28Z</time></trkpt><trkpt lat="-17.66753007900959" lon="123.33106404581471"><ele>19.0</ele><time>2026-04-24T08:44:29Z</time></trkpt><trkpt lat="-17.667579267805696" lon="123.33137695796931"><ele>19.0</ele><time>2026-04-24T08:44:30Z</time></trkpt><trkpt lat="-17.66762912127721" lon="123.33168947512443"><ele>19.0</ele><time>2026-04-24T08:44:31Z</time></trkpt><trkpt lat="-17.66767962283945" lon="123.33200175827119"><ele>19.0</ele><time>2026-04-24T08:44:32Z</time></trkpt><trkpt lat="-17.667730188482818" lon="123.33231632719749"><ele>19.0</ele><time>2026-04-24T08:44:33Z</time></trkpt><trkpt lat="-17.66778210707059" lon="123.33262824458785"><ele>19.0</ele><time>2026-04-24T08:44:34Z</time></trkpt><trkpt lat="-17.667834380161114" lon="123.3329412313664"><ele>19.0</ele><time>2026-04-24T08:44:35Z</time></trkpt><trkpt lat="-17.667886364703335" lon="123.33325303845962"><ele>19.0</ele><time>2026-04-24T08:44:36Z</time></trkpt><trkpt lat="-17.667937796348227" lon="123.33356387903014"><ele>19.0</ele><time>2026-04-24T08:44:37Z</time></trkpt><trkpt lat="-17.667988545897636" lon="123.33387454312685"><ele>19.0</ele><time>2026-04-24T08:44:38Z</time></trkpt><trkpt lat="-17.668039572058024" lon="123.33418313557075"><ele>19.0</ele><time>2026-04-24T08:44:39Z</time></trkpt><trkpt lat="-17.668091685209937" lon="123.33448958184195"><ele>19.0</ele><time>2026-04-24T08:44:40Z</time></trkpt><trkpt lat="-17.66814284294673" lon="123.33479388399938"><ele>19.0</ele><time>2026-04-24T08:44:41Z</time></trkpt><trkpt lat="-17.66819433139346" lon="123.33509731687568"><ele>19.0</ele><time>2026-04-24T08:44:42Z</time></trkpt><trkpt lat="-17.668243381409148" lon="123.33540125162948"><ele>18.5</ele><time>2026-04-24T08:44:43Z</time></trkpt><trkpt lat="-17.668294595324593" lon="123.33570482640222"><ele>18.0</ele><time>2026-04-24T08:44:44Z</time></trkpt><trkpt lat="-17.668346767670567" lon="123.33600665311116"><ele>18.0</ele><time>2026-04-24T08:44:45Z</time></trkpt><trkpt lat="-17.668398556577994" lon="123.33630594626665"><ele>18.0</ele><time>2026-04-24T08:44:46Z</time></trkpt><trkpt lat="-17.66844843507926" lon="123.33660860454722"><ele>17.5</ele><time>2026-04-24T08:44:47Z</time></trkpt><trkpt lat="-17.668497244786227" lon="123.33691029531494"><ele>17.0</ele><time>2026-04-24T08:44:48Z</time></trkpt><trkpt lat="-17.668545644380398" lon="123.33721276596582"><ele>17.0</ele><time>2026-04-24T08:44:49Z</time></trkpt><trkpt lat="-17.6685959808334" lon="123.33751557148136"><ele>17.0</ele><time>2026-04-24T08:44:50Z</time></trkpt><trkpt lat="-17.668646030849317" lon="123.33781833068755"><ele>18.5</ele><time>2026-04-24T08:44:51Z</time></trkpt><trkpt lat="-17.66869676633039" lon="123.33812267630401"><ele>20.0</ele><time>2026-04-24T08:44:52Z</time></trkpt><trkpt lat="-17.668748304220642" lon="123.33842343145304"><ele>20.0</ele><time>2026-04-24T08:44:53Z</time></trkpt><trkpt lat="-17.668800353091157" lon="123.33872602344167"><ele>20.0</ele><time>2026-04-24T08:44:54Z</time></trkpt><trkpt lat="-17.66885300606487" lon="123.33902994475432"><ele>19.0</ele><time>2026-04-24T08:44:55Z</time></trkpt><trkpt lat="-17.66890490596261" lon="123.33933718997982"><ele>18.0</ele><time>2026-04-24T08:44:56Z</time></trkpt><trkpt lat="-17.668955631236198" lon="123.33964561274885"><ele>18.0</ele><time>2026-04-24T08:44:57Z</time></trkpt><trkpt lat="-17.669005454325376" lon="123.33995470448276"><ele>18.0</ele><time>2026-04-24T08:44:58Z</time></trkpt><trkpt lat="-17.669057091138082" lon="123.34026577421555"><ele>18.0</ele><time>2026-04-24T08:44:59Z</time></trkpt><trkpt lat="-17.66910649342242" lon="123.34057918148167"><ele>18.0</ele><time>2026-04-24T08:45:00Z</time></trkpt><trkpt lat="-17.669158447670448" lon="123.34089374866248"><ele>18.0</ele><time>2026-04-24T08:45:01Z</time></trkpt><trkpt lat="-17.66920988063957" lon="123.34120562117566"><ele>18.0</ele><time>2026-04-24T08:45:02Z</time></trkpt><trkpt lat="-17.669257848497615" lon="123.34151375736054"><ele>18.0</ele><time>2026-04-24T08:45:03Z</time></trkpt><trkpt lat="-17.669305033850776" lon="123.3418145761721"><ele>18.0</ele><time>2026-04-24T08:45:04Z</time></trkpt><trkpt lat="-17.66935350685109" lon="123.34211246040749"><ele>18.0</ele><time>2026-04-24T08:45:05Z</time></trkpt><trkpt lat="-17.669403152113183" lon="123.34240652697935"><ele>18.0</ele><time>2026-04-24T08:45:06Z</time></trkpt><trkpt lat="-17.669454960744364" lon="123.3426998720484"><ele>18.0</ele><time>2026-04-24T08:45:07Z</time></trkpt><trkpt lat="-17.669505382968662" lon="123.34299688161177"><ele>18.0</ele><time>2026-04-24T08:45:08Z</time></trkpt><trkpt lat="-17.669555459735868" lon="123.34329336510191"><ele>18.0</ele><time>2026-04-24T08:45:09Z</time></trkpt><trkpt lat="-17.669604197531726" lon="123.34359933839058"><ele>18.0</ele><time>2026-04-24T08:45:10Z</time></trkpt><trkpt lat="-17.669653156911583" lon="123.34390497186091"><ele>17.0</ele><time>2026-04-24T08:45:11Z</time></trkpt><trkpt lat="-17.669702922439107" lon="123.344212549428"><ele>16.0</ele><time>2026-04-24T08:45:12Z</time></trkpt><trkpt lat="-17.669752641865745" lon="123.34452054289679"><ele>16.5</ele><time>2026-04-24T08:45:13Z</time></trkpt><trkpt lat="-17.669803193045826" lon="123.34483006381991"><ele>17.0</ele><time>2026-04-24T08:45:14Z</time></trkpt><trkpt lat="-17.669853420348147" lon="123.34513446283574"><ele>17.0</ele><time>2026-04-24T08:45:15Z</time></trkpt><trkpt lat="-17.66990578060588" lon="123.34543794998599"><ele>17.0</ele><time>2026-04-24T08:45:16Z</time></trkpt><trkpt lat="-17.669955277082746" lon="123.34573691014798"><ele>16.0</ele><time>2026-04-24T08:45:17Z</time></trkpt><trkpt lat="-17.670003296738795" lon="123.34603388544751"><ele>15.0</ele><time>2026-04-24T08:45:18Z</time></trkpt><trkpt lat="-17.670049311296136" lon="123.34633044329136"><ele>16.0</ele><time>2026-04-24T08:45:19Z</time></trkpt><trkpt lat="-17.670096629078184" lon="123.34662659510079"><ele>17.0</ele><time>2026-04-24T08:45:20Z</time></trkpt><trkpt lat="-17.67014509164375" lon="123.34692056481394"><ele>17.0</ele><time>2026-04-24T08:45:21Z</time></trkpt><trkpt lat="-17.670193319014462" lon="123.3472164555472"><ele>17.0</ele><time>2026-04-24T08:45:22Z</time></trkpt><trkpt lat="-17.670242449603737" lon="123.34751254380103"><ele>17.0</ele><time>2026-04-24T08:45:23Z</time></trkpt><trkpt lat="-17.670291920348614" lon="123.34780977732986"><ele>17.0</ele><time>2026-04-24T08:45:24Z</time></trkpt><trkpt lat="-17.670343199715962" lon="123.34810386519656"><ele>16.0</ele><time>2026-04-24T08:45:25Z</time></trkpt><trkpt lat="-17.670393755372814" lon="123.34839826519499"><ele>15.0</ele><time>2026-04-24T08:45:26Z</time></trkpt><trkpt lat="-17.670443717121447" lon="123.34869227748644"><ele>15.0</ele><time>2026-04-24T08:45:27Z</time></trkpt><trkpt lat="-17.670494284012094" lon="123.34898399123969"><ele>15.0</ele><time>2026-04-24T08:45:28Z</time></trkpt><trkpt lat="-17.670544105710693" lon="123.34927364278656"><ele>15.0</ele><time>2026-04-24T08:45:29Z</time></trkpt><trkpt lat="-17.67059033601585" lon="123.34956690357113"><ele>15.0</ele><time>2026-04-24T08:45:30Z</time></trkpt><trkpt lat="-17.670636858842435" lon="123.34985947355906"><ele>16.0</ele><time>2026-04-24T08:45:31Z</time></trkpt><trkpt lat="-17.670685328979665" lon="123.35014907348213"><ele>17.0</ele><time>2026-04-24T08:45:32Z</time></trkpt><trkpt lat="-17.670732774310462" lon="123.35043803213962"><ele>17.0</ele><time>2026-04-24T08:45:33Z</time></trkpt><trkpt lat="-17.670778434169996" lon="123.35072695121771"><ele>17.0</ele><time>2026-04-24T08:45:34Z</time></trkpt><trkpt lat="-17.670822300252205" lon="123.3510123326623"><ele>17.0</ele><time>2026-04-24T08:45:35Z</time></trkpt><trkpt lat="-17.670867366214612" lon="123.35129809083067"><ele>17.0</ele><time>2026-04-24T08:45:36Z</time></trkpt><trkpt lat="-17.67091364170539" lon="123.3515810905491"><ele>17.0</ele><time>2026-04-24T08:45:37Z</time></trkpt><trkpt lat="-17.670963410422132" lon="123.35186074952722"><ele>17.0</ele><time>2026-04-24T08:45:38Z</time></trkpt><trkpt lat="-17.671014295643268" lon="123.35213723329821"><ele>16.5</ele><time>2026-04-24T08:45:39Z</time></trkpt><trkpt lat="-17.671064037410407" lon="123.35241095789274"><ele>16.0</ele><time>2026-04-24T08:45:40Z</time></trkpt><trkpt lat="-17.671110745668962" lon="123.35268503897079"><ele>15.5</ele><time>2026-04-24T08:45:41Z</time></trkpt><trkpt lat="-17.67115710053991" lon="123.35295523879776"><ele>15.0</ele><time>2026-04-24T08:45:42Z</time></trkpt><trkpt lat="-17.671204527810815" lon="123.35322529030647"><ele>15.0</ele><time>2026-04-24T08:45:43Z</time></trkpt><trkpt lat="-17.671247713598465" lon="123.35349120878064"><ele>15.0</ele><time>2026-04-24T08:45:44Z</time></trkpt><trkpt lat="-17.671289688040343" lon="123.35375835882745"><ele>15.0</ele><time>2026-04-24T08:45:45Z</time></trkpt><trkpt lat="-17.671331245487764" lon="123.3540230697748"><ele>15.0</ele><time>2026-04-24T08:45:46Z</time></trkpt><trkpt lat="-17.671372061035218" lon="123.35428615674991"><ele>15.0</ele><time>2026-04-24T08:45:47Z</time></trkpt><trkpt lat="-17.67141382213859" lon="123.35454773350935"><ele>15.0</ele><time>2026-04-24T08:45:48Z</time></trkpt><trkpt lat="-17.671457092658407" lon="123.3548113290145"><ele>15.0</ele><time>2026-04-24T08:45:49Z</time></trkpt><trkpt lat="-17.671501288323103" lon="123.35507293443001"><ele>15.0</ele><time>2026-04-24T08:45:50Z</time></trkpt><trkpt lat="-17.671542891916175" lon="123.35533840708945"><ele>15.0</ele><time>2026-04-24T08:45:51Z</time></trkpt><trkpt lat="-17.671584004970317" lon="123.35560449328719"><ele>15.0</ele><time>2026-04-24T08:45:52Z</time></trkpt><trkpt lat="-17.67162454903892" lon="123.35586963037895"><ele>15.0</ele><time>2026-04-24T08:45:53Z</time></trkpt><trkpt lat="-17.671666314825778" lon="123.35613410817554"><ele>15.0</ele><time>2026-04-24T08:45:54Z</time></trkpt><trkpt lat="-17.671704123037784" lon="123.35639111675688"><ele>15.0</ele><time>2026-04-24T08:45:55Z</time></trkpt><trkpt lat="-17.67173415698021" lon="123.35664657344977"><ele>15.0</ele><time>2026-04-24T08:45:56Z</time></trkpt><trkpt lat="-17.671759648585947" lon="123.35690620397398"><ele>15.0</ele><time>2026-04-24T08:45:57Z</time></trkpt><trkpt lat="-17.67178733170764" lon="123.35715821337241"><ele>15.0</ele><time>2026-04-24T08:45:58Z</time></trkpt><trkpt lat="-17.67181327254552" lon="123.35740921017171"><ele>16.0</ele><time>2026-04-24T08:45:59Z</time></trkpt><trkpt lat="-17.671842592464028" lon="123.35766289478538"><ele>17.0</ele><time>2026-04-24T08:46:00Z</time></trkpt><trkpt lat="-17.671873298821588" lon="123.35791247385028"><ele>15.5</ele><time>2026-04-24T08:46:01Z</time></trkpt><trkpt lat="-17.67190348036885" lon="123.35816568597686"><ele>14.0</ele><time>2026-04-24T08:46:02Z</time></trkpt><trkpt lat="-17.671932093031835" lon="123.35842605383066"><ele>15.0</ele><time>2026-04-24T08:46:03Z</time></trkpt><trkpt lat="-17.671961670858515" lon="123.35869555471662"><ele>16.0</ele><time>2026-04-24T08:46:04Z</time></trkpt><trkpt lat="-17.671993484350143" lon="123.35896571709765"><ele>16.0</ele><time>2026-04-24T08:46:05Z</time></trkpt><trkpt lat="-17.672022887155194" lon="123.35923963632905"><ele>16.0</ele><time>2026-04-24T08:46:06Z</time></trkpt><trkpt lat="-17.672052393864586" lon="123.35951204456246"><ele>16.0</ele><time>2026-04-24T08:46:07Z</time></trkpt><trkpt lat="-17.67208091528521" lon="123.35978505656266"><ele>16.0</ele><time>2026-04-24T08:46:08Z</time></trkpt><trkpt lat="-17.67210844845346" lon="123.36005702731674"><ele>16.0</ele><time>2026-04-24T08:46:09Z</time></trkpt><trkpt lat="-17.672137895717853" lon="123.36033234471697"><ele>16.0</ele><time>2026-04-24T08:46:10Z</time></trkpt><trkpt lat="-17.672168441591783" lon="123.36060732360423"><ele>15.0</ele><time>2026-04-24T08:46:11Z</time></trkpt><trkpt lat="-17.672200306355617" lon="123.3608846652019"><ele>14.0</ele><time>2026-04-24T08:46:12Z</time></trkpt><trkpt lat="-17.67223787335665" lon="123.36116645921827"><ele>14.0</ele><time>2026-04-24T08:46:13Z</time></trkpt><trkpt lat="-17.672275784156422" lon="123.36144960695925"><ele>14.0</ele><time>2026-04-24T08:46:14Z</time></trkpt><trkpt lat="-17.672308619093627" lon="123.36173496837844"><ele>14.0</ele><time>2026-04-24T08:46:15Z</time></trkpt><trkpt lat="-17.672339842249084" lon="123.36202313386552"><ele>14.0</ele><time>2026-04-24T08:46:16Z</time></trkpt><trkpt lat="-17.672369872594558" lon="123.36231548500584"><ele>14.0</ele><time>2026-04-24T08:46:17Z</time></trkpt><trkpt lat="-17.672399312302847" lon="123.36260762402146"><ele>14.0</ele><time>2026-04-24T08:46:18Z</time></trkpt><trkpt lat="-17.67243099586195" lon="123.36290219725147"><ele>13.5</ele><time>2026-04-24T08:46:19Z</time></trkpt><trkpt lat="-17.672462862087087" lon="123.36319215136358"><ele>13.0</ele><time>2026-04-24T08:46:20Z</time></trkpt><trkpt lat="-17.672498554515425" lon="123.36348492676045"><ele>13.0</ele><time>2026-04-24T08:46:21Z</time></trkpt><trkpt lat="-17.672532649913578" lon="123.36377467727512"><ele>13.0</ele><time>2026-04-24T08:46:22Z</time></trkpt><trkpt lat="-17.672564467045042" lon="123.36406446884207"><ele>12.5</ele><time>2026-04-24T08:46:23Z</time></trkpt><trkpt lat="-17.672596452026955" lon="123.36435322578276"><ele>12.0</ele><time>2026-04-24T08:46:24Z</time></trkpt><trkpt lat="-17.672628694743146" lon="123.36464218691839"><ele>13.0</ele><time>2026-04-24T08:46:25Z</time></trkpt><trkpt lat="-17.672661872800767" lon="123.3649278296421"><ele>14.0</ele><time>2026-04-24T08:46:26Z</time></trkpt><trkpt lat="-17.672696449968683" lon="123.36521555274012"><ele>14.0</ele><time>2026-04-24T08:46:27Z</time></trkpt><trkpt lat="-17.672727674192735" lon="123.36550280699123"><ele>14.0</ele><time>2026-04-24T08:46:28Z</time></trkpt><trkpt lat="-17.67275926695405" lon="123.36579684415051"><ele>14.5</ele><time>2026-04-24T08:46:29Z</time></trkpt><trkpt lat="-17.672790082999988" lon="123.36609141017105"><ele>15.0</ele><time>2026-04-24T08:46:30Z</time></trkpt><trkpt lat="-17.672822422959253" lon="123.36639056230938"><ele>15.0</ele><time>2026-04-24T08:46:31Z</time></trkpt><trkpt lat="-17.67285692797578" lon="123.36668983946629"><ele>15.0</ele><time>2026-04-24T08:46:32Z</time></trkpt><trkpt lat="-17.672892780564126" lon="123.36699294140365"><ele>14.5</ele><time>2026-04-24T08:46:33Z</time></trkpt><trkpt lat="-17.672927677864255" lon="123.36729587067185"><ele>14.0</ele><time>2026-04-24T08:46:34Z</time></trkpt><trkpt lat="-17.672962840511833" lon="123.36759931221705"><ele>14.0</ele><time>2026-04-24T08:46:35Z</time></trkpt><trkpt lat="-17.672996916283083" lon="123.36790588077606"><ele>14.0</ele><time>2026-04-24T08:46:36Z</time></trkpt><trkpt lat="-17.673031026530648" lon="123.36821363374655"><ele>15.0</ele><time>2026-04-24T08:46:37Z</time></trkpt><trkpt lat="-17.673065993385087" lon="123.36852259062381"><ele>16.0</ele><time>2026-04-24T08:46:38Z</time></trkpt><trkpt lat="-17.673101819038337" lon="123.36883085633376"><ele>15.0</ele><time>2026-04-24T08:46:39Z</time></trkpt><trkpt lat="-17.67313546538981" lon="123.36914404047435"><ele>14.0</ele><time>2026-04-24T08:46:40Z</time></trkpt><trkpt lat="-17.673170189055963" lon="123.36945468508651"><ele>14.0</ele><time>2026-04-24T08:46:41Z</time></trkpt><trkpt lat="-17.67320550757402" lon="123.369763748003"><ele>14.0</ele><time>2026-04-24T08:46:42Z</time></trkpt><trkpt lat="-17.673241078470255" lon="123.3700699213063"><ele>14.0</ele><time>2026-04-24T08:46:43Z</time></trkpt><trkpt lat="-17.673275102761934" lon="123.37037466298692"><ele>14.0</ele><time>2026-04-24T08:46:44Z</time></trkpt><trkpt lat="-17.673308530113076" lon="123.37067840362333"><ele>14.5</ele><time>2026-04-24T08:46:45Z</time></trkpt><trkpt lat="-17.673343416962286" lon="123.37098251076642"><ele>15.0</ele><time>2026-04-24T08:46:46Z</time></trkpt><trkpt lat="-17.673379100781133" lon="123.37128583231905"><ele>13.5</ele><time>2026-04-24T08:46:47Z</time></trkpt><trkpt lat="-17.673414517348707" lon="123.3715928214752"><ele>12.0</ele><time>2026-04-24T08:46:48Z</time></trkpt><trkpt lat="-17.67344888048842" lon="123.37189065628753"><ele>12.0</ele><time>2026-04-24T08:46:49Z</time></trkpt><trkpt lat="-17.67347918309773" lon="123.37217025751"><ele>12.0</ele><time>2026-04-24T08:46:50Z</time></trkpt><trkpt lat="-17.673510717333723" lon="123.37245188190434"><ele>12.0</ele><time>2026-04-24T08:46:51Z</time></trkpt><trkpt lat="-17.673542554310817" lon="123.3727448006186"><ele>12.0</ele><time>2026-04-24T08:46:52Z</time></trkpt><trkpt lat="-17.67357603356197" lon="123.3730389366369"><ele>12.5</ele><time>2026-04-24T08:46:53Z</time></trkpt><trkpt lat="-17.67361010456954" lon="123.37333654748402"><ele>13.0</ele><time>2026-04-24T08:46:54Z</time></trkpt><trkpt lat="-17.673643162824813" lon="123.3736300827242"><ele>11.5</ele><time>2026-04-24T08:46:55Z</time></trkpt><trkpt lat="-17.67367931463253" lon="123.37392296453743"><ele>10.0</ele><time>2026-04-24T08:46:56Z</time></trkpt><trkpt lat="-17.67371514292255" lon="123.37421530816988"><ele>10.0</ele><time>2026-04-24T08:46:57Z</time></trkpt><trkpt lat="-17.67375113230212" lon="123.37450766051859"><ele>10.0</ele><time>2026-04-24T08:46:58Z</time></trkpt><trkpt lat="-17.673782545166496" lon="123.37480033247277"><ele>10.5</ele><time>2026-04-24T08:46:59Z</time></trkpt><trkpt lat="-17.67381145586016" lon="123.37509425772572"><ele>11.0</ele><time>2026-04-24T08:47:00Z</time></trkpt><trkpt lat="-17.67384148484525" lon="123.37538791374958"><ele>11.5</ele><time>2026-04-24T08:47:01Z</time></trkpt><trkpt lat="-17.673872556272556" lon="123.37567885970361"><ele>12.0</ele><time>2026-04-24T08:47:02Z</time></trkpt><trkpt lat="-17.67390536277024" lon="123.37596526661672"><ele>12.0</ele><time>2026-04-24T08:47:03Z</time></trkpt><trkpt lat="-17.67393829965508" lon="123.37625483477241"><ele>12.0</ele><time>2026-04-24T08:47:04Z</time></trkpt><trkpt lat="-17.67397155959083" lon="123.37654723809548"><ele>12.5</ele><time>2026-04-24T08:47:05Z</time></trkpt><trkpt lat="-17.67400534439819" lon="123.3768414656159"><ele>13.0</ele><time>2026-04-24T08:47:06Z</time></trkpt><trkpt lat="-17.6740386412442" lon="123.37713436875255"><ele>11.5</ele><time>2026-04-24T08:47:07Z</time></trkpt><trkpt lat="-17.674072195149478" lon="123.377428535779"><ele>10.0</ele><time>2026-04-24T08:47:08Z</time></trkpt><trkpt lat="-17.674105735328634" lon="123.37772315207228"><ele>10.0</ele><time>2026-04-24T08:47:09Z</time></trkpt><trkpt lat="-17.674138562554276" lon="123.37801696431119"><ele>10.0</ele><time>2026-04-24T08:47:10Z</time></trkpt><trkpt lat="-17.674172345083598" lon="123.37831284211434"><ele>10.0</ele><time>2026-04-24T08:47:11Z</time></trkpt><trkpt lat="-17.6742081910146" lon="123.37861037710331"><ele>10.0</ele><time>2026-04-24T08:47:12Z</time></trkpt><trkpt lat="-17.674243285326877" lon="123.37891012256698"><ele>10.5</ele><time>2026-04-24T08:47:13Z</time></trkpt><trkpt lat="-17.67427715955329" lon="123.37920947368481"><ele>11.0</ele><time>2026-04-24T08:47:14Z</time></trkpt><trkpt lat="-17.674311916121532" lon="123.37951110581547"><ele>10.5</ele><time>2026-04-24T08:47:15Z</time></trkpt><trkpt lat="-17.674345524133656" lon="123.37981340221381"><ele>10.0</ele><time>2026-04-24T08:47:16Z</time></trkpt><trkpt lat="-17.67437940221729" lon="123.38011769753182"><ele>10.0</ele><time>2026-04-24T08:47:17Z</time></trkpt><trkpt lat="-17.674411662492965" lon="123.38042100526185"><ele>10.0</ele><time>2026-04-24T08:47:18Z</time></trkpt><trkpt lat="-17.674443534472502" lon="123.38073028836392"><ele>10.0</ele><time>2026-04-24T08:47:19Z</time></trkpt><trkpt lat="-17.674475766774343" lon="123.38103524727997"><ele>10.0</ele><time>2026-04-24T08:47:20Z</time></trkpt><trkpt lat="-17.67450782885852" lon="123.3813383110188"><ele>10.0</ele><time>2026-04-24T08:47:21Z</time></trkpt><trkpt lat="-17.67454182701026" lon="123.38164029736764"><ele>10.0</ele><time>2026-04-24T08:47:22Z</time></trkpt><trkpt lat="-17.674576642185382" lon="123.3819397501527"><ele>10.0</ele><time>2026-04-24T08:47:23Z</time></trkpt><trkpt lat="-17.6746146936525" lon="123.38223981053412"><ele>10.0</ele><time>2026-04-24T08:47:24.001Z</time></trkpt><trkpt lat="-17.674651183499996" lon="123.38254131419065"><ele>10.0</ele><time>2026-04-24T08:47:25.001Z</time></trkpt><trkpt lat="-17.67468579019787" lon="123.38284483570767"><ele>10.0</ele><time>2026-04-24T08:47:26.001Z</time></trkpt><trkpt lat="-17.67471855948564" lon="123.3831495252194"><ele>10.5</ele><time>2026-04-24T08:47:27.001Z</time></trkpt><trkpt lat="-17.674750194278726" lon="123.38345174985655"><ele>11.0</ele><time>2026-04-24T08:47:28.001Z</time></trkpt><trkpt lat="-17.67478200119195" lon="123.38375176112031"><ele>11.5</ele><time>2026-04-24T08:47:29.001Z</time></trkpt><trkpt lat="-17.674814314177368" lon="123.38405016458364"><ele>12.0</ele><time>2026-04-24T08:47:30.001Z</time></trkpt><trkpt lat="-17.674846480333223" lon="123.3843486892852"><ele>12.0</ele><time>2026-04-24T08:47:31.001Z</time></trkpt><trkpt lat="-17.674878663233397" lon="123.38464538426432"><ele>12.0</ele><time>2026-04-24T08:47:32.001Z</time></trkpt><trkpt lat="-17.67490856875813" lon="123.38494267316838"><ele>12.0</ele><time>2026-04-24T08:47:33.001Z</time></trkpt><trkpt lat="-17.67493810205134" lon="123.38523804039903"><ele>12.0</ele><time>2026-04-24T08:47:34.001Z</time></trkpt><trkpt lat="-17.67496458341151" lon="123.38553625077009"><ele>12.0</ele><time>2026-04-24T08:47:35.001Z</time></trkpt><trkpt lat="-17.674981440521712" lon="123.38583384663752"><ele>12.0</ele><time>2026-04-24T08:47:36.001Z</time></trkpt><trkpt lat="-17.674984036286254" lon="123.38613283880085"><ele>13.0</ele><time>2026-04-24T08:47:37.001Z</time></trkpt><trkpt lat="-17.67497514129216" lon="123.3864347613507"><ele>14.0</ele><time>2026-04-24T08:47:38.001Z</time></trkpt><trkpt lat="-17.67495655214302" lon="123.38673732053758"><ele>14.0</ele><time>2026-04-24T08:47:39.001Z</time></trkpt><trkpt lat="-17.674927414094174" lon="123.38703920307906"><ele>14.0</ele><time>2026-04-24T08:47:40.001Z</time></trkpt><trkpt lat="-17.67488615059018" lon="123.38734187794343"><ele>13.0</ele><time>2026-04-24T08:47:41.001Z</time></trkpt><trkpt lat="-17.674835686686183" lon="123.38764305364843"><ele>12.0</ele><time>2026-04-24T08:47:42.001Z</time></trkpt><trkpt lat="-17.674779349892468" lon="123.38794247634019"><ele>11.5</ele><time>2026-04-24T08:47:43.001Z</time></trkpt><trkpt lat="-17.674716879944434" lon="123.38823982582791"><ele>11.0</ele><time>2026-04-24T08:47:44.001Z</time></trkpt><trkpt lat="-17.67464999672075" lon="123.38853324757281"><ele>11.0</ele><time>2026-04-24T08:47:45.001Z</time></trkpt><trkpt lat="-17.674579306301787" lon="123.38882275811015"><ele>11.0</ele><time>2026-04-24T08:47:46.001Z</time></trkpt><trkpt lat="-17.67450756553931" lon="123.38910879789043"><ele>11.0</ele><time>2026-04-24T08:47:47.001Z</time></trkpt><trkpt lat="-17.674437944913695" lon="123.38939977411064"><ele>11.0</ele><time>2026-04-24T08:47:48.001Z</time></trkpt><trkpt lat="-17.674371285345764" lon="123.38969224637634"><ele>10.5</ele><time>2026-04-24T08:47:49.001Z</time></trkpt><trkpt lat="-17.674304942680234" lon="123.38998808690224"><ele>10.0</ele><time>2026-04-24T08:47:50.001Z</time></trkpt><trkpt lat="-17.674238881216308" lon="123.39028511093738"><ele>10.5</ele><time>2026-04-24T08:47:51.001Z</time></trkpt><trkpt lat="-17.674173403862785" lon="123.39058454604641"><ele>11.0</ele><time>2026-04-24T08:47:52.001Z</time></trkpt><trkpt lat="-17.674107497833077" lon="123.39088516958539"><ele>11.0</ele><time>2026-04-24T08:47:53.001Z</time></trkpt><trkpt lat="-17.674041406021207" lon="123.39118757264032"><ele>11.0</ele><time>2026-04-24T08:47:54.001Z</time></trkpt><trkpt lat="-17.67397419280297" lon="123.39149346060265"><ele>10.5</ele><time>2026-04-24T08:47:55.001Z</time></trkpt><trkpt lat="-17.673904894572654" lon="123.3917990987293"><ele>10.0</ele><time>2026-04-24T08:47:56.001Z</time></trkpt><trkpt lat="-17.67383501801844" lon="123.39210633458346"><ele>11.0</ele><time>2026-04-24T08:47:57.001Z</time></trkpt><trkpt lat="-17.673765748082094" lon="123.39241339882767"><ele>12.0</ele><time>2026-04-24T08:47:58.001Z</time></trkpt><trkpt lat="-17.673694585312266" lon="123.39271946990102"><ele>12.0</ele><time>2026-04-24T08:47:59.001Z</time></trkpt><trkpt lat="-17.673623083891986" lon="123.3930246556822"><ele>12.0</ele><time>2026-04-24T08:48:00.001Z</time></trkpt><trkpt lat="-17.67355448493055" lon="123.39332854057854"><ele>12.0</ele><time>2026-04-24T08:48:01.001Z</time></trkpt><trkpt lat="-17.673487559179815" lon="123.3936348755838"><ele>12.0</ele><time>2026-04-24T08:48:02.001Z</time></trkpt><trkpt lat="-17.673421672390845" lon="123.39394194059237"><ele>12.0</ele><time>2026-04-24T08:48:03.001Z</time></trkpt><trkpt lat="-17.67335432737199" lon="123.39424507971152"><ele>12.0</ele><time>2026-04-24T08:48:04.001Z</time></trkpt><trkpt lat="-17.67328734562164" lon="123.39454747581823"><ele>12.5</ele><time>2026-04-24T08:48:05.001Z</time></trkpt><trkpt lat="-17.673220277039274" lon="123.39485342015594"><ele>13.0</ele><time>2026-04-24T08:48:06.001Z</time></trkpt><trkpt lat="-17.673151146783525" lon="123.39515838811708"><ele>13.0</ele><time>2026-04-24T08:48:07.001Z</time></trkpt><trkpt lat="-17.673083257113333" lon="123.39545757816929"><ele>13.0</ele><time>2026-04-24T08:48:08.001Z</time></trkpt><trkpt lat="-17.673019625756123" lon="123.39573375823414"><ele>13.0</ele><time>2026-04-24T08:48:09.001Z</time></trkpt><trkpt lat="-17.672958313738775" lon="123.39600658790467"><ele>13.0</ele><time>2026-04-24T08:48:10.001Z</time></trkpt><trkpt lat="-17.672896094805157" lon="123.39628798226694"><ele>13.0</ele><time>2026-04-24T08:48:11.001Z</time></trkpt><trkpt lat="-17.672831629161994" lon="123.39657435550863"><ele>13.0</ele><time>2026-04-24T08:48:12Z</time></trkpt><trkpt lat="-17.672768031019864" lon="123.39686758184715"><ele>13.0</ele><time>2026-04-24T08:48:13Z</time></trkpt><trkpt lat="-17.672704067970763" lon="123.39716067235298"><ele>13.0</ele><time>2026-04-24T08:48:14Z</time></trkpt><trkpt lat="-17.672637126730162" lon="123.3974577827664"><ele>12.5</ele><time>2026-04-24T08:48:15Z</time></trkpt><trkpt lat="-17.672568419611387" lon="123.39775556211313"><ele>12.0</ele><time>2026-04-24T08:48:16Z</time></trkpt><trkpt lat="-17.67250202166782" lon="123.39805347238175"><ele>11.5</ele><time>2026-04-24T08:48:17Z</time></trkpt><trkpt lat="-17.67243787206099" lon="123.39835616312456"><ele>11.0</ele><time>2026-04-24T08:48:18Z</time></trkpt><trkpt lat="-17.672371182854533" lon="123.39865875545692"><ele>10.5</ele><time>2026-04-24T08:48:19Z</time></trkpt><trkpt lat="-17.672303624837635" lon="123.39896319895414"><ele>10.0</ele><time>2026-04-24T08:48:20Z</time></trkpt><trkpt lat="-17.67223419618359" lon="123.39926645564003"><ele>10.0</ele><time>2026-04-24T08:48:21Z</time></trkpt><trkpt lat="-17.672165540833845" lon="123.3995678958858"><ele>10.0</ele><time>2026-04-24T08:48:22Z</time></trkpt><trkpt lat="-17.672097644408385" lon="123.39986847037648"><ele>10.5</ele><time>2026-04-24T08:48:23Z</time></trkpt><trkpt lat="-17.6720288759108" lon="123.40016901689415"><ele>11.0</ele><time>2026-04-24T08:48:24Z</time></trkpt><trkpt lat="-17.671959360603523" lon="123.40047435761579"><ele>10.5</ele><time>2026-04-24T08:48:25Z</time></trkpt><trkpt lat="-17.67189192185607" lon="123.40077803222182"><ele>10.0</ele><time>2026-04-24T08:48:26Z</time></trkpt><trkpt lat="-17.671824770814084" lon="123.40108249485584"><ele>11.0</ele><time>2026-04-24T08:48:27Z</time></trkpt><trkpt lat="-17.67175816871674" lon="123.40138726322"><ele>12.0</ele><time>2026-04-24T08:48:28Z</time></trkpt><trkpt lat="-17.6716910960453" lon="123.40169086528563"><ele>12.0</ele><time>2026-04-24T08:48:29Z</time></trkpt><trkpt lat="-17.671623957918946" lon="123.40199626941747"><ele>12.0</ele><time>2026-04-24T08:48:30Z</time></trkpt><trkpt lat="-17.671555799378314" lon="123.40230022384723"><ele>12.0</ele><time>2026-04-24T08:48:31Z</time></trkpt><trkpt lat="-17.67148625225516" lon="123.4026041491298"><ele>12.0</ele><time>2026-04-24T08:48:32Z</time></trkpt><trkpt lat="-17.671417924202782" lon="123.4029060970591"><ele>11.5</ele><time>2026-04-24T08:48:33Z</time></trkpt><trkpt lat="-17.671350182999586" lon="123.40321096053704"><ele>11.0</ele><time>2026-04-24T08:48:34Z</time></trkpt><trkpt lat="-17.671281789946878" lon="123.40351209135548"><ele>11.0</ele><time>2026-04-24T08:48:35Z</time></trkpt><trkpt lat="-17.671214565553193" lon="123.40381106502987"><ele>11.0</ele><time>2026-04-24T08:48:36Z</time></trkpt><trkpt lat="-17.67114946443417" lon="123.404106689814"><ele>10.5</ele><time>2026-04-24T08:48:37Z</time></trkpt><trkpt lat="-17.67108775668301" lon="123.40440219859745"><ele>10.0</ele><time>2026-04-24T08:48:38Z</time></trkpt><trkpt lat="-17.671021095758277" lon="123.40469796432039"><ele>9.5</ele><time>2026-04-24T08:48:39Z</time></trkpt><trkpt lat="-17.6709512709213" lon="123.40499563321097"><ele>9.0</ele><time>2026-04-24T08:48:40Z</time></trkpt><trkpt lat="-17.670881163506127" lon="123.4052936554613"><ele>9.5</ele><time>2026-04-24T08:48:41Z</time></trkpt><trkpt lat="-17.67081348447077" lon="123.40559617789603"><ele>10.0</ele><time>2026-04-24T08:48:42Z</time></trkpt><trkpt lat="-17.67074704949814" lon="123.40590002436343"><ele>10.0</ele><time>2026-04-24T08:48:43Z</time></trkpt><trkpt lat="-17.670680927622836" lon="123.4062034510909"><ele>10.0</ele><time>2026-04-24T08:48:44Z</time></trkpt><trkpt lat="-17.670613196770027" lon="123.40650936775901"><ele>10.0</ele><time>2026-04-24T08:48:45Z</time></trkpt><trkpt lat="-17.67054484369254" lon="123.40681471949911"><ele>10.0</ele><time>2026-04-24T08:48:46Z</time></trkpt><trkpt lat="-17.670474966185044" lon="123.40711740618971"><ele>11.5</ele><time>2026-04-24T08:48:47Z</time></trkpt><trkpt lat="-17.670405962780407" lon="123.40741931406532"><ele>13.0</ele><time>2026-04-24T08:48:48Z</time></trkpt><trkpt lat="-17.670339025513805" lon="123.40772048502883"><ele>10.5</ele><time>2026-04-24T08:48:49Z</time></trkpt><trkpt lat="-17.670270748199545" lon="123.40802600729414"><ele>8.0</ele><time>2026-04-24T08:48:50Z</time></trkpt><trkpt lat="-17.67020100830386" lon="123.4083354427614"><ele>8.0</ele><time>2026-04-24T08:48:51Z</time></trkpt><trkpt lat="-17.67013093237348" lon="123.4086442271941"><ele>8.0</ele><time>2026-04-24T08:48:52Z</time></trkpt><trkpt lat="-17.67006094420875" lon="123.40895352876095"><ele>9.0</ele><time>2026-04-24T08:48:53Z</time></trkpt><trkpt lat="-17.669992105275664" lon="123.40926152713537"><ele>10.0</ele><time>2026-04-24T08:48:54Z</time></trkpt><trkpt lat="-17.669922698909357" lon="123.40956897839598"><ele>11.0</ele><time>2026-04-24T08:48:55Z</time></trkpt><trkpt lat="-17.66985434050229" lon="123.4098751200367"><ele>12.0</ele><time>2026-04-24T08:48:56Z</time></trkpt><trkpt lat="-17.669784347933263" lon="123.41018323998378"><ele>11.0</ele><time>2026-04-24T08:48:57Z</time></trkpt><trkpt lat="-17.66971634829711" lon="123.41049150638695"><ele>10.0</ele><time>2026-04-24T08:48:58Z</time></trkpt><trkpt lat="-17.669648850108814" lon="123.41079984740998"><ele>10.0</ele><time>2026-04-24T08:48:59Z</time></trkpt><trkpt lat="-17.669582805601774" lon="123.41110319158608"><ele>10.0</ele><time>2026-04-24T08:49:00Z</time></trkpt><trkpt lat="-17.669514023931242" lon="123.41141222109388"><ele>10.5</ele><time>2026-04-24T08:49:01Z</time></trkpt><trkpt lat="-17.6694447060402" lon="123.41171508363347"><ele>11.0</ele><time>2026-04-24T08:49:02Z</time></trkpt><trkpt lat="-17.669378375449156" lon="123.4120160504715"><ele>10.5</ele><time>2026-04-24T08:49:03Z</time></trkpt><trkpt lat="-17.669312076919272" lon="123.41231492677022"><ele>10.0</ele><time>2026-04-24T08:49:04.001Z</time></trkpt><trkpt lat="-17.6692467329571" lon="123.4126112366878"><ele>10.0</ele><time>2026-04-24T08:49:05.001Z</time></trkpt><trkpt lat="-17.669182241434463" lon="123.41290753262406"><ele>10.0</ele><time>2026-04-24T08:49:06.001Z</time></trkpt><trkpt lat="-17.66911890359874" lon="123.41320479297704"><ele>8.5</ele><time>2026-04-24T08:49:07.001Z</time></trkpt><trkpt lat="-17.669052560803078" lon="123.41349771907807"><ele>7.0</ele><time>2026-04-24T08:49:08.001Z</time></trkpt><trkpt lat="-17.66898917445303" lon="123.41379326720826"><ele>7.5</ele><time>2026-04-24T08:49:09.001Z</time></trkpt><trkpt lat="-17.668938489130216" lon="123.41408605286063"><ele>8.0</ele><time>2026-04-24T08:49:10.001Z</time></trkpt><trkpt lat="-17.66889999905619" lon="123.41438268380303"><ele>8.5</ele><time>2026-04-24T08:49:11.001Z</time></trkpt><trkpt lat="-17.668865924716933" lon="123.4146845296149"><ele>9.0</ele><time>2026-04-24T08:49:12.001Z</time></trkpt><trkpt lat="-17.668837323298657" lon="123.4149878326148"><ele>9.0</ele><time>2026-04-24T08:49:13.001Z</time></trkpt><trkpt lat="-17.668817645287298" lon="123.41529411384708"><ele>9.0</ele><time>2026-04-24T08:49:14.001Z</time></trkpt><trkpt lat="-17.668805868622805" lon="123.4156028057343"><ele>11.0</ele><time>2026-04-24T08:49:15.001Z</time></trkpt><trkpt lat="-17.66880080443948" lon="123.41591103458339"><ele>13.0</ele><time>2026-04-24T08:49:16.001Z</time></trkpt><trkpt lat="-17.668798330109638" lon="123.4162240425881"><ele>12.0</ele><time>2026-04-24T08:49:17.001Z</time></trkpt><trkpt lat="-17.668798376632513" lon="123.41653829173121"><ele>11.0</ele><time>2026-04-24T08:49:18.001Z</time></trkpt><trkpt lat="-17.668796888385856" lon="123.41685550950618"><ele>10.0</ele><time>2026-04-24T08:49:19.001Z</time></trkpt><trkpt lat="-17.668792208943938" lon="123.41717237608454"><ele>9.0</ele><time>2026-04-24T08:49:20.001Z</time></trkpt><trkpt lat="-17.668785006947456" lon="123.41748867322846"><ele>9.0</ele><time>2026-04-24T08:49:21.001Z</time></trkpt><trkpt lat="-17.66877684505061" lon="123.41780574748877"><ele>9.0</ele><time>2026-04-24T08:49:22.001Z</time></trkpt><trkpt lat="-17.66876931952621" lon="123.41812093399349"><ele>9.5</ele><time>2026-04-24T08:49:23.001Z</time></trkpt><trkpt lat="-17.66876528645916" lon="123.41843506087353"><ele>10.0</ele><time>2026-04-24T08:49:24.001Z</time></trkpt><trkpt lat="-17.66876256177372" lon="123.4187434044182"><ele>9.5</ele><time>2026-04-24T08:49:25.001Z</time></trkpt><trkpt lat="-17.66875988674531" lon="123.41905300812334"><ele>9.0</ele><time>2026-04-24T08:49:26.001Z</time></trkpt><trkpt lat="-17.668756568877306" lon="123.41935808324307"><ele>9.5</ele><time>2026-04-24T08:49:27.001Z</time></trkpt><trkpt lat="-17.66874999110688" lon="123.41966179819686"><ele>10.0</ele><time>2026-04-24T08:49:28.001Z</time></trkpt><trkpt lat="-17.66874380342681" lon="123.41996415716272"><ele>10.0</ele><time>2026-04-24T08:49:29.001Z</time></trkpt><trkpt lat="-17.66873820632883" lon="123.4202680775882"><ele>10.0</ele><time>2026-04-24T08:49:30.001Z</time></trkpt><trkpt lat="-17.66873496186043" lon="123.4205703141874"><ele>11.0</ele><time>2026-04-24T08:49:31.001Z</time></trkpt><trkpt lat="-17.66873130249389" lon="123.4208756399744"><ele>12.0</ele><time>2026-04-24T08:49:32.001Z</time></trkpt><trkpt lat="-17.668727576379553" lon="123.42117950712665"><ele>10.0</ele><time>2026-04-24T08:49:33.001Z</time></trkpt><trkpt lat="-17.668722483166675" lon="123.42148399841807"><ele>8.0</ele><time>2026-04-24T08:49:34.001Z</time></trkpt><trkpt lat="-17.668716121255052" lon="123.42179334773861"><ele>8.0</ele><time>2026-04-24T08:49:35.001Z</time></trkpt><trkpt lat="-17.6687096389964" lon="123.42210590569438"><ele>8.0</ele><time>2026-04-24T08:49:36.001Z</time></trkpt><trkpt lat="-17.66870329791966" lon="123.42242033731873"><ele>7.5</ele><time>2026-04-24T08:49:37.001Z</time></trkpt><trkpt lat="-17.668697521703983" lon="123.42273670601173"><ele>7.0</ele><time>2026-04-24T08:49:38.001Z</time></trkpt><trkpt lat="-17.66869275723585" lon="123.42305452860974"><ele>8.5</ele><time>2026-04-24T08:49:39.001Z</time></trkpt><trkpt lat="-17.668687467695342" lon="123.42337019336541"><ele>10.0</ele><time>2026-04-24T08:49:40.001Z</time></trkpt><trkpt lat="-17.668682585427778" lon="123.42368699655265"><ele>9.5</ele><time>2026-04-24T08:49:41.001Z</time></trkpt><trkpt lat="-17.66867866556761" lon="123.4240054126035"><ele>9.0</ele><time>2026-04-24T08:49:42.001Z</time></trkpt><trkpt lat="-17.668674781976797" lon="123.42432194213458"><ele>9.0</ele><time>2026-04-24T08:49:43.001Z</time></trkpt><trkpt lat="-17.66867017209948" lon="123.42464120567526"><ele>9.0</ele><time>2026-04-24T08:49:44.001Z</time></trkpt><trkpt lat="-17.668666435794954" lon="123.42496054147949"><ele>9.5</ele><time>2026-04-24T08:49:45.001Z</time></trkpt><trkpt lat="-17.66866080176044" lon="123.42527776105082"><ele>10.0</ele><time>2026-04-24T08:49:46.001Z</time></trkpt><trkpt lat="-17.668653776688615" lon="123.42559308969501"><ele>10.0</ele><time>2026-04-24T08:49:47.001Z</time></trkpt><trkpt lat="-17.668645587892335" lon="123.42590658480587"><ele>10.0</ele><time>2026-04-24T08:49:48.001Z</time></trkpt><trkpt lat="-17.668640397220063" lon="123.42621251628964"><ele>11.5</ele><time>2026-04-24T08:49:49.001Z</time></trkpt><trkpt lat="-17.66863514731671" lon="123.42651807396948"><ele>13.0</ele><time>2026-04-24T08:49:50.001Z</time></trkpt><trkpt lat="-17.668630841559526" lon="123.42682044193836"><ele>13.0</ele><time>2026-04-24T08:49:51.001Z</time></trkpt><trkpt lat="-17.668627581166948" lon="123.42712142609254"><ele>13.0</ele><time>2026-04-24T08:49:52.001Z</time></trkpt><trkpt lat="-17.668624032469534" lon="123.42742074573823"><ele>12.0</ele><time>2026-04-24T08:49:53.001Z</time></trkpt><trkpt lat="-17.66862048713798" lon="123.42771853248087"><ele>11.0</ele><time>2026-04-24T08:49:54.001Z</time></trkpt><trkpt lat="-17.668617878192293" lon="123.42801603483865"><ele>10.5</ele><time>2026-04-24T08:49:55.001Z</time></trkpt><trkpt lat="-17.668612675689907" lon="123.42831617211769"><ele>10.0</ele><time>2026-04-24T08:49:56.001Z</time></trkpt><trkpt lat="-17.668604977409426" lon="123.42861939791653"><ele>10.5</ele><time>2026-04-24T08:49:57.001Z</time></trkpt><trkpt lat="-17.66859651886641" lon="123.42892477109261"><ele>11.0</ele><time>2026-04-24T08:49:58.001Z</time></trkpt><trkpt lat="-17.668588859678106" lon="123.4292339964564"><ele>11.0</ele><time>2026-04-24T08:49:59.001Z</time></trkpt><trkpt lat="-17.66858422815109" lon="123.42954429200749"><ele>11.0</ele><time>2026-04-24T08:50:00.001Z</time></trkpt><trkpt lat="-17.6685814859564" lon="123.42985878927847"><ele>10.5</ele><time>2026-04-24T08:50:01Z</time></trkpt><trkpt lat="-17.66857832691487" lon="123.43017324093715"><ele>10.0</ele><time>2026-04-24T08:50:02Z</time></trkpt><trkpt lat="-17.668573620866667" lon="123.4304890446931"><ele>10.0</ele><time>2026-04-24T08:50:03Z</time></trkpt><trkpt lat="-17.66856830683375" lon="123.43080573210851"><ele>10.0</ele><time>2026-04-24T08:50:04Z</time></trkpt><trkpt lat="-17.668562630566836" lon="123.43112137587244"><ele>9.5</ele><time>2026-04-24T08:50:05Z</time></trkpt><trkpt lat="-17.668556423014074" lon="123.43143979494516"><ele>9.0</ele><time>2026-04-24T08:50:06Z</time></trkpt><trkpt lat="-17.668549690354048" lon="123.43175489154375"><ele>9.0</ele><time>2026-04-24T08:50:07Z</time></trkpt><trkpt lat="-17.66854180293034" lon="123.43207271322439"><ele>9.0</ele><time>2026-04-24T08:50:08Z</time></trkpt><trkpt lat="-17.668537217486403" lon="123.43239128672673"><ele>9.5</ele><time>2026-04-24T08:50:09Z</time></trkpt><trkpt lat="-17.668534484604635" lon="123.4327087062366"><ele>10.0</ele><time>2026-04-24T08:50:10Z</time></trkpt><trkpt lat="-17.668530462156113" lon="123.43302770823469"><ele>10.0</ele><time>2026-04-24T08:50:11Z</time></trkpt><trkpt lat="-17.668526272203" lon="123.43334603055987"><ele>10.0</ele><time>2026-04-24T08:50:12Z</time></trkpt><trkpt lat="-17.668520514574812" lon="123.43366551858043"><ele>11.5</ele><time>2026-04-24T08:50:13Z</time></trkpt><trkpt lat="-17.668514178185468" lon="123.43398211476337"><ele>13.0</ele><time>2026-04-24T08:50:14Z</time></trkpt><trkpt lat="-17.668507550275834" lon="123.43429916231338"><ele>13.0</ele><time>2026-04-24T08:50:15Z</time></trkpt><trkpt lat="-17.66850258258221" lon="123.43461365963636"><ele>13.0</ele><time>2026-04-24T08:50:16Z</time></trkpt><trkpt lat="-17.668498815916156" lon="123.43492851804628"><ele>13.0</ele><time>2026-04-24T08:50:17Z</time></trkpt><trkpt lat="-17.66849476808074" lon="123.43523904646382"><ele>13.0</ele><time>2026-04-24T08:50:18Z</time></trkpt><trkpt lat="-17.66849035961458" lon="123.4355489841078"><ele>12.5</ele><time>2026-04-24T08:50:19Z</time></trkpt><trkpt lat="-17.66848746683646" lon="123.43585789667026"><ele>12.0</ele><time>2026-04-24T08:50:20Z</time></trkpt><trkpt lat="-17.66848218246877" lon="123.43616371276038"><ele>12.0</ele><time>2026-04-24T08:50:21Z</time></trkpt><trkpt lat="-17.668477429073615" lon="123.4364677823459"><ele>12.0</ele><time>2026-04-24T08:50:22Z</time></trkpt><trkpt lat="-17.668473734802433" lon="123.43676897491342"><ele>12.0</ele><time>2026-04-24T08:50:23Z</time></trkpt><trkpt lat="-17.668470296007264" lon="123.43706923512795"><ele>12.0</ele><time>2026-04-24T08:50:24Z</time></trkpt><trkpt lat="-17.668465731938717" lon="123.43736672917692"><ele>11.0</ele><time>2026-04-24T08:50:25Z</time></trkpt><trkpt lat="-17.668459608335784" lon="123.43767093689294"><ele>10.0</ele><time>2026-04-24T08:50:26Z</time></trkpt><trkpt lat="-17.6684537942079" lon="123.43797536543623"><ele>10.0</ele><time>2026-04-24T08:50:27Z</time></trkpt><trkpt lat="-17.66844874192702" lon="123.43828131567659"><ele>10.0</ele><time>2026-04-24T08:50:28Z</time></trkpt><trkpt lat="-17.66844413042737" lon="123.43858967025027"><ele>11.0</ele><time>2026-04-24T08:50:29Z</time></trkpt><trkpt lat="-17.66843772090039" lon="123.43889946009297"><ele>12.0</ele><time>2026-04-24T08:50:30Z</time></trkpt><trkpt lat="-17.668432155796893" lon="123.43921149223549"><ele>12.0</ele><time>2026-04-24T08:50:31Z</time></trkpt><trkpt lat="-17.66842657604173" lon="123.43952433119506"><ele>12.0</ele><time>2026-04-24T08:50:32Z</time></trkpt><trkpt lat="-17.66842138886822" lon="123.43983776993066"><ele>11.5</ele><time>2026-04-24T08:50:33Z</time></trkpt><trkpt lat="-17.668414826147536" lon="123.44015184178514"><ele>11.0</ele><time>2026-04-24T08:50:34Z</time></trkpt><trkpt lat="-17.668407385961928" lon="123.44046828867745"><ele>11.0</ele><time>2026-04-24T08:50:35Z</time></trkpt><trkpt lat="-17.668399660571893" lon="123.44078730967273"><ele>11.0</ele><time>2026-04-24T08:50:36Z</time></trkpt><trkpt lat="-17.668392119314326" lon="123.44110353125717"><ele>11.0</ele><time>2026-04-24T08:50:37Z</time></trkpt><trkpt lat="-17.668387698064283" lon="123.44142231878594"><ele>11.0</ele><time>2026-04-24T08:50:38Z</time></trkpt><trkpt lat="-17.6683839846587" lon="123.44174083606181"><ele>11.0</ele><time>2026-04-24T08:50:39Z</time></trkpt><trkpt lat="-17.668380230044317" lon="123.44205774238044"><ele>11.0</ele><time>2026-04-24T08:50:40Z</time></trkpt><trkpt lat="-17.668375622962095" lon="123.44237372484451"><ele>12.0</ele><time>2026-04-24T08:50:41Z</time></trkpt><trkpt lat="-17.668371354399433" lon="123.44269251996822"><ele>13.0</ele><time>2026-04-24T08:50:42Z</time></trkpt><trkpt lat="-17.668365314906467" lon="123.44300766637174"><ele>13.5</ele><time>2026-04-24T08:50:43Z</time></trkpt><trkpt lat="-17.668357817575547" lon="123.44332634468452"><ele>14.0</ele><time>2026-04-24T08:50:44Z</time></trkpt><trkpt lat="-17.668350133585022" lon="123.44364116470909"><ele>13.5</ele><time>2026-04-24T08:50:45Z</time></trkpt><trkpt lat="-17.66834234777728" lon="123.44395835980181"><ele>13.0</ele><time>2026-04-24T08:50:46Z</time></trkpt><trkpt lat="-17.66833513988956" lon="123.44427366710842"><ele>13.0</ele><time>2026-04-24T08:50:47Z</time></trkpt><trkpt lat="-17.668328230860617" lon="123.44458800483015"><ele>13.0</ele><time>2026-04-24T08:50:48Z</time></trkpt><trkpt lat="-17.668321664833297" lon="123.44490248748934"><ele>12.0</ele><time>2026-04-24T08:50:49Z</time></trkpt><trkpt lat="-17.668319152851062" lon="123.44521607793148"><ele>11.0</ele><time>2026-04-24T08:50:50Z</time></trkpt><trkpt lat="-17.6683169588725" lon="123.44552986435862"><ele>11.0</ele><time>2026-04-24T08:50:51Z</time></trkpt><trkpt lat="-17.668318480775632" lon="123.44584443946175"><ele>11.0</ele><time>2026-04-24T08:50:52Z</time></trkpt><trkpt lat="-17.668330477367064" lon="123.4461599667048"><ele>11.0</ele><time>2026-04-24T08:50:53Z</time></trkpt><trkpt lat="-17.668351863855058" lon="123.44647480398844"><ele>11.0</ele><time>2026-04-24T08:50:54Z</time></trkpt><trkpt lat="-17.668382346375605" lon="123.44678946640624"><ele>11.0</ele><time>2026-04-24T08:50:55Z</time></trkpt><trkpt lat="-17.668422949995776" lon="123.44710472443515"><ele>11.0</ele><time>2026-04-24T08:50:56Z</time></trkpt><trkpt lat="-17.6684725973545" lon="123.447420946322"><ele>11.0</ele><time>2026-04-24T08:50:57Z</time></trkpt><trkpt lat="-17.66853182202958" lon="123.44773306775612"><ele>11.0</ele><time>2026-04-24T08:50:58Z</time></trkpt><trkpt lat="-17.668597541547" lon="123.44804418118288"><ele>10.5</ele><time>2026-04-24T08:50:59Z</time></trkpt><trkpt lat="-17.668670099636234" lon="123.4483544811172"><ele>10.0</ele><time>2026-04-24T08:51:00Z</time></trkpt><trkpt lat="-17.668747304920807" lon="123.44866069688787"><ele>10.5</ele><time>2026-04-24T08:51:01Z</time></trkpt><trkpt lat="-17.668822102897796" lon="123.4489552406958"><ele>11.0</ele><time>2026-04-24T08:51:02Z</time></trkpt><trkpt lat="-17.668887339067346" lon="123.44923436420143"><ele>11.0</ele><time>2026-04-24T08:51:03Z</time></trkpt><trkpt lat="-17.6689508619898" lon="123.44951309071055"><ele>11.0</ele><time>2026-04-24T08:51:04Z</time></trkpt><trkpt lat="-17.669015305288923" lon="123.44980128636476"><ele>12.0</ele><time>2026-04-24T08:51:05Z</time></trkpt><trkpt lat="-17.669083654866775" lon="123.45009293685166"><ele>13.0</ele><time>2026-04-24T08:51:06Z</time></trkpt><trkpt lat="-17.66915242122651" lon="123.4503834474921"><ele>13.5</ele><time>2026-04-24T08:51:07Z</time></trkpt><trkpt lat="-17.669225109553867" lon="123.45067597373944"><ele>14.0</ele><time>2026-04-24T08:51:08Z</time></trkpt><trkpt lat="-17.669296178428475" lon="123.45096936567855"><ele>14.0</ele><time>2026-04-24T08:51:09Z</time></trkpt><trkpt lat="-17.66936668164906" lon="123.4512679772261"><ele>14.0</ele><time>2026-04-24T08:51:10Z</time></trkpt><trkpt lat="-17.66943621365509" lon="123.45156875638635"><ele>14.5</ele><time>2026-04-24T08:51:11Z</time></trkpt><trkpt lat="-17.669503135662346" lon="123.4518719362122"><ele>15.0</ele><time>2026-04-24T08:51:12Z</time></trkpt><trkpt lat="-17.66957254359358" lon="123.45217495655653"><ele>14.0</ele><time>2026-04-24T08:51:13Z</time></trkpt><trkpt lat="-17.669645468989188" lon="123.45248002885808"><ele>13.0</ele><time>2026-04-24T08:51:14Z</time></trkpt><trkpt lat="-17.66972024422011" lon="123.4527841971577"><ele>14.0</ele><time>2026-04-24T08:51:15Z</time></trkpt><trkpt lat="-17.66979481034136" lon="123.45308637534923"><ele>15.0</ele><time>2026-04-24T08:51:16Z</time></trkpt><trkpt lat="-17.669865902829923" lon="123.45338717226593"><ele>15.0</ele><time>2026-04-24T08:51:17Z</time></trkpt><trkpt lat="-17.66993570060455" lon="123.45368559788633"><ele>15.0</ele><time>2026-04-24T08:51:18Z</time></trkpt><trkpt lat="-17.67000436545126" lon="123.45398299487178"><ele>15.0</ele><time>2026-04-24T08:51:19Z</time></trkpt><trkpt lat="-17.67007363672602" lon="123.45427835654634"><ele>15.0</ele><time>2026-04-24T08:51:20Z</time></trkpt><trkpt lat="-17.6701425315701" lon="123.4545682538148"><ele>15.0</ele><time>2026-04-24T08:51:21Z</time></trkpt><trkpt lat="-17.67021302706716" lon="123.45485639868242"><ele>15.0</ele><time>2026-04-24T08:51:22Z</time></trkpt><trkpt lat="-17.67028336925466" lon="123.45514472154711"><ele>15.0</ele><time>2026-04-24T08:51:23Z</time></trkpt><trkpt lat="-17.670355621619866" lon="123.45542940545116"><ele>15.0</ele><time>2026-04-24T08:51:24Z</time></trkpt><trkpt lat="-17.670425287467435" lon="123.45571080484045"><ele>15.5</ele><time>2026-04-24T08:51:25Z</time></trkpt><trkpt lat="-17.670493132212705" lon="123.45599217797849"><ele>16.0</ele><time>2026-04-24T08:51:26Z</time></trkpt><trkpt lat="-17.670560016424112" lon="123.4562805323824"><ele>15.5</ele><time>2026-04-24T08:51:27Z</time></trkpt><trkpt lat="-17.670625806972048" lon="123.456568698026"><ele>15.0</ele><time>2026-04-24T08:51:28Z</time></trkpt><trkpt lat="-17.670691738016036" lon="123.45686142708186"><ele>13.5</ele><time>2026-04-24T08:51:29Z</time></trkpt><trkpt lat="-17.67075914111896" lon="123.45715011787124"><ele>12.0</ele><time>2026-04-24T08:51:30Z</time></trkpt><trkpt lat="-17.670829616965676" lon="123.4574454367502"><ele>12.0</ele><time>2026-04-24T08:51:31Z</time></trkpt><trkpt lat="-17.670900041443094" lon="123.4577375456701"><ele>12.0</ele><time>2026-04-24T08:51:32Z</time></trkpt><trkpt lat="-17.670966884205246" lon="123.45801711566749"><ele>10.5</ele><time>2026-04-24T08:51:33Z</time></trkpt><trkpt lat="-17.671031847782267" lon="123.45829448912532"><ele>9.0</ele><time>2026-04-24T08:51:34Z</time></trkpt><trkpt lat="-17.671094962425947" lon="123.45855848617353"><ele>11.0</ele><time>2026-04-24T08:51:35Z</time></trkpt><trkpt lat="-17.671150750016242" lon="123.4588034347133"><ele>13.0</ele><time>2026-04-24T08:51:36Z</time></trkpt><trkpt lat="-17.67120027184349" lon="123.45903736144224"><ele>13.0</ele><time>2026-04-24T08:51:37Z</time></trkpt><trkpt lat="-17.67124231793798" lon="123.45926018004538"><ele>13.0</ele><time>2026-04-24T08:51:38Z</time></trkpt><trkpt lat="-17.67128637982447" lon="123.4594733659577"><ele>13.0</ele><time>2026-04-24T08:51:39Z</time></trkpt><trkpt lat="-17.671331453559084" lon="123.45966451133057"><ele>12.25</ele><time>2026-04-24T08:51:40Z</time></trkpt><trkpt lat="-17.671369326716615" lon="123.4598265572064"><ele>11.5</ele><time>2026-04-24T08:51:41Z</time></trkpt><trkpt lat="-17.67140032780307" lon="123.45995920252217"><ele>10.75</ele><time>2026-04-24T08:51:42Z</time></trkpt><trkpt lat="-17.671426246240525" lon="123.46006608319205"><ele>10.0</ele><time>2026-04-24T08:51:43Z</time></trkpt><trkpt lat="-17.671446701626053" lon="123.46014978872091"><ele>10.0</ele><time>2026-04-24T08:51:44Z</time></trkpt><trkpt lat="-17.671464365869998" lon="123.46025501708469"><ele>10.0</ele><time>2026-04-24T08:51:46Z</time></trkpt><trkpt lat="-17.671475707058125" lon="123.46032928589908"><ele>10.0</ele><time>2026-04-24T08:54:25Z</time></trkpt><trkpt lat="-17.671536177588198" lon="123.46040042186173"><ele>10.0</ele><time>2026-04-24T08:54:27Z</time></trkpt><trkpt lat="-17.67156835661048" lon="123.46053613237432"><ele>10.0</ele><time>2026-04-24T08:54:29Z</time></trkpt><trkpt lat="-17.671588304589385" lon="123.46062085572233"><ele>10.25</ele><time>2026-04-24T08:54:30Z</time></trkpt><trkpt lat="-17.671613215706664" lon="123.46072722048096"><ele>10.5</ele><time>2026-04-24T08:54:31Z</time></trkpt><trkpt lat="-17.671640610102035" lon="123.46084304295566"><ele>10.75</ele><time>2026-04-24T08:54:32Z</time></trkpt><trkpt lat="-17.671669712428" lon="123.46097589175369"><ele>11.0</ele><time>2026-04-24T08:54:33Z</time></trkpt><trkpt lat="-17.671703372284394" lon="123.46112639233901"><ele>11.0</ele><time>2026-04-24T08:54:34Z</time></trkpt><trkpt lat="-17.671739922019817" lon="123.46128795252034"><ele>11.0</ele><time>2026-04-24T08:54:35Z</time></trkpt><trkpt lat="-17.671780670379952" lon="123.46146003146457"><ele>11.0</ele><time>2026-04-24T08:54:36Z</time></trkpt><trkpt lat="-17.671821952945667" lon="123.46163520504116"><ele>11.0</ele><time>2026-04-24T08:54:37Z</time></trkpt><trkpt lat="-17.67186755971826" lon="123.46182008600415"><ele>11.0</ele><time>2026-04-24T08:54:38Z</time></trkpt><trkpt lat="-17.67191269107344" lon="123.46200848130574"><ele>11.0</ele><time>2026-04-24T08:54:39Z</time></trkpt><trkpt lat="-17.67195885992267" lon="123.46220115120025"><ele>11.666666666666666</ele><time>2026-04-24T08:54:40Z</time></trkpt><trkpt lat="-17.672003568906536" lon="123.46239158097264"><ele>12.333333333333332</ele><time>2026-04-24T08:54:41Z</time></trkpt><trkpt lat="-17.67205351005145" lon="123.46259348624119"><ele>13.0</ele><time>2026-04-24T08:54:42Z</time></trkpt><trkpt lat="-17.672105135080667" lon="123.46281250670303"><ele>12.0</ele><time>2026-04-24T08:54:43Z</time></trkpt><trkpt lat="-17.67216233751072" lon="123.46305268021862"><ele>11.0</ele><time>2026-04-24T08:54:44Z</time></trkpt><trkpt lat="-17.672221794975467" lon="123.46329793740199"><ele>11.0</ele><time>2026-04-24T08:54:45Z</time></trkpt><trkpt lat="-17.67227778552492" lon="123.46353585617483"><ele>11.0</ele><time>2026-04-24T08:54:46Z</time></trkpt><trkpt lat="-17.6723354170878" lon="123.46378461057581"><ele>11.0</ele><time>2026-04-24T08:54:47Z</time></trkpt><trkpt lat="-17.67239529700974" lon="123.46405084713531"><ele>11.0</ele><time>2026-04-24T08:54:48Z</time></trkpt><trkpt lat="-17.67246028090828" lon="123.46432695807705"><ele>11.0</ele><time>2026-04-24T08:54:49Z</time></trkpt><trkpt lat="-17.67252387460888" lon="123.46459436539327"><ele>11.0</ele><time>2026-04-24T08:54:50Z</time></trkpt><trkpt lat="-17.672590079435306" lon="123.46486870676932"><ele>11.5</ele><time>2026-04-24T08:54:51Z</time></trkpt><trkpt lat="-17.672660037129095" lon="123.46515670290458"><ele>12.0</ele><time>2026-04-24T08:54:52Z</time></trkpt><trkpt lat="-17.672732187639657" lon="123.46544818882133"><ele>12.5</ele><time>2026-04-24T08:54:53Z</time></trkpt><trkpt lat="-17.672802640307133" lon="123.46574185165177"><ele>13.0</ele><time>2026-04-24T08:54:54Z</time></trkpt><trkpt lat="-17.672872395302306" lon="123.46604570671033"><ele>12.0</ele><time>2026-04-24T08:54:55Z</time></trkpt><trkpt lat="-17.67294284514228" lon="123.46634892029051"><ele>11.0</ele><time>2026-04-24T08:54:56Z</time></trkpt><trkpt lat="-17.673012413165907" lon="123.46664248978719"><ele>11.0</ele><time>2026-04-24T08:54:57Z</time></trkpt><trkpt lat="-17.67307728979118" lon="123.46692037914674"><ele>11.0</ele><time>2026-04-24T08:54:58Z</time></trkpt><trkpt lat="-17.67314361416947" lon="123.46720096855043"><ele>11.5</ele><time>2026-04-24T08:54:59Z</time></trkpt><trkpt lat="-17.67321065943805" lon="123.46748172511452"><ele>12.0</ele><time>2026-04-24T08:55:00Z</time></trkpt><trkpt lat="-17.673281598686817" lon="123.467769046242"><ele>12.5</ele><time>2026-04-24T08:55:01Z</time></trkpt><trkpt lat="-17.673351619811903" lon="123.46805410781586"><ele>13.0</ele><time>2026-04-24T08:55:02Z</time></trkpt><trkpt lat="-17.67341829625392" lon="123.46833222154609"><ele>13.0</ele><time>2026-04-24T08:55:03Z</time></trkpt><trkpt lat="-17.67348350537019" lon="123.46861075528228"><ele>13.0</ele><time>2026-04-24T08:55:04Z</time></trkpt><trkpt lat="-17.67354921015144" lon="123.46888507281643"><ele>12.5</ele><time>2026-04-24T08:55:05Z</time></trkpt><trkpt lat="-17.673617957488855" lon="123.46916739532578"><ele>12.0</ele><time>2026-04-24T08:55:06Z</time></trkpt><trkpt lat="-17.67368725931979" lon="123.4694540554668"><ele>12.0</ele><time>2026-04-24T08:55:07Z</time></trkpt><trkpt lat="-17.673757131017606" lon="123.46974403284099"><ele>12.0</ele><time>2026-04-24T08:55:08Z</time></trkpt><trkpt lat="-17.67382501250321" lon="123.47003239702238"><ele>12.0</ele><time>2026-04-24T08:55:09Z</time></trkpt><trkpt lat="-17.67388944362629" lon="123.47032206694828"><ele>12.0</ele><time>2026-04-24T08:55:10Z</time></trkpt><trkpt lat="-17.67395366106679" lon="123.47060329324223"><ele>11.5</ele><time>2026-04-24T08:55:11Z</time></trkpt><trkpt lat="-17.674019531639985" lon="123.47087801571088"><ele>11.0</ele><time>2026-04-24T08:55:12Z</time></trkpt><trkpt lat="-17.674080083785118" lon="123.47113903203122"><ele>11.0</ele><time>2026-04-24T08:55:13Z</time></trkpt><trkpt lat="-17.674138565454733" lon="123.47140317525803"><ele>11.0</ele><time>2026-04-24T08:55:14Z</time></trkpt><trkpt lat="-17.674199442790226" lon="123.47166998921608"><ele>11.0</ele><time>2026-04-24T08:55:15Z</time></trkpt><trkpt lat="-17.67426351517986" lon="123.47193814423684"><ele>11.0</ele><time>2026-04-24T08:55:16Z</time></trkpt><trkpt lat="-17.67432643104534" lon="123.47220298167531"><ele>11.5</ele><time>2026-04-24T08:55:17Z</time></trkpt><trkpt lat="-17.674383832995176" lon="123.47245328065442"><ele>12.0</ele><time>2026-04-24T08:55:18Z</time></trkpt><trkpt lat="-17.674441789143714" lon="123.47270183603854"><ele>13.5</ele><time>2026-04-24T08:55:19Z</time></trkpt><trkpt lat="-17.674503465204474" lon="123.47295447947717"><ele>15.0</ele><time>2026-04-24T08:55:20Z</time></trkpt><trkpt lat="-17.674567892030474" lon="123.47321427685893"><ele>15.0</ele><time>2026-04-24T08:55:21Z</time></trkpt><trkpt lat="-17.67462676263924" lon="123.47345918709452"><ele>15.0</ele><time>2026-04-24T08:55:22Z</time></trkpt><trkpt lat="-17.674678923065848" lon="123.47368773982568"><ele>15.333333333333332</ele><time>2026-04-24T08:55:23Z</time></trkpt><trkpt lat="-17.67472607780966" lon="123.4739034669111"><ele>15.666666666666666</ele><time>2026-04-24T08:55:24Z</time></trkpt><trkpt lat="-17.674768666122333" lon="123.47409904702222"><ele>16.0</ele><time>2026-04-24T08:55:25Z</time></trkpt><trkpt lat="-17.67480809301351" lon="123.4742802344817"><ele>16.0</ele><time>2026-04-24T08:55:26Z</time></trkpt><trkpt lat="-17.674844574154783" lon="123.47444678611839"><ele>16.0</ele><time>2026-04-24T08:55:27Z</time></trkpt><trkpt lat="-17.6748779161771" lon="123.47459194781061"><ele>16.0</ele><time>2026-04-24T08:55:28Z</time></trkpt><trkpt lat="-17.674908682843338" lon="123.47471861726994"><ele>16.0</ele><time>2026-04-24T08:55:29Z</time></trkpt><trkpt lat="-17.674934385250356" lon="123.47482505503999"><ele>16.0</ele><time>2026-04-24T08:55:30Z</time></trkpt><trkpt lat="-17.6749545422577" lon="123.47491247634706"><ele>16.0</ele><time>2026-04-24T08:55:31Z</time></trkpt><trkpt lat="-17.674969971356425" lon="123.47497673756573"><ele>16.0</ele><time>2026-04-24T08:55:32Z</time></trkpt></trkseg></trk></gpx>